<?xml version='1.0' encoding='UTF-8'?><gpx version="1.1" creator="JPX - https://github.com/jenetics/jpx" xmlns="http://www.topografix.com/GPX/1/1"><trk><trkseg><trkpt lat="40.188476789618946" lon="18.213684134488492"><ele>92.0</ele><time>2026-04-05T05:45:53Z</time></trkpt><trkpt lat="40.18851052124541" lon="18.213768919554628"><ele>92.0</ele><time>2026-04-05T05:45:55Z</time></trkpt><trkpt lat="40.18853510794712" lon="18.213851211077355"><ele>92.0</ele><time>2026-04-05T05:45:56Z</time></trkpt><trkpt lat="40.18854838052404" lon="18.213948136202692"><ele>92.0</ele><time>2026-04-05T05:45:57Z</time></trkpt><trkpt lat="40.18856068147755" lon="18.21405760296256"><ele>92.0</ele><time>2026-04-05T05:45:58Z</time></trkpt><trkpt lat="40.18857921273722" lon="18.214182395216504"><ele>92.0</ele><time>2026-04-05T05:45:59Z</time></trkpt><trkpt lat="40.188601010352535" lon="18.21431822986905"><ele>91.5</ele><time>2026-04-05T05:46:00Z</time></trkpt><trkpt lat="40.18862557468586" lon="18.214461377212547"><ele>91.0</ele><time>2026-04-05T05:46:01Z</time></trkpt><trkpt lat="40.18865039682119" lon="18.2146238054824"><ele>90.5</ele><time>2026-04-05T05:46:02Z</time></trkpt><trkpt lat="40.188679464086526" lon="18.214791342563263"><ele>90.0</ele><time>2026-04-05T05:46:03Z</time></trkpt><trkpt lat="40.188709040187106" lon="18.214975053358895"><ele>89.33333333333333</ele><time>2026-04-05T05:46:04Z</time></trkpt><trkpt lat="40.18874543728385" lon="18.215179036823198"><ele>88.66666666666666</ele><time>2026-04-05T05:46:05Z</time></trkpt><trkpt lat="40.18878874436026" lon="18.215413826821674"><ele>88.0</ele><time>2026-04-05T05:46:06Z</time></trkpt><trkpt lat="40.18882957777627" lon="18.215656094513612"><ele>88.0</ele><time>2026-04-05T05:46:07Z</time></trkpt><trkpt lat="40.188868398556735" lon="18.215907470245224"><ele>88.0</ele><time>2026-04-05T05:46:08Z</time></trkpt><trkpt lat="40.18891314671515" lon="18.21617479806417"><ele>88.0</ele><time>2026-04-05T05:46:09Z</time></trkpt><trkpt lat="40.18895478980428" lon="18.216442175102742"><ele>87.66666666666666</ele><time>2026-04-05T05:46:10Z</time></trkpt><trkpt lat="40.188995466827876" lon="18.216710323413647"><ele>87.33333333333333</ele><time>2026-04-05T05:46:11Z</time></trkpt><trkpt lat="40.18902679855107" lon="18.216987549064385"><ele>87.0</ele><time>2026-04-05T05:46:12Z</time></trkpt><trkpt lat="40.18908034719066" lon="18.217274153315437"><ele>87.5</ele><time>2026-04-05T05:46:13Z</time></trkpt><trkpt lat="40.189119358372274" lon="18.217564515125183"><ele>88.0</ele><time>2026-04-05T05:46:14Z</time></trkpt><trkpt lat="40.18916800562188" lon="18.217858369863325"><ele>88.0</ele><time>2026-04-05T05:46:15Z</time></trkpt><trkpt lat="40.189206933670846" lon="18.21814986052885"><ele>88.0</ele><time>2026-04-05T05:46:16Z</time></trkpt><trkpt lat="40.1892483787384" lon="18.218442909842842"><ele>87.0</ele><time>2026-04-05T05:46:17Z</time></trkpt><trkpt lat="40.18929234395422" lon="18.218745298353564"><ele>86.0</ele><time>2026-04-05T05:46:18.001Z</time></trkpt><trkpt lat="40.18933441238163" lon="18.21904438130193"><ele>85.5</ele><time>2026-04-05T05:46:19.001Z</time></trkpt><trkpt lat="40.189387682145664" lon="18.219343997869128"><ele>85.0</ele><time>2026-04-05T05:46:20.001Z</time></trkpt><trkpt lat="40.189435439273694" lon="18.219648310001894"><ele>85.0</ele><time>2026-04-05T05:46:21.001Z</time></trkpt><trkpt lat="40.189491766729745" lon="18.219961786383582"><ele>85.0</ele><time>2026-04-05T05:46:22.001Z</time></trkpt><trkpt lat="40.189539890037786" lon="18.220264363756968"><ele>85.0</ele><time>2026-04-05T05:46:23.001Z</time></trkpt><trkpt lat="40.189591804120724" lon="18.22057039863863"><ele>85.0</ele><time>2026-04-05T05:46:24.001Z</time></trkpt><trkpt lat="40.18963577295069" lon="18.220876780046606"><ele>85.5</ele><time>2026-04-05T05:46:25.001Z</time></trkpt><trkpt lat="40.18966863273796" lon="18.221191181970912"><ele>86.0</ele><time>2026-04-05T05:46:26.001Z</time></trkpt><trkpt lat="40.18971539171497" lon="18.2214906902663"><ele>86.0</ele><time>2026-04-05T05:46:27.001Z</time></trkpt><trkpt lat="40.18976357415493" lon="18.22179556709737"><ele>86.0</ele><time>2026-04-05T05:46:28.001Z</time></trkpt><trkpt lat="40.1898109266088" lon="18.222094980428317"><ele>86.0</ele><time>2026-04-05T05:46:29.001Z</time></trkpt><trkpt lat="40.18985652137861" lon="18.222389512898204"><ele>86.0</ele><time>2026-04-05T05:46:30.001Z</time></trkpt><trkpt lat="40.189901549659446" lon="18.22268023977798"><ele>86.0</ele><time>2026-04-05T05:46:31.001Z</time></trkpt><trkpt lat="40.18994759730574" lon="18.22297754804461"><ele>86.0</ele><time>2026-04-05T05:46:32Z</time></trkpt><trkpt lat="40.18999288910531" lon="18.223271122214395"><ele>85.0</ele><time>2026-04-05T05:46:33Z</time></trkpt><trkpt lat="40.19004010189502" lon="18.223579789433604"><ele>84.0</ele><time>2026-04-05T05:46:34Z</time></trkpt><trkpt lat="40.190087271126494" lon="18.223884540393723"><ele>84.5</ele><time>2026-04-05T05:46:35Z</time></trkpt><trkpt lat="40.190133575011444" lon="18.2241941566483"><ele>85.0</ele><time>2026-04-05T05:46:36Z</time></trkpt><trkpt lat="40.19019635073476" lon="18.22449989687681"><ele>85.0</ele><time>2026-04-05T05:46:37Z</time></trkpt><trkpt lat="40.19024480633121" lon="18.224813849099128"><ele>85.0</ele><time>2026-04-05T05:46:38Z</time></trkpt><trkpt lat="40.190292864267114" lon="18.225126536922044"><ele>85.0</ele><time>2026-04-05T05:46:39Z</time></trkpt><trkpt lat="40.190325548637055" lon="18.22544039809474"><ele>85.0</ele><time>2026-04-05T05:46:40Z</time></trkpt><trkpt lat="40.19037510821927" lon="18.225761358493266"><ele>84.5</ele><time>2026-04-05T05:46:41Z</time></trkpt><trkpt lat="40.19042500582502" lon="18.22608191451566"><ele>84.0</ele><time>2026-04-05T05:46:42Z</time></trkpt><trkpt lat="40.19051797719908" lon="18.226386966113882"><ele>83.0</ele><time>2026-04-05T05:46:43Z</time></trkpt><trkpt lat="40.19056202731694" lon="18.226702166605453"><ele>82.0</ele><time>2026-04-05T05:46:44Z</time></trkpt><trkpt lat="40.19060762388538" lon="18.22701402853101"><ele>82.0</ele><time>2026-04-05T05:46:45Z</time></trkpt><trkpt lat="40.19066235605707" lon="18.22731345160213"><ele>82.0</ele><time>2026-04-05T05:46:46Z</time></trkpt><trkpt lat="40.190698030160114" lon="18.227628286337943"><ele>82.33333333333333</ele><time>2026-04-05T05:46:47Z</time></trkpt><trkpt lat="40.19072772775136" lon="18.227928467911724"><ele>82.66666666666667</ele><time>2026-04-05T05:46:48Z</time></trkpt><trkpt lat="40.19076063666303" lon="18.228206075364938"><ele>83.0</ele><time>2026-04-05T05:46:49Z</time></trkpt><trkpt lat="40.19078793988346" lon="18.228456027558007"><ele>83.0</ele><time>2026-04-05T05:46:50Z</time></trkpt><trkpt lat="40.19081315710964" lon="18.228698199746812"><ele>83.0</ele><time>2026-04-05T05:46:51Z</time></trkpt><trkpt lat="40.19083204890633" lon="18.22893100848684"><ele>83.0</ele><time>2026-04-05T05:46:52Z</time></trkpt><trkpt lat="40.1908500026463" lon="18.22917943562788"><ele>82.66666666666667</ele><time>2026-04-05T05:46:53Z</time></trkpt><trkpt lat="40.190865311205926" lon="18.229438485746293"><ele>82.33333333333333</ele><time>2026-04-05T05:46:54Z</time></trkpt><trkpt lat="40.190869975391585" lon="18.22969782971504"><ele>82.0</ele><time>2026-04-05T05:46:55Z</time></trkpt><trkpt lat="40.190859621705556" lon="18.22994315505065"><ele>82.0</ele><time>2026-04-05T05:46:56Z</time></trkpt><trkpt lat="40.19083662444014" lon="18.230182983943855"><ele>82.0</ele><time>2026-04-05T05:46:57Z</time></trkpt><trkpt lat="40.19080706546854" lon="18.230405101252792"><ele>82.0</ele><time>2026-04-05T05:46:58Z</time></trkpt><trkpt lat="40.1907688763973" lon="18.230604415381734"><ele>82.25</ele><time>2026-04-05T05:46:59Z</time></trkpt><trkpt lat="40.19073113863276" lon="18.23076666753614"><ele>82.5</ele><time>2026-04-05T05:47:00Z</time></trkpt><trkpt lat="40.19067472637892" lon="18.230947765727258"><ele>82.75</ele><time>2026-04-05T05:47:01Z</time></trkpt><trkpt lat="40.190596833320164" lon="18.23110191833666"><ele>83.0</ele><time>2026-04-05T05:47:02Z</time></trkpt><trkpt lat="40.19049513486437" lon="18.23125543333606"><ele>82.33333333333334</ele><time>2026-04-05T05:47:03Z</time></trkpt><trkpt lat="40.190338879884685" lon="18.231375926413822"><ele>81.66666666666667</ele><time>2026-04-05T05:47:04Z</time></trkpt><trkpt lat="40.190194341059886" lon="18.231523930321146"><ele>81.0</ele><time>2026-04-05T05:47:05Z</time></trkpt><trkpt lat="40.19003581935921" lon="18.23170010406278"><ele>81.0</ele><time>2026-04-05T05:47:06Z</time></trkpt><trkpt lat="40.18986473491938" lon="18.231893984207424"><ele>81.0</ele><time>2026-04-05T05:47:07Z</time></trkpt><trkpt lat="40.1896810917384" lon="18.23209314150435"><ele>81.0</ele><time>2026-04-05T05:47:08Z</time></trkpt><trkpt lat="40.189490235927515" lon="18.23228475973025"><ele>81.0</ele><time>2026-04-05T05:47:09Z</time></trkpt><trkpt lat="40.18929136750224" lon="18.232483674723113"><ele>81.0</ele><time>2026-04-05T05:47:10Z</time></trkpt><trkpt lat="40.18909037298969" lon="18.23269544882022"><ele>81.0</ele><time>2026-04-05T05:47:11Z</time></trkpt><trkpt lat="40.18887873607658" lon="18.232915160223094"><ele>80.5</ele><time>2026-04-05T05:47:12Z</time></trkpt><trkpt lat="40.18866324287187" lon="18.23313746739146"><ele>80.0</ele><time>2026-04-05T05:47:13Z</time></trkpt><trkpt lat="40.18845290326085" lon="18.23335911842143"><ele>80.0</ele><time>2026-04-05T05:47:14Z</time></trkpt><trkpt lat="40.1882410000846" lon="18.233583669876438"><ele>80.0</ele><time>2026-04-05T05:47:15Z</time></trkpt><trkpt lat="40.18802026658624" lon="18.233807490831364"><ele>80.0</ele><time>2026-04-05T05:47:16Z</time></trkpt><trkpt lat="40.187793205392595" lon="18.23404098965873"><ele>80.0</ele><time>2026-04-05T05:47:17Z</time></trkpt><trkpt lat="40.18756413735108" lon="18.23427899806298"><ele>79.5</ele><time>2026-04-05T05:47:18Z</time></trkpt><trkpt lat="40.187332325821345" lon="18.234516227595805"><ele>79.0</ele><time>2026-04-05T05:47:19Z</time></trkpt><trkpt lat="40.18710027386871" lon="18.2347555654397"><ele>80.0</ele><time>2026-04-05T05:47:20Z</time></trkpt><trkpt lat="40.1868650995831" lon="18.234998412384783"><ele>81.0</ele><time>2026-04-05T05:47:21Z</time></trkpt><trkpt lat="40.186627955125516" lon="18.235243645260258"><ele>80.0</ele><time>2026-04-05T05:47:22Z</time></trkpt><trkpt lat="40.18639047806725" lon="18.235491005567805"><ele>79.0</ele><time>2026-04-05T05:47:23Z</time></trkpt><trkpt lat="40.18614761430321" lon="18.23573773656866"><ele>79.0</ele><time>2026-04-05T05:47:24Z</time></trkpt><trkpt lat="40.185905229919754" lon="18.23598608326236"><ele>79.0</ele><time>2026-04-05T05:47:25Z</time></trkpt><trkpt lat="40.18565745483102" lon="18.236235002239944"><ele>78.5</ele><time>2026-04-05T05:47:26Z</time></trkpt><trkpt lat="40.1854143815793" lon="18.236487147434605"><ele>78.0</ele><time>2026-04-05T05:47:27Z</time></trkpt><trkpt lat="40.185166779518035" lon="18.236740163744773"><ele>78.0</ele><time>2026-04-05T05:47:28Z</time></trkpt><trkpt lat="40.18492827876381" lon="18.237002300437744"><ele>78.0</ele><time>2026-04-05T05:47:29Z</time></trkpt><trkpt lat="40.18468289039913" lon="18.237259276930985"><ele>79.0</ele><time>2026-04-05T05:47:30Z</time></trkpt><trkpt lat="40.184439414735934" lon="18.237522371617228"><ele>80.0</ele><time>2026-04-05T05:47:31Z</time></trkpt><trkpt lat="40.18419530062889" lon="18.237780091960104"><ele>80.0</ele><time>2026-04-05T05:47:32Z</time></trkpt><trkpt lat="40.18395964865271" lon="18.23804719638233"><ele>80.0</ele><time>2026-04-05T05:47:33Z</time></trkpt><trkpt lat="40.18372492937758" lon="18.238314053426304"><ele>80.0</ele><time>2026-04-05T05:47:34Z</time></trkpt><trkpt lat="40.18349635475473" lon="18.238585618598346"><ele>80.0</ele><time>2026-04-05T05:47:35Z</time></trkpt><trkpt lat="40.18327311334164" lon="18.2388674817436"><ele>79.5</ele><time>2026-04-05T05:47:36Z</time></trkpt><trkpt lat="40.18305418875063" lon="18.239152357516364"><ele>79.0</ele><time>2026-04-05T05:47:37Z</time></trkpt><trkpt lat="40.18282651611431" lon="18.239435028665874"><ele>79.0</ele><time>2026-04-05T05:47:38Z</time></trkpt><trkpt lat="40.18261321567181" lon="18.23972769184286"><ele>79.0</ele><time>2026-04-05T05:47:39Z</time></trkpt><trkpt lat="40.18239756986844" lon="18.240023029335838"><ele>80.0</ele><time>2026-04-05T05:47:40Z</time></trkpt><trkpt lat="40.18219550758755" lon="18.240331481551802"><ele>81.0</ele><time>2026-04-05T05:47:41Z</time></trkpt><trkpt lat="40.18199339807598" lon="18.240637057256404"><ele>81.0</ele><time>2026-04-05T05:47:42Z</time></trkpt><trkpt lat="40.18179075861896" lon="18.240948852083463"><ele>81.0</ele><time>2026-04-05T05:47:43Z</time></trkpt><trkpt lat="40.18158674079402" lon="18.241259819444092"><ele>81.0</ele><time>2026-04-05T05:47:44Z</time></trkpt><trkpt lat="40.18138208402466" lon="18.241572515395386"><ele>81.0</ele><time>2026-04-05T05:47:45Z</time></trkpt><trkpt lat="40.1811748716785" lon="18.241881952606896"><ele>81.0</ele><time>2026-04-05T05:47:46Z</time></trkpt><trkpt lat="40.180965085646946" lon="18.242188929526346"><ele>81.0</ele><time>2026-04-05T05:47:47Z</time></trkpt><trkpt lat="40.18075547243919" lon="18.242495615700143"><ele>79.5</ele><time>2026-04-05T05:47:48Z</time></trkpt><trkpt lat="40.18054965236478" lon="18.242803344062555"><ele>78.0</ele><time>2026-04-05T05:47:49Z</time></trkpt><trkpt lat="40.18034652752286" lon="18.243115491251867"><ele>78.0</ele><time>2026-04-05T05:47:50Z</time></trkpt><trkpt lat="40.180140093279384" lon="18.243427979433335"><ele>78.0</ele><time>2026-04-05T05:47:51Z</time></trkpt><trkpt lat="40.17994106686232" lon="18.243746458195698"><ele>76.0</ele><time>2026-04-05T05:47:52Z</time></trkpt><trkpt lat="40.17973677646128" lon="18.244061440004938"><ele>74.0</ele><time>2026-04-05T05:47:53Z</time></trkpt><trkpt lat="40.17953042066722" lon="18.244379800578937"><ele>74.0</ele><time>2026-04-05T05:47:54Z</time></trkpt><trkpt lat="40.17932307516354" lon="18.244691704990213"><ele>74.0</ele><time>2026-04-05T05:47:55Z</time></trkpt><trkpt lat="40.179116197680244" lon="18.245007241039982"><ele>77.5</ele><time>2026-04-05T05:47:56Z</time></trkpt><trkpt lat="40.17890907579144" lon="18.24532238220495"><ele>81.0</ele><time>2026-04-05T05:47:57Z</time></trkpt><trkpt lat="40.178701207359474" lon="18.245637600859087"><ele>81.5</ele><time>2026-04-05T05:47:58Z</time></trkpt><trkpt lat="40.178490609352316" lon="18.24595370587811"><ele>82.0</ele><time>2026-04-05T05:47:59.001Z</time></trkpt><trkpt lat="40.17828572420478" lon="18.246273548945254"><ele>83.0</ele><time>2026-04-05T05:48:00.001Z</time></trkpt><trkpt lat="40.1780768982057" lon="18.246590562713187"><ele>84.0</ele><time>2026-04-05T05:48:01.001Z</time></trkpt><trkpt lat="40.177868286214704" lon="18.246904901360956"><ele>84.0</ele><time>2026-04-05T05:48:02.001Z</time></trkpt><trkpt lat="40.177656950519925" lon="18.247222292831882"><ele>84.0</ele><time>2026-04-05T05:48:03.001Z</time></trkpt><trkpt lat="40.177448707331834" lon="18.247538467217588"><ele>84.5</ele><time>2026-04-05T05:48:04.001Z</time></trkpt><trkpt lat="40.177238885314736" lon="18.247853390998312"><ele>85.0</ele><time>2026-04-05T05:48:05.001Z</time></trkpt><trkpt lat="40.17703052895267" lon="18.24816861734619"><ele>85.0</ele><time>2026-04-05T05:48:06.001Z</time></trkpt><trkpt lat="40.176824140402495" lon="18.248484160132882"><ele>85.0</ele><time>2026-04-05T05:48:07.001Z</time></trkpt><trkpt lat="40.176614581436496" lon="18.248796618719947"><ele>85.5</ele><time>2026-04-05T05:48:08.001Z</time></trkpt><trkpt lat="40.176403406225965" lon="18.249112464937543"><ele>86.0</ele><time>2026-04-05T05:48:09.001Z</time></trkpt><trkpt lat="40.1761914491515" lon="18.24942825716434"><ele>86.0</ele><time>2026-04-05T05:48:10.001Z</time></trkpt><trkpt lat="40.175980541810866" lon="18.249744027708864"><ele>86.0</ele><time>2026-04-05T05:48:11.001Z</time></trkpt><trkpt lat="40.175766167329385" lon="18.250059795229205"><ele>86.0</ele><time>2026-04-05T05:48:12.001Z</time></trkpt><trkpt lat="40.17555579602829" lon="18.250376137236632"><ele>86.0</ele><time>2026-04-05T05:48:13.001Z</time></trkpt><trkpt lat="40.1753428227435" lon="18.250692887910315"><ele>86.5</ele><time>2026-04-05T05:48:14.001Z</time></trkpt><trkpt lat="40.17512617354249" lon="18.251010228882397"><ele>87.0</ele><time>2026-04-05T05:48:15.001Z</time></trkpt><trkpt lat="40.17491412105117" lon="18.25133171989655"><ele>87.0</ele><time>2026-04-05T05:48:16.001Z</time></trkpt><trkpt lat="40.17469901387071" lon="18.251649337163762"><ele>87.0</ele><time>2026-04-05T05:48:17.001Z</time></trkpt><trkpt lat="40.17448903579692" lon="18.251970370726166"><ele>87.0</ele><time>2026-04-05T05:48:18.001Z</time></trkpt><trkpt lat="40.174273484948344" lon="18.252288565493878"><ele>87.0</ele><time>2026-04-05T05:48:19.001Z</time></trkpt><trkpt lat="40.17405914677316" lon="18.25260846695969"><ele>86.5</ele><time>2026-04-05T05:48:20.001Z</time></trkpt><trkpt lat="40.17384276655594" lon="18.25293246100384"><ele>86.0</ele><time>2026-04-05T05:48:21.001Z</time></trkpt><trkpt lat="40.1736250408665" lon="18.253253807514664"><ele>86.0</ele><time>2026-04-05T05:48:22.001Z</time></trkpt><trkpt lat="40.17341130974685" lon="18.253573632564393"><ele>86.0</ele><time>2026-04-05T05:48:23.001Z</time></trkpt><trkpt lat="40.17319659372266" lon="18.2539014475518"><ele>85.0</ele><time>2026-04-05T05:48:24.001Z</time></trkpt><trkpt lat="40.17297670717645" lon="18.254225721457956"><ele>84.0</ele><time>2026-04-05T05:48:25.001Z</time></trkpt><trkpt lat="40.17276475383869" lon="18.254552780137303"><ele>84.5</ele><time>2026-04-05T05:48:26.001Z</time></trkpt><trkpt lat="40.172550106726895" lon="18.25487489588614"><ele>85.0</ele><time>2026-04-05T05:48:27.001Z</time></trkpt><trkpt lat="40.17232935902115" lon="18.25519559989239"><ele>85.0</ele><time>2026-04-05T05:48:28.001Z</time></trkpt><trkpt lat="40.172107157335425" lon="18.255516883427884"><ele>85.0</ele><time>2026-04-05T05:48:29.001Z</time></trkpt><trkpt lat="40.17189112281268" lon="18.255841951555308"><ele>85.0</ele><time>2026-04-05T05:48:30.001Z</time></trkpt><trkpt lat="40.17167385087224" lon="18.256164620026826"><ele>85.0</ele><time>2026-04-05T05:48:31.001Z</time></trkpt><trkpt lat="40.17145450880049" lon="18.25648731664895"><ele>84.5</ele><time>2026-04-05T05:48:32.001Z</time></trkpt><trkpt lat="40.171238811021105" lon="18.256806652974344"><ele>84.0</ele><time>2026-04-05T05:48:33.001Z</time></trkpt><trkpt lat="40.17102307873768" lon="18.257130599566228"><ele>84.0</ele><time>2026-04-05T05:48:34.001Z</time></trkpt><trkpt lat="40.17080152734223" lon="18.257458804428126"><ele>84.0</ele><time>2026-04-05T05:48:35.001Z</time></trkpt><trkpt lat="40.170583643751336" lon="18.25778498020971"><ele>84.0</ele><time>2026-04-05T05:48:36.001Z</time></trkpt><trkpt lat="40.1703648847126" lon="18.25810809387429"><ele>84.0</ele><time>2026-04-05T05:48:37.001Z</time></trkpt><trkpt lat="40.1701437258391" lon="18.258429690290964"><ele>84.5</ele><time>2026-04-05T05:48:38Z</time></trkpt><trkpt lat="40.169914601472705" lon="18.25874571369081"><ele>85.0</ele><time>2026-04-05T05:48:39Z</time></trkpt><trkpt lat="40.16968943604958" lon="18.25906288958437"><ele>85.5</ele><time>2026-04-05T05:48:40Z</time></trkpt><trkpt lat="40.169457953904015" lon="18.259377683997194"><ele>86.0</ele><time>2026-04-05T05:48:41Z</time></trkpt><trkpt lat="40.16922935210892" lon="18.25968877379087"><ele>86.0</ele><time>2026-04-05T05:48:42Z</time></trkpt><trkpt lat="40.168996146758545" lon="18.259997681839298"><ele>86.0</ele><time>2026-04-05T05:48:43Z</time></trkpt><trkpt lat="40.16876244617075" lon="18.26030811655836"><ele>86.0</ele><time>2026-04-05T05:48:44Z</time></trkpt><trkpt lat="40.16852867847082" lon="18.260618264372425"><ele>86.0</ele><time>2026-04-05T05:48:45Z</time></trkpt><trkpt lat="40.16829313136449" lon="18.260924793808194"><ele>85.5</ele><time>2026-04-05T05:48:46Z</time></trkpt><trkpt lat="40.168054222137606" lon="18.26122779417116"><ele>85.0</ele><time>2026-04-05T05:48:47Z</time></trkpt><trkpt lat="40.167817990529265" lon="18.261532269338066"><ele>85.0</ele><time>2026-04-05T05:48:48Z</time></trkpt><trkpt lat="40.16757860876852" lon="18.261835095217645"><ele>85.0</ele><time>2026-04-05T05:48:49Z</time></trkpt><trkpt lat="40.16734471953139" lon="18.262136701423756"><ele>85.0</ele><time>2026-04-05T05:48:50Z</time></trkpt><trkpt lat="40.167106473587175" lon="18.262438118075735"><ele>85.0</ele><time>2026-04-05T05:48:51Z</time></trkpt><trkpt lat="40.16687173506827" lon="18.26273674791167"><ele>85.0</ele><time>2026-04-05T05:48:52Z</time></trkpt><trkpt lat="40.16663002485458" lon="18.26303679732454"><ele>85.0</ele><time>2026-04-05T05:48:53Z</time></trkpt><trkpt lat="40.166391670058104" lon="18.263337968321924"><ele>84.5</ele><time>2026-04-05T05:48:54Z</time></trkpt><trkpt lat="40.16615319539985" lon="18.263639112264165"><ele>84.0</ele><time>2026-04-05T05:48:55Z</time></trkpt><trkpt lat="40.16591954557377" lon="18.263940850661264"><ele>84.5</ele><time>2026-04-05T05:48:56Z</time></trkpt><trkpt lat="40.16567765931099" lon="18.264242694685702"><ele>85.0</ele><time>2026-04-05T05:48:57Z</time></trkpt><trkpt lat="40.16544574169001" lon="18.26454374165819"><ele>85.0</ele><time>2026-04-05T05:48:58Z</time></trkpt><trkpt lat="40.16520666630968" lon="18.26484931189182"><ele>85.0</ele><time>2026-04-05T05:48:59Z</time></trkpt><trkpt lat="40.16496774448204" lon="18.26515262298336"><ele>85.0</ele><time>2026-04-05T05:49:00Z</time></trkpt><trkpt lat="40.16473257454947" lon="18.265455536737115"><ele>85.0</ele><time>2026-04-05T05:49:01Z</time></trkpt><trkpt lat="40.164490622593405" lon="18.265757763355452"><ele>85.0</ele><time>2026-04-05T05:49:02Z</time></trkpt><trkpt lat="40.16425306477515" lon="18.266056354501607"><ele>85.0</ele><time>2026-04-05T05:49:03Z</time></trkpt><trkpt lat="40.16401343292977" lon="18.266353883976482"><ele>85.5</ele><time>2026-04-05T05:49:04Z</time></trkpt><trkpt lat="40.16377647689771" lon="18.26665558059962"><ele>86.0</ele><time>2026-04-05T05:49:05Z</time></trkpt><trkpt lat="40.163536550035616" lon="18.266958272987086"><ele>86.0</ele><time>2026-04-05T05:49:06Z</time></trkpt><trkpt lat="40.16330023647333" lon="18.26726323956032"><ele>86.0</ele><time>2026-04-05T05:49:07Z</time></trkpt><trkpt lat="40.16306305695623" lon="18.267566592961398"><ele>86.5</ele><time>2026-04-05T05:49:08Z</time></trkpt><trkpt lat="40.16282877288459" lon="18.267871574203483"><ele>87.0</ele><time>2026-04-05T05:49:09Z</time></trkpt><trkpt lat="40.16259391550029" lon="18.268175195523934"><ele>87.5</ele><time>2026-04-05T05:49:10Z</time></trkpt><trkpt lat="40.162349646331585" lon="18.268475962763315"><ele>88.0</ele><time>2026-04-05T05:49:11Z</time></trkpt><trkpt lat="40.1621031648962" lon="18.2687704434853"><ele>88.0</ele><time>2026-04-05T05:49:12Z</time></trkpt><trkpt lat="40.16184892131653" lon="18.269052795529117"><ele>88.0</ele><time>2026-04-05T05:49:13Z</time></trkpt><trkpt lat="40.16159032587038" lon="18.26932476589229"><ele>87.0</ele><time>2026-04-05T05:49:14Z</time></trkpt><trkpt lat="40.16132025743266" lon="18.269589266514682"><ele>86.0</ele><time>2026-04-05T05:49:15Z</time></trkpt><trkpt lat="40.16104754631057" lon="18.26984218102674"><ele>86.0</ele><time>2026-04-05T05:49:16Z</time></trkpt><trkpt lat="40.16077366427781" lon="18.270095640106067"><ele>86.0</ele><time>2026-04-05T05:49:17Z</time></trkpt><trkpt lat="40.16049885251511" lon="18.270348666231694"><ele>86.0</ele><time>2026-04-05T05:49:18Z</time></trkpt><trkpt lat="40.160224059668245" lon="18.270597932713745"><ele>86.0</ele><time>2026-04-05T05:49:19Z</time></trkpt><trkpt lat="40.1599622993074" lon="18.270842931003738"><ele>86.0</ele><time>2026-04-05T05:49:20Z</time></trkpt><trkpt lat="40.15970148777038" lon="18.271100664167005"><ele>86.0</ele><time>2026-04-05T05:49:21Z</time></trkpt><trkpt lat="40.159442443980275" lon="18.271357923931244"><ele>87.0</ele><time>2026-04-05T05:49:22Z</time></trkpt><trkpt lat="40.159191441699825" lon="18.271627983219865"><ele>88.0</ele><time>2026-04-05T05:49:23Z</time></trkpt><trkpt lat="40.15894166446431" lon="18.27190409435349"><ele>86.5</ele><time>2026-04-05T05:49:24Z</time></trkpt><trkpt lat="40.158697627481246" lon="18.272196520549766"><ele>85.0</ele><time>2026-04-05T05:49:25Z</time></trkpt><trkpt lat="40.15845683870723" lon="18.27249410380668"><ele>85.0</ele><time>2026-04-05T05:49:26Z</time></trkpt><trkpt lat="40.158219673898586" lon="18.272795519057144"><ele>85.0</ele><time>2026-04-05T05:49:27Z</time></trkpt><trkpt lat="40.15797698819706" lon="18.273087877790566"><ele>85.5</ele><time>2026-04-05T05:49:28Z</time></trkpt><trkpt lat="40.15772908152191" lon="18.2733744208606"><ele>86.0</ele><time>2026-04-05T05:49:29Z</time></trkpt><trkpt lat="40.15748294608033" lon="18.273663842648066"><ele>86.0</ele><time>2026-04-05T05:49:30Z</time></trkpt><trkpt lat="40.157237072975164" lon="18.273952167747744"><ele>86.0</ele><time>2026-04-05T05:49:31Z</time></trkpt><trkpt lat="40.15699128831075" lon="18.274239169970006"><ele>86.0</ele><time>2026-04-05T05:49:32Z</time></trkpt><trkpt lat="40.15674498084856" lon="18.274531331054007"><ele>86.0</ele><time>2026-04-05T05:49:33Z</time></trkpt><trkpt lat="40.15649546383299" lon="18.274807893094682"><ele>84.5</ele><time>2026-04-05T05:49:34Z</time></trkpt><trkpt lat="40.156241136618355" lon="18.275077770927936"><ele>83.0</ele><time>2026-04-05T05:49:35Z</time></trkpt><trkpt lat="40.155981309273876" lon="18.275330648367976"><ele>83.0</ele><time>2026-04-05T05:49:36Z</time></trkpt><trkpt lat="40.15570961071626" lon="18.27557235308413"><ele>83.0</ele><time>2026-04-05T05:49:37Z</time></trkpt><trkpt lat="40.15542967978863" lon="18.275802894802375"><ele>82.5</ele><time>2026-04-05T05:49:38Z</time></trkpt><trkpt lat="40.15514345793382" lon="18.27602036447476"><ele>82.0</ele><time>2026-04-05T05:49:39Z</time></trkpt><trkpt lat="40.154849869833356" lon="18.276225760095556"><ele>82.0</ele><time>2026-04-05T05:49:40Z</time></trkpt><trkpt lat="40.154547365186396" lon="18.276427732585127"><ele>82.0</ele><time>2026-04-05T05:49:41Z</time></trkpt><trkpt lat="40.15423449386987" lon="18.27663239971175"><ele>81.0</ele><time>2026-04-05T05:49:42Z</time></trkpt><trkpt lat="40.15392215960164" lon="18.276843149303446"><ele>80.0</ele><time>2026-04-05T05:49:43Z</time></trkpt><trkpt lat="40.15361202556173" lon="18.277056070241233"><ele>80.5</ele><time>2026-04-05T05:49:44Z</time></trkpt><trkpt lat="40.15330357739652" lon="18.27727122253652"><ele>81.0</ele><time>2026-04-05T05:49:45Z</time></trkpt><trkpt lat="40.152996491481844" lon="18.277486875685867"><ele>81.0</ele><time>2026-04-05T05:49:46Z</time></trkpt><trkpt lat="40.15268743865968" lon="18.277703424691197"><ele>81.0</ele><time>2026-04-05T05:49:47Z</time></trkpt><trkpt lat="40.15237305261022" lon="18.277915454436904"><ele>81.5</ele><time>2026-04-05T05:49:48Z</time></trkpt><trkpt lat="40.15206311867378" lon="18.27812788399349"><ele>82.0</ele><time>2026-04-05T05:49:49Z</time></trkpt><trkpt lat="40.15175406809182" lon="18.278337193808305"><ele>81.5</ele><time>2026-04-05T05:49:50Z</time></trkpt><trkpt lat="40.15144269656957" lon="18.278547330622036"><ele>81.0</ele><time>2026-04-05T05:49:51Z</time></trkpt><trkpt lat="40.15113447486466" lon="18.27875421489469"><ele>81.5</ele><time>2026-04-05T05:49:52.001Z</time></trkpt><trkpt lat="40.15082149950839" lon="18.278952235482503"><ele>82.0</ele><time>2026-04-05T05:49:53.001Z</time></trkpt><trkpt lat="40.15050486969554" lon="18.279142791999796"><ele>82.5</ele><time>2026-04-05T05:49:54.001Z</time></trkpt><trkpt lat="40.150185644106635" lon="18.27932456470533"><ele>83.0</ele><time>2026-04-05T05:49:55.001Z</time></trkpt><trkpt lat="40.14987059998859" lon="18.27950413660911"><ele>83.0</ele><time>2026-04-05T05:49:56.001Z</time></trkpt><trkpt lat="40.149554449811525" lon="18.279689521047445"><ele>83.0</ele><time>2026-04-05T05:49:57.001Z</time></trkpt><trkpt lat="40.14923942972336" lon="18.279874408080346"><ele>82.5</ele><time>2026-04-05T05:49:58.001Z</time></trkpt><trkpt lat="40.14892586932209" lon="18.280061567614606"><ele>82.0</ele><time>2026-04-05T05:49:59.001Z</time></trkpt><trkpt lat="40.148610913507035" lon="18.280249635109655"><ele>82.0</ele><time>2026-04-05T05:50:00.001Z</time></trkpt><trkpt lat="40.14829985531228" lon="18.2804409555812"><ele>82.0</ele><time>2026-04-05T05:50:01.001Z</time></trkpt><trkpt lat="40.14797970113237" lon="18.280628842249776"><ele>82.0</ele><time>2026-04-05T05:50:02.001Z</time></trkpt><trkpt lat="40.14766355486513" lon="18.280817033366738"><ele>82.0</ele><time>2026-04-05T05:50:03.001Z</time></trkpt><trkpt lat="40.14734639293697" lon="18.281006256637504"><ele>82.0</ele><time>2026-04-05T05:50:04.001Z</time></trkpt><trkpt lat="40.14703004632294" lon="18.281192306024664"><ele>82.0</ele><time>2026-04-05T05:50:05.001Z</time></trkpt><trkpt lat="40.146715686417394" lon="18.281380275715847"><ele>82.0</ele><time>2026-04-05T05:50:06.001Z</time></trkpt><trkpt lat="40.14639554630379" lon="18.281570992681374"><ele>82.0</ele><time>2026-04-05T05:50:07.001Z</time></trkpt><trkpt lat="40.14607994074359" lon="18.28176183096628"><ele>82.0</ele><time>2026-04-05T05:50:08.001Z</time></trkpt><trkpt lat="40.145762321490224" lon="18.281953226290007"><ele>82.0</ele><time>2026-04-05T05:50:09.001Z</time></trkpt><trkpt lat="40.14544357634609" lon="18.282144759564936"><ele>81.5</ele><time>2026-04-05T05:50:10.001Z</time></trkpt><trkpt lat="40.145124393867704" lon="18.28233567290931"><ele>81.0</ele><time>2026-04-05T05:50:11.001Z</time></trkpt><trkpt lat="40.144807357746174" lon="18.28252239218875"><ele>80.5</ele><time>2026-04-05T05:50:12.001Z</time></trkpt><trkpt lat="40.14449131785477" lon="18.282705465462353"><ele>80.0</ele><time>2026-04-05T05:50:13.001Z</time></trkpt><trkpt lat="40.1441820675489" lon="18.282886477428114"><ele>80.0</ele><time>2026-04-05T05:50:14.001Z</time></trkpt><trkpt lat="40.14388138053879" lon="18.283065459931585"><ele>80.0</ele><time>2026-04-05T05:50:15.001Z</time></trkpt><trkpt lat="40.14358891797699" lon="18.2832397411673"><ele>80.0</ele><time>2026-04-05T05:50:16.001Z</time></trkpt><trkpt lat="40.14329702049183" lon="18.283411457560508"><ele>80.0</ele><time>2026-04-05T05:50:17.001Z</time></trkpt><trkpt lat="40.14301397514709" lon="18.283592966953712"><ele>80.0</ele><time>2026-04-05T05:50:18.001Z</time></trkpt><trkpt lat="40.142736220008814" lon="18.283776351095007"><ele>80.0</ele><time>2026-04-05T05:50:19.001Z</time></trkpt><trkpt lat="40.14246269496686" lon="18.283974915342238"><ele>81.0</ele><time>2026-04-05T05:50:20.001Z</time></trkpt><trkpt lat="40.1422029190077" lon="18.2841938195509"><ele>82.0</ele><time>2026-04-05T05:50:21.001Z</time></trkpt><trkpt lat="40.141949672476585" lon="18.284419381434468"><ele>82.0</ele><time>2026-04-05T05:50:22.001Z</time></trkpt><trkpt lat="40.14170604632827" lon="18.284655674299064"><ele>82.0</ele><time>2026-04-05T05:50:23.001Z</time></trkpt><trkpt lat="40.14146724264189" lon="18.28490311819846"><ele>83.0</ele><time>2026-04-05T05:50:24.001Z</time></trkpt><trkpt lat="40.14123664542884" lon="18.285160446150716"><ele>84.0</ele><time>2026-04-05T05:50:25.001Z</time></trkpt><trkpt lat="40.141008599993576" lon="18.285423274445446"><ele>84.0</ele><time>2026-04-05T05:50:26.001Z</time></trkpt><trkpt lat="40.14078777395359" lon="18.28569553548425"><ele>84.0</ele><time>2026-04-05T05:50:27.001Z</time></trkpt><trkpt lat="40.140562755527654" lon="18.28597329221008"><ele>82.5</ele><time>2026-04-05T05:50:28.001Z</time></trkpt><trkpt lat="40.14035963490243" lon="18.2862708593377"><ele>81.0</ele><time>2026-04-05T05:50:29.001Z</time></trkpt><trkpt lat="40.140156772173164" lon="18.286573389618926"><ele>81.0</ele><time>2026-04-05T05:50:30.001Z</time></trkpt><trkpt lat="40.13996186438473" lon="18.286884052106796"><ele>81.0</ele><time>2026-04-05T05:50:31.001Z</time></trkpt><trkpt lat="40.13977293191148" lon="18.28720753428821"><ele>81.0</ele><time>2026-04-05T05:50:32.001Z</time></trkpt><trkpt lat="40.13958624052724" lon="18.28753445616085"><ele>81.0</ele><time>2026-04-05T05:50:33.001Z</time></trkpt><trkpt lat="40.13939366282109" lon="18.287864699457778"><ele>81.0</ele><time>2026-04-05T05:50:34.001Z</time></trkpt><trkpt lat="40.1391974849854" lon="18.28818967402481"><ele>81.0</ele><time>2026-04-05T05:50:35.001Z</time></trkpt><trkpt lat="40.138995774672296" lon="18.288515948539345"><ele>81.5</ele><time>2026-04-05T05:50:36.001Z</time></trkpt><trkpt lat="40.138794847470415" lon="18.288843363883274"><ele>82.0</ele><time>2026-04-05T05:50:37.001Z</time></trkpt><trkpt lat="40.13859266681723" lon="18.289174999381842"><ele>82.0</ele><time>2026-04-05T05:50:38.001Z</time></trkpt><trkpt lat="40.13839316458868" lon="18.289505333861303"><ele>82.0</ele><time>2026-04-05T05:50:39.001Z</time></trkpt><trkpt lat="40.138190376348355" lon="18.289833238984112"><ele>82.0</ele><time>2026-04-05T05:50:40.001Z</time></trkpt><trkpt lat="40.137993791468375" lon="18.290164908097303"><ele>82.0</ele><time>2026-04-05T05:50:41.001Z</time></trkpt><trkpt lat="40.13779367366122" lon="18.29049992609193"><ele>84.0</ele><time>2026-04-05T05:50:42.001Z</time></trkpt><trkpt lat="40.137592327036465" lon="18.29083191678929"><ele>86.0</ele><time>2026-04-05T05:50:43.001Z</time></trkpt><trkpt lat="40.13739242659359" lon="18.2911676179252"><ele>87.0</ele><time>2026-04-05T05:50:44Z</time></trkpt><trkpt lat="40.13718871519641" lon="18.291500581392974"><ele>88.0</ele><time>2026-04-05T05:50:45Z</time></trkpt><trkpt lat="40.13698244588431" lon="18.29183427719892"><ele>88.0</ele><time>2026-04-05T05:50:46Z</time></trkpt><trkpt lat="40.136781195884204" lon="18.292168493731786"><ele>88.0</ele><time>2026-04-05T05:50:47Z</time></trkpt><trkpt lat="40.13657724369672" lon="18.292503839775655"><ele>87.5</ele><time>2026-04-05T05:50:48Z</time></trkpt><trkpt lat="40.13637556879015" lon="18.292840389314353"><ele>87.0</ele><time>2026-04-05T05:50:49Z</time></trkpt><trkpt lat="40.136173936830374" lon="18.293175783001946"><ele>87.0</ele><time>2026-04-05T05:50:50Z</time></trkpt><trkpt lat="40.13597220455085" lon="18.29350931941492"><ele>87.0</ele><time>2026-04-05T05:50:51Z</time></trkpt><trkpt lat="40.135768958486224" lon="18.293843496472455"><ele>86.5</ele><time>2026-04-05T05:50:52Z</time></trkpt><trkpt lat="40.13556635033042" lon="18.29417891767461"><ele>86.0</ele><time>2026-04-05T05:50:53Z</time></trkpt><trkpt lat="40.135362242675" lon="18.294512114103405"><ele>86.0</ele><time>2026-04-05T05:50:54Z</time></trkpt><trkpt lat="40.13515885434128" lon="18.294845223390762"><ele>86.0</ele><time>2026-04-05T05:50:55Z</time></trkpt><trkpt lat="40.13495273627544" lon="18.295179795348854"><ele>86.0</ele><time>2026-04-05T05:50:56Z</time></trkpt><trkpt lat="40.134752634395724" lon="18.295515369826653"><ele>86.0</ele><time>2026-04-05T05:50:57Z</time></trkpt><trkpt lat="40.134552754355184" lon="18.295847750685134"><ele>87.0</ele><time>2026-04-05T05:50:58Z</time></trkpt><trkpt lat="40.13435090312779" lon="18.296183510264896"><ele>88.0</ele><time>2026-04-05T05:50:59Z</time></trkpt><trkpt lat="40.134150578296406" lon="18.296511576113556"><ele>88.5</ele><time>2026-04-05T05:51:00Z</time></trkpt><trkpt lat="40.13394733218202" lon="18.296841513636988"><ele>89.0</ele><time>2026-04-05T05:51:01Z</time></trkpt><trkpt lat="40.133747419006426" lon="18.297175200527462"><ele>88.5</ele><time>2026-04-05T05:51:02Z</time></trkpt><trkpt lat="40.133547191996676" lon="18.29750828335039"><ele>88.0</ele><time>2026-04-05T05:51:03Z</time></trkpt><trkpt lat="40.13334612570528" lon="18.29783839915228"><ele>86.5</ele><time>2026-04-05T05:51:04Z</time></trkpt><trkpt lat="40.133145178188414" lon="18.29817262505491"><ele>85.0</ele><time>2026-04-05T05:51:05Z</time></trkpt><trkpt lat="40.132942892968835" lon="18.298508123486208"><ele>85.0</ele><time>2026-04-05T05:51:06Z</time></trkpt><trkpt lat="40.1327398221576" lon="18.29883847133229"><ele>85.0</ele><time>2026-04-05T05:51:07Z</time></trkpt><trkpt lat="40.1325317719987" lon="18.29917614636818"><ele>85.0</ele><time>2026-04-05T05:51:08Z</time></trkpt><trkpt lat="40.13232708346344" lon="18.29951311931424"><ele>85.0</ele><time>2026-04-05T05:51:09Z</time></trkpt><trkpt lat="40.13212140754234" lon="18.29984801415955"><ele>84.5</ele><time>2026-04-05T05:51:10Z</time></trkpt><trkpt lat="40.131915755660245" lon="18.300179111574916"><ele>84.0</ele><time>2026-04-05T05:51:11Z</time></trkpt><trkpt lat="40.13171037380013" lon="18.300513698886316"><ele>83.5</ele><time>2026-04-05T05:51:12Z</time></trkpt><trkpt lat="40.13150534621066" lon="18.30085135346514"><ele>83.0</ele><time>2026-04-05T05:51:13Z</time></trkpt><trkpt lat="40.13130276577157" lon="18.30118735639367"><ele>82.5</ele><time>2026-04-05T05:51:14Z</time></trkpt><trkpt lat="40.1310994511728" lon="18.30152296667347"><ele>82.0</ele><time>2026-04-05T05:51:15Z</time></trkpt><trkpt lat="40.13089519289234" lon="18.30185463542266"><ele>81.0</ele><time>2026-04-05T05:51:16Z</time></trkpt><trkpt lat="40.13069177676906" lon="18.302187414252447"><ele>80.0</ele><time>2026-04-05T05:51:17Z</time></trkpt><trkpt lat="40.130490456399265" lon="18.302522223050463"><ele>80.0</ele><time>2026-04-05T05:51:18Z</time></trkpt><trkpt lat="40.1302915084765" lon="18.302854176332996"><ele>80.0</ele><time>2026-04-05T05:51:19Z</time></trkpt><trkpt lat="40.13008641199785" lon="18.303188376137665"><ele>80.5</ele><time>2026-04-05T05:51:20Z</time></trkpt><trkpt lat="40.12988307336404" lon="18.303523337254312"><ele>81.0</ele><time>2026-04-05T05:51:21Z</time></trkpt><trkpt lat="40.12967771450895" lon="18.30385987201595"><ele>82.0</ele><time>2026-04-05T05:51:22Z</time></trkpt><trkpt lat="40.12947464155135" lon="18.30419472483251"><ele>83.0</ele><time>2026-04-05T05:51:23Z</time></trkpt><trkpt lat="40.129270493631225" lon="18.304528421158636"><ele>83.0</ele><time>2026-04-05T05:51:24Z</time></trkpt><trkpt lat="40.1290688747577" lon="18.30486065998659"><ele>83.0</ele><time>2026-04-05T05:51:25Z</time></trkpt><trkpt lat="40.1288595858713" lon="18.30518879336942"><ele>83.0</ele><time>2026-04-05T05:51:26Z</time></trkpt><trkpt lat="40.12866669932979" lon="18.305518030358915"><ele>83.0</ele><time>2026-04-05T05:51:27Z</time></trkpt><trkpt lat="40.12846847183759" lon="18.30584792835882"><ele>83.0</ele><time>2026-04-05T05:51:28Z</time></trkpt><trkpt lat="40.12826846978849" lon="18.30618382585884"><ele>83.0</ele><time>2026-04-05T05:51:29Z</time></trkpt><trkpt lat="40.12806818129721" lon="18.306520416976905"><ele>83.0</ele><time>2026-04-05T05:51:30Z</time></trkpt><trkpt lat="40.12787034504692" lon="18.306852903326135"><ele>83.0</ele><time>2026-04-05T05:51:31Z</time></trkpt><trkpt lat="40.127664377275764" lon="18.30718365941858"><ele>83.0</ele><time>2026-04-05T05:51:32Z</time></trkpt><trkpt lat="40.127457917066764" lon="18.30751796223951"><ele>83.0</ele><time>2026-04-05T05:51:33Z</time></trkpt><trkpt lat="40.1272567158663" lon="18.30785151249739"><ele>83.5</ele><time>2026-04-05T05:51:34Z</time></trkpt><trkpt lat="40.12705647133783" lon="18.308184069829103"><ele>84.0</ele><time>2026-04-05T05:51:35Z</time></trkpt><trkpt lat="40.12685236162557" lon="18.308516541584652"><ele>84.0</ele><time>2026-04-05T05:51:36Z</time></trkpt><trkpt lat="40.12665435199728" lon="18.3088534698832"><ele>84.0</ele><time>2026-04-05T05:51:37Z</time></trkpt><trkpt lat="40.126452040454566" lon="18.30919244396799"><ele>84.5</ele><time>2026-04-05T05:51:38Z</time></trkpt><trkpt lat="40.12625112420204" lon="18.309521713257162"><ele>85.0</ele><time>2026-04-05T05:51:39Z</time></trkpt><trkpt lat="40.12605833007573" lon="18.30983502497621"><ele>85.0</ele><time>2026-04-05T05:51:40Z</time></trkpt><trkpt lat="40.12587167583967" lon="18.31014143159956"><ele>85.0</ele><time>2026-04-05T05:51:41Z</time></trkpt><trkpt lat="40.12568233633887" lon="18.31044997349881"><ele>85.0</ele><time>2026-04-05T05:51:42Z</time></trkpt><trkpt lat="40.12549866182308" lon="18.31075492200527"><ele>85.0</ele><time>2026-04-05T05:51:43Z</time></trkpt><trkpt lat="40.12531153756142" lon="18.311052542450785"><ele>85.0</ele><time>2026-04-05T05:51:44Z</time></trkpt><trkpt lat="40.12512711995195" lon="18.311344072252332"><ele>85.0</ele><time>2026-04-05T05:51:45Z</time></trkpt><trkpt lat="40.12494734613509" lon="18.31163670623533"><ele>85.5</ele><time>2026-04-05T05:51:46Z</time></trkpt><trkpt lat="40.1247741176349" lon="18.311926837781563"><ele>86.0</ele><time>2026-04-05T05:51:47Z</time></trkpt><trkpt lat="40.124603895285944" lon="18.312206192547105"><ele>87.0</ele><time>2026-04-05T05:51:48Z</time></trkpt><trkpt lat="40.1244437480176" lon="18.312472894745497"><ele>88.0</ele><time>2026-04-05T05:51:49Z</time></trkpt><trkpt lat="40.124293197455955" lon="18.31272202141203"><ele>88.0</ele><time>2026-04-05T05:51:50Z</time></trkpt><trkpt lat="40.12414625119339" lon="18.312961397665866"><ele>88.0</ele><time>2026-04-05T05:51:51Z</time></trkpt><trkpt lat="40.12400807869662" lon="18.31319100364014"><ele>88.0</ele><time>2026-04-05T05:51:52.001Z</time></trkpt><trkpt lat="40.123884599488434" lon="18.313392139954075"><ele>88.0</ele><time>2026-04-05T05:51:53.001Z</time></trkpt><trkpt lat="40.12376900430243" lon="18.313562308308992"><ele>88.0</ele><time>2026-04-05T05:51:54.001Z</time></trkpt><trkpt lat="40.12366242883238" lon="18.3137217571441"><ele>88.0</ele><time>2026-04-05T05:51:55.001Z</time></trkpt><trkpt lat="40.123513644708744" lon="18.31384191046477"><ele>88.0</ele><time>2026-04-05T05:51:56.001Z</time></trkpt><trkpt lat="40.12335391377218" lon="18.31398823087659"><ele>88.0</ele><time>2026-04-05T05:51:57.001Z</time></trkpt><trkpt lat="40.12319080881704" lon="18.314133767635344"><ele>87.25</ele><time>2026-04-05T05:51:58.001Z</time></trkpt><trkpt lat="40.123051105612284" lon="18.314259057802484"><ele>86.5</ele><time>2026-04-05T05:51:59.001Z</time></trkpt><trkpt lat="40.12294055635499" lon="18.3143542479708"><ele>85.75</ele><time>2026-04-05T05:52:00.001Z</time></trkpt><trkpt lat="40.12286779022015" lon="18.314432327105767"><ele>85.0</ele><time>2026-04-05T05:52:01.001Z</time></trkpt><trkpt lat="40.12280928184182" lon="18.31448713791354"><ele>85.0</ele><time>2026-04-05T05:52:02.001Z</time></trkpt><trkpt lat="40.122716063735965" lon="18.314522144086627"><ele>85.0</ele><time>2026-04-05T05:52:04.001Z</time></trkpt><trkpt lat="40.12264678206681" lon="18.314512576780288"><ele>85.0</ele><time>2026-04-05T05:52:05.001Z</time></trkpt><trkpt lat="40.1225787724198" lon="18.314497307626958"><ele>85.0</ele><time>2026-04-05T05:52:06.001Z</time></trkpt><trkpt lat="40.12251384838448" lon="18.31450872517866"><ele>85.0</ele><time>2026-04-05T05:52:07.001Z</time></trkpt><trkpt lat="40.122453743945094" lon="18.314553826104664"><ele>85.0</ele><time>2026-04-05T05:52:08.001Z</time></trkpt><trkpt lat="40.12240937244069" lon="18.314620521167168"><ele>85.0</ele><time>2026-04-05T05:52:09.001Z</time></trkpt><trkpt lat="40.12238486788064" lon="18.314705293114283"><ele>85.33333333333333</ele><time>2026-04-05T05:52:10.001Z</time></trkpt><trkpt lat="40.122384223747936" lon="18.314793304868108"><ele>85.66666666666666</ele><time>2026-04-05T05:52:11.001Z</time></trkpt><trkpt lat="40.12241638683117" lon="18.314884011554472"><ele>86.0</ele><time>2026-04-05T05:52:12.001Z</time></trkpt><trkpt lat="40.12246963804409" lon="18.31497883184755"><ele>86.33333333333333</ele><time>2026-04-05T05:52:13.001Z</time></trkpt><trkpt lat="40.12251553861561" lon="18.31508344494941"><ele>86.66666666666667</ele><time>2026-04-05T05:52:14.001Z</time></trkpt><trkpt lat="40.1225287146459" lon="18.315221590828454"><ele>87.0</ele><time>2026-04-05T05:52:15.001Z</time></trkpt><trkpt lat="40.12252655029901" lon="18.315386061938298"><ele>86.66666666666667</ele><time>2026-04-05T05:52:16.001Z</time></trkpt><trkpt lat="40.12254020219312" lon="18.31558318333542"><ele>86.33333333333334</ele><time>2026-04-05T05:52:17.001Z</time></trkpt><trkpt lat="40.122561716333145" lon="18.315786261879595"><ele>86.0</ele><time>2026-04-05T05:52:18.001Z</time></trkpt><trkpt lat="40.122584824167916" lon="18.316000326373022"><ele>86.0</ele><time>2026-04-05T05:52:19.001Z</time></trkpt><trkpt lat="40.12261282119444" lon="18.31623743677279"><ele>86.0</ele><time>2026-04-05T05:52:20.001Z</time></trkpt><trkpt lat="40.122647917430776" lon="18.316475223340692"><ele>86.0</ele><time>2026-04-05T05:52:21.001Z</time></trkpt><trkpt lat="40.12267968667319" lon="18.316720995361152"><ele>86.0</ele><time>2026-04-05T05:52:22.001Z</time></trkpt><trkpt lat="40.12271078599333" lon="18.31698503530195"><ele>86.0</ele><time>2026-04-05T05:52:23.001Z</time></trkpt><trkpt lat="40.122739691169215" lon="18.317257236648402"><ele>86.0</ele><time>2026-04-05T05:52:24.001Z</time></trkpt><trkpt lat="40.122768061768625" lon="18.317507078813108"><ele>85.66666666666667</ele><time>2026-04-05T05:52:25.001Z</time></trkpt><trkpt lat="40.12279554146163" lon="18.3177568467939"><ele>85.33333333333333</ele><time>2026-04-05T05:52:26.001Z</time></trkpt><trkpt lat="40.122819302586706" lon="18.317978012984444"><ele>85.0</ele><time>2026-04-05T05:52:27.001Z</time></trkpt><trkpt lat="40.12283647794206" lon="18.318164684568575"><ele>84.8</ele><time>2026-04-05T05:52:28.001Z</time></trkpt><trkpt lat="40.12285510546296" lon="18.31831586368914"><ele>84.6</ele><time>2026-04-05T05:52:29.001Z</time></trkpt><trkpt lat="40.12287240887389" lon="18.31843563278197"><ele>84.4</ele><time>2026-04-05T05:52:30.001Z</time></trkpt><trkpt lat="40.12288621890125" lon="18.31855182463948"><ele>84.2</ele><time>2026-04-05T05:52:31.001Z</time></trkpt><trkpt lat="40.122880388951934" lon="18.318666665146022"><ele>84.0</ele><time>2026-04-05T05:52:32.001Z</time></trkpt><trkpt lat="40.12284701156311" lon="18.318768405217835"><ele>84.0</ele><time>2026-04-05T05:52:33.001Z</time></trkpt><trkpt lat="40.12282499184503" lon="18.318866860233733"><ele>84.0</ele><time>2026-04-05T05:52:34.001Z</time></trkpt><trkpt lat="40.12283586437736" lon="18.318965923037172"><ele>84.0</ele><time>2026-04-05T05:52:35.001Z</time></trkpt><trkpt lat="40.12287501769969" lon="18.319055492452907"><ele>84.0</ele><time>2026-04-05T05:52:36.001Z</time></trkpt><trkpt lat="40.12294405746226" lon="18.319148444559698"><ele>84.0</ele><time>2026-04-05T05:52:37.001Z</time></trkpt><trkpt lat="40.12300472733835" lon="18.31925482112384"><ele>84.0</ele><time>2026-04-05T05:52:38.001Z</time></trkpt><trkpt lat="40.12302206840212" lon="18.319384000933173"><ele>84.0</ele><time>2026-04-05T05:52:39.001Z</time></trkpt><trkpt lat="40.123030512911164" lon="18.31955508674027"><ele>84.0</ele><time>2026-04-05T05:52:40.001Z</time></trkpt><trkpt lat="40.12304101308149" lon="18.319753203855683"><ele>84.0</ele><time>2026-04-05T05:52:41.001Z</time></trkpt><trkpt lat="40.12305478841164" lon="18.319965089411117"><ele>84.0</ele><time>2026-04-05T05:52:42.001Z</time></trkpt><trkpt lat="40.12306859263985" lon="18.320192034559238"><ele>84.0</ele><time>2026-04-05T05:52:43.001Z</time></trkpt><trkpt lat="40.12308415882274" lon="18.320431842833607"><ele>84.0</ele><time>2026-04-05T05:52:44.001Z</time></trkpt><trkpt lat="40.12310346085043" lon="18.320689285229662"><ele>84.0</ele><time>2026-04-05T05:52:45.001Z</time></trkpt><trkpt lat="40.12312203213707" lon="18.32096178879727"><ele>84.0</ele><time>2026-04-05T05:52:46.001Z</time></trkpt><trkpt lat="40.12314802950527" lon="18.321246001254664"><ele>84.0</ele><time>2026-04-05T05:52:47.001Z</time></trkpt><trkpt lat="40.12317299404603" lon="18.32155097423861"><ele>84.0</ele><time>2026-04-05T05:52:48.001Z</time></trkpt><trkpt lat="40.12320257342384" lon="18.321862948500804"><ele>84.0</ele><time>2026-04-05T05:52:49.001Z</time></trkpt><trkpt lat="40.12323311019533" lon="18.322173623760065"><ele>85.0</ele><time>2026-04-05T05:52:50Z</time></trkpt><trkpt lat="40.123266093832555" lon="18.322489006235223"><ele>86.0</ele><time>2026-04-05T05:52:51Z</time></trkpt><trkpt lat="40.12329605048377" lon="18.32280972577095"><ele>85.5</ele><time>2026-04-05T05:52:52Z</time></trkpt><trkpt lat="40.123329266408156" lon="18.323135624078628"><ele>85.0</ele><time>2026-04-05T05:52:53Z</time></trkpt><trkpt lat="40.123362537472744" lon="18.323462097906305"><ele>85.0</ele><time>2026-04-05T05:52:54Z</time></trkpt><trkpt lat="40.12339837997213" lon="18.323800433296384"><ele>85.0</ele><time>2026-04-05T05:52:55Z</time></trkpt><trkpt lat="40.123437942256935" lon="18.324151184999874"><ele>85.0</ele><time>2026-04-05T05:52:56Z</time></trkpt><trkpt lat="40.12347698145567" lon="18.324495924415334"><ele>85.0</ele><time>2026-04-05T05:52:57Z</time></trkpt><trkpt lat="40.12351512096686" lon="18.324839257710945"><ele>85.0</ele><time>2026-04-05T05:52:58Z</time></trkpt><trkpt lat="40.123553130914864" lon="18.32518508115203"><ele>85.0</ele><time>2026-04-05T05:52:59Z</time></trkpt><trkpt lat="40.12359692183241" lon="18.325535548118534"><ele>84.5</ele><time>2026-04-05T05:53:00Z</time></trkpt><trkpt lat="40.12364000142293" lon="18.32589051247673"><ele>84.0</ele><time>2026-04-05T05:53:01Z</time></trkpt><trkpt lat="40.123685347920045" lon="18.326246583586745"><ele>83.5</ele><time>2026-04-05T05:53:02Z</time></trkpt><trkpt lat="40.123734238826664" lon="18.326607224984652"><ele>83.0</ele><time>2026-04-05T05:53:03Z</time></trkpt><trkpt lat="40.123780047248516" lon="18.326970261598237"><ele>84.0</ele><time>2026-04-05T05:53:04Z</time></trkpt><trkpt lat="40.123824393455" lon="18.327336936617574"><ele>85.0</ele><time>2026-04-05T05:53:05Z</time></trkpt><trkpt lat="40.123872351834365" lon="18.327705479888092"><ele>85.5</ele><time>2026-04-05T05:53:06Z</time></trkpt><trkpt lat="40.12392347135915" lon="18.328079896341432"><ele>86.0</ele><time>2026-04-05T05:53:07Z</time></trkpt><trkpt lat="40.12397167768583" lon="18.328453986334036"><ele>86.0</ele><time>2026-04-05T05:53:08Z</time></trkpt><trkpt lat="40.124019778227854" lon="18.3288363142868"><ele>86.0</ele><time>2026-04-05T05:53:09Z</time></trkpt><trkpt lat="40.124063720896146" lon="18.3292267121855"><ele>85.0</ele><time>2026-04-05T05:53:10Z</time></trkpt><trkpt lat="40.12410333721743" lon="18.329618498769335"><ele>84.0</ele><time>2026-04-05T05:53:11Z</time></trkpt><trkpt lat="40.12414657968291" lon="18.3300057458949"><ele>84.0</ele><time>2026-04-05T05:53:12Z</time></trkpt><trkpt lat="40.124192405178725" lon="18.33040130707232"><ele>84.0</ele><time>2026-04-05T05:53:13Z</time></trkpt><trkpt lat="40.12423679817476" lon="18.33079739133013"><ele>84.5</ele><time>2026-04-05T05:53:14Z</time></trkpt><trkpt lat="40.12428210965487" lon="18.33119061745974"><ele>85.0</ele><time>2026-04-05T05:53:15Z</time></trkpt><trkpt lat="40.124330585291446" lon="18.331589320824843"><ele>85.0</ele><time>2026-04-05T05:53:16Z</time></trkpt><trkpt lat="40.12437850177697" lon="18.331985872182038"><ele>85.0</ele><time>2026-04-05T05:53:17Z</time></trkpt><trkpt lat="40.12442459980518" lon="18.33238452849642"><ele>85.0</ele><time>2026-04-05T05:53:18Z</time></trkpt><trkpt lat="40.12446916405454" lon="18.332783612178066"><ele>85.0</ele><time>2026-04-05T05:53:19Z</time></trkpt><trkpt lat="40.12451405959767" lon="18.3331832227222"><ele>85.0</ele><time>2026-04-05T05:53:20Z</time></trkpt><trkpt lat="40.1245586224675" lon="18.33357589748485"><ele>85.0</ele><time>2026-04-05T05:53:21Z</time></trkpt><trkpt lat="40.124603316580426" lon="18.333974931627925"><ele>84.5</ele><time>2026-04-05T05:53:22Z</time></trkpt><trkpt lat="40.12464823130554" lon="18.334379247866043"><ele>84.0</ele><time>2026-04-05T05:53:23Z</time></trkpt><trkpt lat="40.12469391401303" lon="18.3347808877893"><ele>84.0</ele><time>2026-04-05T05:53:24Z</time></trkpt><trkpt lat="40.124740724051094" lon="18.335185623204495"><ele>84.0</ele><time>2026-04-05T05:53:25Z</time></trkpt><trkpt lat="40.124788326111364" lon="18.335588531860385"><ele>84.5</ele><time>2026-04-05T05:53:26Z</time></trkpt><trkpt lat="40.124832444606824" lon="18.335990309692477"><ele>85.0</ele><time>2026-04-05T05:53:27Z</time></trkpt><trkpt lat="40.124878302539955" lon="18.336392242238365"><ele>84.5</ele><time>2026-04-05T05:53:28Z</time></trkpt><trkpt lat="40.1249212765991" lon="18.336802485527045"><ele>84.0</ele><time>2026-04-05T05:53:29Z</time></trkpt><trkpt lat="40.12496812009886" lon="18.337209471282463"><ele>84.5</ele><time>2026-04-05T05:53:30Z</time></trkpt><trkpt lat="40.12501291269433" lon="18.33761902662456"><ele>85.0</ele><time>2026-04-05T05:53:31Z</time></trkpt><trkpt lat="40.125064250594306" lon="18.338027340635257"><ele>85.5</ele><time>2026-04-05T05:53:32Z</time></trkpt><trkpt lat="40.12510994643277" lon="18.338431841474634"><ele>86.0</ele><time>2026-04-05T05:53:33Z</time></trkpt><trkpt lat="40.125157519805235" lon="18.338837155510138"><ele>86.0</ele><time>2026-04-05T05:53:34Z</time></trkpt><trkpt lat="40.125204523193574" lon="18.3392451096237"><ele>86.0</ele><time>2026-04-05T05:53:35Z</time></trkpt><trkpt lat="40.1252506949772" lon="18.33965137838557"><ele>85.5</ele><time>2026-04-05T05:53:36Z</time></trkpt><trkpt lat="40.125296739392894" lon="18.340058427487225"><ele>85.0</ele><time>2026-04-05T05:53:37Z</time></trkpt><trkpt lat="40.12534211911748" lon="18.34046579395798"><ele>86.0</ele><time>2026-04-05T05:53:38Z</time></trkpt><trkpt lat="40.1253877163419" lon="18.340869701286454"><ele>87.0</ele><time>2026-04-05T05:53:39Z</time></trkpt><trkpt lat="40.12543246507521" lon="18.34127839320403"><ele>86.0</ele><time>2026-04-05T05:53:40Z</time></trkpt><trkpt lat="40.12547002516861" lon="18.341683921412223"><ele>85.0</ele><time>2026-04-05T05:53:41Z</time></trkpt><trkpt lat="40.125509103703074" lon="18.34209450032814"><ele>85.0</ele><time>2026-04-05T05:53:42Z</time></trkpt><trkpt lat="40.125546159352695" lon="18.342500602673713"><ele>85.0</ele><time>2026-04-05T05:53:43Z</time></trkpt><trkpt lat="40.12558734838968" lon="18.34291848172508"><ele>85.5</ele><time>2026-04-05T05:53:44Z</time></trkpt><trkpt lat="40.12562219983371" lon="18.343328828969355"><ele>86.0</ele><time>2026-04-05T05:53:45Z</time></trkpt><trkpt lat="40.12565963648567" lon="18.343738784479214"><ele>86.0</ele><time>2026-04-05T05:53:46Z</time></trkpt><trkpt lat="40.12569792323343" lon="18.344151057415136"><ele>86.0</ele><time>2026-04-05T05:53:47Z</time></trkpt><trkpt lat="40.12573313313226" lon="18.344564302012525"><ele>87.0</ele><time>2026-04-05T05:53:48Z</time></trkpt><trkpt lat="40.125766372343946" lon="18.3449814567863"><ele>88.0</ele><time>2026-04-05T05:53:49Z</time></trkpt><trkpt lat="40.125801317122296" lon="18.34539929661001"><ele>87.5</ele><time>2026-04-05T05:53:50Z</time></trkpt><trkpt lat="40.12583784408852" lon="18.345815823913764"><ele>87.0</ele><time>2026-04-05T05:53:51Z</time></trkpt><trkpt lat="40.12587947278361" lon="18.346233780297407"><ele>87.0</ele><time>2026-04-05T05:53:52Z</time></trkpt><trkpt lat="40.125923459595235" lon="18.346650414006305"><ele>87.0</ele><time>2026-04-05T05:53:53Z</time></trkpt><trkpt lat="40.125971767897006" lon="18.34706907893386"><ele>86.0</ele><time>2026-04-05T05:53:54Z</time></trkpt><trkpt lat="40.1260215655092" lon="18.347488146860556"><ele>85.0</ele><time>2026-04-05T05:53:55Z</time></trkpt><trkpt lat="40.12606984571444" lon="18.34790846273799"><ele>85.0</ele><time>2026-04-05T05:53:56Z</time></trkpt><trkpt lat="40.126116232565394" lon="18.348330494360727"><ele>85.0</ele><time>2026-04-05T05:53:57Z</time></trkpt><trkpt lat="40.12616486031584" lon="18.348754354697256"><ele>86.5</ele><time>2026-04-05T05:53:58Z</time></trkpt><trkpt lat="40.12621328602523" lon="18.34917451830879"><ele>88.0</ele><time>2026-04-05T05:53:59.001Z</time></trkpt><trkpt lat="40.12626337493026" lon="18.349597305391587"><ele>88.5</ele><time>2026-04-05T05:54:00.001Z</time></trkpt><trkpt lat="40.12631340569689" lon="18.350023316270402"><ele>89.0</ele><time>2026-04-05T05:54:01.001Z</time></trkpt><trkpt lat="40.126360939114186" lon="18.350448853148237"><ele>88.5</ele><time>2026-04-05T05:54:02.001Z</time></trkpt><trkpt lat="40.126410209215166" lon="18.35087169753291"><ele>88.0</ele><time>2026-04-05T05:54:03.001Z</time></trkpt><trkpt lat="40.126457517909685" lon="18.351292478021104"><ele>88.5</ele><time>2026-04-05T05:54:04.001Z</time></trkpt><trkpt lat="40.12650788424798" lon="18.351712511891485"><ele>89.0</ele><time>2026-04-05T05:54:05.001Z</time></trkpt><trkpt lat="40.12655618904794" lon="18.352133981280744"><ele>89.5</ele><time>2026-04-05T05:54:06.001Z</time></trkpt><trkpt lat="40.12660368782507" lon="18.35255816656993"><ele>90.0</ele><time>2026-04-05T05:54:07.001Z</time></trkpt><trkpt lat="40.12665137173408" lon="18.352980827486757"><ele>90.0</ele><time>2026-04-05T05:54:08.001Z</time></trkpt><trkpt lat="40.12669762683666" lon="18.353402625828174"><ele>90.0</ele><time>2026-04-05T05:54:09.001Z</time></trkpt><trkpt lat="40.12674903546248" lon="18.35382161152003"><ele>90.0</ele><time>2026-04-05T05:54:10.001Z</time></trkpt><trkpt lat="40.12680363074928" lon="18.3542422506902"><ele>90.0</ele><time>2026-04-05T05:54:11.001Z</time></trkpt><trkpt lat="40.12686046777581" lon="18.354662746927644"><ele>90.0</ele><time>2026-04-05T05:54:12.001Z</time></trkpt><trkpt lat="40.12692028072577" lon="18.35508182678155"><ele>90.0</ele><time>2026-04-05T05:54:13.001Z</time></trkpt><trkpt lat="40.12697796682606" lon="18.355502900625066"><ele>89.5</ele><time>2026-04-05T05:54:14.001Z</time></trkpt><trkpt lat="40.12703526168271" lon="18.355923193225752"><ele>89.0</ele><time>2026-04-05T05:54:15.001Z</time></trkpt><trkpt lat="40.12709329273479" lon="18.35634361679654"><ele>89.0</ele><time>2026-04-05T05:54:16.001Z</time></trkpt><trkpt lat="40.127150028421134" lon="18.356762915288652"><ele>89.0</ele><time>2026-04-05T05:54:17.001Z</time></trkpt><trkpt lat="40.127210008526895" lon="18.357182189405435"><ele>90.0</ele><time>2026-04-05T05:54:18.001Z</time></trkpt><trkpt lat="40.12726908781629" lon="18.35759796168631"><ele>91.0</ele><time>2026-04-05T05:54:19.001Z</time></trkpt><trkpt lat="40.12732629755906" lon="18.358019466592737"><ele>91.0</ele><time>2026-04-05T05:54:20.001Z</time></trkpt><trkpt lat="40.127380379854856" lon="18.358440426374724"><ele>91.0</ele><time>2026-04-05T05:54:21.001Z</time></trkpt><trkpt lat="40.1274332939767" lon="18.358861642701847"><ele>91.0</ele><time>2026-04-05T05:54:22.001Z</time></trkpt><trkpt lat="40.12748444204336" lon="18.359284321377412"><ele>91.0</ele><time>2026-04-05T05:54:23.001Z</time></trkpt><trkpt lat="40.12753567921014" lon="18.359704718527638"><ele>91.0</ele><time>2026-04-05T05:54:24.001Z</time></trkpt><trkpt lat="40.1275852245465" lon="18.36013051602712"><ele>91.0</ele><time>2026-04-05T05:54:25.001Z</time></trkpt><trkpt lat="40.12763180797122" lon="18.360557302930264"><ele>91.0</ele><time>2026-04-05T05:54:26.001Z</time></trkpt><trkpt lat="40.12767524230217" lon="18.360981057837535"><ele>91.0</ele><time>2026-04-05T05:54:27.001Z</time></trkpt><trkpt lat="40.12772095525924" lon="18.36140150911068"><ele>90.5</ele><time>2026-04-05T05:54:28.001Z</time></trkpt><trkpt lat="40.127772949861836" lon="18.361827501842512"><ele>90.0</ele><time>2026-04-05T05:54:29.001Z</time></trkpt><trkpt lat="40.12782150722304" lon="18.362251799680866"><ele>89.5</ele><time>2026-04-05T05:54:30.001Z</time></trkpt><trkpt lat="40.12786740616057" lon="18.362675564793417"><ele>89.0</ele><time>2026-04-05T05:54:31.001Z</time></trkpt><trkpt lat="40.127917482333984" lon="18.363103563721104"><ele>90.0</ele><time>2026-04-05T05:54:32.001Z</time></trkpt><trkpt lat="40.12796796503936" lon="18.363529989140112"><ele>91.0</ele><time>2026-04-05T05:54:33.001Z</time></trkpt><trkpt lat="40.12801798837082" lon="18.363960394161516"><ele>91.0</ele><time>2026-04-05T05:54:34.001Z</time></trkpt><trkpt lat="40.1280659792867" lon="18.364384959037967"><ele>91.0</ele><time>2026-04-05T05:54:35.001Z</time></trkpt><trkpt lat="40.12811691974194" lon="18.364798384669793"><ele>89.5</ele><time>2026-04-05T05:54:36.001Z</time></trkpt><trkpt lat="40.12815993874841" lon="18.365207652834645"><ele>88.0</ele><time>2026-04-05T05:54:37.001Z</time></trkpt><trkpt lat="40.12819086563995" lon="18.365620416838045"><ele>87.5</ele><time>2026-04-05T05:54:38.001Z</time></trkpt><trkpt lat="40.12821644359418" lon="18.366029224916627"><ele>87.0</ele><time>2026-04-05T05:54:39.001Z</time></trkpt><trkpt lat="40.12822780059056" lon="18.366446516674845"><ele>88.5</ele><time>2026-04-05T05:54:40.001Z</time></trkpt><trkpt lat="40.128248240529665" lon="18.36686139703037"><ele>90.0</ele><time>2026-04-05T05:54:41.001Z</time></trkpt><trkpt lat="40.12825600146504" lon="18.367265969561338"><ele>90.0</ele><time>2026-04-05T05:54:42.001Z</time></trkpt><trkpt lat="40.12824874215958" lon="18.36766720576394"><ele>90.0</ele><time>2026-04-05T05:54:43.001Z</time></trkpt><trkpt lat="40.12823436266634" lon="18.36807219916434"><ele>89.5</ele><time>2026-04-05T05:54:44.001Z</time></trkpt><trkpt lat="40.128207716521494" lon="18.368474390004867"><ele>89.0</ele><time>2026-04-05T05:54:45.001Z</time></trkpt><trkpt lat="40.12817160317875" lon="18.368877299105502"><ele>88.5</ele><time>2026-04-05T05:54:46.001Z</time></trkpt><trkpt lat="40.12813081302172" lon="18.369282499385452"><ele>88.0</ele><time>2026-04-05T05:54:47.001Z</time></trkpt><trkpt lat="40.128079842324055" lon="18.36969110015791"><ele>87.5</ele><time>2026-04-05T05:54:48.001Z</time></trkpt><trkpt lat="40.12802282500851" lon="18.370098872124206"><ele>87.0</ele><time>2026-04-05T05:54:49.001Z</time></trkpt><trkpt lat="40.12795016464671" lon="18.370503531026625"><ele>86.5</ele><time>2026-04-05T05:54:50.001Z</time></trkpt><trkpt lat="40.127865322508384" lon="18.370906905974575"><ele>86.0</ele><time>2026-04-05T05:54:51.001Z</time></trkpt><trkpt lat="40.127775064479394" lon="18.37131853922292"><ele>86.0</ele><time>2026-04-05T05:54:52.001Z</time></trkpt><trkpt lat="40.127677540270966" lon="18.37172653579679"><ele>86.0</ele><time>2026-04-05T05:54:53.001Z</time></trkpt><trkpt lat="40.12756560693555" lon="18.372133090759103"><ele>86.5</ele><time>2026-04-05T05:54:54.001Z</time></trkpt><trkpt lat="40.127445349960986" lon="18.372535679587408"><ele>87.0</ele><time>2026-04-05T05:54:55.001Z</time></trkpt><trkpt lat="40.12732548508492" lon="18.372940797058448"><ele>87.5</ele><time>2026-04-05T05:54:56Z</time></trkpt><trkpt lat="40.12718849504392" lon="18.373341705893008"><ele>88.0</ele><time>2026-04-05T05:54:57Z</time></trkpt><trkpt lat="40.127051726488176" lon="18.37374346006537"><ele>88.5</ele><time>2026-04-05T05:54:58Z</time></trkpt><trkpt lat="40.1269174856522" lon="18.374145827272002"><ele>89.0</ele><time>2026-04-05T05:54:59Z</time></trkpt><trkpt lat="40.12678258049575" lon="18.37454966213368"><ele>90.0</ele><time>2026-04-05T05:55:00Z</time></trkpt><trkpt lat="40.126650022423284" lon="18.374953666698804"><ele>91.0</ele><time>2026-04-05T05:55:01Z</time></trkpt><trkpt lat="40.12652612197962" lon="18.375345711986277"><ele>91.5</ele><time>2026-04-05T05:55:02Z</time></trkpt><trkpt lat="40.12641664413932" lon="18.375733793840173"><ele>92.0</ele><time>2026-04-05T05:55:03Z</time></trkpt><trkpt lat="40.12632037955881" lon="18.376115084353877"><ele>92.0</ele><time>2026-04-05T05:55:04Z</time></trkpt><trkpt lat="40.126236530568875" lon="18.376498938161333"><ele>92.0</ele><time>2026-04-05T05:55:05Z</time></trkpt><trkpt lat="40.12616799887833" lon="18.376889197124658"><ele>92.0</ele><time>2026-04-05T05:55:06Z</time></trkpt><trkpt lat="40.12610926019983" lon="18.377290135648007"><ele>92.0</ele><time>2026-04-05T05:55:07Z</time></trkpt><trkpt lat="40.12606731607101" lon="18.37769231516707"><ele>93.5</ele><time>2026-04-05T05:55:08Z</time></trkpt><trkpt lat="40.126036630072605" lon="18.37809827148788"><ele>95.0</ele><time>2026-04-05T05:55:09Z</time></trkpt><trkpt lat="40.12601156353746" lon="18.378501710331474"><ele>95.5</ele><time>2026-04-05T05:55:10Z</time></trkpt><trkpt lat="40.12600245415666" lon="18.378904979018596"><ele>96.0</ele><time>2026-04-05T05:55:11Z</time></trkpt><trkpt lat="40.12600767115831" lon="18.379307154466403"><ele>96.5</ele><time>2026-04-05T05:55:12Z</time></trkpt><trkpt lat="40.12602406177794" lon="18.37970802757464"><ele>97.0</ele><time>2026-04-05T05:55:13Z</time></trkpt><trkpt lat="40.126065147445594" lon="18.38010938055876"><ele>97.0</ele><time>2026-04-05T05:55:14Z</time></trkpt><trkpt lat="40.126120617898756" lon="18.380503491656267"><ele>97.0</ele><time>2026-04-05T05:55:15Z</time></trkpt><trkpt lat="40.126185643711814" lon="18.38089670014769"><ele>97.5</ele><time>2026-04-05T05:55:16Z</time></trkpt><trkpt lat="40.126267513062025" lon="18.3812851122232"><ele>98.0</ele><time>2026-04-05T05:55:17Z</time></trkpt><trkpt lat="40.126359233573396" lon="18.3816698135024"><ele>98.5</ele><time>2026-04-05T05:55:18Z</time></trkpt><trkpt lat="40.126463578480625" lon="18.382050479604658"><ele>99.0</ele><time>2026-04-05T05:55:19Z</time></trkpt><trkpt lat="40.126581971063175" lon="18.38242595683757"><ele>99.0</ele><time>2026-04-05T05:55:20Z</time></trkpt><trkpt lat="40.12670192974315" lon="18.38279305668436"><ele>99.0</ele><time>2026-04-05T05:55:21Z</time></trkpt><trkpt lat="40.12683152502352" lon="18.38316013038744"><ele>99.0</ele><time>2026-04-05T05:55:22Z</time></trkpt><trkpt lat="40.126983134785256" lon="18.383512659403916"><ele>99.0</ele><time>2026-04-05T05:55:23Z</time></trkpt><trkpt lat="40.12714620028369" lon="18.38385186411224"><ele>99.0</ele><time>2026-04-05T05:55:24Z</time></trkpt><trkpt lat="40.12731326733388" lon="18.384180684596114"><ele>99.0</ele><time>2026-04-05T05:55:25Z</time></trkpt><trkpt lat="40.12749477044831" lon="18.384507275712586"><ele>97.5</ele><time>2026-04-05T05:55:26Z</time></trkpt><trkpt lat="40.12768233030087" lon="18.384826012426576"><ele>96.0</ele><time>2026-04-05T05:55:27Z</time></trkpt><trkpt lat="40.127876483151184" lon="18.3851394008661"><ele>96.0</ele><time>2026-04-05T05:55:28Z</time></trkpt><trkpt lat="40.128077177381286" lon="18.385447756444915"><ele>96.0</ele><time>2026-04-05T05:55:29Z</time></trkpt><trkpt lat="40.12828503048346" lon="18.38575220221516"><ele>95.0</ele><time>2026-04-05T05:55:30Z</time></trkpt><trkpt lat="40.12849501084262" lon="18.38605171356225"><ele>94.0</ele><time>2026-04-05T05:55:31Z</time></trkpt><trkpt lat="40.12870788913845" lon="18.38634817007547"><ele>92.5</ele><time>2026-04-05T05:55:32Z</time></trkpt><trkpt lat="40.128922895318176" lon="18.386643110159103"><ele>91.0</ele><time>2026-04-05T05:55:33Z</time></trkpt><trkpt lat="40.12914069880822" lon="18.386940688148233"><ele>91.0</ele><time>2026-04-05T05:55:34Z</time></trkpt><trkpt lat="40.12935733869452" lon="18.387240015933315"><ele>91.0</ele><time>2026-04-05T05:55:35Z</time></trkpt><trkpt lat="40.12957700190689" lon="18.387536135908597"><ele>91.0</ele><time>2026-04-05T05:55:36Z</time></trkpt><trkpt lat="40.129784994141616" lon="18.38783878734735"><ele>91.0</ele><time>2026-04-05T05:55:37Z</time></trkpt><trkpt lat="40.12999538697446" lon="18.388140144525845"><ele>92.5</ele><time>2026-04-05T05:55:38Z</time></trkpt><trkpt lat="40.13020500784505" lon="18.388437765556542"><ele>94.0</ele><time>2026-04-05T05:55:39Z</time></trkpt><trkpt lat="40.130417615853396" lon="18.388733557227216"><ele>93.5</ele><time>2026-04-05T05:55:40Z</time></trkpt><trkpt lat="40.13062838101942" lon="18.389019057081775"><ele>93.0</ele><time>2026-04-05T05:55:41Z</time></trkpt><trkpt lat="40.130833458624174" lon="18.389301540752086"><ele>94.0</ele><time>2026-04-05T05:55:42Z</time></trkpt><trkpt lat="40.13103357508757" lon="18.3895687204956"><ele>95.0</ele><time>2026-04-05T05:55:43Z</time></trkpt><trkpt lat="40.1312192733705" lon="18.389825108193566"><ele>95.0</ele><time>2026-04-05T05:55:44Z</time></trkpt><trkpt lat="40.13139412563161" lon="18.39007198868787"><ele>95.0</ele><time>2026-04-05T05:55:45Z</time></trkpt><trkpt lat="40.131564989503204" lon="18.390310195507706"><ele>97.0</ele><time>2026-04-05T05:55:46Z</time></trkpt><trkpt lat="40.13172833271644" lon="18.39055111624268"><ele>99.0</ele><time>2026-04-05T05:55:47Z</time></trkpt><trkpt lat="40.13188867955808" lon="18.39080433843429"><ele>99.0</ele><time>2026-04-05T05:55:48Z</time></trkpt><trkpt lat="40.13204644074161" lon="18.391067568556146"><ele>99.0</ele><time>2026-04-05T05:55:49Z</time></trkpt><trkpt lat="40.13219510160853" lon="18.39134756092073"><ele>99.5</ele><time>2026-04-05T05:55:50Z</time></trkpt><trkpt lat="40.13234725606226" lon="18.39162919238203"><ele>100.0</ele><time>2026-04-05T05:55:51Z</time></trkpt><trkpt lat="40.132494367462456" lon="18.39191971759494"><ele>100.5</ele><time>2026-04-05T05:55:52Z</time></trkpt><trkpt lat="40.13263354190609" lon="18.392223690531154"><ele>101.0</ele><time>2026-04-05T05:55:53Z</time></trkpt><trkpt lat="40.132767767714554" lon="18.392542941120936"><ele>101.0</ele><time>2026-04-05T05:55:54Z</time></trkpt><trkpt lat="40.1328916070596" lon="18.39286549004216"><ele>101.0</ele><time>2026-04-05T05:55:55Z</time></trkpt><trkpt lat="40.13300515585129" lon="18.3932034256732"><ele>101.0</ele><time>2026-04-05T05:55:56Z</time></trkpt><trkpt lat="40.13310706125676" lon="18.393547552728798"><ele>101.0</ele><time>2026-04-05T05:55:57Z</time></trkpt><trkpt lat="40.13319745631887" lon="18.393896455602952"><ele>101.0</ele><time>2026-04-05T05:55:58Z</time></trkpt><trkpt lat="40.1332819592944" lon="18.39425173326061"><ele>101.0</ele><time>2026-04-05T05:55:59Z</time></trkpt><trkpt lat="40.13335780158467" lon="18.39461304748235"><ele>100.0</ele><time>2026-04-05T05:56:00Z</time></trkpt><trkpt lat="40.13342605143406" lon="18.3949722499751"><ele>99.0</ele><time>2026-04-05T05:56:01Z</time></trkpt><trkpt lat="40.13349080441177" lon="18.395334651759075"><ele>98.5</ele><time>2026-04-05T05:56:02Z</time></trkpt><trkpt lat="40.13356005021732" lon="18.395705432180605"><ele>98.0</ele><time>2026-04-05T05:56:03Z</time></trkpt><trkpt lat="40.1336248182173" lon="18.396068475421636"><ele>97.5</ele><time>2026-04-05T05:56:04.001Z</time></trkpt><trkpt lat="40.13369104835722" lon="18.39643753126216"><ele>97.0</ele><time>2026-04-05T05:56:05.001Z</time></trkpt><trkpt lat="40.1337625207365" lon="18.396797796070004"><ele>97.0</ele><time>2026-04-05T05:56:06.001Z</time></trkpt><trkpt lat="40.133828140713284" lon="18.397152260615677"><ele>97.0</ele><time>2026-04-05T05:56:07.001Z</time></trkpt><trkpt lat="40.13388902418796" lon="18.397501649827447"><ele>96.0</ele><time>2026-04-05T05:56:08.001Z</time></trkpt><trkpt lat="40.13395516160364" lon="18.397856015969445"><ele>95.0</ele><time>2026-04-05T05:56:09.001Z</time></trkpt><trkpt lat="40.134024538803615" lon="18.39821518885596"><ele>95.5</ele><time>2026-04-05T05:56:10.001Z</time></trkpt><trkpt lat="40.13408952822742" lon="18.398579671904404"><ele>96.0</ele><time>2026-04-05T05:56:11.001Z</time></trkpt><trkpt lat="40.134157480357594" lon="18.39894449529111"><ele>96.0</ele><time>2026-04-05T05:56:12.001Z</time></trkpt><trkpt lat="40.134226702050384" lon="18.399318802293525"><ele>96.0</ele><time>2026-04-05T05:56:13.001Z</time></trkpt><trkpt lat="40.13429423172007" lon="18.39969497322162"><ele>94.0</ele><time>2026-04-05T05:56:14.001Z</time></trkpt><trkpt lat="40.134361804164385" lon="18.400069661892214"><ele>92.0</ele><time>2026-04-05T05:56:15.001Z</time></trkpt><trkpt lat="40.13443060483739" lon="18.400448020307234"><ele>91.5</ele><time>2026-04-05T05:56:16.001Z</time></trkpt><trkpt lat="40.13449934769208" lon="18.40082548406641"><ele>91.0</ele><time>2026-04-05T05:56:17.001Z</time></trkpt><trkpt lat="40.13456498825467" lon="18.40120101998539"><ele>91.0</ele><time>2026-04-05T05:56:18.001Z</time></trkpt><trkpt lat="40.13463383701314" lon="18.401577607550106"><ele>91.0</ele><time>2026-04-05T05:56:19.001Z</time></trkpt><trkpt lat="40.1347029677102" lon="18.40195925865586"><ele>90.0</ele><time>2026-04-05T05:56:20.001Z</time></trkpt><trkpt lat="40.13477774323037" lon="18.40234357592383"><ele>89.0</ele><time>2026-04-05T05:56:21.001Z</time></trkpt><trkpt lat="40.13485118453169" lon="18.402728531438576"><ele>86.0</ele><time>2026-04-05T05:56:22.001Z</time></trkpt><trkpt lat="40.13492358806877" lon="18.403122431459767"><ele>83.0</ele><time>2026-04-05T05:56:23.001Z</time></trkpt><trkpt lat="40.134997359906286" lon="18.40351828673121"><ele>80.5</ele><time>2026-04-05T05:56:24.001Z</time></trkpt><trkpt lat="40.1350720811384" lon="18.403914935712415"><ele>78.0</ele><time>2026-04-05T05:56:25.001Z</time></trkpt><trkpt lat="40.13514677160385" lon="18.40431499479258"><ele>78.0</ele><time>2026-04-05T05:56:26.001Z</time></trkpt><trkpt lat="40.13522355046234" lon="18.404715139082025"><ele>78.0</ele><time>2026-04-05T05:56:27.001Z</time></trkpt><trkpt lat="40.13530350470869" lon="18.405119777721804"><ele>77.0</ele><time>2026-04-05T05:56:28.001Z</time></trkpt><trkpt lat="40.135381800784955" lon="18.40552472231805"><ele>76.0</ele><time>2026-04-05T05:56:29.001Z</time></trkpt><trkpt lat="40.135460198270565" lon="18.405933730582664"><ele>74.5</ele><time>2026-04-05T05:56:30.001Z</time></trkpt><trkpt lat="40.13553417348516" lon="18.406343677846312"><ele>73.0</ele><time>2026-04-05T05:56:31.001Z</time></trkpt><trkpt lat="40.13561111755855" lon="18.40675571456645"><ele>72.0</ele><time>2026-04-05T05:56:32.001Z</time></trkpt><trkpt lat="40.13568391149474" lon="18.40716990584329"><ele>71.0</ele><time>2026-04-05T05:56:33.001Z</time></trkpt><trkpt lat="40.13576285106968" lon="18.40758452401671"><ele>70.0</ele><time>2026-04-05T05:56:34.001Z</time></trkpt><trkpt lat="40.1358393796783" lon="18.40800084172368"><ele>69.0</ele><time>2026-04-05T05:56:35.001Z</time></trkpt><trkpt lat="40.13591504831438" lon="18.408412632561564"><ele>69.0</ele><time>2026-04-05T05:56:36.001Z</time></trkpt><trkpt lat="40.13599053274162" lon="18.408823846609977"><ele>69.0</ele><time>2026-04-05T05:56:37.001Z</time></trkpt><trkpt lat="40.13606618397046" lon="18.409234010460317"><ele>69.0</ele><time>2026-04-05T05:56:38.001Z</time></trkpt><trkpt lat="40.136141789591015" lon="18.409643609379383"><ele>69.0</ele><time>2026-04-05T05:56:39.001Z</time></trkpt><trkpt lat="40.1362193606267" lon="18.410057084694788"><ele>68.0</ele><time>2026-04-05T05:56:40.001Z</time></trkpt><trkpt lat="40.13629415710485" lon="18.410464577109643"><ele>67.0</ele><time>2026-04-05T05:56:41.001Z</time></trkpt><trkpt lat="40.13637133515063" lon="18.410871445862437"><ele>67.0</ele><time>2026-04-05T05:56:42.001Z</time></trkpt><trkpt lat="40.13644645722472" lon="18.411275373716435"><ele>67.0</ele><time>2026-04-05T05:56:43.001Z</time></trkpt><trkpt lat="40.136518074923934" lon="18.411678399284128"><ele>66.5</ele><time>2026-04-05T05:56:44.001Z</time></trkpt><trkpt lat="40.13659080870231" lon="18.41207753349608"><ele>66.0</ele><time>2026-04-05T05:56:45.001Z</time></trkpt><trkpt lat="40.136662368582314" lon="18.412478786906153"><ele>66.0</ele><time>2026-04-05T05:56:46.001Z</time></trkpt><trkpt lat="40.13673910730183" lon="18.41288494985478"><ele>66.0</ele><time>2026-04-05T05:56:47.001Z</time></trkpt><trkpt lat="40.13681743885082" lon="18.413289140523133"><ele>65.5</ele><time>2026-04-05T05:56:48.001Z</time></trkpt><trkpt lat="40.136893583793764" lon="18.413699029287834"><ele>65.0</ele><time>2026-04-05T05:56:49.001Z</time></trkpt><trkpt lat="40.13696833843736" lon="18.414106447079035"><ele>65.0</ele><time>2026-04-05T05:56:50.001Z</time></trkpt><trkpt lat="40.13704078068405" lon="18.414513371725153"><ele>65.0</ele><time>2026-04-05T05:56:51.001Z</time></trkpt><trkpt lat="40.13711846626356" lon="18.414924270567393"><ele>65.0</ele><time>2026-04-05T05:56:52.001Z</time></trkpt><trkpt lat="40.13719333053486" lon="18.415334152563418"><ele>65.0</ele><time>2026-04-05T05:56:53.001Z</time></trkpt><trkpt lat="40.137275099592436" lon="18.415744867196363"><ele>65.0</ele><time>2026-04-05T05:56:54.001Z</time></trkpt><trkpt lat="40.1373564690372" lon="18.416161944766753"><ele>65.0</ele><time>2026-04-05T05:56:55.001Z</time></trkpt><trkpt lat="40.13743375898225" lon="18.41657538613383"><ele>63.5</ele><time>2026-04-05T05:56:56.001Z</time></trkpt><trkpt lat="40.13750652488959" lon="18.416988349684722"><ele>62.0</ele><time>2026-04-05T05:56:57.001Z</time></trkpt><trkpt lat="40.13758064609444" lon="18.41740899622331"><ele>62.0</ele><time>2026-04-05T05:56:58.001Z</time></trkpt><trkpt lat="40.13765853934021" lon="18.417831919467602"><ele>62.0</ele><time>2026-04-05T05:56:59.001Z</time></trkpt><trkpt lat="40.13773771234581" lon="18.418245581474448"><ele>62.0</ele><time>2026-04-05T05:57:00.001Z</time></trkpt><trkpt lat="40.13781675365014" lon="18.418666365956984"><ele>62.0</ele><time>2026-04-05T05:57:01.001Z</time></trkpt><trkpt lat="40.13789445186956" lon="18.41909001615395"><ele>62.0</ele><time>2026-04-05T05:57:02Z</time></trkpt><trkpt lat="40.13796944376343" lon="18.419511565035016"><ele>62.0</ele><time>2026-04-05T05:57:03Z</time></trkpt><trkpt lat="40.138046902471736" lon="18.41993720220861"><ele>61.5</ele><time>2026-04-05T05:57:04Z</time></trkpt><trkpt lat="40.13812613338241" lon="18.420360144531255"><ele>61.0</ele><time>2026-04-05T05:57:05Z</time></trkpt><trkpt lat="40.13820339542419" lon="18.420785177090533"><ele>61.0</ele><time>2026-04-05T05:57:06Z</time></trkpt><trkpt lat="40.13828165747086" lon="18.421208983130104"><ele>61.0</ele><time>2026-04-05T05:57:07Z</time></trkpt><trkpt lat="40.138357312432206" lon="18.42163368218537"><ele>60.5</ele><time>2026-04-05T05:57:08Z</time></trkpt><trkpt lat="40.138437025800634" lon="18.422059266296994"><ele>60.0</ele><time>2026-04-05T05:57:09Z</time></trkpt><trkpt lat="40.138515741172135" lon="18.4224815315183"><ele>60.0</ele><time>2026-04-05T05:57:10Z</time></trkpt><trkpt lat="40.13859163085785" lon="18.422900453659157"><ele>60.0</ele><time>2026-04-05T05:57:11Z</time></trkpt><trkpt lat="40.138669167713594" lon="18.42332088713431"><ele>60.0</ele><time>2026-04-05T05:57:12Z</time></trkpt><trkpt lat="40.138746540582005" lon="18.42374508962907"><ele>60.0</ele><time>2026-04-05T05:57:13Z</time></trkpt><trkpt lat="40.13882611912814" lon="18.424168419863012"><ele>60.0</ele><time>2026-04-05T05:57:14Z</time></trkpt><trkpt lat="40.13890889203909" lon="18.42459835566503"><ele>60.0</ele><time>2026-04-05T05:57:15Z</time></trkpt><trkpt lat="40.13898873682593" lon="18.425031213968683"><ele>60.0</ele><time>2026-04-05T05:57:16Z</time></trkpt><trkpt lat="40.139065978024604" lon="18.425463617419652"><ele>60.0</ele><time>2026-04-05T05:57:17Z</time></trkpt><trkpt lat="40.13914427406657" lon="18.425892289550738"><ele>58.5</ele><time>2026-04-05T05:57:18Z</time></trkpt><trkpt lat="40.13922947485585" lon="18.426318189700083"><ele>57.0</ele><time>2026-04-05T05:57:19Z</time></trkpt><trkpt lat="40.13930966720421" lon="18.426746489530792"><ele>57.0</ele><time>2026-04-05T05:57:20Z</time></trkpt><trkpt lat="40.1393954524761" lon="18.42717647226367"><ele>57.0</ele><time>2026-04-05T05:57:21Z</time></trkpt><trkpt lat="40.13947622696504" lon="18.42760913854814"><ele>57.0</ele><time>2026-04-05T05:57:22Z</time></trkpt><trkpt lat="40.13955363764335" lon="18.42804302596433"><ele>57.0</ele><time>2026-04-05T05:57:23Z</time></trkpt><trkpt lat="40.139629954423896" lon="18.42847294002137"><ele>57.0</ele><time>2026-04-05T05:57:24Z</time></trkpt><trkpt lat="40.13970511688464" lon="18.428908248921253"><ele>57.0</ele><time>2026-04-05T05:57:25Z</time></trkpt><trkpt lat="40.13977599672236" lon="18.429342524012352"><ele>57.0</ele><time>2026-04-05T05:57:26Z</time></trkpt><trkpt lat="40.13984504799126" lon="18.429782474999726"><ele>57.0</ele><time>2026-04-05T05:57:27Z</time></trkpt><trkpt lat="40.139913291564056" lon="18.430216538393896"><ele>56.0</ele><time>2026-04-05T05:57:28Z</time></trkpt><trkpt lat="40.1399797776937" lon="18.43064509924119"><ele>55.0</ele><time>2026-04-05T05:57:29Z</time></trkpt><trkpt lat="40.14005092399866" lon="18.431072061910285"><ele>54.5</ele><time>2026-04-05T05:57:30Z</time></trkpt><trkpt lat="40.140119197983296" lon="18.431495198718714"><ele>54.0</ele><time>2026-04-05T05:57:31Z</time></trkpt><trkpt lat="40.140186589031046" lon="18.43192722884144"><ele>54.0</ele><time>2026-04-05T05:57:32Z</time></trkpt><trkpt lat="40.14025482152243" lon="18.432351725997837"><ele>54.0</ele><time>2026-04-05T05:57:33Z</time></trkpt><trkpt lat="40.14033038649785" lon="18.43278300839914"><ele>54.5</ele><time>2026-04-05T05:57:34Z</time></trkpt><trkpt lat="40.140406978550914" lon="18.43320739859693"><ele>55.0</ele><time>2026-04-05T05:57:35Z</time></trkpt><trkpt lat="40.14049005012422" lon="18.433635402467672"><ele>55.0</ele><time>2026-04-05T05:57:36Z</time></trkpt><trkpt lat="40.14057275147628" lon="18.434064227194796"><ele>55.0</ele><time>2026-04-05T05:57:37Z</time></trkpt><trkpt lat="40.14065965735229" lon="18.434496289459318"><ele>54.5</ele><time>2026-04-05T05:57:38Z</time></trkpt><trkpt lat="40.140745670419264" lon="18.434934581863843"><ele>54.0</ele><time>2026-04-05T05:57:39Z</time></trkpt><trkpt lat="40.1408316064283" lon="18.435364349547243"><ele>54.0</ele><time>2026-04-05T05:57:40Z</time></trkpt><trkpt lat="40.14092138579963" lon="18.43578837480532"><ele>54.0</ele><time>2026-04-05T05:57:41Z</time></trkpt><trkpt lat="40.1410128463146" lon="18.436212146265678"><ele>53.5</ele><time>2026-04-05T05:57:42Z</time></trkpt><trkpt lat="40.14110118047409" lon="18.436635284011345"><ele>53.0</ele><time>2026-04-05T05:57:43Z</time></trkpt><trkpt lat="40.14119465960752" lon="18.437074367405557"><ele>53.5</ele><time>2026-04-05T05:57:44Z</time></trkpt><trkpt lat="40.141287841114206" lon="18.437518087290997"><ele>54.0</ele><time>2026-04-05T05:57:45Z</time></trkpt><trkpt lat="40.14138128475816" lon="18.43796628428897"><ele>53.5</ele><time>2026-04-05T05:57:46Z</time></trkpt><trkpt lat="40.141473074129536" lon="18.438418717461886"><ele>53.0</ele><time>2026-04-05T05:57:47Z</time></trkpt><trkpt lat="40.14156201420283" lon="18.438872834730546"><ele>51.0</ele><time>2026-04-05T05:57:48Z</time></trkpt><trkpt lat="40.14164677850445" lon="18.439334782978758"><ele>49.0</ele><time>2026-04-05T05:57:49Z</time></trkpt><trkpt lat="40.14172676050759" lon="18.43979663634791"><ele>49.0</ele><time>2026-04-05T05:57:50Z</time></trkpt><trkpt lat="40.14180845748577" lon="18.440262286907043"><ele>49.0</ele><time>2026-04-05T05:57:51Z</time></trkpt><trkpt lat="40.14189190356737" lon="18.440721442999568"><ele>49.5</ele><time>2026-04-05T05:57:52Z</time></trkpt><trkpt lat="40.14197335271756" lon="18.441178757675225"><ele>50.0</ele><time>2026-04-05T05:57:53Z</time></trkpt><trkpt lat="40.142060601662685" lon="18.441634470513176"><ele>50.0</ele><time>2026-04-05T05:57:54Z</time></trkpt><trkpt lat="40.14214491882252" lon="18.442093490217264"><ele>50.0</ele><time>2026-04-05T05:57:55Z</time></trkpt><trkpt lat="40.14223000829952" lon="18.44254714145709"><ele>45.5</ele><time>2026-04-05T05:57:56Z</time></trkpt><trkpt lat="40.1423154737003" lon="18.442999982331962"><ele>41.0</ele><time>2026-04-05T05:57:57Z</time></trkpt><trkpt lat="40.14239307676617" lon="18.443441749998588"><ele>39.5</ele><time>2026-04-05T05:57:58Z</time></trkpt><trkpt lat="40.14247623089374" lon="18.443884996367863"><ele>38.0</ele><time>2026-04-05T05:57:59Z</time></trkpt><trkpt lat="40.142557529301655" lon="18.444323810587235"><ele>37.5</ele><time>2026-04-05T05:58:00Z</time></trkpt><trkpt lat="40.142641732855424" lon="18.444761184345122"><ele>37.0</ele><time>2026-04-05T05:58:01Z</time></trkpt><trkpt lat="40.14271952517403" lon="18.445200599272592"><ele>37.0</ele><time>2026-04-05T05:58:02Z</time></trkpt><trkpt lat="40.14280120510318" lon="18.44563762311602"><ele>37.0</ele><time>2026-04-05T05:58:03Z</time></trkpt><trkpt lat="40.14288393673555" lon="18.446069371842288"><ele>36.5</ele><time>2026-04-05T05:58:04Z</time></trkpt><trkpt lat="40.14296992892136" lon="18.446498895331672"><ele>36.0</ele><time>2026-04-05T05:58:05Z</time></trkpt><trkpt lat="40.143050589261094" lon="18.44692914901385"><ele>35.5</ele><time>2026-04-05T05:58:06Z</time></trkpt><trkpt lat="40.14313017632958" lon="18.447365817524794"><ele>35.0</ele><time>2026-04-05T05:58:07Z</time></trkpt><trkpt lat="40.143211010017886" lon="18.44780135456476"><ele>36.5</ele><time>2026-04-05T05:58:08Z</time></trkpt><trkpt lat="40.14329052810793" lon="18.448239713291223"><ele>38.0</ele><time>2026-04-05T05:58:09Z</time></trkpt><trkpt lat="40.14337297107597" lon="18.448679073715383"><ele>38.5</ele><time>2026-04-05T05:58:10Z</time></trkpt><trkpt lat="40.1434588183169" lon="18.449115010437442"><ele>39.0</ele><time>2026-04-05T05:58:11Z</time></trkpt><trkpt lat="40.143541748429364" lon="18.44955137951813"><ele>38.0</ele><time>2026-04-05T05:58:12Z</time></trkpt><trkpt lat="40.143626403219976" lon="18.449992728917508"><ele>37.0</ele><time>2026-04-05T05:58:13Z</time></trkpt><trkpt lat="40.14370887143741" lon="18.450431275988606"><ele>38.5</ele><time>2026-04-05T05:58:14Z</time></trkpt><trkpt lat="40.14379451388854" lon="18.45087128465633"><ele>40.0</ele><time>2026-04-05T05:58:15Z</time></trkpt><trkpt lat="40.14388347757457" lon="18.451309122729285"><ele>40.0</ele><time>2026-04-05T05:58:16Z</time></trkpt><trkpt lat="40.14397444443243" lon="18.451740952024828"><ele>40.0</ele><time>2026-04-05T05:58:17Z</time></trkpt><trkpt lat="40.14406514475514" lon="18.452175569397554"><ele>39.5</ele><time>2026-04-05T05:58:18Z</time></trkpt><trkpt lat="40.144153194849615" lon="18.452608340568123"><ele>39.0</ele><time>2026-04-05T05:58:19Z</time></trkpt><trkpt lat="40.14423799730715" lon="18.453042310387715"><ele>39.0</ele><time>2026-04-05T05:58:20.001Z</time></trkpt><trkpt lat="40.144319214870386" lon="18.453476220355416"><ele>39.0</ele><time>2026-04-05T05:58:21.001Z</time></trkpt><trkpt lat="40.144399106446016" lon="18.453911864346225"><ele>39.0</ele><time>2026-04-05T05:58:22.001Z</time></trkpt><trkpt lat="40.144480867911675" lon="18.454346824293566"><ele>39.0</ele><time>2026-04-05T05:58:23.001Z</time></trkpt><trkpt lat="40.144559581933635" lon="18.454779044711437"><ele>39.5</ele><time>2026-04-05T05:58:24.001Z</time></trkpt><trkpt lat="40.144637310644775" lon="18.455206798835782"><ele>40.0</ele><time>2026-04-05T05:58:25.001Z</time></trkpt><trkpt lat="40.14471765094683" lon="18.45563855256762"><ele>40.0</ele><time>2026-04-05T05:58:26.001Z</time></trkpt><trkpt lat="40.144800907019736" lon="18.456075291150285"><ele>40.0</ele><time>2026-04-05T05:58:27.001Z</time></trkpt><trkpt lat="40.144880854442334" lon="18.4565085959385"><ele>40.0</ele><time>2026-04-05T05:58:28.001Z</time></trkpt><trkpt lat="40.14496193464834" lon="18.456940724378974"><ele>40.0</ele><time>2026-04-05T05:58:29.001Z</time></trkpt><trkpt lat="40.14503674522484" lon="18.45737363462657"><ele>40.0</ele><time>2026-04-05T05:58:30.001Z</time></trkpt><trkpt lat="40.14511816553528" lon="18.457810005012906"><ele>40.0</ele><time>2026-04-05T05:58:31.001Z</time></trkpt><trkpt lat="40.14519774917426" lon="18.45824237399067"><ele>40.0</ele><time>2026-04-05T05:58:32.001Z</time></trkpt><trkpt lat="40.145279779012874" lon="18.458675044288547"><ele>40.0</ele><time>2026-04-05T05:58:33.001Z</time></trkpt><trkpt lat="40.14536290711678" lon="18.45911362550928"><ele>40.0</ele><time>2026-04-05T05:58:34.001Z</time></trkpt><trkpt lat="40.145445358950006" lon="18.459549995216484"><ele>40.0</ele><time>2026-04-05T05:58:35.001Z</time></trkpt><trkpt lat="40.145530961391046" lon="18.459987119221058"><ele>40.0</ele><time>2026-04-05T05:58:36.001Z</time></trkpt><trkpt lat="40.145616496023095" lon="18.460425021221653"><ele>40.0</ele><time>2026-04-05T05:58:37.001Z</time></trkpt><trkpt lat="40.14569768829501" lon="18.460861855107687"><ele>39.0</ele><time>2026-04-05T05:58:38.001Z</time></trkpt><trkpt lat="40.145777925314555" lon="18.46129896282146"><ele>38.0</ele><time>2026-04-05T05:58:39.001Z</time></trkpt><trkpt lat="40.1458588296195" lon="18.46173847682134"><ele>37.5</ele><time>2026-04-05T05:58:40.001Z</time></trkpt><trkpt lat="40.14593985929894" lon="18.462178212291207"><ele>37.0</ele><time>2026-04-05T05:58:41.001Z</time></trkpt><trkpt lat="40.14601986550372" lon="18.46261914274038"><ele>36.0</ele><time>2026-04-05T05:58:42.001Z</time></trkpt><trkpt lat="40.146103926944136" lon="18.463061323274943"><ele>35.0</ele><time>2026-04-05T05:58:43.001Z</time></trkpt><trkpt lat="40.14618423188408" lon="18.463492274801652"><ele>35.0</ele><time>2026-04-05T05:58:44.001Z</time></trkpt><trkpt lat="40.14626141490165" lon="18.46390659277046"><ele>35.0</ele><time>2026-04-05T05:58:45.001Z</time></trkpt><trkpt lat="40.14633149577897" lon="18.46429027890648"><ele>36.0</ele><time>2026-04-05T05:58:46.001Z</time></trkpt><trkpt lat="40.146403798265474" lon="18.46467791177426"><ele>37.0</ele><time>2026-04-05T05:58:47.001Z</time></trkpt><trkpt lat="40.14647265431386" lon="18.46506594825216"><ele>36.5</ele><time>2026-04-05T05:58:48.001Z</time></trkpt><trkpt lat="40.14654261482717" lon="18.465452900212654"><ele>36.0</ele><time>2026-04-05T05:58:49.001Z</time></trkpt><trkpt lat="40.14661501433615" lon="18.46584015889443"><ele>34.5</ele><time>2026-04-05T05:58:50.001Z</time></trkpt><trkpt lat="40.14668734742169" lon="18.466222568841903"><ele>33.0</ele><time>2026-04-05T05:58:51.001Z</time></trkpt><trkpt lat="40.146757746480205" lon="18.466612198733436"><ele>32.5</ele><time>2026-04-05T05:58:52.001Z</time></trkpt><trkpt lat="40.14683509215515" lon="18.467005339628432"><ele>32.0</ele><time>2026-04-05T05:58:53.001Z</time></trkpt><trkpt lat="40.146908858737476" lon="18.467392086868166"><ele>30.5</ele><time>2026-04-05T05:58:54.001Z</time></trkpt><trkpt lat="40.146982039476484" lon="18.46777961726896"><ele>29.0</ele><time>2026-04-05T05:58:55.001Z</time></trkpt><trkpt lat="40.147051402938565" lon="18.468145025353024"><ele>27.0</ele><time>2026-04-05T05:58:56.001Z</time></trkpt><trkpt lat="40.14712419966197" lon="18.46850546814251"><ele>25.0</ele><time>2026-04-05T05:58:57.001Z</time></trkpt><trkpt lat="40.14719264998044" lon="18.468868815044985"><ele>25.0</ele><time>2026-04-05T05:58:58.001Z</time></trkpt><trkpt lat="40.14726448358714" lon="18.46923833760445"><ele>25.0</ele><time>2026-04-05T05:58:59.001Z</time></trkpt><trkpt lat="40.1473371211791" lon="18.469609710889596"><ele>27.5</ele><time>2026-04-05T05:59:00.001Z</time></trkpt><trkpt lat="40.147412132829594" lon="18.469986027160857"><ele>30.0</ele><time>2026-04-05T05:59:01.001Z</time></trkpt><trkpt lat="40.147483339145154" lon="18.470363616557794"><ele>31.0</ele><time>2026-04-05T05:59:02.001Z</time></trkpt><trkpt lat="40.14755001708885" lon="18.470732581974648"><ele>32.0</ele><time>2026-04-05T05:59:03.001Z</time></trkpt><trkpt lat="40.14761241440199" lon="18.471099365169433"><ele>32.5</ele><time>2026-04-05T05:59:04.001Z</time></trkpt><trkpt lat="40.147670423459346" lon="18.471458551469134"><ele>33.0</ele><time>2026-04-05T05:59:05.001Z</time></trkpt><trkpt lat="40.147726132540235" lon="18.471810690206286"><ele>33.0</ele><time>2026-04-05T05:59:06.001Z</time></trkpt><trkpt lat="40.147781626721994" lon="18.472140825515403"><ele>33.0</ele><time>2026-04-05T05:59:07.001Z</time></trkpt><trkpt lat="40.14783811230677" lon="18.472438791018106"><ele>33.0</ele><time>2026-04-05T05:59:08Z</time></trkpt><trkpt lat="40.14789017035683" lon="18.472708634236213"><ele>33.0</ele><time>2026-04-05T05:59:09Z</time></trkpt><trkpt lat="40.14794196290218" lon="18.472960081917524"><ele>33.0</ele><time>2026-04-05T05:59:10Z</time></trkpt><trkpt lat="40.14798952302819" lon="18.473193845850634"><ele>33.0</ele><time>2026-04-05T05:59:11Z</time></trkpt><trkpt lat="40.14803907831525" lon="18.473418440102993"><ele>33.0</ele><time>2026-04-05T05:59:12Z</time></trkpt><trkpt lat="40.14808738824068" lon="18.473637466819653"><ele>33.0</ele><time>2026-04-05T05:59:13Z</time></trkpt><trkpt lat="40.148130781931876" lon="18.473837162781393"><ele>33.0</ele><time>2026-04-05T05:59:14Z</time></trkpt><trkpt lat="40.148174480841796" lon="18.47402937995044"><ele>33.0</ele><time>2026-04-05T05:59:15Z</time></trkpt><trkpt lat="40.148213422596946" lon="18.47421291054416"><ele>33.0</ele><time>2026-04-05T05:59:16Z</time></trkpt><trkpt lat="40.148247941766456" lon="18.474374201068155"><ele>33.0</ele><time>2026-04-05T05:59:17Z</time></trkpt><trkpt lat="40.148278346651026" lon="18.474531894636865"><ele>32.5</ele><time>2026-04-05T05:59:18Z</time></trkpt><trkpt lat="40.14830415180378" lon="18.47467363138609"><ele>32.0</ele><time>2026-04-05T05:59:19Z</time></trkpt><trkpt lat="40.148324897734064" lon="18.474791590992467"><ele>31.5</ele><time>2026-04-05T05:59:20Z</time></trkpt><trkpt lat="40.14834090313339" lon="18.474892445166446"><ele>31.0</ele><time>2026-04-05T05:59:21Z</time></trkpt><trkpt lat="40.14834699525217" lon="18.4749963569955"><ele>30.5</ele><time>2026-04-05T05:59:22Z</time></trkpt><trkpt lat="40.148338699247724" lon="18.475100398564212"><ele>30.0</ele><time>2026-04-05T05:59:23Z</time></trkpt><trkpt lat="40.148309212876775" lon="18.475194999441403"><ele>30.0</ele><time>2026-04-05T05:59:24Z</time></trkpt><trkpt lat="40.148260610962325" lon="18.475295807292547"><ele>30.0</ele><time>2026-04-05T05:59:25Z</time></trkpt><trkpt lat="40.14821710455855" lon="18.475389682660545"><ele>30.0</ele><time>2026-04-05T05:59:26Z</time></trkpt><trkpt lat="40.14819257025542" lon="18.475504952647018"><ele>30.0</ele><time>2026-04-05T05:59:27Z</time></trkpt><trkpt lat="40.148190335468875" lon="18.47564294729993"><ele>30.0</ele><time>2026-04-05T05:59:28Z</time></trkpt><trkpt lat="40.14820156642469" lon="18.475776554202554"><ele>30.5</ele><time>2026-04-05T05:59:29Z</time></trkpt><trkpt lat="40.148184631763684" lon="18.47589472725182"><ele>31.0</ele><time>2026-04-05T05:59:30Z</time></trkpt><trkpt lat="40.148140591438796" lon="18.476019709137773"><ele>31.5</ele><time>2026-04-05T05:59:31Z</time></trkpt><trkpt lat="40.14807988782415" lon="18.47616497414149"><ele>32.0</ele><time>2026-04-05T05:59:32Z</time></trkpt><trkpt lat="40.14799810191391" lon="18.47631940514598"><ele>32.0</ele><time>2026-04-05T05:59:33Z</time></trkpt><trkpt lat="40.147905600964584" lon="18.476477447916015"><ele>32.0</ele><time>2026-04-05T05:59:34Z</time></trkpt><trkpt lat="40.147805952230215" lon="18.47665299978599"><ele>32.0</ele><time>2026-04-05T05:59:35Z</time></trkpt><trkpt lat="40.147704947377974" lon="18.476825195996494"><ele>32.0</ele><time>2026-04-05T05:59:36Z</time></trkpt><trkpt lat="40.147612882512384" lon="18.476978332533196"><ele>32.0</ele><time>2026-04-05T05:59:37Z</time></trkpt><trkpt lat="40.147525657637075" lon="18.477113533378702"><ele>32.0</ele><time>2026-04-05T05:59:38Z</time></trkpt><trkpt lat="40.14744616970353" lon="18.477225031723748"><ele>32.0</ele><time>2026-04-05T05:59:39Z</time></trkpt><trkpt lat="40.147376431115596" lon="18.47731257965984"><ele>31.833333333333332</ele><time>2026-04-05T05:59:40Z</time></trkpt><trkpt lat="40.147306921647136" lon="18.477371565143734"><ele>31.666666666666664</ele><time>2026-04-05T05:59:41Z</time></trkpt><trkpt lat="40.14723488826269" lon="18.477387692630913"><ele>31.5</ele><time>2026-04-05T05:59:42Z</time></trkpt><trkpt lat="40.147161119017866" lon="18.47739610380046"><ele>31.333333333333336</ele><time>2026-04-05T05:59:43Z</time></trkpt><trkpt lat="40.14708395687653" lon="18.47738253502107"><ele>31.166666666666668</ele><time>2026-04-05T05:59:44Z</time></trkpt><trkpt lat="40.14700986255984" lon="18.477389295610056"><ele>31.0</ele><time>2026-04-05T05:59:45Z</time></trkpt><trkpt lat="40.146949666154576" lon="18.477429781230377"><ele>31.000000000000004</ele><time>2026-04-05T05:59:46Z</time></trkpt><trkpt lat="40.14690079389024" lon="18.477507160836815"><ele>31.0</ele><time>2026-04-05T05:59:47Z</time></trkpt><trkpt lat="40.14687692148166" lon="18.477602886705018"><ele>31.0</ele><time>2026-04-05T05:59:48Z</time></trkpt><trkpt lat="40.14687841288982" lon="18.477711216954933"><ele>31.0</ele><time>2026-04-05T05:59:49Z</time></trkpt><trkpt lat="40.14689772894673" lon="18.477814731461244"><ele>31.000000000000004</ele><time>2026-04-05T05:59:50Z</time></trkpt><trkpt lat="40.14690283510928" lon="18.477906596380322"><ele>31.0</ele><time>2026-04-05T05:59:51Z</time></trkpt><trkpt lat="40.14687020996622" lon="18.47802394650141"><ele>30.75</ele><time>2026-04-05T05:59:52Z</time></trkpt><trkpt lat="40.146810482807865" lon="18.478133522136893"><ele>30.5</ele><time>2026-04-05T05:59:53Z</time></trkpt><trkpt lat="40.1467252390968" lon="18.478243557759725"><ele>30.25</ele><time>2026-04-05T05:59:54Z</time></trkpt><trkpt lat="40.14661749217983" lon="18.478383302341058"><ele>30.0</ele><time>2026-04-05T05:59:55Z</time></trkpt><trkpt lat="40.14651127484249" lon="18.478521947518594"><ele>30.0</ele><time>2026-04-05T05:59:56Z</time></trkpt><trkpt lat="40.14639967796879" lon="18.478667438290753"><ele>30.0</ele><time>2026-04-05T05:59:57Z</time></trkpt><trkpt lat="40.146272868943846" lon="18.47883108285213"><ele>30.0</ele><time>2026-04-05T05:59:58Z</time></trkpt><trkpt lat="40.14614178655941" lon="18.478990713022537"><ele>29.333333333333336</ele><time>2026-04-05T05:59:59Z</time></trkpt><trkpt lat="40.14599928891243" lon="18.479145927272906"><ele>28.666666666666668</ele><time>2026-04-05T06:00:00Z</time></trkpt><trkpt lat="40.145840958589424" lon="18.479295082460254"><ele>28.0</ele><time>2026-04-05T06:00:01Z</time></trkpt><trkpt lat="40.14566388918828" lon="18.47944072963293"><ele>27.666666666666668</ele><time>2026-04-05T06:00:02Z</time></trkpt><trkpt lat="40.145472252495466" lon="18.479575336468425"><ele>27.333333333333336</ele><time>2026-04-05T06:00:03Z</time></trkpt><trkpt lat="40.145267329611606" lon="18.47969838984609"><ele>27.0</ele><time>2026-04-05T06:00:04Z</time></trkpt><trkpt lat="40.14505282121953" lon="18.479801267024367"><ele>20.5</ele><time>2026-04-05T06:00:05Z</time></trkpt><trkpt lat="40.14482964219945" lon="18.47989841852032"><ele>14.0</ele><time>2026-04-05T06:00:06Z</time></trkpt><trkpt lat="40.14460962442259" lon="18.47998259435227"><ele>14.0</ele><time>2026-04-05T06:00:07Z</time></trkpt><trkpt lat="40.14438898437471" lon="18.480066824223446"><ele>14.0</ele><time>2026-04-05T06:00:08Z</time></trkpt><trkpt lat="40.144165812958235" lon="18.480152917509535"><ele>10.0</ele><time>2026-04-05T06:00:09Z</time></trkpt><trkpt lat="40.143940023297716" lon="18.48024160175053"><ele>6.0</ele><time>2026-04-05T06:00:10Z</time></trkpt><trkpt lat="40.143716052829475" lon="18.480327261567556"><ele>6.0</ele><time>2026-04-05T06:00:11Z</time></trkpt><trkpt lat="40.14349028388115" lon="18.480412969912685"><ele>6.0</ele><time>2026-04-05T06:00:12Z</time></trkpt><trkpt lat="40.14326459054989" lon="18.48050173024999"><ele>9.0</ele><time>2026-04-05T06:00:13Z</time></trkpt><trkpt lat="40.14303929569671" lon="18.480584975479623"><ele>12.0</ele><time>2026-04-05T06:00:14Z</time></trkpt><trkpt lat="40.14281601371426" lon="18.4806699322324"><ele>12.0</ele><time>2026-04-05T06:00:15Z</time></trkpt><trkpt lat="40.142592240303514" lon="18.480751936458233"><ele>12.0</ele><time>2026-04-05T06:00:16Z</time></trkpt><trkpt lat="40.14237990447493" lon="18.480832193957436"><ele>15.0</ele><time>2026-04-05T06:00:17Z</time></trkpt><trkpt lat="40.14216861492096" lon="18.480908783933053"><ele>18.0</ele><time>2026-04-05T06:00:18Z</time></trkpt><trkpt lat="40.14195673341948" lon="18.48098199787873"><ele>21.0</ele><time>2026-04-05T06:00:19Z</time></trkpt><trkpt lat="40.141752888671355" lon="18.481057346094556"><ele>20.666666666666668</ele><time>2026-04-05T06:00:20Z</time></trkpt><trkpt lat="40.141541032715345" lon="18.481132152018084"><ele>20.333333333333336</ele><time>2026-04-05T06:00:21Z</time></trkpt><trkpt lat="40.14133615984958" lon="18.48121138687637"><ele>20.0</ele><time>2026-04-05T06:00:22Z</time></trkpt><trkpt lat="40.14112206830582" lon="18.48129112249074"><ele>22.333333333333336</ele><time>2026-04-05T06:00:23Z</time></trkpt><trkpt lat="40.1409146490351" lon="18.481371977517476"><ele>24.666666666666668</ele><time>2026-04-05T06:00:24Z</time></trkpt><trkpt lat="40.14071154001792" lon="18.481463032965546"><ele>27.0</ele><time>2026-04-05T06:00:25Z</time></trkpt><trkpt lat="40.1405176531419" lon="18.481566332616236"><ele>27.0</ele><time>2026-04-05T06:00:26Z</time></trkpt><trkpt lat="40.14032995840422" lon="18.481681258403093"><ele>27.0</ele><time>2026-04-05T06:00:27Z</time></trkpt><trkpt lat="40.14015266598115" lon="18.481813717089963"><ele>27.0</ele><time>2026-04-05T06:00:28Z</time></trkpt><trkpt lat="40.13998079799053" lon="18.481954505182255"><ele>29.0</ele><time>2026-04-05T06:00:29Z</time></trkpt><trkpt lat="40.13981853031999" lon="18.482105828978423"><ele>31.0</ele><time>2026-04-05T06:00:30Z</time></trkpt><trkpt lat="40.13966722795216" lon="18.48226380676673"><ele>33.0</ele><time>2026-04-05T06:00:31Z</time></trkpt><trkpt lat="40.13952023483097" lon="18.482432937307237"><ele>33.0</ele><time>2026-04-05T06:00:32Z</time></trkpt><trkpt lat="40.13937415372821" lon="18.482605140403393"><ele>33.0</ele><time>2026-04-05T06:00:33Z</time></trkpt><trkpt lat="40.13923590924908" lon="18.4827919744338"><ele>33.0</ele><time>2026-04-05T06:00:34Z</time></trkpt><trkpt lat="40.139106944066796" lon="18.482983235299084"><ele>33.666666666666664</ele><time>2026-04-05T06:00:35.001Z</time></trkpt><trkpt lat="40.13898640025585" lon="18.483181616443638"><ele>34.33333333333333</ele><time>2026-04-05T06:00:36.001Z</time></trkpt><trkpt lat="40.13887784036767" lon="18.483389939319"><ele>35.0</ele><time>2026-04-05T06:00:37.001Z</time></trkpt><trkpt lat="40.13877645098592" lon="18.48360954953583"><ele>35.666666666666664</ele><time>2026-04-05T06:00:38.001Z</time></trkpt><trkpt lat="40.13868275466869" lon="18.483837504127838"><ele>36.333333333333336</ele><time>2026-04-05T06:00:39.001Z</time></trkpt><trkpt lat="40.13859843877609" lon="18.484075204975962"><ele>37.0</ele><time>2026-04-05T06:00:40.001Z</time></trkpt><trkpt lat="40.13852228423543" lon="18.48432115796915"><ele>37.0</ele><time>2026-04-05T06:00:41.001Z</time></trkpt><trkpt lat="40.138454402527046" lon="18.48457234126746"><ele>37.0</ele><time>2026-04-05T06:00:42.001Z</time></trkpt><trkpt lat="40.13838540284987" lon="18.484834149283788"><ele>37.0</ele><time>2026-04-05T06:00:43.001Z</time></trkpt><trkpt lat="40.13831329668766" lon="18.48509980430891"><ele>37.0</ele><time>2026-04-05T06:00:44.001Z</time></trkpt><trkpt lat="40.138236845164975" lon="18.4853607287864"><ele>37.0</ele><time>2026-04-05T06:00:45.001Z</time></trkpt><trkpt lat="40.13816190727633" lon="18.485614922689944"><ele>37.0</ele><time>2026-04-05T06:00:46.001Z</time></trkpt><trkpt lat="40.13807876338374" lon="18.485884876976694"><ele>37.0</ele><time>2026-04-05T06:00:47.001Z</time></trkpt><trkpt lat="40.13799750162677" lon="18.486159208405866"><ele>37.0</ele><time>2026-04-05T06:00:48.001Z</time></trkpt><trkpt lat="40.137912017240104" lon="18.486442065446912"><ele>37.5</ele><time>2026-04-05T06:00:49.001Z</time></trkpt><trkpt lat="40.13783383732438" lon="18.48673153434959"><ele>38.0</ele><time>2026-04-05T06:00:50.001Z</time></trkpt><trkpt lat="40.13775171784975" lon="18.487026433089735"><ele>37.5</ele><time>2026-04-05T06:00:51.001Z</time></trkpt><trkpt lat="40.13766473667722" lon="18.487316765827174"><ele>37.0</ele><time>2026-04-05T06:00:52.001Z</time></trkpt><trkpt lat="40.13758226821354" lon="18.487608780119498"><ele>37.0</ele><time>2026-04-05T06:00:53.001Z</time></trkpt><trkpt lat="40.13749290336824" lon="18.487903823923926"><ele>37.0</ele><time>2026-04-05T06:00:54.001Z</time></trkpt><trkpt lat="40.13740458607683" lon="18.48820856541808"><ele>36.5</ele><time>2026-04-05T06:00:55.001Z</time></trkpt><trkpt lat="40.13731352818323" lon="18.4885247344634"><ele>36.0</ele><time>2026-04-05T06:00:56.001Z</time></trkpt><trkpt lat="40.13722108078156" lon="18.48885001393795"><ele>35.0</ele><time>2026-04-05T06:00:57.001Z</time></trkpt><trkpt lat="40.13712096896562" lon="18.489179869974873"><ele>34.0</ele><time>2026-04-05T06:00:58.001Z</time></trkpt><trkpt lat="40.13702346854146" lon="18.48950659098721"><ele>31.5</ele><time>2026-04-05T06:00:59.001Z</time></trkpt><trkpt lat="40.136926148543175" lon="18.489828745432046"><ele>29.0</ele><time>2026-04-05T06:01:00.001Z</time></trkpt><trkpt lat="40.13683015924192" lon="18.490147821706763"><ele>27.5</ele><time>2026-04-05T06:01:01.001Z</time></trkpt><trkpt lat="40.13673569673442" lon="18.490470004750062"><ele>26.0</ele><time>2026-04-05T06:01:02.001Z</time></trkpt><trkpt lat="40.136640742825165" lon="18.490791765812364"><ele>24.5</ele><time>2026-04-05T06:01:03.001Z</time></trkpt><trkpt lat="40.13654226911651" lon="18.491115085408058"><ele>23.0</ele><time>2026-04-05T06:01:04.001Z</time></trkpt><trkpt lat="40.13644444801712" lon="18.49143646349775"><ele>23.0</ele><time>2026-04-05T06:01:05.001Z</time></trkpt><trkpt lat="40.136349101339405" lon="18.491748482178053"><ele>23.0</ele><time>2026-04-05T06:01:06.001Z</time></trkpt><trkpt lat="40.136257303263754" lon="18.492057637653232"><ele>28.5</ele><time>2026-04-05T06:01:07.001Z</time></trkpt><trkpt lat="40.136170180267456" lon="18.49236098966376"><ele>34.0</ele><time>2026-04-05T06:01:08.001Z</time></trkpt><trkpt lat="40.136083253168664" lon="18.492662251358652"><ele>39.0</ele><time>2026-04-05T06:01:09.001Z</time></trkpt><trkpt lat="40.1359975340887" lon="18.492956252971247"><ele>44.0</ele><time>2026-04-05T06:01:10.001Z</time></trkpt><trkpt lat="40.135913639461435" lon="18.49324637812111"><ele>44.0</ele><time>2026-04-05T06:01:11.001Z</time></trkpt><trkpt lat="40.13582645822049" lon="18.49353486947406"><ele>44.0</ele><time>2026-04-05T06:01:12.001Z</time></trkpt><trkpt lat="40.13573774425297" lon="18.493818795630805"><ele>47.5</ele><time>2026-04-05T06:01:13.001Z</time></trkpt><trkpt lat="40.13563494252264" lon="18.494095855557173"><ele>51.0</ele><time>2026-04-05T06:01:14Z</time></trkpt><trkpt lat="40.135520512411006" lon="18.49436169427546"><ele>50.0</ele><time>2026-04-05T06:01:15Z</time></trkpt><trkpt lat="40.13538828333595" lon="18.49461136340958"><ele>49.0</ele><time>2026-04-05T06:01:16Z</time></trkpt><trkpt lat="40.135245371848164" lon="18.494839900549337"><ele>49.0</ele><time>2026-04-05T06:01:17Z</time></trkpt><trkpt lat="40.135090801483976" lon="18.4950651101294"><ele>49.0</ele><time>2026-04-05T06:01:18Z</time></trkpt><trkpt lat="40.13491631218838" lon="18.49526196587693"><ele>49.5</ele><time>2026-04-05T06:01:19Z</time></trkpt><trkpt lat="40.134736880532245" lon="18.495453049228146"><ele>50.0</ele><time>2026-04-05T06:01:20Z</time></trkpt><trkpt lat="40.13456291123366" lon="18.49563563957435"><ele>50.0</ele><time>2026-04-05T06:01:21Z</time></trkpt><trkpt lat="40.13438198894524" lon="18.4957962459045"><ele>50.0</ele><time>2026-04-05T06:01:22Z</time></trkpt><trkpt lat="40.13419595917089" lon="18.49593602766823"><ele>50.0</ele><time>2026-04-05T06:01:23Z</time></trkpt><trkpt lat="40.134001600894415" lon="18.49606365884342"><ele>51.333333333333336</ele><time>2026-04-05T06:01:24Z</time></trkpt><trkpt lat="40.133794958169496" lon="18.496177668597227"><ele>52.66666666666667</ele><time>2026-04-05T06:01:25Z</time></trkpt><trkpt lat="40.1335856864749" lon="18.496280323599677"><ele>54.0</ele><time>2026-04-05T06:01:26Z</time></trkpt><trkpt lat="40.13337495396534" lon="18.496369574936427"><ele>56.5</ele><time>2026-04-05T06:01:27Z</time></trkpt><trkpt lat="40.13315658067089" lon="18.496454645952856"><ele>59.0</ele><time>2026-04-05T06:01:28Z</time></trkpt><trkpt lat="40.132936485977595" lon="18.49653375562478"><ele>59.0</ele><time>2026-04-05T06:01:29Z</time></trkpt><trkpt lat="40.1327126153123" lon="18.496613758711735"><ele>59.0</ele><time>2026-04-05T06:01:30Z</time></trkpt><trkpt lat="40.13248743715108" lon="18.496693934809507"><ele>61.5</ele><time>2026-04-05T06:01:31Z</time></trkpt><trkpt lat="40.132267415978205" lon="18.49677901639065"><ele>64.0</ele><time>2026-04-05T06:01:32Z</time></trkpt><trkpt lat="40.13204913644829" lon="18.496867331909137"><ele>64.0</ele><time>2026-04-05T06:01:33Z</time></trkpt><trkpt lat="40.13183357019263" lon="18.496954505262813"><ele>64.0</ele><time>2026-04-05T06:01:34Z</time></trkpt><trkpt lat="40.1316274827276" lon="18.4970366873958"><ele>64.0</ele><time>2026-04-05T06:01:35Z</time></trkpt><trkpt lat="40.13142372274808" lon="18.497111922290607"><ele>65.33333333333333</ele><time>2026-04-05T06:01:36Z</time></trkpt><trkpt lat="40.131222603535655" lon="18.497180365277554"><ele>66.66666666666667</ele><time>2026-04-05T06:01:37Z</time></trkpt><trkpt lat="40.131012838103096" lon="18.49723867582567"><ele>68.0</ele><time>2026-04-05T06:01:38Z</time></trkpt><trkpt lat="40.130818750288874" lon="18.49727923681898"><ele>68.0</ele><time>2026-04-05T06:01:39Z</time></trkpt><trkpt lat="40.13065791497797" lon="18.497307291131804"><ele>68.0</ele><time>2026-04-05T06:01:40Z</time></trkpt><trkpt lat="40.130510591726676" lon="18.4973227026963"><ele>68.0</ele><time>2026-04-05T06:01:41Z</time></trkpt><trkpt lat="40.13038251209162" lon="18.49733574853377"><ele>68.0</ele><time>2026-04-05T06:01:42Z</time></trkpt><trkpt lat="40.13027548752274" lon="18.497345705489483"><ele>68.0</ele><time>2026-04-05T06:01:43Z</time></trkpt><trkpt lat="40.13017530650723" lon="18.497358955427007"><ele>68.0</ele><time>2026-04-05T06:01:44Z</time></trkpt><trkpt lat="40.13006560923181" lon="18.497370012607412"><ele>68.0</ele><time>2026-04-05T06:01:45Z</time></trkpt><trkpt lat="40.129961357105074" lon="18.49738800972897"><ele>68.0</ele><time>2026-04-05T06:01:46Z</time></trkpt><trkpt lat="40.1298488072931" lon="18.497399227284138"><ele>68.0</ele><time>2026-04-05T06:01:47Z</time></trkpt><trkpt lat="40.12973435848244" lon="18.497407647285264"><ele>69.5</ele><time>2026-04-05T06:01:48Z</time></trkpt><trkpt lat="40.12961532932174" lon="18.497410161224806"><ele>71.0</ele><time>2026-04-05T06:01:49Z</time></trkpt><trkpt lat="40.12949259419976" lon="18.497407475048945"><ele>72.5</ele><time>2026-04-05T06:01:50Z</time></trkpt><trkpt lat="40.129371428715515" lon="18.497404444367408"><ele>74.0</ele><time>2026-04-05T06:01:51Z</time></trkpt><trkpt lat="40.12924759105473" lon="18.49741273892467"><ele>74.0</ele><time>2026-04-05T06:01:52Z</time></trkpt><trkpt lat="40.129121123982706" lon="18.49742322676137"><ele>74.0</ele><time>2026-04-05T06:01:53Z</time></trkpt><trkpt lat="40.128997485930526" lon="18.497435936488543"><ele>74.0</ele><time>2026-04-05T06:01:54Z</time></trkpt><trkpt lat="40.128887632763686" lon="18.497452867766185"><ele>74.0</ele><time>2026-04-05T06:01:55Z</time></trkpt><trkpt lat="40.128794671053974" lon="18.4974639725277"><ele>74.2</ele><time>2026-04-05T06:01:56Z</time></trkpt><trkpt lat="40.128711692551086" lon="18.49747967237364"><ele>74.4</ele><time>2026-04-05T06:01:57Z</time></trkpt><trkpt lat="40.128621751581385" lon="18.497504061088502"><ele>74.6</ele><time>2026-04-05T06:01:58Z</time></trkpt><trkpt lat="40.128521077839146" lon="18.497544223722247"><ele>74.8</ele><time>2026-04-05T06:01:59Z</time></trkpt><trkpt lat="40.128407665603255" lon="18.49755979953931"><ele>75.0</ele><time>2026-04-05T06:02:00Z</time></trkpt><trkpt lat="40.1282927678181" lon="18.49761236760429"><ele>75.25</ele><time>2026-04-05T06:02:01Z</time></trkpt><trkpt lat="40.12816888905476" lon="18.497662632778695"><ele>75.5</ele><time>2026-04-05T06:02:02Z</time></trkpt><trkpt lat="40.1280380221118" lon="18.497730523469805"><ele>75.75</ele><time>2026-04-05T06:02:03Z</time></trkpt><trkpt lat="40.12789987726379" lon="18.497807012140424"><ele>76.0</ele><time>2026-04-05T06:02:04Z</time></trkpt><trkpt lat="40.12776201169747" lon="18.49789182929966"><ele>76.0</ele><time>2026-04-05T06:02:05Z</time></trkpt><trkpt lat="40.127611015959864" lon="18.49797111068642"><ele>76.0</ele><time>2026-04-05T06:02:06Z</time></trkpt><trkpt lat="40.12745886056852" lon="18.498071282599614"><ele>76.0</ele><time>2026-04-05T06:02:07Z</time></trkpt><trkpt lat="40.12729290028818" lon="18.498164440826773"><ele>76.0</ele><time>2026-04-05T06:02:08Z</time></trkpt><trkpt lat="40.127123607741126" lon="18.498267320145587"><ele>76.0</ele><time>2026-04-05T06:02:09Z</time></trkpt><trkpt lat="40.126935082820204" lon="18.49837822694554"><ele>76.0</ele><time>2026-04-05T06:02:10Z</time></trkpt><trkpt lat="40.12675475569787" lon="18.4984906210123"><ele>76.0</ele><time>2026-04-05T06:02:11Z</time></trkpt><trkpt lat="40.126569893358436" lon="18.498596771006383"><ele>76.0</ele><time>2026-04-05T06:02:12Z</time></trkpt><trkpt lat="40.126380431233464" lon="18.498704364838105"><ele>76.0</ele><time>2026-04-05T06:02:13Z</time></trkpt><trkpt lat="40.126189533329324" lon="18.498816635813878"><ele>76.33333333333333</ele><time>2026-04-05T06:02:14Z</time></trkpt><trkpt lat="40.125998946921406" lon="18.498933236561253"><ele>76.66666666666667</ele><time>2026-04-05T06:02:15Z</time></trkpt><trkpt lat="40.12580211952157" lon="18.499048548792313"><ele>77.0</ele><time>2026-04-05T06:02:16Z</time></trkpt><trkpt lat="40.12560578099466" lon="18.499164383081084"><ele>77.0</ele><time>2026-04-05T06:02:17Z</time></trkpt><trkpt lat="40.12541081147001" lon="18.499280381837682"><ele>77.0</ele><time>2026-04-05T06:02:18Z</time></trkpt><trkpt lat="40.12522013518443" lon="18.499394141087084"><ele>77.0</ele><time>2026-04-05T06:02:19Z</time></trkpt><trkpt lat="40.125037200906505" lon="18.499502967398918"><ele>77.0</ele><time>2026-04-05T06:02:20Z</time></trkpt><trkpt lat="40.12486127947933" lon="18.499604119283177"><ele>77.0</ele><time>2026-04-05T06:02:21Z</time></trkpt><trkpt lat="40.12468439039042" lon="18.499706400149766"><ele>77.0</ele><time>2026-04-05T06:02:22Z</time></trkpt><trkpt lat="40.12450398313961" lon="18.499798770838904"><ele>77.0</ele><time>2026-04-05T06:02:23Z</time></trkpt><trkpt lat="40.124317030469754" lon="18.499873208651376"><ele>77.0</ele><time>2026-04-05T06:02:24Z</time></trkpt><trkpt lat="40.124126730603074" lon="18.49993307003581"><ele>77.0</ele><time>2026-04-05T06:02:25Z</time></trkpt><trkpt lat="40.12392374128506" lon="18.49997324579932"><ele>77.33333333333334</ele><time>2026-04-05T06:02:26Z</time></trkpt><trkpt lat="40.12372006345675" lon="18.49999956927824"><ele>77.66666666666667</ele><time>2026-04-05T06:02:27Z</time></trkpt><trkpt lat="40.12350976240535" lon="18.500013733187195"><ele>78.0</ele><time>2026-04-05T06:02:28Z</time></trkpt><trkpt lat="40.12329189469749" lon="18.50002215093917"><ele>78.33333333333333</ele><time>2026-04-05T06:02:29Z</time></trkpt><trkpt lat="40.12307351281695" lon="18.50003122740203"><ele>78.66666666666666</ele><time>2026-04-05T06:02:30Z</time></trkpt><trkpt lat="40.1228540444356" lon="18.500039166872106"><ele>79.0</ele><time>2026-04-05T06:02:31Z</time></trkpt><trkpt lat="40.122635647342065" lon="18.500046936067243"><ele>79.0</ele><time>2026-04-05T06:02:32Z</time></trkpt><trkpt lat="40.12243672671106" lon="18.50005415642406"><ele>79.0</ele><time>2026-04-05T06:02:33Z</time></trkpt><trkpt lat="40.12224217437062" lon="18.50006476185034"><ele>79.0</ele><time>2026-04-05T06:02:34Z</time></trkpt><trkpt lat="40.12204874795066" lon="18.500081949143922"><ele>79.0</ele><time>2026-04-05T06:02:35Z</time></trkpt><trkpt lat="40.12185934455234" lon="18.500119938589076"><ele>79.0</ele><time>2026-04-05T06:02:36Z</time></trkpt><trkpt lat="40.12166594722633" lon="18.500180639946194"><ele>79.0</ele><time>2026-04-05T06:02:37Z</time></trkpt><trkpt lat="40.12146677035752" lon="18.50025516236105"><ele>80.33333333333333</ele><time>2026-04-05T06:02:38Z</time></trkpt><trkpt lat="40.1212630848262" lon="18.50033726638566"><ele>81.66666666666667</ele><time>2026-04-05T06:02:39Z</time></trkpt><trkpt lat="40.12104966926203" lon="18.500424147594458"><ele>83.0</ele><time>2026-04-05T06:02:40Z</time></trkpt><trkpt lat="40.120829510206114" lon="18.500514069501556"><ele>84.0</ele><time>2026-04-05T06:02:41.001Z</time></trkpt><trkpt lat="40.12060874655828" lon="18.5006015052703"><ele>85.0</ele><time>2026-04-05T06:02:42.001Z</time></trkpt><trkpt lat="40.12038278752688" lon="18.500688051406623"><ele>85.0</ele><time>2026-04-05T06:02:43.001Z</time></trkpt><trkpt lat="40.120154021981925" lon="18.500778035578325"><ele>85.0</ele><time>2026-04-05T06:02:44.001Z</time></trkpt><trkpt lat="40.11992776781232" lon="18.50086325152514"><ele>85.0</ele><time>2026-04-05T06:02:45.001Z</time></trkpt><trkpt lat="40.11972302262267" lon="18.500937816535668"><ele>85.0</ele><time>2026-04-05T06:02:46.001Z</time></trkpt><trkpt lat="40.119546507008174" lon="18.501004850282854"><ele>85.0</ele><time>2026-04-05T06:02:47.001Z</time></trkpt><trkpt lat="40.11938032065768" lon="18.501071187356693"><ele>85.0</ele><time>2026-04-05T06:02:48.001Z</time></trkpt><trkpt lat="40.11922368942508" lon="18.501143393039527"><ele>85.0</ele><time>2026-04-05T06:02:49.001Z</time></trkpt><trkpt lat="40.1190632283038" lon="18.501237466846106"><ele>85.0</ele><time>2026-04-05T06:02:50.001Z</time></trkpt><trkpt lat="40.118902394779305" lon="18.501357079364332"><ele>85.0</ele><time>2026-04-05T06:02:51.001Z</time></trkpt><trkpt lat="40.11874292803848" lon="18.50149493713805"><ele>85.0</ele><time>2026-04-05T06:02:52.001Z</time></trkpt><trkpt lat="40.118587773246375" lon="18.501654644429788"><ele>85.0</ele><time>2026-04-05T06:02:53.001Z</time></trkpt><trkpt lat="40.11844239247567" lon="18.501832239984836"><ele>85.0</ele><time>2026-04-05T06:02:54.001Z</time></trkpt><trkpt lat="40.11830690657742" lon="18.502026507960295"><ele>85.0</ele><time>2026-04-05T06:02:55.001Z</time></trkpt><trkpt lat="40.11818719600306" lon="18.502233949130186"><ele>85.0</ele><time>2026-04-05T06:02:56.001Z</time></trkpt><trkpt lat="40.11808866957129" lon="18.50244843301851"><ele>84.33333333333333</ele><time>2026-04-05T06:02:57.001Z</time></trkpt><trkpt lat="40.11800600934071" lon="18.50267764371232"><ele>83.66666666666667</ele><time>2026-04-05T06:02:58.001Z</time></trkpt><trkpt lat="40.11793719097322" lon="18.502926349574963"><ele>83.0</ele><time>2026-04-05T06:02:59.001Z</time></trkpt><trkpt lat="40.117880813744506" lon="18.503193805633945"><ele>82.0</ele><time>2026-04-05T06:03:00.001Z</time></trkpt><trkpt lat="40.117833065080596" lon="18.503484841275547"><ele>81.0</ele><time>2026-04-05T06:03:01.001Z</time></trkpt><trkpt lat="40.117791217278054" lon="18.503783475681328"><ele>80.0</ele><time>2026-04-05T06:03:02.001Z</time></trkpt><trkpt lat="40.11775065105826" lon="18.504083724195077"><ele>79.0</ele><time>2026-04-05T06:03:03.001Z</time></trkpt><trkpt lat="40.11770793322334" lon="18.504391179661674"><ele>79.0</ele><time>2026-04-05T06:03:04.001Z</time></trkpt><trkpt lat="40.11766721358401" lon="18.504699063876185"><ele>79.0</ele><time>2026-04-05T06:03:05.001Z</time></trkpt><trkpt lat="40.11762853725325" lon="18.5050002692841"><ele>79.0</ele><time>2026-04-05T06:03:06.001Z</time></trkpt><trkpt lat="40.11759221875623" lon="18.505292352263602"><ele>79.0</ele><time>2026-04-05T06:03:07.001Z</time></trkpt><trkpt lat="40.11755398509241" lon="18.505556905238493"><ele>79.0</ele><time>2026-04-05T06:03:08.001Z</time></trkpt><trkpt lat="40.11752230157438" lon="18.505779963883334"><ele>78.66666666666666</ele><time>2026-04-05T06:03:09.001Z</time></trkpt><trkpt lat="40.117491757349136" lon="18.50598788781301"><ele>78.33333333333333</ele><time>2026-04-05T06:03:10.001Z</time></trkpt><trkpt lat="40.11746246030003" lon="18.506182678535424"><ele>78.0</ele><time>2026-04-05T06:03:11.001Z</time></trkpt><trkpt lat="40.117432304115624" lon="18.506360710054242"><ele>78.0</ele><time>2026-04-05T06:03:12.001Z</time></trkpt><trkpt lat="40.11738289640452" lon="18.506546150472712"><ele>78.0</ele><time>2026-04-05T06:03:13.001Z</time></trkpt><trkpt lat="40.11731347435753" lon="18.506732839610848"><ele>78.0</ele><time>2026-04-05T06:03:14.001Z</time></trkpt><trkpt lat="40.11722439436946" lon="18.506920535933382"><ele>77.0</ele><time>2026-04-05T06:03:15.001Z</time></trkpt><trkpt lat="40.11712279979005" lon="18.507103510987136"><ele>76.0</ele><time>2026-04-05T06:03:16.001Z</time></trkpt><trkpt lat="40.117031927626314" lon="18.50730438086125"><ele>75.0</ele><time>2026-04-05T06:03:17.001Z</time></trkpt><trkpt lat="40.116966698314194" lon="18.507532918229302"><ele>75.0</ele><time>2026-04-05T06:03:18.001Z</time></trkpt><trkpt lat="40.116919408181495" lon="18.507782545730343"><ele>75.0</ele><time>2026-04-05T06:03:19.001Z</time></trkpt><trkpt lat="40.11688344722601" lon="18.508044748263938"><ele>75.0</ele><time>2026-04-05T06:03:20Z</time></trkpt><trkpt lat="40.11684498582209" lon="18.508296330131305"><ele>75.0</ele><time>2026-04-05T06:03:21Z</time></trkpt><trkpt lat="40.11680349855031" lon="18.508545685706785"><ele>75.0</ele><time>2026-04-05T06:03:22Z</time></trkpt><trkpt lat="40.116756237168254" lon="18.50879562722298"><ele>75.0</ele><time>2026-04-05T06:03:23Z</time></trkpt><trkpt lat="40.11671046595584" lon="18.5090462565754"><ele>75.0</ele><time>2026-04-05T06:03:24Z</time></trkpt><trkpt lat="40.11666452352964" lon="18.509295788096303"><ele>75.0</ele><time>2026-04-05T06:03:25Z</time></trkpt><trkpt lat="40.11661196860301" lon="18.50953933879617"><ele>75.0</ele><time>2026-04-05T06:03:26Z</time></trkpt><trkpt lat="40.116546598786876" lon="18.50977222626991"><ele>75.33333333333333</ele><time>2026-04-05T06:03:27Z</time></trkpt><trkpt lat="40.116464980842046" lon="18.510007097753515"><ele>75.66666666666666</ele><time>2026-04-05T06:03:28Z</time></trkpt><trkpt lat="40.11636798175441" lon="18.51024643370452"><ele>76.0</ele><time>2026-04-05T06:03:29Z</time></trkpt><trkpt lat="40.11626448857989" lon="18.51048283482136"><ele>75.33333333333333</ele><time>2026-04-05T06:03:30Z</time></trkpt><trkpt lat="40.11616514898965" lon="18.510706450365983"><ele>74.66666666666667</ele><time>2026-04-05T06:03:31Z</time></trkpt><trkpt lat="40.11607138734802" lon="18.51091542109885"><ele>74.0</ele><time>2026-04-05T06:03:32Z</time></trkpt><trkpt lat="40.115986636280645" lon="18.511104485080914"><ele>74.33333333333334</ele><time>2026-04-05T06:03:33Z</time></trkpt><trkpt lat="40.11589630852461" lon="18.511273028695076"><ele>74.66666666666667</ele><time>2026-04-05T06:03:34Z</time></trkpt><trkpt lat="40.11579129755492" lon="18.511425260702282"><ele>75.0</ele><time>2026-04-05T06:03:35Z</time></trkpt><trkpt lat="40.11566401106746" lon="18.511574264892708"><ele>75.0</ele><time>2026-04-05T06:03:36Z</time></trkpt><trkpt lat="40.11551323744778" lon="18.511715988243726"><ele>75.0</ele><time>2026-04-05T06:03:37Z</time></trkpt><trkpt lat="40.11535385132379" lon="18.51185864966156"><ele>75.0</ele><time>2026-04-05T06:03:38Z</time></trkpt><trkpt lat="40.11519547867984" lon="18.512004780201366"><ele>75.0</ele><time>2026-04-05T06:03:39Z</time></trkpt><trkpt lat="40.11503511182151" lon="18.512149014047868"><ele>75.0</ele><time>2026-04-05T06:03:40Z</time></trkpt><trkpt lat="40.11487749644037" lon="18.51228876671624"><ele>75.0</ele><time>2026-04-05T06:03:41Z</time></trkpt><trkpt lat="40.11472051671254" lon="18.512419174212383"><ele>75.0</ele><time>2026-04-05T06:03:42Z</time></trkpt><trkpt lat="40.1145539570022" lon="18.51253895836555"><ele>75.0</ele><time>2026-04-05T06:03:43Z</time></trkpt><trkpt lat="40.11439104155508" lon="18.512643215140187"><ele>75.0</ele><time>2026-04-05T06:03:44Z</time></trkpt><trkpt lat="40.11422383134675" lon="18.51273942880867"><ele>74.66666666666667</ele><time>2026-04-05T06:03:45Z</time></trkpt><trkpt lat="40.11405785009751" lon="18.51282957836481"><ele>74.33333333333334</ele><time>2026-04-05T06:03:46Z</time></trkpt><trkpt lat="40.11389611694757" lon="18.51291548452733"><ele>74.0</ele><time>2026-04-05T06:03:47Z</time></trkpt><trkpt lat="40.113745122727984" lon="18.513000314894896"><ele>74.0</ele><time>2026-04-05T06:03:48Z</time></trkpt><trkpt lat="40.11360061988779" lon="18.513081348633836"><ele>74.0</ele><time>2026-04-05T06:03:49Z</time></trkpt><trkpt lat="40.113449733057564" lon="18.513170216190566"><ele>74.0</ele><time>2026-04-05T06:03:50Z</time></trkpt><trkpt lat="40.113277784989094" lon="18.513241950004666"><ele>74.66666666666667</ele><time>2026-04-05T06:03:51Z</time></trkpt><trkpt lat="40.113104848881484" lon="18.51333466172313"><ele>75.33333333333333</ele><time>2026-04-05T06:03:52Z</time></trkpt><trkpt lat="40.11292989186273" lon="18.513445825666675"><ele>76.0</ele><time>2026-04-05T06:03:53Z</time></trkpt><trkpt lat="40.11274198756112" lon="18.51353397430423"><ele>76.0</ele><time>2026-04-05T06:03:54Z</time></trkpt><trkpt lat="40.11254821760558" lon="18.513632508487646"><ele>76.0</ele><time>2026-04-05T06:03:55Z</time></trkpt><trkpt lat="40.11235532900343" lon="18.51373975982297"><ele>76.0</ele><time>2026-04-05T06:03:56Z</time></trkpt><trkpt lat="40.11216255680307" lon="18.513853582215813"><ele>76.0</ele><time>2026-04-05T06:03:57Z</time></trkpt><trkpt lat="40.111969607026936" lon="18.513972691720436"><ele>76.0</ele><time>2026-04-05T06:03:58Z</time></trkpt><trkpt lat="40.11178215636895" lon="18.514092946764432"><ele>76.0</ele><time>2026-04-05T06:03:59Z</time></trkpt><trkpt lat="40.11159417848747" lon="18.514214814535652"><ele>76.33333333333333</ele><time>2026-04-05T06:04:00Z</time></trkpt><trkpt lat="40.1114076108347" lon="18.514340946556125"><ele>76.66666666666667</ele><time>2026-04-05T06:04:01Z</time></trkpt><trkpt lat="40.11121874042516" lon="18.514465604486663"><ele>77.0</ele><time>2026-04-05T06:04:02Z</time></trkpt><trkpt lat="40.11102760721112" lon="18.514593540840956"><ele>76.66666666666667</ele><time>2026-04-05T06:04:03Z</time></trkpt><trkpt lat="40.11083704679556" lon="18.514733617396214"><ele>76.33333333333333</ele><time>2026-04-05T06:04:04Z</time></trkpt><trkpt lat="40.110646423419816" lon="18.514886691393716"><ele>76.0</ele><time>2026-04-05T06:04:05Z</time></trkpt><trkpt lat="40.110461124066546" lon="18.515043125061666"><ele>76.0</ele><time>2026-04-05T06:04:06Z</time></trkpt><trkpt lat="40.110273337783" lon="18.515199681113756"><ele>76.0</ele><time>2026-04-05T06:04:07Z</time></trkpt><trkpt lat="40.110088628060424" lon="18.515354630942028"><ele>76.0</ele><time>2026-04-05T06:04:08Z</time></trkpt><trkpt lat="40.109909467095804" lon="18.515502354881303"><ele>76.33333333333333</ele><time>2026-04-05T06:04:09Z</time></trkpt><trkpt lat="40.10973849368253" lon="18.515642763856782"><ele>76.66666666666667</ele><time>2026-04-05T06:04:10Z</time></trkpt><trkpt lat="40.10957702627384" lon="18.51578161315181"><ele>77.0</ele><time>2026-04-05T06:04:11Z</time></trkpt><trkpt lat="40.10942441803984" lon="18.51591486922714"><ele>77.0</ele><time>2026-04-05T06:04:12Z</time></trkpt><trkpt lat="40.10927520144197" lon="18.51603269206159"><ele>77.0</ele><time>2026-04-05T06:04:13Z</time></trkpt><trkpt lat="40.10912645343927" lon="18.516146156193173"><ele>77.0</ele><time>2026-04-05T06:04:14Z</time></trkpt><trkpt lat="40.10897087376383" lon="18.516257986062296"><ele>76.66666666666667</ele><time>2026-04-05T06:04:15Z</time></trkpt><trkpt lat="40.10880416189459" lon="18.516356160750686"><ele>76.33333333333333</ele><time>2026-04-05T06:04:16Z</time></trkpt><trkpt lat="40.108635695410584" lon="18.51643211009649"><ele>76.0</ele><time>2026-04-05T06:04:17Z</time></trkpt><trkpt lat="40.10846085143851" lon="18.516482702831386"><ele>76.0</ele><time>2026-04-05T06:04:18Z</time></trkpt><trkpt lat="40.10829410898828" lon="18.516508913839434"><ele>76.0</ele><time>2026-04-05T06:04:19Z</time></trkpt><trkpt lat="40.10812078671614" lon="18.516509703707044"><ele>76.0</ele><time>2026-04-05T06:04:20Z</time></trkpt><trkpt lat="40.10794147220305" lon="18.516488652040927"><ele>77.0</ele><time>2026-04-05T06:04:21Z</time></trkpt><trkpt lat="40.10775275738462" lon="18.516445195796916"><ele>78.0</ele><time>2026-04-05T06:04:22Z</time></trkpt><trkpt lat="40.10757169470092" lon="18.51638193398746"><ele>79.0</ele><time>2026-04-05T06:04:23Z</time></trkpt><trkpt lat="40.10740387147902" lon="18.516279064442685"><ele>79.33333333333333</ele><time>2026-04-05T06:04:24Z</time></trkpt><trkpt lat="40.10724160111827" lon="18.516166552948786"><ele>79.66666666666667</ele><time>2026-04-05T06:04:25Z</time></trkpt><trkpt lat="40.10708387190457" lon="18.516034474334813"><ele>80.0</ele><time>2026-04-05T06:04:26Z</time></trkpt><trkpt lat="40.10693140778562" lon="18.51587764025315"><ele>80.0</ele><time>2026-04-05T06:04:27Z</time></trkpt><trkpt lat="40.10679506471352" lon="18.5157032716703"><ele>80.0</ele><time>2026-04-05T06:04:28Z</time></trkpt><trkpt lat="40.10667432919365" lon="18.515516429751205"><ele>80.0</ele><time>2026-04-05T06:04:29Z</time></trkpt><trkpt lat="40.106554724132586" lon="18.515308306643565"><ele>80.0</ele><time>2026-04-05T06:04:30Z</time></trkpt><trkpt lat="40.10643768416717" lon="18.515091459325685"><ele>80.0</ele><time>2026-04-05T06:04:31Z</time></trkpt><trkpt lat="40.10631702498228" lon="18.51487255827512"><ele>80.0</ele><time>2026-04-05T06:04:32Z</time></trkpt><trkpt lat="40.106193708452516" lon="18.514648836102555"><ele>80.0</ele><time>2026-04-05T06:04:33Z</time></trkpt><trkpt lat="40.1060701182928" lon="18.514424617627345"><ele>80.0</ele><time>2026-04-05T06:04:34Z</time></trkpt><trkpt lat="40.10593090472056" lon="18.514208371502985"><ele>80.0</ele><time>2026-04-05T06:04:35Z</time></trkpt><trkpt lat="40.10581295457712" lon="18.513958068530453"><ele>79.33333333333334</ele><time>2026-04-05T06:04:36Z</time></trkpt><trkpt lat="40.10568180440682" lon="18.513722481406756"><ele>78.66666666666667</ele><time>2026-04-05T06:04:37Z</time></trkpt><trkpt lat="40.10554890040701" lon="18.513483946271574"><ele>78.0</ele><time>2026-04-05T06:04:38Z</time></trkpt><trkpt lat="40.105414960513336" lon="18.513243653251493"><ele>78.0</ele><time>2026-04-05T06:04:39Z</time></trkpt><trkpt lat="40.10527977489537" lon="18.51300111038413"><ele>78.0</ele><time>2026-04-05T06:04:40Z</time></trkpt><trkpt lat="40.10514428118599" lon="18.512757812266806"><ele>78.0</ele><time>2026-04-05T06:04:41Z</time></trkpt><trkpt lat="40.10500913813352" lon="18.5125128617813"><ele>78.0</ele><time>2026-04-05T06:04:42Z</time></trkpt><trkpt lat="40.10487346575989" lon="18.51226695190386"><ele>78.33333333333333</ele><time>2026-04-05T06:04:43Z</time></trkpt><trkpt lat="40.10474407390416" lon="18.512032425637063"><ele>78.66666666666666</ele><time>2026-04-05T06:04:44Z</time></trkpt><trkpt lat="40.104601977020046" lon="18.511801528043915"><ele>79.0</ele><time>2026-04-05T06:04:45Z</time></trkpt><trkpt lat="40.10448500872027" lon="18.51156290877365"><ele>79.0</ele><time>2026-04-05T06:04:46Z</time></trkpt><trkpt lat="40.10435194518549" lon="18.511349599729268"><ele>79.0</ele><time>2026-04-05T06:04:47Z</time></trkpt><trkpt lat="40.104232375907856" lon="18.511119860358377"><ele>79.0</ele><time>2026-04-05T06:04:48Z</time></trkpt><trkpt lat="40.10410786639408" lon="18.510902787731034"><ele>79.0</ele><time>2026-04-05T06:04:49.001Z</time></trkpt><trkpt lat="40.10398657904898" lon="18.510691966821252"><ele>79.0</ele><time>2026-04-05T06:04:50.001Z</time></trkpt><trkpt lat="40.1038798883646" lon="18.510466727843372"><ele>79.0</ele><time>2026-04-05T06:04:51.001Z</time></trkpt><trkpt lat="40.103762998654275" lon="18.51025498434732"><ele>79.33333333333333</ele><time>2026-04-05T06:04:52.001Z</time></trkpt><trkpt lat="40.103642749296604" lon="18.510037154877256"><ele>79.66666666666667</ele><time>2026-04-05T06:04:53.001Z</time></trkpt><trkpt lat="40.10352083775937" lon="18.509816314414838"><ele>80.0</ele><time>2026-04-05T06:04:54.001Z</time></trkpt><trkpt lat="40.10339690598703" lon="18.509591814416385"><ele>79.66666666666667</ele><time>2026-04-05T06:04:55.001Z</time></trkpt><trkpt lat="40.10327624566643" lon="18.509372861100633"><ele>79.33333333333333</ele><time>2026-04-05T06:04:56.001Z</time></trkpt><trkpt lat="40.10315678688307" lon="18.509156046931444"><ele>79.0</ele><time>2026-04-05T06:04:57.001Z</time></trkpt><trkpt lat="40.10304279377942" lon="18.508950087519043"><ele>79.0</ele><time>2026-04-05T06:04:58.001Z</time></trkpt><trkpt lat="40.1029283440297" lon="18.50874330282581"><ele>79.0</ele><time>2026-04-05T06:04:59.001Z</time></trkpt><trkpt lat="40.10281845075245" lon="18.50854475075645"><ele>79.0</ele><time>2026-04-05T06:05:00.001Z</time></trkpt><trkpt lat="40.10270984217866" lon="18.508349614899828"><ele>79.66666666666666</ele><time>2026-04-05T06:05:01.001Z</time></trkpt><trkpt lat="40.10261251300021" lon="18.50817476495043"><ele>80.33333333333333</ele><time>2026-04-05T06:05:02.001Z</time></trkpt><trkpt lat="40.10251380948568" lon="18.507997446174794"><ele>81.0</ele><time>2026-04-05T06:05:03.001Z</time></trkpt><trkpt lat="40.102414842884286" lon="18.507819654743066"><ele>81.0</ele><time>2026-04-05T06:05:04.001Z</time></trkpt><trkpt lat="40.102316156240946" lon="18.507641251248092"><ele>81.0</ele><time>2026-04-05T06:05:05.001Z</time></trkpt><trkpt lat="40.102230908389245" lon="18.507482288757267"><ele>81.0</ele><time>2026-04-05T06:05:06.001Z</time></trkpt><trkpt lat="40.10215628466114" lon="18.507333276052453"><ele>81.0</ele><time>2026-04-05T06:05:07.001Z</time></trkpt><trkpt lat="40.10209979741751" lon="18.50721103434649"><ele>81.0</ele><time>2026-04-05T06:05:08.001Z</time></trkpt><trkpt lat="40.10205936554823" lon="18.507090187678052"><ele>81.0</ele><time>2026-04-05T06:05:09.001Z</time></trkpt><trkpt lat="40.10203911428128" lon="18.506963759362804"><ele>81.0</ele><time>2026-04-05T06:05:10.001Z</time></trkpt><trkpt lat="40.102034176158384" lon="18.506833877490248"><ele>81.0</ele><time>2026-04-05T06:05:11.001Z</time></trkpt><trkpt lat="40.10204457785793" lon="18.50671376019816"><ele>81.0</ele><time>2026-04-05T06:05:12.001Z</time></trkpt><trkpt lat="40.10207094366843" lon="18.506564285021472"><ele>81.0</ele><time>2026-04-05T06:05:13.001Z</time></trkpt><trkpt lat="40.10211131892292" lon="18.50637226545152"><ele>81.0</ele><time>2026-04-05T06:05:14.001Z</time></trkpt><trkpt lat="40.102157095291055" lon="18.506161889148252"><ele>81.0</ele><time>2026-04-05T06:05:15.001Z</time></trkpt><trkpt lat="40.10220491240481" lon="18.50594649563817"><ele>78.66666666666667</ele><time>2026-04-05T06:05:16.001Z</time></trkpt><trkpt lat="40.10225441378033" lon="18.505725643230036"><ele>76.33333333333334</ele><time>2026-04-05T06:05:17.001Z</time></trkpt><trkpt lat="40.10230480481188" lon="18.50550082180555"><ele>74.0</ele><time>2026-04-05T06:05:18.001Z</time></trkpt><trkpt lat="40.10234705967967" lon="18.505312300017955"><ele>72.8</ele><time>2026-04-05T06:05:19.001Z</time></trkpt><trkpt lat="40.10236559098632" lon="18.505152165375584"><ele>71.60000000000001</ele><time>2026-04-05T06:05:20.001Z</time></trkpt><trkpt lat="40.102387298801936" lon="18.5050117358991"><ele>70.4</ele><time>2026-04-05T06:05:21.001Z</time></trkpt><trkpt lat="40.10239120851273" lon="18.504872982610895"><ele>69.2</ele><time>2026-04-05T06:05:22.001Z</time></trkpt><trkpt lat="40.10237894032935" lon="18.504732201276795"><ele>68.0</ele><time>2026-04-05T06:05:23.001Z</time></trkpt><trkpt lat="40.10233205935795" lon="18.504600785804676"><ele>67.5</ele><time>2026-04-05T06:05:24.001Z</time></trkpt><trkpt lat="40.10226383102469" lon="18.504475624333182"><ele>67.0</ele><time>2026-04-05T06:05:25.001Z</time></trkpt><trkpt lat="40.10216882543803" lon="18.504367594084762"><ele>66.5</ele><time>2026-04-05T06:05:26Z</time></trkpt><trkpt lat="40.10205064706817" lon="18.504267856409037"><ele>66.0</ele><time>2026-04-05T06:05:27Z</time></trkpt><trkpt lat="40.101953442521854" lon="18.504133210365275"><ele>66.0</ele><time>2026-04-05T06:05:28Z</time></trkpt><trkpt lat="40.10187351650392" lon="18.504002588791312"><ele>66.0</ele><time>2026-04-05T06:05:29Z</time></trkpt><trkpt lat="40.10182370053495" lon="18.503863148278455"><ele>66.0</ele><time>2026-04-05T06:05:30Z</time></trkpt><trkpt lat="40.10181029867148" lon="18.503716183759334"><ele>66.0</ele><time>2026-04-05T06:05:31Z</time></trkpt><trkpt lat="40.10181503243336" lon="18.503559892773303"><ele>65.33333333333333</ele><time>2026-04-05T06:05:32Z</time></trkpt><trkpt lat="40.101849683416745" lon="18.503388435272708"><ele>64.66666666666666</ele><time>2026-04-05T06:05:33Z</time></trkpt><trkpt lat="40.10191384984647" lon="18.50321152159454"><ele>64.0</ele><time>2026-04-05T06:05:34Z</time></trkpt><trkpt lat="40.10199366903712" lon="18.503012144473743"><ele>61.666666666666664</ele><time>2026-04-05T06:05:35Z</time></trkpt><trkpt lat="40.10208042787684" lon="18.502803438375597"><ele>59.33333333333333</ele><time>2026-04-05T06:05:36Z</time></trkpt><trkpt lat="40.10216326779534" lon="18.502603878368724"><ele>57.0</ele><time>2026-04-05T06:05:37Z</time></trkpt><trkpt lat="40.102240221771304" lon="18.502414487057955"><ele>57.0</ele><time>2026-04-05T06:05:38Z</time></trkpt><trkpt lat="40.10230862369521" lon="18.502248677954388"><ele>57.0</ele><time>2026-04-05T06:05:39Z</time></trkpt><trkpt lat="40.10237627846053" lon="18.502094757851086"><ele>57.0</ele><time>2026-04-05T06:05:40Z</time></trkpt><trkpt lat="40.10244912742232" lon="18.50195133698574"><ele>57.0</ele><time>2026-04-05T06:05:41Z</time></trkpt><trkpt lat="40.102536135870785" lon="18.501817425665884"><ele>57.25</ele><time>2026-04-05T06:05:42Z</time></trkpt><trkpt lat="40.102633171471794" lon="18.501691578732533"><ele>57.5</ele><time>2026-04-05T06:05:43Z</time></trkpt><trkpt lat="40.10277384682083" lon="18.501619070620723"><ele>57.75</ele><time>2026-04-05T06:05:44Z</time></trkpt><trkpt lat="40.10292195528519" lon="18.501559441668793"><ele>58.0</ele><time>2026-04-05T06:05:45Z</time></trkpt><trkpt lat="40.10306344429625" lon="18.501524165127385"><ele>58.0</ele><time>2026-04-05T06:05:46Z</time></trkpt><trkpt lat="40.10317898193503" lon="18.50146508162148"><ele>58.0</ele><time>2026-04-05T06:05:47Z</time></trkpt><trkpt lat="40.10328862032189" lon="18.501400937239154"><ele>58.0</ele><time>2026-04-05T06:05:48Z</time></trkpt><trkpt lat="40.10338900020117" lon="18.501306713589507"><ele>58.0</ele><time>2026-04-05T06:05:49Z</time></trkpt><trkpt lat="40.10346891216063" lon="18.501183837294917"><ele>56.75</ele><time>2026-04-05T06:05:50Z</time></trkpt><trkpt lat="40.10354558092399" lon="18.501046200482673"><ele>55.5</ele><time>2026-04-05T06:05:51Z</time></trkpt><trkpt lat="40.10359101097502" lon="18.500874966795248"><ele>54.25</ele><time>2026-04-05T06:05:52Z</time></trkpt><trkpt lat="40.1035892132596" lon="18.500681602981036"><ele>53.0</ele><time>2026-04-05T06:05:53Z</time></trkpt><trkpt lat="40.10358452754801" lon="18.50048206474072"><ele>51.66666666666667</ele><time>2026-04-05T06:05:54Z</time></trkpt><trkpt lat="40.103565673962294" lon="18.500257034253767"><ele>50.33333333333333</ele><time>2026-04-05T06:05:55Z</time></trkpt><trkpt lat="40.10354810218885" lon="18.500013183180723"><ele>49.0</ele><time>2026-04-05T06:05:56Z</time></trkpt><trkpt lat="40.103544969246634" lon="18.499758201865763"><ele>48.666666666666664</ele><time>2026-04-05T06:05:57Z</time></trkpt><trkpt lat="40.10352671919719" lon="18.499492421314432"><ele>48.33333333333333</ele><time>2026-04-05T06:05:58Z</time></trkpt><trkpt lat="40.10350781503325" lon="18.49922030867475"><ele>48.0</ele><time>2026-04-05T06:05:59Z</time></trkpt><trkpt lat="40.10348859510602" lon="18.498940053912033"><ele>48.0</ele><time>2026-04-05T06:06:00Z</time></trkpt><trkpt lat="40.103469218003376" lon="18.498656154449964"><ele>48.0</ele><time>2026-04-05T06:06:01Z</time></trkpt><trkpt lat="40.10345001008047" lon="18.498374733691968"><ele>48.0</ele><time>2026-04-05T06:06:02Z</time></trkpt><trkpt lat="40.103431698479724" lon="18.49809570082037"><ele>48.0</ele><time>2026-04-05T06:06:03Z</time></trkpt><trkpt lat="40.1034145447063" lon="18.49782951323162"><ele>48.0</ele><time>2026-04-05T06:06:04Z</time></trkpt><trkpt lat="40.103398698881506" lon="18.497583622115428"><ele>48.0</ele><time>2026-04-05T06:06:05Z</time></trkpt><trkpt lat="40.10338315539095" lon="18.49734242261665"><ele>48.0</ele><time>2026-04-05T06:06:06Z</time></trkpt><trkpt lat="40.103355818371526" lon="18.497124767044536"><ele>48.0</ele><time>2026-04-05T06:06:07Z</time></trkpt><trkpt lat="40.103351437913666" lon="18.49692423367981"><ele>48.0</ele><time>2026-04-05T06:06:08Z</time></trkpt><trkpt lat="40.10332415670123" lon="18.49674160661315"><ele>48.0</ele><time>2026-04-05T06:06:09Z</time></trkpt><trkpt lat="40.10326715129796" lon="18.496571770629217"><ele>48.0</ele><time>2026-04-05T06:06:10Z</time></trkpt><trkpt lat="40.103190190422005" lon="18.496416897327403"><ele>48.0</ele><time>2026-04-05T06:06:11Z</time></trkpt><trkpt lat="40.1030892208044" lon="18.49627131796825"><ele>48.0</ele><time>2026-04-05T06:06:12Z</time></trkpt><trkpt lat="40.10296456217375" lon="18.496150401919092"><ele>48.33333333333333</ele><time>2026-04-05T06:06:13Z</time></trkpt><trkpt lat="40.102819984839805" lon="18.496047124292193"><ele>48.666666666666664</ele><time>2026-04-05T06:06:14Z</time></trkpt><trkpt lat="40.102661117135035" lon="18.495964621080955"><ele>49.0</ele><time>2026-04-05T06:06:15Z</time></trkpt><trkpt lat="40.102504112766326" lon="18.49588493050463"><ele>48.33333333333333</ele><time>2026-04-05T06:06:16Z</time></trkpt><trkpt lat="40.10236489556471" lon="18.495796867285346"><ele>47.666666666666664</ele><time>2026-04-05T06:06:17Z</time></trkpt><trkpt lat="40.10222895607044" lon="18.49569393332497"><ele>47.0</ele><time>2026-04-05T06:06:18Z</time></trkpt><trkpt lat="40.10212480227818" lon="18.49555821859442"><ele>46.0</ele><time>2026-04-05T06:06:19Z</time></trkpt><trkpt lat="40.10203452506732" lon="18.495401800910354"><ele>45.0</ele><time>2026-04-05T06:06:20Z</time></trkpt><trkpt lat="40.101940053681155" lon="18.495226005866492"><ele>44.0</ele><time>2026-04-05T06:06:21Z</time></trkpt><trkpt lat="40.10183486967937" lon="18.4950168148436"><ele>44.0</ele><time>2026-04-05T06:06:22Z</time></trkpt><trkpt lat="40.10172393852205" lon="18.49479383065339"><ele>44.0</ele><time>2026-04-05T06:06:23Z</time></trkpt><trkpt lat="40.10158682905352" lon="18.494562264149987"><ele>44.0</ele><time>2026-04-05T06:06:24Z</time></trkpt><trkpt lat="40.10147684862657" lon="18.49430674249473"><ele>42.0</ele><time>2026-04-05T06:06:25Z</time></trkpt><trkpt lat="40.10135055561351" lon="18.49405812479468"><ele>40.0</ele><time>2026-04-05T06:06:26Z</time></trkpt><trkpt lat="40.101226961308306" lon="18.493813701750074"><ele>40.333333333333336</ele><time>2026-04-05T06:06:27Z</time></trkpt><trkpt lat="40.10111184974276" lon="18.493586054570503"><ele>40.666666666666664</ele><time>2026-04-05T06:06:28Z</time></trkpt><trkpt lat="40.10100619053501" lon="18.493377100369447"><ele>41.0</ele><time>2026-04-05T06:06:29Z</time></trkpt><trkpt lat="40.100895008889225" lon="18.4931588100169"><ele>41.0</ele><time>2026-04-05T06:06:30Z</time></trkpt><trkpt lat="40.100773847809336" lon="18.49295894887982"><ele>41.0</ele><time>2026-04-05T06:06:31Z</time></trkpt><trkpt lat="40.10067228999404" lon="18.49273029982426"><ele>41.0</ele><time>2026-04-05T06:06:32Z</time></trkpt><trkpt lat="40.10055059127176" lon="18.492520179954123"><ele>41.0</ele><time>2026-04-05T06:06:33Z</time></trkpt><trkpt lat="40.100412058154355" lon="18.492311430296763"><ele>41.0</ele><time>2026-04-05T06:06:34Z</time></trkpt><trkpt lat="40.10027032849695" lon="18.49211179032248"><ele>41.0</ele><time>2026-04-05T06:06:35Z</time></trkpt><trkpt lat="40.100126410008095" lon="18.491910082679077"><ele>41.33333333333333</ele><time>2026-04-05T06:06:36Z</time></trkpt><trkpt lat="40.09998197794213" lon="18.49170855503084"><ele>41.666666666666664</ele><time>2026-04-05T06:06:37Z</time></trkpt><trkpt lat="40.099840382239634" lon="18.491510885256954"><ele>42.0</ele><time>2026-04-05T06:06:38Z</time></trkpt><trkpt lat="40.09970369569115" lon="18.491320165661868"><ele>41.0</ele><time>2026-04-05T06:06:39Z</time></trkpt><trkpt lat="40.099580555394596" lon="18.49114834704739"><ele>40.0</ele><time>2026-04-05T06:06:40Z</time></trkpt><trkpt lat="40.099461006557476" lon="18.490989120171086"><ele>39.0</ele><time>2026-04-05T06:06:41Z</time></trkpt><trkpt lat="40.09933328022326" lon="18.49084145361392"><ele>39.0</ele><time>2026-04-05T06:06:42Z</time></trkpt><trkpt lat="40.0991964494269" lon="18.49070171833318"><ele>39.0</ele><time>2026-04-05T06:06:43Z</time></trkpt><trkpt lat="40.099047397984336" lon="18.49057046940015"><ele>39.0</ele><time>2026-04-05T06:06:44Z</time></trkpt><trkpt lat="40.09888862280124" lon="18.490450155437994"><ele>37.666666666666664</ele><time>2026-04-05T06:06:45Z</time></trkpt><trkpt lat="40.098718833146904" lon="18.49034127558988"><ele>36.33333333333333</ele><time>2026-04-05T06:06:46.001Z</time></trkpt><trkpt lat="40.09853327363084" lon="18.490264279556904"><ele>35.0</ele><time>2026-04-05T06:06:47.001Z</time></trkpt><trkpt lat="40.09834560394691" lon="18.490182008221623"><ele>34.33333333333333</ele><time>2026-04-05T06:06:48.001Z</time></trkpt><trkpt lat="40.09816060095242" lon="18.490123337684544"><ele>33.666666666666664</ele><time>2026-04-05T06:06:49.001Z</time></trkpt><trkpt lat="40.09797472252376" lon="18.490084335027166"><ele>33.0</ele><time>2026-04-05T06:06:50.001Z</time></trkpt><trkpt lat="40.09777086030158" lon="18.490062688416497"><ele>33.0</ele><time>2026-04-05T06:06:51.001Z</time></trkpt><trkpt lat="40.097568709473855" lon="18.490068020663237"><ele>33.0</ele><time>2026-04-05T06:06:52.001Z</time></trkpt><trkpt lat="40.09735332092801" lon="18.49009230831714"><ele>33.0</ele><time>2026-04-05T06:06:53.001Z</time></trkpt><trkpt lat="40.097130633098644" lon="18.49013146661231"><ele>32.5</ele><time>2026-04-05T06:06:54.001Z</time></trkpt><trkpt lat="40.0969060609873" lon="18.49017431610997"><ele>32.0</ele><time>2026-04-05T06:06:55.001Z</time></trkpt><trkpt lat="40.09667502703855" lon="18.490209550147515"><ele>32.0</ele><time>2026-04-05T06:06:56.001Z</time></trkpt><trkpt lat="40.096439255789235" lon="18.490246933242418"><ele>32.0</ele><time>2026-04-05T06:06:57.001Z</time></trkpt><trkpt lat="40.09620061384773" lon="18.490275923989465"><ele>32.0</ele><time>2026-04-05T06:06:58.001Z</time></trkpt><trkpt lat="40.09598136075267" lon="18.490302857781174"><ele>32.0</ele><time>2026-04-05T06:06:59.001Z</time></trkpt><trkpt lat="40.09577442655271" lon="18.490329243617804"><ele>32.0</ele><time>2026-04-05T06:07:00.001Z</time></trkpt><trkpt lat="40.095577784364494" lon="18.490356451121624"><ele>31.666666666666664</ele><time>2026-04-05T06:07:01.001Z</time></trkpt><trkpt lat="40.0953808419209" lon="18.490398078935044"><ele>31.333333333333336</ele><time>2026-04-05T06:07:02.001Z</time></trkpt><trkpt lat="40.09520806740673" lon="18.49042251935809"><ele>31.0</ele><time>2026-04-05T06:07:03.001Z</time></trkpt><trkpt lat="40.09505586284505" lon="18.49043742408538"><ele>30.333333333333336</ele><time>2026-04-05T06:07:04.001Z</time></trkpt><trkpt lat="40.09488964176714" lon="18.490440822071992"><ele>29.666666666666664</ele><time>2026-04-05T06:07:05.001Z</time></trkpt><trkpt lat="40.09471061500871" lon="18.490439265210547"><ele>29.0</ele><time>2026-04-05T06:07:06.001Z</time></trkpt><trkpt lat="40.09452713917202" lon="18.49039923183803"><ele>29.0</ele><time>2026-04-05T06:07:07.001Z</time></trkpt><trkpt lat="40.094335068519854" lon="18.490339603918436"><ele>29.0</ele><time>2026-04-05T06:07:08.001Z</time></trkpt><trkpt lat="40.09413275665971" lon="18.490272557962477"><ele>29.0</ele><time>2026-04-05T06:07:09.001Z</time></trkpt><trkpt lat="40.09392005540491" lon="18.490206999629663"><ele>28.333333333333332</ele><time>2026-04-05T06:07:10.001Z</time></trkpt><trkpt lat="40.09370545632394" lon="18.490120590916963"><ele>27.666666666666664</ele><time>2026-04-05T06:07:11.001Z</time></trkpt><trkpt lat="40.0934911155691" lon="18.49005417276387"><ele>27.0</ele><time>2026-04-05T06:07:12.001Z</time></trkpt><trkpt lat="40.0932679462845" lon="18.490000822774167"><ele>26.0</ele><time>2026-04-05T06:07:13.001Z</time></trkpt><trkpt lat="40.09304246136678" lon="18.489929927657546"><ele>25.0</ele><time>2026-04-05T06:07:14.001Z</time></trkpt><trkpt lat="40.09281393317326" lon="18.489857755475146"><ele>25.0</ele><time>2026-04-05T06:07:15.001Z</time></trkpt><trkpt lat="40.092581178897504" lon="18.489784968083853"><ele>25.0</ele><time>2026-04-05T06:07:16.001Z</time></trkpt><trkpt lat="40.092347419637775" lon="18.48970972402306"><ele>24.5</ele><time>2026-04-05T06:07:17.001Z</time></trkpt><trkpt lat="40.09210834231029" lon="18.489635486761625"><ele>24.0</ele><time>2026-04-05T06:07:18.001Z</time></trkpt><trkpt lat="40.09186678202872" lon="18.48955949051706"><ele>24.0</ele><time>2026-04-05T06:07:19.001Z</time></trkpt><trkpt lat="40.09163046646314" lon="18.4894842513192"><ele>24.0</ele><time>2026-04-05T06:07:20.001Z</time></trkpt><trkpt lat="40.09139828902866" lon="18.48941396429414"><ele>23.5</ele><time>2026-04-05T06:07:21.001Z</time></trkpt><trkpt lat="40.091177765708885" lon="18.489340342913533"><ele>23.0</ele><time>2026-04-05T06:07:22.001Z</time></trkpt><trkpt lat="40.090963508783055" lon="18.489262273257904"><ele>22.666666666666668</ele><time>2026-04-05T06:07:23.001Z</time></trkpt><trkpt lat="40.0907521191048" lon="18.48917687110956"><ele>22.333333333333332</ele><time>2026-04-05T06:07:24.001Z</time></trkpt><trkpt lat="40.09054266325716" lon="18.489065461463806"><ele>22.0</ele><time>2026-04-05T06:07:25.001Z</time></trkpt><trkpt lat="40.09033067192605" lon="18.488927576285647"><ele>22.5</ele><time>2026-04-05T06:07:26.001Z</time></trkpt><trkpt lat="40.09012636063647" lon="18.488752749500925"><ele>23.0</ele><time>2026-04-05T06:07:27.001Z</time></trkpt><trkpt lat="40.08991808689012" lon="18.488588539840283"><ele>23.0</ele><time>2026-04-05T06:07:28.001Z</time></trkpt><trkpt lat="40.089717226496504" lon="18.48842631712517"><ele>23.0</ele><time>2026-04-05T06:07:29.001Z</time></trkpt><trkpt lat="40.08951786773365" lon="18.488268108714873"><ele>23.0</ele><time>2026-04-05T06:07:30.001Z</time></trkpt><trkpt lat="40.089312310748014" lon="18.488130831363353"><ele>23.0</ele><time>2026-04-05T06:07:31.001Z</time></trkpt><trkpt lat="40.08912343128002" lon="18.48795737193586"><ele>23.0</ele><time>2026-04-05T06:07:32Z</time></trkpt><trkpt lat="40.08892580015956" lon="18.48780193612126"><ele>23.0</ele><time>2026-04-05T06:07:33Z</time></trkpt><trkpt lat="40.088731427999825" lon="18.487649063210558"><ele>23.0</ele><time>2026-04-05T06:07:34Z</time></trkpt><trkpt lat="40.08854011127572" lon="18.487499098489945"><ele>23.0</ele><time>2026-04-05T06:07:35Z</time></trkpt><trkpt lat="40.08833968067655" lon="18.487342043778625"><ele>22.5</ele><time>2026-04-05T06:07:36Z</time></trkpt><trkpt lat="40.08813796853766" lon="18.487185036518664"><ele>22.0</ele><time>2026-04-05T06:07:37Z</time></trkpt><trkpt lat="40.087939222568906" lon="18.4870330779843"><ele>23.0</ele><time>2026-04-05T06:07:38Z</time></trkpt><trkpt lat="40.08774086803045" lon="18.486881413792755"><ele>24.0</ele><time>2026-04-05T06:07:39Z</time></trkpt><trkpt lat="40.087539803986935" lon="18.486727676632068"><ele>24.0</ele><time>2026-04-05T06:07:40Z</time></trkpt><trkpt lat="40.08733685945632" lon="18.486573946340755"><ele>24.0</ele><time>2026-04-05T06:07:41Z</time></trkpt><trkpt lat="40.08713849796302" lon="18.486440139389753"><ele>24.0</ele><time>2026-04-05T06:07:42Z</time></trkpt><trkpt lat="40.086947110090726" lon="18.486284782810536"><ele>24.0</ele><time>2026-04-05T06:07:43Z</time></trkpt><trkpt lat="40.08676939312219" lon="18.48614387320708"><ele>24.0</ele><time>2026-04-05T06:07:44Z</time></trkpt><trkpt lat="40.08660818718395" lon="18.4860163220188"><ele>24.333333333333336</ele><time>2026-04-05T06:07:45Z</time></trkpt><trkpt lat="40.08644906023971" lon="18.485894429319696"><ele>24.666666666666668</ele><time>2026-04-05T06:07:46Z</time></trkpt><trkpt lat="40.08630250417276" lon="18.485777873273285"><ele>25.0</ele><time>2026-04-05T06:07:47Z</time></trkpt><trkpt lat="40.08616053681917" lon="18.485669512458422"><ele>25.0</ele><time>2026-04-05T06:07:48Z</time></trkpt><trkpt lat="40.086018842567114" lon="18.485561682336197"><ele>25.0</ele><time>2026-04-05T06:07:49Z</time></trkpt><trkpt lat="40.08588176551237" lon="18.485448168959703"><ele>25.0</ele><time>2026-04-05T06:07:50Z</time></trkpt><trkpt lat="40.08574707234038" lon="18.48531557433164"><ele>25.0</ele><time>2026-04-05T06:07:51Z</time></trkpt><trkpt lat="40.085619469914896" lon="18.485143893766196"><ele>25.0</ele><time>2026-04-05T06:07:52Z</time></trkpt><trkpt lat="40.085493830606765" lon="18.48495238997077"><ele>25.0</ele><time>2026-04-05T06:07:53Z</time></trkpt><trkpt lat="40.08535765015296" lon="18.484755950146653"><ele>25.0</ele><time>2026-04-05T06:07:54Z</time></trkpt><trkpt lat="40.085226021275254" lon="18.484566676259835"><ele>25.0</ele><time>2026-04-05T06:07:55Z</time></trkpt><trkpt lat="40.0850936645763" lon="18.48438512072538"><ele>25.0</ele><time>2026-04-05T06:07:56Z</time></trkpt><trkpt lat="40.08495855318027" lon="18.4842009509237"><ele>24.333333333333336</ele><time>2026-04-05T06:07:57Z</time></trkpt><trkpt lat="40.08482451899584" lon="18.48401911572314"><ele>23.666666666666668</ele><time>2026-04-05T06:07:58Z</time></trkpt><trkpt lat="40.084697387620814" lon="18.483838498680935"><ele>23.0</ele><time>2026-04-05T06:07:59Z</time></trkpt><trkpt lat="40.084567903581835" lon="18.48365121232012"><ele>22.333333333333336</ele><time>2026-04-05T06:08:00Z</time></trkpt><trkpt lat="40.08445087268721" lon="18.483498243792834"><ele>21.666666666666668</ele><time>2026-04-05T06:08:01Z</time></trkpt><trkpt lat="40.0843361839793" lon="18.483339423640835"><ele>21.0</ele><time>2026-04-05T06:08:02Z</time></trkpt><trkpt lat="40.08422783049235" lon="18.48318889304409"><ele>21.0</ele><time>2026-04-05T06:08:03Z</time></trkpt><trkpt lat="40.08412129728422" lon="18.483051807684184"><ele>21.0</ele><time>2026-04-05T06:08:04Z</time></trkpt><trkpt lat="40.084029599747694" lon="18.482927513453678"><ele>21.0</ele><time>2026-04-05T06:08:05Z</time></trkpt><trkpt lat="40.08393909167015" lon="18.482803429820486"><ele>21.0</ele><time>2026-04-05T06:08:06Z</time></trkpt><trkpt lat="40.08385409385434" lon="18.482677539081838"><ele>20.25</ele><time>2026-04-05T06:08:07Z</time></trkpt><trkpt lat="40.083789739102905" lon="18.482542927427588"><ele>19.5</ele><time>2026-04-05T06:08:08Z</time></trkpt><trkpt lat="40.083746964403595" lon="18.482406105778214"><ele>18.75</ele><time>2026-04-05T06:08:09Z</time></trkpt><trkpt lat="40.08370889781119" lon="18.48226902769748"><ele>18.0</ele><time>2026-04-05T06:08:10Z</time></trkpt><trkpt lat="40.08367794118311" lon="18.482119549059405"><ele>16.6</ele><time>2026-04-05T06:08:11Z</time></trkpt><trkpt lat="40.083652039214215" lon="18.481982654365797"><ele>15.200000000000001</ele><time>2026-04-05T06:08:12Z</time></trkpt><trkpt lat="40.08363420920577" lon="18.4818529507839"><ele>13.8</ele><time>2026-04-05T06:08:13Z</time></trkpt><trkpt lat="40.08363416068899" lon="18.481727241713784"><ele>12.4</ele><time>2026-04-05T06:08:14Z</time></trkpt><trkpt lat="40.08364862333179" lon="18.48161698671838"><ele>11.0</ele><time>2026-04-05T06:08:15Z</time></trkpt><trkpt lat="40.08366652252479" lon="18.48152790295189"><ele>11.0</ele><time>2026-04-05T06:08:16Z</time></trkpt><trkpt lat="40.08364666108745" lon="18.481412957918263"><ele>11.0</ele><time>2026-04-05T06:08:18Z</time></trkpt><trkpt lat="40.08359968594539" lon="18.48130017917636"><ele>11.0</ele><time>2026-04-05T06:08:20Z</time></trkpt><trkpt lat="40.08356332921768" lon="18.481181749611213"><ele>11.0</ele><time>2026-04-05T06:08:22Z</time></trkpt><trkpt lat="40.083487950442176" lon="18.48108327371604"><ele>11.0</ele><time>2026-04-05T06:08:24Z</time></trkpt><trkpt lat="40.08335115902106" lon="18.48109063049986"><ele>12.0</ele><time>2026-04-05T06:08:26Z</time></trkpt><trkpt lat="40.08326347099992" lon="18.481125328781054"><ele>13.0</ele><time>2026-04-05T06:08:27Z</time></trkpt><trkpt lat="40.083156579481134" lon="18.481145393811982"><ele>14.000000000000002</ele><time>2026-04-05T06:08:28Z</time></trkpt><trkpt lat="40.083040606597955" lon="18.481124983879628"><ele>15.0</ele><time>2026-04-05T06:08:29Z</time></trkpt><trkpt lat="40.082916952023595" lon="18.481077958944578"><ele>16.0</ele><time>2026-04-05T06:08:30Z</time></trkpt><trkpt lat="40.08280130556185" lon="18.481025985132227"><ele>16.0</ele><time>2026-04-05T06:08:31Z</time></trkpt><trkpt lat="40.08267747179584" lon="18.480966185193246"><ele>16.0</ele><time>2026-04-05T06:08:32Z</time></trkpt><trkpt lat="40.08254471028769" lon="18.48089757935893"><ele>16.0</ele><time>2026-04-05T06:08:33Z</time></trkpt><trkpt lat="40.0824072581564" lon="18.480832051620943"><ele>16.0</ele><time>2026-04-05T06:08:34Z</time></trkpt><trkpt lat="40.08226964795255" lon="18.4807653805626"><ele>16.75</ele><time>2026-04-05T06:08:35Z</time></trkpt><trkpt lat="40.08214078207899" lon="18.480704318972712"><ele>17.5</ele><time>2026-04-05T06:08:36Z</time></trkpt><trkpt lat="40.08202213962183" lon="18.480647802621405"><ele>18.25</ele><time>2026-04-05T06:08:37Z</time></trkpt><trkpt lat="40.08191936152905" lon="18.480593961458"><ele>19.0</ele><time>2026-04-05T06:08:38Z</time></trkpt><trkpt lat="40.081838617322255" lon="18.480546889748435"><ele>19.0</ele><time>2026-04-05T06:08:39Z</time></trkpt><trkpt lat="40.08177572497492" lon="18.480513880533383"><ele>19.0</ele><time>2026-04-05T06:08:40Z</time></trkpt><trkpt lat="40.08166879973098" lon="18.480544273474646"><ele>19.0</ele><time>2026-04-05T06:08:42Z</time></trkpt><trkpt lat="40.081626209701376" lon="18.480607530862205"><ele>19.0</ele><time>2026-04-05T06:08:43Z</time></trkpt><trkpt lat="40.081609976053734" lon="18.480701617375576"><ele>19.0</ele><time>2026-04-05T06:08:44Z</time></trkpt><trkpt lat="40.081607594827105" lon="18.48081988635121"><ele>19.0</ele><time>2026-04-05T06:08:45Z</time></trkpt><trkpt lat="40.081618181234006" lon="18.48095658150087"><ele>19.0</ele><time>2026-04-05T06:08:46Z</time></trkpt><trkpt lat="40.08162451988737" lon="18.481089729795208"><ele>19.0</ele><time>2026-04-05T06:08:47Z</time></trkpt><trkpt lat="40.08161571509874" lon="18.481218476729758"><ele>19.0</ele><time>2026-04-05T06:08:48Z</time></trkpt><trkpt lat="40.08157910567634" lon="18.481344081493717"><ele>19.0</ele><time>2026-04-05T06:08:49Z</time></trkpt><trkpt lat="40.08150693088094" lon="18.481461271949108"><ele>19.0</ele><time>2026-04-05T06:08:50Z</time></trkpt><trkpt lat="40.08140091989801" lon="18.481583075584293"><ele>18.75</ele><time>2026-04-05T06:08:51Z</time></trkpt><trkpt lat="40.08128620521554" lon="18.481708875923545"><ele>18.5</ele><time>2026-04-05T06:08:52Z</time></trkpt><trkpt lat="40.08118673847557" lon="18.481823095001992"><ele>18.25</ele><time>2026-04-05T06:08:53Z</time></trkpt><trkpt lat="40.081094477812776" lon="18.48193274591756"><ele>18.0</ele><time>2026-04-05T06:08:54Z</time></trkpt><trkpt lat="40.081021193338046" lon="18.482061519462626"><ele>16.25</ele><time>2026-04-05T06:08:55Z</time></trkpt><trkpt lat="40.080968929126946" lon="18.482227473535737"><ele>14.5</ele><time>2026-04-05T06:08:56.001Z</time></trkpt><trkpt lat="40.08093263111249" lon="18.482407732272144"><ele>12.75</ele><time>2026-04-05T06:08:57.001Z</time></trkpt><trkpt lat="40.08090451031307" lon="18.48258377912025"><ele>11.0</ele><time>2026-04-05T06:08:58.001Z</time></trkpt><trkpt lat="40.08088108243784" lon="18.482741948122953"><ele>11.0</ele><time>2026-04-05T06:08:59.001Z</time></trkpt><trkpt lat="40.08085854108195" lon="18.482892249188172"><ele>11.0</ele><time>2026-04-05T06:09:00.001Z</time></trkpt><trkpt lat="40.08082139000701" lon="18.483018768612475"><ele>11.0</ele><time>2026-04-05T06:09:01.001Z</time></trkpt><trkpt lat="40.08077022555319" lon="18.48311935494613"><ele>11.0</ele><time>2026-04-05T06:09:02.001Z</time></trkpt><trkpt lat="40.080696151073916" lon="18.483197037633317"><ele>11.0</ele><time>2026-04-05T06:09:03.001Z</time></trkpt><trkpt lat="40.080604114628706" lon="18.483243224949987"><ele>10.8</ele><time>2026-04-05T06:09:04.001Z</time></trkpt><trkpt lat="40.08050039100423" lon="18.483242519040974"><ele>10.600000000000001</ele><time>2026-04-05T06:09:05.001Z</time></trkpt><trkpt lat="40.08039648696139" lon="18.483234408951034"><ele>10.4</ele><time>2026-04-05T06:09:06.001Z</time></trkpt><trkpt lat="40.08030842049774" lon="18.483246888954838"><ele>10.2</ele><time>2026-04-05T06:09:07.001Z</time></trkpt><trkpt lat="40.08022349734659" lon="18.48322901731288"><ele>10.0</ele><time>2026-04-05T06:09:08.001Z</time></trkpt><trkpt lat="40.08012529271077" lon="18.48322937669631"><ele>10.0</ele><time>2026-04-05T06:09:10.001Z</time></trkpt><trkpt lat="40.08008659054298" lon="18.48311467383652"><ele>10.0</ele><time>2026-04-05T06:09:13.001Z</time></trkpt><trkpt lat="40.08016022333717" lon="18.4829443955696"><ele>10.0</ele><time>2026-04-05T06:09:15.001Z</time></trkpt><trkpt lat="40.08018406528581" lon="18.482856510341467"><ele>10.0</ele><time>2026-04-05T06:09:16.001Z</time></trkpt><trkpt lat="40.08020206030567" lon="18.48275542984363"><ele>10.0</ele><time>2026-04-05T06:09:17.001Z</time></trkpt><trkpt lat="40.0802202031474" lon="18.48264005231622"><ele>10.75</ele><time>2026-04-05T06:09:19.001Z</time></trkpt><trkpt lat="40.08021692848881" lon="18.482525392970345"><ele>11.5</ele><time>2026-04-05T06:09:21.001Z</time></trkpt><trkpt lat="40.080066781436905" lon="18.482495086220162"><ele>12.25</ele><time>2026-04-05T06:09:22.001Z</time></trkpt><trkpt lat="40.07994918118848" lon="18.48244947306309"><ele>13.0</ele><time>2026-04-05T06:09:23.001Z</time></trkpt><trkpt lat="40.07983625310387" lon="18.482397448931952"><ele>13.0</ele><time>2026-04-05T06:09:24.001Z</time></trkpt><trkpt lat="40.07972827455589" lon="18.482339094831485"><ele>13.0</ele><time>2026-04-05T06:09:25.001Z</time></trkpt><trkpt lat="40.07963575568928" lon="18.482276400703917"><ele>13.0</ele><time>2026-04-05T06:09:26.001Z</time></trkpt><trkpt lat="40.079556033905874" lon="18.482213112222638"><ele>13.0</ele><time>2026-04-05T06:09:27.001Z</time></trkpt><trkpt lat="40.079489223738314" lon="18.482159885678282"><ele>13.0</ele><time>2026-04-05T06:09:28.001Z</time></trkpt><trkpt lat="40.07939338858819" lon="18.48209584565873"><ele>13.0</ele><time>2026-04-05T06:09:30.001Z</time></trkpt><trkpt lat="40.079329191355434" lon="18.48208835621565"><ele>13.0</ele><time>2026-04-05T06:09:32.001Z</time></trkpt><trkpt lat="40.07924151265656" lon="18.482131434779234"><ele>13.0</ele><time>2026-04-05T06:09:34.001Z</time></trkpt><trkpt lat="40.079232098025024" lon="18.48234704248233"><ele>13.0</ele><time>2026-04-05T06:09:35.001Z</time></trkpt><trkpt lat="40.07918920201761" lon="18.482449092534672"><ele>13.0</ele><time>2026-04-05T06:09:36.001Z</time></trkpt><trkpt lat="40.079167097257944" lon="18.482532764572632"><ele>13.0</ele><time>2026-04-05T06:09:37.001Z</time></trkpt><trkpt lat="40.07913225908821" lon="18.48261884881797"><ele>13.0</ele><time>2026-04-05T06:09:39Z</time></trkpt><trkpt lat="40.0790801329311" lon="18.48268248531958"><ele>13.0</ele><time>2026-04-05T06:09:43Z</time></trkpt><trkpt lat="40.07896035301447" lon="18.482578364758204"><ele>13.0</ele><time>2026-04-05T06:09:45Z</time></trkpt><trkpt lat="40.078862267614454" lon="18.48254725304128"><ele>13.0</ele><time>2026-04-05T06:09:46Z</time></trkpt><trkpt lat="40.07878300001741" lon="18.482488898054868"><ele>13.2</ele><time>2026-04-05T06:09:47Z</time></trkpt><trkpt lat="40.07869933046956" lon="18.482433744443362"><ele>13.4</ele><time>2026-04-05T06:09:48Z</time></trkpt><trkpt lat="40.078610864608834" lon="18.482379581890207"><ele>13.599999999999998</ele><time>2026-04-05T06:09:49Z</time></trkpt><trkpt lat="40.078521393700804" lon="18.48232389255172"><ele>13.799999999999999</ele><time>2026-04-05T06:09:50Z</time></trkpt><trkpt lat="40.078454276297265" lon="18.482274222140912"><ele>14.0</ele><time>2026-04-05T06:09:51Z</time></trkpt><trkpt lat="40.078370616204495" lon="18.482212428012613"><ele>14.399999999999999</ele><time>2026-04-05T06:09:53Z</time></trkpt><trkpt lat="40.078267159953306" lon="18.48213316919478"><ele>14.799999999999999</ele><time>2026-04-05T06:09:55Z</time></trkpt><trkpt lat="40.07818594518987" lon="18.482089287866025"><ele>15.200000000000001</ele><time>2026-04-05T06:09:56Z</time></trkpt><trkpt lat="40.07809465065397" lon="18.482057320494903"><ele>15.600000000000001</ele><time>2026-04-05T06:09:57Z</time></trkpt><trkpt lat="40.07800405717125" lon="18.482000939401633"><ele>16.0</ele><time>2026-04-05T06:09:58Z</time></trkpt><trkpt lat="40.07793118029408" lon="18.481934555265898"><ele>16.0</ele><time>2026-04-05T06:09:59Z</time></trkpt><trkpt lat="40.077872351214324" lon="18.481898446789824"><ele>16.0</ele><time>2026-04-05T06:10:00Z</time></trkpt><trkpt lat="40.077806826887915" lon="18.4818437424577"><ele>16.0</ele><time>2026-04-05T06:10:02Z</time></trkpt><trkpt lat="40.07773588922363" lon="18.48176131998863"><ele>16.0</ele><time>2026-04-05T06:10:04Z</time></trkpt><trkpt lat="40.07762251808468" lon="18.481767560607004"><ele>16.0</ele><time>2026-04-05T06:10:05Z</time></trkpt><trkpt lat="40.07752447322978" lon="18.481715224805264"><ele>16.75</ele><time>2026-04-05T06:10:06Z</time></trkpt><trkpt lat="40.07741857973266" lon="18.481627909686065"><ele>17.5</ele><time>2026-04-05T06:10:07Z</time></trkpt><trkpt lat="40.077292669854025" lon="18.48157656232201"><ele>18.25</ele><time>2026-04-05T06:10:08Z</time></trkpt><trkpt lat="40.077175646292154" lon="18.481532144178658"><ele>19.0</ele><time>2026-04-05T06:10:09Z</time></trkpt><trkpt lat="40.07704983159329" lon="18.481516853928426"><ele>19.0</ele><time>2026-04-05T06:10:10Z</time></trkpt><trkpt lat="40.07692388390279" lon="18.481541271295075"><ele>19.0</ele><time>2026-04-05T06:10:11Z</time></trkpt><trkpt lat="40.07679055572358" lon="18.48160424700956"><ele>19.0</ele><time>2026-04-05T06:10:12Z</time></trkpt><trkpt lat="40.07667204639976" lon="18.481704284329876"><ele>19.0</ele><time>2026-04-05T06:10:13Z</time></trkpt><trkpt lat="40.076555570751616" lon="18.48183442710492"><ele>19.5</ele><time>2026-04-05T06:10:14Z</time></trkpt><trkpt lat="40.07644870150333" lon="18.481984041431065"><ele>20.0</ele><time>2026-04-05T06:10:15Z</time></trkpt><trkpt lat="40.07634504430261" lon="18.482114661598583"><ele>20.5</ele><time>2026-04-05T06:10:16Z</time></trkpt><trkpt lat="40.076250437107426" lon="18.482201466699955"><ele>21.0</ele><time>2026-04-05T06:10:17Z</time></trkpt><trkpt lat="40.076157222723246" lon="18.482253323281817"><ele>19.6</ele><time>2026-04-05T06:10:18Z</time></trkpt><trkpt lat="40.07605177124395" lon="18.482266880823133"><ele>18.200000000000003</ele><time>2026-04-05T06:10:19Z</time></trkpt><trkpt lat="40.075965923990786" lon="18.482258021461362"><ele>16.799999999999997</ele><time>2026-04-05T06:10:20Z</time></trkpt><trkpt lat="40.07587315416879" lon="18.48222890471205"><ele>15.399999999999999</ele><time>2026-04-05T06:10:21Z</time></trkpt><trkpt lat="40.07577087349343" lon="18.482173438693007"><ele>14.0</ele><time>2026-04-05T06:10:22Z</time></trkpt><trkpt lat="40.07565627756977" lon="18.482100978558616"><ele>16.333333333333336</ele><time>2026-04-05T06:10:23Z</time></trkpt><trkpt lat="40.07553261016371" lon="18.48201147622144"><ele>18.666666666666668</ele><time>2026-04-05T06:10:24Z</time></trkpt><trkpt lat="40.075396889060876" lon="18.481914721226076"><ele>21.0</ele><time>2026-04-05T06:10:25Z</time></trkpt><trkpt lat="40.075248028010556" lon="18.481811685056407"><ele>21.0</ele><time>2026-04-05T06:10:26Z</time></trkpt><trkpt lat="40.07511358749053" lon="18.481703932451854"><ele>21.0</ele><time>2026-04-05T06:10:27Z</time></trkpt><trkpt lat="40.07496383016051" lon="18.481613918944866"><ele>21.0</ele><time>2026-04-05T06:10:28Z</time></trkpt><trkpt lat="40.074816950998034" lon="18.481519002326316"><ele>20.333333333333332</ele><time>2026-04-05T06:10:29Z</time></trkpt><trkpt lat="40.074666853862176" lon="18.4814158066601"><ele>19.666666666666664</ele><time>2026-04-05T06:10:30Z</time></trkpt><trkpt lat="40.07451660182814" lon="18.481309848116474"><ele>19.0</ele><time>2026-04-05T06:10:31Z</time></trkpt><trkpt lat="40.074366615470254" lon="18.481204294967004"><ele>21.333333333333332</ele><time>2026-04-05T06:10:32Z</time></trkpt><trkpt lat="40.07421499684465" lon="18.481098029790274"><ele>23.666666666666664</ele><time>2026-04-05T06:10:33Z</time></trkpt><trkpt lat="40.07407348746897" lon="18.481000116561148"><ele>26.0</ele><time>2026-04-05T06:10:34Z</time></trkpt><trkpt lat="40.0739479751919" lon="18.480908377359242"><ele>26.0</ele><time>2026-04-05T06:10:35Z</time></trkpt><trkpt lat="40.07383463740147" lon="18.480827019016857"><ele>26.0</ele><time>2026-04-05T06:10:36Z</time></trkpt><trkpt lat="40.07372734982105" lon="18.480766072145286"><ele>26.0</ele><time>2026-04-05T06:10:37Z</time></trkpt><trkpt lat="40.07362757401422" lon="18.480736707921217"><ele>26.0</ele><time>2026-04-05T06:10:38Z</time></trkpt><trkpt lat="40.073524789444264" lon="18.48074449711357"><ele>26.0</ele><time>2026-04-05T06:10:39Z</time></trkpt><trkpt lat="40.07342470774652" lon="18.480795717426446"><ele>26.0</ele><time>2026-04-05T06:10:40Z</time></trkpt><trkpt lat="40.07332218471726" lon="18.48086210240757"><ele>26.0</ele><time>2026-04-05T06:10:41Z</time></trkpt><trkpt lat="40.07322365675966" lon="18.48089741016075"><ele>26.0</ele><time>2026-04-05T06:10:42Z</time></trkpt><trkpt lat="40.073126370756064" lon="18.48088437418154"><ele>26.0</ele><time>2026-04-05T06:10:43Z</time></trkpt><trkpt lat="40.07302099239114" lon="18.480827931752838"><ele>27.25</ele><time>2026-04-05T06:10:44Z</time></trkpt><trkpt lat="40.07292460342751" lon="18.480737334595148"><ele>28.5</ele><time>2026-04-05T06:10:45Z</time></trkpt><trkpt lat="40.072826315077435" lon="18.480630061889098"><ele>29.75</ele><time>2026-04-05T06:10:46Z</time></trkpt><trkpt lat="40.07272821590877" lon="18.480532846417393"><ele>31.0</ele><time>2026-04-05T06:10:47Z</time></trkpt><trkpt lat="40.072621804048694" lon="18.480473296084167"><ele>31.0</ele><time>2026-04-05T06:10:48Z</time></trkpt><trkpt lat="40.07249732214846" lon="18.48045968519872"><ele>31.0</ele><time>2026-04-05T06:10:49Z</time></trkpt><trkpt lat="40.072357532634506" lon="18.480484230661368"><ele>31.0</ele><time>2026-04-05T06:10:50Z</time></trkpt><trkpt lat="40.072240915320656" lon="18.48057093132553"><ele>31.0</ele><time>2026-04-05T06:10:51Z</time></trkpt><trkpt lat="40.0721221140884" lon="18.480712036468713"><ele>32.75</ele><time>2026-04-05T06:10:52Z</time></trkpt><trkpt lat="40.07200484557012" lon="18.48082512915691"><ele>34.5</ele><time>2026-04-05T06:10:53Z</time></trkpt><trkpt lat="40.07188511413964" lon="18.480898564523702"><ele>36.25</ele><time>2026-04-05T06:10:54Z</time></trkpt><trkpt lat="40.0717678955262" lon="18.480921645882734"><ele>38.0</ele><time>2026-04-05T06:10:55Z</time></trkpt><trkpt lat="40.07164292967223" lon="18.480903732154495"><ele>38.25</ele><time>2026-04-05T06:10:56Z</time></trkpt><trkpt lat="40.071543985514694" lon="18.480851468167018"><ele>38.5</ele><time>2026-04-05T06:10:57Z</time></trkpt><trkpt lat="40.07145588136374" lon="18.48074145750998"><ele>38.75</ele><time>2026-04-05T06:10:58Z</time></trkpt><trkpt lat="40.07134299464768" lon="18.48063032681956"><ele>39.0</ele><time>2026-04-05T06:10:59Z</time></trkpt><trkpt lat="40.07122263577584" lon="18.480525398417836"><ele>41.25</ele><time>2026-04-05T06:11:00Z</time></trkpt><trkpt lat="40.071089629426865" lon="18.48042653626768"><ele>43.5</ele><time>2026-04-05T06:11:01.001Z</time></trkpt><trkpt lat="40.070957783940756" lon="18.480337525257397"><ele>45.75</ele><time>2026-04-05T06:11:02.001Z</time></trkpt><trkpt lat="40.07083977510888" lon="18.4802572168352"><ele>48.0</ele><time>2026-04-05T06:11:03.001Z</time></trkpt><trkpt lat="40.07072448044899" lon="18.480204377935696"><ele>50.0</ele><time>2026-04-05T06:11:04.001Z</time></trkpt><trkpt lat="40.07060533810949" lon="18.480187980956224"><ele>52.0</ele><time>2026-04-05T06:11:05.001Z</time></trkpt><trkpt lat="40.07048647016622" lon="18.480220620112735"><ele>54.0</ele><time>2026-04-05T06:11:06.001Z</time></trkpt><trkpt lat="40.070364614675555" lon="18.48030693644271"><ele>56.0</ele><time>2026-04-05T06:11:07.001Z</time></trkpt><trkpt lat="40.07025225536155" lon="18.48043317399317"><ele>52.4</ele><time>2026-04-05T06:11:08.001Z</time></trkpt><trkpt lat="40.07015485395113" lon="18.48055067137763"><ele>48.8</ele><time>2026-04-05T06:11:09.001Z</time></trkpt><trkpt lat="40.07007100750125" lon="18.480603818690877"><ele>45.199999999999996</ele><time>2026-04-05T06:11:10.001Z</time></trkpt><trkpt lat="40.06998150330125" lon="18.48060836525205"><ele>41.599999999999994</ele><time>2026-04-05T06:11:11.001Z</time></trkpt><trkpt lat="40.0698925856227" lon="18.4805728001623"><ele>38.0</ele><time>2026-04-05T06:11:12.001Z</time></trkpt><trkpt lat="40.06978949066809" lon="18.480515984997204"><ele>37.199999999999996</ele><time>2026-04-05T06:11:13.001Z</time></trkpt><trkpt lat="40.06969557660237" lon="18.480444728801654"><ele>36.4</ele><time>2026-04-05T06:11:14.001Z</time></trkpt><trkpt lat="40.069636019265" lon="18.480366004591414"><ele>35.599999999999994</ele><time>2026-04-05T06:11:15.001Z</time></trkpt><trkpt lat="40.06959669347462" lon="18.480257934927142"><ele>34.8</ele><time>2026-04-05T06:11:16.001Z</time></trkpt><trkpt lat="40.069611315596276" lon="18.48012148895494"><ele>34.0</ele><time>2026-04-05T06:11:17.001Z</time></trkpt><trkpt lat="40.069607158539135" lon="18.479950951815304"><ele>40.66666666666667</ele><time>2026-04-05T06:11:18.001Z</time></trkpt><trkpt lat="40.06959878413342" lon="18.479747233980216"><ele>47.333333333333336</ele><time>2026-04-05T06:11:19.001Z</time></trkpt><trkpt lat="40.069557826901594" lon="18.47952609825369"><ele>54.0</ele><time>2026-04-05T06:11:20.001Z</time></trkpt><trkpt lat="40.06954804637123" lon="18.479341980137363"><ele>56.5</ele><time>2026-04-05T06:11:21.001Z</time></trkpt><trkpt lat="40.06952160843502" lon="18.47918131611876"><ele>59.0</ele><time>2026-04-05T06:11:22.001Z</time></trkpt><trkpt lat="40.06949253343212" lon="18.479030673320487"><ele>61.5</ele><time>2026-04-05T06:11:23.001Z</time></trkpt><trkpt lat="40.06944842235782" lon="18.47890322879022"><ele>64.0</ele><time>2026-04-05T06:11:24.001Z</time></trkpt><trkpt lat="40.06938009522689" lon="18.478797503918585"><ele>64.5</ele><time>2026-04-05T06:11:25.001Z</time></trkpt><trkpt lat="40.06928119960979" lon="18.478719365591765"><ele>65.0</ele><time>2026-04-05T06:11:26.001Z</time></trkpt><trkpt lat="40.06917477805038" lon="18.478687702492586"><ele>65.5</ele><time>2026-04-05T06:11:27.001Z</time></trkpt><trkpt lat="40.06905812898138" lon="18.478694460300126"><ele>66.0</ele><time>2026-04-05T06:11:28.001Z</time></trkpt><trkpt lat="40.0689435331223" lon="18.47875704059564"><ele>66.33333333333333</ele><time>2026-04-05T06:11:29.001Z</time></trkpt><trkpt lat="40.068827743384375" lon="18.478853307608926"><ele>66.66666666666666</ele><time>2026-04-05T06:11:30.001Z</time></trkpt><trkpt lat="40.06869490060818" lon="18.47896741574557"><ele>67.0</ele><time>2026-04-05T06:11:31.001Z</time></trkpt><trkpt lat="40.06854992239747" lon="18.47907601202703"><ele>67.0</ele><time>2026-04-05T06:11:32.001Z</time></trkpt><trkpt lat="40.068408355619596" lon="18.47918523237822"><ele>67.0</ele><time>2026-04-05T06:11:33.001Z</time></trkpt><trkpt lat="40.06826072121935" lon="18.479288697281408"><ele>67.0</ele><time>2026-04-05T06:11:34.001Z</time></trkpt><trkpt lat="40.068116828609654" lon="18.47939161010919"><ele>66.33333333333333</ele><time>2026-04-05T06:11:35.001Z</time></trkpt><trkpt lat="40.067981972806514" lon="18.479498520511683"><ele>65.66666666666667</ele><time>2026-04-05T06:11:36.001Z</time></trkpt><trkpt lat="40.067842872606974" lon="18.47960141949726"><ele>65.0</ele><time>2026-04-05T06:11:37.001Z</time></trkpt><trkpt lat="40.06770762573774" lon="18.479702626531527"><ele>62.75</ele><time>2026-04-05T06:11:38.001Z</time></trkpt><trkpt lat="40.06757004207781" lon="18.47979817125865"><ele>60.5</ele><time>2026-04-05T06:11:39.001Z</time></trkpt><trkpt lat="40.06742949469866" lon="18.479856348791934"><ele>58.25</ele><time>2026-04-05T06:11:40.001Z</time></trkpt><trkpt lat="40.06729566029406" lon="18.479901302862853"><ele>56.0</ele><time>2026-04-05T06:11:41.001Z</time></trkpt><trkpt lat="40.067162364839284" lon="18.479923550703976"><ele>55.25</ele><time>2026-04-05T06:11:42.001Z</time></trkpt><trkpt lat="40.067030348206984" lon="18.479921580552126"><ele>54.5</ele><time>2026-04-05T06:11:43.001Z</time></trkpt><trkpt lat="40.06689974365017" lon="18.479903019820746"><ele>53.75</ele><time>2026-04-05T06:11:44Z</time></trkpt><trkpt lat="40.06676397137132" lon="18.47987841521487"><ele>53.0</ele><time>2026-04-05T06:11:45Z</time></trkpt><trkpt lat="40.06663947421151" lon="18.479819740787306"><ele>55.0</ele><time>2026-04-05T06:11:46Z</time></trkpt><trkpt lat="40.066521542641325" lon="18.479721404300864"><ele>57.0</ele><time>2026-04-05T06:11:47Z</time></trkpt><trkpt lat="40.066399109728984" lon="18.479597344698124"><ele>59.0</ele><time>2026-04-05T06:11:48Z</time></trkpt><trkpt lat="40.06625708610794" lon="18.47944227156679"><ele>59.0</ele><time>2026-04-05T06:11:49Z</time></trkpt><trkpt lat="40.06614222127636" lon="18.47927203206606"><ele>59.0</ele><time>2026-04-05T06:11:50Z</time></trkpt><trkpt lat="40.066054244304944" lon="18.479076255774473"><ele>59.0</ele><time>2026-04-05T06:11:51Z</time></trkpt><trkpt lat="40.06593744673719" lon="18.47889530446784"><ele>62.66666666666667</ele><time>2026-04-05T06:11:52Z</time></trkpt><trkpt lat="40.06583506340018" lon="18.478685931490414"><ele>66.33333333333333</ele><time>2026-04-05T06:11:53Z</time></trkpt><trkpt lat="40.06572415459203" lon="18.478474818051364"><ele>70.0</ele><time>2026-04-05T06:11:54Z</time></trkpt><trkpt lat="40.06560698251338" lon="18.47826052802511"><ele>70.0</ele><time>2026-04-05T06:11:55Z</time></trkpt><trkpt lat="40.06549509604417" lon="18.478041378770243"><ele>70.0</ele><time>2026-04-05T06:11:56Z</time></trkpt><trkpt lat="40.06538757306564" lon="18.477826932873654"><ele>70.0</ele><time>2026-04-05T06:11:57Z</time></trkpt><trkpt lat="40.06527647271317" lon="18.477617041213954"><ele>71.0</ele><time>2026-04-05T06:11:58Z</time></trkpt><trkpt lat="40.06516169217392" lon="18.4774043655906"><ele>72.0</ele><time>2026-04-05T06:11:59Z</time></trkpt><trkpt lat="40.06505144157865" lon="18.47718619266714"><ele>73.0</ele><time>2026-04-05T06:12:00Z</time></trkpt><trkpt lat="40.06493714761931" lon="18.47697738018926"><ele>73.0</ele><time>2026-04-05T06:12:01Z</time></trkpt><trkpt lat="40.064822143489216" lon="18.476772940221664"><ele>73.0</ele><time>2026-04-05T06:12:02Z</time></trkpt><trkpt lat="40.06470957861128" lon="18.476572233965243"><ele>73.0</ele><time>2026-04-05T06:12:03Z</time></trkpt><trkpt lat="40.064613379962616" lon="18.47637932097255"><ele>74.33333333333333</ele><time>2026-04-05T06:12:04Z</time></trkpt><trkpt lat="40.06451314933525" lon="18.47618972607577"><ele>75.66666666666667</ele><time>2026-04-05T06:12:05Z</time></trkpt><trkpt lat="40.064412030478074" lon="18.475993685619986"><ele>77.0</ele><time>2026-04-05T06:12:06Z</time></trkpt><trkpt lat="40.06431084657364" lon="18.475799763699786"><ele>77.0</ele><time>2026-04-05T06:12:07Z</time></trkpt><trkpt lat="40.06421045485735" lon="18.475610359010073"><ele>77.0</ele><time>2026-04-05T06:12:08Z</time></trkpt><trkpt lat="40.06411624904217" lon="18.475443374550043"><ele>77.0</ele><time>2026-04-05T06:12:09Z</time></trkpt><trkpt lat="40.064025682878054" lon="18.4752875336493"><ele>78.5</ele><time>2026-04-05T06:12:10Z</time></trkpt><trkpt lat="40.06394722345092" lon="18.47514731194693"><ele>80.0</ele><time>2026-04-05T06:12:11Z</time></trkpt><trkpt lat="40.063860683836076" lon="18.475031763773437"><ele>81.5</ele><time>2026-04-05T06:12:12Z</time></trkpt><trkpt lat="40.06375648460754" lon="18.47492999105421"><ele>83.0</ele><time>2026-04-05T06:12:13Z</time></trkpt><trkpt lat="40.06364237243038" lon="18.47483287135344"><ele>83.0</ele><time>2026-04-05T06:12:14Z</time></trkpt><trkpt lat="40.06350610111151" lon="18.47475855896345"><ele>83.0</ele><time>2026-04-05T06:12:15Z</time></trkpt><trkpt lat="40.063357584085146" lon="18.474700185291162"><ele>83.0</ele><time>2026-04-05T06:12:16Z</time></trkpt><trkpt lat="40.06318522006145" lon="18.474649327466313"><ele>86.33333333333334</ele><time>2026-04-05T06:12:17Z</time></trkpt><trkpt lat="40.063005288139586" lon="18.47459405400192"><ele>89.66666666666667</ele><time>2026-04-05T06:12:18Z</time></trkpt><trkpt lat="40.06280910919105" lon="18.474535168937276"><ele>93.0</ele><time>2026-04-05T06:12:19Z</time></trkpt><trkpt lat="40.06262089064393" lon="18.474471333017057"><ele>92.66666666666667</ele><time>2026-04-05T06:12:20Z</time></trkpt><trkpt lat="40.06243415663053" lon="18.474404944151072"><ele>92.33333333333334</ele><time>2026-04-05T06:12:21Z</time></trkpt><trkpt lat="40.062261066705744" lon="18.474347325678"><ele>92.0</ele><time>2026-04-05T06:12:22Z</time></trkpt><trkpt lat="40.06208207705897" lon="18.474288597363827"><ele>92.0</ele><time>2026-04-05T06:12:23Z</time></trkpt><trkpt lat="40.061904482815244" lon="18.474234490222603"><ele>92.0</ele><time>2026-04-05T06:12:24Z</time></trkpt><trkpt lat="40.06173311275904" lon="18.474180293050416"><ele>92.0</ele><time>2026-04-05T06:12:25Z</time></trkpt><trkpt lat="40.0615570749259" lon="18.47413675932702"><ele>92.33333333333334</ele><time>2026-04-05T06:12:26Z</time></trkpt><trkpt lat="40.061372569885435" lon="18.474123681120055"><ele>92.66666666666667</ele><time>2026-04-05T06:12:27Z</time></trkpt><trkpt lat="40.06118684985286" lon="18.47413270053546"><ele>93.0</ele><time>2026-04-05T06:12:28Z</time></trkpt><trkpt lat="40.06100093222971" lon="18.474164856252806"><ele>93.0</ele><time>2026-04-05T06:12:29Z</time></trkpt><trkpt lat="40.06081379211992" lon="18.47419629061705"><ele>93.0</ele><time>2026-04-05T06:12:30Z</time></trkpt><trkpt lat="40.060638759336825" lon="18.474221919775047"><ele>93.0</ele><time>2026-04-05T06:12:31Z</time></trkpt><trkpt lat="40.06048005782599" lon="18.47425774281776"><ele>95.33333333333334</ele><time>2026-04-05T06:12:32Z</time></trkpt><trkpt lat="40.06032483798957" lon="18.47432253598993"><ele>97.66666666666667</ele><time>2026-04-05T06:12:33Z</time></trkpt><trkpt lat="40.06017503876982" lon="18.474406895329277"><ele>100.0</ele><time>2026-04-05T06:12:34Z</time></trkpt><trkpt lat="40.0600243566299" lon="18.47453251381529"><ele>98.0</ele><time>2026-04-05T06:12:35Z</time></trkpt><trkpt lat="40.05986591780252" lon="18.474668289201237"><ele>96.0</ele><time>2026-04-05T06:12:36Z</time></trkpt><trkpt lat="40.059706590715415" lon="18.474809930372693"><ele>94.0</ele><time>2026-04-05T06:12:37Z</time></trkpt><trkpt lat="40.05957100360131" lon="18.474922544993778"><ele>94.0</ele><time>2026-04-05T06:12:38Z</time></trkpt><trkpt lat="40.05945727070647" lon="18.47501158900332"><ele>94.0</ele><time>2026-04-05T06:12:39Z</time></trkpt><trkpt lat="40.05933929700114" lon="18.475039980693865"><ele>94.0</ele><time>2026-04-05T06:12:40Z</time></trkpt><trkpt lat="40.05921745926783" lon="18.47503975266253"><ele>94.0</ele><time>2026-04-05T06:12:41Z</time></trkpt><trkpt lat="40.05909311955109" lon="18.47501075283378"><ele>96.25</ele><time>2026-04-05T06:12:42Z</time></trkpt><trkpt lat="40.058952070409816" lon="18.47501271710254"><ele>98.5</ele><time>2026-04-05T06:12:43Z</time></trkpt><trkpt lat="40.05881393056501" lon="18.475040271405508"><ele>100.75</ele><time>2026-04-05T06:12:44Z</time></trkpt><trkpt lat="40.05867914062744" lon="18.475106594662183"><ele>103.0</ele><time>2026-04-05T06:12:45Z</time></trkpt><trkpt lat="40.058550572404364" lon="18.475199233926244"><ele>103.0</ele><time>2026-04-05T06:12:46Z</time></trkpt><trkpt lat="40.05843445768949" lon="18.475289445179374"><ele>103.0</ele><time>2026-04-05T06:12:47Z</time></trkpt><trkpt lat="40.0583163436588" lon="18.475358188631088"><ele>103.0</ele><time>2026-04-05T06:12:48Z</time></trkpt><trkpt lat="40.05819627116503" lon="18.475383413582584"><ele>103.0</ele><time>2026-04-05T06:12:49Z</time></trkpt><trkpt lat="40.058085194361176" lon="18.475341573963544"><ele>103.25</ele><time>2026-04-05T06:12:50Z</time></trkpt><trkpt lat="40.05798618866817" lon="18.475271107365334"><ele>103.5</ele><time>2026-04-05T06:12:51Z</time></trkpt><trkpt lat="40.05788958814986" lon="18.475171270471606"><ele>103.75</ele><time>2026-04-05T06:12:52Z</time></trkpt><trkpt lat="40.057777746511455" lon="18.47510328292342"><ele>104.0</ele><time>2026-04-05T06:12:53Z</time></trkpt><trkpt lat="40.05765972382263" lon="18.475056448787658"><ele>104.0</ele><time>2026-04-05T06:12:54Z</time></trkpt><trkpt lat="40.05752460406718" lon="18.475037036234816"><ele>104.0</ele><time>2026-04-05T06:12:55Z</time></trkpt><trkpt lat="40.0573784914113" lon="18.47504109918672"><ele>104.0</ele><time>2026-04-05T06:12:56Z</time></trkpt><trkpt lat="40.05722885278378" lon="18.475073607245992"><ele>104.0</ele><time>2026-04-05T06:12:57Z</time></trkpt><trkpt lat="40.05706641125688" lon="18.47514499497541"><ele>104.33333333333333</ele><time>2026-04-05T06:12:58Z</time></trkpt><trkpt lat="40.05689547933864" lon="18.47525854381126"><ele>104.66666666666666</ele><time>2026-04-05T06:12:59Z</time></trkpt><trkpt lat="40.056748291305276" lon="18.475373472579648"><ele>105.0</ele><time>2026-04-05T06:13:00Z</time></trkpt><trkpt lat="40.056608627279104" lon="18.475457373317393"><ele>100.5</ele><time>2026-04-05T06:13:01Z</time></trkpt><trkpt lat="40.0564782580675" lon="18.475525124659885"><ele>96.0</ele><time>2026-04-05T06:13:02Z</time></trkpt><trkpt lat="40.056362434847294" lon="18.47553222676233"><ele>91.5</ele><time>2026-04-05T06:13:03Z</time></trkpt><trkpt lat="40.056242020488526" lon="18.47552128180845"><ele>87.0</ele><time>2026-04-05T06:13:04Z</time></trkpt><trkpt lat="40.0561125335947" lon="18.475471947298637"><ele>92.66666666666666</ele><time>2026-04-05T06:13:05Z</time></trkpt><trkpt lat="40.05595899091545" lon="18.475413959283795"><ele>98.33333333333333</ele><time>2026-04-05T06:13:06Z</time></trkpt><trkpt lat="40.05578815210446" lon="18.47536793746098"><ele>104.0</ele><time>2026-04-05T06:13:07Z</time></trkpt><trkpt lat="40.05561765087451" lon="18.475284037517014"><ele>104.0</ele><time>2026-04-05T06:13:08Z</time></trkpt><trkpt lat="40.05544864402626" lon="18.475216674763377"><ele>104.0</ele><time>2026-04-05T06:13:09Z</time></trkpt><trkpt lat="40.05527603390675" lon="18.47513223529054"><ele>104.0</ele><time>2026-04-05T06:13:10.001Z</time></trkpt><trkpt lat="40.05509783758858" lon="18.47502105328105"><ele>103.0</ele><time>2026-04-05T06:13:11.001Z</time></trkpt><trkpt lat="40.05491273069615" lon="18.474905610221565"><ele>102.0</ele><time>2026-04-05T06:13:12.001Z</time></trkpt><trkpt lat="40.05472398046699" lon="18.474784403214016"><ele>101.0</ele><time>2026-04-05T06:13:13.001Z</time></trkpt><trkpt lat="40.054536024105474" lon="18.474662990085616"><ele>102.33333333333333</ele><time>2026-04-05T06:13:14.001Z</time></trkpt><trkpt lat="40.054357818740684" lon="18.474549437966107"><ele>103.66666666666666</ele><time>2026-04-05T06:13:15.001Z</time></trkpt><trkpt lat="40.05419314572041" lon="18.474445005935365"><ele>105.0</ele><time>2026-04-05T06:13:16.001Z</time></trkpt><trkpt lat="40.05403014774791" lon="18.474366191798918"><ele>105.66666666666666</ele><time>2026-04-05T06:13:17.001Z</time></trkpt><trkpt lat="40.05390107994177" lon="18.474281734155714"><ele>106.33333333333333</ele><time>2026-04-05T06:13:18.001Z</time></trkpt><trkpt lat="40.05363907805824" lon="18.47420816214408"><ele>107.0</ele><time>2026-04-05T06:13:20.001Z</time></trkpt><trkpt lat="40.05349750773894" lon="18.474225738815854"><ele>107.0</ele><time>2026-04-05T06:13:21.001Z</time></trkpt><trkpt lat="40.053320765422896" lon="18.474268846277855"><ele>107.0</ele><time>2026-04-05T06:13:22.001Z</time></trkpt><trkpt lat="40.05314174919529" lon="18.4743057040837"><ele>107.0</ele><time>2026-04-05T06:13:23.001Z</time></trkpt><trkpt lat="40.052946956775536" lon="18.474340405317918"><ele>107.33333333333333</ele><time>2026-04-05T06:13:24.001Z</time></trkpt><trkpt lat="40.05274423100292" lon="18.474380669435448"><ele>107.66666666666666</ele><time>2026-04-05T06:13:25.001Z</time></trkpt><trkpt lat="40.052541407117246" lon="18.474418869407376"><ele>108.0</ele><time>2026-04-05T06:13:26.001Z</time></trkpt><trkpt lat="40.05233312157145" lon="18.47445533340735"><ele>108.0</ele><time>2026-04-05T06:13:27.001Z</time></trkpt><trkpt lat="40.05211362966041" lon="18.47448621176242"><ele>108.0</ele><time>2026-04-05T06:13:28.001Z</time></trkpt><trkpt lat="40.05190714422326" lon="18.474525579139023"><ele>108.0</ele><time>2026-04-05T06:13:29.001Z</time></trkpt><trkpt lat="40.051701966167066" lon="18.474557832478652"><ele>107.66666666666666</ele><time>2026-04-05T06:13:30.001Z</time></trkpt><trkpt lat="40.05150628488187" lon="18.474588025336292"><ele>107.33333333333333</ele><time>2026-04-05T06:13:31.001Z</time></trkpt><trkpt lat="40.051321549832906" lon="18.474617457378276"><ele>107.0</ele><time>2026-04-05T06:13:32.001Z</time></trkpt><trkpt lat="40.051139850183915" lon="18.474647096323547"><ele>104.0</ele><time>2026-04-05T06:13:33.001Z</time></trkpt><trkpt lat="40.050969166115344" lon="18.474691606437474"><ele>101.0</ele><time>2026-04-05T06:13:34.001Z</time></trkpt><trkpt lat="40.0508120679005" lon="18.474750531881917"><ele>98.0</ele><time>2026-04-05T06:13:35.001Z</time></trkpt><trkpt lat="40.050662015619295" lon="18.474805324589425"><ele>96.2</ele><time>2026-04-05T06:13:36.001Z</time></trkpt><trkpt lat="40.05054718199686" lon="18.474826122315626"><ele>94.4</ele><time>2026-04-05T06:13:37.001Z</time></trkpt><trkpt lat="40.050484394434456" lon="18.474797111894624"><ele>92.60000000000001</ele><time>2026-04-05T06:13:38.001Z</time></trkpt><trkpt lat="40.050380276276925" lon="18.474738294803476"><ele>90.80000000000001</ele><time>2026-04-05T06:13:39.001Z</time></trkpt><trkpt lat="40.05025785445082" lon="18.47467277843979"><ele>89.0</ele><time>2026-04-05T06:13:40.001Z</time></trkpt><trkpt lat="40.050111282358685" lon="18.474604262905267"><ele>93.66666666666667</ele><time>2026-04-05T06:13:41.001Z</time></trkpt><trkpt lat="40.04996897590909" lon="18.474541841161226"><ele>98.33333333333334</ele><time>2026-04-05T06:13:42.001Z</time></trkpt><trkpt lat="40.04982112239992" lon="18.474504894421717"><ele>103.0</ele><time>2026-04-05T06:13:43.001Z</time></trkpt><trkpt lat="40.04966203779279" lon="18.474470504739525"><ele>103.0</ele><time>2026-04-05T06:13:44.001Z</time></trkpt><trkpt lat="40.049524811966386" lon="18.47442501495479"><ele>103.0</ele><time>2026-04-05T06:13:45.001Z</time></trkpt><trkpt lat="40.049426319927434" lon="18.474314444499225"><ele>103.0</ele><time>2026-04-05T06:13:46.001Z</time></trkpt><trkpt lat="40.049315692632575" lon="18.47427164649229"><ele>103.0</ele><time>2026-04-05T06:13:47.001Z</time></trkpt><trkpt lat="40.049215657567515" lon="18.47426534185287"><ele>101.75</ele><time>2026-04-05T06:13:48.001Z</time></trkpt><trkpt lat="40.04911513798994" lon="18.47429549513134"><ele>100.5</ele><time>2026-04-05T06:13:49.001Z</time></trkpt><trkpt lat="40.048990673810124" lon="18.474340138557597"><ele>99.25</ele><time>2026-04-05T06:13:50Z</time></trkpt><trkpt lat="40.04886915888471" lon="18.474367534052583"><ele>98.0</ele><time>2026-04-05T06:13:51Z</time></trkpt><trkpt lat="40.048734309114636" lon="18.47435795348495"><ele>98.0</ele><time>2026-04-05T06:13:52Z</time></trkpt><trkpt lat="40.04860101861733" lon="18.474293027734152"><ele>98.0</ele><time>2026-04-05T06:13:53Z</time></trkpt><trkpt lat="40.04845276787472" lon="18.474224526521454"><ele>98.0</ele><time>2026-04-05T06:13:54Z</time></trkpt><trkpt lat="40.048296920660874" lon="18.474173620917043"><ele>95.75</ele><time>2026-04-05T06:13:55Z</time></trkpt><trkpt lat="40.04815540597004" lon="18.474104333387785"><ele>93.5</ele><time>2026-04-05T06:13:56Z</time></trkpt><trkpt lat="40.04802084204514" lon="18.47405218852205"><ele>91.25</ele><time>2026-04-05T06:13:57Z</time></trkpt><trkpt lat="40.04788570293069" lon="18.47402252285435"><ele>89.0</ele><time>2026-04-05T06:13:58Z</time></trkpt><trkpt lat="40.04773559581022" lon="18.474027580601195"><ele>89.0</ele><time>2026-04-05T06:13:59Z</time></trkpt><trkpt lat="40.04759804331312" lon="18.474024133588426"><ele>89.0</ele><time>2026-04-05T06:14:00Z</time></trkpt><trkpt lat="40.04746941012825" lon="18.47400811039917"><ele>89.0</ele><time>2026-04-05T06:14:01Z</time></trkpt><trkpt lat="40.04734578917785" lon="18.473915707802554"><ele>89.0</ele><time>2026-04-05T06:14:02Z</time></trkpt><trkpt lat="40.04719527247389" lon="18.47385748665341"><ele>92.33333333333334</ele><time>2026-04-05T06:14:03Z</time></trkpt><trkpt lat="40.04703995833289" lon="18.473779325935354"><ele>95.66666666666667</ele><time>2026-04-05T06:14:04Z</time></trkpt><trkpt lat="40.04687611083071" lon="18.473720106766777"><ele>99.0</ele><time>2026-04-05T06:14:05Z</time></trkpt><trkpt lat="40.04670604756591" lon="18.47366760473657"><ele>93.0</ele><time>2026-04-05T06:14:06Z</time></trkpt><trkpt lat="40.04654141831368" lon="18.473611466354715"><ele>87.0</ele><time>2026-04-05T06:14:07Z</time></trkpt><trkpt lat="40.04638088413578" lon="18.473547561342013"><ele>81.0</ele><time>2026-04-05T06:14:08Z</time></trkpt><trkpt lat="40.046232283772554" lon="18.473455208756004"><ele>81.0</ele><time>2026-04-05T06:14:09Z</time></trkpt><trkpt lat="40.04609417395785" lon="18.47337134570503"><ele>81.0</ele><time>2026-04-05T06:14:10Z</time></trkpt><trkpt lat="40.045953351365505" lon="18.473294265107704"><ele>81.0</ele><time>2026-04-05T06:14:11Z</time></trkpt><trkpt lat="40.04580491264473" lon="18.47325361160584"><ele>76.0</ele><time>2026-04-05T06:14:12Z</time></trkpt><trkpt lat="40.04566290761187" lon="18.473244292469868"><ele>71.0</ele><time>2026-04-05T06:14:13Z</time></trkpt><trkpt lat="40.045537312350845" lon="18.473244911178206"><ele>66.0</ele><time>2026-04-05T06:14:14Z</time></trkpt><trkpt lat="40.045438126599684" lon="18.473243679190283"><ele>61.0</ele><time>2026-04-05T06:14:15Z</time></trkpt><trkpt lat="40.04534652808215" lon="18.473224981395923"><ele>61.0</ele><time>2026-04-05T06:14:16Z</time></trkpt><trkpt lat="40.04526737760525" lon="18.473171681639382"><ele>60.99999999999999</ele><time>2026-04-05T06:14:17Z</time></trkpt><trkpt lat="40.04519835601194" lon="18.473096130957025"><ele>60.99999999999999</ele><time>2026-04-05T06:14:18Z</time></trkpt><trkpt lat="40.04516734951618" lon="18.472949847635345"><ele>61.0</ele><time>2026-04-05T06:14:19Z</time></trkpt><trkpt lat="40.04512398575686" lon="18.47281055715793"><ele>61.0</ele><time>2026-04-05T06:14:20Z</time></trkpt><trkpt lat="40.04510678649916" lon="18.472670254364992"><ele>59.4</ele><time>2026-04-05T06:14:21Z</time></trkpt><trkpt lat="40.045094398148436" lon="18.47254631923164"><ele>57.8</ele><time>2026-04-05T06:14:22Z</time></trkpt><trkpt lat="40.045041253126826" lon="18.472448325352"><ele>56.199999999999996</ele><time>2026-04-05T06:14:23Z</time></trkpt><trkpt lat="40.04496000352457" lon="18.472395524674692"><ele>54.599999999999994</ele><time>2026-04-05T06:14:24Z</time></trkpt><trkpt lat="40.044873197291416" lon="18.4723560217807"><ele>53.0</ele><time>2026-04-05T06:14:25Z</time></trkpt><trkpt lat="40.04477537319685" lon="18.472325974018506"><ele>53.0</ele><time>2026-04-05T06:14:26Z</time></trkpt><trkpt lat="40.0446720977661" lon="18.472295159346093"><ele>53.0</ele><time>2026-04-05T06:14:27Z</time></trkpt><trkpt lat="40.044568345610585" lon="18.47225206986684"><ele>53.0</ele><time>2026-04-05T06:14:28Z</time></trkpt><trkpt lat="40.04445259394324" lon="18.472187784297564"><ele>53.0</ele><time>2026-04-05T06:14:29Z</time></trkpt><trkpt lat="40.04434072370413" lon="18.472086228393266"><ele>54.0</ele><time>2026-04-05T06:14:30Z</time></trkpt><trkpt lat="40.04421796712873" lon="18.4719653723684"><ele>55.0</ele><time>2026-04-05T06:14:31Z</time></trkpt><trkpt lat="40.04408417318728" lon="18.471858906477117"><ele>56.0</ele><time>2026-04-05T06:14:32Z</time></trkpt><trkpt lat="40.04394064680791" lon="18.47178457857188"><ele>56.0</ele><time>2026-04-05T06:14:33Z</time></trkpt><trkpt lat="40.04379329882301" lon="18.47173238010613"><ele>56.0</ele><time>2026-04-05T06:14:34Z</time></trkpt><trkpt lat="40.04364787788158" lon="18.471691455232275"><ele>56.0</ele><time>2026-04-05T06:14:35Z</time></trkpt><trkpt lat="40.043511892323295" lon="18.47164178966104"><ele>56.0</ele><time>2026-04-05T06:14:36Z</time></trkpt><trkpt lat="40.043380361938546" lon="18.471565293735836"><ele>55.0</ele><time>2026-04-05T06:14:37Z</time></trkpt><trkpt lat="40.043252558112805" lon="18.47147799704218"><ele>54.0</ele><time>2026-04-05T06:14:38Z</time></trkpt><trkpt lat="40.04313220921178" lon="18.47138955508141"><ele>53.0</ele><time>2026-04-05T06:14:39Z</time></trkpt><trkpt lat="40.043017016783516" lon="18.471295221677213"><ele>52.0</ele><time>2026-04-05T06:14:40Z</time></trkpt><trkpt lat="40.04291669556141" lon="18.471178983468434"><ele>52.0</ele><time>2026-04-05T06:14:41Z</time></trkpt><trkpt lat="40.04282833735184" lon="18.471055538197817"><ele>52.0</ele><time>2026-04-05T06:14:42Z</time></trkpt><trkpt lat="40.04272841438344" lon="18.47096262904792"><ele>52.0</ele><time>2026-04-05T06:14:43Z</time></trkpt><trkpt lat="40.04262610790707" lon="18.470888427711337"><ele>52.0</ele><time>2026-04-05T06:14:44Z</time></trkpt><trkpt lat="40.04253588261152" lon="18.470820443387122"><ele>52.0</ele><time>2026-04-05T06:14:45Z</time></trkpt><trkpt lat="40.04247458035345" lon="18.470737752972234"><ele>52.0</ele><time>2026-04-05T06:14:46Z</time></trkpt><trkpt lat="40.04245306088061" lon="18.470609323267134"><ele>52.0</ele><time>2026-04-05T06:14:47Z</time></trkpt><trkpt lat="40.04241904229387" lon="18.470488547919498"><ele>52.0</ele><time>2026-04-05T06:14:48Z</time></trkpt><trkpt lat="40.0423609384685" lon="18.470368122417874"><ele>52.0</ele><time>2026-04-05T06:14:49Z</time></trkpt><trkpt lat="40.04227278951622" lon="18.470267535646194"><ele>50.5</ele><time>2026-04-05T06:14:50Z</time></trkpt><trkpt lat="40.04216712911668" lon="18.470186139999477"><ele>49.0</ele><time>2026-04-05T06:14:51Z</time></trkpt><trkpt lat="40.04202711216719" lon="18.470102099802396"><ele>47.5</ele><time>2026-04-05T06:14:52Z</time></trkpt><trkpt lat="40.0418860631258" lon="18.469997627945734"><ele>46.0</ele><time>2026-04-05T06:14:53Z</time></trkpt><trkpt lat="40.0417585375974" lon="18.46987402584222"><ele>46.0</ele><time>2026-04-05T06:14:54Z</time></trkpt><trkpt lat="40.041645336358314" lon="18.469735805571414"><ele>46.0</ele><time>2026-04-05T06:14:55Z</time></trkpt><trkpt lat="40.041537906118315" lon="18.469615009974554"><ele>46.0</ele><time>2026-04-05T06:14:56Z</time></trkpt><trkpt lat="40.04145762851392" lon="18.469510905412935"><ele>46.0</ele><time>2026-04-05T06:14:57Z</time></trkpt><trkpt lat="40.04139448742114" lon="18.469417750308363"><ele>41.75</ele><time>2026-04-05T06:14:58Z</time></trkpt><trkpt lat="40.041370659604404" lon="18.469270337109606"><ele>37.5</ele><time>2026-04-05T06:14:59Z</time></trkpt><trkpt lat="40.04136708147885" lon="18.469107013167644"><ele>33.25</ele><time>2026-04-05T06:15:00Z</time></trkpt><trkpt lat="40.041323974429176" lon="18.468958372852942"><ele>29.0</ele><time>2026-04-05T06:15:01Z</time></trkpt><trkpt lat="40.04125377504702" lon="18.468815246521963"><ele>32.5</ele><time>2026-04-05T06:15:02Z</time></trkpt><trkpt lat="40.04118096658952" lon="18.46868048019594"><ele>36.0</ele><time>2026-04-05T06:15:03Z</time></trkpt><trkpt lat="40.04111938147039" lon="18.468547202932644"><ele>39.5</ele><time>2026-04-05T06:15:04Z</time></trkpt><trkpt lat="40.04109938476468" lon="18.468396306218857"><ele>43.0</ele><time>2026-04-05T06:15:05Z</time></trkpt><trkpt lat="40.041043178229536" lon="18.46826700126685"><ele>43.0</ele><time>2026-04-05T06:15:06Z</time></trkpt><trkpt lat="40.04097988589324" lon="18.46816043583977"><ele>43.0</ele><time>2026-04-05T06:15:07Z</time></trkpt><trkpt lat="40.04087983870729" lon="18.468079718573016"><ele>43.0</ele><time>2026-04-05T06:15:08Z</time></trkpt><trkpt lat="40.04075929685963" lon="18.468021622060682"><ele>43.0</ele><time>2026-04-05T06:15:09Z</time></trkpt><trkpt lat="40.04061755601316" lon="18.467981632279535"><ele>37.75</ele><time>2026-04-05T06:15:10Z</time></trkpt><trkpt lat="40.04046439211619" lon="18.467955601304585"><ele>32.5</ele><time>2026-04-05T06:15:11Z</time></trkpt><trkpt lat="40.04031073703444" lon="18.46797440673416"><ele>27.25</ele><time>2026-04-05T06:15:12Z</time></trkpt><trkpt lat="40.04018071476917" lon="18.46797863045591"><ele>22.0</ele><time>2026-04-05T06:15:13Z</time></trkpt><trkpt lat="40.04005878859638" lon="18.467969790170574"><ele>23.0</ele><time>2026-04-05T06:15:14Z</time></trkpt><trkpt lat="40.03994172993644" lon="18.467909511973694"><ele>24.0</ele><time>2026-04-05T06:15:15Z</time></trkpt><trkpt lat="40.039852018711066" lon="18.467814246371667"><ele>25.0</ele><time>2026-04-05T06:15:16Z</time></trkpt><trkpt lat="40.039748312062514" lon="18.46770469829474"><ele>26.0</ele><time>2026-04-05T06:15:17Z</time></trkpt><trkpt lat="40.03963384163179" lon="18.46758197551254"><ele>26.0</ele><time>2026-04-05T06:15:18Z</time></trkpt><trkpt lat="40.03952876400477" lon="18.467464838503393"><ele>26.0</ele><time>2026-04-05T06:15:19Z</time></trkpt><trkpt lat="40.039408911526905" lon="18.46732241610494"><ele>26.0</ele><time>2026-04-05T06:15:20Z</time></trkpt><trkpt lat="40.03930539194172" lon="18.467187495259584"><ele>26.0</ele><time>2026-04-05T06:15:21Z</time></trkpt><trkpt lat="40.03918473527886" lon="18.467068601534592"><ele>23.75</ele><time>2026-04-05T06:15:22Z</time></trkpt><trkpt lat="40.039110444138615" lon="18.466910544874978"><ele>21.5</ele><time>2026-04-05T06:15:23Z</time></trkpt><trkpt lat="40.03901339156421" lon="18.466793304228368"><ele>19.25</ele><time>2026-04-05T06:15:24Z</time></trkpt><trkpt lat="40.03893227655662" lon="18.46668170919825"><ele>17.0</ele><time>2026-04-05T06:15:25.001Z</time></trkpt><trkpt lat="40.0388745634126" lon="18.466593080975503"><ele>16.999999999999996</ele><time>2026-04-05T06:15:26.001Z</time></trkpt><trkpt lat="40.038830304748636" lon="18.46652917300081"><ele>17.0</ele><time>2026-04-05T06:15:27.001Z</time></trkpt><trkpt lat="40.03878808921559" lon="18.466466475537935"><ele>17.0</ele><time>2026-04-05T06:15:28.001Z</time></trkpt><trkpt lat="40.038741568549895" lon="18.46640512048477"><ele>17.0</ele><time>2026-04-05T06:15:29.001Z</time></trkpt><trkpt lat="40.03868794150025" lon="18.46633820033942"><ele>17.0</ele><time>2026-04-05T06:15:30.001Z</time></trkpt><trkpt lat="40.03863924552604" lon="18.466270002332138"><ele>16.999999999999996</ele><time>2026-04-05T06:15:31.001Z</time></trkpt><trkpt lat="40.038589171001135" lon="18.466187709961492"><ele>17.0</ele><time>2026-04-05T06:15:32.001Z</time></trkpt><trkpt lat="40.03852502425575" lon="18.46609480455403"><ele>18.6</ele><time>2026-04-05T06:15:33.001Z</time></trkpt><trkpt lat="40.0384637241661" lon="18.466006094453796"><ele>20.2</ele><time>2026-04-05T06:15:34.001Z</time></trkpt><trkpt lat="40.038391524690795" lon="18.465896168174464"><ele>21.8</ele><time>2026-04-05T06:15:35.001Z</time></trkpt><trkpt lat="40.038322760032806" lon="18.465775917349347"><ele>23.4</ele><time>2026-04-05T06:15:36.001Z</time></trkpt><trkpt lat="40.03823634849122" lon="18.465651945878918"><ele>25.0</ele><time>2026-04-05T06:15:37.001Z</time></trkpt><trkpt lat="40.03816168175375" lon="18.465536866232867"><ele>21.5</ele><time>2026-04-05T06:15:38.001Z</time></trkpt><trkpt lat="40.03810031346971" lon="18.465402770774006"><ele>18.0</ele><time>2026-04-05T06:15:39.001Z</time></trkpt><trkpt lat="40.03805952439983" lon="18.465252400400328"><ele>14.5</ele><time>2026-04-05T06:15:40.001Z</time></trkpt><trkpt lat="40.038025336646896" lon="18.46511512062122"><ele>11.0</ele><time>2026-04-05T06:15:41.001Z</time></trkpt><trkpt lat="40.0380019321294" lon="18.46493822821952"><ele>11.0</ele><time>2026-04-05T06:15:42.001Z</time></trkpt><trkpt lat="40.03797760316489" lon="18.464780911942885"><ele>11.0</ele><time>2026-04-05T06:15:43.001Z</time></trkpt><trkpt lat="40.03797040047941" lon="18.464624512731206"><ele>11.0</ele><time>2026-04-05T06:15:44.001Z</time></trkpt><trkpt lat="40.03795930609798" lon="18.46448577650507"><ele>11.0</ele><time>2026-04-05T06:15:45.001Z</time></trkpt><trkpt lat="40.037954190777334" lon="18.46435970709946"><ele>11.0</ele><time>2026-04-05T06:15:46.001Z</time></trkpt><trkpt lat="40.03794122299488" lon="18.464226795540476"><ele>12.0</ele><time>2026-04-05T06:15:47.001Z</time></trkpt><trkpt lat="40.037931633376346" lon="18.464108627780952"><ele>13.0</ele><time>2026-04-05T06:15:48.001Z</time></trkpt><trkpt lat="40.03792596997039" lon="18.463996692066416"><ele>14.000000000000002</ele><time>2026-04-05T06:15:49.001Z</time></trkpt><trkpt lat="40.037922121772816" lon="18.463887961952537"><ele>15.0</ele><time>2026-04-05T06:15:50.001Z</time></trkpt><trkpt lat="40.03791406165808" lon="18.46376853863066"><ele>16.0</ele><time>2026-04-05T06:15:51.001Z</time></trkpt><trkpt lat="40.03790527297248" lon="18.463639050709766"><ele>16.6</ele><time>2026-04-05T06:15:52.001Z</time></trkpt><trkpt lat="40.03787941447893" lon="18.463505848518434"><ele>17.200000000000003</ele><time>2026-04-05T06:15:53.001Z</time></trkpt><trkpt lat="40.037858958070366" lon="18.463379881786544"><ele>17.799999999999997</ele><time>2026-04-05T06:15:54.001Z</time></trkpt><trkpt lat="40.03784416612653" lon="18.463258111714474"><ele>18.4</ele><time>2026-04-05T06:15:55.001Z</time></trkpt><trkpt lat="40.037828700752605" lon="18.46313833195146"><ele>19.0</ele><time>2026-04-05T06:15:56Z</time></trkpt><trkpt lat="40.037783843920494" lon="18.463029610365663"><ele>19.799999999999997</ele><time>2026-04-05T06:15:57Z</time></trkpt><trkpt lat="40.037749730190214" lon="18.462912315301313"><ele>20.599999999999998</ele><time>2026-04-05T06:15:58Z</time></trkpt><trkpt lat="40.03771103033" lon="18.46279737026496"><ele>21.4</ele><time>2026-04-05T06:15:59Z</time></trkpt><trkpt lat="40.037675946269175" lon="18.462690024785072"><ele>22.2</ele><time>2026-04-05T06:16:00Z</time></trkpt><trkpt lat="40.03764096589288" lon="18.46258865194527"><ele>23.0</ele><time>2026-04-05T06:16:01Z</time></trkpt><trkpt lat="40.03760484342513" lon="18.462486441314002"><ele>23.0</ele><time>2026-04-05T06:16:02Z</time></trkpt><trkpt lat="40.03756233071285" lon="18.46237258180411"><ele>23.0</ele><time>2026-04-05T06:16:03Z</time></trkpt><trkpt lat="40.03752642264106" lon="18.462257769887316"><ele>23.0</ele><time>2026-04-05T06:16:04Z</time></trkpt><trkpt lat="40.03749945764221" lon="18.46213937603249"><ele>23.0</ele><time>2026-04-05T06:16:05Z</time></trkpt><trkpt lat="40.03747065452982" lon="18.462029010548115"><ele>23.0</ele><time>2026-04-05T06:16:06Z</time></trkpt><trkpt lat="40.03744304020591" lon="18.46191364485338"><ele>23.4</ele><time>2026-04-05T06:16:07Z</time></trkpt><trkpt lat="40.03741091623008" lon="18.461797751355213"><ele>23.799999999999997</ele><time>2026-04-05T06:16:08Z</time></trkpt><trkpt lat="40.03737237986765" lon="18.461686118735525"><ele>24.2</ele><time>2026-04-05T06:16:09Z</time></trkpt><trkpt lat="40.0373264214596" lon="18.46157660882224"><ele>24.6</ele><time>2026-04-05T06:16:10Z</time></trkpt><trkpt lat="40.03727825759859" lon="18.461472688284626"><ele>25.0</ele><time>2026-04-05T06:16:11Z</time></trkpt><trkpt lat="40.037225828593975" lon="18.46137307362563"><ele>27.0</ele><time>2026-04-05T06:16:12Z</time></trkpt><trkpt lat="40.037164465996945" lon="18.46128094939297"><ele>29.0</ele><time>2026-04-05T06:16:13Z</time></trkpt><trkpt lat="40.03711840297135" lon="18.461178399259833"><ele>31.0</ele><time>2026-04-05T06:16:14Z</time></trkpt><trkpt lat="40.03706909461372" lon="18.461096061035928"><ele>33.0</ele><time>2026-04-05T06:16:15Z</time></trkpt><trkpt lat="40.0370199344574" lon="18.460963633318844"><ele>35.0</ele><time>2026-04-05T06:16:17Z</time></trkpt><trkpt lat="40.03699180447513" lon="18.460861806518242"><ele>35.0</ele><time>2026-04-05T06:16:19Z</time></trkpt><trkpt lat="40.0368649479771" lon="18.460853008871833"><ele>35.0</ele><time>2026-04-05T06:16:21Z</time></trkpt><trkpt lat="40.03678341542103" lon="18.460879838293785"><ele>35.0</ele><time>2026-04-05T06:16:22Z</time></trkpt><trkpt lat="40.0366900123556" lon="18.46091671388343"><ele>35.0</ele><time>2026-04-05T06:16:23Z</time></trkpt><trkpt lat="40.03659141500761" lon="18.46093950582644"><ele>35.0</ele><time>2026-04-05T06:16:24Z</time></trkpt><trkpt lat="40.0365008053128" lon="18.46095032559533"><ele>33.0</ele><time>2026-04-05T06:16:25Z</time></trkpt><trkpt lat="40.03641441805278" lon="18.46096421930222"><ele>31.0</ele><time>2026-04-05T06:16:26Z</time></trkpt><trkpt lat="40.036339745061596" lon="18.460970375096775"><ele>29.0</ele><time>2026-04-05T06:16:27Z</time></trkpt><trkpt lat="40.03626172561708" lon="18.460977945570516"><ele>27.0</ele><time>2026-04-05T06:16:28Z</time></trkpt><trkpt lat="40.03618835925762" lon="18.46098965127036"><ele>25.0</ele><time>2026-04-05T06:16:29Z</time></trkpt><trkpt lat="40.036101279541406" lon="18.460986004646486"><ele>23.0</ele><time>2026-04-05T06:16:31Z</time></trkpt><trkpt lat="40.03616287594169" lon="18.460830757062656"><ele>23.0</ele><time>2026-04-05T06:16:33Z</time></trkpt><trkpt lat="40.03612152453063" lon="18.46070574421752"><ele>23.0</ele><time>2026-04-05T06:16:34Z</time></trkpt><trkpt lat="40.03608750089761" lon="18.460560735210734"><ele>23.0</ele><time>2026-04-05T06:16:35Z</time></trkpt><trkpt lat="40.03603634232619" lon="18.460374975667698"><ele>23.0</ele><time>2026-04-05T06:16:36Z</time></trkpt><trkpt lat="40.03600583029696" lon="18.46020333812339"><ele>23.25</ele><time>2026-04-05T06:16:37Z</time></trkpt><trkpt lat="40.035970551803274" lon="18.46002956803819"><ele>23.5</ele><time>2026-04-05T06:16:38Z</time></trkpt><trkpt lat="40.035941460579906" lon="18.45987449819836"><ele>23.75</ele><time>2026-04-05T06:16:39Z</time></trkpt><trkpt lat="40.03591523896147" lon="18.45971895599895"><ele>24.0</ele><time>2026-04-05T06:16:40Z</time></trkpt><trkpt lat="40.03587808972854" lon="18.459564637647386"><ele>25.0</ele><time>2026-04-05T06:16:41Z</time></trkpt><trkpt lat="40.035844670936896" lon="18.459414827431925"><ele>26.0</ele><time>2026-04-05T06:16:42Z</time></trkpt><trkpt lat="40.03581189460852" lon="18.459250185265464"><ele>27.0</ele><time>2026-04-05T06:16:43Z</time></trkpt><trkpt lat="40.03578108534036" lon="18.45908845633933"><ele>28.0</ele><time>2026-04-05T06:16:44Z</time></trkpt><trkpt lat="40.035751793756084" lon="18.458927290470886"><ele>24.75</ele><time>2026-04-05T06:16:45Z</time></trkpt><trkpt lat="40.03572884923189" lon="18.458762857571347"><ele>21.5</ele><time>2026-04-05T06:16:46Z</time></trkpt><trkpt lat="40.035694241192274" lon="18.458605376153237"><ele>18.25</ele><time>2026-04-05T06:16:47Z</time></trkpt><trkpt lat="40.03566033055954" lon="18.45844879994325"><ele>15.0</ele><time>2026-04-05T06:16:48Z</time></trkpt><trkpt lat="40.03563934590477" lon="18.458289493388694"><ele>15.0</ele><time>2026-04-05T06:16:49Z</time></trkpt><trkpt lat="40.03560784281867" lon="18.458143990836295"><ele>15.0</ele><time>2026-04-05T06:16:50Z</time></trkpt><trkpt lat="40.03557303707469" lon="18.45798316574668"><ele>15.0</ele><time>2026-04-05T06:16:51Z</time></trkpt><trkpt lat="40.035538422736806" lon="18.457823172906128"><ele>15.0</ele><time>2026-04-05T06:16:52Z</time></trkpt><trkpt lat="40.03550830204294" lon="18.457683950412964"><ele>14.75</ele><time>2026-04-05T06:16:53Z</time></trkpt><trkpt lat="40.035486819053666" lon="18.45752509860381"><ele>14.5</ele><time>2026-04-05T06:16:54Z</time></trkpt><trkpt lat="40.03546190332929" lon="18.45737617542705"><ele>14.25</ele><time>2026-04-05T06:16:55Z</time></trkpt><trkpt lat="40.035421291986175" lon="18.45721298958424"><ele>14.0</ele><time>2026-04-05T06:16:56Z</time></trkpt><trkpt lat="40.03537488007622" lon="18.457048862391638"><ele>13.75</ele><time>2026-04-05T06:16:57Z</time></trkpt><trkpt lat="40.03534289303238" lon="18.456895970058913"><ele>13.5</ele><time>2026-04-05T06:16:58Z</time></trkpt><trkpt lat="40.03530209836805" lon="18.45674077320918"><ele>13.25</ele><time>2026-04-05T06:16:59Z</time></trkpt><trkpt lat="40.035263150794755" lon="18.456584788872252"><ele>13.0</ele><time>2026-04-05T06:17:00Z</time></trkpt><trkpt lat="40.03522924375085" lon="18.456435704582194"><ele>14.0</ele><time>2026-04-05T06:17:01Z</time></trkpt><trkpt lat="40.035209908049026" lon="18.456281612729114"><ele>15.0</ele><time>2026-04-05T06:17:02Z</time></trkpt><trkpt lat="40.035189227542084" lon="18.456119993496888"><ele>16.0</ele><time>2026-04-05T06:17:03Z</time></trkpt><trkpt lat="40.03518035010724" lon="18.455949468925763"><ele>17.0</ele><time>2026-04-05T06:17:04Z</time></trkpt><trkpt lat="40.03517406078189" lon="18.455755532143463"><ele>17.0</ele><time>2026-04-05T06:17:05Z</time></trkpt><trkpt lat="40.03516970124543" lon="18.455577446982673"><ele>17.0</ele><time>2026-04-05T06:17:06Z</time></trkpt><trkpt lat="40.035163869704284" lon="18.455387047146665"><ele>17.0</ele><time>2026-04-05T06:17:07Z</time></trkpt><trkpt lat="40.03516035868097" lon="18.45520498355312"><ele>17.0</ele><time>2026-04-05T06:17:08Z</time></trkpt><trkpt lat="40.03515140271065" lon="18.455023196491666"><ele>18.0</ele><time>2026-04-05T06:17:09Z</time></trkpt><trkpt lat="40.03514399122636" lon="18.454842803819528"><ele>19.0</ele><time>2026-04-05T06:17:10Z</time></trkpt><trkpt lat="40.03514452973895" lon="18.4546625596269"><ele>20.0</ele><time>2026-04-05T06:17:11Z</time></trkpt><trkpt lat="40.03514075370122" lon="18.454466517715307"><ele>21.0</ele><time>2026-04-05T06:17:12Z</time></trkpt><trkpt lat="40.03513349543576" lon="18.454274235239385"><ele>22.0</ele><time>2026-04-05T06:17:13Z</time></trkpt><trkpt lat="40.03512495754238" lon="18.454063641873844"><ele>23.0</ele><time>2026-04-05T06:17:14Z</time></trkpt><trkpt lat="40.03512388018183" lon="18.453864062824323"><ele>24.0</ele><time>2026-04-05T06:17:15Z</time></trkpt><trkpt lat="40.035125233024495" lon="18.453672364348762"><ele>24.5</ele><time>2026-04-05T06:17:16Z</time></trkpt><trkpt lat="40.03512045563761" lon="18.453487091736065"><ele>25.0</ele><time>2026-04-05T06:17:17.001Z</time></trkpt><trkpt lat="40.035119627921425" lon="18.45332298494542"><ele>25.5</ele><time>2026-04-05T06:17:18.001Z</time></trkpt><trkpt lat="40.0351034330915" lon="18.453160933069576"><ele>26.0</ele><time>2026-04-05T06:17:19.001Z</time></trkpt><trkpt lat="40.03505838676057" lon="18.453006576116593"><ele>26.5</ele><time>2026-04-05T06:17:20.001Z</time></trkpt><trkpt lat="40.0350120899263" lon="18.45284681945955"><ele>27.0</ele><time>2026-04-05T06:17:21.001Z</time></trkpt><trkpt lat="40.03494384171218" lon="18.452690725933827"><ele>27.5</ele><time>2026-04-05T06:17:22.001Z</time></trkpt><trkpt lat="40.03488398066336" lon="18.452543202133423"><ele>28.0</ele><time>2026-04-05T06:17:23.001Z</time></trkpt><trkpt lat="40.034825255529704" lon="18.45241951824701"><ele>28.0</ele><time>2026-04-05T06:17:24.001Z</time></trkpt><trkpt lat="40.03476153225169" lon="18.45231501348866"><ele>27.999999999999996</ele><time>2026-04-05T06:17:25.001Z</time></trkpt><trkpt lat="40.034674122564184" lon="18.452241326227075"><ele>27.999999999999996</ele><time>2026-04-05T06:17:26.001Z</time></trkpt><trkpt lat="40.034573759190295" lon="18.452191244193674"><ele>28.0</ele><time>2026-04-05T06:17:27.001Z</time></trkpt><trkpt lat="40.03446421860804" lon="18.452148256476836"><ele>28.0</ele><time>2026-04-05T06:17:28.001Z</time></trkpt><trkpt lat="40.03435199328222" lon="18.45210184764927"><ele>28.0</ele><time>2026-04-05T06:17:29.001Z</time></trkpt><trkpt lat="40.03423444447633" lon="18.452072365243836"><ele>28.0</ele><time>2026-04-05T06:17:30.001Z</time></trkpt><trkpt lat="40.03411381923741" lon="18.452039777558365"><ele>28.0</ele><time>2026-04-05T06:17:31.001Z</time></trkpt><trkpt lat="40.03398792985397" lon="18.45200562637215"><ele>28.0</ele><time>2026-04-05T06:17:32.001Z</time></trkpt><trkpt lat="40.03385559486417" lon="18.451937194206042"><ele>26.25</ele><time>2026-04-05T06:17:33.001Z</time></trkpt><trkpt lat="40.03371488927815" lon="18.451891898749544"><ele>24.5</ele><time>2026-04-05T06:17:34.001Z</time></trkpt><trkpt lat="40.03358444913926" lon="18.451839061796022"><ele>22.75</ele><time>2026-04-05T06:17:35.001Z</time></trkpt><trkpt lat="40.033481189261835" lon="18.45177130761342"><ele>21.0</ele><time>2026-04-05T06:17:36.001Z</time></trkpt><trkpt lat="40.03339766055769" lon="18.45168016594384"><ele>21.0</ele><time>2026-04-05T06:17:37.001Z</time></trkpt><trkpt lat="40.03331752883222" lon="18.45156331380769"><ele>21.0</ele><time>2026-04-05T06:17:38.001Z</time></trkpt><trkpt lat="40.03324242760226" lon="18.451431344858435"><ele>21.0</ele><time>2026-04-05T06:17:39.001Z</time></trkpt><trkpt lat="40.03316223786697" lon="18.451277342488996"><ele>21.0</ele><time>2026-04-05T06:17:40.001Z</time></trkpt><trkpt lat="40.03307230558086" lon="18.45110289971459"><ele>21.0</ele><time>2026-04-05T06:17:41.001Z</time></trkpt><trkpt lat="40.03297882674565" lon="18.45091691204274"><ele>21.0</ele><time>2026-04-05T06:17:42.001Z</time></trkpt><trkpt lat="40.032891211269984" lon="18.450730854694694"><ele>21.0</ele><time>2026-04-05T06:17:43.001Z</time></trkpt><trkpt lat="40.03280654652639" lon="18.45052537803655"><ele>21.333333333333332</ele><time>2026-04-05T06:17:44.001Z</time></trkpt><trkpt lat="40.03272353852433" lon="18.450316014191184"><ele>21.666666666666664</ele><time>2026-04-05T06:17:45.001Z</time></trkpt><trkpt lat="40.032648720073745" lon="18.450124688287474"><ele>22.0</ele><time>2026-04-05T06:17:46.001Z</time></trkpt><trkpt lat="40.032582261136234" lon="18.449951836958064"><ele>22.0</ele><time>2026-04-05T06:17:47.001Z</time></trkpt><trkpt lat="40.0325204466211" lon="18.44979612012509"><ele>22.0</ele><time>2026-04-05T06:17:48.001Z</time></trkpt><trkpt lat="40.032460122892076" lon="18.449649933524434"><ele>22.0</ele><time>2026-04-05T06:17:49.001Z</time></trkpt><trkpt lat="40.03243494524509" lon="18.449488362196025"><ele>22.0</ele><time>2026-04-05T06:17:50.001Z</time></trkpt><trkpt lat="40.032425291046195" lon="18.44931263005184"><ele>22.25</ele><time>2026-04-05T06:17:51.001Z</time></trkpt><trkpt lat="40.03242420196935" lon="18.449130894974104"><ele>22.5</ele><time>2026-04-05T06:17:52.001Z</time></trkpt><trkpt lat="40.032440256472164" lon="18.448945499771337"><ele>22.75</ele><time>2026-04-05T06:17:53.001Z</time></trkpt><trkpt lat="40.03248222566368" lon="18.44874649233689"><ele>23.0</ele><time>2026-04-05T06:17:54.001Z</time></trkpt><trkpt lat="40.03257306733086" lon="18.448569546144867"><ele>23.0</ele><time>2026-04-05T06:17:55.001Z</time></trkpt><trkpt lat="40.03265954135088" lon="18.448375981697865"><ele>23.0</ele><time>2026-04-05T06:17:56.001Z</time></trkpt><trkpt lat="40.03273956733925" lon="18.448164845061182"><ele>23.0</ele><time>2026-04-05T06:17:57.001Z</time></trkpt><trkpt lat="40.03282390715427" lon="18.447974509528994"><ele>23.666666666666668</ele><time>2026-04-05T06:17:58.001Z</time></trkpt><trkpt lat="40.032892195739606" lon="18.44777863466584"><ele>24.333333333333336</ele><time>2026-04-05T06:17:59.001Z</time></trkpt><trkpt lat="40.03294120387896" lon="18.447592632128085"><ele>25.0</ele><time>2026-04-05T06:18:00.001Z</time></trkpt><trkpt lat="40.032999365400904" lon="18.447421942909745"><ele>25.0</ele><time>2026-04-05T06:18:01.001Z</time></trkpt><trkpt lat="40.033031136858376" lon="18.447264911787464"><ele>25.0</ele><time>2026-04-05T06:18:02Z</time></trkpt><trkpt lat="40.033102207380445" lon="18.44712707094979"><ele>25.0</ele><time>2026-04-05T06:18:03Z</time></trkpt><trkpt lat="40.033193921198546" lon="18.446989566459685"><ele>25.0</ele><time>2026-04-05T06:18:04Z</time></trkpt><trkpt lat="40.033301435287115" lon="18.446872708049696"><ele>26.8</ele><time>2026-04-05T06:18:05Z</time></trkpt><trkpt lat="40.033402854029426" lon="18.44676244055893"><ele>28.6</ele><time>2026-04-05T06:18:06Z</time></trkpt><trkpt lat="40.03347686227933" lon="18.44666312667062"><ele>30.4</ele><time>2026-04-05T06:18:07Z</time></trkpt><trkpt lat="40.03352300627727" lon="18.446556640505914"><ele>32.2</ele><time>2026-04-05T06:18:08Z</time></trkpt><trkpt lat="40.03353990076698" lon="18.446452757236642"><ele>34.0</ele><time>2026-04-05T06:18:09Z</time></trkpt><trkpt lat="40.033532914955636" lon="18.446344412767715"><ele>34.8</ele><time>2026-04-05T06:18:10Z</time></trkpt><trkpt lat="40.03351835523888" lon="18.446243931803963"><ele>35.599999999999994</ele><time>2026-04-05T06:18:11Z</time></trkpt><trkpt lat="40.03346263973349" lon="18.446176070849386"><ele>36.4</ele><time>2026-04-05T06:18:12Z</time></trkpt><trkpt lat="40.033379781017" lon="18.446064081404387"><ele>37.199999999999996</ele><time>2026-04-05T06:18:13Z</time></trkpt><trkpt lat="40.03327878634598" lon="18.44592899542816"><ele>38.0</ele><time>2026-04-05T06:18:14Z</time></trkpt><trkpt lat="40.03315769269044" lon="18.445785293143114"><ele>34.8</ele><time>2026-04-05T06:18:15Z</time></trkpt><trkpt lat="40.03304495503413" lon="18.445680947596905"><ele>31.599999999999998</ele><time>2026-04-05T06:18:16Z</time></trkpt><trkpt lat="40.03297087151609" lon="18.445595635341558"><ele>28.4</ele><time>2026-04-05T06:18:17Z</time></trkpt><trkpt lat="40.03291922822611" lon="18.445506911992947"><ele>25.200000000000003</ele><time>2026-04-05T06:18:18Z</time></trkpt><trkpt lat="40.03288968327024" lon="18.445400178181117"><ele>22.0</ele><time>2026-04-05T06:18:19Z</time></trkpt><trkpt lat="40.03287766488134" lon="18.445268698266364"><ele>21.0</ele><time>2026-04-05T06:18:20Z</time></trkpt><trkpt lat="40.0329114016118" lon="18.44512389590412"><ele>20.0</ele><time>2026-04-05T06:18:21Z</time></trkpt><trkpt lat="40.03294061987563" lon="18.4449720158544"><ele>19.0</ele><time>2026-04-05T06:18:22Z</time></trkpt><trkpt lat="40.03301124492077" lon="18.444787488675214"><ele>18.0</ele><time>2026-04-05T06:18:23Z</time></trkpt><trkpt lat="40.03308021926298" lon="18.444614417877485"><ele>20.2</ele><time>2026-04-05T06:18:24Z</time></trkpt><trkpt lat="40.03315113709863" lon="18.44446627253814"><ele>22.4</ele><time>2026-04-05T06:18:25Z</time></trkpt><trkpt lat="40.033199029028985" lon="18.44435590027572"><ele>24.599999999999998</ele><time>2026-04-05T06:18:26Z</time></trkpt><trkpt lat="40.033225282182784" lon="18.44427304607501"><ele>26.8</ele><time>2026-04-05T06:18:27Z</time></trkpt><trkpt lat="40.033209028172095" lon="18.444162639587784"><ele>29.0</ele><time>2026-04-05T06:18:29Z</time></trkpt><trkpt lat="40.03313535535364" lon="18.444023975265768"><ele>29.0</ele><time>2026-04-05T06:18:31Z</time></trkpt><trkpt lat="40.03302643776056" lon="18.44397703888207"><ele>29.0</ele><time>2026-04-05T06:18:32Z</time></trkpt><trkpt lat="40.032900274510034" lon="18.443897362096504"><ele>29.0</ele><time>2026-04-05T06:18:33Z</time></trkpt><trkpt lat="40.032759894633074" lon="18.443825436097807"><ele>29.0</ele><time>2026-04-05T06:18:34Z</time></trkpt><trkpt lat="40.03259554621264" lon="18.443743906256632"><ele>30.666666666666664</ele><time>2026-04-05T06:18:35Z</time></trkpt><trkpt lat="40.0324169615092" lon="18.44365804993374"><ele>32.333333333333336</ele><time>2026-04-05T06:18:36Z</time></trkpt><trkpt lat="40.0322279717925" lon="18.443583316799"><ele>34.0</ele><time>2026-04-05T06:18:37Z</time></trkpt><trkpt lat="40.03203676892579" lon="18.44350362553223"><ele>34.0</ele><time>2026-04-05T06:18:38Z</time></trkpt><trkpt lat="40.03184217148515" lon="18.443402075916822"><ele>34.0</ele><time>2026-04-05T06:18:39Z</time></trkpt><trkpt lat="40.031657774620015" lon="18.443248015895634"><ele>34.0</ele><time>2026-04-05T06:18:40Z</time></trkpt><trkpt lat="40.03146523450106" lon="18.443116793479405"><ele>36.0</ele><time>2026-04-05T06:18:41Z</time></trkpt><trkpt lat="40.03128842374636" lon="18.442963530290708"><ele>38.0</ele><time>2026-04-05T06:18:42Z</time></trkpt><trkpt lat="40.03111210826198" lon="18.44280985088024"><ele>40.0</ele><time>2026-04-05T06:18:43Z</time></trkpt><trkpt lat="40.03093854774224" lon="18.442653731759616"><ele>37.0</ele><time>2026-04-05T06:18:44Z</time></trkpt><trkpt lat="40.0307718201489" lon="18.442510058960373"><ele>34.0</ele><time>2026-04-05T06:18:45Z</time></trkpt><trkpt lat="40.03061850817461" lon="18.442374774874867"><ele>31.0</ele><time>2026-04-05T06:18:46Z</time></trkpt><trkpt lat="40.03046598379815" lon="18.442266719062662"><ele>31.0</ele><time>2026-04-05T06:18:47Z</time></trkpt><trkpt lat="40.030313194774976" lon="18.442157422526957"><ele>31.0</ele><time>2026-04-05T06:18:48Z</time></trkpt><trkpt lat="40.030163839043404" lon="18.442072705592228"><ele>31.0</ele><time>2026-04-05T06:18:49Z</time></trkpt><trkpt lat="40.03003056719201" lon="18.441998547706756"><ele>32.0</ele><time>2026-04-05T06:18:50Z</time></trkpt><trkpt lat="40.02991167295858" lon="18.441932685838644"><ele>33.0</ele><time>2026-04-05T06:18:51Z</time></trkpt><trkpt lat="40.029797126508164" lon="18.44186104460271"><ele>34.0</ele><time>2026-04-05T06:18:52Z</time></trkpt><trkpt lat="40.02967479094617" lon="18.441763536457234"><ele>35.0</ele><time>2026-04-05T06:18:53Z</time></trkpt><trkpt lat="40.02955818434567" lon="18.44165545498034"><ele>35.0</ele><time>2026-04-05T06:18:54Z</time></trkpt><trkpt lat="40.02944631715971" lon="18.441532082800045"><ele>35.0</ele><time>2026-04-05T06:18:55Z</time></trkpt><trkpt lat="40.02930928979295" lon="18.441385058892873"><ele>35.0</ele><time>2026-04-05T06:18:56Z</time></trkpt><trkpt lat="40.029142534966866" lon="18.441224660450075"><ele>35.33333333333333</ele><time>2026-04-05T06:18:57Z</time></trkpt><trkpt lat="40.028985727193536" lon="18.441065878308883"><ele>35.666666666666664</ele><time>2026-04-05T06:18:58Z</time></trkpt><trkpt lat="40.028830327874495" lon="18.44090969082431"><ele>36.0</ele><time>2026-04-05T06:18:59Z</time></trkpt><trkpt lat="40.028684420115425" lon="18.44076045385276"><ele>36.0</ele><time>2026-04-05T06:19:00Z</time></trkpt><trkpt lat="40.02854593397486" lon="18.440622070708393"><ele>36.0</ele><time>2026-04-05T06:19:01Z</time></trkpt><trkpt lat="40.028412248760205" lon="18.44048476583279"><ele>36.0</ele><time>2026-04-05T06:19:02Z</time></trkpt><trkpt lat="40.028288750916644" lon="18.440344820353335"><ele>35.0</ele><time>2026-04-05T06:19:03Z</time></trkpt><trkpt lat="40.02818773897105" lon="18.440154485962065"><ele>34.0</ele><time>2026-04-05T06:19:04Z</time></trkpt><trkpt lat="40.02808414289095" lon="18.439972229709166"><ele>33.0</ele><time>2026-04-05T06:19:05Z</time></trkpt><trkpt lat="40.02797132497191" lon="18.439778183753646"><ele>35.333333333333336</ele><time>2026-04-05T06:19:06Z</time></trkpt><trkpt lat="40.02785366335504" lon="18.439576797742646"><ele>37.66666666666667</ele><time>2026-04-05T06:19:07Z</time></trkpt><trkpt lat="40.02773083318707" lon="18.439366565238245"><ele>40.0</ele><time>2026-04-05T06:19:08Z</time></trkpt><trkpt lat="40.027608145962056" lon="18.439156562907513"><ele>40.0</ele><time>2026-04-05T06:19:09Z</time></trkpt><trkpt lat="40.02749605991988" lon="18.438964635363636"><ele>40.0</ele><time>2026-04-05T06:19:10Z</time></trkpt><trkpt lat="40.02739064685256" lon="18.43878413411367"><ele>40.0</ele><time>2026-04-05T06:19:11Z</time></trkpt><trkpt lat="40.02728962717756" lon="18.43859829050569"><ele>38.333333333333336</ele><time>2026-04-05T06:19:12Z</time></trkpt><trkpt lat="40.02719938290726" lon="18.43840030341964"><ele>36.666666666666664</ele><time>2026-04-05T06:19:13Z</time></trkpt><trkpt lat="40.02711276357597" lon="18.43820712196694"><ele>35.0</ele><time>2026-04-05T06:19:14Z</time></trkpt><trkpt lat="40.02702887641529" lon="18.438020033475276"><ele>38.0</ele><time>2026-04-05T06:19:15Z</time></trkpt><trkpt lat="40.02694851484767" lon="18.437848690773087"><ele>41.0</ele><time>2026-04-05T06:19:16Z</time></trkpt><trkpt lat="40.02683543918326" lon="18.437690222215046"><ele>44.0</ele><time>2026-04-05T06:19:17Z</time></trkpt><trkpt lat="40.026716753214004" lon="18.437551986767005"><ele>42.0</ele><time>2026-04-05T06:19:18Z</time></trkpt><trkpt lat="40.02660909521762" lon="18.437422488253222"><ele>40.0</ele><time>2026-04-05T06:19:19Z</time></trkpt><trkpt lat="40.02650912910358" lon="18.437291738964266"><ele>38.0</ele><time>2026-04-05T06:19:20Z</time></trkpt><trkpt lat="40.02642478965397" lon="18.43713695405896"><ele>36.0</ele><time>2026-04-05T06:19:21Z</time></trkpt><trkpt lat="40.026342395375046" lon="18.4369602299112"><ele>36.0</ele><time>2026-04-05T06:19:22Z</time></trkpt><trkpt lat="40.02626060422198" lon="18.436779526441033"><ele>36.0</ele><time>2026-04-05T06:19:23Z</time></trkpt><trkpt lat="40.02617073332662" lon="18.436638667380095"><ele>36.0</ele><time>2026-04-05T06:19:24Z</time></trkpt><trkpt lat="40.02606543450078" lon="18.43654860036096"><ele>36.0</ele><time>2026-04-05T06:19:25Z</time></trkpt><trkpt lat="40.02597982336939" lon="18.43645915596621"><ele>36.0</ele><time>2026-04-05T06:19:26Z</time></trkpt><trkpt lat="40.025922460265555" lon="18.436354848627328"><ele>36.0</ele><time>2026-04-05T06:19:27Z</time></trkpt><trkpt lat="40.025884887502315" lon="18.436234538009817"><ele>36.0</ele><time>2026-04-05T06:19:28Z</time></trkpt><trkpt lat="40.0258377523846" lon="18.436097431486267"><ele>36.0</ele><time>2026-04-05T06:19:29Z</time></trkpt><trkpt lat="40.02578441986706" lon="18.435969462990585"><ele>36.0</ele><time>2026-04-05T06:19:30Z</time></trkpt><trkpt lat="40.02567935083199" lon="18.43583826002235"><ele>39.333333333333336</ele><time>2026-04-05T06:19:31Z</time></trkpt><trkpt lat="40.025572584800706" lon="18.435688344959456"><ele>42.66666666666667</ele><time>2026-04-05T06:19:32.001Z</time></trkpt><trkpt lat="40.02545907174204" lon="18.435528955191266"><ele>46.0</ele><time>2026-04-05T06:19:33.001Z</time></trkpt><trkpt lat="40.0253418070594" lon="18.435359851034615"><ele>46.0</ele><time>2026-04-05T06:19:34.001Z</time></trkpt><trkpt lat="40.02523288449751" lon="18.43520006476394"><ele>46.0</ele><time>2026-04-05T06:19:35.001Z</time></trkpt><trkpt lat="40.02513062787944" lon="18.435059119360933"><ele>46.0</ele><time>2026-04-05T06:19:36.001Z</time></trkpt><trkpt lat="40.02501664376073" lon="18.434936346605912"><ele>37.66666666666667</ele><time>2026-04-05T06:19:37.001Z</time></trkpt><trkpt lat="40.02488471032418" lon="18.43483947311787"><ele>29.333333333333336</ele><time>2026-04-05T06:19:38.001Z</time></trkpt><trkpt lat="40.02473306576356" lon="18.43477394169864"><ele>21.0</ele><time>2026-04-05T06:19:39.001Z</time></trkpt><trkpt lat="40.024567239902645" lon="18.434709180046582"><ele>24.333333333333336</ele><time>2026-04-05T06:19:40.001Z</time></trkpt><trkpt lat="40.024408376637886" lon="18.434616746227185"><ele>27.666666666666668</ele><time>2026-04-05T06:19:41.001Z</time></trkpt><trkpt lat="40.02425337018249" lon="18.4345630979327"><ele>31.0</ele><time>2026-04-05T06:19:42.001Z</time></trkpt><trkpt lat="40.02412225598154" lon="18.43448885776311"><ele>31.0</ele><time>2026-04-05T06:19:43.001Z</time></trkpt><trkpt lat="40.02401117411528" lon="18.43439074677734"><ele>31.0</ele><time>2026-04-05T06:19:44.001Z</time></trkpt><trkpt lat="40.023929184559066" lon="18.43424509192388"><ele>31.0</ele><time>2026-04-05T06:19:45.001Z</time></trkpt><trkpt lat="40.02382996484593" lon="18.434122773850373"><ele>31.0</ele><time>2026-04-05T06:19:46.001Z</time></trkpt><trkpt lat="40.02372825249441" lon="18.434006428581732"><ele>31.0</ele><time>2026-04-05T06:19:47.001Z</time></trkpt><trkpt lat="40.02360131183404" lon="18.433933018481973"><ele>31.0</ele><time>2026-04-05T06:19:48.001Z</time></trkpt><trkpt lat="40.02346659752655" lon="18.433870702931856"><ele>31.0</ele><time>2026-04-05T06:19:49.001Z</time></trkpt><trkpt lat="40.02331886313919" lon="18.43380815592051"><ele>31.0</ele><time>2026-04-05T06:19:50.001Z</time></trkpt><trkpt lat="40.023174172654706" lon="18.433753074113092"><ele>39.0</ele><time>2026-04-05T06:19:51.001Z</time></trkpt><trkpt lat="40.02303019517519" lon="18.43372360557186"><ele>47.0</ele><time>2026-04-05T06:19:52.001Z</time></trkpt><trkpt lat="40.02289749423137" lon="18.433689175826387"><ele>55.0</ele><time>2026-04-05T06:19:53.001Z</time></trkpt><trkpt lat="40.022767239739814" lon="18.43369301996616"><ele>63.0</ele><time>2026-04-05T06:19:54.001Z</time></trkpt><trkpt lat="40.02265409615583" lon="18.43375821255501"><ele>58.0</ele><time>2026-04-05T06:19:55.001Z</time></trkpt><trkpt lat="40.02252882313281" lon="18.43383703323952"><ele>53.0</ele><time>2026-04-05T06:19:56.001Z</time></trkpt><trkpt lat="40.02238625572516" lon="18.43392847405535"><ele>48.0</ele><time>2026-04-05T06:19:57.001Z</time></trkpt><trkpt lat="40.02224002855404" lon="18.43402535407896"><ele>48.0</ele><time>2026-04-05T06:19:58.001Z</time></trkpt><trkpt lat="40.02210981435841" lon="18.434105388284"><ele>48.0</ele><time>2026-04-05T06:19:59.001Z</time></trkpt><trkpt lat="40.02196978340972" lon="18.434133276198494"><ele>48.0</ele><time>2026-04-05T06:20:00.001Z</time></trkpt><trkpt lat="40.02180951203697" lon="18.434163643670836"><ele>48.0</ele><time>2026-04-05T06:20:01.001Z</time></trkpt><trkpt lat="40.021641646461" lon="18.43419712516604"><ele>48.33333333333333</ele><time>2026-04-05T06:20:02.001Z</time></trkpt><trkpt lat="40.02147152708267" lon="18.43423178248151"><ele>48.666666666666664</ele><time>2026-04-05T06:20:03.001Z</time></trkpt><trkpt lat="40.021308170211526" lon="18.434282402542415"><ele>49.0</ele><time>2026-04-05T06:20:04.001Z</time></trkpt><trkpt lat="40.02115571238669" lon="18.434282690496634"><ele>49.0</ele><time>2026-04-05T06:20:05.001Z</time></trkpt><trkpt lat="40.020986835222935" lon="18.434264306762884"><ele>49.0</ele><time>2026-04-05T06:20:06.001Z</time></trkpt><trkpt lat="40.02080277985378" lon="18.434248924811968"><ele>49.0</ele><time>2026-04-05T06:20:07.001Z</time></trkpt><trkpt lat="40.0206359066922" lon="18.434193767458257"><ele>47.33333333333333</ele><time>2026-04-05T06:20:08Z</time></trkpt><trkpt lat="40.020493926699636" lon="18.434124481123586"><ele>45.666666666666664</ele><time>2026-04-05T06:20:09Z</time></trkpt><trkpt lat="40.02035170650695" lon="18.4340221594714"><ele>44.0</ele><time>2026-04-05T06:20:10Z</time></trkpt><trkpt lat="40.02021440248163" lon="18.433889919495503"><ele>47.33333333333333</ele><time>2026-04-05T06:20:11Z</time></trkpt><trkpt lat="40.020092894480946" lon="18.43375588726524"><ele>50.666666666666664</ele><time>2026-04-05T06:20:12Z</time></trkpt><trkpt lat="40.019948543544245" lon="18.433634860321156"><ele>54.0</ele><time>2026-04-05T06:20:13Z</time></trkpt><trkpt lat="40.01979441477836" lon="18.43353144283774"><ele>54.0</ele><time>2026-04-05T06:20:14Z</time></trkpt><trkpt lat="40.019644654827786" lon="18.433454803899075"><ele>54.0</ele><time>2026-04-05T06:20:15Z</time></trkpt><trkpt lat="40.01949621745231" lon="18.43340948012389"><ele>54.0</ele><time>2026-04-05T06:20:16Z</time></trkpt><trkpt lat="40.01933202867351" lon="18.433366381425436"><ele>54.0</ele><time>2026-04-05T06:20:17Z</time></trkpt><trkpt lat="40.01915387339186" lon="18.433327695767314"><ele>54.0</ele><time>2026-04-05T06:20:18Z</time></trkpt><trkpt lat="40.01897179008481" lon="18.43328073928774"><ele>54.0</ele><time>2026-04-05T06:20:19Z</time></trkpt><trkpt lat="40.01878517771966" lon="18.433230270280927"><ele>52.66666666666667</ele><time>2026-04-05T06:20:20Z</time></trkpt><trkpt lat="40.01859907853309" lon="18.4331863088213"><ele>51.333333333333336</ele><time>2026-04-05T06:20:21Z</time></trkpt><trkpt lat="40.01841512933861" lon="18.433146233395178"><ele>50.0</ele><time>2026-04-05T06:20:22Z</time></trkpt><trkpt lat="40.0182418270967" lon="18.433108352465922"><ele>47.66666666666667</ele><time>2026-04-05T06:20:23Z</time></trkpt><trkpt lat="40.018079074844394" lon="18.433074055151685"><ele>45.333333333333336</ele><time>2026-04-05T06:20:24Z</time></trkpt><trkpt lat="40.01792076447778" lon="18.433023188061718"><ele>43.0</ele><time>2026-04-05T06:20:25Z</time></trkpt><trkpt lat="40.017754667808106" lon="18.43294934755105"><ele>46.333333333333336</ele><time>2026-04-05T06:20:26Z</time></trkpt><trkpt lat="40.017578491036296" lon="18.432865599056967"><ele>49.66666666666667</ele><time>2026-04-05T06:20:27Z</time></trkpt><trkpt lat="40.01738877770572" lon="18.432774808784032"><ele>53.0</ele><time>2026-04-05T06:20:28Z</time></trkpt><trkpt lat="40.01720354283329" lon="18.43269931396087"><ele>53.0</ele><time>2026-04-05T06:20:29Z</time></trkpt><trkpt lat="40.017023764020834" lon="18.43261580979024"><ele>53.0</ele><time>2026-04-05T06:20:30Z</time></trkpt><trkpt lat="40.01684799021205" lon="18.432539487729358"><ele>53.0</ele><time>2026-04-05T06:20:31Z</time></trkpt><trkpt lat="40.01668353550811" lon="18.432482133540713"><ele>53.333333333333336</ele><time>2026-04-05T06:20:32Z</time></trkpt><trkpt lat="40.01652718520613" lon="18.43244318673178"><ele>53.66666666666667</ele><time>2026-04-05T06:20:33Z</time></trkpt><trkpt lat="40.01637836438693" lon="18.43243598070861"><ele>54.0</ele><time>2026-04-05T06:20:34Z</time></trkpt><trkpt lat="40.01622919435102" lon="18.43245146975623"><ele>54.0</ele><time>2026-04-05T06:20:35Z</time></trkpt><trkpt lat="40.01609818610802" lon="18.432452293900052"><ele>54.0</ele><time>2026-04-05T06:20:36Z</time></trkpt><trkpt lat="40.015971263473915" lon="18.43246850281477"><ele>54.0</ele><time>2026-04-05T06:20:37Z</time></trkpt><trkpt lat="40.01584880882454" lon="18.432463890624472"><ele>54.0</ele><time>2026-04-05T06:20:38Z</time></trkpt><trkpt lat="40.01573295375786" lon="18.432454540048173"><ele>52.75</ele><time>2026-04-05T06:20:39Z</time></trkpt><trkpt lat="40.01561618096468" lon="18.432392205267995"><ele>51.5</ele><time>2026-04-05T06:20:40Z</time></trkpt><trkpt lat="40.015490562305295" lon="18.43232632309878"><ele>50.25</ele><time>2026-04-05T06:20:41Z</time></trkpt><trkpt lat="40.01535488298267" lon="18.432244333614694"><ele>49.0</ele><time>2026-04-05T06:20:42Z</time></trkpt><trkpt lat="40.01520989418547" lon="18.432147134166122"><ele>50.666666666666664</ele><time>2026-04-05T06:20:43Z</time></trkpt><trkpt lat="40.01506168681294" lon="18.432053271242395"><ele>52.33333333333333</ele><time>2026-04-05T06:20:44Z</time></trkpt><trkpt lat="40.014920189032345" lon="18.431963623784714"><ele>54.0</ele><time>2026-04-05T06:20:45Z</time></trkpt><trkpt lat="40.01478337360203" lon="18.43188037025284"><ele>54.0</ele><time>2026-04-05T06:20:46Z</time></trkpt><trkpt lat="40.01464998671144" lon="18.431796443954763"><ele>54.0</ele><time>2026-04-05T06:20:47Z</time></trkpt><trkpt lat="40.014522678671064" lon="18.431705332162636"><ele>54.0</ele><time>2026-04-05T06:20:48Z</time></trkpt><trkpt lat="40.014385781234886" lon="18.43161201569433"><ele>54.0</ele><time>2026-04-05T06:20:49Z</time></trkpt><trkpt lat="40.01426528935658" lon="18.431507374290376"><ele>55.25</ele><time>2026-04-05T06:20:50Z</time></trkpt><trkpt lat="40.014146520164694" lon="18.431397988281116"><ele>56.5</ele><time>2026-04-05T06:20:51Z</time></trkpt><trkpt lat="40.014032110271806" lon="18.431284824522738"><ele>57.75</ele><time>2026-04-05T06:20:52Z</time></trkpt><trkpt lat="40.013889470067205" lon="18.43122399762594"><ele>59.0</ele><time>2026-04-05T06:20:53Z</time></trkpt><trkpt lat="40.0137434575984" lon="18.431185796838907"><ele>59.0</ele><time>2026-04-05T06:20:54Z</time></trkpt><trkpt lat="40.013602190122256" lon="18.431161989229935"><ele>59.0</ele><time>2026-04-05T06:20:55Z</time></trkpt><trkpt lat="40.013478195906735" lon="18.431132613788872"><ele>59.0</ele><time>2026-04-05T06:20:56Z</time></trkpt><trkpt lat="40.013383758704634" lon="18.43109888351399"><ele>59.0</ele><time>2026-04-05T06:20:57Z</time></trkpt><trkpt lat="40.01329187824909" lon="18.431025681134773"><ele>55.2</ele><time>2026-04-05T06:20:58Z</time></trkpt><trkpt lat="40.01322053387264" lon="18.43089719179317"><ele>51.400000000000006</ele><time>2026-04-05T06:20:59Z</time></trkpt><trkpt lat="40.01312622253318" lon="18.430790434389866"><ele>47.6</ele><time>2026-04-05T06:21:00Z</time></trkpt><trkpt lat="40.013012268956835" lon="18.430726323180078"><ele>43.8</ele><time>2026-04-05T06:21:01Z</time></trkpt><trkpt lat="40.012950132411746" lon="18.430687388565847"><ele>40.0</ele><time>2026-04-05T06:21:02Z</time></trkpt><trkpt lat="40.01289376612781" lon="18.430616084578038"><ele>40.0</ele><time>2026-04-05T06:21:03Z</time></trkpt><trkpt lat="40.01285918518852" lon="18.430522411206905"><ele>40.0</ele><time>2026-04-05T06:21:04Z</time></trkpt><trkpt lat="40.012845530446" lon="18.430407996068972"><ele>40.0</ele><time>2026-04-05T06:21:05Z</time></trkpt><trkpt lat="40.01282953889639" lon="18.43027969738466"><ele>40.0</ele><time>2026-04-05T06:21:06Z</time></trkpt><trkpt lat="40.01278379146014" lon="18.430177775827726"><ele>40.0</ele><time>2026-04-05T06:21:07Z</time></trkpt><trkpt lat="40.012714360585896" lon="18.430095711787096"><ele>42.25</ele><time>2026-04-05T06:21:08Z</time></trkpt><trkpt lat="40.012614676248276" lon="18.43005067803841"><ele>44.5</ele><time>2026-04-05T06:21:09Z</time></trkpt><trkpt lat="40.01250716885675" lon="18.43003759300266"><ele>46.75</ele><time>2026-04-05T06:21:10Z</time></trkpt><trkpt lat="40.01238222568742" lon="18.430060646602467"><ele>49.0</ele><time>2026-04-05T06:21:11Z</time></trkpt><trkpt lat="40.01226870173831" lon="18.430102590899477"><ele>49.0</ele><time>2026-04-05T06:21:12Z</time></trkpt><trkpt lat="40.01216552293337" lon="18.430143157335472"><ele>49.0</ele><time>2026-04-05T06:21:13Z</time></trkpt><trkpt lat="40.01205497569357" lon="18.430146613367647"><ele>49.0</ele><time>2026-04-05T06:21:14Z</time></trkpt><trkpt lat="40.01195806418503" lon="18.430079681694547"><ele>49.0</ele><time>2026-04-05T06:21:15Z</time></trkpt><trkpt lat="40.01185609814541" lon="18.43000922927401"><ele>49.0</ele><time>2026-04-05T06:21:16Z</time></trkpt><trkpt lat="40.011728128769555" lon="18.429916909367527"><ele>47.666666666666664</ele><time>2026-04-05T06:21:17Z</time></trkpt><trkpt lat="40.01159358854991" lon="18.42982043538372"><ele>46.33333333333333</ele><time>2026-04-05T06:21:18Z</time></trkpt><trkpt lat="40.01146051992859" lon="18.4297295229727"><ele>45.0</ele><time>2026-04-05T06:21:19Z</time></trkpt><trkpt lat="40.01131642637648" lon="18.42964904109271"><ele>53.0</ele><time>2026-04-05T06:21:20Z</time></trkpt><trkpt lat="40.011165757115776" lon="18.42958525694556"><ele>61.0</ele><time>2026-04-05T06:21:21Z</time></trkpt><trkpt lat="40.01102015353278" lon="18.42952705955351"><ele>69.0</ele><time>2026-04-05T06:21:22Z</time></trkpt><trkpt lat="40.01088172573219" lon="18.429471353210907"><ele>68.75</ele><time>2026-04-05T06:21:23Z</time></trkpt><trkpt lat="40.010758052206754" lon="18.42942705882435"><ele>68.5</ele><time>2026-04-05T06:21:24Z</time></trkpt><trkpt lat="40.010637072023776" lon="18.429398181057753"><ele>68.25</ele><time>2026-04-05T06:21:25Z</time></trkpt><trkpt lat="40.01051469720196" lon="18.429393284132377"><ele>68.0</ele><time>2026-04-05T06:21:26Z</time></trkpt><trkpt lat="40.01038407989453" lon="18.42941283504629"><ele>68.0</ele><time>2026-04-05T06:21:27Z</time></trkpt><trkpt lat="40.010250409097864" lon="18.42943383018545"><ele>68.0</ele><time>2026-04-05T06:21:28Z</time></trkpt><trkpt lat="40.0101023731001" lon="18.42946057484775"><ele>68.0</ele><time>2026-04-05T06:21:29Z</time></trkpt><trkpt lat="40.0099477645337" lon="18.429479553401098"><ele>68.0</ele><time>2026-04-05T06:21:30.001Z</time></trkpt><trkpt lat="40.009793776333055" lon="18.429502918268973"><ele>70.33333333333334</ele><time>2026-04-05T06:21:31.001Z</time></trkpt><trkpt lat="40.00964306876984" lon="18.42952747962757"><ele>72.66666666666667</ele><time>2026-04-05T06:21:32.001Z</time></trkpt><trkpt lat="40.009489511497236" lon="18.429556582717066"><ele>75.0</ele><time>2026-04-05T06:21:33.001Z</time></trkpt><trkpt lat="40.00934138583816" lon="18.42957826256744"><ele>75.0</ele><time>2026-04-05T06:21:34.001Z</time></trkpt><trkpt lat="40.00919469694388" lon="18.42961925330934"><ele>75.0</ele><time>2026-04-05T06:21:35.001Z</time></trkpt><trkpt lat="40.00904687059708" lon="18.42967527019511"><ele>75.0</ele><time>2026-04-05T06:21:36.001Z</time></trkpt><trkpt lat="40.008896405217094" lon="18.42973520891058"><ele>70.5</ele><time>2026-04-05T06:21:37.001Z</time></trkpt><trkpt lat="40.008759959769776" lon="18.429804961917842"><ele>66.0</ele><time>2026-04-05T06:21:38.001Z</time></trkpt><trkpt lat="40.00862366836754" lon="18.42988731658962"><ele>61.5</ele><time>2026-04-05T06:21:39.001Z</time></trkpt><trkpt lat="40.00848132840336" lon="18.429927249647456"><ele>57.0</ele><time>2026-04-05T06:21:40.001Z</time></trkpt><trkpt lat="40.00834517024998" lon="18.429950704891056"><ele>57.5</ele><time>2026-04-05T06:21:41.001Z</time></trkpt><trkpt lat="40.008200124165946" lon="18.42993842700337"><ele>58.0</ele><time>2026-04-05T06:21:42.001Z</time></trkpt><trkpt lat="40.00805433849075" lon="18.429938733118657"><ele>58.5</ele><time>2026-04-05T06:21:43.001Z</time></trkpt><trkpt lat="40.007901697529896" lon="18.429957617545828"><ele>59.0</ele><time>2026-04-05T06:21:44.001Z</time></trkpt><trkpt lat="40.007742472059654" lon="18.429946206769962"><ele>59.0</ele><time>2026-04-05T06:21:45.001Z</time></trkpt><trkpt lat="40.00758988988766" lon="18.429956845014452"><ele>59.0</ele><time>2026-04-05T06:21:46.001Z</time></trkpt><trkpt lat="40.00745327405638" lon="18.42996014529282"><ele>59.0</ele><time>2026-04-05T06:21:47.001Z</time></trkpt><trkpt lat="40.00731853427805" lon="18.429976142042452"><ele>59.0</ele><time>2026-04-05T06:21:48.001Z</time></trkpt><trkpt lat="40.00718950833986" lon="18.429983007028945"><ele>58.25</ele><time>2026-04-05T06:21:49.001Z</time></trkpt><trkpt lat="40.00706269180473" lon="18.429930549162183"><ele>57.5</ele><time>2026-04-05T06:21:50.001Z</time></trkpt><trkpt lat="40.006916814949335" lon="18.429861881094293"><ele>56.75</ele><time>2026-04-05T06:21:51.001Z</time></trkpt><trkpt lat="40.00678128458838" lon="18.429788879572705"><ele>56.0</ele><time>2026-04-05T06:21:52.001Z</time></trkpt><trkpt lat="40.0066342650769" lon="18.429705321466386"><ele>58.5</ele><time>2026-04-05T06:21:53.001Z</time></trkpt><trkpt lat="40.006489557923196" lon="18.429622364347033"><ele>61.0</ele><time>2026-04-05T06:21:54.001Z</time></trkpt><trkpt lat="40.006350619025696" lon="18.429545256168215"><ele>63.5</ele><time>2026-04-05T06:21:55.001Z</time></trkpt><trkpt lat="40.006215810899484" lon="18.429493841673615"><ele>66.0</ele><time>2026-04-05T06:21:56.001Z</time></trkpt><trkpt lat="40.00609144487141" lon="18.429415910662126"><ele>66.0</ele><time>2026-04-05T06:21:57.001Z</time></trkpt><trkpt lat="40.00597805372859" lon="18.42935635561335"><ele>66.0</ele><time>2026-04-05T06:21:58.001Z</time></trkpt><trkpt lat="40.00585960505593" lon="18.429302957683475"><ele>66.0</ele><time>2026-04-05T06:21:59.001Z</time></trkpt><trkpt lat="40.00573841347223" lon="18.429272995050454"><ele>66.0</ele><time>2026-04-05T06:22:00.001Z</time></trkpt><trkpt lat="40.00561219259114" lon="18.429259827102946"><ele>66.75</ele><time>2026-04-05T06:22:01.001Z</time></trkpt><trkpt lat="40.005474912959805" lon="18.42926979396535"><ele>67.5</ele><time>2026-04-05T06:22:02.001Z</time></trkpt><trkpt lat="40.00533273857178" lon="18.42926534101555"><ele>68.25</ele><time>2026-04-05T06:22:03.001Z</time></trkpt><trkpt lat="40.00521221622216" lon="18.429287684462757"><ele>69.0</ele><time>2026-04-05T06:22:04.001Z</time></trkpt><trkpt lat="40.00509373180505" lon="18.429303204102663"><ele>68.5</ele><time>2026-04-05T06:22:05.001Z</time></trkpt><trkpt lat="40.004972015656605" lon="18.429313706789266"><ele>68.0</ele><time>2026-04-05T06:22:06.001Z</time></trkpt><trkpt lat="40.004854562966116" lon="18.429308673866228"><ele>67.5</ele><time>2026-04-05T06:22:07.001Z</time></trkpt><trkpt lat="40.00475463343695" lon="18.42929161583466"><ele>67.0</ele><time>2026-04-05T06:22:08.001Z</time></trkpt><trkpt lat="40.00463634123274" lon="18.42928754269153"><ele>67.0</ele><time>2026-04-05T06:22:09.001Z</time></trkpt><trkpt lat="40.00450840124379" lon="18.429250132308372"><ele>67.0</ele><time>2026-04-05T06:22:10.001Z</time></trkpt><trkpt lat="40.00436753217654" lon="18.429248209077798"><ele>67.0</ele><time>2026-04-05T06:22:11.001Z</time></trkpt><trkpt lat="40.00422905032972" lon="18.42923361909796"><ele>67.0</ele><time>2026-04-05T06:22:12.001Z</time></trkpt><trkpt lat="40.00409848093755" lon="18.429226275763753"><ele>66.0</ele><time>2026-04-05T06:22:13.001Z</time></trkpt><trkpt lat="40.003984573760334" lon="18.42921245115908"><ele>65.0</ele><time>2026-04-05T06:22:14Z</time></trkpt><trkpt lat="40.00387038551349" lon="18.42919721843782"><ele>64.0</ele><time>2026-04-05T06:22:15Z</time></trkpt><trkpt lat="40.00375314033894" lon="18.429168221312974"><ele>63.0</ele><time>2026-04-05T06:22:16Z</time></trkpt><trkpt lat="40.00364465648073" lon="18.429142735092604"><ele>63.0</ele><time>2026-04-05T06:22:17Z</time></trkpt><trkpt lat="40.00352519683868" lon="18.429113367977045"><ele>63.0</ele><time>2026-04-05T06:22:18Z</time></trkpt><trkpt lat="40.00342128083075" lon="18.429067275660223"><ele>63.0</ele><time>2026-04-05T06:22:19Z</time></trkpt><trkpt lat="40.003317319629645" lon="18.4290352933577"><ele>63.0</ele><time>2026-04-05T06:22:20Z</time></trkpt><trkpt lat="40.00321829870766" lon="18.429007520581422"><ele>63.0</ele><time>2026-04-05T06:22:21Z</time></trkpt><trkpt lat="40.00311754209312" lon="18.42898062052274"><ele>61.8</ele><time>2026-04-05T06:22:22Z</time></trkpt><trkpt lat="40.0030209124965" lon="18.428952483854168"><ele>60.599999999999994</ele><time>2026-04-05T06:22:23Z</time></trkpt><trkpt lat="40.002925205446104" lon="18.428927270565342"><ele>59.400000000000006</ele><time>2026-04-05T06:22:24Z</time></trkpt><trkpt lat="40.002837457690525" lon="18.428900687759803"><ele>58.2</ele><time>2026-04-05T06:22:25Z</time></trkpt><trkpt lat="40.002742733415616" lon="18.428875003950186"><ele>57.0</ele><time>2026-04-05T06:22:26Z</time></trkpt><trkpt lat="40.002643527003876" lon="18.428844882490118"><ele>57.0</ele><time>2026-04-05T06:22:27Z</time></trkpt><trkpt lat="40.00255460582898" lon="18.428816039189503"><ele>57.0</ele><time>2026-04-05T06:22:28Z</time></trkpt><trkpt lat="40.00246306995755" lon="18.428792354596983"><ele>57.0</ele><time>2026-04-05T06:22:29Z</time></trkpt><trkpt lat="40.00238172019314" lon="18.428769723861524"><ele>57.0</ele><time>2026-04-05T06:22:30Z</time></trkpt><trkpt lat="40.0023054547061" lon="18.428724650215788"><ele>57.0</ele><time>2026-04-05T06:22:31Z</time></trkpt><trkpt lat="40.00223881203268" lon="18.428669825502364"><ele>57.0</ele><time>2026-04-05T06:22:32Z</time></trkpt><trkpt lat="40.00221578303156" lon="18.42856797382348"><ele>53.6</ele><time>2026-04-05T06:22:33Z</time></trkpt><trkpt lat="40.002212695669094" lon="18.428464232182733"><ele>50.2</ele><time>2026-04-05T06:22:34Z</time></trkpt><trkpt lat="40.00222006129547" lon="18.42834618314927"><ele>46.8</ele><time>2026-04-05T06:22:35Z</time></trkpt><trkpt lat="40.0022668460724" lon="18.428281848858802"><ele>43.4</ele><time>2026-04-05T06:22:36Z</time></trkpt><trkpt lat="40.00234526585453" lon="18.428184931548458"><ele>40.0</ele><time>2026-04-05T06:22:37Z</time></trkpt><trkpt lat="40.002441421161045" lon="18.42805619013663"><ele>42.2</ele><time>2026-04-05T06:22:38Z</time></trkpt><trkpt lat="40.00253780402071" lon="18.42797699535265"><ele>44.4</ele><time>2026-04-05T06:22:39Z</time></trkpt><trkpt lat="40.002605489679944" lon="18.4278574799224"><ele>46.599999999999994</ele><time>2026-04-05T06:22:40Z</time></trkpt><trkpt lat="40.00267155637448" lon="18.427764338150258"><ele>48.8</ele><time>2026-04-05T06:22:41Z</time></trkpt><trkpt lat="40.00272706956176" lon="18.42766766096591"><ele>51.0</ele><time>2026-04-05T06:22:42Z</time></trkpt><trkpt lat="40.002800149406085" lon="18.427581758545642"><ele>51.0</ele><time>2026-04-05T06:22:43Z</time></trkpt><trkpt lat="40.00287008743623" lon="18.427500324856045"><ele>51.0</ele><time>2026-04-05T06:22:44Z</time></trkpt><trkpt lat="40.00294161681127" lon="18.42742273006751"><ele>51.0</ele><time>2026-04-05T06:22:45Z</time></trkpt><trkpt lat="40.00301415893614" lon="18.42732208212905"><ele>51.0</ele><time>2026-04-05T06:22:46Z</time></trkpt><trkpt lat="40.00307052825387" lon="18.427244224947035"><ele>51.0</ele><time>2026-04-05T06:22:47Z</time></trkpt><trkpt lat="40.00313484938196" lon="18.427166314982017"><ele>51.599999999999994</ele><time>2026-04-05T06:22:48Z</time></trkpt><trkpt lat="40.00319750491088" lon="18.427092636818145"><ele>52.2</ele><time>2026-04-05T06:22:49Z</time></trkpt><trkpt lat="40.00326262077287" lon="18.427010167895883"><ele>52.800000000000004</ele><time>2026-04-05T06:22:50Z</time></trkpt><trkpt lat="40.003327057959645" lon="18.426924033710588"><ele>53.400000000000006</ele><time>2026-04-05T06:22:51Z</time></trkpt><trkpt lat="40.00339793226079" lon="18.42683699243931"><ele>54.0</ele><time>2026-04-05T06:22:52Z</time></trkpt><trkpt lat="40.0034685881049" lon="18.426755886807893"><ele>54.0</ele><time>2026-04-05T06:22:53Z</time></trkpt><trkpt lat="40.0035315958546" lon="18.42666470022013"><ele>54.00000000000001</ele><time>2026-04-05T06:22:54Z</time></trkpt><trkpt lat="40.00359807620223" lon="18.426577114042725"><ele>54.00000000000001</ele><time>2026-04-05T06:22:55Z</time></trkpt><trkpt lat="40.00366744917601" lon="18.426495313490367"><ele>54.0</ele><time>2026-04-05T06:22:56Z</time></trkpt><trkpt lat="40.00373994730388" lon="18.42641244026475"><ele>54.0</ele><time>2026-04-05T06:22:57Z</time></trkpt><trkpt lat="40.00380662081272" lon="18.426330248135905"><ele>53.5</ele><time>2026-04-05T06:22:58Z</time></trkpt><trkpt lat="40.00387403793451" lon="18.426251015320695"><ele>53.0</ele><time>2026-04-05T06:22:59Z</time></trkpt><trkpt lat="40.00393781608024" lon="18.4261667929271"><ele>52.5</ele><time>2026-04-05T06:23:00Z</time></trkpt><trkpt lat="40.004010421584724" lon="18.426111498788845"><ele>52.0</ele><time>2026-04-05T06:23:01Z</time></trkpt><trkpt lat="40.00408413251454" lon="18.426054775218844"><ele>51.5</ele><time>2026-04-05T06:23:02Z</time></trkpt><trkpt lat="40.004162152346034" lon="18.42599667864104"><ele>51.0</ele><time>2026-04-05T06:23:03Z</time></trkpt><trkpt lat="40.00425373624939" lon="18.425934940415875"><ele>51.0</ele><time>2026-04-05T06:23:04Z</time></trkpt><trkpt lat="40.00434727558747" lon="18.42587765301276"><ele>51.0</ele><time>2026-04-05T06:23:05Z</time></trkpt><trkpt lat="40.00443930318459" lon="18.425797224146148"><ele>51.0</ele><time>2026-04-05T06:23:06Z</time></trkpt><trkpt lat="40.004536967798195" lon="18.42572948166935"><ele>51.0</ele><time>2026-04-05T06:23:07Z</time></trkpt><trkpt lat="40.004627621398754" lon="18.4256650041628"><ele>51.0</ele><time>2026-04-05T06:23:08Z</time></trkpt><trkpt lat="40.00471450282986" lon="18.42559617347929"><ele>51.0</ele><time>2026-04-05T06:23:09Z</time></trkpt><trkpt lat="40.004795346443366" lon="18.42552966061435"><ele>51.0</ele><time>2026-04-05T06:23:10Z</time></trkpt><trkpt lat="40.004878316804465" lon="18.425467961695425"><ele>51.0</ele><time>2026-04-05T06:23:11Z</time></trkpt><trkpt lat="40.0049603015731" lon="18.4254201355289"><ele>51.0</ele><time>2026-04-05T06:23:12Z</time></trkpt><trkpt lat="40.005035666294376" lon="18.425349961744"><ele>51.0</ele><time>2026-04-05T06:23:13Z</time></trkpt><trkpt lat="40.005120795899046" lon="18.42527962261908"><ele>50.599999999999994</ele><time>2026-04-05T06:23:14Z</time></trkpt><trkpt lat="40.00520031316272" lon="18.425212170753664"><ele>50.2</ele><time>2026-04-05T06:23:15Z</time></trkpt><trkpt lat="40.00528484274333" lon="18.42514975571936"><ele>49.8</ele><time>2026-04-05T06:23:16Z</time></trkpt><trkpt lat="40.00536900022073" lon="18.42511132036059"><ele>49.400000000000006</ele><time>2026-04-05T06:23:17Z</time></trkpt><trkpt lat="40.00544589708718" lon="18.42505342876027"><ele>49.0</ele><time>2026-04-05T06:23:18Z</time></trkpt><trkpt lat="40.0055385276294" lon="18.424977998942435"><ele>49.0</ele><time>2026-04-05T06:23:19Z</time></trkpt><trkpt lat="40.005611880547946" lon="18.424923549880887"><ele>49.0</ele><time>2026-04-05T06:23:20Z</time></trkpt><trkpt lat="40.00569855106472" lon="18.42488281024463"><ele>49.0</ele><time>2026-04-05T06:23:21Z</time></trkpt><trkpt lat="40.005766903308185" lon="18.42482003089319"><ele>49.0</ele><time>2026-04-05T06:23:22Z</time></trkpt><trkpt lat="40.00585317639799" lon="18.424700840460755"><ele>49.0</ele><time>2026-04-05T06:23:23Z</time></trkpt><trkpt lat="40.00590042657076" lon="18.4246068009916"><ele>48.6</ele><time>2026-04-05T06:23:24Z</time></trkpt><trkpt lat="40.00594580655972" lon="18.424490075166858"><ele>48.2</ele><time>2026-04-05T06:23:25Z</time></trkpt><trkpt lat="40.005966934405805" lon="18.42435189911284"><ele>47.800000000000004</ele><time>2026-04-05T06:23:26Z</time></trkpt><trkpt lat="40.00600077630365" lon="18.424232692034554"><ele>47.400000000000006</ele><time>2026-04-05T06:23:27Z</time></trkpt><trkpt lat="40.00602381751" lon="18.42411569488303"><ele>47.0</ele><time>2026-04-05T06:23:28Z</time></trkpt><trkpt lat="40.00604055980607" lon="18.424012977381114"><ele>47.0</ele><time>2026-04-05T06:23:29Z</time></trkpt><trkpt lat="40.00606735307261" lon="18.423906701618005"><ele>47.0</ele><time>2026-04-05T06:23:30Z</time></trkpt><trkpt lat="40.006093045718224" lon="18.423800763456274"><ele>47.0</ele><time>2026-04-05T06:23:31Z</time></trkpt><trkpt lat="40.006114818561635" lon="18.42369180904613"><ele>47.0</ele><time>2026-04-05T06:23:32Z</time></trkpt><trkpt lat="40.0061399605011" lon="18.423584461035638"><ele>47.0</ele><time>2026-04-05T06:23:33Z</time></trkpt><trkpt lat="40.006172731417976" lon="18.42347428032771"><ele>47.0</ele><time>2026-04-05T06:23:34Z</time></trkpt><trkpt lat="40.00620768120337" lon="18.423384243503936"><ele>46.33333333333333</ele><time>2026-04-05T06:23:35Z</time></trkpt><trkpt lat="40.0062462792633" lon="18.423294255553053"><ele>45.666666666666664</ele><time>2026-04-05T06:23:36Z</time></trkpt><trkpt lat="40.006285568359516" lon="18.42321228633773"><ele>45.0</ele><time>2026-04-05T06:23:37Z</time></trkpt><trkpt lat="40.00633658362479" lon="18.4231227067525"><ele>44.333333333333336</ele><time>2026-04-05T06:23:38Z</time></trkpt><trkpt lat="40.00639639170413" lon="18.423041159874938"><ele>43.66666666666667</ele><time>2026-04-05T06:23:39Z</time></trkpt><trkpt lat="40.0064652185325" lon="18.422955966618613"><ele>43.0</ele><time>2026-04-05T06:23:40.001Z</time></trkpt><trkpt lat="40.00652513601272" lon="18.422883462947002"><ele>42.66666666666667</ele><time>2026-04-05T06:23:41.001Z</time></trkpt><trkpt lat="40.00660172175617" lon="18.422810221578708"><ele>42.333333333333336</ele><time>2026-04-05T06:23:42.001Z</time></trkpt><trkpt lat="40.006662560595146" lon="18.42273117979653"><ele>42.0</ele><time>2026-04-05T06:23:43.001Z</time></trkpt><trkpt lat="40.0067148949774" lon="18.422670902051383"><ele>41.666666666666664</ele><time>2026-04-05T06:23:44.001Z</time></trkpt><trkpt lat="40.006777002210754" lon="18.42259284622723"><ele>41.33333333333333</ele><time>2026-04-05T06:23:45.001Z</time></trkpt><trkpt lat="40.006806646849284" lon="18.42250269489304"><ele>41.0</ele><time>2026-04-05T06:23:46.001Z</time></trkpt><trkpt lat="40.00681152271679" lon="18.422399887759035"><ele>41.5</ele><time>2026-04-05T06:23:47.001Z</time></trkpt><trkpt lat="40.00680827656709" lon="18.422311156374615"><ele>42.0</ele><time>2026-04-05T06:23:48.001Z</time></trkpt><trkpt lat="40.00679409535539" lon="18.422191282675904"><ele>42.5</ele><time>2026-04-05T06:23:49.001Z</time></trkpt><trkpt lat="40.00676017185772" lon="18.422095629027893"><ele>43.0</ele><time>2026-04-05T06:23:50.001Z</time></trkpt><trkpt lat="40.00668033309213" lon="18.42200103795717"><ele>43.5</ele><time>2026-04-05T06:23:51.001Z</time></trkpt><trkpt lat="40.00660125295673" lon="18.421924611580145"><ele>44.0</ele><time>2026-04-05T06:23:52.001Z</time></trkpt><trkpt lat="40.006527391636446" lon="18.421873578066723"><ele>44.800000000000004</ele><time>2026-04-05T06:23:53.001Z</time></trkpt><trkpt lat="40.00646391260691" lon="18.421814129487252"><ele>45.6</ele><time>2026-04-05T06:23:54.001Z</time></trkpt><trkpt lat="40.006415006724225" lon="18.4217543173201"><ele>46.4</ele><time>2026-04-05T06:23:55.001Z</time></trkpt><trkpt lat="40.00631632292549" lon="18.421671814964792"><ele>47.2</ele><time>2026-04-05T06:23:57.001Z</time></trkpt><trkpt lat="40.00619998009745" lon="18.42167108613028"><ele>48.0</ele><time>2026-04-05T06:23:59.001Z</time></trkpt><trkpt lat="40.006153114271505" lon="18.42176163636952"><ele>48.0</ele><time>2026-04-05T06:24:00.001Z</time></trkpt><trkpt lat="40.00608506752679" lon="18.421851721539568"><ele>48.0</ele><time>2026-04-05T06:24:01.001Z</time></trkpt><trkpt lat="40.006007287253645" lon="18.422025771787357"><ele>48.0</ele><time>2026-04-05T06:24:02.001Z</time></trkpt><trkpt lat="40.00593801570698" lon="18.42216329536142"><ele>48.0</ele><time>2026-04-05T06:24:03.001Z</time></trkpt><trkpt lat="40.00584836806363" lon="18.422299860513256"><ele>47.75</ele><time>2026-04-05T06:24:04.001Z</time></trkpt><trkpt lat="40.00574518983222" lon="18.422431909154806"><ele>47.5</ele><time>2026-04-05T06:24:05.001Z</time></trkpt><trkpt lat="40.00563799173782" lon="18.422565997695653"><ele>47.25</ele><time>2026-04-05T06:24:06.001Z</time></trkpt><trkpt lat="40.00553549798446" lon="18.422693294229603"><ele>47.0</ele><time>2026-04-05T06:24:07.001Z</time></trkpt><trkpt lat="40.0054192839946" lon="18.422802777079077"><ele>47.0</ele><time>2026-04-05T06:24:08.001Z</time></trkpt><trkpt lat="40.0053230289467" lon="18.422908157945475"><ele>47.0</ele><time>2026-04-05T06:24:09.001Z</time></trkpt><trkpt lat="40.005236804287804" lon="18.423005176469236"><ele>47.0</ele><time>2026-04-05T06:24:10.001Z</time></trkpt><trkpt lat="40.00515247601704" lon="18.423084033254884"><ele>47.0</ele><time>2026-04-05T06:24:11.001Z</time></trkpt><trkpt lat="40.00506140025161" lon="18.42317892716992"><ele>46.5</ele><time>2026-04-05T06:24:12.001Z</time></trkpt><trkpt lat="40.00496057074181" lon="18.423266429490766"><ele>46.0</ele><time>2026-04-05T06:24:13.001Z</time></trkpt><trkpt lat="40.00487605656093" lon="18.42337000871969"><ele>45.5</ele><time>2026-04-05T06:24:14.001Z</time></trkpt><trkpt lat="40.00477740983941" lon="18.42346278685004"><ele>45.0</ele><time>2026-04-05T06:24:15.001Z</time></trkpt><trkpt lat="40.004689252676435" lon="18.423526614856108"><ele>45.0</ele><time>2026-04-05T06:24:16.001Z</time></trkpt><trkpt lat="40.004592558871465" lon="18.423555863359113"><ele>45.0</ele><time>2026-04-05T06:24:17.001Z</time></trkpt><trkpt lat="40.004466952210365" lon="18.423581163816063"><ele>45.0</ele><time>2026-04-05T06:24:18.001Z</time></trkpt><trkpt lat="40.00434332027667" lon="18.42357528500512"><ele>45.0</ele><time>2026-04-05T06:24:19.001Z</time></trkpt><trkpt lat="40.004229756277894" lon="18.423567536911577"><ele>44.0</ele><time>2026-04-05T06:24:20Z</time></trkpt><trkpt lat="40.0041224218548" lon="18.423562424234124"><ele>43.0</ele><time>2026-04-05T06:24:21Z</time></trkpt><trkpt lat="40.00400022782912" lon="18.423556603751294"><ele>42.0</ele><time>2026-04-05T06:24:22Z</time></trkpt><trkpt lat="40.00388510678194" lon="18.423551093483916"><ele>41.0</ele><time>2026-04-05T06:24:23Z</time></trkpt><trkpt lat="40.003777674023716" lon="18.423566972318156"><ele>41.0</ele><time>2026-04-05T06:24:24Z</time></trkpt><trkpt lat="40.00366343348553" lon="18.42352138491873"><ele>41.0</ele><time>2026-04-05T06:24:25Z</time></trkpt><trkpt lat="40.00355385000554" lon="18.423526760550804"><ele>41.0</ele><time>2026-04-05T06:24:26Z</time></trkpt><trkpt lat="40.00345348290309" lon="18.423494152915797"><ele>41.0</ele><time>2026-04-05T06:24:27Z</time></trkpt><trkpt lat="40.003360870116175" lon="18.4234480501961"><ele>41.0</ele><time>2026-04-05T06:24:28Z</time></trkpt><trkpt lat="40.003304419635164" lon="18.423358651755578"><ele>40.83333333333333</ele><time>2026-04-05T06:24:29Z</time></trkpt><trkpt lat="40.00323648992787" lon="18.42326423337558"><ele>40.666666666666664</ele><time>2026-04-05T06:24:30Z</time></trkpt><trkpt lat="40.00319361165327" lon="18.4231851332388"><ele>40.5</ele><time>2026-04-05T06:24:31Z</time></trkpt><trkpt lat="40.003154481864975" lon="18.423104037281526"><ele>40.333333333333336</ele><time>2026-04-05T06:24:32Z</time></trkpt><trkpt lat="40.0031264576027" lon="18.423008233155276"><ele>40.16666666666667</ele><time>2026-04-05T06:24:35Z</time></trkpt><trkpt lat="40.003082183218886" lon="18.422887974914072"><ele>40.0</ele><time>2026-04-05T06:24:37Z</time></trkpt><trkpt lat="40.00305322163815" lon="18.42279260897435"><ele>40.0</ele><time>2026-04-05T06:24:38Z</time></trkpt><trkpt lat="40.00301516279762" lon="18.422679261939837"><ele>40.0</ele><time>2026-04-05T06:24:39Z</time></trkpt><trkpt lat="40.002953216910576" lon="18.422548016069157"><ele>40.0</ele><time>2026-04-05T06:24:40Z</time></trkpt><trkpt lat="40.00290664352745" lon="18.422416287512323"><ele>40.0</ele><time>2026-04-05T06:24:41Z</time></trkpt><trkpt lat="40.002853445696616" lon="18.42229044105203"><ele>40.0</ele><time>2026-04-05T06:24:42Z</time></trkpt><trkpt lat="40.00279140866573" lon="18.42215731844563"><ele>40.25</ele><time>2026-04-05T06:24:43Z</time></trkpt><trkpt lat="40.002718468583474" lon="18.42201977203263"><ele>40.5</ele><time>2026-04-05T06:24:44Z</time></trkpt><trkpt lat="40.00262073436742" lon="18.42186973841419"><ele>40.75</ele><time>2026-04-05T06:24:45Z</time></trkpt><trkpt lat="40.00252244574996" lon="18.42174379031382"><ele>41.0</ele><time>2026-04-05T06:24:46Z</time></trkpt><trkpt lat="40.002410460889884" lon="18.421637556483756"><ele>41.0</ele><time>2026-04-05T06:24:47Z</time></trkpt><trkpt lat="40.00229141928721" lon="18.421540228514164"><ele>41.0</ele><time>2026-04-05T06:24:48Z</time></trkpt><trkpt lat="40.002166720605395" lon="18.42147035279529"><ele>41.0</ele><time>2026-04-05T06:24:49Z</time></trkpt><trkpt lat="40.00202622181428" lon="18.421393400741486"><ele>41.0</ele><time>2026-04-05T06:24:50Z</time></trkpt><trkpt lat="40.00187373623504" lon="18.421316455879477"><ele>41.0</ele><time>2026-04-05T06:24:51Z</time></trkpt><trkpt lat="40.001707784251735" lon="18.421316825625702"><ele>41.0</ele><time>2026-04-05T06:24:52Z</time></trkpt><trkpt lat="40.00156707032209" lon="18.421328141615177"><ele>41.0</ele><time>2026-04-05T06:24:53Z</time></trkpt><trkpt lat="40.0013836109547" lon="18.421389618074144"><ele>40.0</ele><time>2026-04-05T06:24:54Z</time></trkpt><trkpt lat="40.001190391646716" lon="18.42145186651189"><ele>39.0</ele><time>2026-04-05T06:24:55Z</time></trkpt><trkpt lat="40.001029933740135" lon="18.421549311878504"><ele>38.0</ele><time>2026-04-05T06:24:56Z</time></trkpt><trkpt lat="40.00089545907519" lon="18.421575429369117"><ele>37.75</ele><time>2026-04-05T06:24:57Z</time></trkpt><trkpt lat="40.000762683610134" lon="18.42157241698476"><ele>37.5</ele><time>2026-04-05T06:24:58Z</time></trkpt><trkpt lat="40.00062473154263" lon="18.42154349864526"><ele>37.25</ele><time>2026-04-05T06:24:59Z</time></trkpt><trkpt lat="40.000484357001895" lon="18.421483406873044"><ele>37.0</ele><time>2026-04-05T06:25:00Z</time></trkpt><trkpt lat="40.000373722020186" lon="18.421372799551534"><ele>40.333333333333336</ele><time>2026-04-05T06:25:01Z</time></trkpt><trkpt lat="40.00025610950787" lon="18.421236973208824"><ele>43.666666666666664</ele><time>2026-04-05T06:25:02Z</time></trkpt><trkpt lat="40.00015157190927" lon="18.421068667132687"><ele>47.0</ele><time>2026-04-05T06:25:03Z</time></trkpt><trkpt lat="40.00004447038774" lon="18.420902814601575"><ele>47.0</ele><time>2026-04-05T06:25:04Z</time></trkpt><trkpt lat="39.9999298683535" lon="18.420725346714864"><ele>47.0</ele><time>2026-04-05T06:25:05Z</time></trkpt><trkpt lat="39.99980809057571" lon="18.42053676775405"><ele>47.0</ele><time>2026-04-05T06:25:06Z</time></trkpt><trkpt lat="39.99969188632964" lon="18.420356116217228"><ele>49.0</ele><time>2026-04-05T06:25:07Z</time></trkpt><trkpt lat="39.99956532432388" lon="18.420159741221568"><ele>51.0</ele><time>2026-04-05T06:25:08Z</time></trkpt><trkpt lat="39.99943895807141" lon="18.419963807406756"><ele>53.0</ele><time>2026-04-05T06:25:09Z</time></trkpt><trkpt lat="39.99930464185831" lon="18.419755547912292"><ele>54.333333333333336</ele><time>2026-04-05T06:25:10Z</time></trkpt><trkpt lat="39.99917015220382" lon="18.419547018489585"><ele>55.66666666666667</ele><time>2026-04-05T06:25:11Z</time></trkpt><trkpt lat="39.99903886238656" lon="18.41934345047692"><ele>57.0</ele><time>2026-04-05T06:25:12Z</time></trkpt><trkpt lat="39.998914052852136" lon="18.419149930332374"><ele>55.33333333333333</ele><time>2026-04-05T06:25:13Z</time></trkpt><trkpt lat="39.99879804701411" lon="18.41897177129912"><ele>53.666666666666664</ele><time>2026-04-05T06:25:14Z</time></trkpt><trkpt lat="39.99866152834383" lon="18.41878746232294"><ele>52.0</ele><time>2026-04-05T06:25:15Z</time></trkpt><trkpt lat="39.99852146929039" lon="18.41861131188646"><ele>52.0</ele><time>2026-04-05T06:25:16Z</time></trkpt><trkpt lat="39.99836758626159" lon="18.418446564230926"><ele>52.0</ele><time>2026-04-05T06:25:17Z</time></trkpt><trkpt lat="39.99820375423419" lon="18.418296330069047"><ele>52.0</ele><time>2026-04-05T06:25:18Z</time></trkpt><trkpt lat="39.99803359944312" lon="18.418157514983132"><ele>50.666666666666664</ele><time>2026-04-05T06:25:19Z</time></trkpt><trkpt lat="39.997853730929045" lon="18.418007981382782"><ele>49.33333333333333</ele><time>2026-04-05T06:25:20Z</time></trkpt><trkpt lat="39.99767510045903" lon="18.41785226827881"><ele>48.0</ele><time>2026-04-05T06:25:21Z</time></trkpt><trkpt lat="39.99749608985184" lon="18.417698175613783"><ele>44.666666666666664</ele><time>2026-04-05T06:25:22Z</time></trkpt><trkpt lat="39.99731638234295" lon="18.417552229227503"><ele>41.33333333333333</ele><time>2026-04-05T06:25:23Z</time></trkpt><trkpt lat="39.99713925750279" lon="18.417398786916053"><ele>38.0</ele><time>2026-04-05T06:25:24Z</time></trkpt><trkpt lat="39.996976246386744" lon="18.41726337618886"><ele>37.33333333333333</ele><time>2026-04-05T06:25:25Z</time></trkpt><trkpt lat="39.99680945136104" lon="18.417115284654553"><ele>36.666666666666664</ele><time>2026-04-05T06:25:26Z</time></trkpt><trkpt lat="39.99664173088741" lon="18.41697870315222"><ele>36.0</ele><time>2026-04-05T06:25:27Z</time></trkpt><trkpt lat="39.99647802723034" lon="18.416859026856017"><ele>36.0</ele><time>2026-04-05T06:25:28Z</time></trkpt><trkpt lat="39.99632693014284" lon="18.416743339654666"><ele>36.0</ele><time>2026-04-05T06:25:29Z</time></trkpt><trkpt lat="39.99617332186832" lon="18.41662754266612"><ele>36.0</ele><time>2026-04-05T06:25:30Z</time></trkpt><trkpt lat="39.99603051563271" lon="18.41652991253372"><ele>36.0</ele><time>2026-04-05T06:25:31Z</time></trkpt><trkpt lat="39.99589055936868" lon="18.416423656457656"><ele>36.0</ele><time>2026-04-05T06:25:32Z</time></trkpt><trkpt lat="39.99577731114849" lon="18.416328233313543"><ele>36.0</ele><time>2026-04-05T06:25:33Z</time></trkpt><trkpt lat="39.99569349233619" lon="18.41627175927628"><ele>36.0</ele><time>2026-04-05T06:25:34Z</time></trkpt><trkpt lat="39.99562135318285" lon="18.416191005392648"><ele>35.8</ele><time>2026-04-05T06:25:35Z</time></trkpt><trkpt lat="39.99557942377334" lon="18.416065080398003"><ele>35.6</ele><time>2026-04-05T06:25:36Z</time></trkpt><trkpt lat="39.99555533224581" lon="18.41593117748582"><ele>35.4</ele><time>2026-04-05T06:25:37Z</time></trkpt><trkpt lat="39.99550006895214" lon="18.415828058711707"><ele>35.2</ele><time>2026-04-05T06:25:38Z</time></trkpt><trkpt lat="39.995448075208714" lon="18.415726243651847"><ele>35.0</ele><time>2026-04-05T06:25:39Z</time></trkpt><trkpt lat="39.99538594834472" lon="18.415647061823204"><ele>35.0</ele><time>2026-04-05T06:25:40.001Z</time></trkpt><trkpt lat="39.99529932069874" lon="18.41556772422309"><ele>35.0</ele><time>2026-04-05T06:25:41.001Z</time></trkpt><trkpt lat="39.99520801618991" lon="18.41556903703594"><ele>35.0</ele><time>2026-04-05T06:25:42.001Z</time></trkpt><trkpt lat="39.995121441638055" lon="18.415602016299953"><ele>35.0</ele><time>2026-04-05T06:25:43.001Z</time></trkpt><trkpt lat="39.994892998310185" lon="18.41561790562896"><ele>36.25</ele><time>2026-04-05T06:25:44.001Z</time></trkpt><trkpt lat="39.99476866355666" lon="18.415587244296677"><ele>37.5</ele><time>2026-04-05T06:25:45.001Z</time></trkpt><trkpt lat="39.994606280452054" lon="18.415575386146877"><ele>38.75</ele><time>2026-04-05T06:25:46.001Z</time></trkpt><trkpt lat="39.99446529578119" lon="18.415536354215664"><ele>40.0</ele><time>2026-04-05T06:25:47.001Z</time></trkpt><trkpt lat="39.9943350509156" lon="18.415439429487378"><ele>40.0</ele><time>2026-04-05T06:25:48.001Z</time></trkpt><trkpt lat="39.99419685838868" lon="18.4153666012632"><ele>40.0</ele><time>2026-04-05T06:25:49.001Z</time></trkpt><trkpt lat="39.99405157610945" lon="18.4152745021561"><ele>40.0</ele><time>2026-04-05T06:25:50.001Z</time></trkpt><trkpt lat="39.99390582533691" lon="18.415181305662834"><ele>36.333333333333336</ele><time>2026-04-05T06:25:51.001Z</time></trkpt><trkpt lat="39.99375379784052" lon="18.41511037635493"><ele>32.666666666666664</ele><time>2026-04-05T06:25:52.001Z</time></trkpt><trkpt lat="39.99359939661934" lon="18.41504532757071"><ele>29.0</ele><time>2026-04-05T06:25:53.001Z</time></trkpt><trkpt lat="39.99343321248206" lon="18.41497536925239"><ele>27.333333333333332</ele><time>2026-04-05T06:25:54.001Z</time></trkpt><trkpt lat="39.99326771910564" lon="18.414898072374605"><ele>25.666666666666664</ele><time>2026-04-05T06:25:55.001Z</time></trkpt><trkpt lat="39.99310908504917" lon="18.41484752383502"><ele>24.0</ele><time>2026-04-05T06:25:56.001Z</time></trkpt><trkpt lat="39.99296260194922" lon="18.414777344683223"><ele>24.0</ele><time>2026-04-05T06:25:57.001Z</time></trkpt><trkpt lat="39.99282693121405" lon="18.41472412414335"><ele>24.0</ele><time>2026-04-05T06:25:58.001Z</time></trkpt><trkpt lat="39.99270232769222" lon="18.41464000135799"><ele>24.0</ele><time>2026-04-05T06:25:59.001Z</time></trkpt><trkpt lat="39.99260052550591" lon="18.414530779556245"><ele>24.0</ele><time>2026-04-05T06:26:00.001Z</time></trkpt><trkpt lat="39.99248355345858" lon="18.414418825239036"><ele>25.0</ele><time>2026-04-05T06:26:01.001Z</time></trkpt><trkpt lat="39.99238137358162" lon="18.41431067222568"><ele>26.0</ele><time>2026-04-05T06:26:02.001Z</time></trkpt><trkpt lat="39.99232082455892" lon="18.41416776763281"><ele>27.0</ele><time>2026-04-05T06:26:03.001Z</time></trkpt><trkpt lat="39.99226499215255" lon="18.41401695560935"><ele>28.0</ele><time>2026-04-05T06:26:04.001Z</time></trkpt><trkpt lat="39.99222045859864" lon="18.413858521410074"><ele>29.25</ele><time>2026-04-05T06:26:05.001Z</time></trkpt><trkpt lat="39.992181675033684" lon="18.413698068949437"><ele>30.5</ele><time>2026-04-05T06:26:06.001Z</time></trkpt><trkpt lat="39.992137893602504" lon="18.41355728265649"><ele>31.75</ele><time>2026-04-05T06:26:07.001Z</time></trkpt><trkpt lat="39.99211140231607" lon="18.413422299163265"><ele>33.0</ele><time>2026-04-05T06:26:08.001Z</time></trkpt><trkpt lat="39.9920869308099" lon="18.413292385156936"><ele>33.0</ele><time>2026-04-05T06:26:09.001Z</time></trkpt><trkpt lat="39.99203641292561" lon="18.413165136943128"><ele>33.0</ele><time>2026-04-05T06:26:10.001Z</time></trkpt><trkpt lat="39.9919632268006" lon="18.413058899699575"><ele>33.0</ele><time>2026-04-05T06:26:11.001Z</time></trkpt><trkpt lat="39.991901175491755" lon="18.412969493728276"><ele>33.0</ele><time>2026-04-05T06:26:12.001Z</time></trkpt><trkpt lat="39.99185122140429" lon="18.412886364186633"><ele>33.0</ele><time>2026-04-05T06:26:13.001Z</time></trkpt><trkpt lat="39.99181329526766" lon="18.412794055956816"><ele>33.57142857142857</ele><time>2026-04-05T06:26:14.001Z</time></trkpt><trkpt lat="39.99178234620317" lon="18.412714562924013"><ele>34.142857142857146</ele><time>2026-04-05T06:26:15.001Z</time></trkpt><trkpt lat="39.99178386534764" lon="18.412616659132034"><ele>34.714285714285715</ele><time>2026-04-05T06:26:16.001Z</time></trkpt><trkpt lat="39.99175169541188" lon="18.412530602888083"><ele>35.285714285714285</ele><time>2026-04-05T06:26:17.001Z</time></trkpt><trkpt lat="39.991756570489834" lon="18.412433620723668"><ele>35.857142857142854</ele><time>2026-04-05T06:26:18.001Z</time></trkpt><trkpt lat="39.99175776029413" lon="18.412342710865637"><ele>36.42857142857143</ele><time>2026-04-05T06:26:19.001Z</time></trkpt><trkpt lat="39.991757833232754" lon="18.41224608482239"><ele>37.0</ele><time>2026-04-05T06:26:20.001Z</time></trkpt><trkpt lat="39.99176443131083" lon="18.41215032736103"><ele>38.42857142857143</ele><time>2026-04-05T06:26:21.001Z</time></trkpt><trkpt lat="39.99177946873079" lon="18.412053792336586"><ele>39.857142857142854</ele><time>2026-04-05T06:26:22.001Z</time></trkpt><trkpt lat="39.99179487608504" lon="18.41195858050784"><ele>41.285714285714285</ele><time>2026-04-05T06:26:23.001Z</time></trkpt><trkpt lat="39.991809306646495" lon="18.41186122449649"><ele>42.714285714285715</ele><time>2026-04-05T06:26:24.001Z</time></trkpt><trkpt lat="39.99180335607762" lon="18.41176973116673"><ele>44.14285714285714</ele><time>2026-04-05T06:26:25.001Z</time></trkpt><trkpt lat="39.99178594382581" lon="18.411684074939593"><ele>45.57142857142857</ele><time>2026-04-05T06:26:26Z</time></trkpt><trkpt lat="39.99174815089742" lon="18.41160892438345"><ele>47.0</ele><time>2026-04-05T06:26:27Z</time></trkpt><trkpt lat="39.99168565091623" lon="18.411553293993787"><ele>44.666666666666664</ele><time>2026-04-05T06:26:28Z</time></trkpt><trkpt lat="39.99161267988473" lon="18.41151282044713"><ele>42.33333333333333</ele><time>2026-04-05T06:26:29Z</time></trkpt><trkpt lat="39.99154555748135" lon="18.411483278001466"><ele>40.0</ele><time>2026-04-05T06:26:30Z</time></trkpt><trkpt lat="39.991479180610895" lon="18.411459182477785"><ele>37.666666666666664</ele><time>2026-04-05T06:26:31Z</time></trkpt><trkpt lat="39.99140637037238" lon="18.411432243010456"><ele>35.333333333333336</ele><time>2026-04-05T06:26:32Z</time></trkpt><trkpt lat="39.9913411183333" lon="18.411420717804564"><ele>33.0</ele><time>2026-04-05T06:26:33Z</time></trkpt><trkpt lat="39.99120694238988" lon="18.41150311812351"><ele>33.0</ele><time>2026-04-05T06:26:35Z</time></trkpt><trkpt lat="39.991145280337115" lon="18.411579534413207"><ele>33.0</ele><time>2026-04-05T06:26:36Z</time></trkpt><trkpt lat="39.99109701131033" lon="18.41166489448102"><ele>33.0</ele><time>2026-04-05T06:26:37Z</time></trkpt><trkpt lat="39.99105067022438" lon="18.41174367776357"><ele>33.0</ele><time>2026-04-05T06:26:38Z</time></trkpt><trkpt lat="39.99102415609373" lon="18.411838037401857"><ele>33.0</ele><time>2026-04-05T06:26:39Z</time></trkpt><trkpt lat="39.99100462360455" lon="18.411919128569668"><ele>33.0</ele><time>2026-04-05T06:26:40Z</time></trkpt><trkpt lat="39.99098578033044" lon="18.41200333257339"><ele>33.0</ele><time>2026-04-05T06:26:41Z</time></trkpt><trkpt lat="39.990941704302315" lon="18.412139647286956"><ele>33.0</ele><time>2026-04-05T06:26:43Z</time></trkpt><trkpt lat="39.99090174008022" lon="18.41220545852565"><ele>33.0</ele><time>2026-04-05T06:26:44Z</time></trkpt><trkpt lat="39.990882992382694" lon="18.412284313902926"><ele>33.0</ele><time>2026-04-05T06:26:45Z</time></trkpt><trkpt lat="39.990855036676614" lon="18.41236322093478"><ele>33.0</ele><time>2026-04-05T06:26:46Z</time></trkpt><trkpt lat="39.99084129957433" lon="18.412448505387097"><ele>33.0</ele><time>2026-04-05T06:26:47Z</time></trkpt><trkpt lat="39.99084490912149" lon="18.412535645023674"><ele>33.0</ele><time>2026-04-05T06:26:48Z</time></trkpt><trkpt lat="39.990862063960776" lon="18.412678839246208"><ele>31.57142857142857</ele><time>2026-04-05T06:26:50Z</time></trkpt><trkpt lat="39.990884804044654" lon="18.412762617740295"><ele>30.142857142857146</ele><time>2026-04-05T06:26:51Z</time></trkpt><trkpt lat="39.990879533768116" lon="18.412860659680625"><ele>28.714285714285715</ele><time>2026-04-05T06:26:52Z</time></trkpt><trkpt lat="39.99089338144639" lon="18.41295797167256"><ele>27.285714285714285</ele><time>2026-04-05T06:26:53Z</time></trkpt><trkpt lat="39.990911219841905" lon="18.413050919259433"><ele>25.857142857142854</ele><time>2026-04-05T06:26:54Z</time></trkpt><trkpt lat="39.990927394078994" lon="18.413145434709804"><ele>24.42857142857143</ele><time>2026-04-05T06:26:55Z</time></trkpt><trkpt lat="39.99093287456866" lon="18.41324411039481"><ele>23.0</ele><time>2026-04-05T06:26:56Z</time></trkpt><trkpt lat="39.99093195950946" lon="18.41333817093274"><ele>23.333333333333336</ele><time>2026-04-05T06:26:57Z</time></trkpt><trkpt lat="39.990932497327435" lon="18.41343925830736"><ele>23.666666666666668</ele><time>2026-04-05T06:26:58Z</time></trkpt><trkpt lat="39.99091668857214" lon="18.413537023788475"><ele>24.0</ele><time>2026-04-05T06:26:59Z</time></trkpt><trkpt lat="39.990882099363745" lon="18.413639717405793"><ele>24.333333333333336</ele><time>2026-04-05T06:27:00Z</time></trkpt><trkpt lat="39.990854536305406" lon="18.413713987835536"><ele>24.666666666666668</ele><time>2026-04-05T06:27:01Z</time></trkpt><trkpt lat="39.990786543053765" lon="18.413783518470403"><ele>25.0</ele><time>2026-04-05T06:27:02Z</time></trkpt><trkpt lat="39.990697524371264" lon="18.413817189530754"><ele>25.000000000000004</ele><time>2026-04-05T06:27:03Z</time></trkpt><trkpt lat="39.99061618267792" lon="18.413810805075634"><ele>25.0</ele><time>2026-04-05T06:27:04Z</time></trkpt><trkpt lat="39.9905371242897" lon="18.413788728431967"><ele>25.0</ele><time>2026-04-05T06:27:05Z</time></trkpt><trkpt lat="39.99045443117095" lon="18.413755796659963"><ele>25.0</ele><time>2026-04-05T06:27:06Z</time></trkpt><trkpt lat="39.99037001264864" lon="18.41371957890073"><ele>25.000000000000004</ele><time>2026-04-05T06:27:07Z</time></trkpt><trkpt lat="39.990280165818184" lon="18.41367795275809"><ele>25.0</ele><time>2026-04-05T06:27:08Z</time></trkpt><trkpt lat="39.990200030889646" lon="18.41364082614265"><ele>25.0</ele><time>2026-04-05T06:27:09Z</time></trkpt><trkpt lat="39.990114636885494" lon="18.413623501316106"><ele>25.0</ele><time>2026-04-05T06:27:10Z</time></trkpt><trkpt lat="39.99003281565723" lon="18.413568045139847"><ele>25.0</ele><time>2026-04-05T06:27:11Z</time></trkpt><trkpt lat="39.98993802431987" lon="18.413523177746615"><ele>25.0</ele><time>2026-04-05T06:27:12Z</time></trkpt><trkpt lat="39.98986116615553" lon="18.41345384502756"><ele>25.0</ele><time>2026-04-05T06:27:13Z</time></trkpt><trkpt lat="39.98978599017059" lon="18.413408439795603"><ele>25.166666666666668</ele><time>2026-04-05T06:27:14Z</time></trkpt><trkpt lat="39.98971391096008" lon="18.413363707261816"><ele>25.333333333333336</ele><time>2026-04-05T06:27:15Z</time></trkpt><trkpt lat="39.98963666087656" lon="18.413322438031884"><ele>25.5</ele><time>2026-04-05T06:27:16Z</time></trkpt><trkpt lat="39.98956236317542" lon="18.413274600826227"><ele>25.666666666666664</ele><time>2026-04-05T06:27:17Z</time></trkpt><trkpt lat="39.989491070549086" lon="18.41322662253958"><ele>25.833333333333332</ele><time>2026-04-05T06:27:18Z</time></trkpt><trkpt lat="39.989420049765286" lon="18.413179806684447"><ele>26.0</ele><time>2026-04-05T06:27:19Z</time></trkpt><trkpt lat="39.98934587375197" lon="18.41313399705199"><ele>25.999999999999996</ele><time>2026-04-05T06:27:20Z</time></trkpt><trkpt lat="39.989276746329786" lon="18.413089457093854"><ele>26.0</ele><time>2026-04-05T06:27:21Z</time></trkpt><trkpt lat="39.98921289265906" lon="18.41303405585471"><ele>26.0</ele><time>2026-04-05T06:27:22Z</time></trkpt><trkpt lat="39.98914200927353" lon="18.412991535519545"><ele>26.0</ele><time>2026-04-05T06:27:23Z</time></trkpt><trkpt lat="39.989071837756434" lon="18.412947216760415"><ele>25.999999999999996</ele><time>2026-04-05T06:27:24Z</time></trkpt><trkpt lat="39.98900198095419" lon="18.41290695771936"><ele>26.0</ele><time>2026-04-05T06:27:25Z</time></trkpt><trkpt lat="39.988928406929396" lon="18.412866713625306"><ele>17.0</ele><time>2026-04-05T06:27:26Z</time></trkpt><trkpt lat="39.99093287456866" lon="18.41324411039481"><ele>17.0</ele><time>2026-04-05T06:26:56Z</time></trkpt><trkpt lat="39.99093195950946" lon="18.41333817093274"><ele>17.0</ele><time>2026-04-05T06:26:57Z</time></trkpt><trkpt lat="39.990932497327435" lon="18.41343925830736"><ele>17.0</ele><time>2026-04-05T06:26:58Z</time></trkpt><trkpt lat="39.99091668857214" lon="18.413537023788475"><ele>17.0</ele><time>2026-04-05T06:26:59Z</time></trkpt><trkpt lat="39.990882099363745" lon="18.413639717405793"><ele>17.0</ele><time>2026-04-05T06:27:00Z</time></trkpt><trkpt lat="39.990854536305406" lon="18.413713987835536"><ele>17.0</ele><time>2026-04-05T06:27:01Z</time></trkpt><trkpt lat="39.990786543053765" lon="18.413783518470403"><ele>18.333333333333336</ele><time>2026-04-05T06:27:02Z</time></trkpt><trkpt lat="39.990697524371264" lon="18.413817189530754"><ele>19.666666666666668</ele><time>2026-04-05T06:27:03Z</time></trkpt><trkpt lat="39.99061618267792" lon="18.413810805075634"><ele>21.0</ele><time>2026-04-05T06:27:04Z</time></trkpt><trkpt lat="39.9905371242897" lon="18.413788728431967"><ele>22.333333333333336</ele><time>2026-04-05T06:27:05Z</time></trkpt><trkpt lat="39.99045443117095" lon="18.413755796659963"><ele>23.666666666666668</ele><time>2026-04-05T06:27:06Z</time></trkpt><trkpt lat="39.99037001264864" lon="18.41371957890073"><ele>25.0</ele><time>2026-04-05T06:27:07Z</time></trkpt><trkpt lat="39.990280165818184" lon="18.41367795275809"><ele>25.0</ele><time>2026-04-05T06:27:08Z</time></trkpt><trkpt lat="39.990200030889646" lon="18.41364082614265"><ele>25.0</ele><time>2026-04-05T06:27:09Z</time></trkpt><trkpt lat="39.990114636885494" lon="18.413623501316106"><ele>25.0</ele><time>2026-04-05T06:27:10Z</time></trkpt><trkpt lat="39.99003281565723" lon="18.413568045139847"><ele>25.0</ele><time>2026-04-05T06:27:11Z</time></trkpt><trkpt lat="39.98993802431987" lon="18.413523177746615"><ele>25.0</ele><time>2026-04-05T06:27:12Z</time></trkpt><trkpt lat="39.98986116615553" lon="18.41345384502756"><ele>25.166666666666668</ele><time>2026-04-05T06:27:13Z</time></trkpt><trkpt lat="39.98978599017059" lon="18.413408439795603"><ele>25.333333333333336</ele><time>2026-04-05T06:27:14Z</time></trkpt><trkpt lat="39.98971391096008" lon="18.413363707261816"><ele>25.5</ele><time>2026-04-05T06:27:15Z</time></trkpt><trkpt lat="39.98963666087656" lon="18.413322438031884"><ele>25.666666666666664</ele><time>2026-04-05T06:27:16Z</time></trkpt><trkpt lat="39.98956236317542" lon="18.413274600826227"><ele>25.833333333333332</ele><time>2026-04-05T06:27:17Z</time></trkpt><trkpt lat="39.989491070549086" lon="18.41322662253958"><ele>26.0</ele><time>2026-04-05T06:27:18Z</time></trkpt><trkpt lat="39.989420049765286" lon="18.413179806684447"><ele>25.999999999999996</ele><time>2026-04-05T06:27:19Z</time></trkpt><trkpt lat="39.98934587375197" lon="18.41313399705199"><ele>26.0</ele><time>2026-04-05T06:27:20Z</time></trkpt><trkpt lat="39.989276746329786" lon="18.413089457093854"><ele>26.0</ele><time>2026-04-05T06:27:21Z</time></trkpt><trkpt lat="39.98921289265906" lon="18.41303405585471"><ele>26.0</ele><time>2026-04-05T06:27:22Z</time></trkpt><trkpt lat="39.98914200927353" lon="18.412991535519545"><ele>25.999999999999996</ele><time>2026-04-05T06:27:23Z</time></trkpt><trkpt lat="39.989071837756434" lon="18.412947216760415"><ele>26.0</ele><time>2026-04-05T06:27:24Z</time></trkpt><trkpt lat="39.98900198095419" lon="18.41290695771936"><ele>27.4</ele><time>2026-04-05T06:27:25Z</time></trkpt><trkpt lat="39.988928406929396" lon="18.412866713625306"><ele>28.8</ele><time>2026-04-05T06:27:26Z</time></trkpt><trkpt lat="39.988837237998524" lon="18.41280748913367"><ele>30.199999999999996</ele><time>2026-04-05T06:27:27Z</time></trkpt><trkpt lat="39.98873784953272" lon="18.412801384634086"><ele>31.599999999999998</ele><time>2026-04-05T06:27:28Z</time></trkpt><trkpt lat="39.98864506305514" lon="18.412765497810906"><ele>33.0</ele><time>2026-04-05T06:27:29Z</time></trkpt><trkpt lat="39.988570468769204" lon="18.41271395436197"><ele>33.0</ele><time>2026-04-05T06:27:30Z</time></trkpt><trkpt lat="39.98847527797419" lon="18.412682773516018"><ele>33.0</ele><time>2026-04-05T06:27:31Z</time></trkpt><trkpt lat="39.988385942862095" lon="18.412639391098928"><ele>33.0</ele><time>2026-04-05T06:27:32Z</time></trkpt><trkpt lat="39.98832680968833" lon="18.41254722360517"><ele>33.0</ele><time>2026-04-05T06:27:33Z</time></trkpt><trkpt lat="39.988258704362906" lon="18.41246837325406"><ele>33.0</ele><time>2026-04-05T06:27:34Z</time></trkpt><trkpt lat="39.988180653770605" lon="18.412407001508278"><ele>32.0</ele><time>2026-04-05T06:27:35Z</time></trkpt><trkpt lat="39.988109680505715" lon="18.412344435753173"><ele>31.0</ele><time>2026-04-05T06:27:36Z</time></trkpt><trkpt lat="39.988029295001084" lon="18.41230119823724"><ele>30.0</ele><time>2026-04-05T06:27:37.001Z</time></trkpt><trkpt lat="39.98794169909314" lon="18.412267566542006"><ele>29.0</ele><time>2026-04-05T06:27:38.001Z</time></trkpt><trkpt lat="39.987851754293985" lon="18.4122495987547"><ele>28.0</ele><time>2026-04-05T06:27:39.001Z</time></trkpt><trkpt lat="39.987759817788664" lon="18.412238084842485"><ele>27.0</ele><time>2026-04-05T06:27:40.001Z</time></trkpt><trkpt lat="39.98766422919177" lon="18.412239419904004"><ele>27.0</ele><time>2026-04-05T06:27:41.001Z</time></trkpt><trkpt lat="39.98757211877207" lon="18.41222997312229"><ele>27.0</ele><time>2026-04-05T06:27:42.001Z</time></trkpt><trkpt lat="39.987483196499355" lon="18.41221924089474"><ele>27.0</ele><time>2026-04-05T06:27:43.001Z</time></trkpt><trkpt lat="39.98739596274838" lon="18.412211279822877"><ele>27.0</ele><time>2026-04-05T06:27:44.001Z</time></trkpt><trkpt lat="39.98730689168046" lon="18.412204874822347"><ele>27.0</ele><time>2026-04-05T06:27:45.001Z</time></trkpt><trkpt lat="39.9872213156573" lon="18.41218954276049"><ele>27.0</ele><time>2026-04-05T06:27:46.001Z</time></trkpt><trkpt lat="39.98713429495179" lon="18.412163521007173"><ele>28.833333333333332</ele><time>2026-04-05T06:27:47.001Z</time></trkpt><trkpt lat="39.987049709601145" lon="18.412134817843672"><ele>30.666666666666664</ele><time>2026-04-05T06:27:48.001Z</time></trkpt><trkpt lat="39.9869670137224" lon="18.41210129433408"><ele>32.5</ele><time>2026-04-05T06:27:49.001Z</time></trkpt><trkpt lat="39.98688764869296" lon="18.41207170359835"><ele>34.33333333333333</ele><time>2026-04-05T06:27:50.001Z</time></trkpt><trkpt lat="39.986798497309366" lon="18.412045432867725"><ele>36.166666666666664</ele><time>2026-04-05T06:27:51.001Z</time></trkpt><trkpt lat="39.986710367564854" lon="18.412010126353504"><ele>38.0</ele><time>2026-04-05T06:27:52.001Z</time></trkpt><trkpt lat="39.986624045736974" lon="18.412014595846472"><ele>38.199999999999996</ele><time>2026-04-05T06:27:53.001Z</time></trkpt><trkpt lat="39.986541195142664" lon="18.412038350902463"><ele>38.4</ele><time>2026-04-05T06:27:54.001Z</time></trkpt><trkpt lat="39.98644552478168" lon="18.412067350455736"><ele>38.599999999999994</ele><time>2026-04-05T06:27:55.001Z</time></trkpt><trkpt lat="39.98635306841211" lon="18.412088477464224"><ele>38.8</ele><time>2026-04-05T06:27:56.001Z</time></trkpt><trkpt lat="39.9862491489802" lon="18.412110005668332"><ele>39.0</ele><time>2026-04-05T06:27:57.001Z</time></trkpt><trkpt lat="39.98615592922307" lon="18.412128255184907"><ele>39.0</ele><time>2026-04-05T06:27:58.001Z</time></trkpt><trkpt lat="39.98605562100381" lon="18.41212929357665"><ele>39.0</ele><time>2026-04-05T06:27:59.001Z</time></trkpt><trkpt lat="39.98595612876548" lon="18.412123584571592"><ele>39.0</ele><time>2026-04-05T06:28:00.001Z</time></trkpt><trkpt lat="39.98585548704381" lon="18.41211082916274"><ele>39.0</ele><time>2026-04-05T06:28:01.001Z</time></trkpt><trkpt lat="39.98574938657065" lon="18.4120981233017"><ele>39.0</ele><time>2026-04-05T06:28:02.001Z</time></trkpt><trkpt lat="39.985654921292465" lon="18.412097995039847"><ele>39.4</ele><time>2026-04-05T06:28:03.001Z</time></trkpt><trkpt lat="39.98556540668583" lon="18.41211466755031"><ele>39.8</ele><time>2026-04-05T06:28:04.001Z</time></trkpt><trkpt lat="39.9854644546534" lon="18.412130226405576"><ele>40.199999999999996</ele><time>2026-04-05T06:28:05.001Z</time></trkpt><trkpt lat="39.985363747827904" lon="18.41213114603821"><ele>40.599999999999994</ele><time>2026-04-05T06:28:06.001Z</time></trkpt><trkpt lat="39.9852640176632" lon="18.412099189482138"><ele>41.0</ele><time>2026-04-05T06:28:07.001Z</time></trkpt><trkpt lat="39.985178227857645" lon="18.412056662854848"><ele>41.0</ele><time>2026-04-05T06:28:08.001Z</time></trkpt><trkpt lat="39.98509557153831" lon="18.412017040022793"><ele>41.0</ele><time>2026-04-05T06:28:09.001Z</time></trkpt><trkpt lat="39.9850089715316" lon="18.411976673780252"><ele>41.0</ele><time>2026-04-05T06:28:10.001Z</time></trkpt><trkpt lat="39.98492945046053" lon="18.41191853585573"><ele>41.0</ele><time>2026-04-05T06:28:11.001Z</time></trkpt><trkpt lat="39.984848366450045" lon="18.411876864995456"><ele>41.0</ele><time>2026-04-05T06:28:12.001Z</time></trkpt><trkpt lat="39.984762833053466" lon="18.411824236710313"><ele>39.599999999999994</ele><time>2026-04-05T06:28:13.001Z</time></trkpt><trkpt lat="39.984693915619026" lon="18.411773168962917"><ele>38.199999999999996</ele><time>2026-04-05T06:28:14.001Z</time></trkpt><trkpt lat="39.98460664531681" lon="18.4117341871873"><ele>36.8</ele><time>2026-04-05T06:28:15.001Z</time></trkpt><trkpt lat="39.98451823528194" lon="18.411694065662886"><ele>35.4</ele><time>2026-04-05T06:28:16.001Z</time></trkpt><trkpt lat="39.98441410801066" lon="18.41168630939803"><ele>34.0</ele><time>2026-04-05T06:28:17.001Z</time></trkpt><trkpt lat="39.984305440786414" lon="18.411694121196533"><ele>34.0</ele><time>2026-04-05T06:28:18.001Z</time></trkpt><trkpt lat="39.98420187412094" lon="18.41170093290861"><ele>34.0</ele><time>2026-04-05T06:28:19.001Z</time></trkpt><trkpt lat="39.98410357815491" lon="18.411710183470056"><ele>34.0</ele><time>2026-04-05T06:28:20.001Z</time></trkpt><trkpt lat="39.984006439912086" lon="18.411694610019897"><ele>34.0</ele><time>2026-04-05T06:28:21.001Z</time></trkpt><trkpt lat="39.98390825313104" lon="18.41164739405195"><ele>34.0</ele><time>2026-04-05T06:28:22.001Z</time></trkpt><trkpt lat="39.983810452183434" lon="18.411582968212592"><ele>33.0</ele><time>2026-04-05T06:28:23.001Z</time></trkpt><trkpt lat="39.983709547734776" lon="18.41151504388918"><ele>32.0</ele><time>2026-04-05T06:28:24.001Z</time></trkpt><trkpt lat="39.983610812788335" lon="18.4114564140142"><ele>31.0</ele><time>2026-04-05T06:28:25.001Z</time></trkpt><trkpt lat="39.98350810630474" lon="18.411418013388754"><ele>30.0</ele><time>2026-04-05T06:28:26.001Z</time></trkpt><trkpt lat="39.98340487236023" lon="18.411385386777773"><ele>29.0</ele><time>2026-04-05T06:28:27.001Z</time></trkpt><trkpt lat="39.98330514907135" lon="18.411364234303313"><ele>28.0</ele><time>2026-04-05T06:28:28.001Z</time></trkpt><trkpt lat="39.98321195779187" lon="18.411337190245256"><ele>27.0</ele><time>2026-04-05T06:28:29.001Z</time></trkpt><trkpt lat="39.98312266769612" lon="18.411313141078033"><ele>26.0</ele><time>2026-04-05T06:28:30.001Z</time></trkpt><trkpt lat="39.98303096184115" lon="18.411285962015388"><ele>25.0</ele><time>2026-04-05T06:28:31.001Z</time></trkpt><trkpt lat="39.982944750378664" lon="18.41125458275285"><ele>24.0</ele><time>2026-04-05T06:28:32Z</time></trkpt><trkpt lat="39.98286281244365" lon="18.41121436814432"><ele>25.6</ele><time>2026-04-05T06:28:33Z</time></trkpt><trkpt lat="39.9827764273657" lon="18.411159479582373"><ele>27.2</ele><time>2026-04-05T06:28:34Z</time></trkpt><trkpt lat="39.98267709516178" lon="18.4111045555161"><ele>28.800000000000004</ele><time>2026-04-05T06:28:35Z</time></trkpt><trkpt lat="39.98258420977527" lon="18.41104961934833"><ele>30.400000000000002</ele><time>2026-04-05T06:28:36Z</time></trkpt><trkpt lat="39.98250675306377" lon="18.410975635903327"><ele>32.0</ele><time>2026-04-05T06:28:37Z</time></trkpt><trkpt lat="39.98242496765761" lon="18.410908613271012"><ele>32.0</ele><time>2026-04-05T06:28:38Z</time></trkpt><trkpt lat="39.9823489172794" lon="18.410849827514213"><ele>32.0</ele><time>2026-04-05T06:28:39Z</time></trkpt><trkpt lat="39.98227055716152" lon="18.41077312155823"><ele>32.0</ele><time>2026-04-05T06:28:40Z</time></trkpt><trkpt lat="39.982194716766024" lon="18.410675846069132"><ele>32.0</ele><time>2026-04-05T06:28:41Z</time></trkpt><trkpt lat="39.982119718425665" lon="18.41058662407458"><ele>32.0</ele><time>2026-04-05T06:28:42Z</time></trkpt><trkpt lat="39.982056229893644" lon="18.410503075489626"><ele>34.8</ele><time>2026-04-05T06:28:43Z</time></trkpt><trkpt lat="39.981988243350415" lon="18.410422752124976"><ele>37.6</ele><time>2026-04-05T06:28:44Z</time></trkpt><trkpt lat="39.981915150576256" lon="18.41032790591447"><ele>40.4</ele><time>2026-04-05T06:28:45Z</time></trkpt><trkpt lat="39.98183814009201" lon="18.410242997303715"><ele>43.199999999999996</ele><time>2026-04-05T06:28:46Z</time></trkpt><trkpt lat="39.98176578908106" lon="18.410158223628454"><ele>46.0</ele><time>2026-04-05T06:28:47Z</time></trkpt><trkpt lat="39.981686777079524" lon="18.41006681801071"><ele>43.0</ele><time>2026-04-05T06:28:48Z</time></trkpt><trkpt lat="39.98161465168077" lon="18.409956580415177"><ele>40.0</ele><time>2026-04-05T06:28:49Z</time></trkpt><trkpt lat="39.98152496563587" lon="18.409880289485322"><ele>37.0</ele><time>2026-04-05T06:28:50Z</time></trkpt><trkpt lat="39.981439269534405" lon="18.409810150202073"><ele>34.0</ele><time>2026-04-05T06:28:51Z</time></trkpt><trkpt lat="39.98135241404227" lon="18.409740996896694"><ele>31.0</ele><time>2026-04-05T06:28:52Z</time></trkpt><trkpt lat="39.9812711906208" lon="18.409672026799818"><ele>34.0</ele><time>2026-04-05T06:28:53Z</time></trkpt><trkpt lat="39.98119499677745" lon="18.40960111722832"><ele>37.0</ele><time>2026-04-05T06:28:54Z</time></trkpt><trkpt lat="39.98111819753969" lon="18.409533300819376"><ele>40.0</ele><time>2026-04-05T06:28:55Z</time></trkpt><trkpt lat="39.981040005806875" lon="18.40946387632641"><ele>43.0</ele><time>2026-04-05T06:28:56Z</time></trkpt><trkpt lat="39.98096319502323" lon="18.409392926990776"><ele>46.0</ele><time>2026-04-05T06:28:57Z</time></trkpt><trkpt lat="39.98088074006681" lon="18.409317668673225"><ele>45.8</ele><time>2026-04-05T06:28:58Z</time></trkpt><trkpt lat="39.98081004123362" lon="18.409224690195256"><ele>45.599999999999994</ele><time>2026-04-05T06:28:59Z</time></trkpt><trkpt lat="39.98073006283123" lon="18.409131671026316"><ele>45.4</ele><time>2026-04-05T06:29:00Z</time></trkpt><trkpt lat="39.98065093006295" lon="18.409032197848035"><ele>45.2</ele><time>2026-04-05T06:29:01Z</time></trkpt><trkpt lat="39.980573512789114" lon="18.40893746266954"><ele>45.0</ele><time>2026-04-05T06:29:02Z</time></trkpt><trkpt lat="39.980509298337424" lon="18.408814286167807"><ele>45.0</ele><time>2026-04-05T06:29:03Z</time></trkpt><trkpt lat="39.980426425599525" lon="18.408726924160288"><ele>45.0</ele><time>2026-04-05T06:29:04Z</time></trkpt><trkpt lat="39.98034615943589" lon="18.40864179645028"><ele>45.0</ele><time>2026-04-05T06:29:05Z</time></trkpt><trkpt lat="39.98027138429955" lon="18.408563995247597"><ele>45.0</ele><time>2026-04-05T06:29:06Z</time></trkpt><trkpt lat="39.980200022011466" lon="18.408489315673126"><ele>45.0</ele><time>2026-04-05T06:29:07Z</time></trkpt><trkpt lat="39.98012788145282" lon="18.408411149937756"><ele>45.0</ele><time>2026-04-05T06:29:08Z</time></trkpt><trkpt lat="39.98005448954569" lon="18.408331086282292"><ele>45.0</ele><time>2026-04-05T06:29:09Z</time></trkpt><trkpt lat="39.97998358084453" lon="18.408250776591256"><ele>45.0</ele><time>2026-04-05T06:29:10Z</time></trkpt><trkpt lat="39.979910923967864" lon="18.408160890176383"><ele>45.0</ele><time>2026-04-05T06:29:11Z</time></trkpt><trkpt lat="39.979830344470116" lon="18.40807918028314"><ele>45.0</ele><time>2026-04-05T06:29:12Z</time></trkpt><trkpt lat="39.97976511631821" lon="18.40798563756947"><ele>44.6</ele><time>2026-04-05T06:29:13Z</time></trkpt><trkpt lat="39.9796812196633" lon="18.40792347257245"><ele>44.2</ele><time>2026-04-05T06:29:14Z</time></trkpt><trkpt lat="39.97959908237338" lon="18.407866098489897"><ele>43.8</ele><time>2026-04-05T06:29:15Z</time></trkpt><trkpt lat="39.979520892261625" lon="18.40780190058765"><ele>43.4</ele><time>2026-04-05T06:29:16Z</time></trkpt><trkpt lat="39.979444962664815" lon="18.407717255330553"><ele>43.0</ele><time>2026-04-05T06:29:17Z</time></trkpt><trkpt lat="39.9793574850929" lon="18.407627960694814"><ele>43.0</ele><time>2026-04-05T06:29:18Z</time></trkpt><trkpt lat="39.97928015569106" lon="18.407535134780513"><ele>43.0</ele><time>2026-04-05T06:29:19Z</time></trkpt><trkpt lat="39.979199752048245" lon="18.407454136842784"><ele>43.0</ele><time>2026-04-05T06:29:20Z</time></trkpt><trkpt lat="39.97912218980801" lon="18.407375708743874"><ele>43.0</ele><time>2026-04-05T06:29:21Z</time></trkpt><trkpt lat="39.97903674731469" lon="18.40729754887298"><ele>43.0</ele><time>2026-04-05T06:29:22Z</time></trkpt><trkpt lat="39.97895215467352" lon="18.407243532590773"><ele>43.599999999999994</ele><time>2026-04-05T06:29:23Z</time></trkpt><trkpt lat="39.97886024858941" lon="18.407197953431385"><ele>44.199999999999996</ele><time>2026-04-05T06:29:24Z</time></trkpt><trkpt lat="39.97875931493145" lon="18.407151411668075"><ele>44.8</ele><time>2026-04-05T06:29:25Z</time></trkpt><trkpt lat="39.97866780004867" lon="18.407110535988398"><ele>45.4</ele><time>2026-04-05T06:29:26Z</time></trkpt><trkpt lat="39.97857681531527" lon="18.407069896902872"><ele>46.0</ele><time>2026-04-05T06:29:27Z</time></trkpt><trkpt lat="39.97847883649933" lon="18.40702613396535"><ele>46.0</ele><time>2026-04-05T06:29:28Z</time></trkpt><trkpt lat="39.97838713751113" lon="18.40698355565574"><ele>46.0</ele><time>2026-04-05T06:29:29Z</time></trkpt><trkpt lat="39.97829654715331" lon="18.406941229929515"><ele>46.0</ele><time>2026-04-05T06:29:30Z</time></trkpt><trkpt lat="39.97820773666785" lon="18.40689766341558"><ele>46.0</ele><time>2026-04-05T06:29:31Z</time></trkpt><trkpt lat="39.9781187234062" lon="18.406864021814133"><ele>46.0</ele><time>2026-04-05T06:29:32Z</time></trkpt><trkpt lat="39.9780288260651" lon="18.406812928311915"><ele>44.199999999999996</ele><time>2026-04-05T06:29:33Z</time></trkpt><trkpt lat="39.977945010983184" lon="18.406758291218477"><ele>42.4</ele><time>2026-04-05T06:29:34Z</time></trkpt><trkpt lat="39.97785351392299" lon="18.40670032014962"><ele>40.6</ele><time>2026-04-05T06:29:35Z</time></trkpt><trkpt lat="39.977760241052096" lon="18.406645818941378"><ele>38.8</ele><time>2026-04-05T06:29:36Z</time></trkpt><trkpt lat="39.97767001156448" lon="18.406590477880354"><ele>37.0</ele><time>2026-04-05T06:29:37Z</time></trkpt><trkpt lat="39.97757904528069" lon="18.406544498352712"><ele>35.800000000000004</ele><time>2026-04-05T06:29:38Z</time></trkpt><trkpt lat="39.97748818896226" lon="18.406503358072012"><ele>34.6</ele><time>2026-04-05T06:29:39Z</time></trkpt><trkpt lat="39.977394111388584" lon="18.406475303312337"><ele>33.400000000000006</ele><time>2026-04-05T06:29:40Z</time></trkpt><trkpt lat="39.97729650802205" lon="18.40642237175378"><ele>32.2</ele><time>2026-04-05T06:29:41Z</time></trkpt><trkpt lat="39.97719133583492" lon="18.40640525460603"><ele>31.0</ele><time>2026-04-05T06:29:42Z</time></trkpt><trkpt lat="39.97708941300436" lon="18.406387514814266"><ele>31.0</ele><time>2026-04-05T06:29:43Z</time></trkpt><trkpt lat="39.976986087724896" lon="18.406362991802027"><ele>31.0</ele><time>2026-04-05T06:29:44Z</time></trkpt><trkpt lat="39.97688859852921" lon="18.4063460662671"><ele>31.0</ele><time>2026-04-05T06:29:45Z</time></trkpt><trkpt lat="39.97679386585924" lon="18.406325414548"><ele>31.0</ele><time>2026-04-05T06:29:46Z</time></trkpt><trkpt lat="39.97669791071169" lon="18.406327409899664"><ele>31.0</ele><time>2026-04-05T06:29:47.001Z</time></trkpt><trkpt lat="39.976601619888754" lon="18.406325672316285"><ele>33.2</ele><time>2026-04-05T06:29:48.001Z</time></trkpt><trkpt lat="39.9765064266385" lon="18.406325406713012"><ele>35.400000000000006</ele><time>2026-04-05T06:29:49.001Z</time></trkpt><trkpt lat="39.97642070710317" lon="18.406289659224107"><ele>37.6</ele><time>2026-04-05T06:29:50.001Z</time></trkpt><trkpt lat="39.976324695429724" lon="18.40626829043263"><ele>39.800000000000004</ele><time>2026-04-05T06:29:51.001Z</time></trkpt><trkpt lat="39.97623508248201" lon="18.4062291406922"><ele>42.0</ele><time>2026-04-05T06:29:52.001Z</time></trkpt><trkpt lat="39.976160129752344" lon="18.406150199034304"><ele>42.0</ele><time>2026-04-05T06:29:53.001Z</time></trkpt><trkpt lat="39.976070474793" lon="18.40612528184263"><ele>42.0</ele><time>2026-04-05T06:29:54.001Z</time></trkpt><trkpt lat="39.97597942890084" lon="18.40610842953855"><ele>42.0</ele><time>2026-04-05T06:29:55.001Z</time></trkpt><trkpt lat="39.975889436676546" lon="18.40610454379965"><ele>42.0</ele><time>2026-04-05T06:29:56.001Z</time></trkpt><trkpt lat="39.97579481508761" lon="18.406089516376817"><ele>42.0</ele><time>2026-04-05T06:29:57.001Z</time></trkpt><trkpt lat="39.97570584646535" lon="18.406062920714827"><ele>41.333333333333336</ele><time>2026-04-05T06:29:58.001Z</time></trkpt><trkpt lat="39.975626027328374" lon="18.406028901828112"><ele>40.666666666666664</ele><time>2026-04-05T06:29:59.001Z</time></trkpt><trkpt lat="39.97554643599624" lon="18.405979176863205"><ele>40.0</ele><time>2026-04-05T06:30:00.001Z</time></trkpt><trkpt lat="39.97547668113987" lon="18.405905598118906"><ele>39.33333333333333</ele><time>2026-04-05T06:30:01.001Z</time></trkpt><trkpt lat="39.97539808537819" lon="18.40586598368862"><ele>38.666666666666664</ele><time>2026-04-05T06:30:02.001Z</time></trkpt><trkpt lat="39.97532868363772" lon="18.40581726678589"><ele>38.0</ele><time>2026-04-05T06:30:03.001Z</time></trkpt><trkpt lat="39.97524764781221" lon="18.405786389294484"><ele>38.0</ele><time>2026-04-05T06:30:04.001Z</time></trkpt><trkpt lat="39.975176124668245" lon="18.40576299837668"><ele>38.0</ele><time>2026-04-05T06:30:05.001Z</time></trkpt><trkpt lat="39.97509223928102" lon="18.405749329439292"><ele>38.0</ele><time>2026-04-05T06:30:06.001Z</time></trkpt><trkpt lat="39.975018757609796" lon="18.405745843752157"><ele>38.0</ele><time>2026-04-05T06:30:07.001Z</time></trkpt><trkpt lat="39.97494005932595" lon="18.405735337336722"><ele>38.0</ele><time>2026-04-05T06:30:08.001Z</time></trkpt><trkpt lat="39.97485891010799" lon="18.405742179373494"><ele>38.0</ele><time>2026-04-05T06:30:09.001Z</time></trkpt><trkpt lat="39.974773168194154" lon="18.405737891819065"><ele>36.666666666666664</ele><time>2026-04-05T06:30:10.001Z</time></trkpt><trkpt lat="39.97468549018622" lon="18.40572721221875"><ele>35.33333333333333</ele><time>2026-04-05T06:30:11.001Z</time></trkpt><trkpt lat="39.97459387116047" lon="18.405717532269787"><ele>34.0</ele><time>2026-04-05T06:30:12.001Z</time></trkpt><trkpt lat="39.974511147659726" lon="18.40571920374653"><ele>32.666666666666664</ele><time>2026-04-05T06:30:13.001Z</time></trkpt><trkpt lat="39.97442424423001" lon="18.405711594689862"><ele>31.333333333333332</ele><time>2026-04-05T06:30:14.001Z</time></trkpt><trkpt lat="39.97432557030704" lon="18.405702101485765"><ele>30.0</ele><time>2026-04-05T06:30:15.001Z</time></trkpt><trkpt lat="39.97422923961356" lon="18.405685579537803"><ele>29.333333333333332</ele><time>2026-04-05T06:30:16.001Z</time></trkpt><trkpt lat="39.974139108753384" lon="18.405683002878543"><ele>28.666666666666664</ele><time>2026-04-05T06:30:17.001Z</time></trkpt><trkpt lat="39.97405658922103" lon="18.40568003838396"><ele>28.0</ele><time>2026-04-05T06:30:18.001Z</time></trkpt><trkpt lat="39.97397893873586" lon="18.405678789582502"><ele>27.333333333333332</ele><time>2026-04-05T06:30:19.001Z</time></trkpt><trkpt lat="39.9738899949022" lon="18.405684975767915"><ele>26.666666666666664</ele><time>2026-04-05T06:30:20.001Z</time></trkpt><trkpt lat="39.973803638485506" lon="18.40569316706498"><ele>26.0</ele><time>2026-04-05T06:30:21.001Z</time></trkpt><trkpt lat="39.97371929203136" lon="18.405703537335114"><ele>26.0</ele><time>2026-04-05T06:30:22.001Z</time></trkpt><trkpt lat="39.97363972635456" lon="18.405712588407592"><ele>26.0</ele><time>2026-04-05T06:30:23.001Z</time></trkpt><trkpt lat="39.97356512967171" lon="18.405713190069097"><ele>26.0</ele><time>2026-04-05T06:30:24.001Z</time></trkpt><trkpt lat="39.97349329958857" lon="18.40571648716241"><ele>26.0</ele><time>2026-04-05T06:30:25.001Z</time></trkpt><trkpt lat="39.97342664916498" lon="18.405717575936606"><ele>26.0</ele><time>2026-04-05T06:30:26.001Z</time></trkpt><trkpt lat="39.97335664441963" lon="18.4057284395525"><ele>26.0</ele><time>2026-04-05T06:30:27.001Z</time></trkpt><trkpt lat="39.97328223201206" lon="18.405729147376732"><ele>26.0</ele><time>2026-04-05T06:30:28.001Z</time></trkpt><trkpt lat="39.97316344164879" lon="18.405731019779672"><ele>26.0</ele><time>2026-04-05T06:30:30.001Z</time></trkpt><trkpt lat="39.973084347608925" lon="18.405736732445334"><ele>26.0</ele><time>2026-04-05T06:30:32.001Z</time></trkpt><trkpt lat="39.97301199709718" lon="18.40575788118966"><ele>26.0</ele><time>2026-04-05T06:30:34.001Z</time></trkpt><trkpt lat="39.972884810222496" lon="18.405780117951657"><ele>26.0</ele><time>2026-04-05T06:30:36.001Z</time></trkpt><trkpt lat="39.97280157291931" lon="18.405789272021188"><ele>26.0</ele><time>2026-04-05T06:30:37.001Z</time></trkpt><trkpt lat="39.972691519760794" lon="18.40579415826222"><ele>25.999999999999996</ele><time>2026-04-05T06:30:38Z</time></trkpt><trkpt lat="39.97260005480283" lon="18.40578515213446"><ele>26.0</ele><time>2026-04-05T06:30:39Z</time></trkpt><trkpt lat="39.97251311946916" lon="18.405779883516725"><ele>26.0</ele><time>2026-04-05T06:30:40Z</time></trkpt><trkpt lat="39.9724304393232" lon="18.40572746553546"><ele>26.0</ele><time>2026-04-05T06:30:41Z</time></trkpt><trkpt lat="39.97235895104578" lon="18.405679961409632"><ele>25.999999999999996</ele><time>2026-04-05T06:30:42Z</time></trkpt><trkpt lat="39.972281132927115" lon="18.40562066095254"><ele>26.0</ele><time>2026-04-05T06:30:43Z</time></trkpt><trkpt lat="39.97220665713673" lon="18.405571820595988"><ele>27.666666666666664</ele><time>2026-04-05T06:30:44Z</time></trkpt><trkpt lat="39.97215305968364" lon="18.40549295843063"><ele>29.333333333333332</ele><time>2026-04-05T06:30:45Z</time></trkpt><trkpt lat="39.97208467905247" lon="18.405426045299325"><ele>31.0</ele><time>2026-04-05T06:30:46Z</time></trkpt><trkpt lat="39.97201847385609" lon="18.40536126079606"><ele>32.666666666666664</ele><time>2026-04-05T06:30:47Z</time></trkpt><trkpt lat="39.97195637177951" lon="18.405301622027956"><ele>34.333333333333336</ele><time>2026-04-05T06:30:48Z</time></trkpt><trkpt lat="39.97189164939845" lon="18.405246588238636"><ele>36.0</ele><time>2026-04-05T06:30:49Z</time></trkpt><trkpt lat="39.97181119041999" lon="18.405210804527044"><ele>36.0</ele><time>2026-04-05T06:30:50Z</time></trkpt><trkpt lat="39.97173582038656" lon="18.405168201873032"><ele>36.0</ele><time>2026-04-05T06:30:51Z</time></trkpt><trkpt lat="39.97165161560056" lon="18.40511816956414"><ele>36.0</ele><time>2026-04-05T06:30:52Z</time></trkpt><trkpt lat="39.97156852977646" lon="18.4050823472454"><ele>36.0</ele><time>2026-04-05T06:30:53Z</time></trkpt><trkpt lat="39.97148868704271" lon="18.405058275733143"><ele>36.0</ele><time>2026-04-05T06:30:54Z</time></trkpt><trkpt lat="39.97140783579294" lon="18.4050388331274"><ele>36.0</ele><time>2026-04-05T06:30:55Z</time></trkpt><trkpt lat="39.97132024195154" lon="18.405023461592645"><ele>34.4</ele><time>2026-04-05T06:30:56Z</time></trkpt><trkpt lat="39.97123702399338" lon="18.405008272463537"><ele>32.8</ele><time>2026-04-05T06:30:57Z</time></trkpt><trkpt lat="39.97113926878779" lon="18.40499054221124"><ele>31.199999999999996</ele><time>2026-04-05T06:30:58Z</time></trkpt><trkpt lat="39.9710505966531" lon="18.4049853819043"><ele>29.599999999999998</ele><time>2026-04-05T06:30:59Z</time></trkpt><trkpt lat="39.97095966359522" lon="18.40498677137421"><ele>28.0</ele><time>2026-04-05T06:31:00Z</time></trkpt><trkpt lat="39.97086400589913" lon="18.4049830609101"><ele>27.333333333333336</ele><time>2026-04-05T06:31:01Z</time></trkpt><trkpt lat="39.97076943253781" lon="18.40497608116874"><ele>26.666666666666668</ele><time>2026-04-05T06:31:02Z</time></trkpt><trkpt lat="39.97068606098228" lon="18.404963086850152"><ele>26.0</ele><time>2026-04-05T06:31:03Z</time></trkpt><trkpt lat="39.97061426087754" lon="18.404958259980834"><ele>25.333333333333336</ele><time>2026-04-05T06:31:04Z</time></trkpt><trkpt lat="39.97052407603959" lon="18.404942975518637"><ele>24.666666666666668</ele><time>2026-04-05T06:31:06Z</time></trkpt><trkpt lat="39.970418267963815" lon="18.40492611121595"><ele>24.0</ele><time>2026-04-05T06:31:09Z</time></trkpt><trkpt lat="39.970321516557895" lon="18.40491178998898"><ele>24.0</ele><time>2026-04-05T06:31:10Z</time></trkpt><trkpt lat="39.97021045770594" lon="18.404914044759046"><ele>24.0</ele><time>2026-04-05T06:31:11Z</time></trkpt><trkpt lat="39.97008568344134" lon="18.404903619507593"><ele>24.0</ele><time>2026-04-05T06:31:12Z</time></trkpt><trkpt lat="39.9699656283705" lon="18.404887887600932"><ele>24.0</ele><time>2026-04-05T06:31:13Z</time></trkpt><trkpt lat="39.96984033474192" lon="18.40487221625298"><ele>23.4</ele><time>2026-04-05T06:31:14Z</time></trkpt><trkpt lat="39.96972666865285" lon="18.40484917201403"><ele>22.799999999999997</ele><time>2026-04-05T06:31:15Z</time></trkpt><trkpt lat="39.96962095908043" lon="18.404829867508273"><ele>22.200000000000003</ele><time>2026-04-05T06:31:16Z</time></trkpt><trkpt lat="39.969518056831454" lon="18.40481218737645"><ele>21.6</ele><time>2026-04-05T06:31:17Z</time></trkpt><trkpt lat="39.96942028170101" lon="18.404799177477297"><ele>21.0</ele><time>2026-04-05T06:31:18Z</time></trkpt><trkpt lat="39.96933191005614" lon="18.404763953138033"><ele>21.0</ele><time>2026-04-05T06:31:19Z</time></trkpt><trkpt lat="39.96924115143346" lon="18.404744104613652"><ele>21.0</ele><time>2026-04-05T06:31:20Z</time></trkpt><trkpt lat="39.96914448465959" lon="18.404725290388505"><ele>21.0</ele><time>2026-04-05T06:31:21Z</time></trkpt><trkpt lat="39.96904939090281" lon="18.404693385462437"><ele>21.0</ele><time>2026-04-05T06:31:22Z</time></trkpt><trkpt lat="39.968957567048335" lon="18.40466165670337"><ele>21.0</ele><time>2026-04-05T06:31:23Z</time></trkpt><trkpt lat="39.96887563419626" lon="18.404635686026438"><ele>23.333333333333332</ele><time>2026-04-05T06:31:24Z</time></trkpt><trkpt lat="39.968802846170945" lon="18.40462050182923"><ele>25.666666666666664</ele><time>2026-04-05T06:31:25Z</time></trkpt><trkpt lat="39.96873050961139" lon="18.40459243126141"><ele>28.0</ele><time>2026-04-05T06:31:26Z</time></trkpt><trkpt lat="39.96864202164677" lon="18.404574869589357"><ele>30.333333333333332</ele><time>2026-04-05T06:31:27Z</time></trkpt><trkpt lat="39.96856897572939" lon="18.404555781185724"><ele>32.666666666666664</ele><time>2026-04-05T06:31:28Z</time></trkpt><trkpt lat="39.968485906007245" lon="18.40454325011685"><ele>35.0</ele><time>2026-04-05T06:31:29Z</time></trkpt><trkpt lat="39.96839323434996" lon="18.40447915526718"><ele>33.8</ele><time>2026-04-05T06:31:30Z</time></trkpt><trkpt lat="39.968330156185964" lon="18.40445613514754"><ele>32.6</ele><time>2026-04-05T06:31:31Z</time></trkpt><trkpt lat="39.96823006592999" lon="18.4044517515568"><ele>31.4</ele><time>2026-04-05T06:31:33Z</time></trkpt><trkpt lat="39.9680916091085" lon="18.40444065865148"><ele>30.2</ele><time>2026-04-05T06:31:35Z</time></trkpt><trkpt lat="39.96801694787461" lon="18.404438065734936"><ele>29.0</ele><time>2026-04-05T06:31:36Z</time></trkpt><trkpt lat="39.96792932995836" lon="18.404415546797605"><ele>28.999999999999996</ele><time>2026-04-05T06:31:37Z</time></trkpt><trkpt lat="39.96785251751058" lon="18.4043996351859"><ele>29.0</ele><time>2026-04-05T06:31:38Z</time></trkpt><trkpt lat="39.967770435192826" lon="18.404375011136786"><ele>29.0</ele><time>2026-04-05T06:31:39Z</time></trkpt><trkpt lat="39.96769579884763" lon="18.404355391978868"><ele>29.0</ele><time>2026-04-05T06:31:40Z</time></trkpt><trkpt lat="39.96761499385135" lon="18.40434222246868"><ele>28.999999999999996</ele><time>2026-04-05T06:31:41Z</time></trkpt><trkpt lat="39.967532553779854" lon="18.404325129676685"><ele>29.0</ele><time>2026-04-05T06:31:42Z</time></trkpt><trkpt lat="39.967437592220264" lon="18.404304081209897"><ele>28.0</ele><time>2026-04-05T06:31:43Z</time></trkpt><trkpt lat="39.9673492770951" lon="18.404292224507753"><ele>27.0</ele><time>2026-04-05T06:31:44Z</time></trkpt><trkpt lat="39.96726297959989" lon="18.404284308370958"><ele>26.0</ele><time>2026-04-05T06:31:45Z</time></trkpt><trkpt lat="39.9671629909407" lon="18.404273813079566"><ele>25.0</ele><time>2026-04-05T06:31:46Z</time></trkpt><trkpt lat="39.96705384794156" lon="18.404280914207227"><ele>24.0</ele><time>2026-04-05T06:31:47Z</time></trkpt><trkpt lat="39.96694291013183" lon="18.404284265136596"><ele>24.0</ele><time>2026-04-05T06:31:48Z</time></trkpt><trkpt lat="39.96682457639731" lon="18.404233124598846"><ele>24.0</ele><time>2026-04-05T06:31:49Z</time></trkpt><trkpt lat="39.96668630640433" lon="18.404241030682915"><ele>24.0</ele><time>2026-04-05T06:31:50.001Z</time></trkpt><trkpt lat="39.96654933882599" lon="18.404244479249048"><ele>24.0</ele><time>2026-04-05T06:31:51.001Z</time></trkpt><trkpt lat="39.96638411100766" lon="18.404265580711517"><ele>22.75</ele><time>2026-04-05T06:31:52.001Z</time></trkpt><trkpt lat="39.96624080187866" lon="18.404266792859488"><ele>21.5</ele><time>2026-04-05T06:31:53.001Z</time></trkpt><trkpt lat="39.96608649515895" lon="18.404283695590994"><ele>20.25</ele><time>2026-04-05T06:31:54.001Z</time></trkpt><trkpt lat="39.96594449189879" lon="18.40429274427929"><ele>19.0</ele><time>2026-04-05T06:31:55.001Z</time></trkpt><trkpt lat="39.965809715382086" lon="18.404311750794864"><ele>18.25</ele><time>2026-04-05T06:31:56.001Z</time></trkpt><trkpt lat="39.96568287842844" lon="18.404319493105568"><ele>17.5</ele><time>2026-04-05T06:31:57.001Z</time></trkpt><trkpt lat="39.965550886415926" lon="18.40430147014225"><ele>16.75</ele><time>2026-04-05T06:31:58.001Z</time></trkpt><trkpt lat="39.96541040861294" lon="18.404279441860474"><ele>16.0</ele><time>2026-04-05T06:31:59.001Z</time></trkpt><trkpt lat="39.96528270850472" lon="18.40424007538348"><ele>16.0</ele><time>2026-04-05T06:32:00.001Z</time></trkpt><trkpt lat="39.96515768882004" lon="18.40421270529927"><ele>16.0</ele><time>2026-04-05T06:32:01.001Z</time></trkpt><trkpt lat="39.965030040314744" lon="18.404171964958305"><ele>16.0</ele><time>2026-04-05T06:32:02.001Z</time></trkpt><trkpt lat="39.96490748819486" lon="18.40414188961848"><ele>16.0</ele><time>2026-04-05T06:32:03.001Z</time></trkpt><trkpt lat="39.96478156462554" lon="18.404119766954874"><ele>15.75</ele><time>2026-04-05T06:32:04.001Z</time></trkpt><trkpt lat="39.964651163039406" lon="18.404091448563147"><ele>15.5</ele><time>2026-04-05T06:32:05.001Z</time></trkpt><trkpt lat="39.96453129797991" lon="18.4040660655271"><ele>15.25</ele><time>2026-04-05T06:32:06.001Z</time></trkpt><trkpt lat="39.964417096359966" lon="18.40404967399207"><ele>15.0</ele><time>2026-04-05T06:32:07.001Z</time></trkpt><trkpt lat="39.964325059018336" lon="18.404035539578157"><ele>15.0</ele><time>2026-04-05T06:32:08.001Z</time></trkpt><trkpt lat="39.964229422481985" lon="18.40400912685421"><ele>15.0</ele><time>2026-04-05T06:32:09.001Z</time></trkpt><trkpt lat="39.9641252769028" lon="18.403972143229844"><ele>15.0</ele><time>2026-04-05T06:32:10.001Z</time></trkpt><trkpt lat="39.9640174902924" lon="18.403927970308207"><ele>15.0</ele><time>2026-04-05T06:32:11.001Z</time></trkpt><trkpt lat="39.96392998480047" lon="18.40387904100327"><ele>15.0</ele><time>2026-04-05T06:32:12.001Z</time></trkpt><trkpt lat="39.963856424341245" lon="18.403832553127458"><ele>15.6</ele><time>2026-04-05T06:32:13.001Z</time></trkpt><trkpt lat="39.963756270741236" lon="18.403769087122715"><ele>16.2</ele><time>2026-04-05T06:32:15.001Z</time></trkpt><trkpt lat="39.963687697638" lon="18.403727992997027"><ele>16.8</ele><time>2026-04-05T06:32:17.001Z</time></trkpt><trkpt lat="39.96360047731857" lon="18.40363121471014"><ele>17.4</ele><time>2026-04-05T06:32:19.001Z</time></trkpt><trkpt lat="39.963530612591576" lon="18.40357333615586"><ele>18.0</ele><time>2026-04-05T06:32:20.001Z</time></trkpt><trkpt lat="39.963432956480666" lon="18.403514786582917"><ele>17.25</ele><time>2026-04-05T06:32:21.001Z</time></trkpt><trkpt lat="39.9633376850399" lon="18.40344338136598"><ele>16.5</ele><time>2026-04-05T06:32:22.001Z</time></trkpt><trkpt lat="39.96324491522687" lon="18.403378465761204"><ele>15.75</ele><time>2026-04-05T06:32:23.001Z</time></trkpt><trkpt lat="39.963142455817206" lon="18.403318271865523"><ele>15.0</ele><time>2026-04-05T06:32:24.001Z</time></trkpt><trkpt lat="39.96302645257667" lon="18.403254597903775"><ele>15.0</ele><time>2026-04-05T06:32:25.001Z</time></trkpt><trkpt lat="39.96291668027549" lon="18.40319949249592"><ele>15.0</ele><time>2026-04-05T06:32:26.001Z</time></trkpt><trkpt lat="39.962791322801394" lon="18.40314795505122"><ele>15.0</ele><time>2026-04-05T06:32:27.001Z</time></trkpt><trkpt lat="39.96267794598807" lon="18.4030993372112"><ele>15.0</ele><time>2026-04-05T06:32:28.001Z</time></trkpt><trkpt lat="39.962578477295224" lon="18.403055191821892"><ele>13.5</ele><time>2026-04-05T06:32:29.001Z</time></trkpt><trkpt lat="39.962476541002935" lon="18.402999643643682"><ele>12.0</ele><time>2026-04-05T06:32:30.001Z</time></trkpt><trkpt lat="39.962353902607234" lon="18.402936511023185"><ele>10.5</ele><time>2026-04-05T06:32:31.001Z</time></trkpt><trkpt lat="39.96223110273785" lon="18.40287521223232"><ele>9.0</ele><time>2026-04-05T06:32:32.001Z</time></trkpt><trkpt lat="39.96212167484554" lon="18.40278611534645"><ele>11.5</ele><time>2026-04-05T06:32:33.001Z</time></trkpt><trkpt lat="39.96200816378779" lon="18.40269373217091"><ele>14.0</ele><time>2026-04-05T06:32:34.001Z</time></trkpt><trkpt lat="39.96188578537053" lon="18.40261718286425"><ele>16.5</ele><time>2026-04-05T06:32:35.001Z</time></trkpt><trkpt lat="39.961771539638335" lon="18.402553259268096"><ele>19.0</ele><time>2026-04-05T06:32:36.001Z</time></trkpt><trkpt lat="39.961655818045124" lon="18.402476187568777"><ele>19.0</ele><time>2026-04-05T06:32:37.001Z</time></trkpt><trkpt lat="39.96154213703605" lon="18.40243170237888"><ele>19.0</ele><time>2026-04-05T06:32:38.001Z</time></trkpt><trkpt lat="39.961413534675714" lon="18.40240531120343"><ele>19.0</ele><time>2026-04-05T06:32:39.001Z</time></trkpt><trkpt lat="39.9612865624731" lon="18.40239646589505"><ele>19.0</ele><time>2026-04-05T06:32:40.001Z</time></trkpt><trkpt lat="39.96114534903199" lon="18.402389178540286"><ele>19.0</ele><time>2026-04-05T06:32:41.001Z</time></trkpt><trkpt lat="39.96098902728542" lon="18.40245324714928"><ele>19.0</ele><time>2026-04-05T06:32:42.001Z</time></trkpt><trkpt lat="39.960869520656686" lon="18.40250515046561"><ele>19.0</ele><time>2026-04-05T06:32:43.001Z</time></trkpt><trkpt lat="39.96075486182747" lon="18.402535727355165"><ele>19.0</ele><time>2026-04-05T06:32:44Z</time></trkpt><trkpt lat="39.96062824777721" lon="18.40254800718069"><ele>19.0</ele><time>2026-04-05T06:32:45Z</time></trkpt><trkpt lat="39.96049374164076" lon="18.402532908053356"><ele>19.0</ele><time>2026-04-05T06:32:46Z</time></trkpt><trkpt lat="39.960357877884974" lon="18.402537598815854"><ele>19.0</ele><time>2026-04-05T06:32:47Z</time></trkpt><trkpt lat="39.960206327285626" lon="18.402499144468578"><ele>19.0</ele><time>2026-04-05T06:32:48Z</time></trkpt><trkpt lat="39.96003276943704" lon="18.40246071561544"><ele>19.0</ele><time>2026-04-05T06:32:49Z</time></trkpt><trkpt lat="39.95987178884079" lon="18.402399275033794"><ele>19.0</ele><time>2026-04-05T06:32:50Z</time></trkpt><trkpt lat="39.95971089673217" lon="18.402362179394355"><ele>19.0</ele><time>2026-04-05T06:32:51Z</time></trkpt><trkpt lat="39.9595419956904" lon="18.402331583657386"><ele>19.0</ele><time>2026-04-05T06:32:52Z</time></trkpt><trkpt lat="39.95936264578095" lon="18.402286969080542"><ele>19.0</ele><time>2026-04-05T06:32:53Z</time></trkpt><trkpt lat="39.959180772832376" lon="18.40225559255407"><ele>19.0</ele><time>2026-04-05T06:32:54Z</time></trkpt><trkpt lat="39.959011354859626" lon="18.402238056972678"><ele>18.5</ele><time>2026-04-05T06:32:55Z</time></trkpt><trkpt lat="39.95884932384347" lon="18.402211447938548"><ele>18.0</ele><time>2026-04-05T06:32:56Z</time></trkpt><trkpt lat="39.95870528943684" lon="18.402188492303402"><ele>17.5</ele><time>2026-04-05T06:32:57Z</time></trkpt><trkpt lat="39.95856747902369" lon="18.402177171327857"><ele>17.0</ele><time>2026-04-05T06:32:58Z</time></trkpt><trkpt lat="39.95843390029687" lon="18.402186663868445"><ele>17.333333333333336</ele><time>2026-04-05T06:32:59Z</time></trkpt><trkpt lat="39.95827619106361" lon="18.4022251192891"><ele>17.666666666666668</ele><time>2026-04-05T06:33:00Z</time></trkpt><trkpt lat="39.95812124726459" lon="18.402257185394276"><ele>18.0</ele><time>2026-04-05T06:33:01Z</time></trkpt><trkpt lat="39.95798546720322" lon="18.402335462818606"><ele>18.0</ele><time>2026-04-05T06:33:02Z</time></trkpt><trkpt lat="39.957818954184454" lon="18.402385281442616"><ele>18.0</ele><time>2026-04-05T06:33:03Z</time></trkpt><trkpt lat="39.957668129394435" lon="18.402425290015948"><ele>18.0</ele><time>2026-04-05T06:33:04Z</time></trkpt><trkpt lat="39.95749616238838" lon="18.402495838691472"><ele>18.333333333333332</ele><time>2026-04-05T06:33:05Z</time></trkpt><trkpt lat="39.957331629619134" lon="18.40256166620407"><ele>18.666666666666664</ele><time>2026-04-05T06:33:06Z</time></trkpt><trkpt lat="39.9571562988028" lon="18.40260169367929"><ele>19.0</ele><time>2026-04-05T06:33:07Z</time></trkpt><trkpt lat="39.956972167009305" lon="18.402613126865884"><ele>19.0</ele><time>2026-04-05T06:33:08Z</time></trkpt><trkpt lat="39.95676500412002" lon="18.40262583808046"><ele>19.0</ele><time>2026-04-05T06:33:09Z</time></trkpt><trkpt lat="39.95659292426221" lon="18.40261018746264"><ele>19.0</ele><time>2026-04-05T06:33:10Z</time></trkpt><trkpt lat="39.95641474967801" lon="18.40261437029609"><ele>19.5</ele><time>2026-04-05T06:33:11Z</time></trkpt><trkpt lat="39.95626333517235" lon="18.40260122649639"><ele>20.0</ele><time>2026-04-05T06:33:12Z</time></trkpt><trkpt lat="39.956119594061306" lon="18.402551731570767"><ele>20.5</ele><time>2026-04-05T06:33:13Z</time></trkpt><trkpt lat="39.95600179468138" lon="18.402475911345803"><ele>21.0</ele><time>2026-04-05T06:33:14Z</time></trkpt><trkpt lat="39.95586541172595" lon="18.40237325970667"><ele>19.666666666666668</ele><time>2026-04-05T06:33:15Z</time></trkpt><trkpt lat="39.955720335862345" lon="18.402280054282038"><ele>18.333333333333336</ele><time>2026-04-05T06:33:16Z</time></trkpt><trkpt lat="39.95557892685957" lon="18.402235558913713"><ele>17.0</ele><time>2026-04-05T06:33:17Z</time></trkpt><trkpt lat="39.95543494300488" lon="18.40218508630342"><ele>17.0</ele><time>2026-04-05T06:33:18Z</time></trkpt><trkpt lat="39.955278122984645" lon="18.402159827152342"><ele>17.0</ele><time>2026-04-05T06:33:19Z</time></trkpt><trkpt lat="39.95510271489229" lon="18.402178012625537"><ele>17.0</ele><time>2026-04-05T06:33:20Z</time></trkpt><trkpt lat="39.95493915902419" lon="18.402195293536103"><ele>15.5</ele><time>2026-04-05T06:33:21Z</time></trkpt><trkpt lat="39.954794242301524" lon="18.402248682976115"><ele>14.0</ele><time>2026-04-05T06:33:22Z</time></trkpt><trkpt lat="39.95465089960825" lon="18.402267795410726"><ele>12.5</ele><time>2026-04-05T06:33:23Z</time></trkpt><trkpt lat="39.95450307250239" lon="18.40223261721173"><ele>11.0</ele><time>2026-04-05T06:33:24Z</time></trkpt><trkpt lat="39.95434486103702" lon="18.402182491556104"><ele>15.333333333333332</ele><time>2026-04-05T06:33:25Z</time></trkpt><trkpt lat="39.95418480686965" lon="18.402135048448265"><ele>19.666666666666668</ele><time>2026-04-05T06:33:26Z</time></trkpt><trkpt lat="39.954013666517014" lon="18.402084319180194"><ele>24.0</ele><time>2026-04-05T06:33:27Z</time></trkpt><trkpt lat="39.9538183325268" lon="18.402064072945524"><ele>24.0</ele><time>2026-04-05T06:33:28Z</time></trkpt><trkpt lat="39.95363923329327" lon="18.402041250610306"><ele>24.0</ele><time>2026-04-05T06:33:29Z</time></trkpt><trkpt lat="39.95345021546789" lon="18.402044578164055"><ele>24.0</ele><time>2026-04-05T06:33:30Z</time></trkpt><trkpt lat="39.953268153964665" lon="18.402049506013867"><ele>23.0</ele><time>2026-04-05T06:33:31Z</time></trkpt><trkpt lat="39.95308803293811" lon="18.402046482156123"><ele>22.0</ele><time>2026-04-05T06:33:32Z</time></trkpt><trkpt lat="39.952896879476675" lon="18.40202746981679"><ele>21.0</ele><time>2026-04-05T06:33:33Z</time></trkpt><trkpt lat="39.952700709268676" lon="18.40199549777631"><ele>20.333333333333332</ele><time>2026-04-05T06:33:34Z</time></trkpt><trkpt lat="39.952500281462314" lon="18.40193971649421"><ele>19.666666666666664</ele><time>2026-04-05T06:33:35Z</time></trkpt><trkpt lat="39.95229662711298" lon="18.40189352236634"><ele>19.0</ele><time>2026-04-05T06:33:36Z</time></trkpt><trkpt lat="39.9520882926809" lon="18.40183287312772"><ele>19.0</ele><time>2026-04-05T06:33:37Z</time></trkpt><trkpt lat="39.95187590853708" lon="18.401775030747753"><ele>19.0</ele><time>2026-04-05T06:33:38Z</time></trkpt><trkpt lat="39.95166171711594" lon="18.40172768017703"><ele>19.0</ele><time>2026-04-05T06:33:39Z</time></trkpt><trkpt lat="39.951451721586" lon="18.401670491609323"><ele>17.0</ele><time>2026-04-05T06:33:40Z</time></trkpt><trkpt lat="39.951246869289044" lon="18.4016136860342"><ele>15.0</ele><time>2026-04-05T06:33:41Z</time></trkpt><trkpt lat="39.95104377568154" lon="18.401560556591654"><ele>13.0</ele><time>2026-04-05T06:33:42Z</time></trkpt><trkpt lat="39.95083870268244" lon="18.40150696785086"><ele>12.666666666666666</ele><time>2026-04-05T06:33:43.001Z</time></trkpt><trkpt lat="39.9506303886934" lon="18.401460370103585"><ele>12.333333333333332</ele><time>2026-04-05T06:33:44.001Z</time></trkpt><trkpt lat="39.95042482826515" lon="18.401416479669788"><ele>12.0</ele><time>2026-04-05T06:33:45.001Z</time></trkpt><trkpt lat="39.95022070020172" lon="18.401375309135748"><ele>16.333333333333336</ele><time>2026-04-05T06:33:46.001Z</time></trkpt><trkpt lat="39.950024673897786" lon="18.401329897947857"><ele>20.666666666666668</ele><time>2026-04-05T06:33:47.001Z</time></trkpt><trkpt lat="39.949836421798096" lon="18.401292007760045"><ele>25.0</ele><time>2026-04-05T06:33:48.001Z</time></trkpt><trkpt lat="39.94964992069983" lon="18.40125099473447"><ele>25.0</ele><time>2026-04-05T06:33:49.001Z</time></trkpt><trkpt lat="39.94947898357616" lon="18.401208868507144"><ele>25.0</ele><time>2026-04-05T06:33:50.001Z</time></trkpt><trkpt lat="39.9493141571607" lon="18.4011628695523"><ele>25.0</ele><time>2026-04-05T06:33:51.001Z</time></trkpt><trkpt lat="39.94914964209863" lon="18.401108432100013"><ele>23.666666666666668</ele><time>2026-04-05T06:33:52.001Z</time></trkpt><trkpt lat="39.9489792350995" lon="18.401046231694156"><ele>22.333333333333336</ele><time>2026-04-05T06:33:53.001Z</time></trkpt><trkpt lat="39.94881695705195" lon="18.40095987916541"><ele>21.0</ele><time>2026-04-05T06:33:54.001Z</time></trkpt><trkpt lat="39.948646956329256" lon="18.400891700701468"><ele>21.0</ele><time>2026-04-05T06:33:55.001Z</time></trkpt><trkpt lat="39.948480464932494" lon="18.400825903409242"><ele>21.0</ele><time>2026-04-05T06:33:56.001Z</time></trkpt><trkpt lat="39.948305654407584" lon="18.400789959733046"><ele>21.0</ele><time>2026-04-05T06:33:57.001Z</time></trkpt><trkpt lat="39.948130294142345" lon="18.400751743817555"><ele>19.0</ele><time>2026-04-05T06:33:58.001Z</time></trkpt><trkpt lat="39.94794163238808" lon="18.400735058823983"><ele>17.0</ele><time>2026-04-05T06:33:59.001Z</time></trkpt><trkpt lat="39.94775998012709" lon="18.40071264738092"><ele>15.0</ele><time>2026-04-05T06:34:00.001Z</time></trkpt><trkpt lat="39.947565357221" lon="18.400678431045055"><ele>13.333333333333334</ele><time>2026-04-05T06:34:01.001Z</time></trkpt><trkpt lat="39.94736407466278" lon="18.400666249057124"><ele>11.666666666666668</ele><time>2026-04-05T06:34:02.001Z</time></trkpt><trkpt lat="39.9471432749542" lon="18.400671003169162"><ele>10.0</ele><time>2026-04-05T06:34:03.001Z</time></trkpt><trkpt lat="39.946932026881484" lon="18.400667227598092"><ele>10.0</ele><time>2026-04-05T06:34:04.001Z</time></trkpt><trkpt lat="39.94671502123518" lon="18.400646308697915"><ele>10.0</ele><time>2026-04-05T06:34:05.001Z</time></trkpt><trkpt lat="39.946529822489076" lon="18.400663353549763"><ele>10.0</ele><time>2026-04-05T06:34:06.001Z</time></trkpt><trkpt lat="39.946352899552366" lon="18.400684398466527"><ele>8.666666666666668</ele><time>2026-04-05T06:34:07.001Z</time></trkpt><trkpt lat="39.94618035636603" lon="18.400702690595068"><ele>7.333333333333334</ele><time>2026-04-05T06:34:08.001Z</time></trkpt><trkpt lat="39.94601713543016" lon="18.400715718221196"><ele>6.0</ele><time>2026-04-05T06:34:09.001Z</time></trkpt><trkpt lat="39.94585694263896" lon="18.40074453320698"><ele>6.0</ele><time>2026-04-05T06:34:10.001Z</time></trkpt><trkpt lat="39.9456847209041" lon="18.400765401831254"><ele>6.0</ele><time>2026-04-05T06:34:11.001Z</time></trkpt><trkpt lat="39.94551189500508" lon="18.40076053537698"><ele>6.0</ele><time>2026-04-05T06:34:12.001Z</time></trkpt><trkpt lat="39.94532623862441" lon="18.40074559945218"><ele>6.0</ele><time>2026-04-05T06:34:13.001Z</time></trkpt><trkpt lat="39.945147432040386" lon="18.40073335287283"><ele>6.0</ele><time>2026-04-05T06:34:14.001Z</time></trkpt><trkpt lat="39.94496449375807" lon="18.400680559666807"><ele>6.0</ele><time>2026-04-05T06:34:15.001Z</time></trkpt><trkpt lat="39.94479895922468" lon="18.40061404035506"><ele>6.0</ele><time>2026-04-05T06:34:16.001Z</time></trkpt><trkpt lat="39.94460158776604" lon="18.400527029340783"><ele>6.0</ele><time>2026-04-05T06:34:17.001Z</time></trkpt><trkpt lat="39.944413269793436" lon="18.40044325201023"><ele>6.0</ele><time>2026-04-05T06:34:18.001Z</time></trkpt><trkpt lat="39.94424405211229" lon="18.400367461676208"><ele>9.666666666666668</ele><time>2026-04-05T06:34:19.001Z</time></trkpt><trkpt lat="39.944072509683856" lon="18.400266079174102"><ele>13.333333333333334</ele><time>2026-04-05T06:34:20.001Z</time></trkpt><trkpt lat="39.9438900859154" lon="18.40013738668165"><ele>17.0</ele><time>2026-04-05T06:34:21.001Z</time></trkpt><trkpt lat="39.94372521607381" lon="18.400015906229427"><ele>17.0</ele><time>2026-04-05T06:34:22.001Z</time></trkpt><trkpt lat="39.943539064522504" lon="18.399888880030556"><ele>17.0</ele><time>2026-04-05T06:34:23.001Z</time></trkpt><trkpt lat="39.9433657289271" lon="18.39976380462797"><ele>17.0</ele><time>2026-04-05T06:34:24.001Z</time></trkpt><trkpt lat="39.94319761538185" lon="18.399671502102535"><ele>20.333333333333336</ele><time>2026-04-05T06:34:25.001Z</time></trkpt><trkpt lat="39.943006676711235" lon="18.39959693429064"><ele>23.666666666666668</ele><time>2026-04-05T06:34:26.001Z</time></trkpt><trkpt lat="39.94282093359191" lon="18.39949665755084"><ele>27.0</ele><time>2026-04-05T06:34:27.001Z</time></trkpt><trkpt lat="39.94263032924014" lon="18.39940995062055"><ele>24.333333333333332</ele><time>2026-04-05T06:34:28.001Z</time></trkpt><trkpt lat="39.94245132958089" lon="18.39932459611802"><ele>21.666666666666664</ele><time>2026-04-05T06:34:29.001Z</time></trkpt><trkpt lat="39.942262016558665" lon="18.399229441394354"><ele>19.0</ele><time>2026-04-05T06:34:30.001Z</time></trkpt><trkpt lat="39.942109010548954" lon="18.39914366278457"><ele>19.0</ele><time>2026-04-05T06:34:31.001Z</time></trkpt><trkpt lat="39.941933467543436" lon="18.399043975762982"><ele>19.0</ele><time>2026-04-05T06:34:32.001Z</time></trkpt><trkpt lat="39.94174399900811" lon="18.398935832260783"><ele>19.0</ele><time>2026-04-05T06:34:33.001Z</time></trkpt><trkpt lat="39.941562450741095" lon="18.39883196243947"><ele>21.0</ele><time>2026-04-05T06:34:34.001Z</time></trkpt><trkpt lat="39.94140154079748" lon="18.398743073132056"><ele>23.0</ele><time>2026-04-05T06:34:35.001Z</time></trkpt><trkpt lat="39.94124737466709" lon="18.398672305739286"><ele>25.0</ele><time>2026-04-05T06:34:36.001Z</time></trkpt><trkpt lat="39.94106877756396" lon="18.398636204653602"><ele>25.0</ele><time>2026-04-05T06:34:37.001Z</time></trkpt><trkpt lat="39.94088264801353" lon="18.398617143878905"><ele>25.0</ele><time>2026-04-05T06:34:38.001Z</time></trkpt><trkpt lat="39.940705186671615" lon="18.39861784912913"><ele>25.0</ele><time>2026-04-05T06:34:39.001Z</time></trkpt><trkpt lat="39.94053108458977" lon="18.398592835458"><ele>24.0</ele><time>2026-04-05T06:34:40.001Z</time></trkpt><trkpt lat="39.94034511502305" lon="18.398556465899176"><ele>23.0</ele><time>2026-04-05T06:34:41.001Z</time></trkpt><trkpt lat="39.9401571717865" lon="18.39850336099353"><ele>22.0</ele><time>2026-04-05T06:34:42.001Z</time></trkpt><trkpt lat="39.93995846627106" lon="18.398442233801184"><ele>20.0</ele><time>2026-04-05T06:34:43.001Z</time></trkpt><trkpt lat="39.93977024189354" lon="18.39838046139003"><ele>18.0</ele><time>2026-04-05T06:34:44.001Z</time></trkpt><trkpt lat="39.939584453950545" lon="18.398328618298624"><ele>16.0</ele><time>2026-04-05T06:34:45.001Z</time></trkpt><trkpt lat="39.93939596322588" lon="18.39827273786769"><ele>15.333333333333332</ele><time>2026-04-05T06:34:46.001Z</time></trkpt><trkpt lat="39.939217218502705" lon="18.398222950130364"><ele>14.666666666666668</ele><time>2026-04-05T06:34:47.001Z</time></trkpt><trkpt lat="39.9390249882087" lon="18.398188264823713"><ele>14.0</ele><time>2026-04-05T06:34:48.001Z</time></trkpt><trkpt lat="39.938841553645354" lon="18.39816087947702"><ele>14.0</ele><time>2026-04-05T06:34:49.001Z</time></trkpt><trkpt lat="39.93867121131778" lon="18.398127330035894"><ele>14.0</ele><time>2026-04-05T06:34:50Z</time></trkpt><trkpt lat="39.93849088537317" lon="18.398106855272445"><ele>14.0</ele><time>2026-04-05T06:34:51Z</time></trkpt><trkpt lat="39.93829851613439" lon="18.39810581354038"><ele>13.0</ele><time>2026-04-05T06:34:52Z</time></trkpt><trkpt lat="39.93809923137348" lon="18.398127490539398"><ele>12.0</ele><time>2026-04-05T06:34:53Z</time></trkpt><trkpt lat="39.93790215854406" lon="18.398147773810166"><ele>11.0</ele><time>2026-04-05T06:34:54Z</time></trkpt><trkpt lat="39.93771978561241" lon="18.3981610048166"><ele>11.0</ele><time>2026-04-05T06:34:55Z</time></trkpt><trkpt lat="39.93752841766927" lon="18.398160168318707"><ele>11.0</ele><time>2026-04-05T06:34:56Z</time></trkpt><trkpt lat="39.937324713398546" lon="18.39814449411306"><ele>11.0</ele><time>2026-04-05T06:34:57Z</time></trkpt><trkpt lat="39.93712113567264" lon="18.39811012883688"><ele>11.0</ele><time>2026-04-05T06:34:58Z</time></trkpt><trkpt lat="39.936918730503045" lon="18.398063390433418"><ele>11.0</ele><time>2026-04-05T06:34:59Z</time></trkpt><trkpt lat="39.9367008343715" lon="18.398028632833686"><ele>11.0</ele><time>2026-04-05T06:35:00Z</time></trkpt><trkpt lat="39.93649392740684" lon="18.398001082590792"><ele>16.5</ele><time>2026-04-05T06:35:01Z</time></trkpt><trkpt lat="39.936265756493995" lon="18.397968529478394"><ele>22.0</ele><time>2026-04-05T06:35:02Z</time></trkpt><trkpt lat="39.9360391532841" lon="18.39793607265898"><ele>22.0</ele><time>2026-04-05T06:35:03Z</time></trkpt><trkpt lat="39.93583460305258" lon="18.397906558207293"><ele>22.0</ele><time>2026-04-05T06:35:04Z</time></trkpt><trkpt lat="39.9356372760638" lon="18.397883479519383"><ele>22.0</ele><time>2026-04-05T06:35:05Z</time></trkpt><trkpt lat="39.93544713933561" lon="18.397860330659604"><ele>22.0</ele><time>2026-04-05T06:35:06Z</time></trkpt><trkpt lat="39.93526803853392" lon="18.39783502962012"><ele>22.0</ele><time>2026-04-05T06:35:07Z</time></trkpt><trkpt lat="39.93510160529518" lon="18.397816672253867"><ele>22.0</ele><time>2026-04-05T06:35:08Z</time></trkpt><trkpt lat="39.93494088879151" lon="18.39779036400954"><ele>21.0</ele><time>2026-04-05T06:35:09Z</time></trkpt><trkpt lat="39.93478773220092" lon="18.397766336857035"><ele>20.0</ele><time>2026-04-05T06:35:10Z</time></trkpt><trkpt lat="39.93464878519581" lon="18.397743405664013"><ele>19.0</ele><time>2026-04-05T06:35:11Z</time></trkpt><trkpt lat="39.934531990868" lon="18.397729161619335"><ele>18.0</ele><time>2026-04-05T06:35:12Z</time></trkpt><trkpt lat="39.93443281976926" lon="18.397705033374308"><ele>18.0</ele><time>2026-04-05T06:35:13Z</time></trkpt><trkpt lat="39.934350237294005" lon="18.39765674470275"><ele>18.0</ele><time>2026-04-05T06:35:14Z</time></trkpt><trkpt lat="39.93429408297069" lon="18.39756560678572"><ele>18.0</ele><time>2026-04-05T06:35:15Z</time></trkpt><trkpt lat="39.93423443043165" lon="18.39745593568558"><ele>18.0</ele><time>2026-04-05T06:35:16Z</time></trkpt><trkpt lat="39.93416445063755" lon="18.397332244442648"><ele>18.0</ele><time>2026-04-05T06:35:17Z</time></trkpt><trkpt lat="39.93408394072269" lon="18.397186809826064"><ele>17.166666666666668</ele><time>2026-04-05T06:35:18Z</time></trkpt><trkpt lat="39.93402445460066" lon="18.39707648369313"><ele>16.333333333333332</ele><time>2026-04-05T06:35:19Z</time></trkpt><trkpt lat="39.933984148459054" lon="18.396982785392375"><ele>15.5</ele><time>2026-04-05T06:35:20Z</time></trkpt><trkpt lat="39.93397094494391" lon="18.396890747578897"><ele>14.666666666666666</ele><time>2026-04-05T06:35:21Z</time></trkpt><trkpt lat="39.93399128450534" lon="18.396802844631384"><ele>13.833333333333332</ele><time>2026-04-05T06:35:22Z</time></trkpt><trkpt lat="39.9340398791069" lon="18.396714841462778"><ele>13.0</ele><time>2026-04-05T06:35:23Z</time></trkpt><trkpt lat="39.93409660380535" lon="18.39664403616913"><ele>13.0</ele><time>2026-04-05T06:35:24Z</time></trkpt><trkpt lat="39.9341957974318" lon="18.39660253174582"><ele>13.0</ele><time>2026-04-05T06:35:25Z</time></trkpt><trkpt lat="39.9342825604" lon="18.39652808901795"><ele>13.0</ele><time>2026-04-05T06:35:26Z</time></trkpt><trkpt lat="39.93437514021533" lon="18.39647151431348"><ele>13.0</ele><time>2026-04-05T06:35:27Z</time></trkpt><trkpt lat="39.93445974482302" lon="18.396411774038015"><ele>13.0</ele><time>2026-04-05T06:35:28Z</time></trkpt><trkpt lat="39.934536532110485" lon="18.396340387058945"><ele>14.333333333333332</ele><time>2026-04-05T06:35:29Z</time></trkpt><trkpt lat="39.934595307236336" lon="18.396256249917354"><ele>15.666666666666666</ele><time>2026-04-05T06:35:30Z</time></trkpt><trkpt lat="39.93461544125699" lon="18.39615428170835"><ele>17.0</ele><time>2026-04-05T06:35:31Z</time></trkpt><trkpt lat="39.93460516713897" lon="18.396069458425824"><ele>18.333333333333332</ele><time>2026-04-05T06:35:32Z</time></trkpt><trkpt lat="39.93458661784186" lon="18.39598028823133"><ele>19.666666666666668</ele><time>2026-04-05T06:35:33Z</time></trkpt><trkpt lat="39.93454590601268" lon="18.395878636280145"><ele>21.0</ele><time>2026-04-05T06:35:34Z</time></trkpt><trkpt lat="39.93450191231606" lon="18.39579614646666"><ele>21.0</ele><time>2026-04-05T06:35:35Z</time></trkpt><trkpt lat="39.93442980861435" lon="18.395735011439143"><ele>21.0</ele><time>2026-04-05T06:35:36Z</time></trkpt><trkpt lat="39.93435395740695" lon="18.395676338561167"><ele>21.0</ele><time>2026-04-05T06:35:37Z</time></trkpt><trkpt lat="39.93424503921003" lon="18.395654646461516"><ele>21.0</ele><time>2026-04-05T06:35:38Z</time></trkpt><trkpt lat="39.93414431637866" lon="18.395638436056604"><ele>21.0</ele><time>2026-04-05T06:35:39Z</time></trkpt><trkpt lat="39.934050265730846" lon="18.395616731899885"><ele>19.0</ele><time>2026-04-05T06:35:40Z</time></trkpt><trkpt lat="39.93395369903077" lon="18.39559461211956"><ele>17.0</ele><time>2026-04-05T06:35:41Z</time></trkpt><trkpt lat="39.93387749987436" lon="18.395598557994287"><ele>15.0</ele><time>2026-04-05T06:35:42Z</time></trkpt><trkpt lat="39.933801511874684" lon="18.395598813283"><ele>13.0</ele><time>2026-04-05T06:35:43Z</time></trkpt><trkpt lat="39.93368164889459" lon="18.39557539582593"><ele>11.0</ele><time>2026-04-05T06:35:45.001Z</time></trkpt><trkpt lat="39.93361355122621" lon="18.395555855295296"><ele>9.0</ele><time>2026-04-05T06:35:46.001Z</time></trkpt><trkpt lat="39.9334959558376" lon="18.3955301734725"><ele>9.000000000000002</ele><time>2026-04-05T06:35:48.001Z</time></trkpt><trkpt lat="39.9334273629707" lon="18.395523848771887"><ele>9.0</ele><time>2026-04-05T06:35:49.001Z</time></trkpt><trkpt lat="39.93335889142726" lon="18.395518569883883"><ele>9.0</ele><time>2026-04-05T06:35:50.001Z</time></trkpt><trkpt lat="39.933286464342345" lon="18.39550946078724"><ele>9.0</ele><time>2026-04-05T06:35:51.001Z</time></trkpt><trkpt lat="39.93321406805887" lon="18.395504678996957"><ele>9.0</ele><time>2026-04-05T06:35:52.001Z</time></trkpt><trkpt lat="39.9331441143731" lon="18.39550358273775"><ele>9.000000000000002</ele><time>2026-04-05T06:35:53.001Z</time></trkpt><trkpt lat="39.933079571832295" lon="18.39549380961091"><ele>9.0</ele><time>2026-04-05T06:35:54.001Z</time></trkpt><trkpt lat="39.932972591826875" lon="18.39547078496082"><ele>9.5</ele><time>2026-04-05T06:35:56.001Z</time></trkpt><trkpt lat="39.93291135676911" lon="18.395436170769745"><ele>10.0</ele><time>2026-04-05T06:35:58.001Z</time></trkpt><trkpt lat="39.93291380938038" lon="18.3953448654312"><ele>10.5</ele><time>2026-04-05T06:36:00.001Z</time></trkpt><trkpt lat="39.93286237161937" lon="18.39522361931787"><ele>11.0</ele><time>2026-04-05T06:36:02.001Z</time></trkpt><trkpt lat="39.93277897508049" lon="18.395105805193282"><ele>11.5</ele><time>2026-04-05T06:36:04.001Z</time></trkpt><trkpt lat="39.932750038537904" lon="18.39501710189442"><ele>12.0</ele><time>2026-04-05T06:36:05.001Z</time></trkpt><trkpt lat="39.93269576729704" lon="18.394943297295153"><ele>12.0</ele><time>2026-04-05T06:36:06.001Z</time></trkpt><trkpt lat="39.93266239834242" lon="18.394851411739293"><ele>12.0</ele><time>2026-04-05T06:36:07.001Z</time></trkpt><trkpt lat="39.93262487564302" lon="18.394758511284387"><ele>12.0</ele><time>2026-04-05T06:36:08.001Z</time></trkpt><trkpt lat="39.93258438396722" lon="18.39466095961041"><ele>12.0</ele><time>2026-04-05T06:36:09.001Z</time></trkpt><trkpt lat="39.93253689953581" lon="18.394525942798893"><ele>12.0</ele><time>2026-04-05T06:36:10.001Z</time></trkpt><trkpt lat="39.93246754692485" lon="18.394428484651048"><ele>14.5</ele><time>2026-04-05T06:36:11.001Z</time></trkpt><trkpt lat="39.93238616168528" lon="18.39432400363341"><ele>17.0</ele><time>2026-04-05T06:36:12.001Z</time></trkpt><trkpt lat="39.93231546286484" lon="18.394212263952483"><ele>19.5</ele><time>2026-04-05T06:36:13.001Z</time></trkpt><trkpt lat="39.93223399581824" lon="18.39411107406447"><ele>22.0</ele><time>2026-04-05T06:36:14.001Z</time></trkpt><trkpt lat="39.932146461100764" lon="18.39399628459306"><ele>22.0</ele><time>2026-04-05T06:36:15.001Z</time></trkpt><trkpt lat="39.932066513741894" lon="18.393877294480394"><ele>22.0</ele><time>2026-04-05T06:36:16.001Z</time></trkpt><trkpt lat="39.93200003135545" lon="18.393767507133642"><ele>22.0</ele><time>2026-04-05T06:36:17.001Z</time></trkpt><trkpt lat="39.93194753891497" lon="18.39363589574563"><ele>22.0</ele><time>2026-04-05T06:36:18.001Z</time></trkpt><trkpt lat="39.9319275039532" lon="18.393485807927526"><ele>24.0</ele><time>2026-04-05T06:36:19.001Z</time></trkpt><trkpt lat="39.9319055181919" lon="18.39332541653587"><ele>26.0</ele><time>2026-04-05T06:36:20.001Z</time></trkpt><trkpt lat="39.93188717811819" lon="18.39318309700576"><ele>28.0</ele><time>2026-04-05T06:36:21.001Z</time></trkpt><trkpt lat="39.931833339678235" lon="18.393041378169347"><ele>30.0</ele><time>2026-04-05T06:36:22.001Z</time></trkpt><trkpt lat="39.93180354545964" lon="18.392897105965428"><ele>31.8</ele><time>2026-04-05T06:36:23.001Z</time></trkpt><trkpt lat="39.931767366402184" lon="18.39276402344901"><ele>33.6</ele><time>2026-04-05T06:36:24.001Z</time></trkpt><trkpt lat="39.93170248970979" lon="18.39265993258346"><ele>35.4</ele><time>2026-04-05T06:36:25.001Z</time></trkpt><trkpt lat="39.931607914120875" lon="18.39260020044617"><ele>37.2</ele><time>2026-04-05T06:36:26.001Z</time></trkpt><trkpt lat="39.931511829897076" lon="18.39252362775973"><ele>39.0</ele><time>2026-04-05T06:36:27.001Z</time></trkpt><trkpt lat="39.931392769382555" lon="18.39245251030647"><ele>39.0</ele><time>2026-04-05T06:36:28.001Z</time></trkpt><trkpt lat="39.931242259858365" lon="18.392357552017923"><ele>39.0</ele><time>2026-04-05T06:36:29.001Z</time></trkpt><trkpt lat="39.93111777990059" lon="18.392280047194276"><ele>39.0</ele><time>2026-04-05T06:36:30.001Z</time></trkpt><trkpt lat="39.93098797600042" lon="18.392199227531357"><ele>39.0</ele><time>2026-04-05T06:36:31.001Z</time></trkpt><trkpt lat="39.930863674535416" lon="18.392102612997807"><ele>42.75</ele><time>2026-04-05T06:36:32.001Z</time></trkpt><trkpt lat="39.93074777388035" lon="18.39203700524504"><ele>46.5</ele><time>2026-04-05T06:36:33.001Z</time></trkpt><trkpt lat="39.93062361004319" lon="18.391957034405603"><ele>50.25</ele><time>2026-04-05T06:36:34.001Z</time></trkpt><trkpt lat="39.93050230782575" lon="18.391880194984854"><ele>54.0</ele><time>2026-04-05T06:36:35.001Z</time></trkpt><trkpt lat="39.93040013914078" lon="18.391814037109558"><ele>54.0</ele><time>2026-04-05T06:36:36.001Z</time></trkpt><trkpt lat="39.93028251928689" lon="18.39176972736824"><ele>54.0</ele><time>2026-04-05T06:36:37.001Z</time></trkpt><trkpt lat="39.93015955184984" lon="18.391749064580697"><ele>54.0</ele><time>2026-04-05T06:36:38.001Z</time></trkpt><trkpt lat="39.930014580692536" lon="18.391726595199007"><ele>54.0</ele><time>2026-04-05T06:36:39.001Z</time></trkpt><trkpt lat="39.92987607136151" lon="18.39170512719541"><ele>54.6</ele><time>2026-04-05T06:36:40.001Z</time></trkpt><trkpt lat="39.929765223656595" lon="18.39169319237302"><ele>55.2</ele><time>2026-04-05T06:36:41.001Z</time></trkpt><trkpt lat="39.92964156960483" lon="18.391691904444702"><ele>55.800000000000004</ele><time>2026-04-05T06:36:42.001Z</time></trkpt><trkpt lat="39.9295468357341" lon="18.391709272840334"><ele>56.400000000000006</ele><time>2026-04-05T06:36:43.001Z</time></trkpt><trkpt lat="39.92943450614446" lon="18.391719658015198"><ele>57.0</ele><time>2026-04-05T06:36:44.001Z</time></trkpt><trkpt lat="39.92929725154791" lon="18.391678819338285"><ele>57.25</ele><time>2026-04-05T06:36:46.001Z</time></trkpt><trkpt lat="39.9292182778358" lon="18.391585016020844"><ele>57.5</ele><time>2026-04-05T06:36:47.001Z</time></trkpt><trkpt lat="39.92914190127804" lon="18.391496093687273"><ele>57.75</ele><time>2026-04-05T06:36:48.001Z</time></trkpt><trkpt lat="39.9290501136849" lon="18.391387467873855"><ele>58.0</ele><time>2026-04-05T06:36:49.001Z</time></trkpt><trkpt lat="39.92895037893005" lon="18.391287257670722"><ele>61.0</ele><time>2026-04-05T06:36:50.001Z</time></trkpt><trkpt lat="39.928870682351146" lon="18.391196860784188"><ele>64.0</ele><time>2026-04-05T06:36:51.001Z</time></trkpt><trkpt lat="39.928807465614504" lon="18.391126004980315"><ele>67.0</ele><time>2026-04-05T06:36:52.001Z</time></trkpt><trkpt lat="39.928731265799925" lon="18.39107834605845"><ele>70.0</ele><time>2026-04-05T06:36:53.001Z</time></trkpt><trkpt lat="39.9286457105118" lon="18.391049709930726"><ele>73.0</ele><time>2026-04-05T06:36:54.001Z</time></trkpt><trkpt lat="39.92854814857059" lon="18.39101110605722"><ele>73.0</ele><time>2026-04-05T06:36:55.001Z</time></trkpt><trkpt lat="39.92842475868217" lon="18.391129294748758"><ele>73.0</ele><time>2026-04-05T06:36:56Z</time></trkpt><trkpt lat="39.92830248483356" lon="18.391129627354598"><ele>73.0</ele><time>2026-04-05T06:36:57Z</time></trkpt><trkpt lat="39.92816631406452" lon="18.39111717660773"><ele>73.0</ele><time>2026-04-05T06:36:58Z</time></trkpt><trkpt lat="39.92803082474821" lon="18.39111991497186"><ele>73.25</ele><time>2026-04-05T06:36:59Z</time></trkpt><trkpt lat="39.92790484073839" lon="18.391110300284023"><ele>73.5</ele><time>2026-04-05T06:37:00Z</time></trkpt><trkpt lat="39.92775525064954" lon="18.391094943413815"><ele>73.75</ele><time>2026-04-05T06:37:01Z</time></trkpt><trkpt lat="39.92761546994348" lon="18.391059263254416"><ele>74.0</ele><time>2026-04-05T06:37:02Z</time></trkpt><trkpt lat="39.92747150132085" lon="18.39101135969775"><ele>74.0</ele><time>2026-04-05T06:37:03Z</time></trkpt><trkpt lat="39.927335332357" lon="18.39097337932122"><ele>74.0</ele><time>2026-04-05T06:37:04Z</time></trkpt><trkpt lat="39.92719744072866" lon="18.39092746199881"><ele>74.0</ele><time>2026-04-05T06:37:05Z</time></trkpt><trkpt lat="39.92704723231349" lon="18.3909083089995"><ele>74.0</ele><time>2026-04-05T06:37:06Z</time></trkpt><trkpt lat="39.92690225226012" lon="18.3908742482638"><ele>74.0</ele><time>2026-04-05T06:37:07Z</time></trkpt><trkpt lat="39.926765676550964" lon="18.39084863349717"><ele>74.0</ele><time>2026-04-05T06:37:08Z</time></trkpt><trkpt lat="39.92662659607133" lon="18.39082579988042"><ele>74.0</ele><time>2026-04-05T06:37:09Z</time></trkpt><trkpt lat="39.92648766156746" lon="18.390803643464924"><ele>74.0</ele><time>2026-04-05T06:37:10Z</time></trkpt><trkpt lat="39.926358684426006" lon="18.39075249197356"><ele>74.25</ele><time>2026-04-05T06:37:11Z</time></trkpt><trkpt lat="39.92623058558601" lon="18.390717632568542"><ele>74.5</ele><time>2026-04-05T06:37:12Z</time></trkpt><trkpt lat="39.926102996901896" lon="18.39064486832003"><ele>74.75</ele><time>2026-04-05T06:37:13Z</time></trkpt><trkpt lat="39.92596538665742" lon="18.390567512385807"><ele>75.0</ele><time>2026-04-05T06:37:14Z</time></trkpt><trkpt lat="39.92584100420568" lon="18.39049506924804"><ele>76.5</ele><time>2026-04-05T06:37:15Z</time></trkpt><trkpt lat="39.925726582428496" lon="18.390419696504757"><ele>78.0</ele><time>2026-04-05T06:37:16Z</time></trkpt><trkpt lat="39.925616850091004" lon="18.39032564820019"><ele>79.5</ele><time>2026-04-05T06:37:17Z</time></trkpt><trkpt lat="39.92551136754841" lon="18.390211601661267"><ele>81.0</ele><time>2026-04-05T06:37:18Z</time></trkpt><trkpt lat="39.92542483547609" lon="18.390124358993216"><ele>81.0</ele><time>2026-04-05T06:37:19Z</time></trkpt><trkpt lat="39.92537123416017" lon="18.390045170391986"><ele>81.0</ele><time>2026-04-05T06:37:20Z</time></trkpt><trkpt lat="39.925316990863834" lon="18.38996331670539"><ele>81.0</ele><time>2026-04-05T06:37:21Z</time></trkpt><trkpt lat="39.92529049473307" lon="18.389862419069647"><ele>81.0</ele><time>2026-04-05T06:37:22Z</time></trkpt><trkpt lat="39.92528508618009" lon="18.389770176815684"><ele>81.0</ele><time>2026-04-05T06:37:23Z</time></trkpt><trkpt lat="39.92530352640931" lon="18.389665150710087"><ele>81.0</ele><time>2026-04-05T06:37:24Z</time></trkpt><trkpt lat="39.925353437206006" lon="18.389559656929453"><ele>80.25</ele><time>2026-04-05T06:37:25Z</time></trkpt><trkpt lat="39.92540662837258" lon="18.389397164051744"><ele>79.5</ele><time>2026-04-05T06:37:26Z</time></trkpt><trkpt lat="39.9254563550901" lon="18.3892417792822"><ele>78.75</ele><time>2026-04-05T06:37:27Z</time></trkpt><trkpt lat="39.925508467024805" lon="18.389123728396658"><ele>78.0</ele><time>2026-04-05T06:37:28Z</time></trkpt><trkpt lat="39.92557891485765" lon="18.389011944248967"><ele>78.0</ele><time>2026-04-05T06:37:29Z</time></trkpt><trkpt lat="39.925686893311536" lon="18.38890555555298"><ele>78.0</ele><time>2026-04-05T06:37:30Z</time></trkpt><trkpt lat="39.92578938276411" lon="18.38879303328731"><ele>78.0</ele><time>2026-04-05T06:37:31Z</time></trkpt><trkpt lat="39.925880771214814" lon="18.388664775114613"><ele>78.0</ele><time>2026-04-05T06:37:32Z</time></trkpt><trkpt lat="39.92595835691978" lon="18.388472111659915"><ele>79.33333333333333</ele><time>2026-04-05T06:37:33Z</time></trkpt><trkpt lat="39.926018049133575" lon="18.388283787135556"><ele>80.66666666666666</ele><time>2026-04-05T06:37:34Z</time></trkpt><trkpt lat="39.92608116674916" lon="18.388094305020513"><ele>82.0</ele><time>2026-04-05T06:37:35Z</time></trkpt><trkpt lat="39.926144916222874" lon="18.387904377976817"><ele>79.25</ele><time>2026-04-05T06:37:36Z</time></trkpt><trkpt lat="39.926205170018726" lon="18.38772739427281"><ele>76.5</ele><time>2026-04-05T06:37:37Z</time></trkpt><trkpt lat="39.92626023137241" lon="18.38755631563827"><ele>73.75</ele><time>2026-04-05T06:37:38Z</time></trkpt><trkpt lat="39.92631110379072" lon="18.38737658807928"><ele>71.0</ele><time>2026-04-05T06:37:39Z</time></trkpt><trkpt lat="39.926356450189985" lon="18.38718277138367"><ele>69.5</ele><time>2026-04-05T06:37:40Z</time></trkpt><trkpt lat="39.92638618784625" lon="18.38700392209445"><ele>68.0</ele><time>2026-04-05T06:37:41Z</time></trkpt><trkpt lat="39.92641851090332" lon="18.386840282720687"><ele>66.5</ele><time>2026-04-05T06:37:42Z</time></trkpt><trkpt lat="39.92645313773984" lon="18.386680861821525"><ele>65.0</ele><time>2026-04-05T06:37:43Z</time></trkpt><trkpt lat="39.926479466334676" lon="18.386543377657855"><ele>65.0</ele><time>2026-04-05T06:37:44Z</time></trkpt><trkpt lat="39.92649849519258" lon="18.386432376432502"><ele>65.0</ele><time>2026-04-05T06:37:45Z</time></trkpt><trkpt lat="39.92651075648975" lon="18.386345698521065"><ele>65.0</ele><time>2026-04-05T06:37:46Z</time></trkpt><trkpt lat="39.92649532534889" lon="18.386217836448964"><ele>65.0</ele><time>2026-04-05T06:37:48Z</time></trkpt><trkpt lat="39.92640183930727" lon="18.38617082901083"><ele>65.0</ele><time>2026-04-05T06:37:55.001Z</time></trkpt><trkpt lat="39.92628663952439" lon="18.38629642635412"><ele>65.0</ele><time>2026-04-05T06:37:57.001Z</time></trkpt><trkpt lat="39.92624619560688" lon="18.386403682477837"><ele>65.0</ele><time>2026-04-05T06:37:58.001Z</time></trkpt><trkpt lat="39.92619842036554" lon="18.386538236943654"><ele>65.0</ele><time>2026-04-05T06:37:59.001Z</time></trkpt><trkpt lat="39.92613019017372" lon="18.386680339403316"><ele>65.0</ele><time>2026-04-05T06:38:00.001Z</time></trkpt><trkpt lat="39.926048586201276" lon="18.38683678867489"><ele>65.0</ele><time>2026-04-05T06:38:01.001Z</time></trkpt><trkpt lat="39.92595358943352" lon="18.387003369987575"><ele>65.0</ele><time>2026-04-05T06:38:02.001Z</time></trkpt><trkpt lat="39.92584686751253" lon="18.387175943845055"><ele>65.0</ele><time>2026-04-05T06:38:03.001Z</time></trkpt><trkpt lat="39.92571805801792" lon="18.387363736356445"><ele>66.0</ele><time>2026-04-05T06:38:04.001Z</time></trkpt><trkpt lat="39.92557582975137" lon="18.38754854489192"><ele>67.0</ele><time>2026-04-05T06:38:05.001Z</time></trkpt><trkpt lat="39.92542635102089" lon="18.387739683520913"><ele>68.0</ele><time>2026-04-05T06:38:06.001Z</time></trkpt><trkpt lat="39.92528092147837" lon="18.387927035408463"><ele>67.33333333333334</ele><time>2026-04-05T06:38:07.001Z</time></trkpt><trkpt lat="39.925144590892494" lon="18.388107623752727"><ele>66.66666666666667</ele><time>2026-04-05T06:38:08.001Z</time></trkpt><trkpt lat="39.92500686059953" lon="18.388288621996132"><ele>66.0</ele><time>2026-04-05T06:38:09.001Z</time></trkpt><trkpt lat="39.92487472532164" lon="18.38846584994323"><ele>66.0</ele><time>2026-04-05T06:38:10.001Z</time></trkpt><trkpt lat="39.924741513311304" lon="18.388645621500732"><ele>66.0</ele><time>2026-04-05T06:38:11.001Z</time></trkpt><trkpt lat="39.92459434348477" lon="18.388826983377317"><ele>66.0</ele><time>2026-04-05T06:38:12.001Z</time></trkpt><trkpt lat="39.92445143602834" lon="18.389009911931268"><ele>65.33333333333333</ele><time>2026-04-05T06:38:13.001Z</time></trkpt><trkpt lat="39.92432781829274" lon="18.389189063835406"><ele>64.66666666666666</ele><time>2026-04-05T06:38:14.001Z</time></trkpt><trkpt lat="39.92419839808375" lon="18.389357192345283"><ele>64.0</ele><time>2026-04-05T06:38:15.001Z</time></trkpt><trkpt lat="39.92406437261328" lon="18.38952640881187"><ele>65.0</ele><time>2026-04-05T06:38:16.001Z</time></trkpt><trkpt lat="39.92394327583717" lon="18.3896948092529"><ele>66.0</ele><time>2026-04-05T06:38:17.001Z</time></trkpt><trkpt lat="39.92382968132439" lon="18.389840792385602"><ele>67.0</ele><time>2026-04-05T06:38:18.001Z</time></trkpt><trkpt lat="39.92373957506663" lon="18.38995943912335"><ele>67.0</ele><time>2026-04-05T06:38:19.001Z</time></trkpt><trkpt lat="39.92368090442966" lon="18.390048336057948"><ele>67.0</ele><time>2026-04-05T06:38:20.001Z</time></trkpt><trkpt lat="39.923603872071645" lon="18.39019012463337"><ele>67.0</ele><time>2026-04-05T06:38:22.001Z</time></trkpt><trkpt lat="39.92353690555056" lon="18.390291683608734"><ele>67.0</ele><time>2026-04-05T06:38:24.001Z</time></trkpt><trkpt lat="39.92347622286236" lon="18.39035378822101"><ele>67.0</ele><time>2026-04-05T06:38:26.001Z</time></trkpt><trkpt lat="39.92339922093653" lon="18.390395297059964"><ele>66.25</ele><time>2026-04-05T06:38:28.001Z</time></trkpt><trkpt lat="39.92329527694862" lon="18.39023741870521"><ele>65.5</ele><time>2026-04-05T06:38:29.001Z</time></trkpt><trkpt lat="39.923208959539366" lon="18.39017538651341"><ele>64.75</ele><time>2026-04-05T06:38:30.001Z</time></trkpt><trkpt lat="39.92311453753032" lon="18.390087313542708"><ele>64.0</ele><time>2026-04-05T06:38:31.001Z</time></trkpt><trkpt lat="39.92302133141348" lon="18.38999960000782"><ele>64.0</ele><time>2026-04-05T06:38:32.001Z</time></trkpt><trkpt lat="39.92292191118735" lon="18.38991200106617"><ele>64.0</ele><time>2026-04-05T06:38:33.001Z</time></trkpt><trkpt lat="39.922830140789905" lon="18.389794239979956"><ele>64.0</ele><time>2026-04-05T06:38:34.001Z</time></trkpt><trkpt lat="39.922714942127165" lon="18.389691914102308"><ele>64.0</ele><time>2026-04-05T06:38:35.001Z</time></trkpt><trkpt lat="39.92261935527799" lon="18.389602355139107"><ele>64.60000000000001</ele><time>2026-04-05T06:38:36.001Z</time></trkpt><trkpt lat="39.92254691343237" lon="18.389523690787986"><ele>65.2</ele><time>2026-04-05T06:38:37.001Z</time></trkpt><trkpt lat="39.92246493274026" lon="18.389476075305026"><ele>65.80000000000001</ele><time>2026-04-05T06:38:38.001Z</time></trkpt><trkpt lat="39.92237925399255" lon="18.38947026871336"><ele>66.4</ele><time>2026-04-05T06:38:39.001Z</time></trkpt><trkpt lat="39.92229178997775" lon="18.38949788571122"><ele>67.0</ele><time>2026-04-05T06:38:40.001Z</time></trkpt><trkpt lat="39.92219226672464" lon="18.38953532492581"><ele>67.0</ele><time>2026-04-05T06:38:41.001Z</time></trkpt><trkpt lat="39.922080075083116" lon="18.38959345321562"><ele>67.0</ele><time>2026-04-05T06:38:42.001Z</time></trkpt><trkpt lat="39.92194804668388" lon="18.38966359201961"><ele>67.0</ele><time>2026-04-05T06:38:43.001Z</time></trkpt><trkpt lat="39.9218173364868" lon="18.389733512119864"><ele>67.0</ele><time>2026-04-05T06:38:44.001Z</time></trkpt><trkpt lat="39.92167908672817" lon="18.38980822965143"><ele>65.0</ele><time>2026-04-05T06:38:45.001Z</time></trkpt><trkpt lat="39.92153683014134" lon="18.38989141258273"><ele>63.0</ele><time>2026-04-05T06:38:46.001Z</time></trkpt><trkpt lat="39.921405920691676" lon="18.389995421322926"><ele>61.0</ele><time>2026-04-05T06:38:47.001Z</time></trkpt><trkpt lat="39.92128150937016" lon="18.39010787255936"><ele>61.0</ele><time>2026-04-05T06:38:48.001Z</time></trkpt><trkpt lat="39.92114549246875" lon="18.39023221813595"><ele>61.0</ele><time>2026-04-05T06:38:49.001Z</time></trkpt><trkpt lat="39.92101002383007" lon="18.390360491485097"><ele>61.0</ele><time>2026-04-05T06:38:50.001Z</time></trkpt><trkpt lat="39.9208853103134" lon="18.390508149719857"><ele>61.33333333333333</ele><time>2026-04-05T06:38:51.001Z</time></trkpt><trkpt lat="39.92076486495957" lon="18.390670160178043"><ele>61.66666666666667</ele><time>2026-04-05T06:38:52.001Z</time></trkpt><trkpt lat="39.92064579935394" lon="18.3908332244509"><ele>62.0</ele><time>2026-04-05T06:38:53.001Z</time></trkpt><trkpt lat="39.92054016836639" lon="18.390982376484697"><ele>62.0</ele><time>2026-04-05T06:38:54.001Z</time></trkpt><trkpt lat="39.92045360312795" lon="18.39113283399146"><ele>62.0</ele><time>2026-04-05T06:38:55.001Z</time></trkpt><trkpt lat="39.9203761627042" lon="18.39123729670267"><ele>62.0</ele><time>2026-04-05T06:38:56.001Z</time></trkpt><trkpt lat="39.92028984602514" lon="18.391312603488654"><ele>62.0</ele><time>2026-04-05T06:38:57.001Z</time></trkpt><trkpt lat="39.92019066662716" lon="18.391375650050946"><ele>61.0</ele><time>2026-04-05T06:38:58.001Z</time></trkpt><trkpt lat="39.92006451065119" lon="18.391454775152102"><ele>60.0</ele><time>2026-04-05T06:38:59.001Z</time></trkpt><trkpt lat="39.91992288955138" lon="18.391518688251534"><ele>59.0</ele><time>2026-04-05T06:39:00.001Z</time></trkpt><trkpt lat="39.919755898551244" lon="18.391615197225466"><ele>59.0</ele><time>2026-04-05T06:39:01.001Z</time></trkpt><trkpt lat="39.91958482520261" lon="18.3917183846172"><ele>59.0</ele><time>2026-04-05T06:39:02Z</time></trkpt><trkpt lat="39.91941047139128" lon="18.39181736363194"><ele>59.0</ele><time>2026-04-05T06:39:03Z</time></trkpt><trkpt lat="39.91924454292011" lon="18.391916041057524"><ele>62.0</ele><time>2026-04-05T06:39:04Z</time></trkpt><trkpt lat="39.919090595438554" lon="18.392004327576544"><ele>65.0</ele><time>2026-04-05T06:39:05Z</time></trkpt><trkpt lat="39.918939794664404" lon="18.392089974153976"><ele>68.0</ele><time>2026-04-05T06:39:06Z</time></trkpt><trkpt lat="39.918793055462146" lon="18.39216956322672"><ele>64.5</ele><time>2026-04-05T06:39:07Z</time></trkpt><trkpt lat="39.918667334175296" lon="18.39223815835263"><ele>61.0</ele><time>2026-04-05T06:39:08Z</time></trkpt><trkpt lat="39.918549460819605" lon="18.392293765787258"><ele>57.5</ele><time>2026-04-05T06:39:09Z</time></trkpt><trkpt lat="39.91842247475654" lon="18.392322031878447"><ele>54.0</ele><time>2026-04-05T06:39:10Z</time></trkpt><trkpt lat="39.918270301859096" lon="18.392328347680717"><ele>54.0</ele><time>2026-04-05T06:39:11Z</time></trkpt><trkpt lat="39.91811241354949" lon="18.39230174169928"><ele>54.0</ele><time>2026-04-05T06:39:12Z</time></trkpt><trkpt lat="39.91795266626758" lon="18.392262516760507"><ele>54.0</ele><time>2026-04-05T06:39:13Z</time></trkpt><trkpt lat="39.9177847631846" lon="18.392217531353538"><ele>54.0</ele><time>2026-04-05T06:39:14Z</time></trkpt><trkpt lat="39.9176073230432" lon="18.392176239771413"><ele>54.0</ele><time>2026-04-05T06:39:15Z</time></trkpt><trkpt lat="39.917424531854905" lon="18.392138292652955"><ele>54.0</ele><time>2026-04-05T06:39:16Z</time></trkpt><trkpt lat="39.91724163847554" lon="18.392095218962826"><ele>60.66666666666667</ele><time>2026-04-05T06:39:17Z</time></trkpt><trkpt lat="39.9170768336986" lon="18.39205933897551"><ele>67.33333333333334</ele><time>2026-04-05T06:39:18Z</time></trkpt><trkpt lat="39.916927888480764" lon="18.392028445100507"><ele>74.0</ele><time>2026-04-05T06:39:19Z</time></trkpt><trkpt lat="39.91678649289157" lon="18.39199464702722"><ele>74.0</ele><time>2026-04-05T06:39:20Z</time></trkpt><trkpt lat="39.91664761193949" lon="18.39196301244913"><ele>74.0</ele><time>2026-04-05T06:39:21Z</time></trkpt><trkpt lat="39.91653968604465" lon="18.391933415998395"><ele>74.0</ele><time>2026-04-05T06:39:22Z</time></trkpt><trkpt lat="39.916444692877626" lon="18.391902219901205"><ele>74.0</ele><time>2026-04-05T06:39:23Z</time></trkpt><trkpt lat="39.91635453916613" lon="18.391801511204417"><ele>74.0</ele><time>2026-04-05T06:39:24Z</time></trkpt><trkpt lat="39.91625199880323" lon="18.39170178099099"><ele>74.0</ele><time>2026-04-05T06:39:25Z</time></trkpt><trkpt lat="39.91613532717134" lon="18.391599199507127"><ele>74.0</ele><time>2026-04-05T06:39:26Z</time></trkpt><trkpt lat="39.91601463929765" lon="18.391486552606057"><ele>74.0</ele><time>2026-04-05T06:39:27Z</time></trkpt><trkpt lat="39.91588494333087" lon="18.391369107018395"><ele>74.0</ele><time>2026-04-05T06:39:28Z</time></trkpt><trkpt lat="39.91574523113561" lon="18.391243883818664"><ele>74.0</ele><time>2026-04-05T06:39:29Z</time></trkpt><trkpt lat="39.915617718378115" lon="18.391097732640404"><ele>74.0</ele><time>2026-04-05T06:39:30Z</time></trkpt><trkpt lat="39.915470491696965" lon="18.390970218628134"><ele>74.0</ele><time>2026-04-05T06:39:31Z</time></trkpt><trkpt lat="39.91534113497196" lon="18.390849591895183"><ele>74.0</ele><time>2026-04-05T06:39:32Z</time></trkpt><trkpt lat="39.915224700260715" lon="18.39074199598123"><ele>74.0</ele><time>2026-04-05T06:39:33Z</time></trkpt><trkpt lat="39.91511344594618" lon="18.390638941207143"><ele>74.0</ele><time>2026-04-05T06:39:34Z</time></trkpt><trkpt lat="39.91501911728891" lon="18.390561613791327"><ele>73.60000000000001</ele><time>2026-04-05T06:39:35Z</time></trkpt><trkpt lat="39.914931993180446" lon="18.390503162401107"><ele>73.2</ele><time>2026-04-05T06:39:36Z</time></trkpt><trkpt lat="39.91484760097279" lon="18.39047281246547"><ele>72.80000000000001</ele><time>2026-04-05T06:39:37Z</time></trkpt><trkpt lat="39.91475701434363" lon="18.390472438400245"><ele>72.4</ele><time>2026-04-05T06:39:38Z</time></trkpt><trkpt lat="39.91464925724683" lon="18.390506637265776"><ele>72.0</ele><time>2026-04-05T06:39:39Z</time></trkpt><trkpt lat="39.91451637088634" lon="18.390554980589165"><ele>70.25</ele><time>2026-04-05T06:39:40Z</time></trkpt><trkpt lat="39.91437767496637" lon="18.390610986172838"><ele>68.5</ele><time>2026-04-05T06:39:41Z</time></trkpt><trkpt lat="39.91426491537102" lon="18.390650873689708"><ele>66.75</ele><time>2026-04-05T06:39:42Z</time></trkpt><trkpt lat="39.91416882578778" lon="18.390674693706075"><ele>65.0</ele><time>2026-04-05T06:39:43Z</time></trkpt><trkpt lat="39.91407334257907" lon="18.390660467484206"><ele>65.75</ele><time>2026-04-05T06:39:44Z</time></trkpt><trkpt lat="39.91398805389048" lon="18.390566936017642"><ele>66.5</ele><time>2026-04-05T06:39:45Z</time></trkpt><trkpt lat="39.91387864513392" lon="18.390477381365667"><ele>67.25</ele><time>2026-04-05T06:39:46Z</time></trkpt><trkpt lat="39.913753118994144" lon="18.390382839991805"><ele>68.0</ele><time>2026-04-05T06:39:47Z</time></trkpt><trkpt lat="39.913645164868775" lon="18.390271475339983"><ele>68.0</ele><time>2026-04-05T06:39:48Z</time></trkpt><trkpt lat="39.91352748465698" lon="18.39018191457233"><ele>68.0</ele><time>2026-04-05T06:39:49Z</time></trkpt><trkpt lat="39.91341568045818" lon="18.39009939318228"><ele>68.0</ele><time>2026-04-05T06:39:50Z</time></trkpt><trkpt lat="39.91330422721536" lon="18.39003094548339"><ele>68.0</ele><time>2026-04-05T06:39:51Z</time></trkpt><trkpt lat="39.91319369874331" lon="18.389971880768194"><ele>66.6</ele><time>2026-04-05T06:39:52Z</time></trkpt><trkpt lat="39.9130876761123" lon="18.38992584796833"><ele>65.19999999999999</ele><time>2026-04-05T06:39:53Z</time></trkpt><trkpt lat="39.912982692815284" lon="18.389896346522903"><ele>63.8</ele><time>2026-04-05T06:39:54Z</time></trkpt><trkpt lat="39.912881244296514" lon="18.38987005508221"><ele>62.4</ele><time>2026-04-05T06:39:55Z</time></trkpt><trkpt lat="39.9127964165842" lon="18.38985000677394"><ele>61.0</ele><time>2026-04-05T06:39:56Z</time></trkpt><trkpt lat="39.91271998024782" lon="18.38982652872115"><ele>61.0</ele><time>2026-04-05T06:39:57Z</time></trkpt><trkpt lat="39.91264439195987" lon="18.38981536724055"><ele>61.0</ele><time>2026-04-05T06:39:58Z</time></trkpt><trkpt lat="39.91252939552109" lon="18.389776937331938"><ele>61.0</ele><time>2026-04-05T06:40:00Z</time></trkpt><trkpt lat="39.91240581070188" lon="18.389988203928898"><ele>61.0</ele><time>2026-04-05T06:40:02.001Z</time></trkpt><trkpt lat="39.91237907553896" lon="18.39006339843815"><ele>60.99999999999999</ele><time>2026-04-05T06:40:03.001Z</time></trkpt><trkpt lat="39.91240640157864" lon="18.390211970433963"><ele>61.0</ele><time>2026-04-05T06:40:05.001Z</time></trkpt><trkpt lat="39.91245349129071" lon="18.39027014079062"><ele>61.0</ele><time>2026-04-05T06:40:06.001Z</time></trkpt><trkpt lat="39.91252178900526" lon="18.39032380426172"><ele>61.0</ele><time>2026-04-05T06:40:07.001Z</time></trkpt><trkpt lat="39.91260245362013" lon="18.390375346112993"><ele>60.99999999999999</ele><time>2026-04-05T06:40:08.001Z</time></trkpt><trkpt lat="39.91266847409297" lon="18.390441679260306"><ele>61.0</ele><time>2026-04-05T06:40:09.001Z</time></trkpt><trkpt lat="39.91274125561287" lon="18.390522091679383"><ele>59.599999999999994</ele><time>2026-04-05T06:40:10.001Z</time></trkpt><trkpt lat="39.9128283722314" lon="18.390594550905668"><ele>58.199999999999996</ele><time>2026-04-05T06:40:11.001Z</time></trkpt><trkpt lat="39.91290133202461" lon="18.390690306799566"><ele>56.800000000000004</ele><time>2026-04-05T06:40:12.001Z</time></trkpt><trkpt lat="39.91297442958842" lon="18.390771658535947"><ele>55.400000000000006</ele><time>2026-04-05T06:40:13.001Z</time></trkpt><trkpt lat="39.913047069364865" lon="18.39085032351488"><ele>54.0</ele><time>2026-04-05T06:40:14.001Z</time></trkpt><trkpt lat="39.913119221738384" lon="18.390927512522406"><ele>54.0</ele><time>2026-04-05T06:40:15.001Z</time></trkpt><trkpt lat="39.91318779682893" lon="18.390984977586317"><ele>54.00000000000001</ele><time>2026-04-05T06:40:16.001Z</time></trkpt><trkpt lat="39.9132466977318" lon="18.391026501781568"><ele>54.00000000000001</ele><time>2026-04-05T06:40:17.001Z</time></trkpt><trkpt lat="39.91331920803547" lon="18.39111599956636"><ele>54.0</ele><time>2026-04-05T06:40:19.001Z</time></trkpt><trkpt lat="39.91330414239505" lon="18.391234237892817"><ele>54.0</ele><time>2026-04-05T06:40:21.001Z</time></trkpt><trkpt lat="39.913186346190194" lon="18.391220543254814"><ele>54.0</ele><time>2026-04-05T06:40:23.001Z</time></trkpt><trkpt lat="39.91306889736136" lon="18.391206981059963"><ele>54.00000000000001</ele><time>2026-04-05T06:40:24.001Z</time></trkpt><trkpt lat="39.91295905173964" lon="18.391194036223688"><ele>54.00000000000001</ele><time>2026-04-05T06:40:25.001Z</time></trkpt><trkpt lat="39.91286538417757" lon="18.39119884061291"><ele>54.0</ele><time>2026-04-05T06:40:26.001Z</time></trkpt><trkpt lat="39.91279083337761" lon="18.391180053750823"><ele>54.0</ele><time>2026-04-05T06:40:27.001Z</time></trkpt><trkpt lat="39.912723561916636" lon="18.3911700149456"><ele>54.0</ele><time>2026-04-05T06:40:28.001Z</time></trkpt><trkpt lat="39.91264588370066" lon="18.39115697180984"><ele>54.0</ele><time>2026-04-05T06:40:30.001Z</time></trkpt><trkpt lat="39.912632061865786" lon="18.391276503146525"><ele>54.0</ele><time>2026-04-05T06:40:32.001Z</time></trkpt><trkpt lat="39.91267741196315" lon="18.391391288179488"><ele>54.0</ele><time>2026-04-05T06:40:34.001Z</time></trkpt><trkpt lat="39.91273412957491" lon="18.39146089821352"><ele>54.0</ele><time>2026-04-05T06:40:35.001Z</time></trkpt><trkpt lat="39.912787475544484" lon="18.391510641420723"><ele>54.0</ele><time>2026-04-05T06:40:36.001Z</time></trkpt><trkpt lat="39.91278743590497" lon="18.391597672948272"><ele>51.2</ele><time>2026-04-05T06:40:38.001Z</time></trkpt><trkpt lat="39.91268215003413" lon="18.391675043601502"><ele>48.400000000000006</ele><time>2026-04-05T06:40:40.001Z</time></trkpt><trkpt lat="39.91260382964272" lon="18.39167000623232"><ele>45.6</ele><time>2026-04-05T06:40:41.001Z</time></trkpt><trkpt lat="39.912537911148455" lon="18.391681688609076"><ele>42.8</ele><time>2026-04-05T06:40:42.001Z</time></trkpt><trkpt lat="39.91247423064634" lon="18.39173765706469"><ele>40.0</ele><time>2026-04-05T06:40:44.001Z</time></trkpt><trkpt lat="39.912520646010584" lon="18.391872589521107"><ele>40.0</ele><time>2026-04-05T06:40:46.001Z</time></trkpt><trkpt lat="39.91256914805885" lon="18.391952057911926"><ele>40.0</ele><time>2026-04-05T06:40:47.001Z</time></trkpt><trkpt lat="39.91259639394939" lon="18.392052651051912"><ele>40.0</ele><time>2026-04-05T06:40:48.001Z</time></trkpt><trkpt lat="39.91260894306197" lon="18.392149377462765"><ele>40.0</ele><time>2026-04-05T06:40:49.001Z</time></trkpt><trkpt lat="39.91259629282869" lon="18.392269265555715"><ele>40.0</ele><time>2026-04-05T06:40:51.001Z</time></trkpt><trkpt lat="39.912529690393015" lon="18.392333223538763"><ele>40.0</ele><time>2026-04-05T06:40:53.001Z</time></trkpt><trkpt lat="39.91246631491508" lon="18.392324141476056"><ele>37.16666666666667</ele><time>2026-04-05T06:40:54.001Z</time></trkpt><trkpt lat="39.912396637904365" lon="18.39228124757769"><ele>34.333333333333336</ele><time>2026-04-05T06:40:55.001Z</time></trkpt><trkpt lat="39.9123231029297" lon="18.392247416260076"><ele>31.5</ele><time>2026-04-05T06:40:56.001Z</time></trkpt><trkpt lat="39.912248213309695" lon="18.39224868671831"><ele>28.666666666666668</ele><time>2026-04-05T06:40:57.001Z</time></trkpt><trkpt lat="39.91218221205423" lon="18.392284573781037"><ele>25.833333333333336</ele><time>2026-04-05T06:40:58.001Z</time></trkpt><trkpt lat="39.91213210770519" lon="18.392351591453124"><ele>23.0</ele><time>2026-04-05T06:40:59.001Z</time></trkpt><trkpt lat="39.912091141902934" lon="18.39244756473598"><ele>23.0</ele><time>2026-04-05T06:41:00.001Z</time></trkpt><trkpt lat="39.912070641449354" lon="18.392552382741503"><ele>23.0</ele><time>2026-04-05T06:41:01.001Z</time></trkpt><trkpt lat="39.91206135755988" lon="18.392667375773804"><ele>23.0</ele><time>2026-04-05T06:41:02.001Z</time></trkpt><trkpt lat="39.912063805099294" lon="18.392767952090907"><ele>23.0</ele><time>2026-04-05T06:41:03.001Z</time></trkpt><trkpt lat="39.91202820687511" lon="18.39291050528193"><ele>23.0</ele><time>2026-04-05T06:41:05.001Z</time></trkpt><trkpt lat="39.91197152418394" lon="18.392969413772274"><ele>23.0</ele><time>2026-04-05T06:41:06.001Z</time></trkpt><trkpt lat="39.911894197317864" lon="18.39300467837553"><ele>21.666666666666668</ele><time>2026-04-05T06:41:07.001Z</time></trkpt><trkpt lat="39.91180868079469" lon="18.393027258198632"><ele>20.333333333333336</ele><time>2026-04-05T06:41:08Z</time></trkpt><trkpt lat="39.91172902184159" lon="18.39301217895512"><ele>19.0</ele><time>2026-04-05T06:41:09Z</time></trkpt><trkpt lat="39.911665260295166" lon="18.39298153469323"><ele>17.666666666666668</ele><time>2026-04-05T06:41:10Z</time></trkpt><trkpt lat="39.91159253396438" lon="18.392955066405744"><ele>16.333333333333332</ele><time>2026-04-05T06:41:12Z</time></trkpt><trkpt lat="39.91152346663" lon="18.39295030280798"><ele>15.0</ele><time>2026-04-05T06:41:15Z</time></trkpt><trkpt lat="39.9115252061919" lon="18.393096671823717"><ele>13.333333333333334</ele><time>2026-04-05T06:42:14.001Z</time></trkpt><trkpt lat="39.91156780963974" lon="18.393163740165033"><ele>11.666666666666666</ele><time>2026-04-05T06:42:20.001Z</time></trkpt><trkpt lat="39.911619896619115" lon="18.393210996279574"><ele>10.0</ele><time>2026-04-05T06:42:28.001Z</time></trkpt><trkpt lat="39.91168661088115" lon="18.393296092617067"><ele>8.333333333333334</ele><time>2026-04-05T06:42:54.001Z</time></trkpt><trkpt lat="39.911686771611606" lon="18.393407352244456"><ele>6.666666666666667</ele><time>2026-04-05T06:43:14Z</time></trkpt><trkpt lat="39.91161531484058" lon="18.39341027939987"><ele>5.0</ele><time>2026-04-05T06:44:32.001Z</time></trkpt><trkpt lat="39.91168109257129" lon="18.39333037373352"><ele>5.0</ele><time>2026-04-05T06:45:27.999Z</time></trkpt><trkpt lat="39.91164987191842" lon="18.3932286825668"><ele>5.0</ele><time>2026-04-05T06:45:33.999Z</time></trkpt><trkpt lat="39.91159462648576" lon="18.393179139197922"><ele>5.0</ele><time>2026-04-05T06:45:40.999Z</time></trkpt><trkpt lat="39.911535832642066" lon="18.39313065192955"><ele>5.0</ele><time>2026-04-05T06:45:46.999Z</time></trkpt><trkpt lat="39.911496651278995" lon="18.393061338473863"><ele>5.0</ele><time>2026-04-05T06:45:54Z</time></trkpt><trkpt lat="39.9114627864297" lon="18.392984677884712"><ele>5.0</ele><time>2026-04-05T06:46:06Z</time></trkpt><trkpt lat="39.91142686642378" lon="18.39289277380324"><ele>5.0</ele><time>2026-04-05T06:47:51Z</time></trkpt><trkpt lat="39.91132177114719" lon="18.39280820648423"><ele>7.5</ele><time>2026-04-05T06:47:53Z</time></trkpt><trkpt lat="39.911251341379874" lon="18.39275868353465"><ele>10.0</ele><time>2026-04-05T06:47:54Z</time></trkpt><trkpt lat="39.91114830440394" lon="18.39269042440251"><ele>12.5</ele><time>2026-04-05T06:47:55Z</time></trkpt><trkpt lat="39.91103512611871" lon="18.392608554826456"><ele>15.0</ele><time>2026-04-05T06:47:56Z</time></trkpt><trkpt lat="39.910921708386965" lon="18.392536318262664"><ele>13.5</ele><time>2026-04-05T06:47:57Z</time></trkpt><trkpt lat="39.91079359965527" lon="18.392449004518873"><ele>12.0</ele><time>2026-04-05T06:47:58Z</time></trkpt><trkpt lat="39.91065716066222" lon="18.392354160464357"><ele>10.5</ele><time>2026-04-05T06:47:59Z</time></trkpt><trkpt lat="39.91052687218885" lon="18.39227344655101"><ele>9.0</ele><time>2026-04-05T06:48:00Z</time></trkpt><trkpt lat="39.91041696916092" lon="18.392205471691046"><ele>11.75</ele><time>2026-04-05T06:48:01Z</time></trkpt><trkpt lat="39.91031970386811" lon="18.392157229426054"><ele>14.5</ele><time>2026-04-05T06:48:02Z</time></trkpt><trkpt lat="39.9102444882366" lon="18.39210294459464"><ele>17.25</ele><time>2026-04-05T06:48:03Z</time></trkpt><trkpt lat="39.91017456764303" lon="18.3920341902932"><ele>20.0</ele><time>2026-04-05T06:48:05Z</time></trkpt><trkpt lat="39.91027075937873" lon="18.39178845622988"><ele>20.0</ele><time>2026-04-05T06:48:09Z</time></trkpt><trkpt lat="39.91033757559758" lon="18.39170012405305"><ele>20.0</ele><time>2026-04-05T06:48:10Z</time></trkpt><trkpt lat="39.91039812751848" lon="18.39160154927982"><ele>20.0</ele><time>2026-04-05T06:48:11Z</time></trkpt><trkpt lat="39.91048515742654" lon="18.3915111332392"><ele>20.0</ele><time>2026-04-05T06:48:12Z</time></trkpt><trkpt lat="39.91056747205404" lon="18.391429435883545"><ele>20.0</ele><time>2026-04-05T06:48:13Z</time></trkpt><trkpt lat="39.91065684564566" lon="18.391353436550453"><ele>21.8</ele><time>2026-04-05T06:48:14Z</time></trkpt><trkpt lat="39.91074118513809" lon="18.391273372752252"><ele>23.6</ele><time>2026-04-05T06:48:15Z</time></trkpt><trkpt lat="39.91081602034581" lon="18.391185263834213"><ele>25.4</ele><time>2026-04-05T06:48:16Z</time></trkpt><trkpt lat="39.910881086592525" lon="18.39110828180065"><ele>27.2</ele><time>2026-04-05T06:48:17Z</time></trkpt><trkpt lat="39.910953312681094" lon="18.391045675210677"><ele>29.0</ele><time>2026-04-05T06:48:18Z</time></trkpt><trkpt lat="39.9110148657897" lon="18.390970742666344"><ele>30.499999999999996</ele><time>2026-04-05T06:48:19Z</time></trkpt><trkpt lat="39.91107028377194" lon="18.39091006388398"><ele>32.0</ele><time>2026-04-05T06:48:20Z</time></trkpt><trkpt lat="39.91112624393103" lon="18.39085948151831"><ele>33.5</ele><time>2026-04-05T06:48:21Z</time></trkpt><trkpt lat="39.91124285747711" lon="18.390801482948238"><ele>35.0</ele><time>2026-04-05T06:48:23Z</time></trkpt><trkpt lat="39.91130851184783" lon="18.390812847069867"><ele>36.5</ele><time>2026-04-05T06:48:24Z</time></trkpt><trkpt lat="39.91137710182005" lon="18.3908630336193"><ele>38.0</ele><time>2026-04-05T06:48:25Z</time></trkpt><trkpt lat="39.91144900644681" lon="18.39090767710079"><ele>38.0</ele><time>2026-04-05T06:48:26Z</time></trkpt><trkpt lat="39.911528355823656" lon="18.390965969607006"><ele>38.0</ele><time>2026-04-05T06:48:27Z</time></trkpt><trkpt lat="39.911600460171506" lon="18.39101775087914"><ele>38.0</ele><time>2026-04-05T06:48:28Z</time></trkpt><trkpt lat="39.91169334107053" lon="18.3910601408633"><ele>38.0</ele><time>2026-04-05T06:48:29Z</time></trkpt><trkpt lat="39.91181379492977" lon="18.391083331067065"><ele>38.0</ele><time>2026-04-05T06:48:30.001Z</time></trkpt><trkpt lat="39.911919442452344" lon="18.391095937482966"><ele>40.0</ele><time>2026-04-05T06:48:31.001Z</time></trkpt><trkpt lat="39.91204007863903" lon="18.391100835282337"><ele>42.0</ele><time>2026-04-05T06:48:32.001Z</time></trkpt><trkpt lat="39.91217743337943" lon="18.39111308000622"><ele>44.0</ele><time>2026-04-05T06:48:33.001Z</time></trkpt><trkpt lat="39.9123087379774" lon="18.391126642314276"><ele>46.0</ele><time>2026-04-05T06:48:34.001Z</time></trkpt><trkpt lat="39.912420511098915" lon="18.39114387190475"><ele>46.0</ele><time>2026-04-05T06:48:35.001Z</time></trkpt><trkpt lat="39.91251450429999" lon="18.39115408330495"><ele>46.0</ele><time>2026-04-05T06:48:36.001Z</time></trkpt><trkpt lat="39.912589104802336" lon="18.39116689768526"><ele>46.0</ele><time>2026-04-05T06:48:37.001Z</time></trkpt><trkpt lat="39.91265302420004" lon="18.391177714324126"><ele>46.0</ele><time>2026-04-05T06:48:38.001Z</time></trkpt><trkpt lat="39.912725203783644" lon="18.391180332473795"><ele>46.0</ele><time>2026-04-05T06:48:39.001Z</time></trkpt><trkpt lat="39.912817274850525" lon="18.391200532458647"><ele>46.0</ele><time>2026-04-05T06:48:40.001Z</time></trkpt><trkpt lat="39.91292366418471" lon="18.391216342321734"><ele>47.333333333333336</ele><time>2026-04-05T06:48:41.001Z</time></trkpt><trkpt lat="39.91302134433492" lon="18.391231890379913"><ele>48.66666666666667</ele><time>2026-04-05T06:48:42.001Z</time></trkpt><trkpt lat="39.913109682170756" lon="18.391241711848355"><ele>50.0</ele><time>2026-04-05T06:48:43.001Z</time></trkpt><trkpt lat="39.91318648271424" lon="18.391253401352113"><ele>51.333333333333336</ele><time>2026-04-05T06:48:44.001Z</time></trkpt><trkpt lat="39.91325566530898" lon="18.391259789615106"><ele>52.666666666666664</ele><time>2026-04-05T06:48:45.001Z</time></trkpt><trkpt lat="39.913344119254454" lon="18.39121298919924"><ele>54.0</ele><time>2026-04-05T06:48:47.001Z</time></trkpt><trkpt lat="39.91336511729025" lon="18.391068713685637"><ele>54.0</ele><time>2026-04-05T06:48:49.001Z</time></trkpt><trkpt lat="39.91330994407338" lon="18.391005822333184"><ele>54.0</ele><time>2026-04-05T06:48:50.001Z</time></trkpt><trkpt lat="39.91323301488572" lon="18.390979887017743"><ele>54.0</ele><time>2026-04-05T06:48:51.001Z</time></trkpt><trkpt lat="39.91317557443631" lon="18.390908393285024"><ele>54.0</ele><time>2026-04-05T06:48:52.001Z</time></trkpt><trkpt lat="39.91310868137023" lon="18.390842200498987"><ele>54.0</ele><time>2026-04-05T06:48:53.001Z</time></trkpt><trkpt lat="39.91302165045632" lon="18.390781917433774"><ele>54.0</ele><time>2026-04-05T06:48:54.001Z</time></trkpt><trkpt lat="39.91296126596512" lon="18.390685287276042"><ele>54.0</ele><time>2026-04-05T06:48:55.001Z</time></trkpt><trkpt lat="39.91288464229554" lon="18.39062049654666"><ele>54.00000000000001</ele><time>2026-04-05T06:48:56.001Z</time></trkpt><trkpt lat="39.91280829676922" lon="18.39055243828364"><ele>54.00000000000001</ele><time>2026-04-05T06:48:57.001Z</time></trkpt><trkpt lat="39.912734006136255" lon="18.390475106287386"><ele>54.0</ele><time>2026-04-05T06:48:58.001Z</time></trkpt><trkpt lat="39.91266582596707" lon="18.390396853011662"><ele>54.0</ele><time>2026-04-05T06:48:59.001Z</time></trkpt><trkpt lat="39.91258867817982" lon="18.390332300400996"><ele>54.666666666666664</ele><time>2026-04-05T06:49:00.001Z</time></trkpt><trkpt lat="39.9125145316102" lon="18.390271451560885"><ele>55.33333333333333</ele><time>2026-04-05T06:49:01.001Z</time></trkpt><trkpt lat="39.91243905280898" lon="18.39017755999927"><ele>56.0</ele><time>2026-04-05T06:49:03.001Z</time></trkpt><trkpt lat="39.91240408951397" lon="18.390054978280876"><ele>56.666666666666664</ele><time>2026-04-05T06:49:05.001Z</time></trkpt><trkpt lat="39.912440113284" lon="18.38998270629161"><ele>57.33333333333333</ele><time>2026-04-05T06:49:06.001Z</time></trkpt><trkpt lat="39.912510040094446" lon="18.389917877937123"><ele>58.0</ele><time>2026-04-05T06:49:08.001Z</time></trkpt><trkpt lat="39.91255936984731" lon="18.389836828277847"><ele>58.0</ele><time>2026-04-05T06:49:13.001Z</time></trkpt><trkpt lat="39.91243732503281" lon="18.389698631179776"><ele>58.0</ele><time>2026-04-05T06:49:15.001Z</time></trkpt><trkpt lat="39.91237038251851" lon="18.38966316864274"><ele>58.0</ele><time>2026-04-05T06:49:16.001Z</time></trkpt><trkpt lat="39.912288577326756" lon="18.38962375120234"><ele>58.0</ele><time>2026-04-05T06:49:17.001Z</time></trkpt><trkpt lat="39.91221782028659" lon="18.38957890135568"><ele>58.0</ele><time>2026-04-05T06:49:18.001Z</time></trkpt><trkpt lat="39.91214393136138" lon="18.38951149169039"><ele>58.8</ele><time>2026-04-05T06:49:19.001Z</time></trkpt><trkpt lat="39.91207452568159" lon="18.38943763364727"><ele>59.599999999999994</ele><time>2026-04-05T06:49:20.001Z</time></trkpt><trkpt lat="39.91201548475859" lon="18.389331619124505"><ele>60.400000000000006</ele><time>2026-04-05T06:49:21.001Z</time></trkpt><trkpt lat="39.91194886326533" lon="18.389222136287483"><ele>61.2</ele><time>2026-04-05T06:49:22.001Z</time></trkpt><trkpt lat="39.91187857433759" lon="18.389097675054263"><ele>62.0</ele><time>2026-04-05T06:49:23.002Z</time></trkpt><trkpt lat="39.91180304879074" lon="18.388965301459738"><ele>62.0</ele><time>2026-04-05T06:49:24.002Z</time></trkpt><trkpt lat="39.91172795269539" lon="18.38883073332105"><ele>62.0</ele><time>2026-04-05T06:49:25.002Z</time></trkpt><trkpt lat="39.911646732447934" lon="18.388689240654898"><ele>62.0</ele><time>2026-04-05T06:49:26.002Z</time></trkpt><trkpt lat="39.91156019974427" lon="18.388538232650717"><ele>62.0</ele><time>2026-04-05T06:49:27.002Z</time></trkpt><trkpt lat="39.911470801406054" lon="18.388382283372454"><ele>62.0</ele><time>2026-04-05T06:49:28.002Z</time></trkpt><trkpt lat="39.91137862575607" lon="18.388219086439996"><ele>62.0</ele><time>2026-04-05T06:49:29.002Z</time></trkpt><trkpt lat="39.91128143624962" lon="18.388046169241424"><ele>62.0</ele><time>2026-04-05T06:49:30.002Z</time></trkpt><trkpt lat="39.91117615004146" lon="18.387859181056687"><ele>62.0</ele><time>2026-04-05T06:49:31.002Z</time></trkpt><trkpt lat="39.911072881951576" lon="18.387675776950168"><ele>62.0</ele><time>2026-04-05T06:49:32Z</time></trkpt><trkpt lat="39.910960575023275" lon="18.387510455857743"><ele>62.0</ele><time>2026-04-05T06:49:33Z</time></trkpt><trkpt lat="39.910862757058226" lon="18.38733378243139"><ele>61.66666666666667</ele><time>2026-04-05T06:49:34Z</time></trkpt><trkpt lat="39.91076348619279" lon="18.387161203070214"><ele>61.33333333333333</ele><time>2026-04-05T06:49:35Z</time></trkpt><trkpt lat="39.9106782852475" lon="18.386970909060278"><ele>61.0</ele><time>2026-04-05T06:49:36Z</time></trkpt><trkpt lat="39.91057921741998" lon="18.38679396324126"><ele>61.0</ele><time>2026-04-05T06:49:37Z</time></trkpt><trkpt lat="39.91046700114514" lon="18.38662909934501"><ele>61.0</ele><time>2026-04-05T06:49:38Z</time></trkpt><trkpt lat="39.910385744171464" lon="18.386451647304703"><ele>61.0</ele><time>2026-04-05T06:49:39Z</time></trkpt><trkpt lat="39.91029283487849" lon="18.386287537638193"><ele>62.0</ele><time>2026-04-05T06:49:40Z</time></trkpt><trkpt lat="39.910197555093326" lon="18.3861375215098"><ele>63.0</ele><time>2026-04-05T06:49:41Z</time></trkpt><trkpt lat="39.91009426585469" lon="18.38602481834315"><ele>64.0</ele><time>2026-04-05T06:49:42Z</time></trkpt><trkpt lat="39.910000842151504" lon="18.385917889506576"><ele>65.0</ele><time>2026-04-05T06:49:43Z</time></trkpt><trkpt lat="39.90989492164112" lon="18.385830741344602"><ele>65.75</ele><time>2026-04-05T06:49:44Z</time></trkpt><trkpt lat="39.90978197578458" lon="18.38576921580855"><ele>66.5</ele><time>2026-04-05T06:49:45Z</time></trkpt><trkpt lat="39.90966537557213" lon="18.385739254048485"><ele>67.25</ele><time>2026-04-05T06:49:46Z</time></trkpt><trkpt lat="39.909534428247355" lon="18.38573439984481"><ele>68.0</ele><time>2026-04-05T06:49:47Z</time></trkpt><trkpt lat="39.90940583471323" lon="18.385752205380104"><ele>68.0</ele><time>2026-04-05T06:49:48Z</time></trkpt><trkpt lat="39.90927117413455" lon="18.385796428707103"><ele>68.0</ele><time>2026-04-05T06:49:49Z</time></trkpt><trkpt lat="39.90914756353592" lon="18.385861294856834"><ele>68.0</ele><time>2026-04-05T06:49:50Z</time></trkpt><trkpt lat="39.9090261767575" lon="18.38593570404735"><ele>68.0</ele><time>2026-04-05T06:49:51Z</time></trkpt><trkpt lat="39.908909933797105" lon="18.386024899480624"><ele>70.0</ele><time>2026-04-05T06:49:52Z</time></trkpt><trkpt lat="39.908792283377934" lon="18.386118668769537"><ele>72.0</ele><time>2026-04-05T06:49:53Z</time></trkpt><trkpt lat="39.90867437729505" lon="18.38621749904848"><ele>74.0</ele><time>2026-04-05T06:49:54Z</time></trkpt><trkpt lat="39.908547976862735" lon="18.38632419096096"><ele>76.0</ele><time>2026-04-05T06:49:55Z</time></trkpt><trkpt lat="39.908410595102765" lon="18.386426129623583"><ele>79.0</ele><time>2026-04-05T06:49:56Z</time></trkpt><trkpt lat="39.90826599618812" lon="18.386521598326528"><ele>82.0</ele><time>2026-04-05T06:49:57Z</time></trkpt><trkpt lat="39.90812383146378" lon="18.386616788981645"><ele>85.0</ele><time>2026-04-05T06:49:58Z</time></trkpt><trkpt lat="39.907984548262995" lon="18.386719146612755"><ele>85.0</ele><time>2026-04-05T06:49:59Z</time></trkpt><trkpt lat="39.90783773871434" lon="18.386818420920466"><ele>85.0</ele><time>2026-04-05T06:50:00Z</time></trkpt><trkpt lat="39.90768643171682" lon="18.38690158336873"><ele>85.0</ele><time>2026-04-05T06:50:01Z</time></trkpt><trkpt lat="39.90753740354897" lon="18.38698085093089"><ele>86.75</ele><time>2026-04-05T06:50:02Z</time></trkpt><trkpt lat="39.90739566579985" lon="18.38703698130601"><ele>88.5</ele><time>2026-04-05T06:50:03Z</time></trkpt><trkpt lat="39.907250770543584" lon="18.387079542522784"><ele>90.25</ele><time>2026-04-05T06:50:04Z</time></trkpt><trkpt lat="39.90710187846222" lon="18.387103054687074"><ele>92.0</ele><time>2026-04-05T06:50:05Z</time></trkpt><trkpt lat="39.90694993454255" lon="18.38711576941101"><ele>92.0</ele><time>2026-04-05T06:50:06Z</time></trkpt><trkpt lat="39.906809498899115" lon="18.387120798556975"><ele>92.0</ele><time>2026-04-05T06:50:07Z</time></trkpt><trkpt lat="39.90665660667521" lon="18.387104344086392"><ele>92.0</ele><time>2026-04-05T06:50:08.001Z</time></trkpt><trkpt lat="39.90650854576853" lon="18.387074399958053"><ele>92.0</ele><time>2026-04-05T06:50:09.001Z</time></trkpt><trkpt lat="39.90635477938516" lon="18.38704461025419"><ele>94.75</ele><time>2026-04-05T06:50:10.001Z</time></trkpt><trkpt lat="39.90620431107368" lon="18.387041376388456"><ele>97.5</ele><time>2026-04-05T06:50:11.001Z</time></trkpt><trkpt lat="39.90606484449421" lon="18.38706925086565"><ele>100.25</ele><time>2026-04-05T06:50:12.001Z</time></trkpt><trkpt lat="39.90592146645352" lon="18.387126734680795"><ele>103.0</ele><time>2026-04-05T06:50:13.001Z</time></trkpt><trkpt lat="39.90578925055586" lon="18.387197124815923"><ele>104.25</ele><time>2026-04-05T06:50:14.001Z</time></trkpt><trkpt lat="39.9056702712664" lon="18.387285245758967"><ele>105.5</ele><time>2026-04-05T06:50:15.001Z</time></trkpt><trkpt lat="39.905560871824335" lon="18.387392426704597"><ele>106.75</ele><time>2026-04-05T06:50:16.001Z</time></trkpt><trkpt lat="39.90545751268298" lon="18.3875222373208"><ele>108.0</ele><time>2026-04-05T06:50:17.001Z</time></trkpt><trkpt lat="39.905342864971715" lon="18.387669857962926"><ele>108.0</ele><time>2026-04-05T06:50:18.001Z</time></trkpt><trkpt lat="39.905234168280074" lon="18.38784627771884"><ele>108.0</ele><time>2026-04-05T06:50:19.001Z</time></trkpt><trkpt lat="39.9051286434461" lon="18.388019945199993"><ele>108.0</ele><time>2026-04-05T06:50:20.001Z</time></trkpt><trkpt lat="39.90503381302475" lon="18.388214168114356"><ele>111.0</ele><time>2026-04-05T06:50:21.001Z</time></trkpt><trkpt lat="39.904932963047436" lon="18.388390319508094"><ele>114.0</ele><time>2026-04-05T06:50:22.001Z</time></trkpt><trkpt lat="39.904846656703434" lon="18.38857527339697"><ele>117.0</ele><time>2026-04-05T06:50:23.001Z</time></trkpt><trkpt lat="39.90472755351417" lon="18.388749646812734"><ele>107.33333333333333</ele><time>2026-04-05T06:50:24.001Z</time></trkpt><trkpt lat="39.90461124790086" lon="18.388929254470565"><ele>97.66666666666666</ele><time>2026-04-05T06:50:25.001Z</time></trkpt><trkpt lat="39.90449623438905" lon="18.38910501789038"><ele>88.0</ele><time>2026-04-05T06:50:26.001Z</time></trkpt><trkpt lat="39.904347896952764" lon="18.389249266974737"><ele>94.0</ele><time>2026-04-05T06:50:27.001Z</time></trkpt><trkpt lat="39.90424101929265" lon="18.389419904815423"><ele>100.0</ele><time>2026-04-05T06:50:28.001Z</time></trkpt><trkpt lat="39.904155184625125" lon="18.38956925231606"><ele>106.0</ele><time>2026-04-05T06:50:29.001Z</time></trkpt><trkpt lat="39.90403733445252" lon="18.389681386232322"><ele>106.0</ele><time>2026-04-05T06:50:30.001Z</time></trkpt><trkpt lat="39.9039172637438" lon="18.389802084062726"><ele>106.0</ele><time>2026-04-05T06:50:31.001Z</time></trkpt><trkpt lat="39.903785869806754" lon="18.389916529423918"><ele>106.0</ele><time>2026-04-05T06:50:32.001Z</time></trkpt><trkpt lat="39.90363610330285" lon="18.39000462069834"><ele>106.0</ele><time>2026-04-05T06:50:33.001Z</time></trkpt><trkpt lat="39.903467024590846" lon="18.39008247683622"><ele>106.0</ele><time>2026-04-05T06:50:34.001Z</time></trkpt><trkpt lat="39.903288790993614" lon="18.390149077703477"><ele>106.0</ele><time>2026-04-05T06:50:35.001Z</time></trkpt><trkpt lat="39.903098229751855" lon="18.390200210876618"><ele>112.33333333333334</ele><time>2026-04-05T06:50:36.001Z</time></trkpt><trkpt lat="39.9029009084188" lon="18.390247812646415"><ele>118.66666666666666</ele><time>2026-04-05T06:50:37.001Z</time></trkpt><trkpt lat="39.90270310914918" lon="18.39029741377723"><ele>125.0</ele><time>2026-04-05T06:50:38.001Z</time></trkpt><trkpt lat="39.9024962191805" lon="18.390354490222684"><ele>126.0</ele><time>2026-04-05T06:50:39.001Z</time></trkpt><trkpt lat="39.902297573278844" lon="18.390409949389273"><ele>127.0</ele><time>2026-04-05T06:50:40.001Z</time></trkpt><trkpt lat="39.90210036437876" lon="18.390460333350664"><ele>128.0</ele><time>2026-04-05T06:50:41.001Z</time></trkpt><trkpt lat="39.90190343298405" lon="18.39051347405967"><ele>126.66666666666666</ele><time>2026-04-05T06:50:42.001Z</time></trkpt><trkpt lat="39.90171161149155" lon="18.390562618551794"><ele>125.33333333333334</ele><time>2026-04-05T06:50:43.001Z</time></trkpt><trkpt lat="39.90152074801364" lon="18.39063047208812"><ele>124.0</ele><time>2026-04-05T06:50:44.001Z</time></trkpt><trkpt lat="39.90132413500404" lon="18.390732824650684"><ele>124.0</ele><time>2026-04-05T06:50:45.001Z</time></trkpt><trkpt lat="39.90112807042892" lon="18.39083889469568"><ele>124.0</ele><time>2026-04-05T06:50:46.001Z</time></trkpt><trkpt lat="39.9009249175517" lon="18.390957569155688"><ele>124.0</ele><time>2026-04-05T06:50:47.001Z</time></trkpt><trkpt lat="39.90072292922129" lon="18.391068466952706"><ele>126.5</ele><time>2026-04-05T06:50:48.001Z</time></trkpt><trkpt lat="39.90051611759069" lon="18.391184637845264"><ele>129.0</ele><time>2026-04-05T06:50:49.001Z</time></trkpt><trkpt lat="39.90030428307797" lon="18.391296008301467"><ele>126.0</ele><time>2026-04-05T06:50:50.001Z</time></trkpt><trkpt lat="39.900087568270685" lon="18.391408419193493"><ele>123.0</ele><time>2026-04-05T06:50:51.001Z</time></trkpt><trkpt lat="39.8998721405081" lon="18.39152494339841"><ele>123.0</ele><time>2026-04-05T06:50:52.001Z</time></trkpt><trkpt lat="39.899651942532834" lon="18.391642778206997"><ele>123.0</ele><time>2026-04-05T06:50:53.001Z</time></trkpt><trkpt lat="39.899430420408244" lon="18.391761320564406"><ele>125.0</ele><time>2026-04-05T06:50:54.001Z</time></trkpt><trkpt lat="39.89920509671577" lon="18.391882132489574"><ele>127.0</ele><time>2026-04-05T06:50:55.001Z</time></trkpt><trkpt lat="39.89896505782684" lon="18.391993553933485"><ele>127.0</ele><time>2026-04-05T06:50:56.001Z</time></trkpt><trkpt lat="39.89872143439732" lon="18.39209121909893"><ele>127.0</ele><time>2026-04-05T06:50:57.001Z</time></trkpt><trkpt lat="39.89849677239241" lon="18.3921837487354"><ele>123.66666666666667</ele><time>2026-04-05T06:50:58.001Z</time></trkpt><trkpt lat="39.89829975878118" lon="18.392260257871726"><ele>120.33333333333334</ele><time>2026-04-05T06:50:59.001Z</time></trkpt><trkpt lat="39.89813221222475" lon="18.3923318927532"><ele>117.0</ele><time>2026-04-05T06:51:00.001Z</time></trkpt><trkpt lat="39.89795190313126" lon="18.392421269116124"><ele>117.0</ele><time>2026-04-05T06:51:01.001Z</time></trkpt><trkpt lat="39.89776585540914" lon="18.392543179066383"><ele>117.0</ele><time>2026-04-05T06:51:02.001Z</time></trkpt><trkpt lat="39.897576330866166" lon="18.392684029628025"><ele>117.0</ele><time>2026-04-05T06:51:03.002Z</time></trkpt><trkpt lat="39.89738225432439" lon="18.392831219393308"><ele>115.0</ele><time>2026-04-05T06:51:04.002Z</time></trkpt><trkpt lat="39.89718634351041" lon="18.39297590593763"><ele>113.0</ele><time>2026-04-05T06:51:05.002Z</time></trkpt><trkpt lat="39.8970077766641" lon="18.393104096291587"><ele>111.0</ele><time>2026-04-05T06:51:06.002Z</time></trkpt><trkpt lat="39.89684771931316" lon="18.393219842708046"><ele>114.33333333333334</ele><time>2026-04-05T06:51:07.002Z</time></trkpt><trkpt lat="39.8966959568921" lon="18.39332059777479"><ele>117.66666666666667</ele><time>2026-04-05T06:51:08.002Z</time></trkpt><trkpt lat="39.896536071837254" lon="18.393402315203414"><ele>121.0</ele><time>2026-04-05T06:51:09.002Z</time></trkpt><trkpt lat="39.89635228018921" lon="18.39347185670213"><ele>121.0</ele><time>2026-04-05T06:51:10.002Z</time></trkpt><trkpt lat="39.89614609301629" lon="18.393501151949142"><ele>121.0</ele><time>2026-04-05T06:51:11.002Z</time></trkpt><trkpt lat="39.89592521120439" lon="18.393542160701156"><ele>121.0</ele><time>2026-04-05T06:51:12.002Z</time></trkpt><trkpt lat="39.895698234011576" lon="18.39358435927335"><ele>121.0</ele><time>2026-04-05T06:51:13.002Z</time></trkpt><trkpt lat="39.89546469310247" lon="18.393627602110026"><ele>121.0</ele><time>2026-04-05T06:51:14.002Z</time></trkpt><trkpt lat="39.895241057576094" lon="18.393669077104786"><ele>120.66666666666667</ele><time>2026-04-05T06:51:15.002Z</time></trkpt><trkpt lat="39.89502552267231" lon="18.393729578786026"><ele>120.33333333333334</ele><time>2026-04-05T06:51:16.002Z</time></trkpt><trkpt lat="39.89479935920083" lon="18.39375985047388"><ele>120.0</ele><time>2026-04-05T06:51:17.002Z</time></trkpt><trkpt lat="39.89457415840991" lon="18.393798665999306"><ele>111.5</ele><time>2026-04-05T06:51:18.002Z</time></trkpt><trkpt lat="39.89434778977511" lon="18.39384717254525"><ele>103.0</ele><time>2026-04-05T06:51:19.002Z</time></trkpt><trkpt lat="39.89411686731802" lon="18.393893144212537"><ele>103.0</ele><time>2026-04-05T06:51:20.002Z</time></trkpt><trkpt lat="39.893880821849635" lon="18.393939262747345"><ele>103.0</ele><time>2026-04-05T06:51:21.002Z</time></trkpt><trkpt lat="39.893637494232394" lon="18.393974144197337"><ele>102.5</ele><time>2026-04-05T06:51:22.002Z</time></trkpt><trkpt lat="39.89339127724836" lon="18.39402496457163"><ele>102.0</ele><time>2026-04-05T06:51:23.002Z</time></trkpt><trkpt lat="39.89314285696201" lon="18.39407960890455"><ele>102.0</ele><time>2026-04-05T06:51:24.002Z</time></trkpt><trkpt lat="39.892891119621865" lon="18.39412900186178"><ele>102.0</ele><time>2026-04-05T06:51:25.002Z</time></trkpt><trkpt lat="39.89264215644982" lon="18.394174746508774"><ele>103.0</ele><time>2026-04-05T06:51:26.002Z</time></trkpt><trkpt lat="39.89239703479482" lon="18.39421227643389"><ele>104.0</ele><time>2026-04-05T06:51:27.002Z</time></trkpt><trkpt lat="39.89216109702834" lon="18.394246664888076"><ele>104.0</ele><time>2026-04-05T06:51:28.002Z</time></trkpt><trkpt lat="39.891936774863446" lon="18.394291218359214"><ele>104.0</ele><time>2026-04-05T06:51:29.002Z</time></trkpt><trkpt lat="39.89170894927242" lon="18.394333761908225"><ele>104.0</ele><time>2026-04-05T06:51:30.002Z</time></trkpt><trkpt lat="39.891475784085806" lon="18.394378360372027"><ele>104.0</ele><time>2026-04-05T06:51:31.002Z</time></trkpt><trkpt lat="39.89123545318917" lon="18.394420644260226"><ele>104.0</ele><time>2026-04-05T06:51:32.002Z</time></trkpt><trkpt lat="39.8909951059752" lon="18.39446346031464"><ele>104.0</ele><time>2026-04-05T06:51:33.002Z</time></trkpt><trkpt lat="39.89075021847016" lon="18.394510511735557"><ele>104.33333333333333</ele><time>2026-04-05T06:51:34.002Z</time></trkpt><trkpt lat="39.89051522897865" lon="18.394553887898407"><ele>104.66666666666666</ele><time>2026-04-05T06:51:35.002Z</time></trkpt><trkpt lat="39.890307640163066" lon="18.394594504767372"><ele>105.0</ele><time>2026-04-05T06:51:36.002Z</time></trkpt><trkpt lat="39.89011965822207" lon="18.394627596336882"><ele>105.0</ele><time>2026-04-05T06:51:37.002Z</time></trkpt><trkpt lat="39.889932076982646" lon="18.39466518778148"><ele>105.0</ele><time>2026-04-05T06:51:38.001Z</time></trkpt><trkpt lat="39.88974307424753" lon="18.394690831590328"><ele>105.0</ele><time>2026-04-05T06:51:39.001Z</time></trkpt><trkpt lat="39.88956173161392" lon="18.394701849355393"><ele>105.33333333333334</ele><time>2026-04-05T06:51:40.001Z</time></trkpt><trkpt lat="39.88939675375491" lon="18.394700706767477"><ele>105.66666666666667</ele><time>2026-04-05T06:51:41.001Z</time></trkpt><trkpt lat="39.88923412089232" lon="18.394684849050545"><ele>106.0</ele><time>2026-04-05T06:51:42.001Z</time></trkpt><trkpt lat="39.88906913758833" lon="18.394650313868567"><ele>106.0</ele><time>2026-04-05T06:51:43.001Z</time></trkpt><trkpt lat="39.888892438236375" lon="18.39460974369441"><ele>106.0</ele><time>2026-04-05T06:51:44.001Z</time></trkpt><trkpt lat="39.88871903179197" lon="18.394548971958564"><ele>106.0</ele><time>2026-04-05T06:51:45.001Z</time></trkpt><trkpt lat="39.8885358964493" lon="18.394467995143657"><ele>105.0</ele><time>2026-04-05T06:51:46.001Z</time></trkpt><trkpt lat="39.88837265544288" lon="18.394383940530684"><ele>104.0</ele><time>2026-04-05T06:51:47.001Z</time></trkpt><trkpt lat="39.88819440911621" lon="18.394319849079224"><ele>103.0</ele><time>2026-04-05T06:51:48.001Z</time></trkpt><trkpt lat="39.888015945575034" lon="18.39424465978731"><ele>103.0</ele><time>2026-04-05T06:51:49.001Z</time></trkpt><trkpt lat="39.887828955595374" lon="18.394155713463064"><ele>103.0</ele><time>2026-04-05T06:51:50.001Z</time></trkpt><trkpt lat="39.88765412646804" lon="18.39407645810745"><ele>103.0</ele><time>2026-04-05T06:51:51.001Z</time></trkpt><trkpt lat="39.88748149948538" lon="18.393988615619136"><ele>106.0</ele><time>2026-04-05T06:51:52.001Z</time></trkpt><trkpt lat="39.887310079294465" lon="18.393924666015888"><ele>109.0</ele><time>2026-04-05T06:51:53.001Z</time></trkpt><trkpt lat="39.88713822001647" lon="18.39385920037268"><ele>112.0</ele><time>2026-04-05T06:51:54.001Z</time></trkpt><trkpt lat="39.88697199605613" lon="18.39380198067641"><ele>112.0</ele><time>2026-04-05T06:51:55.001Z</time></trkpt><trkpt lat="39.88680325151318" lon="18.393767070551604"><ele>112.0</ele><time>2026-04-05T06:51:56.001Z</time></trkpt><trkpt lat="39.8866301099667" lon="18.39374995360416"><ele>112.0</ele><time>2026-04-05T06:51:57.001Z</time></trkpt><trkpt lat="39.886455616085826" lon="18.393732617521483"><ele>111.33333333333334</ele><time>2026-04-05T06:51:58.001Z</time></trkpt><trkpt lat="39.886264788841615" lon="18.39372905359284"><ele>110.66666666666666</ele><time>2026-04-05T06:51:59.001Z</time></trkpt><trkpt lat="39.88607203075397" lon="18.393749088560792"><ele>110.0</ele><time>2026-04-05T06:52:00.001Z</time></trkpt><trkpt lat="39.885872287069425" lon="18.39378758788136"><ele>100.33333333333333</ele><time>2026-04-05T06:52:01.001Z</time></trkpt><trkpt lat="39.88567606651898" lon="18.39384347302087"><ele>90.66666666666666</ele><time>2026-04-05T06:52:02.001Z</time></trkpt><trkpt lat="39.885474894809896" lon="18.393917946217307"><ele>81.0</ele><time>2026-04-05T06:52:03.001Z</time></trkpt><trkpt lat="39.88527168497605" lon="18.393999810960263"><ele>83.33333333333333</ele><time>2026-04-05T06:52:04.001Z</time></trkpt><trkpt lat="39.885065523036594" lon="18.394084834552302"><ele>85.66666666666666</ele><time>2026-04-05T06:52:05.001Z</time></trkpt><trkpt lat="39.88485903187822" lon="18.394171013642826"><ele>88.0</ele><time>2026-04-05T06:52:06.001Z</time></trkpt><trkpt lat="39.88464353422143" lon="18.39425619807677"><ele>88.0</ele><time>2026-04-05T06:52:07.001Z</time></trkpt><trkpt lat="39.884430136075046" lon="18.394362619116666"><ele>88.0</ele><time>2026-04-05T06:52:08.001Z</time></trkpt><trkpt lat="39.884217397524544" lon="18.394480168857516"><ele>82.0</ele><time>2026-04-05T06:52:09.001Z</time></trkpt><trkpt lat="39.884010888903696" lon="18.39461067184766"><ele>76.0</ele><time>2026-04-05T06:52:10.001Z</time></trkpt><trkpt lat="39.88379903567367" lon="18.394746763077737"><ele>76.0</ele><time>2026-04-05T06:52:11.001Z</time></trkpt><trkpt lat="39.8835895089097" lon="18.394875119869294"><ele>76.0</ele><time>2026-04-05T06:52:12.001Z</time></trkpt><trkpt lat="39.8833801569474" lon="18.394997881107823"><ele>82.5</ele><time>2026-04-05T06:52:13.001Z</time></trkpt><trkpt lat="39.88316571076735" lon="18.395112546312635"><ele>89.0</ele><time>2026-04-05T06:52:14.001Z</time></trkpt><trkpt lat="39.8829528827503" lon="18.395226024610725"><ele>89.0</ele><time>2026-04-05T06:52:15.001Z</time></trkpt><trkpt lat="39.8827429743414" lon="18.395341754899924"><ele>89.0</ele><time>2026-04-05T06:52:16.001Z</time></trkpt><trkpt lat="39.88254040293829" lon="18.395450819666173"><ele>89.0</ele><time>2026-04-05T06:52:17.001Z</time></trkpt><trkpt lat="39.88234673772274" lon="18.39555183758841"><ele>86.66666666666667</ele><time>2026-04-05T06:52:18.001Z</time></trkpt><trkpt lat="39.88216587124956" lon="18.395651194921918"><ele>84.33333333333333</ele><time>2026-04-05T06:52:19.001Z</time></trkpt><trkpt lat="39.88199121377635" lon="18.395741586564345"><ele>82.0</ele><time>2026-04-05T06:52:20.001Z</time></trkpt><trkpt lat="39.881826089997055" lon="18.395836857159342"><ele>83.66666666666666</ele><time>2026-04-05T06:52:21.001Z</time></trkpt><trkpt lat="39.88167113315083" lon="18.39591941216732"><ele>85.33333333333333</ele><time>2026-04-05T06:52:22.001Z</time></trkpt><trkpt lat="39.88151629665704" lon="18.395983482042244"><ele>87.0</ele><time>2026-04-05T06:52:23.001Z</time></trkpt><trkpt lat="39.88136101560875" lon="18.396031478222515"><ele>87.0</ele><time>2026-04-05T06:52:24.001Z</time></trkpt><trkpt lat="39.88119644137812" lon="18.39607637010945"><ele>87.0</ele><time>2026-04-05T06:52:25.001Z</time></trkpt><trkpt lat="39.88101935034526" lon="18.39611312840599"><ele>87.0</ele><time>2026-04-05T06:52:26.001Z</time></trkpt><trkpt lat="39.88082081027648" lon="18.396133235754288"><ele>88.0</ele><time>2026-04-05T06:52:27.001Z</time></trkpt><trkpt lat="39.88061969108283" lon="18.396157641798965"><ele>89.0</ele><time>2026-04-05T06:52:28.001Z</time></trkpt><trkpt lat="39.88042016542762" lon="18.396183517436814"><ele>90.0</ele><time>2026-04-05T06:52:29.001Z</time></trkpt><trkpt lat="39.88022299088323" lon="18.396205189079836"><ele>91.0</ele><time>2026-04-05T06:52:30.001Z</time></trkpt><trkpt lat="39.88002048982408" lon="18.39622411352562"><ele>92.0</ele><time>2026-04-05T06:52:31.001Z</time></trkpt><trkpt lat="39.87981091352828" lon="18.396234254290693"><ele>93.0</ele><time>2026-04-05T06:52:32.001Z</time></trkpt><trkpt lat="39.87959445378623" lon="18.39620901983144"><ele>93.0</ele><time>2026-04-05T06:52:33.001Z</time></trkpt><trkpt lat="39.87937869798117" lon="18.396195870996344"><ele>93.0</ele><time>2026-04-05T06:52:34.001Z</time></trkpt><trkpt lat="39.87916287765738" lon="18.39617965424315"><ele>93.0</ele><time>2026-04-05T06:52:35.001Z</time></trkpt><trkpt lat="39.87894699065107" lon="18.396163432483263"><ele>92.0</ele><time>2026-04-05T06:52:36.001Z</time></trkpt><trkpt lat="39.87873110845347" lon="18.396147211080187"><ele>91.0</ele><time>2026-04-05T06:52:37.001Z</time></trkpt><trkpt lat="39.87850664601876" lon="18.396130344962227"><ele>90.0</ele><time>2026-04-05T06:52:38.001Z</time></trkpt><trkpt lat="39.87828865710675" lon="18.39611429886694"><ele>87.0</ele><time>2026-04-05T06:52:39.001Z</time></trkpt><trkpt lat="39.87807196552724" lon="18.396098630894915"><ele>84.0</ele><time>2026-04-05T06:52:40.001Z</time></trkpt><trkpt lat="39.87786411895956" lon="18.396083602464138"><ele>81.0</ele><time>2026-04-05T06:52:41.001Z</time></trkpt><trkpt lat="39.87766037978891" lon="18.396087965351846"><ele>79.0</ele><time>2026-04-05T06:52:42.001Z</time></trkpt><trkpt lat="39.87745310686593" lon="18.396067531579778"><ele>77.0</ele><time>2026-04-05T06:52:43.001Z</time></trkpt><trkpt lat="39.87724851411771" lon="18.396057334338973"><ele>75.0</ele><time>2026-04-05T06:52:44.001Z</time></trkpt><trkpt lat="39.877037590793485" lon="18.396048743447192"><ele>75.0</ele><time>2026-04-05T06:52:45.001Z</time></trkpt><trkpt lat="39.87682896825757" lon="18.396038389089316"><ele>75.0</ele><time>2026-04-05T06:52:46.001Z</time></trkpt><trkpt lat="39.87661747730912" lon="18.39603800990888"><ele>75.0</ele><time>2026-04-05T06:52:47.001Z</time></trkpt><trkpt lat="39.876404596277354" lon="18.396034795094202"><ele>72.66666666666667</ele><time>2026-04-05T06:52:48.001Z</time></trkpt><trkpt lat="39.87618268995692" lon="18.396035255527213"><ele>70.33333333333334</ele><time>2026-04-05T06:52:49.001Z</time></trkpt><trkpt lat="39.875961514587345" lon="18.396033886986597"><ele>68.0</ele><time>2026-04-05T06:52:50.001Z</time></trkpt><trkpt lat="39.87574002562908" lon="18.396035197145515"><ele>67.0</ele><time>2026-04-05T06:52:51.001Z</time></trkpt><trkpt lat="39.8755083206213" lon="18.396034382131766"><ele>66.0</ele><time>2026-04-05T06:52:52.001Z</time></trkpt><trkpt lat="39.87528344226732" lon="18.396035165610137"><ele>66.0</ele><time>2026-04-05T06:52:53.001Z</time></trkpt><trkpt lat="39.875067700200965" lon="18.396036207323906"><ele>66.0</ele><time>2026-04-05T06:52:54.001Z</time></trkpt><trkpt lat="39.87487282966552" lon="18.3960424449626"><ele>66.0</ele><time>2026-04-05T06:52:55.001Z</time></trkpt><trkpt lat="39.87468904423239" lon="18.396040629458152"><ele>66.0</ele><time>2026-04-05T06:52:56.001Z</time></trkpt><trkpt lat="39.874503469291945" lon="18.39603828107943"><ele>66.0</ele><time>2026-04-05T06:52:57.001Z</time></trkpt><trkpt lat="39.87431842418201" lon="18.396039430596844"><ele>66.0</ele><time>2026-04-05T06:52:58.001Z</time></trkpt><trkpt lat="39.87413502800616" lon="18.39602667240007"><ele>65.0</ele><time>2026-04-05T06:52:59.001Z</time></trkpt><trkpt lat="39.87394963896339" lon="18.396008422639458"><ele>64.0</ele><time>2026-04-05T06:53:00.001Z</time></trkpt><trkpt lat="39.87376267667366" lon="18.39598545963805"><ele>63.0</ele><time>2026-04-05T06:53:01.001Z</time></trkpt><trkpt lat="39.87357420525478" lon="18.395963592558765"><ele>62.33333333333333</ele><time>2026-04-05T06:53:02.001Z</time></trkpt><trkpt lat="39.8733848046015" lon="18.39594388157604"><ele>61.666666666666664</ele><time>2026-04-05T06:53:03.001Z</time></trkpt><trkpt lat="39.87319002923265" lon="18.39592228547571"><ele>61.0</ele><time>2026-04-05T06:53:04.001Z</time></trkpt><trkpt lat="39.87300510658185" lon="18.395896347614638"><ele>61.0</ele><time>2026-04-05T06:53:05.001Z</time></trkpt><trkpt lat="39.87283449224201" lon="18.39587721663846"><ele>61.0</ele><time>2026-04-05T06:53:06.002Z</time></trkpt><trkpt lat="39.8726611367444" lon="18.39586396154363"><ele>61.0</ele><time>2026-04-05T06:53:07.002Z</time></trkpt><trkpt lat="39.872488272571545" lon="18.39583265368026"><ele>60.33333333333333</ele><time>2026-04-05T06:53:08.002Z</time></trkpt><trkpt lat="39.87231841534868" lon="18.395771042164107"><ele>59.66666666666667</ele><time>2026-04-05T06:53:09.002Z</time></trkpt><trkpt lat="39.872143420878444" lon="18.395711417345492"><ele>59.0</ele><time>2026-04-05T06:53:10.002Z</time></trkpt><trkpt lat="39.871961953434365" lon="18.39563421401566"><ele>59.0</ele><time>2026-04-05T06:53:11.002Z</time></trkpt><trkpt lat="39.87178129488035" lon="18.395578165969464"><ele>59.0</ele><time>2026-04-05T06:53:12.002Z</time></trkpt><trkpt lat="39.87161248534458" lon="18.395486354122262"><ele>59.0</ele><time>2026-04-05T06:53:13.002Z</time></trkpt><trkpt lat="39.87144930534446" lon="18.395367773698936"><ele>62.0</ele><time>2026-04-05T06:53:14.002Z</time></trkpt><trkpt lat="39.871295020087025" lon="18.395242576296692"><ele>65.0</ele><time>2026-04-05T06:53:15.002Z</time></trkpt><trkpt lat="39.87116272310057" lon="18.395115931579543"><ele>68.0</ele><time>2026-04-05T06:53:16.002Z</time></trkpt><trkpt lat="39.871025437162245" lon="18.395028702412556"><ele>68.0</ele><time>2026-04-05T06:53:17.002Z</time></trkpt><trkpt lat="39.87092014836526" lon="18.394893003941082"><ele>68.0</ele><time>2026-04-05T06:53:18.002Z</time></trkpt><trkpt lat="39.87083271979012" lon="18.394719649163026"><ele>68.0</ele><time>2026-04-05T06:53:19.002Z</time></trkpt><trkpt lat="39.870738638645534" lon="18.394534674340143"><ele>68.0</ele><time>2026-04-05T06:53:20.002Z</time></trkpt><trkpt lat="39.87065264086257" lon="18.394334697888198"><ele>68.0</ele><time>2026-04-05T06:53:21.002Z</time></trkpt><trkpt lat="39.8706238330429" lon="18.394096248446626"><ele>68.0</ele><time>2026-04-05T06:53:22.002Z</time></trkpt><trkpt lat="39.87056582582748" lon="18.393862083454376"><ele>70.66666666666667</ele><time>2026-04-05T06:53:23.002Z</time></trkpt><trkpt lat="39.87050422146947" lon="18.393613397441612"><ele>73.33333333333333</ele><time>2026-04-05T06:53:24.002Z</time></trkpt><trkpt lat="39.8704471646616" lon="18.393369832508736"><ele>76.0</ele><time>2026-04-05T06:53:25.002Z</time></trkpt><trkpt lat="39.87040159646891" lon="18.393123548507745"><ele>77.66666666666666</ele><time>2026-04-05T06:53:26.002Z</time></trkpt><trkpt lat="39.87036115356082" lon="18.392861094642814"><ele>79.33333333333333</ele><time>2026-04-05T06:53:27.002Z</time></trkpt><trkpt lat="39.87031939569578" lon="18.392605288102306"><ele>81.0</ele><time>2026-04-05T06:53:28.002Z</time></trkpt><trkpt lat="39.870281928724225" lon="18.392370327820803"><ele>80.66666666666667</ele><time>2026-04-05T06:53:29.002Z</time></trkpt><trkpt lat="39.87024642861753" lon="18.392149917871567"><ele>80.33333333333334</ele><time>2026-04-05T06:53:30.002Z</time></trkpt><trkpt lat="39.87021309605356" lon="18.39194080884258"><ele>80.0</ele><time>2026-04-05T06:53:31.002Z</time></trkpt><trkpt lat="39.870181056635275" lon="18.3917431143756"><ele>80.0</ele><time>2026-04-05T06:53:32.002Z</time></trkpt><trkpt lat="39.870137142624415" lon="18.39155958138316"><ele>80.0</ele><time>2026-04-05T06:53:33.002Z</time></trkpt><trkpt lat="39.870057409380365" lon="18.391406676630165"><ele>80.0</ele><time>2026-04-05T06:53:34.002Z</time></trkpt><trkpt lat="39.869988539816" lon="18.391276761100677"><ele>80.0</ele><time>2026-04-05T06:53:35.002Z</time></trkpt><trkpt lat="39.869918796516686" lon="18.391182781720314"><ele>78.4</ele><time>2026-04-05T06:53:36.002Z</time></trkpt><trkpt lat="39.86985518210914" lon="18.391102241469408"><ele>76.8</ele><time>2026-04-05T06:53:37.002Z</time></trkpt><trkpt lat="39.86978854568835" lon="18.391041248126616"><ele>75.2</ele><time>2026-04-05T06:53:38.002Z</time></trkpt><trkpt lat="39.869699108046945" lon="18.391013197936985"><ele>73.6</ele><time>2026-04-05T06:53:39.002Z</time></trkpt><trkpt lat="39.86959649147642" lon="18.391006248232213"><ele>72.0</ele><time>2026-04-05T06:53:40.002Z</time></trkpt><trkpt lat="39.86947540791793" lon="18.39103686444311"><ele>72.0</ele><time>2026-04-05T06:53:41.002Z</time></trkpt><trkpt lat="39.86933916614126" lon="18.39107302212125"><ele>72.0</ele><time>2026-04-05T06:53:42.002Z</time></trkpt><trkpt lat="39.8691868867145" lon="18.391107097657475"><ele>72.0</ele><time>2026-04-05T06:53:43.002Z</time></trkpt><trkpt lat="39.869024214861376" lon="18.39115333345698"><ele>73.33333333333333</ele><time>2026-04-05T06:53:44.001Z</time></trkpt><trkpt lat="39.86885696245343" lon="18.391219005953456"><ele>74.66666666666666</ele><time>2026-04-05T06:53:45.001Z</time></trkpt><trkpt lat="39.86869357052933" lon="18.391322028125316"><ele>76.0</ele><time>2026-04-05T06:53:46.001Z</time></trkpt><trkpt lat="39.86853300328725" lon="18.3914672128325"><ele>75.0</ele><time>2026-04-05T06:53:47.001Z</time></trkpt><trkpt lat="39.86837009455456" lon="18.391609033911642"><ele>74.0</ele><time>2026-04-05T06:53:48.001Z</time></trkpt><trkpt lat="39.86823967628521" lon="18.391747879830334"><ele>73.0</ele><time>2026-04-05T06:53:49.001Z</time></trkpt><trkpt lat="39.86813853482902" lon="18.391841248912616"><ele>73.0</ele><time>2026-04-05T06:53:50.001Z</time></trkpt><trkpt lat="39.8680631634122" lon="18.391941183480583"><ele>73.0</ele><time>2026-04-05T06:53:51.001Z</time></trkpt><trkpt lat="39.868007604357665" lon="18.392079916400988"><ele>73.0</ele><time>2026-04-05T06:53:52.001Z</time></trkpt><trkpt lat="39.867961112878525" lon="18.392256825544116"><ele>73.0</ele><time>2026-04-05T06:53:53.001Z</time></trkpt><trkpt lat="39.867927871877605" lon="18.392442454354168"><ele>67.0</ele><time>2026-04-05T06:53:54.001Z</time></trkpt><trkpt lat="39.86789460746083" lon="18.392603160914053"><ele>61.0</ele><time>2026-04-05T06:53:55.001Z</time></trkpt><trkpt lat="39.86784676256382" lon="18.392730998359433"><ele>55.0</ele><time>2026-04-05T06:53:56.001Z</time></trkpt><trkpt lat="39.86776511127038" lon="18.392859144346303"><ele>49.0</ele><time>2026-04-05T06:53:57.001Z</time></trkpt><trkpt lat="39.86767149802626" lon="18.392966689088677"><ele>55.75</ele><time>2026-04-05T06:53:58.001Z</time></trkpt><trkpt lat="39.867556051015754" lon="18.392999715704555"><ele>62.5</ele><time>2026-04-05T06:53:59.001Z</time></trkpt><trkpt lat="39.867441737896286" lon="18.3929954584638"><ele>69.25</ele><time>2026-04-05T06:54:00.001Z</time></trkpt><trkpt lat="39.86730954833744" lon="18.392998454800374"><ele>76.0</ele><time>2026-04-05T06:54:01.001Z</time></trkpt><trkpt lat="39.86715418975271" lon="18.392942160980738"><ele>76.0</ele><time>2026-04-05T06:54:02.001Z</time></trkpt><trkpt lat="39.867002296866055" lon="18.392889741358854"><ele>76.0</ele><time>2026-04-05T06:54:03.001Z</time></trkpt><trkpt lat="39.86686693387203" lon="18.392775312319973"><ele>76.0</ele><time>2026-04-05T06:54:04.001Z</time></trkpt><trkpt lat="39.86674093239616" lon="18.392647504973475"><ele>75.0</ele><time>2026-04-05T06:54:05.001Z</time></trkpt><trkpt lat="39.86661467353367" lon="18.392510164397898"><ele>74.0</ele><time>2026-04-05T06:54:06.001Z</time></trkpt><trkpt lat="39.86647879112217" lon="18.39238763288573"><ele>73.0</ele><time>2026-04-05T06:54:07.001Z</time></trkpt><trkpt lat="39.8663516631192" lon="18.39224752175836"><ele>73.75</ele><time>2026-04-05T06:54:08.001Z</time></trkpt><trkpt lat="39.866228608301746" lon="18.392090565630422"><ele>74.5</ele><time>2026-04-05T06:54:09.001Z</time></trkpt><trkpt lat="39.86611096923929" lon="18.391963893201456"><ele>75.25</ele><time>2026-04-05T06:54:10.001Z</time></trkpt><trkpt lat="39.86601737516451" lon="18.39186974298752"><ele>76.0</ele><time>2026-04-05T06:54:11.001Z</time></trkpt><trkpt lat="39.86595792643956" lon="18.39175518773943"><ele>74.25</ele><time>2026-04-05T06:54:12.001Z</time></trkpt><trkpt lat="39.86591188011515" lon="18.391636580436785"><ele>72.5</ele><time>2026-04-05T06:54:13.001Z</time></trkpt><trkpt lat="39.86587748709395" lon="18.391496059783897"><ele>70.75</ele><time>2026-04-05T06:54:14.001Z</time></trkpt><trkpt lat="39.86583661759657" lon="18.391330130842956"><ele>69.0</ele><time>2026-04-05T06:54:15.001Z</time></trkpt><trkpt lat="39.8657891552308" lon="18.39115396342438"><ele>69.0</ele><time>2026-04-05T06:54:16.001Z</time></trkpt><trkpt lat="39.86571376885991" lon="18.390985364306804"><ele>69.0</ele><time>2026-04-05T06:54:17.001Z</time></trkpt><trkpt lat="39.865603630776185" lon="18.390852238135512"><ele>69.0</ele><time>2026-04-05T06:54:18.001Z</time></trkpt><trkpt lat="39.86549538689563" lon="18.390733292172737"><ele>69.0</ele><time>2026-04-05T06:54:19.001Z</time></trkpt><trkpt lat="39.86537590244293" lon="18.390656122386762"><ele>69.0</ele><time>2026-04-05T06:54:20.001Z</time></trkpt><trkpt lat="39.86524023678276" lon="18.390621693671612"><ele>69.0</ele><time>2026-04-05T06:54:21.001Z</time></trkpt><trkpt lat="39.86509436398251" lon="18.390602028310365"><ele>69.0</ele><time>2026-04-05T06:54:22.001Z</time></trkpt><trkpt lat="39.86492615894837" lon="18.39059394170171"><ele>66.33333333333333</ele><time>2026-04-05T06:54:23.001Z</time></trkpt><trkpt lat="39.864748596379066" lon="18.390584069610295"><ele>63.666666666666664</ele><time>2026-04-05T06:54:24.001Z</time></trkpt><trkpt lat="39.86456770836322" lon="18.39056347213986"><ele>61.0</ele><time>2026-04-05T06:54:25.001Z</time></trkpt><trkpt lat="39.86438691107142" lon="18.390543294247305"><ele>63.0</ele><time>2026-04-05T06:54:26.001Z</time></trkpt><trkpt lat="39.86420007987624" lon="18.39052183052781"><ele>65.0</ele><time>2026-04-05T06:54:27.001Z</time></trkpt><trkpt lat="39.863999784160875" lon="18.390505991077077"><ele>67.0</ele><time>2026-04-05T06:54:28.001Z</time></trkpt><trkpt lat="39.863809969622004" lon="18.390470715492707"><ele>67.0</ele><time>2026-04-05T06:54:29.001Z</time></trkpt><trkpt lat="39.86362856667508" lon="18.390451042461724"><ele>67.0</ele><time>2026-04-05T06:54:30.001Z</time></trkpt><trkpt lat="39.86344852325367" lon="18.390450359900832"><ele>67.0</ele><time>2026-04-05T06:54:31.001Z</time></trkpt><trkpt lat="39.863286849056045" lon="18.390405222749774"><ele>64.66666666666666</ele><time>2026-04-05T06:54:32.001Z</time></trkpt><trkpt lat="39.86311352575341" lon="18.39037171047009"><ele>62.33333333333333</ele><time>2026-04-05T06:54:33.001Z</time></trkpt><trkpt lat="39.862957309072364" lon="18.39032898547808"><ele>60.0</ele><time>2026-04-05T06:54:34.001Z</time></trkpt><trkpt lat="39.86279365836313" lon="18.39026719464101"><ele>60.0</ele><time>2026-04-05T06:54:35.001Z</time></trkpt><trkpt lat="39.86264552380125" lon="18.390197151725683"><ele>60.0</ele><time>2026-04-05T06:54:36.001Z</time></trkpt><trkpt lat="39.862513125886444" lon="18.390114175765735"><ele>60.0</ele><time>2026-04-05T06:54:37.001Z</time></trkpt><trkpt lat="39.862374108686105" lon="18.390012815696533"><ele>57.66666666666667</ele><time>2026-04-05T06:54:38.001Z</time></trkpt><trkpt lat="39.86223116401737" lon="18.389903677954536"><ele>55.333333333333336</ele><time>2026-04-05T06:54:39.001Z</time></trkpt><trkpt lat="39.862072855186" lon="18.38981776358399"><ele>53.0</ele><time>2026-04-05T06:54:40.001Z</time></trkpt><trkpt lat="39.86192362903195" lon="18.389699783879674"><ele>55.333333333333336</ele><time>2026-04-05T06:54:41.001Z</time></trkpt><trkpt lat="39.861772564127854" lon="18.389579729179626"><ele>57.66666666666667</ele><time>2026-04-05T06:54:42.001Z</time></trkpt><trkpt lat="39.861618925789" lon="18.389455769641337"><ele>60.0</ele><time>2026-04-05T06:54:43.001Z</time></trkpt><trkpt lat="39.86147819245917" lon="18.389300536592827"><ele>60.0</ele><time>2026-04-05T06:54:44.001Z</time></trkpt><trkpt lat="39.86132199707187" lon="18.389174904438818"><ele>60.0</ele><time>2026-04-05T06:54:45.001Z</time></trkpt><trkpt lat="39.861167986564105" lon="18.389051168715376"><ele>60.0</ele><time>2026-04-05T06:54:46.001Z</time></trkpt><trkpt lat="39.86100497696775" lon="18.388921898073278"><ele>62.66666666666667</ele><time>2026-04-05T06:54:47.001Z</time></trkpt><trkpt lat="39.86084437804157" lon="18.38879447752276"><ele>65.33333333333334</ele><time>2026-04-05T06:54:48.001Z</time></trkpt><trkpt lat="39.86068483388189" lon="18.38866789383502"><ele>68.0</ele><time>2026-04-05T06:54:49.001Z</time></trkpt><trkpt lat="39.86053570649135" lon="18.38854878160564"><ele>68.0</ele><time>2026-04-05T06:54:50.001Z</time></trkpt><trkpt lat="39.860378153553455" lon="18.388421763031733"><ele>68.0</ele><time>2026-04-05T06:54:51.001Z</time></trkpt><trkpt lat="39.86021695100693" lon="18.388291802168865"><ele>68.0</ele><time>2026-04-05T06:54:52.001Z</time></trkpt><trkpt lat="39.860056988678316" lon="18.388162798049716"><ele>69.66666666666667</ele><time>2026-04-05T06:54:53.001Z</time></trkpt><trkpt lat="39.8598934661165" lon="18.388030903582518"><ele>71.33333333333333</ele><time>2026-04-05T06:54:54.001Z</time></trkpt><trkpt lat="39.85973180161809" lon="18.387900507802748"><ele>73.0</ele><time>2026-04-05T06:54:55.001Z</time></trkpt><trkpt lat="39.85955792949035" lon="18.38779977491647"><ele>73.0</ele><time>2026-04-05T06:54:56.001Z</time></trkpt><trkpt lat="39.859398996863554" lon="18.38766962991045"><ele>73.0</ele><time>2026-04-05T06:54:57.001Z</time></trkpt><trkpt lat="39.859244863897686" lon="18.387545651295408"><ele>73.0</ele><time>2026-04-05T06:54:58.001Z</time></trkpt><trkpt lat="39.85909435596648" lon="18.387419199696627"><ele>75.66666666666666</ele><time>2026-04-05T06:54:59.001Z</time></trkpt><trkpt lat="39.85895540441227" lon="18.387274505140095"><ele>78.33333333333333</ele><time>2026-04-05T06:55:00.001Z</time></trkpt><trkpt lat="39.85879305098558" lon="18.38717090273931"><ele>81.0</ele><time>2026-04-05T06:55:01.001Z</time></trkpt><trkpt lat="39.85862423090438" lon="18.387089114845683"><ele>79.33333333333333</ele><time>2026-04-05T06:55:02.001Z</time></trkpt><trkpt lat="39.85844535530772" lon="18.387035202905118"><ele>77.66666666666666</ele><time>2026-04-05T06:55:03.001Z</time></trkpt><trkpt lat="39.85826759388483" lon="18.386988445219377"><ele>76.0</ele><time>2026-04-05T06:55:04.001Z</time></trkpt><trkpt lat="39.85808559408762" lon="18.38696060691361"><ele>76.0</ele><time>2026-04-05T06:55:05.001Z</time></trkpt><trkpt lat="39.85791744506746" lon="18.3869490980897"><ele>76.0</ele><time>2026-04-05T06:55:06.001Z</time></trkpt><trkpt lat="39.85773893555525" lon="18.386975436365855"><ele>76.0</ele><time>2026-04-05T06:55:07.001Z</time></trkpt><trkpt lat="39.85756584599905" lon="18.387020864348557"><ele>76.66666666666666</ele><time>2026-04-05T06:55:08.001Z</time></trkpt><trkpt lat="39.85739835172063" lon="18.387084060809446"><ele>77.33333333333333</ele><time>2026-04-05T06:55:09.001Z</time></trkpt><trkpt lat="39.8572363598712" lon="18.387154406270675"><ele>78.0</ele><time>2026-04-05T06:55:10.001Z</time></trkpt><trkpt lat="39.85708210158849" lon="18.38723887344973"><ele>75.33333333333333</ele><time>2026-04-05T06:55:11.001Z</time></trkpt><trkpt lat="39.856941948023554" lon="18.387334776777337"><ele>72.66666666666666</ele><time>2026-04-05T06:55:12.001Z</time></trkpt><trkpt lat="39.856802606706374" lon="18.387459539852664"><ele>70.0</ele><time>2026-04-05T06:55:13.001Z</time></trkpt><trkpt lat="39.856662740182266" lon="18.387603701004302"><ele>70.0</ele><time>2026-04-05T06:55:14.001Z</time></trkpt><trkpt lat="39.85651299249481" lon="18.387755163455026"><ele>70.0</ele><time>2026-04-05T06:55:15.001Z</time></trkpt><trkpt lat="39.85635298947016" lon="18.387916981084373"><ele>70.0</ele><time>2026-04-05T06:55:16.001Z</time></trkpt><trkpt lat="39.856186861720396" lon="18.388089014612394"><ele>68.33333333333333</ele><time>2026-04-05T06:55:17.001Z</time></trkpt><trkpt lat="39.85602410381212" lon="18.388260165381634"><ele>66.66666666666667</ele><time>2026-04-05T06:55:18.001Z</time></trkpt><trkpt lat="39.855859380211506" lon="18.388416758230093"><ele>65.0</ele><time>2026-04-05T06:55:19.002Z</time></trkpt><trkpt lat="39.855711298859234" lon="18.38855955003067"><ele>65.0</ele><time>2026-04-05T06:55:20.002Z</time></trkpt><trkpt lat="39.855572033438655" lon="18.388693919467386"><ele>65.0</ele><time>2026-04-05T06:55:21.002Z</time></trkpt><trkpt lat="39.85544160494019" lon="18.388826731126994"><ele>65.0</ele><time>2026-04-05T06:55:22.002Z</time></trkpt><trkpt lat="39.85531237920906" lon="18.388957819072957"><ele>63.5</ele><time>2026-04-05T06:55:23.002Z</time></trkpt><trkpt lat="39.855191615520326" lon="18.38907746567007"><ele>62.0</ele><time>2026-04-05T06:55:24.002Z</time></trkpt><trkpt lat="39.85507121396396" lon="18.38918694417008"><ele>60.5</ele><time>2026-04-05T06:55:25.002Z</time></trkpt><trkpt lat="39.8549448341068" lon="18.389282677560963"><ele>59.0</ele><time>2026-04-05T06:55:26.002Z</time></trkpt><trkpt lat="39.85480309926119" lon="18.38936640920478"><ele>57.66666666666667</ele><time>2026-04-05T06:55:27.002Z</time></trkpt><trkpt lat="39.85464527195904" lon="18.389437616830392"><ele>56.33333333333333</ele><time>2026-04-05T06:55:28.002Z</time></trkpt><trkpt lat="39.85446774265418" lon="18.38949263667127"><ele>55.0</ele><time>2026-04-05T06:55:29.002Z</time></trkpt><trkpt lat="39.854274532562954" lon="18.389539757848162"><ele>53.666666666666664</ele><time>2026-04-05T06:55:30.002Z</time></trkpt><trkpt lat="39.85407418891016" lon="18.389592774521375"><ele>52.33333333333333</ele><time>2026-04-05T06:55:31.002Z</time></trkpt><trkpt lat="39.85387378028948" lon="18.389641162267512"><ele>51.0</ele><time>2026-04-05T06:55:32.002Z</time></trkpt><trkpt lat="39.85366848482651" lon="18.389688220879112"><ele>47.333333333333336</ele><time>2026-04-05T06:55:33.002Z</time></trkpt><trkpt lat="39.85347198301095" lon="18.389723606429467"><ele>43.66666666666667</ele><time>2026-04-05T06:55:34.002Z</time></trkpt><trkpt lat="39.853280677805856" lon="18.38974788386894"><ele>40.0</ele><time>2026-04-05T06:55:35.002Z</time></trkpt><trkpt lat="39.85309385073309" lon="18.38975661077623"><ele>39.333333333333336</ele><time>2026-04-05T06:55:36.002Z</time></trkpt><trkpt lat="39.85291151303398" lon="18.389750986116244"><ele>38.666666666666664</ele><time>2026-04-05T06:55:37.002Z</time></trkpt><trkpt lat="39.85273513608756" lon="18.389721376359816"><ele>38.0</ele><time>2026-04-05T06:55:38.002Z</time></trkpt><trkpt lat="39.8525699535181" lon="18.389651903519166"><ele>43.0</ele><time>2026-04-05T06:55:39.002Z</time></trkpt><trkpt lat="39.85239024517592" lon="18.389571442351485"><ele>48.0</ele><time>2026-04-05T06:55:40.002Z</time></trkpt><trkpt lat="39.85220766215763" lon="18.389479098225582"><ele>53.0</ele><time>2026-04-05T06:55:41.002Z</time></trkpt><trkpt lat="39.852035661254185" lon="18.389398834741638"><ele>53.0</ele><time>2026-04-05T06:55:42.002Z</time></trkpt><trkpt lat="39.85185245153167" lon="18.38934242196453"><ele>53.0</ele><time>2026-04-05T06:55:43.002Z</time></trkpt><trkpt lat="39.85165969417325" lon="18.389314050068332"><ele>53.0</ele><time>2026-04-05T06:55:44.002Z</time></trkpt><trkpt lat="39.85145978051435" lon="18.389287430076433"><ele>50.66666666666667</ele><time>2026-04-05T06:55:45.002Z</time></trkpt><trkpt lat="39.851259374150075" lon="18.389261614411353"><ele>48.333333333333336</ele><time>2026-04-05T06:55:46.002Z</time></trkpt><trkpt lat="39.85106052573048" lon="18.38923939372975"><ele>46.0</ele><time>2026-04-05T06:55:47.002Z</time></trkpt><trkpt lat="39.85087337884498" lon="18.38923595136753"><ele>44.333333333333336</ele><time>2026-04-05T06:55:48.002Z</time></trkpt><trkpt lat="39.850697718770384" lon="18.3892060892904"><ele>42.666666666666664</ele><time>2026-04-05T06:55:49.002Z</time></trkpt><trkpt lat="39.85053457784193" lon="18.389182068647248"><ele>41.0</ele><time>2026-04-05T06:55:50.001Z</time></trkpt><trkpt lat="39.8503715176374" lon="18.389162662135497"><ele>41.0</ele><time>2026-04-05T06:55:51.001Z</time></trkpt><trkpt lat="39.850216422665625" lon="18.389136782771043"><ele>41.0</ele><time>2026-04-05T06:55:52.001Z</time></trkpt><trkpt lat="39.850075142867205" lon="18.38910688890138"><ele>41.0</ele><time>2026-04-05T06:55:53.001Z</time></trkpt><trkpt lat="39.849943882001625" lon="18.389073606193516"><ele>41.0</ele><time>2026-04-05T06:55:54.001Z</time></trkpt><trkpt lat="39.84981392964884" lon="18.389037623037332"><ele>40.0</ele><time>2026-04-05T06:55:55.001Z</time></trkpt><trkpt lat="39.849696153775554" lon="18.38900714413892"><ele>39.0</ele><time>2026-04-05T06:55:56.001Z</time></trkpt><trkpt lat="39.84958182877813" lon="18.388984363040667"><ele>38.0</ele><time>2026-04-05T06:55:57.001Z</time></trkpt><trkpt lat="39.84947484992983" lon="18.388955481423114"><ele>37.0</ele><time>2026-04-05T06:55:58.001Z</time></trkpt><trkpt lat="39.849372386506516" lon="18.388933109305373"><ele>36.0</ele><time>2026-04-05T06:55:59.001Z</time></trkpt><trkpt lat="39.84926127617478" lon="18.38890975686308"><ele>35.5</ele><time>2026-04-05T06:56:00.001Z</time></trkpt><trkpt lat="39.849138006568126" lon="18.38887793256136"><ele>35.0</ele><time>2026-04-05T06:56:01.001Z</time></trkpt><trkpt lat="39.848998884071676" lon="18.388834376492877"><ele>34.5</ele><time>2026-04-05T06:56:02.001Z</time></trkpt><trkpt lat="39.84884437354019" lon="18.38879058486988"><ele>34.0</ele><time>2026-04-05T06:56:03Z</time></trkpt><trkpt lat="39.848676599175604" lon="18.38873249234458"><ele>39.333333333333336</ele><time>2026-04-05T06:56:04Z</time></trkpt><trkpt lat="39.848502009159525" lon="18.388664194848392"><ele>44.66666666666667</ele><time>2026-04-05T06:56:05Z</time></trkpt><trkpt lat="39.848323690220084" lon="18.38859082457432"><ele>50.0</ele><time>2026-04-05T06:56:06Z</time></trkpt><trkpt lat="39.84815717864433" lon="18.388519916732992"><ele>50.0</ele><time>2026-04-05T06:56:07Z</time></trkpt><trkpt lat="39.847999887114234" lon="18.38846166983119"><ele>50.0</ele><time>2026-04-05T06:56:08Z</time></trkpt><trkpt lat="39.847829006910544" lon="18.38841834548085"><ele>50.0</ele><time>2026-04-05T06:56:09Z</time></trkpt><trkpt lat="39.847654452545505" lon="18.388395217511796"><ele>49.0</ele><time>2026-04-05T06:56:10Z</time></trkpt><trkpt lat="39.84745929316402" lon="18.3883952055518"><ele>48.0</ele><time>2026-04-05T06:56:11Z</time></trkpt><trkpt lat="39.84726308063544" lon="18.388405501818095"><ele>47.0</ele><time>2026-04-05T06:56:12Z</time></trkpt><trkpt lat="39.84707979144912" lon="18.388421004840676"><ele>47.0</ele><time>2026-04-05T06:56:13.001Z</time></trkpt><trkpt lat="39.8469003634014" lon="18.388406826407135"><ele>47.0</ele><time>2026-04-05T06:56:14.001Z</time></trkpt><trkpt lat="39.84673324677771" lon="18.388392601075875"><ele>47.0</ele><time>2026-04-05T06:56:15.001Z</time></trkpt><trkpt lat="39.846576248683434" lon="18.388371553507962"><ele>46.33333333333333</ele><time>2026-04-05T06:56:16.001Z</time></trkpt><trkpt lat="39.84641120697679" lon="18.38833016803378"><ele>45.666666666666664</ele><time>2026-04-05T06:56:17.001Z</time></trkpt><trkpt lat="39.8462525861632" lon="18.388270373054606"><ele>45.0</ele><time>2026-04-05T06:56:18.001Z</time></trkpt><trkpt lat="39.84608755026487" lon="18.38818652503031"><ele>45.666666666666664</ele><time>2026-04-05T06:56:19.001Z</time></trkpt><trkpt lat="39.8459206005461" lon="18.38808103180925"><ele>46.33333333333333</ele><time>2026-04-05T06:56:20.001Z</time></trkpt><trkpt lat="39.84576409065572" lon="18.387955740907127"><ele>47.0</ele><time>2026-04-05T06:56:21.001Z</time></trkpt><trkpt lat="39.84561280821343" lon="18.387817963046057"><ele>47.0</ele><time>2026-04-05T06:56:22.001Z</time></trkpt><trkpt lat="39.84547376841571" lon="18.387662243587013"><ele>47.0</ele><time>2026-04-05T06:56:23.001Z</time></trkpt><trkpt lat="39.8453489514062" lon="18.387493980111124"><ele>47.0</ele><time>2026-04-05T06:56:24.001Z</time></trkpt><trkpt lat="39.84523236200027" lon="18.387315773735384"><ele>49.666666666666664</ele><time>2026-04-05T06:56:25.001Z</time></trkpt><trkpt lat="39.84512944268985" lon="18.38712819561111"><ele>52.33333333333333</ele><time>2026-04-05T06:56:26.001Z</time></trkpt><trkpt lat="39.845041986120705" lon="18.386932655137787"><ele>55.0</ele><time>2026-04-05T06:56:27.001Z</time></trkpt><trkpt lat="39.84497307736733" lon="18.386748818358196"><ele>51.75</ele><time>2026-04-05T06:56:28.001Z</time></trkpt><trkpt lat="39.844919392218586" lon="18.386561612243728"><ele>48.5</ele><time>2026-04-05T06:56:29.001Z</time></trkpt><trkpt lat="39.84483500970791" lon="18.386393777591838"><ele>45.25</ele><time>2026-04-05T06:56:30.001Z</time></trkpt><trkpt lat="39.84479631127934" lon="18.386242594818157"><ele>42.0</ele><time>2026-04-05T06:56:31.001Z</time></trkpt><trkpt lat="39.84475007585682" lon="18.38610623205709"><ele>42.0</ele><time>2026-04-05T06:56:32.001Z</time></trkpt><trkpt lat="39.84468995717993" lon="18.385996269554468"><ele>42.0</ele><time>2026-04-05T06:56:33.001Z</time></trkpt><trkpt lat="39.84462186397328" lon="18.38592191182349"><ele>42.0</ele><time>2026-04-05T06:56:34.001Z</time></trkpt><trkpt lat="39.84453845315845" lon="18.38586670938331"><ele>42.0</ele><time>2026-04-05T06:56:35.001Z</time></trkpt><trkpt lat="39.84444149360161" lon="18.38584004093733"><ele>42.0</ele><time>2026-04-05T06:56:36.001Z</time></trkpt><trkpt lat="39.84433904621106" lon="18.3858333886745"><ele>36.75</ele><time>2026-04-05T06:56:37.001Z</time></trkpt><trkpt lat="39.844231393733246" lon="18.385853233244536"><ele>31.5</ele><time>2026-04-05T06:56:38.001Z</time></trkpt><trkpt lat="39.84411832946059" lon="18.385890511185792"><ele>26.25</ele><time>2026-04-05T06:56:39.001Z</time></trkpt><trkpt lat="39.843996390616674" lon="18.38593489192923"><ele>21.0</ele><time>2026-04-05T06:56:40.001Z</time></trkpt><trkpt lat="39.843870577054936" lon="18.385966658216258"><ele>21.0</ele><time>2026-04-05T06:56:41.001Z</time></trkpt><trkpt lat="39.84373408606937" lon="18.385999775897705"><ele>21.0</ele><time>2026-04-05T06:56:42.001Z</time></trkpt><trkpt lat="39.84360434049245" lon="18.38601916531882"><ele>21.0</ele><time>2026-04-05T06:56:43.001Z</time></trkpt><trkpt lat="39.84346971131374" lon="18.38601296240578"><ele>21.0</ele><time>2026-04-05T06:56:44.001Z</time></trkpt><trkpt lat="39.843325465502446" lon="18.385964806161788"><ele>22.666666666666664</ele><time>2026-04-05T06:56:45.001Z</time></trkpt><trkpt lat="39.843167409675765" lon="18.385916078487874"><ele>24.333333333333332</ele><time>2026-04-05T06:56:46.001Z</time></trkpt><trkpt lat="39.843013244607164" lon="18.385848635811524"><ele>26.0</ele><time>2026-04-05T06:56:47.001Z</time></trkpt><trkpt lat="39.84286346859071" lon="18.385763572259116"><ele>26.0</ele><time>2026-04-05T06:56:48.001Z</time></trkpt><trkpt lat="39.84271617057043" lon="18.385663207068617"><ele>26.0</ele><time>2026-04-05T06:56:49.001Z</time></trkpt><trkpt lat="39.842596805431405" lon="18.385535188706324"><ele>26.0</ele><time>2026-04-05T06:56:50.001Z</time></trkpt><trkpt lat="39.84248168765223" lon="18.385393353855402"><ele>31.0</ele><time>2026-04-05T06:56:51.001Z</time></trkpt><trkpt lat="39.8423873043664" lon="18.385234565207448"><ele>36.0</ele><time>2026-04-05T06:56:52.001Z</time></trkpt><trkpt lat="39.84229267905287" lon="18.385042572183796"><ele>41.0</ele><time>2026-04-05T06:56:53.001Z</time></trkpt><trkpt lat="39.84219875269752" lon="18.384847515462525"><ele>47.5</ele><time>2026-04-05T06:56:54.001Z</time></trkpt><trkpt lat="39.84211422176549" lon="18.38467707783768"><ele>54.0</ele><time>2026-04-05T06:56:55.001Z</time></trkpt><trkpt lat="39.84203087008203" lon="18.384526514654443"><ele>60.5</ele><time>2026-04-05T06:56:56.001Z</time></trkpt><trkpt lat="39.841937032064585" lon="18.384388030689937"><ele>67.0</ele><time>2026-04-05T06:56:57.001Z</time></trkpt><trkpt lat="39.8418294319335" lon="18.384272353908074"><ele>60.0</ele><time>2026-04-05T06:56:58.001Z</time></trkpt><trkpt lat="39.84171288078548" lon="18.3841909179413"><ele>53.0</ele><time>2026-04-05T06:56:59.001Z</time></trkpt><trkpt lat="39.84158230257303" lon="18.384157554682485"><ele>46.0</ele><time>2026-04-05T06:57:00.001Z</time></trkpt><trkpt lat="39.8414454039466" lon="18.384130726964756"><ele>39.0</ele><time>2026-04-05T06:57:01.001Z</time></trkpt><trkpt lat="39.841291968755115" lon="18.384124661002463"><ele>39.0</ele><time>2026-04-05T06:57:02.001Z</time></trkpt><trkpt lat="39.841134530363725" lon="18.38413934179871"><ele>39.0</ele><time>2026-04-05T06:57:03.001Z</time></trkpt><trkpt lat="39.84097405115761" lon="18.38417707832282"><ele>39.0</ele><time>2026-04-05T06:57:04.001Z</time></trkpt><trkpt lat="39.84081233842585" lon="18.384234299319036"><ele>44.33333333333333</ele><time>2026-04-05T06:57:05.001Z</time></trkpt><trkpt lat="39.840647199645566" lon="18.3843062444764"><ele>49.666666666666664</ele><time>2026-04-05T06:57:06.001Z</time></trkpt><trkpt lat="39.84047967919836" lon="18.384382313110947"><ele>55.0</ele><time>2026-04-05T06:57:07.001Z</time></trkpt><trkpt lat="39.84031811044456" lon="18.384450231963758"><ele>55.0</ele><time>2026-04-05T06:57:08.001Z</time></trkpt><trkpt lat="39.840165548741446" lon="18.38450729156431"><ele>55.0</ele><time>2026-04-05T06:57:09.001Z</time></trkpt><trkpt lat="39.84002050204839" lon="18.384543771487703"><ele>55.0</ele><time>2026-04-05T06:57:10.001Z</time></trkpt><trkpt lat="39.839864567036244" lon="18.384546278238886"><ele>61.666666666666664</ele><time>2026-04-05T06:57:11.001Z</time></trkpt><trkpt lat="39.83971281641377" lon="18.384525375036194"><ele>68.33333333333333</ele><time>2026-04-05T06:57:12.001Z</time></trkpt><trkpt lat="39.83956511721054" lon="18.384480955801138"><ele>75.0</ele><time>2026-04-05T06:57:13.001Z</time></trkpt><trkpt lat="39.839416265018315" lon="18.384405007792573"><ele>72.66666666666667</ele><time>2026-04-05T06:57:14.001Z</time></trkpt><trkpt lat="39.83926962667135" lon="18.38431492533183"><ele>70.33333333333334</ele><time>2026-04-05T06:57:15.001Z</time></trkpt><trkpt lat="39.83912321124305" lon="18.3842144099376"><ele>68.0</ele><time>2026-04-05T06:57:16.001Z</time></trkpt><trkpt lat="39.83897696291424" lon="18.384155913018002"><ele>68.0</ele><time>2026-04-05T06:57:17.001Z</time></trkpt><trkpt lat="39.83882426475665" lon="18.384101209513215"><ele>68.0</ele><time>2026-04-05T06:57:18.001Z</time></trkpt><trkpt lat="39.838665883576304" lon="18.384063951551457"><ele>68.0</ele><time>2026-04-05T06:57:19.001Z</time></trkpt><trkpt lat="39.83846732446486" lon="18.384118626747956"><ele>68.0</ele><time>2026-04-05T06:57:20.001Z</time></trkpt><trkpt lat="39.83828355937776" lon="18.384143020685435"><ele>68.0</ele><time>2026-04-05T06:57:21.001Z</time></trkpt><trkpt lat="39.83810900627451" lon="18.38416304701127"><ele>68.0</ele><time>2026-04-05T06:57:22.001Z</time></trkpt><trkpt lat="39.83794702431138" lon="18.384185022828916"><ele>68.0</ele><time>2026-04-05T06:57:23.001Z</time></trkpt><trkpt lat="39.83779196403645" lon="18.384195387493595"><ele>68.0</ele><time>2026-04-05T06:57:24.001Z</time></trkpt><trkpt lat="39.837638389989465" lon="18.384206438900847"><ele>68.0</ele><time>2026-04-05T06:57:25.001Z</time></trkpt><trkpt lat="39.83749846834512" lon="18.38421279029052"><ele>68.0</ele><time>2026-04-05T06:57:26.001Z</time></trkpt><trkpt lat="39.837366287981936" lon="18.384225086429918"><ele>69.75</ele><time>2026-04-05T06:57:27.001Z</time></trkpt><trkpt lat="39.83725239753271" lon="18.384214502077842"><ele>71.5</ele><time>2026-04-05T06:57:28.001Z</time></trkpt><trkpt lat="39.83713044433295" lon="18.384221818666248"><ele>73.25</ele><time>2026-04-05T06:57:29.001Z</time></trkpt><trkpt lat="39.83699269754892" lon="18.384230077648358"><ele>75.0</ele><time>2026-04-05T06:57:30.001Z</time></trkpt><trkpt lat="39.83684733948893" lon="18.384253169947282"><ele>76.0</ele><time>2026-04-05T06:57:31.001Z</time></trkpt><trkpt lat="39.836689673106555" lon="18.384231686827764"><ele>77.0</ele><time>2026-04-05T06:57:32.001Z</time></trkpt><trkpt lat="39.83653334125906" lon="18.384240731933186"><ele>78.0</ele><time>2026-04-05T06:57:33.001Z</time></trkpt><trkpt lat="39.8363721069314" lon="18.384238493005228"><ele>78.0</ele><time>2026-04-05T06:57:34.001Z</time></trkpt><trkpt lat="39.836207685023496" lon="18.384223502809377"><ele>78.0</ele><time>2026-04-05T06:57:35.001Z</time></trkpt><trkpt lat="39.83604023701296" lon="18.384198998842127"><ele>78.0</ele><time>2026-04-05T06:57:36.001Z</time></trkpt><trkpt lat="39.83586176646356" lon="18.38418400713721"><ele>79.0</ele><time>2026-04-05T06:57:37.001Z</time></trkpt><trkpt lat="39.835668679484904" lon="18.384190712225596"><ele>80.0</ele><time>2026-04-05T06:57:38.001Z</time></trkpt><trkpt lat="39.83547999626352" lon="18.38421652922548"><ele>81.0</ele><time>2026-04-05T06:57:39.002Z</time></trkpt><trkpt lat="39.8352835221868" lon="18.38424264052946"><ele>83.0</ele><time>2026-04-05T06:57:40.002Z</time></trkpt><trkpt lat="39.835084773137595" lon="18.384275572392106"><ele>85.0</ele><time>2026-04-05T06:57:41.002Z</time></trkpt><trkpt lat="39.83489005553321" lon="18.384309669841844"><ele>87.0</ele><time>2026-04-05T06:57:42.002Z</time></trkpt><trkpt lat="39.83469535850027" lon="18.384342569387154"><ele>87.0</ele><time>2026-04-05T06:57:43.002Z</time></trkpt><trkpt lat="39.834499001379164" lon="18.384366567992256"><ele>87.0</ele><time>2026-04-05T06:57:44.002Z</time></trkpt><trkpt lat="39.8342948630001" lon="18.384384018862935"><ele>87.0</ele><time>2026-04-05T06:57:45.002Z</time></trkpt><trkpt lat="39.83408969400007" lon="18.38439930184779"><ele>89.0</ele><time>2026-04-05T06:57:46.002Z</time></trkpt><trkpt lat="39.83387831161234" lon="18.384417416171466"><ele>91.0</ele><time>2026-04-05T06:57:47.002Z</time></trkpt><trkpt lat="39.83366109436317" lon="18.384431533211547"><ele>93.0</ele><time>2026-04-05T06:57:48.002Z</time></trkpt><trkpt lat="39.83344558952908" lon="18.384444632286478"><ele>93.33333333333333</ele><time>2026-04-05T06:57:49.002Z</time></trkpt><trkpt lat="39.83322854510211" lon="18.38445535007764"><ele>93.66666666666666</ele><time>2026-04-05T06:57:50.002Z</time></trkpt><trkpt lat="39.83301383208735" lon="18.384461742122618"><ele>94.0</ele><time>2026-04-05T06:57:51.002Z</time></trkpt><trkpt lat="39.83279963237426" lon="18.384477525966943"><ele>95.66666666666666</ele><time>2026-04-05T06:57:52.002Z</time></trkpt><trkpt lat="39.83258555197996" lon="18.384492486807837"><ele>97.33333333333333</ele><time>2026-04-05T06:57:53.002Z</time></trkpt><trkpt lat="39.83237052945425" lon="18.384509257685174"><ele>99.0</ele><time>2026-04-05T06:57:54.002Z</time></trkpt><trkpt lat="39.83216201468064" lon="18.384523612629163"><ele>99.0</ele><time>2026-04-05T06:57:55.002Z</time></trkpt><trkpt lat="39.831956662361634" lon="18.384534452335828"><ele>99.0</ele><time>2026-04-05T06:57:56Z</time></trkpt><trkpt lat="39.83175065004956" lon="18.384552252391263"><ele>99.0</ele><time>2026-04-05T06:57:57Z</time></trkpt><trkpt lat="39.83154714374063" lon="18.384583152492226"><ele>100.33333333333334</ele><time>2026-04-05T06:57:58Z</time></trkpt><trkpt lat="39.83134933510328" lon="18.38461654369645"><ele>101.66666666666667</ele><time>2026-04-05T06:57:59Z</time></trkpt><trkpt lat="39.83114472902198" lon="18.384659683883296"><ele>103.0</ele><time>2026-04-05T06:58:00Z</time></trkpt><trkpt lat="39.83094632911859" lon="18.384723582557157"><ele>98.33333333333334</ele><time>2026-04-05T06:58:01Z</time></trkpt><trkpt lat="39.83074512083636" lon="18.384811877247248"><ele>93.66666666666667</ele><time>2026-04-05T06:58:02Z</time></trkpt><trkpt lat="39.83054402724333" lon="18.3849300471245"><ele>89.0</ele><time>2026-04-05T06:58:03Z</time></trkpt><trkpt lat="39.830339259044166" lon="18.38506359246009"><ele>93.66666666666667</ele><time>2026-04-05T06:58:04Z</time></trkpt><trkpt lat="39.830140823688915" lon="18.385193994754875"><ele>98.33333333333334</ele><time>2026-04-05T06:58:05Z</time></trkpt><trkpt lat="39.8299401937771" lon="18.385315575794845"><ele>103.0</ele><time>2026-04-05T06:58:06Z</time></trkpt><trkpt lat="39.82973625704187" lon="18.38543409715514"><ele>97.33333333333334</ele><time>2026-04-05T06:58:07Z</time></trkpt><trkpt lat="39.829532477703346" lon="18.385552519269748"><ele>91.66666666666667</ele><time>2026-04-05T06:58:08Z</time></trkpt><trkpt lat="39.82932826540688" lon="18.385678982938277"><ele>86.0</ele><time>2026-04-05T06:58:09Z</time></trkpt><trkpt lat="39.82912043254714" lon="18.385809584678302"><ele>86.0</ele><time>2026-04-05T06:58:10Z</time></trkpt><trkpt lat="39.828908388980985" lon="18.385942678280863"><ele>86.0</ele><time>2026-04-05T06:58:11Z</time></trkpt><trkpt lat="39.82868571547521" lon="18.386077839765722"><ele>80.5</ele><time>2026-04-05T06:58:12Z</time></trkpt><trkpt lat="39.82846366292779" lon="18.386220118301512"><ele>75.0</ele><time>2026-04-05T06:58:13Z</time></trkpt><trkpt lat="39.8282347883842" lon="18.38635476347092"><ele>75.0</ele><time>2026-04-05T06:58:14Z</time></trkpt><trkpt lat="39.827998557742646" lon="18.386492797205822"><ele>75.0</ele><time>2026-04-05T06:58:15Z</time></trkpt><trkpt lat="39.827760812623396" lon="18.38664435248275"><ele>86.5</ele><time>2026-04-05T06:58:16Z</time></trkpt><trkpt lat="39.82752119660528" lon="18.386789131395226"><ele>98.0</ele><time>2026-04-05T06:58:17Z</time></trkpt><trkpt lat="39.82727945327867" lon="18.38694012589262"><ele>98.0</ele><time>2026-04-05T06:58:18Z</time></trkpt><trkpt lat="39.827035394668" lon="18.38709097165043"><ele>98.0</ele><time>2026-04-05T06:58:19Z</time></trkpt><trkpt lat="39.826790483225025" lon="18.38724209576732"><ele>88.5</ele><time>2026-04-05T06:58:20Z</time></trkpt><trkpt lat="39.826537672758775" lon="18.387396270208672"><ele>79.0</ele><time>2026-04-05T06:58:21Z</time></trkpt><trkpt lat="39.82628355532388" lon="18.387546442037223"><ele>79.0</ele><time>2026-04-05T06:58:22Z</time></trkpt><trkpt lat="39.826048600910106" lon="18.387682509653832"><ele>79.0</ele><time>2026-04-05T06:58:23Z</time></trkpt><trkpt lat="39.82582370618581" lon="18.38781232775158"><ele>77.33333333333333</ele><time>2026-04-05T06:58:24Z</time></trkpt><trkpt lat="39.82561486396995" lon="18.387938733706825"><ele>75.66666666666667</ele><time>2026-04-05T06:58:25Z</time></trkpt><trkpt lat="39.82541553148063" lon="18.388055160273453"><ele>74.0</ele><time>2026-04-05T06:58:26Z</time></trkpt><trkpt lat="39.825225362836726" lon="18.388169356884966"><ele>81.0</ele><time>2026-04-05T06:58:27Z</time></trkpt><trkpt lat="39.82504467918712" lon="18.388278236304576"><ele>88.0</ele><time>2026-04-05T06:58:28Z</time></trkpt><trkpt lat="39.82487341815438" lon="18.388371300997395"><ele>95.0</ele><time>2026-04-05T06:58:29Z</time></trkpt><trkpt lat="39.8246855697036" lon="18.388457816113423"><ele>95.0</ele><time>2026-04-05T06:58:30Z</time></trkpt><trkpt lat="39.824490576825845" lon="18.388532838243187"><ele>95.0</ele><time>2026-04-05T06:58:31Z</time></trkpt><trkpt lat="39.824283032807486" lon="18.388595354960216"><ele>95.0</ele><time>2026-04-05T06:58:32Z</time></trkpt><trkpt lat="39.82407027396008" lon="18.38864663114515"><ele>98.0</ele><time>2026-04-05T06:58:33Z</time></trkpt><trkpt lat="39.82384833646098" lon="18.388692387931624"><ele>101.0</ele><time>2026-04-05T06:58:34Z</time></trkpt><trkpt lat="39.82361962069166" lon="18.3887307870361"><ele>102.0</ele><time>2026-04-05T06:58:35Z</time></trkpt><trkpt lat="39.82339018061037" lon="18.388768374563174"><ele>103.0</ele><time>2026-04-05T06:58:36Z</time></trkpt><trkpt lat="39.82316071318781" lon="18.388805202469943"><ele>103.0</ele><time>2026-04-05T06:58:37Z</time></trkpt><trkpt lat="39.82293002209437" lon="18.388839162095323"><ele>103.0</ele><time>2026-04-05T06:58:38Z</time></trkpt><trkpt lat="39.82270370923947" lon="18.388874225338707"><ele>96.0</ele><time>2026-04-05T06:58:39.001Z</time></trkpt><trkpt lat="39.822478173885386" lon="18.388910718751514"><ele>89.0</ele><time>2026-04-05T06:58:40.001Z</time></trkpt><trkpt lat="39.82225563370661" lon="18.388943874255794"><ele>89.0</ele><time>2026-04-05T06:58:41.001Z</time></trkpt><trkpt lat="39.822030319427896" lon="18.38897308448828"><ele>89.0</ele><time>2026-04-05T06:58:42.001Z</time></trkpt><trkpt lat="39.82180187616785" lon="18.38900410713693"><ele>92.0</ele><time>2026-04-05T06:58:43.001Z</time></trkpt><trkpt lat="39.82157212237503" lon="18.389041936651974"><ele>95.0</ele><time>2026-04-05T06:58:44.001Z</time></trkpt><trkpt lat="39.821340060483195" lon="18.389069776165925"><ele>95.0</ele><time>2026-04-05T06:58:45.001Z</time></trkpt><trkpt lat="39.82109831211129" lon="18.389102558026696"><ele>95.0</ele><time>2026-04-05T06:58:46.001Z</time></trkpt><trkpt lat="39.82085183903456" lon="18.389120673404758"><ele>97.66666666666667</ele><time>2026-04-05T06:58:47.001Z</time></trkpt><trkpt lat="39.820636067028005" lon="18.38912781263147"><ele>100.33333333333334</ele><time>2026-04-05T06:58:48.001Z</time></trkpt><trkpt lat="39.82041160908878" lon="18.389133005239906"><ele>103.0</ele><time>2026-04-05T06:58:49.001Z</time></trkpt><trkpt lat="39.82018812456267" lon="18.389133120079524"><ele>103.66666666666667</ele><time>2026-04-05T06:58:50.001Z</time></trkpt><trkpt lat="39.819972874681305" lon="18.38912956950563"><ele>104.33333333333334</ele><time>2026-04-05T06:58:51.001Z</time></trkpt><trkpt lat="39.81977325653242" lon="18.389120066218464"><ele>105.0</ele><time>2026-04-05T06:58:52.001Z</time></trkpt><trkpt lat="39.81960269088114" lon="18.38911565385674"><ele>105.0</ele><time>2026-04-05T06:58:53.001Z</time></trkpt><trkpt lat="39.81943419025349" lon="18.389105395705673"><ele>105.0</ele><time>2026-04-05T06:58:54.001Z</time></trkpt><trkpt lat="39.81926425614984" lon="18.389055361349925"><ele>105.0</ele><time>2026-04-05T06:58:55.001Z</time></trkpt><trkpt lat="39.81909584216675" lon="18.388973207402433"><ele>105.0</ele><time>2026-04-05T06:58:56.001Z</time></trkpt><trkpt lat="39.81893299163414" lon="18.388863451624736"><ele>105.0</ele><time>2026-04-05T06:58:57.001Z</time></trkpt><trkpt lat="39.81877354447035" lon="18.38873277519521"><ele>105.0</ele><time>2026-04-05T06:58:58.001Z</time></trkpt><trkpt lat="39.81863110182636" lon="18.38858626579522"><ele>105.66666666666666</ele><time>2026-04-05T06:58:59.001Z</time></trkpt><trkpt lat="39.81849364827736" lon="18.388413236392537"><ele>106.33333333333333</ele><time>2026-04-05T06:59:00.001Z</time></trkpt><trkpt lat="39.818368726734924" lon="18.388211354929535"><ele>107.0</ele><time>2026-04-05T06:59:01.001Z</time></trkpt><trkpt lat="39.818239547440015" lon="18.387994326606805"><ele>111.66666666666666</ele><time>2026-04-05T06:59:02.001Z</time></trkpt><trkpt lat="39.81809722392069" lon="18.387772330572833"><ele>116.33333333333334</ele><time>2026-04-05T06:59:03.001Z</time></trkpt><trkpt lat="39.81795249177361" lon="18.38754764633167"><ele>121.0</ele><time>2026-04-05T06:59:04.001Z</time></trkpt><trkpt lat="39.81780800632378" lon="18.387318735193084"><ele>121.0</ele><time>2026-04-05T06:59:05.001Z</time></trkpt><trkpt lat="39.817663561717346" lon="18.38709541810106"><ele>121.0</ele><time>2026-04-05T06:59:06.001Z</time></trkpt><trkpt lat="39.81752001741341" lon="18.386884181456733"><ele>121.0</ele><time>2026-04-05T06:59:07.001Z</time></trkpt><trkpt lat="39.81737991700067" lon="18.386672526122783"><ele>121.0</ele><time>2026-04-05T06:59:08.001Z</time></trkpt><trkpt lat="39.81724076530887" lon="18.38645940167488"><ele>121.0</ele><time>2026-04-05T06:59:09.001Z</time></trkpt><trkpt lat="39.817100331246415" lon="18.386244163189268"><ele>121.0</ele><time>2026-04-05T06:59:10.001Z</time></trkpt><trkpt lat="39.81695772480496" lon="18.386025528837486"><ele>120.66666666666667</ele><time>2026-04-05T06:59:11.001Z</time></trkpt><trkpt lat="39.81681424237031" lon="18.385805438811467"><ele>120.33333333333334</ele><time>2026-04-05T06:59:12.001Z</time></trkpt><trkpt lat="39.81667881821934" lon="18.385584321322483"><ele>120.0</ele><time>2026-04-05T06:59:13.001Z</time></trkpt><trkpt lat="39.816534988546486" lon="18.38537344713754"><ele>121.66666666666666</ele><time>2026-04-05T06:59:14.001Z</time></trkpt><trkpt lat="39.81639319248799" lon="18.38516178028305"><ele>123.33333333333333</ele><time>2026-04-05T06:59:15.001Z</time></trkpt><trkpt lat="39.81623995771233" lon="18.38495820296002"><ele>125.0</ele><time>2026-04-05T06:59:16.001Z</time></trkpt><trkpt lat="39.81607910109937" lon="18.384755467504387"><ele>125.0</ele><time>2026-04-05T06:59:17.001Z</time></trkpt><trkpt lat="39.81590477212167" lon="18.384565884589197"><ele>125.0</ele><time>2026-04-05T06:59:18.001Z</time></trkpt><trkpt lat="39.815724516209485" lon="18.38438550079727"><ele>125.0</ele><time>2026-04-05T06:59:19.001Z</time></trkpt><trkpt lat="39.8155328510942" lon="18.384216049406326"><ele>125.0</ele><time>2026-04-05T06:59:20.001Z</time></trkpt><trkpt lat="39.8153317665617" lon="18.384046136443484"><ele>124.0</ele><time>2026-04-05T06:59:21.001Z</time></trkpt><trkpt lat="39.81512767559454" lon="18.38387888318616"><ele>123.0</ele><time>2026-04-05T06:59:22.001Z</time></trkpt><trkpt lat="39.814927168621" lon="18.383714059597267"><ele>123.0</ele><time>2026-04-05T06:59:23.001Z</time></trkpt><trkpt lat="39.8147248425339" lon="18.38355856234179"><ele>123.0</ele><time>2026-04-05T06:59:24.001Z</time></trkpt><trkpt lat="39.81452716513857" lon="18.38340194444445"><ele>123.0</ele><time>2026-04-05T06:59:25.001Z</time></trkpt><trkpt lat="39.8143274677458" lon="18.383243987460464"><ele>123.0</ele><time>2026-04-05T06:59:26.001Z</time></trkpt><trkpt lat="39.81411860389095" lon="18.383090978402596"><ele>121.5</ele><time>2026-04-05T06:59:27.001Z</time></trkpt><trkpt lat="39.81390726461167" lon="18.382953224402446"><ele>120.0</ele><time>2026-04-05T06:59:28.001Z</time></trkpt><trkpt lat="39.81369015318267" lon="18.382821985641996"><ele>118.0</ele><time>2026-04-05T06:59:29.001Z</time></trkpt><trkpt lat="39.813471876982" lon="18.382695352790876"><ele>116.0</ele><time>2026-04-05T06:59:30.001Z</time></trkpt><trkpt lat="39.81325648114054" lon="18.382565332983415"><ele>116.0</ele><time>2026-04-05T06:59:31.001Z</time></trkpt><trkpt lat="39.81304106412112" lon="18.38243301360634"><ele>116.0</ele><time>2026-04-05T06:59:32.001Z</time></trkpt><trkpt lat="39.81282684450057" lon="18.38230440177179"><ele>120.0</ele><time>2026-04-05T06:59:33.001Z</time></trkpt><trkpt lat="39.812615447713604" lon="18.38217680970598"><ele>124.0</ele><time>2026-04-05T06:59:34.001Z</time></trkpt><trkpt lat="39.81241220193179" lon="18.38204300762008"><ele>124.0</ele><time>2026-04-05T06:59:35.001Z</time></trkpt><trkpt lat="39.81220600611759" lon="18.38191848122845"><ele>124.0</ele><time>2026-04-05T06:59:36.001Z</time></trkpt><trkpt lat="39.81200339394142" lon="18.38180025716682"><ele>124.0</ele><time>2026-04-05T06:59:37.001Z</time></trkpt><trkpt lat="39.81180676981799" lon="18.381660043508916"><ele>124.66666666666667</ele><time>2026-04-05T06:59:38.001Z</time></trkpt><trkpt lat="39.81161885757977" lon="18.381543339807024"><ele>125.33333333333334</ele><time>2026-04-05T06:59:39.001Z</time></trkpt><trkpt lat="39.81142134672961" lon="18.381428868070596"><ele>126.0</ele><time>2026-04-05T06:59:40.001Z</time></trkpt><trkpt lat="39.81122643429074" lon="18.38128279177121"><ele>126.0</ele><time>2026-04-05T06:59:41.001Z</time></trkpt><trkpt lat="39.81103252364959" lon="18.38112250149513"><ele>126.0</ele><time>2026-04-05T06:59:42.001Z</time></trkpt><trkpt lat="39.81083879976312" lon="18.38095979825788"><ele>125.66666666666666</ele><time>2026-04-05T06:59:43.001Z</time></trkpt><trkpt lat="39.81065569942245" lon="18.380791155557258"><ele>125.33333333333333</ele><time>2026-04-05T06:59:44.001Z</time></trkpt><trkpt lat="39.81048139767127" lon="18.38064225717584"><ele>125.0</ele><time>2026-04-05T06:59:45.001Z</time></trkpt><trkpt lat="39.810317794773866" lon="18.38050126985623"><ele>125.0</ele><time>2026-04-05T06:59:46.001Z</time></trkpt><trkpt lat="39.81015934345953" lon="18.380364722009162"><ele>125.0</ele><time>2026-04-05T06:59:47.001Z</time></trkpt><trkpt lat="39.810006613042646" lon="18.380233811879275"><ele>125.0</ele><time>2026-04-05T06:59:48.001Z</time></trkpt><trkpt lat="39.80985393594498" lon="18.380102782573033"><ele>124.0</ele><time>2026-04-05T06:59:49.001Z</time></trkpt><trkpt lat="39.809713168353404" lon="18.379977033638184"><ele>123.0</ele><time>2026-04-05T06:59:50.001Z</time></trkpt><trkpt lat="39.809582813493336" lon="18.37985642647765"><ele>122.0</ele><time>2026-04-05T06:59:51.001Z</time></trkpt><trkpt lat="39.80947385468607" lon="18.37972782904245"><ele>122.33333333333333</ele><time>2026-04-05T06:59:52.001Z</time></trkpt><trkpt lat="39.80937968385681" lon="18.37957715530229"><ele>122.66666666666666</ele><time>2026-04-05T06:59:53.001Z</time></trkpt><trkpt lat="39.80928840230335" lon="18.3794040124758"><ele>123.0</ele><time>2026-04-05T06:59:54.001Z</time></trkpt><trkpt lat="39.80923216276921" lon="18.37921514493134"><ele>120.0</ele><time>2026-04-05T06:59:55.001Z</time></trkpt><trkpt lat="39.80920916193259" lon="18.37902391725612"><ele>117.0</ele><time>2026-04-05T06:59:56.001Z</time></trkpt><trkpt lat="39.809197532834176" lon="18.378796424025612"><ele>114.0</ele><time>2026-04-05T06:59:57.001Z</time></trkpt><trkpt lat="39.80919169508447" lon="18.378556497527075"><ele>114.0</ele><time>2026-04-05T06:59:58.001Z</time></trkpt><trkpt lat="39.80918635004803" lon="18.378314342305956"><ele>114.0</ele><time>2026-04-05T06:59:59.001Z</time></trkpt><trkpt lat="39.80917536417452" lon="18.37809873848912"><ele>114.0</ele><time>2026-04-05T07:00:00.001Z</time></trkpt><trkpt lat="39.80914272963496" lon="18.37789602330777"><ele>115.0</ele><time>2026-04-05T07:00:01.001Z</time></trkpt><trkpt lat="39.809078271267595" lon="18.37770777439938"><ele>116.0</ele><time>2026-04-05T07:00:02Z</time></trkpt><trkpt lat="39.8089693794305" lon="18.37754840453128"><ele>117.0</ele><time>2026-04-05T07:00:03Z</time></trkpt><trkpt lat="39.80886120159382" lon="18.377397886297384"><ele>117.0</ele><time>2026-04-05T07:00:04Z</time></trkpt><trkpt lat="39.80873498366368" lon="18.377262418923635"><ele>117.0</ele><time>2026-04-05T07:00:05Z</time></trkpt><trkpt lat="39.808585343087145" lon="18.377134144207332"><ele>117.0</ele><time>2026-04-05T07:00:06Z</time></trkpt><trkpt lat="39.8084214897833" lon="18.377008378149647"><ele>117.33333333333334</ele><time>2026-04-05T07:00:07Z</time></trkpt><trkpt lat="39.80824735613219" lon="18.376875708443148"><ele>117.66666666666667</ele><time>2026-04-05T07:00:08Z</time></trkpt><trkpt lat="39.80808632238058" lon="18.37672715764989"><ele>118.0</ele><time>2026-04-05T07:00:09Z</time></trkpt><trkpt lat="39.80790853125594" lon="18.376617788559567"><ele>118.0</ele><time>2026-04-05T07:00:10Z</time></trkpt><trkpt lat="39.8077397619062" lon="18.376501270910218"><ele>118.0</ele><time>2026-04-05T07:00:11Z</time></trkpt><trkpt lat="39.80755145311094" lon="18.37637463262281"><ele>118.0</ele><time>2026-04-05T07:00:12Z</time></trkpt><trkpt lat="39.80734428458502" lon="18.37627047080769"><ele>118.5</ele><time>2026-04-05T07:00:13Z</time></trkpt><trkpt lat="39.807120353456625" lon="18.37619141283513"><ele>119.0</ele><time>2026-04-05T07:00:14Z</time></trkpt><trkpt lat="39.80690682604563" lon="18.37609603477908"><ele>116.66666666666666</ele><time>2026-04-05T07:00:15Z</time></trkpt><trkpt lat="39.8067141066897" lon="18.37599797828668"><ele>114.33333333333334</ele><time>2026-04-05T07:00:16Z</time></trkpt><trkpt lat="39.80652522998133" lon="18.375895271901264"><ele>112.0</ele><time>2026-04-05T07:00:17Z</time></trkpt><trkpt lat="39.80633423126879" lon="18.375822818190336"><ele>112.0</ele><time>2026-04-05T07:00:18Z</time></trkpt><trkpt lat="39.8061506629987" lon="18.375733071277537"><ele>112.0</ele><time>2026-04-05T07:00:19Z</time></trkpt><trkpt lat="39.80597139869206" lon="18.375639739911886"><ele>112.0</ele><time>2026-04-05T07:00:20Z</time></trkpt><trkpt lat="39.80579164198838" lon="18.375544092270555"><ele>113.0</ele><time>2026-04-05T07:00:21Z</time></trkpt><trkpt lat="39.80560584418808" lon="18.375461584994117"><ele>114.0</ele><time>2026-04-05T07:00:22Z</time></trkpt><trkpt lat="39.80543295065937" lon="18.375373487181218"><ele>115.0</ele><time>2026-04-05T07:00:23Z</time></trkpt><trkpt lat="39.80527335658913" lon="18.375273332971336"><ele>114.0</ele><time>2026-04-05T07:00:24Z</time></trkpt><trkpt lat="39.80512600136019" lon="18.375200156395383"><ele>113.0</ele><time>2026-04-05T07:00:25Z</time></trkpt><trkpt lat="39.80497478376904" lon="18.375130425945947"><ele>112.0</ele><time>2026-04-05T07:00:26Z</time></trkpt><trkpt lat="39.8048119027565" lon="18.37509321443227"><ele>112.0</ele><time>2026-04-05T07:00:27Z</time></trkpt><trkpt lat="39.80464403968393" lon="18.375050301339108"><ele>112.0</ele><time>2026-04-05T07:00:28Z</time></trkpt><trkpt lat="39.804469138752495" lon="18.375030017513954"><ele>112.0</ele><time>2026-04-05T07:00:29Z</time></trkpt><trkpt lat="39.80427709892296" lon="18.375045509644007"><ele>112.33333333333334</ele><time>2026-04-05T07:00:30Z</time></trkpt><trkpt lat="39.80408434998887" lon="18.375087742930365"><ele>112.66666666666666</ele><time>2026-04-05T07:00:31Z</time></trkpt><trkpt lat="39.803885918936615" lon="18.37515588264487"><ele>113.0</ele><time>2026-04-05T07:00:32Z</time></trkpt><trkpt lat="39.803680350477734" lon="18.375242960773253"><ele>113.33333333333333</ele><time>2026-04-05T07:00:33Z</time></trkpt><trkpt lat="39.80348210785016" lon="18.375332205808665"><ele>113.66666666666666</ele><time>2026-04-05T07:00:34Z</time></trkpt><trkpt lat="39.80328558411156" lon="18.37540784457487"><ele>114.0</ele><time>2026-04-05T07:00:35Z</time></trkpt><trkpt lat="39.80310500518729" lon="18.375477133517176"><ele>105.66666666666667</ele><time>2026-04-05T07:00:36Z</time></trkpt><trkpt lat="39.80293855267167" lon="18.37553892908477"><ele>97.33333333333334</ele><time>2026-04-05T07:00:37Z</time></trkpt><trkpt lat="39.80277346409683" lon="18.375582454989857"><ele>89.0</ele><time>2026-04-05T07:00:38Z</time></trkpt><trkpt lat="39.80261410918914" lon="18.37561027736312"><ele>89.0</ele><time>2026-04-05T07:00:39Z</time></trkpt><trkpt lat="39.80245222313537" lon="18.37561337283962"><ele>89.0</ele><time>2026-04-05T07:00:40Z</time></trkpt><trkpt lat="39.802284976075896" lon="18.375570708425936"><ele>89.0</ele><time>2026-04-05T07:00:41Z</time></trkpt><trkpt lat="39.802109505059605" lon="18.375496377427396"><ele>89.66666666666667</ele><time>2026-04-05T07:00:42Z</time></trkpt><trkpt lat="39.80195307463655" lon="18.375394393379306"><ele>90.33333333333333</ele><time>2026-04-05T07:00:43Z</time></trkpt><trkpt lat="39.801796611132175" lon="18.375267315744516"><ele>91.0</ele><time>2026-04-05T07:00:44Z</time></trkpt><trkpt lat="39.801627304802444" lon="18.375117723163452"><ele>91.0</ele><time>2026-04-05T07:00:45Z</time></trkpt><trkpt lat="39.801452345580365" lon="18.37496399896861"><ele>91.0</ele><time>2026-04-05T07:00:46Z</time></trkpt><trkpt lat="39.801274676151" lon="18.37480770583052"><ele>91.0</ele><time>2026-04-05T07:00:47Z</time></trkpt><trkpt lat="39.80109405966427" lon="18.374648019527385"><ele>87.5</ele><time>2026-04-05T07:00:48Z</time></trkpt><trkpt lat="39.80090850413364" lon="18.374483966550265"><ele>84.0</ele><time>2026-04-05T07:00:49Z</time></trkpt><trkpt lat="39.80072030316657" lon="18.37431757468596"><ele>84.0</ele><time>2026-04-05T07:00:50Z</time></trkpt><trkpt lat="39.800530744335276" lon="18.374149982287026"><ele>84.0</ele><time>2026-04-05T07:00:51.001Z</time></trkpt><trkpt lat="39.800339279612444" lon="18.373980268544535"><ele>80.5</ele><time>2026-04-05T07:00:52.001Z</time></trkpt><trkpt lat="39.80015008130565" lon="18.373812517977466"><ele>77.0</ele><time>2026-04-05T07:00:53.001Z</time></trkpt><trkpt lat="39.79996222429639" lon="18.3736439444883"><ele>77.0</ele><time>2026-04-05T07:00:54.001Z</time></trkpt><trkpt lat="39.79978855777492" lon="18.37348077457171"><ele>77.0</ele><time>2026-04-05T07:00:55.001Z</time></trkpt><trkpt lat="39.799624688570425" lon="18.37331268174847"><ele>77.0</ele><time>2026-04-05T07:00:56.001Z</time></trkpt><trkpt lat="39.799462643914396" lon="18.37313268776831"><ele>74.5</ele><time>2026-04-05T07:00:57.001Z</time></trkpt><trkpt lat="39.799297527727944" lon="18.372936439601105"><ele>72.0</ele><time>2026-04-05T07:00:58.001Z</time></trkpt><trkpt lat="39.79913289552904" lon="18.372724671196547"><ele>72.0</ele><time>2026-04-05T07:00:59.001Z</time></trkpt><trkpt lat="39.79896764973796" lon="18.37250369197035"><ele>72.0</ele><time>2026-04-05T07:01:00.001Z</time></trkpt><trkpt lat="39.79879947415834" lon="18.372280491695964"><ele>75.5</ele><time>2026-04-05T07:01:01.001Z</time></trkpt><trkpt lat="39.79863137333514" lon="18.372057390790506"><ele>79.0</ele><time>2026-04-05T07:01:02.001Z</time></trkpt><trkpt lat="39.79846136296105" lon="18.371832508281674"><ele>70.0</ele><time>2026-04-05T07:01:03.001Z</time></trkpt><trkpt lat="39.79829584407006" lon="18.371613215893344"><ele>61.0</ele><time>2026-04-05T07:01:04.001Z</time></trkpt><trkpt lat="39.79813845748133" lon="18.371402207474645"><ele>63.33333333333333</ele><time>2026-04-05T07:01:05.001Z</time></trkpt><trkpt lat="39.79799118658951" lon="18.371206006831414"><ele>65.66666666666667</ele><time>2026-04-05T07:01:06.001Z</time></trkpt><trkpt lat="39.79786020293399" lon="18.371014359116423"><ele>68.0</ele><time>2026-04-05T07:01:07.001Z</time></trkpt><trkpt lat="39.797767715259326" lon="18.370847947573385"><ele>68.0</ele><time>2026-04-05T07:01:08.001Z</time></trkpt><trkpt lat="39.79769208497291" lon="18.370677076003876"><ele>68.0</ele><time>2026-04-05T07:01:09.001Z</time></trkpt><trkpt lat="39.79763747280819" lon="18.37048700152575"><ele>68.0</ele><time>2026-04-05T07:01:10.001Z</time></trkpt><trkpt lat="39.79759879637104" lon="18.370277836208103"><ele>66.33333333333334</ele><time>2026-04-05T07:01:11.001Z</time></trkpt><trkpt lat="39.79757748646389" lon="18.370063274565712"><ele>64.66666666666667</ele><time>2026-04-05T07:01:12.001Z</time></trkpt><trkpt lat="39.79758132065467" lon="18.3698710938387"><ele>63.0</ele><time>2026-04-05T07:01:13.001Z</time></trkpt><trkpt lat="39.79761484223938" lon="18.36967232529316"><ele>63.0</ele><time>2026-04-05T07:01:14.001Z</time></trkpt><trkpt lat="39.79766294302984" lon="18.36947680619067"><ele>63.0</ele><time>2026-04-05T07:01:15.001Z</time></trkpt><trkpt lat="39.79772912383796" lon="18.36929168891489"><ele>63.0</ele><time>2026-04-05T07:01:16.001Z</time></trkpt><trkpt lat="39.79780918523227" lon="18.369119520359668"><ele>62.5</ele><time>2026-04-05T07:01:17.001Z</time></trkpt><trkpt lat="39.797897362205845" lon="18.368977666085502"><ele>62.0</ele><time>2026-04-05T07:01:18.001Z</time></trkpt><trkpt lat="39.79799929670634" lon="18.368841425126043"><ele>61.5</ele><time>2026-04-05T07:01:19.001Z</time></trkpt><trkpt lat="39.798116073151135" lon="18.36872676380629"><ele>61.0</ele><time>2026-04-05T07:01:20.001Z</time></trkpt><trkpt lat="39.79823727364778" lon="18.36862105148434"><ele>61.0</ele><time>2026-04-05T07:01:21.001Z</time></trkpt><trkpt lat="39.79834840341706" lon="18.368531177263762"><ele>60.99999999999999</ele><time>2026-04-05T07:01:22.001Z</time></trkpt><trkpt lat="39.798443856675426" lon="18.368456674395095"><ele>60.99999999999999</ele><time>2026-04-05T07:01:23.001Z</time></trkpt><trkpt lat="39.79852703851869" lon="18.368392101895108"><ele>61.0</ele><time>2026-04-05T07:01:24.001Z</time></trkpt><trkpt lat="39.79857655709131" lon="18.368330392095107"><ele>61.0</ele><time>2026-04-05T07:01:25.001Z</time></trkpt><trkpt lat="39.79869511236465" lon="18.368318846632"><ele>60.666666666666664</ele><time>2026-04-05T07:01:27.001Z</time></trkpt><trkpt lat="39.79876836528395" lon="18.36825390858087"><ele>60.33333333333333</ele><time>2026-04-05T07:01:29.001Z</time></trkpt><trkpt lat="39.798803538829446" lon="18.36817368964534"><ele>60.0</ele><time>2026-04-05T07:01:30.001Z</time></trkpt><trkpt lat="39.79881387292708" lon="18.368074308499192"><ele>59.66666666666667</ele><time>2026-04-05T07:01:31.001Z</time></trkpt><trkpt lat="39.79884611145099" lon="18.367995585781514"><ele>59.333333333333336</ele><time>2026-04-05T07:01:32.001Z</time></trkpt><trkpt lat="39.79897276133022" lon="18.367986216679963"><ele>59.0</ele><time>2026-04-05T07:01:33.001Z</time></trkpt><trkpt lat="39.79909790271146" lon="18.367889293330716"><ele>57.333333333333336</ele><time>2026-04-05T07:01:34.001Z</time></trkpt><trkpt lat="39.79922968747347" lon="18.367783451819136"><ele>55.66666666666667</ele><time>2026-04-05T07:01:35.001Z</time></trkpt><trkpt lat="39.7993581529941" lon="18.3676802762584"><ele>54.0</ele><time>2026-04-05T07:01:36.001Z</time></trkpt><trkpt lat="39.79949084452207" lon="18.367573706524773"><ele>54.0</ele><time>2026-04-05T07:01:37.001Z</time></trkpt><trkpt lat="39.79963079657191" lon="18.367461305607243"><ele>54.0</ele><time>2026-04-05T07:01:38.001Z</time></trkpt><trkpt lat="39.79977067337998" lon="18.36734896517427"><ele>54.0</ele><time>2026-04-05T07:01:39.001Z</time></trkpt><trkpt lat="39.79989627018299" lon="18.36722241376837"><ele>53.25</ele><time>2026-04-05T07:01:40.001Z</time></trkpt><trkpt lat="39.80002358459192" lon="18.367138500945185"><ele>52.5</ele><time>2026-04-05T07:01:41.001Z</time></trkpt><trkpt lat="39.80012968132119" lon="18.367022238448683"><ele>51.75</ele><time>2026-04-05T07:01:42.001Z</time></trkpt><trkpt lat="39.80024257039165" lon="18.366929323507307"><ele>51.0</ele><time>2026-04-05T07:01:43.001Z</time></trkpt><trkpt lat="39.80033621258598" lon="18.366807039796782"><ele>51.0</ele><time>2026-04-05T07:01:44.001Z</time></trkpt><trkpt lat="39.80039678392241" lon="18.36665997138117"><ele>51.0</ele><time>2026-04-05T07:01:45.001Z</time></trkpt><trkpt lat="39.80047346730827" lon="18.36650530402993"><ele>51.0</ele><time>2026-04-05T07:01:46.001Z</time></trkpt><trkpt lat="39.80051493100766" lon="18.36632433898878"><ele>51.0</ele><time>2026-04-05T07:01:47.001Z</time></trkpt><trkpt lat="39.80054185203532" lon="18.366126425092446"><ele>48.0</ele><time>2026-04-05T07:01:48.001Z</time></trkpt><trkpt lat="39.80054746193" lon="18.365922396699165"><ele>45.0</ele><time>2026-04-05T07:01:49.001Z</time></trkpt><trkpt lat="39.80053652535702" lon="18.365719964498066"><ele>42.0</ele><time>2026-04-05T07:01:50.001Z</time></trkpt><trkpt lat="39.800499574828905" lon="18.365535724056667"><ele>39.333333333333336</ele><time>2026-04-05T07:01:51.001Z</time></trkpt><trkpt lat="39.80043882473019" lon="18.365355882732675"><ele>36.66666666666667</ele><time>2026-04-05T07:01:52.001Z</time></trkpt><trkpt lat="39.80035053123748" lon="18.365188167060246"><ele>34.0</ele><time>2026-04-05T07:01:53.001Z</time></trkpt><trkpt lat="39.80023899596438" lon="18.365024913561907"><ele>32.66666666666667</ele><time>2026-04-05T07:01:54.001Z</time></trkpt><trkpt lat="39.800114232057325" lon="18.364884420959513"><ele>31.333333333333336</ele><time>2026-04-05T07:01:55.001Z</time></trkpt><trkpt lat="39.79999683322796" lon="18.36475848280216"><ele>30.0</ele><time>2026-04-05T07:01:56.001Z</time></trkpt><trkpt lat="39.799892655967334" lon="18.36464682264184"><ele>28.8</ele><time>2026-04-05T07:01:57.001Z</time></trkpt><trkpt lat="39.79979448814138" lon="18.364541603547604"><ele>27.6</ele><time>2026-04-05T07:01:58.001Z</time></trkpt><trkpt lat="39.79970016669842" lon="18.36444009142491"><ele>26.4</ele><time>2026-04-05T07:01:59.001Z</time></trkpt><trkpt lat="39.79962024225559" lon="18.36435403450193"><ele>25.2</ele><time>2026-04-05T07:02:00.001Z</time></trkpt><trkpt lat="39.799549865560856" lon="18.364278257995316"><ele>24.0</ele><time>2026-04-05T07:02:01.001Z</time></trkpt><trkpt lat="39.79949142126716" lon="18.364215329413963"><ele>24.0</ele><time>2026-04-05T07:02:02.001Z</time></trkpt><trkpt lat="39.79943555345383" lon="18.364155175004313"><ele>24.0</ele><time>2026-04-05T07:02:03.001Z</time></trkpt><trkpt lat="39.79937746573878" lon="18.364092630163295"><ele>24.0</ele><time>2026-04-05T07:02:04.001Z</time></trkpt><trkpt lat="39.79931774412129" lon="18.364028429705336"><ele>24.0</ele><time>2026-04-05T07:02:05.001Z</time></trkpt><trkpt lat="39.79925600906287" lon="18.363962044407632"><ele>24.0</ele><time>2026-04-05T07:02:06.001Z</time></trkpt><trkpt lat="39.79918532234186" lon="18.36391327704009"><ele>24.0</ele><time>2026-04-05T07:02:07.001Z</time></trkpt><trkpt lat="39.799127143310265" lon="18.363850781821057"><ele>23.0</ele><time>2026-04-05T07:02:08Z</time></trkpt><trkpt lat="39.79904770412358" lon="18.363734857888346"><ele>22.0</ele><time>2026-04-05T07:02:10Z</time></trkpt><trkpt lat="39.798958069948036" lon="18.36364347983977"><ele>21.0</ele><time>2026-04-05T07:02:12Z</time></trkpt><trkpt lat="39.79889246236125" lon="18.36357736487461"><ele>20.0</ele><time>2026-04-05T07:02:13Z</time></trkpt><trkpt lat="39.79882005457345" lon="18.363493459319358"><ele>19.0</ele><time>2026-04-05T07:02:14Z</time></trkpt><trkpt lat="39.798740786506784" lon="18.363418735230667"><ele>19.0</ele><time>2026-04-05T07:02:15Z</time></trkpt><trkpt lat="39.798670273930995" lon="18.363348544563397"><ele>19.0</ele><time>2026-04-05T07:02:16Z</time></trkpt><trkpt lat="39.7986282288748" lon="18.36326220370251"><ele>19.0</ele><time>2026-04-05T07:02:17Z</time></trkpt><trkpt lat="39.79856871264834" lon="18.363203082315113"><ele>19.0</ele><time>2026-04-05T07:02:18Z</time></trkpt><trkpt lat="39.79849734674704" lon="18.363130259735765"><ele>19.0</ele><time>2026-04-05T07:02:19Z</time></trkpt><trkpt lat="39.79842972870696" lon="18.363045080302342"><ele>19.0</ele><time>2026-04-05T07:02:20Z</time></trkpt><trkpt lat="39.7983672285487" lon="18.3629607373726"><ele>17.5</ele><time>2026-04-05T07:02:21Z</time></trkpt><trkpt lat="39.79831284369967" lon="18.36287006115636"><ele>16.0</ele><time>2026-04-05T07:02:22Z</time></trkpt><trkpt lat="39.79826914561826" lon="18.36277425481394"><ele>14.5</ele><time>2026-04-05T07:02:23Z</time></trkpt><trkpt lat="39.798255648394274" lon="18.362665453514403"><ele>13.0</ele><time>2026-04-05T07:02:24Z</time></trkpt><trkpt lat="39.79823799856292" lon="18.36256241250986"><ele>11.5</ele><time>2026-04-05T07:02:25Z</time></trkpt><trkpt lat="39.798244637115005" lon="18.362436987035554"><ele>10.0</ele><time>2026-04-05T07:02:26Z</time></trkpt><trkpt lat="39.79825292704105" lon="18.36230657336757"><ele>9.166666666666668</ele><time>2026-04-05T07:02:27Z</time></trkpt><trkpt lat="39.798263323038896" lon="18.362194797589094"><ele>8.333333333333334</ele><time>2026-04-05T07:02:28Z</time></trkpt><trkpt lat="39.79827922940268" lon="18.362084218093106"><ele>7.5</ele><time>2026-04-05T07:02:29Z</time></trkpt><trkpt lat="39.798295679419496" lon="18.361973349677182"><ele>6.666666666666667</ele><time>2026-04-05T07:02:30Z</time></trkpt><trkpt lat="39.79831192194703" lon="18.361863807586847"><ele>5.833333333333334</ele><time>2026-04-05T07:02:31Z</time></trkpt><trkpt lat="39.798329047655294" lon="18.361749905000043"><ele>5.0</ele><time>2026-04-05T07:02:32Z</time></trkpt><trkpt lat="39.79834675023416" lon="18.361632537156225"><ele>5.0</ele><time>2026-04-05T07:02:33Z</time></trkpt><trkpt lat="39.798364277048385" lon="18.361516698542513"><ele>5.0</ele><time>2026-04-05T07:02:34Z</time></trkpt><trkpt lat="39.79838187918307" lon="18.36139948904403"><ele>5.0</ele><time>2026-04-05T07:02:35Z</time></trkpt><trkpt lat="39.79839804905194" lon="18.361291682988604"><ele>5.0</ele><time>2026-04-05T07:02:36Z</time></trkpt><trkpt lat="39.798414168081756" lon="18.361185292295385"><ele>5.0</ele><time>2026-04-05T07:02:37Z</time></trkpt><trkpt lat="39.79842997265158" lon="18.361080977075627"><ele>5.0</ele><time>2026-04-05T07:02:38Z</time></trkpt><trkpt lat="39.79844460997038" lon="18.360984366095572"><ele>5.833333333333334</ele><time>2026-04-05T07:02:39Z</time></trkpt><trkpt lat="39.798456364450765" lon="18.360893431564712"><ele>6.666666666666667</ele><time>2026-04-05T07:02:40Z</time></trkpt><trkpt lat="39.79846348294887" lon="18.360803397031603"><ele>7.5</ele><time>2026-04-05T07:02:41Z</time></trkpt><trkpt lat="39.79846798214236" lon="18.360715886734916"><ele>8.333333333333334</ele><time>2026-04-05T07:02:42Z</time></trkpt><trkpt lat="39.79841911384301" lon="18.36063217258789"><ele>9.166666666666668</ele><time>2026-04-05T07:02:43Z</time></trkpt><trkpt lat="39.798387592233766" lon="18.36053820001654"><ele>10.0</ele><time>2026-04-05T07:02:44Z</time></trkpt><trkpt lat="39.7983424621035" lon="18.3604482279363"><ele>10.333333333333334</ele><time>2026-04-05T07:02:45Z</time></trkpt><trkpt lat="39.79829632265708" lon="18.36035455873768"><ele>10.666666666666668</ele><time>2026-04-05T07:02:46Z</time></trkpt><trkpt lat="39.79824975675298" lon="18.36026886372714"><ele>11.0</ele><time>2026-04-05T07:02:47Z</time></trkpt><trkpt lat="39.798208796178564" lon="18.360175724353354"><ele>11.333333333333334</ele><time>2026-04-05T07:02:48Z</time></trkpt><trkpt lat="39.798186608495975" lon="18.360067519496827"><ele>11.666666666666666</ele><time>2026-04-05T07:02:49Z</time></trkpt><trkpt lat="39.79814794715909" lon="18.35997648666376"><ele>12.0</ele><time>2026-04-05T07:02:50Z</time></trkpt><trkpt lat="39.79810454574627" lon="18.35987870765225"><ele>12.0</ele><time>2026-04-05T07:02:51Z</time></trkpt><trkpt lat="39.79804331761076" lon="18.3597995196891"><ele>12.0</ele><time>2026-04-05T07:02:52Z</time></trkpt><trkpt lat="39.79799763253848" lon="18.359733090646163"><ele>12.0</ele><time>2026-04-05T07:02:53.001Z</time></trkpt><trkpt lat="39.79793998728014" lon="18.359649270480748"><ele>12.0</ele><time>2026-04-05T07:02:55.001Z</time></trkpt><trkpt lat="39.797815123781014" lon="18.359801275330337"><ele>12.0</ele><time>2026-04-05T07:02:57.001Z</time></trkpt><trkpt lat="39.797750083106735" lon="18.359878789579806"><ele>12.0</ele><time>2026-04-05T07:02:58.001Z</time></trkpt><trkpt lat="39.79767637202496" lon="18.359967056949387"><ele>12.0</ele><time>2026-04-05T07:02:59.001Z</time></trkpt><trkpt lat="39.797618005266735" lon="18.360033780326244"><ele>12.0</ele><time>2026-04-05T07:03:00.001Z</time></trkpt><trkpt lat="39.797536583697685" lon="18.360080994300485"><ele>12.0</ele><time>2026-04-05T07:03:02.001Z</time></trkpt><trkpt lat="39.79746382874226" lon="18.359999173017783"><ele>12.0</ele><time>2026-04-05T07:03:03.001Z</time></trkpt><trkpt lat="39.7974069347131" lon="18.359934016758537"><ele>12.0</ele><time>2026-04-05T07:03:04.001Z</time></trkpt><trkpt lat="39.79735649399344" lon="18.35982705878908"><ele>12.0</ele><time>2026-04-05T07:03:05.001Z</time></trkpt><trkpt lat="39.79730926993272" lon="18.35972909945783"><ele>12.0</ele><time>2026-04-05T07:03:06.001Z</time></trkpt><trkpt lat="39.79726405509739" lon="18.359616854268477"><ele>12.0</ele><time>2026-04-05T07:03:07.001Z</time></trkpt><trkpt lat="39.797225774787385" lon="18.359488512025134"><ele>12.0</ele><time>2026-04-05T07:03:08.001Z</time></trkpt><trkpt lat="39.797185319409024" lon="18.359372472479084"><ele>12.0</ele><time>2026-04-05T07:03:09.001Z</time></trkpt><trkpt lat="39.79715010506015" lon="18.359244808359144"><ele>12.0</ele><time>2026-04-05T07:03:10.001Z</time></trkpt><trkpt lat="39.797114297280885" lon="18.359115339097652"><ele>12.0</ele><time>2026-04-05T07:03:11.001Z</time></trkpt><trkpt lat="39.79708062909704" lon="18.358983591450997"><ele>12.0</ele><time>2026-04-05T07:03:12.001Z</time></trkpt><trkpt lat="39.797039945172685" lon="18.35884689529255"><ele>12.0</ele><time>2026-04-05T07:03:13.001Z</time></trkpt><trkpt lat="39.79699517056176" lon="18.35869545617137"><ele>12.25</ele><time>2026-04-05T07:03:14.001Z</time></trkpt><trkpt lat="39.796955541568444" lon="18.35854736389968"><ele>12.5</ele><time>2026-04-05T07:03:15.001Z</time></trkpt><trkpt lat="39.79692289446262" lon="18.358395280035673"><ele>12.75</ele><time>2026-04-05T07:03:16.001Z</time></trkpt><trkpt lat="39.79688445317909" lon="18.35824487497335"><ele>13.0</ele><time>2026-04-05T07:03:17.001Z</time></trkpt><trkpt lat="39.79684118827267" lon="18.358101250015757"><ele>11.0</ele><time>2026-04-05T07:03:18.001Z</time></trkpt><trkpt lat="39.796803904925625" lon="18.357947895113053"><ele>9.0</ele><time>2026-04-05T07:03:19.001Z</time></trkpt><trkpt lat="39.7967618281582" lon="18.3577951442322"><ele>7.0</ele><time>2026-04-05T07:03:20.001Z</time></trkpt><trkpt lat="39.79672152375315" lon="18.357647433638935"><ele>5.0</ele><time>2026-04-05T07:03:21.001Z</time></trkpt><trkpt lat="39.79669023319564" lon="18.35751195388635"><ele>5.0</ele><time>2026-04-05T07:03:22.001Z</time></trkpt><trkpt lat="39.7966546890174" lon="18.357374145088787"><ele>5.0</ele><time>2026-04-05T07:03:23.001Z</time></trkpt><trkpt lat="39.79661293590797" lon="18.35723632262715"><ele>5.0</ele><time>2026-04-05T07:03:24.001Z</time></trkpt><trkpt lat="39.796575956962045" lon="18.35709622018621"><ele>5.0</ele><time>2026-04-05T07:03:25.001Z</time></trkpt><trkpt lat="39.79653608191039" lon="18.35695464929441"><ele>5.2</ele><time>2026-04-05T07:03:26.001Z</time></trkpt><trkpt lat="39.796494605318614" lon="18.356812775420668"><ele>5.4</ele><time>2026-04-05T07:03:27.001Z</time></trkpt><trkpt lat="39.79645978894154" lon="18.356672539553124"><ele>5.6</ele><time>2026-04-05T07:03:28.001Z</time></trkpt><trkpt lat="39.79642238873706" lon="18.356536653428783"><ele>5.8</ele><time>2026-04-05T07:03:29.001Z</time></trkpt><trkpt lat="39.79639018368424" lon="18.356409334381738"><ele>6.0</ele><time>2026-04-05T07:03:30.001Z</time></trkpt><trkpt lat="39.7963581035871" lon="18.356283776955838"><ele>6.199999999999999</ele><time>2026-04-05T07:03:31.001Z</time></trkpt><trkpt lat="39.79632510894316" lon="18.356150606364952"><ele>6.3999999999999995</ele><time>2026-04-05T07:03:32.001Z</time></trkpt><trkpt lat="39.796284079588474" lon="18.35601936204818"><ele>6.6</ele><time>2026-04-05T07:03:33.001Z</time></trkpt><trkpt lat="39.796250355702654" lon="18.35588492639625"><ele>6.8</ele><time>2026-04-05T07:03:34.001Z</time></trkpt><trkpt lat="39.796216280224776" lon="18.355741631312984"><ele>7.0</ele><time>2026-04-05T07:03:35.001Z</time></trkpt><trkpt lat="39.79617056472447" lon="18.355596152928296"><ele>7.0</ele><time>2026-04-05T07:03:36.001Z</time></trkpt><trkpt lat="39.79613631817551" lon="18.355450231655173"><ele>6.999999999999999</ele><time>2026-04-05T07:03:37.001Z</time></trkpt><trkpt lat="39.796097099606726" lon="18.355307865798082"><ele>6.999999999999999</ele><time>2026-04-05T07:03:38.001Z</time></trkpt><trkpt lat="39.79606089629861" lon="18.35517789752476"><ele>7.0</ele><time>2026-04-05T07:03:39.001Z</time></trkpt><trkpt lat="39.796033453976534" lon="18.355062044078004"><ele>7.0</ele><time>2026-04-05T07:03:40.001Z</time></trkpt><trkpt lat="39.796001557885496" lon="18.354962597411756"><ele>7.000000000000001</ele><time>2026-04-05T07:03:41.001Z</time></trkpt><trkpt lat="39.79598497082888" lon="18.35487577314527"><ele>7.0</ele><time>2026-04-05T07:03:42.001Z</time></trkpt><trkpt lat="39.795985549119074" lon="18.354750922445376"><ele>7.0</ele><time>2026-04-05T07:03:44.001Z</time></trkpt><trkpt lat="39.79607536760894" lon="18.354687650838798"><ele>7.0</ele><time>2026-04-05T07:03:49.001Z</time></trkpt><trkpt lat="39.796131633542444" lon="18.354647233799128"><ele>7.000000000000001</ele><time>2026-04-05T07:03:50.001Z</time></trkpt><trkpt lat="39.79619525528432" lon="18.3546413578359"><ele>7.0</ele><time>2026-04-05T07:03:51.001Z</time></trkpt><trkpt lat="39.79627032416655" lon="18.354626468007563"><ele>7.000000000000001</ele><time>2026-04-05T07:03:52.001Z</time></trkpt><trkpt lat="39.79633428468031" lon="18.354610594590294"><ele>7.0</ele><time>2026-04-05T07:03:53.001Z</time></trkpt><trkpt lat="39.79640368077461" lon="18.35458403175145"><ele>7.0</ele><time>2026-04-05T07:03:54.001Z</time></trkpt><trkpt lat="39.79651719663483" lon="18.354540351941093"><ele>7.0</ele><time>2026-04-05T07:03:56.001Z</time></trkpt><trkpt lat="39.796616831785435" lon="18.354534389786615"><ele>7.000000000000001</ele><time>2026-04-05T07:03:58.001Z</time></trkpt><trkpt lat="39.79669677643659" lon="18.354590099553437"><ele>7.0</ele><time>2026-04-05T07:04:00.001Z</time></trkpt><trkpt lat="39.79677988262436" lon="18.35469981273132"><ele>7.000000000000001</ele><time>2026-04-05T07:04:02.001Z</time></trkpt><trkpt lat="39.79681034447852" lon="18.354777538892865"><ele>7.0</ele><time>2026-04-05T07:04:03.001Z</time></trkpt><trkpt lat="39.79686390347874" lon="18.354933454853224"><ele>7.0</ele><time>2026-04-05T07:04:05.001Z</time></trkpt><trkpt lat="39.79689034815684" lon="18.355022481412494"><ele>7.0</ele><time>2026-04-05T07:04:06.001Z</time></trkpt><trkpt lat="39.79691912531708" lon="18.35512065639628"><ele>7.000000000000001</ele><time>2026-04-05T07:04:07.001Z</time></trkpt><trkpt lat="39.79694970147911" lon="18.35522844573988"><ele>7.0</ele><time>2026-04-05T07:04:08.001Z</time></trkpt><trkpt lat="39.79697896442133" lon="18.355334291110935"><ele>8.0</ele><time>2026-04-05T07:04:09.001Z</time></trkpt><trkpt lat="39.79700783868727" lon="18.355438730588954"><ele>9.0</ele><time>2026-04-05T07:04:10.001Z</time></trkpt><trkpt lat="39.797019722315" lon="18.35554323467549"><ele>10.0</ele><time>2026-04-05T07:04:11.001Z</time></trkpt><trkpt lat="39.79704281973762" lon="18.355627021632575"><ele>11.0</ele><time>2026-04-05T07:04:12.001Z</time></trkpt><trkpt lat="39.79709079881514" lon="18.35575328365272"><ele>11.999999999999998</ele><time>2026-04-05T07:04:14Z</time></trkpt><trkpt lat="39.79710829935997" lon="18.355834695538626"><ele>13.0</ele><time>2026-04-05T07:04:15Z</time></trkpt><trkpt lat="39.797125906934596" lon="18.355928873750386"><ele>13.0</ele><time>2026-04-05T07:04:16Z</time></trkpt><trkpt lat="39.797148207179205" lon="18.356027940530662"><ele>13.0</ele><time>2026-04-05T07:04:17Z</time></trkpt><trkpt lat="39.79717832617029" lon="18.35613559389663"><ele>13.0</ele><time>2026-04-05T07:04:18Z</time></trkpt><trkpt lat="39.79721506291057" lon="18.356244261153936"><ele>13.0</ele><time>2026-04-05T07:04:19Z</time></trkpt><trkpt lat="39.79724896535127" lon="18.356358615617122"><ele>13.0</ele><time>2026-04-05T07:04:20Z</time></trkpt><trkpt lat="39.79727785263184" lon="18.3564854989682"><ele>12.8</ele><time>2026-04-05T07:04:21Z</time></trkpt><trkpt lat="39.79730590923456" lon="18.35661391571275"><ele>12.600000000000001</ele><time>2026-04-05T07:04:22Z</time></trkpt><trkpt lat="39.797338422173404" lon="18.35674057025641"><ele>12.399999999999999</ele><time>2026-04-05T07:04:23Z</time></trkpt><trkpt lat="39.797369553641865" lon="18.356866593607194"><ele>12.2</ele><time>2026-04-05T07:04:24Z</time></trkpt><trkpt lat="39.79740201891316" lon="18.35699286017984"><ele>12.0</ele><time>2026-04-05T07:04:25Z</time></trkpt><trkpt lat="39.797456623548776" lon="18.357112933776953"><ele>12.0</ele><time>2026-04-05T07:04:26Z</time></trkpt><trkpt lat="39.7974912427768" lon="18.357234046158347"><ele>12.0</ele><time>2026-04-05T07:04:27Z</time></trkpt><trkpt lat="39.79752351571648" lon="18.357354791371403"><ele>12.0</ele><time>2026-04-05T07:04:28Z</time></trkpt><trkpt lat="39.79757110223769" lon="18.35747330441909"><ele>12.0</ele><time>2026-04-05T07:04:29Z</time></trkpt><trkpt lat="39.7976149798025" lon="18.357588162543806"><ele>12.0</ele><time>2026-04-05T07:04:30Z</time></trkpt><trkpt lat="39.797654844796945" lon="18.35770302474975"><ele>13.0</ele><time>2026-04-05T07:04:31Z</time></trkpt><trkpt lat="39.79769421089963" lon="18.35780098997743"><ele>14.0</ele><time>2026-04-05T07:04:32Z</time></trkpt><trkpt lat="39.79773396393559" lon="18.357892478343068"><ele>15.0</ele><time>2026-04-05T07:04:33Z</time></trkpt><trkpt lat="39.797786922366925" lon="18.35796291752829"><ele>16.0</ele><time>2026-04-05T07:04:34Z</time></trkpt><trkpt lat="39.797819319617005" lon="18.358035585270564"><ele>17.0</ele><time>2026-04-05T07:04:35Z</time></trkpt><trkpt lat="39.79785076310834" lon="18.358113393467185"><ele>18.0</ele><time>2026-04-05T07:04:36Z</time></trkpt><trkpt lat="39.797899659936505" lon="18.358251204763413"><ele>18.2</ele><time>2026-04-05T07:04:38Z</time></trkpt><trkpt lat="39.79794953180784" lon="18.358385060474912"><ele>18.4</ele><time>2026-04-05T07:04:40Z</time></trkpt><trkpt lat="39.7979960077728" lon="18.358536564661353"><ele>18.599999999999998</ele><time>2026-04-05T07:04:42Z</time></trkpt><trkpt lat="39.798046619662564" lon="18.358589075658845"><ele>18.8</ele><time>2026-04-05T07:04:43Z</time></trkpt><trkpt lat="39.79810807386056" lon="18.3586244658317"><ele>19.0</ele><time>2026-04-05T07:04:44Z</time></trkpt><trkpt lat="39.79826831923174" lon="18.358646531056888"><ele>19.0</ele><time>2026-04-05T07:04:46Z</time></trkpt><trkpt lat="39.798367752843276" lon="18.358635217633665"><ele>19.0</ele><time>2026-04-05T07:04:47Z</time></trkpt><trkpt lat="39.79846595979855" lon="18.358627462630057"><ele>19.0</ele><time>2026-04-05T07:04:48Z</time></trkpt><trkpt lat="39.79857268734954" lon="18.35860378584985"><ele>19.0</ele><time>2026-04-05T07:04:49Z</time></trkpt><trkpt lat="39.798690483374834" lon="18.358586783843702"><ele>19.0</ele><time>2026-04-05T07:04:50Z</time></trkpt><trkpt lat="39.79881187695488" lon="18.358560346085724"><ele>19.75</ele><time>2026-04-05T07:04:51Z</time></trkpt><trkpt lat="39.798945841788914" lon="18.35852127870608"><ele>20.5</ele><time>2026-04-05T07:04:52Z</time></trkpt><trkpt lat="39.79907846913728" lon="18.358452292726533"><ele>21.25</ele><time>2026-04-05T07:04:53Z</time></trkpt><trkpt lat="39.7992032418235" lon="18.35838061208643"><ele>22.0</ele><time>2026-04-05T07:04:54Z</time></trkpt><trkpt lat="39.79933283371115" lon="18.35832423741268"><ele>22.25</ele><time>2026-04-05T07:04:55Z</time></trkpt><trkpt lat="39.7994589159512" lon="18.358271822794563"><ele>22.5</ele><time>2026-04-05T07:04:56Z</time></trkpt><trkpt lat="39.799578029349064" lon="18.358211157434763"><ele>22.75</ele><time>2026-04-05T07:04:57Z</time></trkpt><trkpt lat="39.79969284982383" lon="18.358140023065655"><ele>23.0</ele><time>2026-04-05T07:04:58Z</time></trkpt><trkpt lat="39.79981578683521" lon="18.35809014922717"><ele>23.0</ele><time>2026-04-05T07:04:59Z</time></trkpt><trkpt lat="39.79993776414149" lon="18.358031278498107"><ele>23.0</ele><time>2026-04-05T07:05:00Z</time></trkpt><trkpt lat="39.800064995142144" lon="18.357978290853293"><ele>23.0</ele><time>2026-04-05T07:05:01Z</time></trkpt><trkpt lat="39.80017651667081" lon="18.35792752656949"><ele>23.0</ele><time>2026-04-05T07:05:02Z</time></trkpt><trkpt lat="39.80030505013356" lon="18.35786859325201"><ele>24.0</ele><time>2026-04-05T07:05:03Z</time></trkpt><trkpt lat="39.80042765467189" lon="18.35781882814465"><ele>25.0</ele><time>2026-04-05T07:05:04Z</time></trkpt><trkpt lat="39.80055220482595" lon="18.3577613610885"><ele>26.0</ele><time>2026-04-05T07:05:05Z</time></trkpt><trkpt lat="39.800667297218595" lon="18.357706334508237"><ele>27.0</ele><time>2026-04-05T07:05:06Z</time></trkpt><trkpt lat="39.800785731259694" lon="18.357653413473436"><ele>27.0</ele><time>2026-04-05T07:05:07Z</time></trkpt><trkpt lat="39.80090203559778" lon="18.35760085629119"><ele>27.000000000000004</ele><time>2026-04-05T07:05:08.001Z</time></trkpt><trkpt lat="39.80101611261394" lon="18.357546477520877"><ele>27.000000000000004</ele><time>2026-04-05T07:05:09.001Z</time></trkpt><trkpt lat="39.80111436651489" lon="18.357497922485496"><ele>27.0</ele><time>2026-04-05T07:05:10.001Z</time></trkpt><trkpt lat="39.80120544675714" lon="18.35746971207172"><ele>27.0</ele><time>2026-04-05T07:05:11.001Z</time></trkpt><trkpt lat="39.80129879564895" lon="18.35742885442586"><ele>27.5</ele><time>2026-04-05T07:05:12.001Z</time></trkpt><trkpt lat="39.801393493134306" lon="18.357376235022755"><ele>28.0</ele><time>2026-04-05T07:05:13.001Z</time></trkpt><trkpt lat="39.801484449109836" lon="18.357335761708523"><ele>28.5</ele><time>2026-04-05T07:05:14.001Z</time></trkpt><trkpt lat="39.80158077255797" lon="18.357321165956673"><ele>29.0</ele><time>2026-04-05T07:05:15.001Z</time></trkpt><trkpt lat="39.801651128435154" lon="18.35728949730194"><ele>29.5</ele><time>2026-04-05T07:05:16.001Z</time></trkpt><trkpt lat="39.80172506795043" lon="18.35725621558005"><ele>30.0</ele><time>2026-04-05T07:05:17.001Z</time></trkpt><trkpt lat="39.8017849379513" lon="18.35722926684596"><ele>30.8</ele><time>2026-04-05T07:05:18.001Z</time></trkpt><trkpt lat="39.80185687256401" lon="18.357176070478772"><ele>31.6</ele><time>2026-04-05T07:05:19.001Z</time></trkpt><trkpt lat="39.80195194710033" lon="18.35714833146374"><ele>32.4</ele><time>2026-04-05T07:05:20.001Z</time></trkpt><trkpt lat="39.80205625491584" lon="18.35709031887118"><ele>33.2</ele><time>2026-04-05T07:05:21.001Z</time></trkpt><trkpt lat="39.80216506967847" lon="18.35705728713858"><ele>34.0</ele><time>2026-04-05T07:05:22.001Z</time></trkpt><trkpt lat="39.80226546140544" lon="18.357012327199485"><ele>34.0</ele><time>2026-04-05T07:05:23.001Z</time></trkpt><trkpt lat="39.80236933344944" lon="18.356966518559904"><ele>34.0</ele><time>2026-04-05T07:05:24.001Z</time></trkpt><trkpt lat="39.80246339825085" lon="18.356925035001797"><ele>34.0</ele><time>2026-04-05T07:05:25.001Z</time></trkpt><trkpt lat="39.802542572933554" lon="18.356890117997224"><ele>34.0</ele><time>2026-04-05T07:05:26.001Z</time></trkpt><trkpt lat="39.802649574193694" lon="18.3568426910802"><ele>34.0</ele><time>2026-04-05T07:05:28.001Z</time></trkpt><trkpt lat="39.80274976458831" lon="18.35679831912499"><ele>34.0</ele><time>2026-04-05T07:05:30.001Z</time></trkpt><trkpt lat="39.802848260977655" lon="18.35675469722956"><ele>34.0</ele><time>2026-04-05T07:05:32.001Z</time></trkpt><trkpt lat="39.802973972115225" lon="18.356693960695285"><ele>34.0</ele><time>2026-04-05T07:05:34.001Z</time></trkpt><trkpt lat="39.80305063694157" lon="18.3566608134921"><ele>34.0</ele><time>2026-04-05T07:05:35.001Z</time></trkpt><trkpt lat="39.80312428352581" lon="18.35662188298265"><ele>34.0</ele><time>2026-04-05T07:05:36.001Z</time></trkpt><trkpt lat="39.80319965744302" lon="18.356589899792986"><ele>34.0</ele><time>2026-04-05T07:05:37.001Z</time></trkpt><trkpt lat="39.80327722610967" lon="18.35657675327605"><ele>34.0</ele><time>2026-04-05T07:05:38.001Z</time></trkpt><trkpt lat="39.80334880358205" lon="18.356578308696598"><ele>34.0</ele><time>2026-04-05T07:05:39.001Z</time></trkpt><trkpt lat="39.803410604911925" lon="18.35659835823203"><ele>34.0</ele><time>2026-04-05T07:05:40.001Z</time></trkpt><trkpt lat="39.80352979694152" lon="18.356638983601073"><ele>34.0</ele><time>2026-04-05T07:05:42.001Z</time></trkpt><trkpt lat="39.80359932946133" lon="18.356663264023254"><ele>34.0</ele><time>2026-04-05T07:05:43.001Z</time></trkpt><trkpt lat="39.80368419013976" lon="18.35668698222873"><ele>34.8</ele><time>2026-04-05T07:05:44.001Z</time></trkpt><trkpt lat="39.803763712998204" lon="18.356718662455425"><ele>35.599999999999994</ele><time>2026-04-05T07:05:45.001Z</time></trkpt><trkpt lat="39.80384623105223" lon="18.356768389267124"><ele>36.4</ele><time>2026-04-05T07:05:46.001Z</time></trkpt><trkpt lat="39.80393847847066" lon="18.35679941177548"><ele>37.199999999999996</ele><time>2026-04-05T07:05:47.001Z</time></trkpt><trkpt lat="39.80404596112299" lon="18.356804076987025"><ele>38.0</ele><time>2026-04-05T07:05:48.001Z</time></trkpt><trkpt lat="39.80414813510927" lon="18.35676402666244"><ele>38.0</ele><time>2026-04-05T07:05:49.001Z</time></trkpt><trkpt lat="39.80426847931422" lon="18.356686487932915"><ele>38.0</ele><time>2026-04-05T07:05:50.001Z</time></trkpt><trkpt lat="39.80439673498492" lon="18.356606473699763"><ele>38.0</ele><time>2026-04-05T07:05:51.001Z</time></trkpt><trkpt lat="39.80454340992771" lon="18.356542782572284"><ele>38.0</ele><time>2026-04-05T07:05:52.001Z</time></trkpt><trkpt lat="39.80468274504742" lon="18.35646657929014"><ele>38.5</ele><time>2026-04-05T07:05:53.001Z</time></trkpt><trkpt lat="39.8048058189483" lon="18.356376752054704"><ele>39.0</ele><time>2026-04-05T07:05:54.001Z</time></trkpt><trkpt lat="39.8049201429554" lon="18.356310773440086"><ele>39.5</ele><time>2026-04-05T07:05:55.001Z</time></trkpt><trkpt lat="39.80502420855409" lon="18.3562642535229"><ele>40.0</ele><time>2026-04-05T07:05:56.001Z</time></trkpt><trkpt lat="39.805114831124314" lon="18.356181741258453"><ele>40.6</ele><time>2026-04-05T07:05:57.001Z</time></trkpt><trkpt lat="39.80518783181268" lon="18.356081599077775"><ele>41.2</ele><time>2026-04-05T07:05:58.001Z</time></trkpt><trkpt lat="39.805257545354166" lon="18.355995010500628"><ele>41.8</ele><time>2026-04-05T07:05:59.001Z</time></trkpt><trkpt lat="39.80534974613806" lon="18.35593581485013"><ele>42.4</ele><time>2026-04-05T07:06:00.001Z</time></trkpt><trkpt lat="39.80544634556552" lon="18.35582139778892"><ele>43.0</ele><time>2026-04-05T07:06:01.001Z</time></trkpt><trkpt lat="39.805544178293395" lon="18.35570792199613"><ele>43.0</ele><time>2026-04-05T07:06:02.001Z</time></trkpt><trkpt lat="39.805657030704815" lon="18.355587913174354"><ele>43.0</ele><time>2026-04-05T07:06:03.001Z</time></trkpt><trkpt lat="39.80577194777025" lon="18.35546693982789"><ele>43.0</ele><time>2026-04-05T07:06:04.001Z</time></trkpt><trkpt lat="39.805886878222566" lon="18.355345952343267"><ele>43.0</ele><time>2026-04-05T07:06:05.001Z</time></trkpt><trkpt lat="39.806005613544585" lon="18.3552209594942"><ele>44.66666666666667</ele><time>2026-04-05T07:06:06.001Z</time></trkpt><trkpt lat="39.80612738909704" lon="18.35509281719244"><ele>46.333333333333336</ele><time>2026-04-05T07:06:07.001Z</time></trkpt><trkpt lat="39.80625174123404" lon="18.354962077100204"><ele>48.0</ele><time>2026-04-05T07:06:08.001Z</time></trkpt><trkpt lat="39.806367119476086" lon="18.35484130351568"><ele>48.0</ele><time>2026-04-05T07:06:09.001Z</time></trkpt><trkpt lat="39.80648621234301" lon="18.354728902890564"><ele>48.0</ele><time>2026-04-05T07:06:10.001Z</time></trkpt><trkpt lat="39.806620569694935" lon="18.354627025276464"><ele>48.0</ele><time>2026-04-05T07:06:11.001Z</time></trkpt><trkpt lat="39.80677999511346" lon="18.354513395462508"><ele>50.0</ele><time>2026-04-05T07:06:12.001Z</time></trkpt><trkpt lat="39.80693806923624" lon="18.35440267662657"><ele>52.0</ele><time>2026-04-05T07:06:13.001Z</time></trkpt><trkpt lat="39.80707914402265" lon="18.35430190346583"><ele>54.0</ele><time>2026-04-05T07:06:14.001Z</time></trkpt><trkpt lat="39.807198518180094" lon="18.354182227928735"><ele>54.0</ele><time>2026-04-05T07:06:15.001Z</time></trkpt><trkpt lat="39.80731577372077" lon="18.35409783890593"><ele>54.0</ele><time>2026-04-05T07:06:16.001Z</time></trkpt><trkpt lat="39.80740298133904" lon="18.353992614224964"><ele>54.0</ele><time>2026-04-05T07:06:17.001Z</time></trkpt><trkpt lat="39.80749456621052" lon="18.35390297118252"><ele>54.0</ele><time>2026-04-05T07:06:18.001Z</time></trkpt><trkpt lat="39.80759067622754" lon="18.35383015880829"><ele>55.0</ele><time>2026-04-05T07:06:19.001Z</time></trkpt><trkpt lat="39.80767048884346" lon="18.353741403915407"><ele>56.00000000000001</ele><time>2026-04-05T07:06:20Z</time></trkpt><trkpt lat="39.80774485351057" lon="18.353655808265497"><ele>57.00000000000001</ele><time>2026-04-05T07:06:21Z</time></trkpt><trkpt lat="39.8078186649786" lon="18.353572849025323"><ele>58.0</ele><time>2026-04-05T07:06:22Z</time></trkpt><trkpt lat="39.80789002230103" lon="18.353519004741862"><ele>59.0</ele><time>2026-04-05T07:06:23Z</time></trkpt><trkpt lat="39.80794582526653" lon="18.3534565787449"><ele>59.00000000000001</ele><time>2026-04-05T07:06:24Z</time></trkpt><trkpt lat="39.80799647817673" lon="18.353401974484022"><ele>59.0</ele><time>2026-04-05T07:06:25Z</time></trkpt><trkpt lat="39.808076090328946" lon="18.353314115374257"><ele>59.0</ele><time>2026-04-05T07:06:27Z</time></trkpt><trkpt lat="39.80815863782891" lon="18.353301198098848"><ele>59.0</ele><time>2026-04-05T07:06:29Z</time></trkpt><trkpt lat="39.808236576735716" lon="18.353264769957086"><ele>59.00000000000001</ele><time>2026-04-05T07:06:31Z</time></trkpt><trkpt lat="39.808323375230295" lon="18.353285867137984"><ele>59.0</ele><time>2026-04-05T07:06:34Z</time></trkpt><trkpt lat="39.808403228562675" lon="18.35330523787679"><ele>59.0</ele><time>2026-04-05T07:06:35Z</time></trkpt><trkpt lat="39.80848610788487" lon="18.353338269124023"><ele>59.00000000000001</ele><time>2026-04-05T07:06:36Z</time></trkpt><trkpt lat="39.80858973687567" lon="18.35337420534052"><ele>59.00000000000001</ele><time>2026-04-05T07:06:37Z</time></trkpt><trkpt lat="39.80869611532407" lon="18.353409942438685"><ele>59.0</ele><time>2026-04-05T07:06:38Z</time></trkpt><trkpt lat="39.80881905303531" lon="18.353449440028918"><ele>59.0</ele><time>2026-04-05T07:06:39Z</time></trkpt><trkpt lat="39.80895155450871" lon="18.353494104691034"><ele>59.75</ele><time>2026-04-05T07:06:40Z</time></trkpt><trkpt lat="39.8090878249887" lon="18.35354066235929"><ele>60.5</ele><time>2026-04-05T07:06:41Z</time></trkpt><trkpt lat="39.809228408720415" lon="18.35358705232804"><ele>61.25</ele><time>2026-04-05T07:06:42Z</time></trkpt><trkpt lat="39.8093770229198" lon="18.35363843315317"><ele>62.0</ele><time>2026-04-05T07:06:43Z</time></trkpt><trkpt lat="39.8095321104888" lon="18.353688445694647"><ele>62.333333333333336</ele><time>2026-04-05T07:06:44Z</time></trkpt><trkpt lat="39.80971530372729" lon="18.35374254750483"><ele>62.66666666666667</ele><time>2026-04-05T07:06:45Z</time></trkpt><trkpt lat="39.809913276571216" lon="18.35380910731463"><ele>63.0</ele><time>2026-04-05T07:06:46Z</time></trkpt><trkpt lat="39.81011210666148" lon="18.35388571660119"><ele>63.66666666666667</ele><time>2026-04-05T07:06:47Z</time></trkpt><trkpt lat="39.81031753798799" lon="18.353971041978447"><ele>64.33333333333334</ele><time>2026-04-05T07:06:48Z</time></trkpt><trkpt lat="39.81051971092447" lon="18.354051121196573"><ele>65.0</ele><time>2026-04-05T07:06:49Z</time></trkpt><trkpt lat="39.81071754445406" lon="18.354123479381183"><ele>65.0</ele><time>2026-04-05T07:06:50Z</time></trkpt><trkpt lat="39.81090887471796" lon="18.354190376599963"><ele>65.0</ele><time>2026-04-05T07:06:51Z</time></trkpt><trkpt lat="39.81110012651735" lon="18.354249090283403"><ele>65.0</ele><time>2026-04-05T07:06:52Z</time></trkpt><trkpt lat="39.81129188940473" lon="18.354313372987594"><ele>66.33333333333334</ele><time>2026-04-05T07:06:53Z</time></trkpt><trkpt lat="39.81148519457204" lon="18.354378042587378"><ele>67.66666666666667</ele><time>2026-04-05T07:06:54Z</time></trkpt><trkpt lat="39.81167951600471" lon="18.354449701682867"><ele>69.0</ele><time>2026-04-05T07:06:55Z</time></trkpt><trkpt lat="39.81187338543506" lon="18.354542018487734"><ele>70.0</ele><time>2026-04-05T07:06:56Z</time></trkpt><trkpt lat="39.81206880123477" lon="18.354658545281538"><ele>71.0</ele><time>2026-04-05T07:06:57Z</time></trkpt><trkpt lat="39.81225968035546" lon="18.354800955086628"><ele>72.0</ele><time>2026-04-05T07:06:58Z</time></trkpt><trkpt lat="39.812449534128056" lon="18.354936678336422"><ele>72.0</ele><time>2026-04-05T07:06:59Z</time></trkpt><trkpt lat="39.81263801712792" lon="18.355065488592906"><ele>72.0</ele><time>2026-04-05T07:07:00Z</time></trkpt><trkpt lat="39.81282148495227" lon="18.355187721239776"><ele>72.0</ele><time>2026-04-05T07:07:01Z</time></trkpt><trkpt lat="39.81300795350176" lon="18.35529929512873"><ele>74.0</ele><time>2026-04-05T07:07:02Z</time></trkpt><trkpt lat="39.81319435666087" lon="18.355400212809514"><ele>76.0</ele><time>2026-04-05T07:07:03Z</time></trkpt><trkpt lat="39.81337900000936" lon="18.35548196844138"><ele>78.0</ele><time>2026-04-05T07:07:04Z</time></trkpt><trkpt lat="39.81357042494699" lon="18.35555179510606"><ele>78.66666666666667</ele><time>2026-04-05T07:07:05Z</time></trkpt><trkpt lat="39.81375663349287" lon="18.35561795295465"><ele>79.33333333333334</ele><time>2026-04-05T07:07:06Z</time></trkpt><trkpt lat="39.81393173424123" lon="18.355679723824"><ele>80.0</ele><time>2026-04-05T07:07:07Z</time></trkpt><trkpt lat="39.81409816977382" lon="18.355742857249467"><ele>80.0</ele><time>2026-04-05T07:07:08Z</time></trkpt><trkpt lat="39.81426333704809" lon="18.35580771906139"><ele>80.0</ele><time>2026-04-05T07:07:09Z</time></trkpt><trkpt lat="39.81443108933671" lon="18.355869681979247"><ele>80.0</ele><time>2026-04-05T07:07:10Z</time></trkpt><trkpt lat="39.81460267086775" lon="18.355931456801592"><ele>80.33333333333334</ele><time>2026-04-05T07:07:11Z</time></trkpt><trkpt lat="39.81478078655149" lon="18.355993904611108"><ele>80.66666666666667</ele><time>2026-04-05T07:07:12Z</time></trkpt><trkpt lat="39.81495302668958" lon="18.35605901233406"><ele>81.0</ele><time>2026-04-05T07:07:13Z</time></trkpt><trkpt lat="39.81513353205137" lon="18.356130228459545"><ele>82.0</ele><time>2026-04-05T07:07:14Z</time></trkpt><trkpt lat="39.81531216751832" lon="18.356200179443523"><ele>83.0</ele><time>2026-04-05T07:07:15Z</time></trkpt><trkpt lat="39.81549233296793" lon="18.356269858750732"><ele>84.0</ele><time>2026-04-05T07:07:16Z</time></trkpt><trkpt lat="39.81566736199079" lon="18.356338961263543"><ele>84.0</ele><time>2026-04-05T07:07:17.001Z</time></trkpt><trkpt lat="39.81583531463461" lon="18.35640383707231"><ele>84.0</ele><time>2026-04-05T07:07:18.001Z</time></trkpt><trkpt lat="39.81599994296119" lon="18.356448694788117"><ele>84.0</ele><time>2026-04-05T07:07:19.001Z</time></trkpt><trkpt lat="39.81616511335446" lon="18.356476506610942"><ele>83.66666666666667</ele><time>2026-04-05T07:07:20.001Z</time></trkpt><trkpt lat="39.81631776197437" lon="18.356487893673997"><ele>83.33333333333334</ele><time>2026-04-05T07:07:21.001Z</time></trkpt><trkpt lat="39.816471047279435" lon="18.35648821738871"><ele>83.0</ele><time>2026-04-05T07:07:22.001Z</time></trkpt><trkpt lat="39.81663771996538" lon="18.356483131133302"><ele>83.0</ele><time>2026-04-05T07:07:23.001Z</time></trkpt><trkpt lat="39.816811472514786" lon="18.356469153973737"><ele>83.0</ele><time>2026-04-05T07:07:24.001Z</time></trkpt><trkpt lat="39.81698149225975" lon="18.356455580670012"><ele>83.0</ele><time>2026-04-05T07:07:25.001Z</time></trkpt><trkpt lat="39.81713117267073" lon="18.35644769524915"><ele>84.75</ele><time>2026-04-05T07:07:26.001Z</time></trkpt><trkpt lat="39.81726808912197" lon="18.356437318014528"><ele>86.5</ele><time>2026-04-05T07:07:27.001Z</time></trkpt><trkpt lat="39.81738915865375" lon="18.356434710702814"><ele>88.25</ele><time>2026-04-05T07:07:28.001Z</time></trkpt><trkpt lat="39.817502788141354" lon="18.356423581706817"><ele>90.0</ele><time>2026-04-05T07:07:29.001Z</time></trkpt><trkpt lat="39.81761521320292" lon="18.356407205314802"><ele>90.8</ele><time>2026-04-05T07:07:30.001Z</time></trkpt><trkpt lat="39.81771948133168" lon="18.35640717107946"><ele>91.6</ele><time>2026-04-05T07:07:31.001Z</time></trkpt><trkpt lat="39.81781715393389" lon="18.35640729756093"><ele>92.4</ele><time>2026-04-05T07:07:32.001Z</time></trkpt><trkpt lat="39.81792957007961" lon="18.356406158587667"><ele>93.2</ele><time>2026-04-05T07:07:33.001Z</time></trkpt><trkpt lat="39.81805081005023" lon="18.35639544277446"><ele>94.0</ele><time>2026-04-05T07:07:34.001Z</time></trkpt><trkpt lat="39.818174124024175" lon="18.35639104098371"><ele>94.0</ele><time>2026-04-05T07:07:35.001Z</time></trkpt><trkpt lat="39.81829205194678" lon="18.356379900201865"><ele>94.0</ele><time>2026-04-05T07:07:36.001Z</time></trkpt><trkpt lat="39.8184163329691" lon="18.356362792818867"><ele>94.0</ele><time>2026-04-05T07:07:37.001Z</time></trkpt><trkpt lat="39.81853047965797" lon="18.35635655184339"><ele>94.0</ele><time>2026-04-05T07:07:38.001Z</time></trkpt><trkpt lat="39.818630751889536" lon="18.35635559033828"><ele>95.2</ele><time>2026-04-05T07:07:39.001Z</time></trkpt><trkpt lat="39.81871512893036" lon="18.356373914589668"><ele>96.4</ele><time>2026-04-05T07:07:40.001Z</time></trkpt><trkpt lat="39.81882409636913" lon="18.356481762410226"><ele>97.6</ele><time>2026-04-05T07:07:42.001Z</time></trkpt><trkpt lat="39.81889258204169" lon="18.35654260025844"><ele>98.8</ele><time>2026-04-05T07:07:43.001Z</time></trkpt><trkpt lat="39.8189591294579" lon="18.35662724862707"><ele>100.0</ele><time>2026-04-05T07:07:44.001Z</time></trkpt><trkpt lat="39.81891806455509" lon="18.356864613112773"><ele>100.0</ele><time>2026-04-05T07:07:45.001Z</time></trkpt><trkpt lat="39.81890428974421" lon="18.357044311424065"><ele>100.0</ele><time>2026-04-05T07:07:46.001Z</time></trkpt><trkpt lat="39.81886282160954" lon="18.35723635956694"><ele>100.0</ele><time>2026-04-05T07:07:47.001Z</time></trkpt><trkpt lat="39.81881038297077" lon="18.357416924414775"><ele>100.0</ele><time>2026-04-05T07:07:48.001Z</time></trkpt><trkpt lat="39.818751243544725" lon="18.357570001370114"><ele>100.5</ele><time>2026-04-05T07:07:49.001Z</time></trkpt><trkpt lat="39.818691050773054" lon="18.35771259231827"><ele>101.0</ele><time>2026-04-05T07:07:50.001Z</time></trkpt><trkpt lat="39.81861148344524" lon="18.357829992068766"><ele>101.5</ele><time>2026-04-05T07:07:51.001Z</time></trkpt><trkpt lat="39.81851848226677" lon="18.357915734549895"><ele>102.0</ele><time>2026-04-05T07:07:52.001Z</time></trkpt><trkpt lat="39.81839526077485" lon="18.357981637058277"><ele>100.0</ele><time>2026-04-05T07:07:53.001Z</time></trkpt><trkpt lat="39.8182654330844" lon="18.358056875732128"><ele>98.0</ele><time>2026-04-05T07:07:54.001Z</time></trkpt><trkpt lat="39.818122236542806" lon="18.358116845546046"><ele>96.0</ele><time>2026-04-05T07:07:55.001Z</time></trkpt><trkpt lat="39.818003904577544" lon="18.35813184537873"><ele>94.0</ele><time>2026-04-05T07:07:56.001Z</time></trkpt><trkpt lat="39.81790675753263" lon="18.358136015581504"><ele>94.0</ele><time>2026-04-05T07:07:57.001Z</time></trkpt><trkpt lat="39.81779319979357" lon="18.35811755034166"><ele>94.0</ele><time>2026-04-05T07:07:58.001Z</time></trkpt><trkpt lat="39.81767158373721" lon="18.358085806217012"><ele>94.0</ele><time>2026-04-05T07:07:59.001Z</time></trkpt><trkpt lat="39.81756178544039" lon="18.358048282882255"><ele>94.0</ele><time>2026-04-05T07:08:00.001Z</time></trkpt><trkpt lat="39.81750285408365" lon="18.357968101222195"><ele>94.0</ele><time>2026-04-05T07:08:01.001Z</time></trkpt><trkpt lat="39.81746478506206" lon="18.357902808549646"><ele>92.75</ele><time>2026-04-05T07:08:02.001Z</time></trkpt><trkpt lat="39.81746833641988" lon="18.357770676846098"><ele>91.5</ele><time>2026-04-05T07:08:04.001Z</time></trkpt><trkpt lat="39.817479250716296" lon="18.357574953240007"><ele>90.25</ele><time>2026-04-05T07:08:06.001Z</time></trkpt><trkpt lat="39.81750858850937" lon="18.357435988541706"><ele>89.0</ele><time>2026-04-05T07:08:07.001Z</time></trkpt><trkpt lat="39.8175717894241" lon="18.357247821775015"><ele>89.33333333333334</ele><time>2026-04-05T07:08:08.001Z</time></trkpt><trkpt lat="39.81762553660518" lon="18.35703517551482"><ele>89.66666666666667</ele><time>2026-04-05T07:08:09.001Z</time></trkpt><trkpt lat="39.817678773329284" lon="18.356824338310428"><ele>90.0</ele><time>2026-04-05T07:08:10.001Z</time></trkpt><trkpt lat="39.817736345010765" lon="18.356596502653858"><ele>91.33333333333333</ele><time>2026-04-05T07:08:11.001Z</time></trkpt><trkpt lat="39.81779242858277" lon="18.356374952932985"><ele>92.66666666666666</ele><time>2026-04-05T07:08:12.001Z</time></trkpt><trkpt lat="39.81784854727046" lon="18.356153944304165"><ele>94.0</ele><time>2026-04-05T07:08:13.001Z</time></trkpt><trkpt lat="39.817906287659966" lon="18.355926975089478"><ele>94.33333333333333</ele><time>2026-04-05T07:08:14.001Z</time></trkpt><trkpt lat="39.817964410282734" lon="18.355697519588613"><ele>94.66666666666667</ele><time>2026-04-05T07:08:15.001Z</time></trkpt><trkpt lat="39.81802315497988" lon="18.355465778291386"><ele>95.0</ele><time>2026-04-05T07:08:16.001Z</time></trkpt><trkpt lat="39.81808503377481" lon="18.355222791923207"><ele>95.33333333333334</ele><time>2026-04-05T07:08:17.001Z</time></trkpt><trkpt lat="39.818149695536434" lon="18.354968790191233"><ele>95.66666666666667</ele><time>2026-04-05T07:08:18.001Z</time></trkpt><trkpt lat="39.81821634243753" lon="18.35470690296524"><ele>96.0</ele><time>2026-04-05T07:08:19.001Z</time></trkpt><trkpt lat="39.81828550020495" lon="18.35443514938446"><ele>96.33333333333334</ele><time>2026-04-05T07:08:20.001Z</time></trkpt><trkpt lat="39.81835503588334" lon="18.354161911191873"><ele>96.66666666666667</ele><time>2026-04-05T07:08:21.001Z</time></trkpt><trkpt lat="39.818423866690175" lon="18.353893387338594"><ele>97.0</ele><time>2026-04-05T07:08:22.001Z</time></trkpt><trkpt lat="39.81849284834881" lon="18.353624062896696"><ele>98.33333333333334</ele><time>2026-04-05T07:08:23.001Z</time></trkpt><trkpt lat="39.818563059662786" lon="18.353348430503413"><ele>99.66666666666666</ele><time>2026-04-05T07:08:24.001Z</time></trkpt><trkpt lat="39.8186324556985" lon="18.35307556590028"><ele>101.0</ele><time>2026-04-05T07:08:25.001Z</time></trkpt><trkpt lat="39.81870442435072" lon="18.352792542700048"><ele>101.0</ele><time>2026-04-05T07:08:26Z</time></trkpt><trkpt lat="39.81877939650365" lon="18.352497707932514"><ele>101.0</ele><time>2026-04-05T07:08:27Z</time></trkpt><trkpt lat="39.818854924696716" lon="18.352200686558444"><ele>100.5</ele><time>2026-04-05T07:08:28Z</time></trkpt><trkpt lat="39.81893066502957" lon="18.351902830882224"><ele>100.0</ele><time>2026-04-05T07:08:29Z</time></trkpt><trkpt lat="39.819007189015146" lon="18.351600679879283"><ele>100.0</ele><time>2026-04-05T07:08:30Z</time></trkpt><trkpt lat="39.81908428065129" lon="18.351295248125226"><ele>100.0</ele><time>2026-04-05T07:08:31Z</time></trkpt><trkpt lat="39.819162493627736" lon="18.35098537370892"><ele>100.0</ele><time>2026-04-05T07:08:32Z</time></trkpt><trkpt lat="39.81924203384776" lon="18.350670240842348"><ele>100.0</ele><time>2026-04-05T07:08:33Z</time></trkpt><trkpt lat="39.81932175648535" lon="18.350354385217695"><ele>101.0</ele><time>2026-04-05T07:08:34Z</time></trkpt><trkpt lat="39.819402688189086" lon="18.350033739375775"><ele>102.0</ele><time>2026-04-05T07:08:35Z</time></trkpt><trkpt lat="39.819482711096455" lon="18.349716694165277"><ele>102.0</ele><time>2026-04-05T07:08:36Z</time></trkpt><trkpt lat="39.819564117217695" lon="18.349394305807742"><ele>102.0</ele><time>2026-04-05T07:08:37Z</time></trkpt><trkpt lat="39.81964636714169" lon="18.34906899069844"><ele>101.5</ele><time>2026-04-05T07:08:38Z</time></trkpt><trkpt lat="39.81972761490943" lon="18.348747639167048"><ele>101.0</ele><time>2026-04-05T07:08:39Z</time></trkpt><trkpt lat="39.81980964323899" lon="18.348424601097424"><ele>101.0</ele><time>2026-04-05T07:08:40Z</time></trkpt><trkpt lat="39.81989259203778" lon="18.34809877256554"><ele>101.0</ele><time>2026-04-05T07:08:41Z</time></trkpt><trkpt lat="39.81997627127765" lon="18.347770074628535"><ele>100.5</ele><time>2026-04-05T07:08:42Z</time></trkpt><trkpt lat="39.82005923992529" lon="18.347444168032986"><ele>100.0</ele><time>2026-04-05T07:08:43Z</time></trkpt><trkpt lat="39.82014272260727" lon="18.347115773081953"><ele>98.0</ele><time>2026-04-05T07:08:44Z</time></trkpt><trkpt lat="39.82022568586209" lon="18.34678700782775"><ele>96.0</ele><time>2026-04-05T07:08:45Z</time></trkpt><trkpt lat="39.82030909499913" lon="18.346455803409903"><ele>96.0</ele><time>2026-04-05T07:08:46Z</time></trkpt><trkpt lat="39.82039221744516" lon="18.346125737479863"><ele>96.0</ele><time>2026-04-05T07:08:47Z</time></trkpt><trkpt lat="39.82047576833452" lon="18.345793970044433"><ele>95.0</ele><time>2026-04-05T07:08:48Z</time></trkpt><trkpt lat="39.82055880040472" lon="18.34546318978472"><ele>94.0</ele><time>2026-04-05T07:08:49Z</time></trkpt><trkpt lat="39.82064540164086" lon="18.345123773114164"><ele>94.0</ele><time>2026-04-05T07:08:50Z</time></trkpt><trkpt lat="39.82073066159894" lon="18.344788727326065"><ele>94.0</ele><time>2026-04-05T07:08:51Z</time></trkpt><trkpt lat="39.82081217707653" lon="18.34446598223562"><ele>94.5</ele><time>2026-04-05T07:08:52Z</time></trkpt><trkpt lat="39.82089436165249" lon="18.344145560158125"><ele>95.0</ele><time>2026-04-05T07:08:53Z</time></trkpt><trkpt lat="39.82097585841599" lon="18.343823315605363"><ele>98.0</ele><time>2026-04-05T07:08:54Z</time></trkpt><trkpt lat="39.82105900650081" lon="18.343497846612703"><ele>101.0</ele><time>2026-04-05T07:08:55Z</time></trkpt><trkpt lat="39.8211428300949" lon="18.34317356434939"><ele>100.5</ele><time>2026-04-05T07:08:56Z</time></trkpt><trkpt lat="39.82122706779954" lon="18.342842917822125"><ele>100.0</ele><time>2026-04-05T07:08:57Z</time></trkpt><trkpt lat="39.82131056664357" lon="18.342509893384207"><ele>100.0</ele><time>2026-04-05T07:08:58Z</time></trkpt><trkpt lat="39.821393304333476" lon="18.342179369334943"><ele>100.0</ele><time>2026-04-05T07:08:59Z</time></trkpt><trkpt lat="39.82147869160971" lon="18.34184422122709"><ele>100.0</ele><time>2026-04-05T07:09:00Z</time></trkpt><trkpt lat="39.82156471810349" lon="18.34150656414237"><ele>100.0</ele><time>2026-04-05T07:09:01Z</time></trkpt><trkpt lat="39.82164977131397" lon="18.341169061365367"><ele>99.5</ele><time>2026-04-05T07:09:02Z</time></trkpt><trkpt lat="39.82173519105274" lon="18.340829864621714"><ele>99.0</ele><time>2026-04-05T07:09:03Z</time></trkpt><trkpt lat="39.82182183727549" lon="18.340488710475572"><ele>100.0</ele><time>2026-04-05T07:09:04Z</time></trkpt><trkpt lat="39.82190875670949" lon="18.340149953705986"><ele>101.0</ele><time>2026-04-05T07:09:05Z</time></trkpt><trkpt lat="39.82199531703247" lon="18.339811545248814"><ele>101.0</ele><time>2026-04-05T07:09:06Z</time></trkpt><trkpt lat="39.822083396571216" lon="18.339466684379577"><ele>101.0</ele><time>2026-04-05T07:09:07Z</time></trkpt><trkpt lat="39.822170034788854" lon="18.339125230709087"><ele>101.5</ele><time>2026-04-05T07:09:08Z</time></trkpt><trkpt lat="39.822257643542244" lon="18.33877916736922"><ele>102.0</ele><time>2026-04-05T07:09:09Z</time></trkpt><trkpt lat="39.82234499852451" lon="18.33843410995139"><ele>102.0</ele><time>2026-04-05T07:09:10Z</time></trkpt><trkpt lat="39.82243234427856" lon="18.338089088968136"><ele>102.0</ele><time>2026-04-05T07:09:11Z</time></trkpt><trkpt lat="39.822518529844885" lon="18.3377416017871"><ele>103.0</ele><time>2026-04-05T07:09:12Z</time></trkpt><trkpt lat="39.82257416987065" lon="18.33738105439604"><ele>104.0</ele><time>2026-04-05T07:09:13Z</time></trkpt><trkpt lat="39.822660939644706" lon="18.33703250207781"><ele>104.0</ele><time>2026-04-05T07:09:14Z</time></trkpt><trkpt lat="39.822746981952236" lon="18.33668115921662"><ele>104.0</ele><time>2026-04-05T07:09:15Z</time></trkpt><trkpt lat="39.822830859438724" lon="18.336331996852493"><ele>105.0</ele><time>2026-04-05T07:09:16Z</time></trkpt><trkpt lat="39.82292296556041" lon="18.335985498942996"><ele>106.0</ele><time>2026-04-05T07:09:17Z</time></trkpt><trkpt lat="39.82301136174375" lon="18.335636977883727"><ele>107.0</ele><time>2026-04-05T07:09:18Z</time></trkpt><trkpt lat="39.823100837790406" lon="18.33528709923941"><ele>108.0</ele><time>2026-04-05T07:09:19Z</time></trkpt><trkpt lat="39.82318543548249" lon="18.334930717338278"><ele>109.5</ele><time>2026-04-05T07:09:20Z</time></trkpt><trkpt lat="39.82326942776292" lon="18.334580102006157"><ele>111.0</ele><time>2026-04-05T07:09:21Z</time></trkpt><trkpt lat="39.82335973188335" lon="18.334227328676334"><ele>112.0</ele><time>2026-04-05T07:09:22Z</time></trkpt><trkpt lat="39.82345314765988" lon="18.333873023461557"><ele>113.0</ele><time>2026-04-05T07:09:23Z</time></trkpt><trkpt lat="39.823546711340114" lon="18.333524516908128"><ele>113.0</ele><time>2026-04-05T07:09:24.001Z</time></trkpt><trkpt lat="39.82363700720774" lon="18.333169470278726"><ele>113.0</ele><time>2026-04-05T07:09:25.001Z</time></trkpt><trkpt lat="39.82372198001565" lon="18.332812250358245"><ele>112.5</ele><time>2026-04-05T07:09:26.001Z</time></trkpt><trkpt lat="39.8238060598698" lon="18.332474771219935"><ele>112.0</ele><time>2026-04-05T07:09:27.001Z</time></trkpt><trkpt lat="39.82389300594815" lon="18.33214462340439"><ele>112.0</ele><time>2026-04-05T07:09:28.001Z</time></trkpt><trkpt lat="39.823994792417054" lon="18.331812195271024"><ele>112.0</ele><time>2026-04-05T07:09:29.001Z</time></trkpt><trkpt lat="39.82410401914104" lon="18.331480511871234"><ele>111.0</ele><time>2026-04-05T07:09:30.001Z</time></trkpt><trkpt lat="39.82421882283814" lon="18.331150945124996"><ele>110.0</ele><time>2026-04-05T07:09:31.001Z</time></trkpt><trkpt lat="39.824350747694126" lon="18.33082397736326"><ele>110.0</ele><time>2026-04-05T07:09:32.001Z</time></trkpt><trkpt lat="39.82448338676596" lon="18.33050032742205"><ele>110.0</ele><time>2026-04-05T07:09:33.001Z</time></trkpt><trkpt lat="39.82463074644154" lon="18.33018076392252"><ele>110.0</ele><time>2026-04-05T07:09:34.001Z</time></trkpt><trkpt lat="39.82478302706423" lon="18.32986351611495"><ele>110.0</ele><time>2026-04-05T07:09:35.001Z</time></trkpt><trkpt lat="39.82494197629511" lon="18.329547280292307"><ele>109.0</ele><time>2026-04-05T07:09:36.001Z</time></trkpt><trkpt lat="39.825108087034046" lon="18.32923846720906"><ele>108.0</ele><time>2026-04-05T07:09:37.001Z</time></trkpt><trkpt lat="39.825280614037474" lon="18.32892911824221"><ele>110.0</ele><time>2026-04-05T07:09:38.001Z</time></trkpt><trkpt lat="39.82545625724852" lon="18.328623681979245"><ele>112.0</ele><time>2026-04-05T07:09:39.001Z</time></trkpt><trkpt lat="39.82563445968048" lon="18.328323363723072"><ele>113.0</ele><time>2026-04-05T07:09:40.001Z</time></trkpt><trkpt lat="39.82581196937671" lon="18.328019456228738"><ele>114.0</ele><time>2026-04-05T07:09:41.001Z</time></trkpt><trkpt lat="39.82598722048385" lon="18.327708900182905"><ele>114.0</ele><time>2026-04-05T07:09:42.001Z</time></trkpt><trkpt lat="39.826158575307154" lon="18.32739486522506"><ele>114.0</ele><time>2026-04-05T07:09:43.001Z</time></trkpt><trkpt lat="39.82633614005823" lon="18.327086242454666"><ele>113.0</ele><time>2026-04-05T07:09:44.001Z</time></trkpt><trkpt lat="39.82651166217044" lon="18.326776429377418"><ele>112.0</ele><time>2026-04-05T07:09:45.001Z</time></trkpt><trkpt lat="39.82668575364419" lon="18.32647136346385"><ele>112.5</ele><time>2026-04-05T07:09:46.001Z</time></trkpt><trkpt lat="39.82686648982328" lon="18.326161919115354"><ele>113.0</ele><time>2026-04-05T07:09:47.001Z</time></trkpt><trkpt lat="39.82703921057208" lon="18.325846144090878"><ele>112.0</ele><time>2026-04-05T07:09:48.001Z</time></trkpt><trkpt lat="39.827211164216294" lon="18.32553607932493"><ele>111.0</ele><time>2026-04-05T07:09:49.001Z</time></trkpt><trkpt lat="39.82738862087778" lon="18.325224524017525"><ele>111.0</ele><time>2026-04-05T07:09:50.001Z</time></trkpt><trkpt lat="39.82755999511092" lon="18.32491302349599"><ele>111.0</ele><time>2026-04-05T07:09:51.001Z</time></trkpt><trkpt lat="39.82772725191727" lon="18.324609040898153"><ele>112.0</ele><time>2026-04-05T07:09:52.001Z</time></trkpt><trkpt lat="39.827900916793105" lon="18.324314136724922"><ele>113.0</ele><time>2026-04-05T07:09:53.001Z</time></trkpt><trkpt lat="39.82806330776829" lon="18.324018193393798"><ele>111.0</ele><time>2026-04-05T07:09:54.001Z</time></trkpt><trkpt lat="39.828231667583" lon="18.323728707417573"><ele>109.0</ele><time>2026-04-05T07:09:55.001Z</time></trkpt><trkpt lat="39.8283977916139" lon="18.323438377473288"><ele>110.0</ele><time>2026-04-05T07:09:56.001Z</time></trkpt><trkpt lat="39.82855837428376" lon="18.32314479302626"><ele>111.0</ele><time>2026-04-05T07:09:57.001Z</time></trkpt><trkpt lat="39.82872096078407" lon="18.322856591277013"><ele>111.0</ele><time>2026-04-05T07:09:58.001Z</time></trkpt><trkpt lat="39.82888255032529" lon="18.32256250025008"><ele>111.0</ele><time>2026-04-05T07:09:59.001Z</time></trkpt><trkpt lat="39.829050746328754" lon="18.322274163794027"><ele>111.0</ele><time>2026-04-05T07:10:00.001Z</time></trkpt><trkpt lat="39.82921522478573" lon="18.32197961155999"><ele>111.0</ele><time>2026-04-05T07:10:01.001Z</time></trkpt><trkpt lat="39.82937530672473" lon="18.32168425051689"><ele>110.5</ele><time>2026-04-05T07:10:02.001Z</time></trkpt><trkpt lat="39.82954096622466" lon="18.32139360729615"><ele>110.0</ele><time>2026-04-05T07:10:03.001Z</time></trkpt><trkpt lat="39.82970389453559" lon="18.32109662206219"><ele>110.0</ele><time>2026-04-05T07:10:04.001Z</time></trkpt><trkpt lat="39.82986947655331" lon="18.32079894809382"><ele>110.0</ele><time>2026-04-05T07:10:05.001Z</time></trkpt><trkpt lat="39.830034223324056" lon="18.32050073512772"><ele>110.0</ele><time>2026-04-05T07:10:06.001Z</time></trkpt><trkpt lat="39.830204504533405" lon="18.320202515599096"><ele>110.0</ele><time>2026-04-05T07:10:07.001Z</time></trkpt><trkpt lat="39.83037597442809" lon="18.319900774965667"><ele>109.5</ele><time>2026-04-05T07:10:08.001Z</time></trkpt><trkpt lat="39.83055011751726" lon="18.31959748871346"><ele>109.0</ele><time>2026-04-05T07:10:09.001Z</time></trkpt><trkpt lat="39.83071971989327" lon="18.31928851247776"><ele>109.0</ele><time>2026-04-05T07:10:10.001Z</time></trkpt><trkpt lat="39.83089306475211" lon="18.31898133021626"><ele>109.0</ele><time>2026-04-05T07:10:11.001Z</time></trkpt><trkpt lat="39.83106695924997" lon="18.31867097528506"><ele>111.0</ele><time>2026-04-05T07:10:12.001Z</time></trkpt><trkpt lat="39.83124107187895" lon="18.31836160593299"><ele>113.0</ele><time>2026-04-05T07:10:13.001Z</time></trkpt><trkpt lat="39.83141499109632" lon="18.318050472480024"><ele>113.0</ele><time>2026-04-05T07:10:14.001Z</time></trkpt><trkpt lat="39.831590408807834" lon="18.317739646144997"><ele>113.0</ele><time>2026-04-05T07:10:15.001Z</time></trkpt><trkpt lat="39.83176537747018" lon="18.317427632289657"><ele>114.5</ele><time>2026-04-05T07:10:16.001Z</time></trkpt><trkpt lat="39.83194000510092" lon="18.31711527377146"><ele>116.0</ele><time>2026-04-05T07:10:17.001Z</time></trkpt><trkpt lat="39.83213156980172" lon="18.316823624133303"><ele>116.0</ele><time>2026-04-05T07:10:18.001Z</time></trkpt><trkpt lat="39.83230771038017" lon="18.316510713345387"><ele>116.0</ele><time>2026-04-05T07:10:19.001Z</time></trkpt><trkpt lat="39.83248424749395" lon="18.316197098129873"><ele>117.5</ele><time>2026-04-05T07:10:20.001Z</time></trkpt><trkpt lat="39.83265901576309" lon="18.315886625231638"><ele>119.0</ele><time>2026-04-05T07:10:21.001Z</time></trkpt><trkpt lat="39.83283337504795" lon="18.315576990090307"><ele>119.0</ele><time>2026-04-05T07:10:22.001Z</time></trkpt><trkpt lat="39.83300707694027" lon="18.31526861362385"><ele>119.0</ele><time>2026-04-05T07:10:23.001Z</time></trkpt><trkpt lat="39.83317927914963" lon="18.314962899585332"><ele>118.5</ele><time>2026-04-05T07:10:24.001Z</time></trkpt><trkpt lat="39.833351946429616" lon="18.314656359898738"><ele>118.0</ele><time>2026-04-05T07:10:25.001Z</time></trkpt><trkpt lat="39.83352642619878" lon="18.31434660243589"><ele>118.0</ele><time>2026-04-05T07:10:26.001Z</time></trkpt><trkpt lat="39.8336975929344" lon="18.314042266492176"><ele>118.0</ele><time>2026-04-05T07:10:27.001Z</time></trkpt><trkpt lat="39.83386951261206" lon="18.313737676044997"><ele>118.0</ele><time>2026-04-05T07:10:28.001Z</time></trkpt><trkpt lat="39.83404037279202" lon="18.31343452886787"><ele>118.0</ele><time>2026-04-05T07:10:29.001Z</time></trkpt><trkpt lat="39.83421195628635" lon="18.31313009836119"><ele>118.5</ele><time>2026-04-05T07:10:30.001Z</time></trkpt><trkpt lat="39.83438242194955" lon="18.312827651175038"><ele>119.0</ele><time>2026-04-05T07:10:31.001Z</time></trkpt><trkpt lat="39.83455333900445" lon="18.312524403105147"><ele>118.0</ele><time>2026-04-05T07:10:32Z</time></trkpt><trkpt lat="39.83472341866024" lon="18.31222117306589"><ele>117.0</ele><time>2026-04-05T07:10:33Z</time></trkpt><trkpt lat="39.834881348648246" lon="18.31190242188587"><ele>117.0</ele><time>2026-04-05T07:10:34Z</time></trkpt><trkpt lat="39.83505279498501" lon="18.311601864600412"><ele>117.0</ele><time>2026-04-05T07:10:35Z</time></trkpt><trkpt lat="39.8352227048312" lon="18.31129497599311"><ele>118.0</ele><time>2026-04-05T07:10:36Z</time></trkpt><trkpt lat="39.83539363264924" lon="18.31098819758404"><ele>119.0</ele><time>2026-04-05T07:10:37Z</time></trkpt><trkpt lat="39.83557670426892" lon="18.310696372309785"><ele>119.0</ele><time>2026-04-05T07:10:38Z</time></trkpt><trkpt lat="39.83574170803507" lon="18.310381019828853"><ele>119.0</ele><time>2026-04-05T07:10:39Z</time></trkpt><trkpt lat="39.835916259984" lon="18.310077050782883"><ele>119.0</ele><time>2026-04-05T07:10:40Z</time></trkpt><trkpt lat="39.83608602853246" lon="18.309770673221962"><ele>119.0</ele><time>2026-04-05T07:10:41Z</time></trkpt><trkpt lat="39.83626045763375" lon="18.30946388584147"><ele>119.5</ele><time>2026-04-05T07:10:42Z</time></trkpt><trkpt lat="39.83643205596544" lon="18.30915692008656"><ele>120.0</ele><time>2026-04-05T07:10:43Z</time></trkpt><trkpt lat="39.83660473746614" lon="18.308851589869917"><ele>119.5</ele><time>2026-04-05T07:10:44Z</time></trkpt><trkpt lat="39.83677956969381" lon="18.30854491752266"><ele>119.0</ele><time>2026-04-05T07:10:45Z</time></trkpt><trkpt lat="39.83694741124188" lon="18.308244728987606"><ele>118.5</ele><time>2026-04-05T07:10:46Z</time></trkpt><trkpt lat="39.8371189834904" lon="18.30794085518182"><ele>118.0</ele><time>2026-04-05T07:10:47Z</time></trkpt><trkpt lat="39.83728557104458" lon="18.307636382918336"><ele>118.0</ele><time>2026-04-05T07:10:48Z</time></trkpt><trkpt lat="39.83744570179534" lon="18.30735116023764"><ele>118.0</ele><time>2026-04-05T07:10:49Z</time></trkpt><trkpt lat="39.83759843776437" lon="18.307082003629414"><ele>118.5</ele><time>2026-04-05T07:10:50Z</time></trkpt><trkpt lat="39.837764804769606" lon="18.306817003713572"><ele>119.0</ele><time>2026-04-05T07:10:51Z</time></trkpt><trkpt lat="39.83793820341307" lon="18.306553271009438"><ele>119.0</ele><time>2026-04-05T07:10:52Z</time></trkpt><trkpt lat="39.83811859785469" lon="18.30629011395441"><ele>119.0</ele><time>2026-04-05T07:10:53Z</time></trkpt><trkpt lat="39.8383040398491" lon="18.306038773679283"><ele>119.0</ele><time>2026-04-05T07:10:54Z</time></trkpt><trkpt lat="39.83849166929295" lon="18.305794134689968"><ele>119.0</ele><time>2026-04-05T07:10:55Z</time></trkpt><trkpt lat="39.83868676435663" lon="18.30555629767435"><ele>119.0</ele><time>2026-04-05T07:10:56Z</time></trkpt><trkpt lat="39.838893786156504" lon="18.305322521769902"><ele>119.0</ele><time>2026-04-05T07:10:57Z</time></trkpt><trkpt lat="39.83911300805143" lon="18.30510341817303"><ele>119.5</ele><time>2026-04-05T07:10:58Z</time></trkpt><trkpt lat="39.83933637480767" lon="18.30488324041192"><ele>120.0</ele><time>2026-04-05T07:10:59Z</time></trkpt><trkpt lat="39.839564568073094" lon="18.304665250494597"><ele>119.0</ele><time>2026-04-05T07:11:00Z</time></trkpt><trkpt lat="39.839795962050395" lon="18.304443012929113"><ele>118.0</ele><time>2026-04-05T07:11:01Z</time></trkpt><trkpt lat="39.840027628580955" lon="18.304222405546604"><ele>117.5</ele><time>2026-04-05T07:11:02Z</time></trkpt><trkpt lat="39.84026360030692" lon="18.30400282197255"><ele>117.0</ele><time>2026-04-05T07:11:03Z</time></trkpt><trkpt lat="39.840500422670786" lon="18.303776533892535"><ele>117.0</ele><time>2026-04-05T07:11:04Z</time></trkpt><trkpt lat="39.84074065035369" lon="18.30354951124211"><ele>117.0</ele><time>2026-04-05T07:11:05Z</time></trkpt><trkpt lat="39.84098328920226" lon="18.30332568284307"><ele>117.0</ele><time>2026-04-05T07:11:06Z</time></trkpt><trkpt lat="39.84122997153781" lon="18.303097826132472"><ele>117.0</ele><time>2026-04-05T07:11:07Z</time></trkpt><trkpt lat="39.84147675746519" lon="18.30287155894282"><ele>117.0</ele><time>2026-04-05T07:11:08Z</time></trkpt><trkpt lat="39.84171386023831" lon="18.302657863361425"><ele>117.0</ele><time>2026-04-05T07:11:09Z</time></trkpt><trkpt lat="39.84194160402556" lon="18.302456097305843"><ele>116.5</ele><time>2026-04-05T07:11:10Z</time></trkpt><trkpt lat="39.842157446029844" lon="18.30225900208592"><ele>116.0</ele><time>2026-04-05T07:11:11Z</time></trkpt><trkpt lat="39.84237555631242" lon="18.302065365348145"><ele>115.5</ele><time>2026-04-05T07:11:12Z</time></trkpt><trkpt lat="39.84259477911037" lon="18.301856410725783"><ele>115.0</ele><time>2026-04-05T07:11:13Z</time></trkpt><trkpt lat="39.842817618838595" lon="18.301646442334956"><ele>114.5</ele><time>2026-04-05T07:11:14Z</time></trkpt><trkpt lat="39.843040403910784" lon="18.30143340824715"><ele>114.0</ele><time>2026-04-05T07:11:15Z</time></trkpt><trkpt lat="39.84325925151168" lon="18.301219229948696"><ele>114.5</ele><time>2026-04-05T07:11:16Z</time></trkpt><trkpt lat="39.84348235341716" lon="18.301010838832987"><ele>115.0</ele><time>2026-04-05T07:11:17Z</time></trkpt><trkpt lat="39.84370745858838" lon="18.300800082757675"><ele>115.0</ele><time>2026-04-05T07:11:18Z</time></trkpt><trkpt lat="39.84393119892639" lon="18.30058857802127"><ele>115.0</ele><time>2026-04-05T07:11:19Z</time></trkpt><trkpt lat="39.8441519683465" lon="18.300371459053917"><ele>115.0</ele><time>2026-04-05T07:11:20Z</time></trkpt><trkpt lat="39.844376229429116" lon="18.300146059651713"><ele>115.0</ele><time>2026-04-05T07:11:21Z</time></trkpt><trkpt lat="39.8446086401308" lon="18.299923724584566"><ele>114.5</ele><time>2026-04-05T07:11:22Z</time></trkpt><trkpt lat="39.844853987874565" lon="18.29970287874252"><ele>114.0</ele><time>2026-04-05T07:11:23Z</time></trkpt><trkpt lat="39.84510270635478" lon="18.299476623701736"><ele>114.5</ele><time>2026-04-05T07:11:24Z</time></trkpt><trkpt lat="39.84534999335913" lon="18.29925673680475"><ele>115.0</ele><time>2026-04-05T07:11:25Z</time></trkpt><trkpt lat="39.84559599647032" lon="18.29903137468473"><ele>114.5</ele><time>2026-04-05T07:11:26Z</time></trkpt><trkpt lat="39.84584249244675" lon="18.29880257485883"><ele>114.0</ele><time>2026-04-05T07:11:27.001Z</time></trkpt><trkpt lat="39.84608693523576" lon="18.298572615061406"><ele>114.0</ele><time>2026-04-05T07:11:28.001Z</time></trkpt><trkpt lat="39.846335632003104" lon="18.2983529670555"><ele>114.0</ele><time>2026-04-05T07:11:29.001Z</time></trkpt><trkpt lat="39.846583892083444" lon="18.29812831748065"><ele>114.5</ele><time>2026-04-05T07:11:30.001Z</time></trkpt><trkpt lat="39.8468259246761" lon="18.297896216064213"><ele>115.0</ele><time>2026-04-05T07:11:31.001Z</time></trkpt><trkpt lat="39.84707113331592" lon="18.297661377503836"><ele>115.0</ele><time>2026-04-05T07:11:32.001Z</time></trkpt><trkpt lat="39.84731396047569" lon="18.297433735797785"><ele>115.0</ele><time>2026-04-05T07:11:33.001Z</time></trkpt><trkpt lat="39.847557631652485" lon="18.297205071115922"><ele>115.0</ele><time>2026-04-05T07:11:34.001Z</time></trkpt><trkpt lat="39.84780484066772" lon="18.296979790877135"><ele>115.0</ele><time>2026-04-05T07:11:35.001Z</time></trkpt><trkpt lat="39.848047021374256" lon="18.296745541791324"><ele>115.0</ele><time>2026-04-05T07:11:36.001Z</time></trkpt><trkpt lat="39.848294967061435" lon="18.296522454292745"><ele>115.0</ele><time>2026-04-05T07:11:37.001Z</time></trkpt><trkpt lat="39.84854180462379" lon="18.296295053168176"><ele>115.5</ele><time>2026-04-05T07:11:38.001Z</time></trkpt><trkpt lat="39.84878969366148" lon="18.29606735082086"><ele>116.0</ele><time>2026-04-05T07:11:39.001Z</time></trkpt><trkpt lat="39.849031673929204" lon="18.295832405214174"><ele>116.0</ele><time>2026-04-05T07:11:40.001Z</time></trkpt><trkpt lat="39.84927136427794" lon="18.29559952654587"><ele>116.0</ele><time>2026-04-05T07:11:41.001Z</time></trkpt><trkpt lat="39.84950367940374" lon="18.295374230738066"><ele>114.5</ele><time>2026-04-05T07:11:42.001Z</time></trkpt><trkpt lat="39.849737090530226" lon="18.295158189783937"><ele>113.0</ele><time>2026-04-05T07:11:43.001Z</time></trkpt><trkpt lat="39.84996453321215" lon="18.2949413408112"><ele>114.5</ele><time>2026-04-05T07:11:44.001Z</time></trkpt><trkpt lat="39.85019296274168" lon="18.294727131224878"><ele>116.0</ele><time>2026-04-05T07:11:45.001Z</time></trkpt><trkpt lat="39.850416361843536" lon="18.294512996418643"><ele>116.0</ele><time>2026-04-05T07:11:46.001Z</time></trkpt><trkpt lat="39.8506431916978" lon="18.29430558419261"><ele>116.0</ele><time>2026-04-05T07:11:47.001Z</time></trkpt><trkpt lat="39.85086082831353" lon="18.294106156236584"><ele>116.0</ele><time>2026-04-05T07:11:48.001Z</time></trkpt><trkpt lat="39.851059129630436" lon="18.29392220385449"><ele>116.0</ele><time>2026-04-05T07:11:49.001Z</time></trkpt><trkpt lat="39.851255489597165" lon="18.29373802442715"><ele>114.5</ele><time>2026-04-05T07:11:50.001Z</time></trkpt><trkpt lat="39.85144592071937" lon="18.293554921461293"><ele>113.0</ele><time>2026-04-05T07:11:51.001Z</time></trkpt><trkpt lat="39.85163345404304" lon="18.293382218027677"><ele>114.0</ele><time>2026-04-05T07:11:52.001Z</time></trkpt><trkpt lat="39.851819492421946" lon="18.293207196436565"><ele>115.0</ele><time>2026-04-05T07:11:53.001Z</time></trkpt><trkpt lat="39.85200662876576" lon="18.293033786605864"><ele>115.0</ele><time>2026-04-05T07:11:54.001Z</time></trkpt><trkpt lat="39.852192783838284" lon="18.29286305181318"><ele>115.0</ele><time>2026-04-05T07:11:55.001Z</time></trkpt><trkpt lat="39.85237824385079" lon="18.292689016250495"><ele>115.0</ele><time>2026-04-05T07:11:56.001Z</time></trkpt><trkpt lat="39.85256465870699" lon="18.29251448578496"><ele>115.0</ele><time>2026-04-05T07:11:57.001Z</time></trkpt><trkpt lat="39.85275207831162" lon="18.292338768447884"><ele>115.0</ele><time>2026-04-05T07:11:58.001Z</time></trkpt><trkpt lat="39.85294066578046" lon="18.292160108731323"><ele>115.0</ele><time>2026-04-05T07:11:59.001Z</time></trkpt><trkpt lat="39.85313037157711" lon="18.2919786547704"><ele>115.0</ele><time>2026-04-05T07:12:00.001Z</time></trkpt><trkpt lat="39.85332184915142" lon="18.29179665717175"><ele>115.0</ele><time>2026-04-05T07:12:01.001Z</time></trkpt><trkpt lat="39.853518113207876" lon="18.2916092845995"><ele>115.5</ele><time>2026-04-05T07:12:02.001Z</time></trkpt><trkpt lat="39.8537152168224" lon="18.291417194234317"><ele>116.0</ele><time>2026-04-05T07:12:03.001Z</time></trkpt><trkpt lat="39.85391635565576" lon="18.291225480521025"><ele>116.0</ele><time>2026-04-05T07:12:04.001Z</time></trkpt><trkpt lat="39.854121350597644" lon="18.291037276836764"><ele>116.0</ele><time>2026-04-05T07:12:05.001Z</time></trkpt><trkpt lat="39.85432454041151" lon="18.290843776576743"><ele>116.5</ele><time>2026-04-05T07:12:06.001Z</time></trkpt><trkpt lat="39.8545305322613" lon="18.290639602364166"><ele>117.0</ele><time>2026-04-05T07:12:07.001Z</time></trkpt><trkpt lat="39.854741840253254" lon="18.290446661547403"><ele>117.0</ele><time>2026-04-05T07:12:08.001Z</time></trkpt><trkpt lat="39.85495370351306" lon="18.29024415757462"><ele>117.0</ele><time>2026-04-05T07:12:09.001Z</time></trkpt><trkpt lat="39.855174169701634" lon="18.290056642734903"><ele>118.0</ele><time>2026-04-05T07:12:10.001Z</time></trkpt><trkpt lat="39.85538956860894" lon="18.289854632987073"><ele>119.0</ele><time>2026-04-05T07:12:11.001Z</time></trkpt><trkpt lat="39.85559573415812" lon="18.289634632179776"><ele>119.0</ele><time>2026-04-05T07:12:12.001Z</time></trkpt><trkpt lat="39.855815313611814" lon="18.28943282586551"><ele>119.0</ele><time>2026-04-05T07:12:13.001Z</time></trkpt><trkpt lat="39.85603009237905" lon="18.289227145560748"><ele>119.0</ele><time>2026-04-05T07:12:14.001Z</time></trkpt><trkpt lat="39.85624605657892" lon="18.289022444651856"><ele>119.0</ele><time>2026-04-05T07:12:15.001Z</time></trkpt><trkpt lat="39.85646137644951" lon="18.288820460181487"><ele>119.5</ele><time>2026-04-05T07:12:16.001Z</time></trkpt><trkpt lat="39.85667826575205" lon="18.2886191968049"><ele>120.0</ele><time>2026-04-05T07:12:17.001Z</time></trkpt><trkpt lat="39.856896907650764" lon="18.288415615473458"><ele>120.0</ele><time>2026-04-05T07:12:18.001Z</time></trkpt><trkpt lat="39.85711820098116" lon="18.288210054335085"><ele>120.0</ele><time>2026-04-05T07:12:19.001Z</time></trkpt><trkpt lat="39.85733530343445" lon="18.288001631170467"><ele>120.0</ele><time>2026-04-05T07:12:20.001Z</time></trkpt><trkpt lat="39.8575557230857" lon="18.287796829022394"><ele>120.0</ele><time>2026-04-05T07:12:21.001Z</time></trkpt><trkpt lat="39.85777936860617" lon="18.28758914652902"><ele>119.0</ele><time>2026-04-05T07:12:22.001Z</time></trkpt><trkpt lat="39.85799848867977" lon="18.287377408521294"><ele>118.0</ele><time>2026-04-05T07:12:23.001Z</time></trkpt><trkpt lat="39.8582169795256" lon="18.287169808456447"><ele>118.0</ele><time>2026-04-05T07:12:24.001Z</time></trkpt><trkpt lat="39.85843545141789" lon="18.286957931421213"><ele>118.0</ele><time>2026-04-05T07:12:25.001Z</time></trkpt><trkpt lat="39.858656328643285" lon="18.286751954209098"><ele>117.5</ele><time>2026-04-05T07:12:26.001Z</time></trkpt><trkpt lat="39.85888165166393" lon="18.286544939419358"><ele>117.0</ele><time>2026-04-05T07:12:27.001Z</time></trkpt><trkpt lat="39.859103680387314" lon="18.286339093377887"><ele>118.0</ele><time>2026-04-05T07:12:28.001Z</time></trkpt><trkpt lat="39.859326634663454" lon="18.286130724403797"><ele>119.0</ele><time>2026-04-05T07:12:29.001Z</time></trkpt><trkpt lat="39.85954537019794" lon="18.285918567600504"><ele>119.0</ele><time>2026-04-05T07:12:30.001Z</time></trkpt><trkpt lat="39.85976683809163" lon="18.285707463929267"><ele>119.0</ele><time>2026-04-05T07:12:31.001Z</time></trkpt><trkpt lat="39.85999068572356" lon="18.285495876397643"><ele>119.5</ele><time>2026-04-05T07:12:32.001Z</time></trkpt><trkpt lat="39.860213407497824" lon="18.285284166564626"><ele>120.0</ele><time>2026-04-05T07:12:33.001Z</time></trkpt><trkpt lat="39.86043412297859" lon="18.285074634137953"><ele>120.0</ele><time>2026-04-05T07:12:34.001Z</time></trkpt><trkpt lat="39.860646850912154" lon="18.284873481704004"><ele>120.0</ele><time>2026-04-05T07:12:35.001Z</time></trkpt><trkpt lat="39.86086219722543" lon="18.28467702454945"><ele>120.5</ele><time>2026-04-05T07:12:36.001Z</time></trkpt><trkpt lat="39.861069894220215" lon="18.28447868041925"><ele>121.0</ele><time>2026-04-05T07:12:37.001Z</time></trkpt><trkpt lat="39.861276044778535" lon="18.284282826780682"><ele>121.0</ele><time>2026-04-05T07:12:38Z</time></trkpt><trkpt lat="39.86147668245113" lon="18.28409055418978"><ele>121.0</ele><time>2026-04-05T07:12:39Z</time></trkpt><trkpt lat="39.86167982699432" lon="18.283900800682954"><ele>120.0</ele><time>2026-04-05T07:12:40Z</time></trkpt><trkpt lat="39.86189001892506" lon="18.28372471485055"><ele>119.0</ele><time>2026-04-05T07:12:41Z</time></trkpt><trkpt lat="39.862081288441146" lon="18.28351906126738"><ele>119.0</ele><time>2026-04-05T07:12:42Z</time></trkpt><trkpt lat="39.862288278661474" lon="18.283329391036776"><ele>119.0</ele><time>2026-04-05T07:12:43Z</time></trkpt><trkpt lat="39.86250017887468" lon="18.283136869819618"><ele>121.0</ele><time>2026-04-05T07:12:44Z</time></trkpt><trkpt lat="39.86271218049965" lon="18.282935500977565"><ele>123.0</ele><time>2026-04-05T07:12:45Z</time></trkpt><trkpt lat="39.86292643847418" lon="18.28273540734559"><ele>123.0</ele><time>2026-04-05T07:12:46Z</time></trkpt><trkpt lat="39.863130355666506" lon="18.28253782139687"><ele>123.0</ele><time>2026-04-05T07:12:47Z</time></trkpt><trkpt lat="39.86334193421728" lon="18.282340825209253"><ele>124.5</ele><time>2026-04-05T07:12:48Z</time></trkpt><trkpt lat="39.86355168715802" lon="18.282140031143868"><ele>126.0</ele><time>2026-04-05T07:12:49Z</time></trkpt><trkpt lat="39.86376962616104" lon="18.281941113219435"><ele>126.0</ele><time>2026-04-05T07:12:50Z</time></trkpt><trkpt lat="39.863985129058456" lon="18.281738318445147"><ele>126.0</ele><time>2026-04-05T07:12:51Z</time></trkpt><trkpt lat="39.86420377063776" lon="18.281534123408054"><ele>126.5</ele><time>2026-04-05T07:12:52Z</time></trkpt><trkpt lat="39.864417062010865" lon="18.281325499481827"><ele>127.0</ele><time>2026-04-05T07:12:53Z</time></trkpt><trkpt lat="39.8646427595346" lon="18.28113095495411"><ele>127.0</ele><time>2026-04-05T07:12:54Z</time></trkpt><trkpt lat="39.86486193411904" lon="18.280924229763357"><ele>127.0</ele><time>2026-04-05T07:12:55Z</time></trkpt><trkpt lat="39.86508204135219" lon="18.280716792488818"><ele>126.5</ele><time>2026-04-05T07:12:56Z</time></trkpt><trkpt lat="39.865301001529694" lon="18.280510199260757"><ele>126.0</ele><time>2026-04-05T07:12:57Z</time></trkpt><trkpt lat="39.865514327339696" lon="18.28030572775644"><ele>126.0</ele><time>2026-04-05T07:12:58Z</time></trkpt><trkpt lat="39.865726623253614" lon="18.280105767705773"><ele>126.0</ele><time>2026-04-05T07:12:59Z</time></trkpt><trkpt lat="39.86594006112669" lon="18.279912835314196"><ele>126.0</ele><time>2026-04-05T07:13:00Z</time></trkpt><trkpt lat="39.86616196196888" lon="18.279728930341328"><ele>126.0</ele><time>2026-04-05T07:13:01Z</time></trkpt><trkpt lat="39.86639311042714" lon="18.279557419175603"><ele>126.0</ele><time>2026-04-05T07:13:02Z</time></trkpt><trkpt lat="39.866636807314045" lon="18.27940303592951"><ele>126.0</ele><time>2026-04-05T07:13:03Z</time></trkpt><trkpt lat="39.86687838918615" lon="18.279244603770657"><ele>127.5</ele><time>2026-04-05T07:13:04Z</time></trkpt><trkpt lat="39.86713138832481" lon="18.279120164045928"><ele>129.0</ele><time>2026-04-05T07:13:05Z</time></trkpt><trkpt lat="39.86738835339527" lon="18.2790122886538"><ele>129.0</ele><time>2026-04-05T07:13:06Z</time></trkpt><trkpt lat="39.86764868883748" lon="18.278910646161705"><ele>129.0</ele><time>2026-04-05T07:13:07Z</time></trkpt><trkpt lat="39.86791048517916" lon="18.27880866189934"><ele>129.0</ele><time>2026-04-05T07:13:08Z</time></trkpt><trkpt lat="39.868174395121535" lon="18.27870370558266"><ele>129.0</ele><time>2026-04-05T07:13:09Z</time></trkpt><trkpt lat="39.86843459759044" lon="18.27859877363376"><ele>129.5</ele><time>2026-04-05T07:13:10Z</time></trkpt><trkpt lat="39.868695976750715" lon="18.27849520873123"><ele>130.0</ele><time>2026-04-05T07:13:11Z</time></trkpt><trkpt lat="39.868956759131315" lon="18.278393571895435"><ele>130.0</ele><time>2026-04-05T07:13:12Z</time></trkpt><trkpt lat="39.86921978261198" lon="18.278291998151996"><ele>130.0</ele><time>2026-04-05T07:13:13Z</time></trkpt><trkpt lat="39.869480051254" lon="18.278187291179044"><ele>130.0</ele><time>2026-04-05T07:13:14Z</time></trkpt><trkpt lat="39.869735201625666" lon="18.27808523217386"><ele>130.0</ele><time>2026-04-05T07:13:15Z</time></trkpt><trkpt lat="39.86999440452716" lon="18.277984269629656"><ele>129.5</ele><time>2026-04-05T07:13:16Z</time></trkpt><trkpt lat="39.87024662265574" lon="18.27788362009008"><ele>129.0</ele><time>2026-04-05T07:13:17Z</time></trkpt><trkpt lat="39.87049953754325" lon="18.277783736664386"><ele>129.0</ele><time>2026-04-05T07:13:18Z</time></trkpt><trkpt lat="39.870754913844294" lon="18.277685011613233"><ele>129.0</ele><time>2026-04-05T07:13:19Z</time></trkpt><trkpt lat="39.871007922426756" lon="18.277581890056286"><ele>129.5</ele><time>2026-04-05T07:13:20Z</time></trkpt><trkpt lat="39.8712579376796" lon="18.277481428614323"><ele>130.0</ele><time>2026-04-05T07:13:21Z</time></trkpt><trkpt lat="39.87151075091158" lon="18.277382949786386"><ele>130.0</ele><time>2026-04-05T07:13:22Z</time></trkpt><trkpt lat="39.8717638147908" lon="18.277281145634927"><ele>130.0</ele><time>2026-04-05T07:13:23Z</time></trkpt><trkpt lat="39.87200616520498" lon="18.277180698138224"><ele>130.5</ele><time>2026-04-05T07:13:24Z</time></trkpt><trkpt lat="39.87225937396265" lon="18.27708225625566"><ele>131.0</ele><time>2026-04-05T07:13:25Z</time></trkpt><trkpt lat="39.87252067400169" lon="18.27698564121303"><ele>130.0</ele><time>2026-04-05T07:13:26Z</time></trkpt><trkpt lat="39.8727799744894" lon="18.276885152277405"><ele>129.0</ele><time>2026-04-05T07:13:27Z</time></trkpt><trkpt lat="39.87304468174823" lon="18.276782957084617"><ele>129.0</ele><time>2026-04-05T07:13:28Z</time></trkpt><trkpt lat="39.87330333806764" lon="18.27667983011648"><ele>129.0</ele><time>2026-04-05T07:13:29Z</time></trkpt><trkpt lat="39.87355986216272" lon="18.276578347251696"><ele>128.0</ele><time>2026-04-05T07:13:30Z</time></trkpt><trkpt lat="39.873819315445864" lon="18.276473967602975"><ele>127.0</ele><time>2026-04-05T07:13:31Z</time></trkpt><trkpt lat="39.874078894127464" lon="18.27637302162956"><ele>125.5</ele><time>2026-04-05T07:13:32Z</time></trkpt><trkpt lat="39.87433688305648" lon="18.276269435802092"><ele>124.0</ele><time>2026-04-05T07:13:33Z</time></trkpt><trkpt lat="39.874598728527126" lon="18.276166354482406"><ele>124.0</ele><time>2026-04-05T07:13:34Z</time></trkpt><trkpt lat="39.874866617707305" lon="18.27606114548379"><ele>124.0</ele><time>2026-04-05T07:13:35Z</time></trkpt><trkpt lat="39.8751350751805" lon="18.275955459159523"><ele>123.0</ele><time>2026-04-05T07:13:36Z</time></trkpt><trkpt lat="39.875399299053406" lon="18.275847167388395"><ele>122.0</ele><time>2026-04-05T07:13:37Z</time></trkpt><trkpt lat="39.875665759109445" lon="18.275743949364212"><ele>122.0</ele><time>2026-04-05T07:13:38Z</time></trkpt><trkpt lat="39.875928922169074" lon="18.27564036591908"><ele>122.0</ele><time>2026-04-05T07:13:39.001Z</time></trkpt><trkpt lat="39.876183309563" lon="18.275540285949685"><ele>121.5</ele><time>2026-04-05T07:13:40.001Z</time></trkpt><trkpt lat="39.876437694474085" lon="18.27543736028049"><ele>121.0</ele><time>2026-04-05T07:13:41.001Z</time></trkpt><trkpt lat="39.87669670136563" lon="18.275340593040866"><ele>120.0</ele><time>2026-04-05T07:13:42.001Z</time></trkpt><trkpt lat="39.8769567109217" lon="18.275242543723913"><ele>119.0</ele><time>2026-04-05T07:13:43.001Z</time></trkpt><trkpt lat="39.87721654307044" lon="18.27514367823205"><ele>119.0</ele><time>2026-04-05T07:13:44.001Z</time></trkpt><trkpt lat="39.87748198407937" lon="18.275043176344"><ele>119.0</ele><time>2026-04-05T07:13:45.001Z</time></trkpt><trkpt lat="39.87775131886435" lon="18.274934099887403"><ele>119.0</ele><time>2026-04-05T07:13:46.001Z</time></trkpt><trkpt lat="39.87801587586536" lon="18.2748300180369"><ele>119.0</ele><time>2026-04-05T07:13:47.001Z</time></trkpt><trkpt lat="39.87828174659418" lon="18.2747239746618"><ele>117.5</ele><time>2026-04-05T07:13:48.001Z</time></trkpt><trkpt lat="39.878550708307785" lon="18.274615738425283"><ele>116.0</ele><time>2026-04-05T07:13:49.001Z</time></trkpt><trkpt lat="39.87882257906728" lon="18.274506481983643"><ele>116.0</ele><time>2026-04-05T07:13:50.001Z</time></trkpt><trkpt lat="39.87909413023689" lon="18.274396521939657"><ele>116.0</ele><time>2026-04-05T07:13:51.001Z</time></trkpt><trkpt lat="39.879367534296186" lon="18.27429067258655"><ele>114.5</ele><time>2026-04-05T07:13:52.001Z</time></trkpt><trkpt lat="39.87963878801698" lon="18.274184211193667"><ele>113.0</ele><time>2026-04-05T07:13:53.001Z</time></trkpt><trkpt lat="39.87990724385893" lon="18.274077220109383"><ele>113.5</ele><time>2026-04-05T07:13:54.001Z</time></trkpt><trkpt lat="39.880166014462674" lon="18.273980371371138"><ele>114.0</ele><time>2026-04-05T07:13:55.001Z</time></trkpt><trkpt lat="39.880420026342776" lon="18.2738798802332"><ele>114.0</ele><time>2026-04-05T07:13:56.001Z</time></trkpt><trkpt lat="39.88067615681147" lon="18.27378055713709"><ele>114.0</ele><time>2026-04-05T07:13:57.001Z</time></trkpt><trkpt lat="39.88092582706676" lon="18.27368369674479"><ele>111.5</ele><time>2026-04-05T07:13:58.001Z</time></trkpt><trkpt lat="39.88117071867736" lon="18.273583828510358"><ele>109.0</ele><time>2026-04-05T07:13:59.001Z</time></trkpt><trkpt lat="39.881409258213445" lon="18.27348166064091"><ele>109.0</ele><time>2026-04-05T07:14:00.001Z</time></trkpt><trkpt lat="39.881648345203146" lon="18.27338200215263"><ele>109.0</ele><time>2026-04-05T07:14:01.001Z</time></trkpt><trkpt lat="39.88188155689274" lon="18.273277622282766"><ele>108.0</ele><time>2026-04-05T07:14:02.001Z</time></trkpt><trkpt lat="39.8821027378444" lon="18.27315995632808"><ele>107.0</ele><time>2026-04-05T07:14:03.001Z</time></trkpt><trkpt lat="39.88231946916212" lon="18.273025540125452"><ele>107.0</ele><time>2026-04-05T07:14:04.001Z</time></trkpt><trkpt lat="39.8825285217785" lon="18.272876873124694"><ele>107.0</ele><time>2026-04-05T07:14:05.001Z</time></trkpt><trkpt lat="39.882726645759085" lon="18.272709578668174"><ele>105.5</ele><time>2026-04-05T07:14:06.001Z</time></trkpt><trkpt lat="39.88291459160768" lon="18.272523987295987"><ele>104.0</ele><time>2026-04-05T07:14:07.001Z</time></trkpt><trkpt lat="39.88310082955583" lon="18.27233469587973"><ele>104.5</ele><time>2026-04-05T07:14:08.001Z</time></trkpt><trkpt lat="39.883282592597844" lon="18.272124382371306"><ele>105.0</ele><time>2026-04-05T07:14:09.001Z</time></trkpt><trkpt lat="39.88346331845242" lon="18.27190940685651"><ele>105.0</ele><time>2026-04-05T07:14:10.001Z</time></trkpt><trkpt lat="39.88363863869246" lon="18.27168213763837"><ele>105.0</ele><time>2026-04-05T07:14:11.001Z</time></trkpt><trkpt lat="39.88381547766499" lon="18.27145180818061"><ele>105.0</ele><time>2026-04-05T07:14:12.001Z</time></trkpt><trkpt lat="39.88399687372112" lon="18.271217264176485"><ele>105.0</ele><time>2026-04-05T07:14:13.001Z</time></trkpt><trkpt lat="39.88417871058723" lon="18.27098016852272"><ele>104.5</ele><time>2026-04-05T07:14:14.001Z</time></trkpt><trkpt lat="39.88437693606552" lon="18.270757893046287"><ele>104.0</ele><time>2026-04-05T07:14:15.001Z</time></trkpt><trkpt lat="39.884563776835485" lon="18.27052027068822"><ele>104.0</ele><time>2026-04-05T07:14:16.001Z</time></trkpt><trkpt lat="39.88475422286717" lon="18.270279068674984"><ele>104.0</ele><time>2026-04-05T07:14:17.001Z</time></trkpt><trkpt lat="39.88494858705237" lon="18.270031901068336"><ele>104.0</ele><time>2026-04-05T07:14:18.001Z</time></trkpt><trkpt lat="39.88514587169741" lon="18.269781870008607"><ele>104.0</ele><time>2026-04-05T07:14:19.001Z</time></trkpt><trkpt lat="39.885341289839126" lon="18.26953432161432"><ele>103.5</ele><time>2026-04-05T07:14:20.001Z</time></trkpt><trkpt lat="39.8855397351987" lon="18.269282940619433"><ele>103.0</ele><time>2026-04-05T07:14:21.001Z</time></trkpt><trkpt lat="39.88574021465372" lon="18.269028982911472"><ele>103.0</ele><time>2026-04-05T07:14:22.001Z</time></trkpt><trkpt lat="39.88594247529868" lon="18.268772674892055"><ele>103.0</ele><time>2026-04-05T07:14:23.001Z</time></trkpt><trkpt lat="39.886145407866344" lon="18.268514570151382"><ele>103.0</ele><time>2026-04-05T07:14:24.001Z</time></trkpt><trkpt lat="39.886346443624944" lon="18.26825720586809"><ele>103.0</ele><time>2026-04-05T07:14:25.001Z</time></trkpt><trkpt lat="39.88655291504905" lon="18.267997235871345"><ele>103.0</ele><time>2026-04-05T07:14:26.001Z</time></trkpt><trkpt lat="39.88675672815141" lon="18.267741058702928"><ele>103.0</ele><time>2026-04-05T07:14:27.001Z</time></trkpt><trkpt lat="39.88696391096907" lon="18.267478885588385"><ele>103.0</ele><time>2026-04-05T07:14:28.001Z</time></trkpt><trkpt lat="39.8871706591947" lon="18.267215709810724"><ele>103.0</ele><time>2026-04-05T07:14:29.001Z</time></trkpt><trkpt lat="39.88737770882206" lon="18.266952081838188"><ele>103.0</ele><time>2026-04-05T07:14:30.001Z</time></trkpt><trkpt lat="39.88758512229156" lon="18.266688079528446"><ele>103.0</ele><time>2026-04-05T07:14:31.001Z</time></trkpt><trkpt lat="39.88779345642209" lon="18.266424350677358"><ele>102.0</ele><time>2026-04-05T07:14:32.001Z</time></trkpt><trkpt lat="39.887998308283755" lon="18.266163187832202"><ele>101.0</ele><time>2026-04-05T07:14:33.001Z</time></trkpt><trkpt lat="39.8881906473163" lon="18.265890745401467"><ele>101.0</ele><time>2026-04-05T07:14:34.001Z</time></trkpt><trkpt lat="39.88840204559519" lon="18.265622113632592"><ele>101.0</ele><time>2026-04-05T07:14:35.001Z</time></trkpt><trkpt lat="39.88860994593262" lon="18.265358971435997"><ele>99.5</ele><time>2026-04-05T07:14:36.001Z</time></trkpt><trkpt lat="39.888814355969544" lon="18.265102436837086"><ele>98.0</ele><time>2026-04-05T07:14:37.001Z</time></trkpt><trkpt lat="39.88901356468984" lon="18.264851615873653"><ele>98.5</ele><time>2026-04-05T07:14:38.001Z</time></trkpt><trkpt lat="39.88921175210965" lon="18.264602306888627"><ele>99.0</ele><time>2026-04-05T07:14:39.001Z</time></trkpt><trkpt lat="39.889414186782226" lon="18.264351392028384"><ele>99.0</ele><time>2026-04-05T07:14:40.001Z</time></trkpt><trkpt lat="39.889615044767055" lon="18.264095311772547"><ele>99.0</ele><time>2026-04-05T07:14:41.001Z</time></trkpt><trkpt lat="39.88981965085756" lon="18.263833825201647"><ele>99.0</ele><time>2026-04-05T07:14:42.001Z</time></trkpt><trkpt lat="39.890033733821205" lon="18.26358476927242"><ele>99.0</ele><time>2026-04-05T07:14:43.001Z</time></trkpt><trkpt lat="39.890239152617234" lon="18.263324494627586"><ele>100.0</ele><time>2026-04-05T07:14:44Z</time></trkpt><trkpt lat="39.8904455744116" lon="18.263062253978756"><ele>101.0</ele><time>2026-04-05T07:14:45Z</time></trkpt><trkpt lat="39.89065344985443" lon="18.262798205272748"><ele>101.0</ele><time>2026-04-05T07:14:46Z</time></trkpt><trkpt lat="39.89086395777337" lon="18.26253222481133"><ele>101.0</ele><time>2026-04-05T07:14:47Z</time></trkpt><trkpt lat="39.89107284111395" lon="18.26226924111651"><ele>99.0</ele><time>2026-04-05T07:14:48Z</time></trkpt><trkpt lat="39.8912808942108" lon="18.26200557144811"><ele>97.0</ele><time>2026-04-05T07:14:49Z</time></trkpt><trkpt lat="39.89148205264391" lon="18.261748021553505"><ele>97.0</ele><time>2026-04-05T07:14:50Z</time></trkpt><trkpt lat="39.89167334123633" lon="18.26147673784023"><ele>97.0</ele><time>2026-04-05T07:14:51Z</time></trkpt><trkpt lat="39.89187049845686" lon="18.261230077705246"><ele>98.0</ele><time>2026-04-05T07:14:52Z</time></trkpt><trkpt lat="39.89205560336708" lon="18.260992835420858"><ele>99.0</ele><time>2026-04-05T07:14:53Z</time></trkpt><trkpt lat="39.892236744322155" lon="18.260763200944183"><ele>99.0</ele><time>2026-04-05T07:14:54Z</time></trkpt><trkpt lat="39.892413910942" lon="18.260539022749406"><ele>99.0</ele><time>2026-04-05T07:14:55Z</time></trkpt><trkpt lat="39.892588042507626" lon="18.260317468520327"><ele>99.0</ele><time>2026-04-05T07:14:56Z</time></trkpt><trkpt lat="39.892758508576804" lon="18.260098831846012"><ele>99.0</ele><time>2026-04-05T07:14:57Z</time></trkpt><trkpt lat="39.89292790211417" lon="18.25988025850791"><ele>100.0</ele><time>2026-04-05T07:14:58Z</time></trkpt><trkpt lat="39.8930962174478" lon="18.259661782109166"><ele>101.0</ele><time>2026-04-05T07:14:59Z</time></trkpt><trkpt lat="39.89326235630082" lon="18.259469394600103"><ele>101.0</ele><time>2026-04-05T07:15:00Z</time></trkpt><trkpt lat="39.89340690599907" lon="18.25927530409649"><ele>101.0</ele><time>2026-04-05T07:15:01Z</time></trkpt><trkpt lat="39.89354312444914" lon="18.25909441300159"><ele>101.0</ele><time>2026-04-05T07:15:02Z</time></trkpt><trkpt lat="39.89367654923913" lon="18.25891721223843"><ele>100.66666666666666</ele><time>2026-04-05T07:15:03Z</time></trkpt><trkpt lat="39.89381520374248" lon="18.25873080071593"><ele>100.33333333333334</ele><time>2026-04-05T07:15:04Z</time></trkpt><trkpt lat="39.89395726008625" lon="18.258538736764507"><ele>100.0</ele><time>2026-04-05T07:15:05Z</time></trkpt><trkpt lat="39.894084202977034" lon="18.25833600182145"><ele>100.0</ele><time>2026-04-05T07:15:06Z</time></trkpt><trkpt lat="39.89421572020561" lon="18.25816395359493"><ele>100.0</ele><time>2026-04-05T07:15:07Z</time></trkpt><trkpt lat="39.894338234320195" lon="18.258006306981837"><ele>100.0</ele><time>2026-04-05T07:15:08Z</time></trkpt><trkpt lat="39.89445347527015" lon="18.25785524892168"><ele>100.0</ele><time>2026-04-05T07:15:09Z</time></trkpt><trkpt lat="39.89456035815485" lon="18.257711916406187"><ele>100.0</ele><time>2026-04-05T07:15:10Z</time></trkpt><trkpt lat="39.89465708762031" lon="18.257581376829158"><ele>100.0</ele><time>2026-04-05T07:15:11Z</time></trkpt><trkpt lat="39.894745134964396" lon="18.2574689045884"><ele>100.0</ele><time>2026-04-05T07:15:12Z</time></trkpt><trkpt lat="39.894828030075736" lon="18.257375377670726"><ele>100.00000000000001</ele><time>2026-04-05T07:15:13Z</time></trkpt><trkpt lat="39.89490588132645" lon="18.257310096879465"><ele>100.0</ele><time>2026-04-05T07:15:14Z</time></trkpt><trkpt lat="39.89498526440908" lon="18.257263105833943"><ele>100.0</ele><time>2026-04-05T07:15:15Z</time></trkpt><trkpt lat="39.895060217847586" lon="18.257238509192327"><ele>100.0</ele><time>2026-04-05T07:15:16Z</time></trkpt><trkpt lat="39.89513058501143" lon="18.25721495207591"><ele>100.00000000000001</ele><time>2026-04-05T07:15:17Z</time></trkpt><trkpt lat="39.89519310760546" lon="18.2571971486763"><ele>100.0</ele><time>2026-04-05T07:15:18Z</time></trkpt><trkpt lat="39.895259284793035" lon="18.257201850807256"><ele>100.4</ele><time>2026-04-05T07:15:19Z</time></trkpt><trkpt lat="39.89533149496646" lon="18.257183362970377"><ele>100.8</ele><time>2026-04-05T07:15:20Z</time></trkpt><trkpt lat="39.89543111351601" lon="18.257275354114775"><ele>101.19999999999999</ele><time>2026-04-05T07:15:21Z</time></trkpt><trkpt lat="39.89552531293161" lon="18.257354571219185"><ele>101.6</ele><time>2026-04-05T07:15:22Z</time></trkpt><trkpt lat="39.895635623429335" lon="18.257468376436076"><ele>102.0</ele><time>2026-04-05T07:15:23Z</time></trkpt><trkpt lat="39.895754257323645" lon="18.257609105884374"><ele>102.0</ele><time>2026-04-05T07:15:24Z</time></trkpt><trkpt lat="39.895889866159656" lon="18.257762126955733"><ele>102.0</ele><time>2026-04-05T07:15:25Z</time></trkpt><trkpt lat="39.89602341592842" lon="18.25789358646418"><ele>102.0</ele><time>2026-04-05T07:15:26Z</time></trkpt><trkpt lat="39.896135319741504" lon="18.25800807568735"><ele>102.0</ele><time>2026-04-05T07:15:27Z</time></trkpt><trkpt lat="39.89622232306431" lon="18.258115302811074"><ele>102.0</ele><time>2026-04-05T07:15:28Z</time></trkpt><trkpt lat="39.896310875620806" lon="18.25817837178058"><ele>102.0</ele><time>2026-04-05T07:15:29Z</time></trkpt><trkpt lat="39.89638105759822" lon="18.2582125128734"><ele>102.0</ele><time>2026-04-05T07:15:30Z</time></trkpt><trkpt lat="39.89649191483971" lon="18.2581667404081"><ele>102.0</ele><time>2026-04-05T07:15:32Z</time></trkpt><trkpt lat="39.896594826359916" lon="18.258107261558536"><ele>102.0</ele><time>2026-04-05T07:15:34Z</time></trkpt><trkpt lat="39.89665893676364" lon="18.25806769035576"><ele>102.0</ele><time>2026-04-05T07:15:35Z</time></trkpt><trkpt lat="39.896733772446055" lon="18.258047684906018"><ele>102.0</ele><time>2026-04-05T07:15:36Z</time></trkpt><trkpt lat="39.89680352326965" lon="18.257949208713345"><ele>102.0</ele><time>2026-04-05T07:15:38Z</time></trkpt><trkpt lat="39.89675887548416" lon="18.257784637870575"><ele>102.0</ele><time>2026-04-05T07:15:40Z</time></trkpt><trkpt lat="39.89665051553082" lon="18.257743981452702"><ele>102.0</ele><time>2026-04-05T07:15:41Z</time></trkpt><trkpt lat="39.896538185350465" lon="18.25764648683532"><ele>102.0</ele><time>2026-04-05T07:15:42Z</time></trkpt><trkpt lat="39.89640284202608" lon="18.25753511830519"><ele>102.0</ele><time>2026-04-05T07:15:43Z</time></trkpt><trkpt lat="39.896272528492055" lon="18.25742514199102"><ele>102.0</ele><time>2026-04-05T07:15:44Z</time></trkpt><trkpt lat="39.896144210079775" lon="18.2573120580004"><ele>102.0</ele><time>2026-04-05T07:15:45Z</time></trkpt><trkpt lat="39.89602821745945" lon="18.25720577290959"><ele>102.0</ele><time>2026-04-05T07:15:46Z</time></trkpt><trkpt lat="39.89594454206244" lon="18.257117168272487"><ele>102.0</ele><time>2026-04-05T07:15:47Z</time></trkpt><trkpt lat="39.89587188183572" lon="18.25701053459257"><ele>102.0</ele><time>2026-04-05T07:15:48Z</time></trkpt><trkpt lat="39.895810525184636" lon="18.25688927468702"><ele>102.0</ele><time>2026-04-05T07:15:49Z</time></trkpt><trkpt lat="39.89576899244412" lon="18.256772974731586"><ele>102.0</ele><time>2026-04-05T07:15:50Z</time></trkpt><trkpt lat="39.895746738816044" lon="18.25664588933406"><ele>102.0</ele><time>2026-04-05T07:15:51Z</time></trkpt><trkpt lat="39.895736634434876" lon="18.256497784641738"><ele>102.0</ele><time>2026-04-05T07:15:52Z</time></trkpt><trkpt lat="39.89573861840808" lon="18.25633603112557"><ele>101.8</ele><time>2026-04-05T07:15:53.001Z</time></trkpt><trkpt lat="39.895766797644235" lon="18.256200433038927"><ele>101.6</ele><time>2026-04-05T07:15:54.001Z</time></trkpt><trkpt lat="39.895809173457835" lon="18.256080413501998"><ele>101.39999999999999</ele><time>2026-04-05T07:15:55.001Z</time></trkpt><trkpt lat="39.89586674593653" lon="18.255970033911318"><ele>101.19999999999999</ele><time>2026-04-05T07:15:56.001Z</time></trkpt><trkpt lat="39.895947821102425" lon="18.255858337594276"><ele>101.0</ele><time>2026-04-05T07:15:57.001Z</time></trkpt><trkpt lat="39.89605297519271" lon="18.255720844989177"><ele>100.0</ele><time>2026-04-05T07:15:58.001Z</time></trkpt><trkpt lat="39.896166887134584" lon="18.25556836204128"><ele>99.0</ele><time>2026-04-05T07:15:59.001Z</time></trkpt><trkpt lat="39.8962768445392" lon="18.255391370873618"><ele>98.0</ele><time>2026-04-05T07:16:00.001Z</time></trkpt><trkpt lat="39.89640465647027" lon="18.25524539989421"><ele>98.0</ele><time>2026-04-05T07:16:01.001Z</time></trkpt><trkpt lat="39.896530813539734" lon="18.25507143250306"><ele>98.0</ele><time>2026-04-05T07:16:02.001Z</time></trkpt><trkpt lat="39.896664679456585" lon="18.254891450555668"><ele>98.0</ele><time>2026-04-05T07:16:03.001Z</time></trkpt><trkpt lat="39.89680492890177" lon="18.254702380201113"><ele>99.0</ele><time>2026-04-05T07:16:04.001Z</time></trkpt><trkpt lat="39.89694813843086" lon="18.25451322648149"><ele>100.0</ele><time>2026-04-05T07:16:05.001Z</time></trkpt><trkpt lat="39.897102493511966" lon="18.2542987611887"><ele>101.0</ele><time>2026-04-05T07:16:06.001Z</time></trkpt><trkpt lat="39.897260839397916" lon="18.254078539523526"><ele>101.0</ele><time>2026-04-05T07:16:07.001Z</time></trkpt><trkpt lat="39.89741856701745" lon="18.253859637673077"><ele>101.0</ele><time>2026-04-05T07:16:08.001Z</time></trkpt><trkpt lat="39.89757972357511" lon="18.253646892592606"><ele>102.0</ele><time>2026-04-05T07:16:09.001Z</time></trkpt><trkpt lat="39.89775326539507" lon="18.25344199330728"><ele>103.0</ele><time>2026-04-05T07:16:10.001Z</time></trkpt><trkpt lat="39.8979216444892" lon="18.253215443707795"><ele>101.5</ele><time>2026-04-05T07:16:11.001Z</time></trkpt><trkpt lat="39.898088236401165" lon="18.2529913193148"><ele>100.0</ele><time>2026-04-05T07:16:12.001Z</time></trkpt><trkpt lat="39.898266342355086" lon="18.252752437033053"><ele>99.5</ele><time>2026-04-05T07:16:13.001Z</time></trkpt><trkpt lat="39.89843599099808" lon="18.2525248979737"><ele>99.0</ele><time>2026-04-05T07:16:14.001Z</time></trkpt><trkpt lat="39.898604959441975" lon="18.25229612268687"><ele>99.0</ele><time>2026-04-05T07:16:15.001Z</time></trkpt><trkpt lat="39.89877317108773" lon="18.25206781110821"><ele>99.0</ele><time>2026-04-05T07:16:16.001Z</time></trkpt><trkpt lat="39.89894878792821" lon="18.25183271956318"><ele>99.0</ele><time>2026-04-05T07:16:17.001Z</time></trkpt><trkpt lat="39.899127029833984" lon="18.25159301141849"><ele>99.0</ele><time>2026-04-05T07:16:18.001Z</time></trkpt><trkpt lat="39.89930766727067" lon="18.251350136384946"><ele>100.0</ele><time>2026-04-05T07:16:19.001Z</time></trkpt><trkpt lat="39.899488610333435" lon="18.251108289007874"><ele>101.0</ele><time>2026-04-05T07:16:20.001Z</time></trkpt><trkpt lat="39.899671454889095" lon="18.250867529851"><ele>101.0</ele><time>2026-04-05T07:16:21.001Z</time></trkpt><trkpt lat="39.89985605776577" lon="18.2506182956542"><ele>101.0</ele><time>2026-04-05T07:16:22.001Z</time></trkpt><trkpt lat="39.90004474737443" lon="18.250365930839212"><ele>100.5</ele><time>2026-04-05T07:16:23.001Z</time></trkpt><trkpt lat="39.900232887242616" lon="18.250113229082874"><ele>100.0</ele><time>2026-04-05T07:16:24.001Z</time></trkpt><trkpt lat="39.900423180686374" lon="18.249857318092698"><ele>100.0</ele><time>2026-04-05T07:16:25.001Z</time></trkpt><trkpt lat="39.90061324815584" lon="18.24960035557224"><ele>100.0</ele><time>2026-04-05T07:16:26.001Z</time></trkpt><trkpt lat="39.90080271174903" lon="18.249343445287913"><ele>100.0</ele><time>2026-04-05T07:16:27.001Z</time></trkpt><trkpt lat="39.9009937883615" lon="18.249087549727708"><ele>100.0</ele><time>2026-04-05T07:16:28.001Z</time></trkpt><trkpt lat="39.901181749704236" lon="18.24883569133819"><ele>100.0</ele><time>2026-04-05T07:16:29.001Z</time></trkpt><trkpt lat="39.90137331577683" lon="18.248577384378112"><ele>100.0</ele><time>2026-04-05T07:16:30.001Z</time></trkpt><trkpt lat="39.901561441150655" lon="18.248325289001595"><ele>100.0</ele><time>2026-04-05T07:16:31.001Z</time></trkpt><trkpt lat="39.90174929532427" lon="18.248073090732102"><ele>100.0</ele><time>2026-04-05T07:16:32.001Z</time></trkpt><trkpt lat="39.90193777989278" lon="18.24782278438489"><ele>100.0</ele><time>2026-04-05T07:16:33.001Z</time></trkpt><trkpt lat="39.90212833241632" lon="18.24757054678353"><ele>100.0</ele><time>2026-04-05T07:16:34.001Z</time></trkpt><trkpt lat="39.902316708362" lon="18.247317571801556"><ele>100.0</ele><time>2026-04-05T07:16:35.001Z</time></trkpt><trkpt lat="39.90250784951427" lon="18.247060883374793"><ele>100.0</ele><time>2026-04-05T07:16:36.001Z</time></trkpt><trkpt lat="39.90269845301839" lon="18.246804892218"><ele>100.0</ele><time>2026-04-05T07:16:37.001Z</time></trkpt><trkpt lat="39.90289170082156" lon="18.24654530446044"><ele>100.0</ele><time>2026-04-05T07:16:38.001Z</time></trkpt><trkpt lat="39.90308218102045" lon="18.24628943440135"><ele>100.5</ele><time>2026-04-05T07:16:39.001Z</time></trkpt><trkpt lat="39.90326156165378" lon="18.246015758471085"><ele>101.0</ele><time>2026-04-05T07:16:40.001Z</time></trkpt><trkpt lat="39.903451186968155" lon="18.24576022523818"><ele>101.0</ele><time>2026-04-05T07:16:41.001Z</time></trkpt><trkpt lat="39.903638859761124" lon="18.24550488047624"><ele>101.0</ele><time>2026-04-05T07:16:42.001Z</time></trkpt><trkpt lat="39.90382378898233" lon="18.245252827799774"><ele>101.0</ele><time>2026-04-05T07:16:43.001Z</time></trkpt><trkpt lat="39.904021730873836" lon="18.24501939675596"><ele>101.0</ele><time>2026-04-05T07:16:44.001Z</time></trkpt><trkpt lat="39.90419670992531" lon="18.24476368564535"><ele>102.0</ele><time>2026-04-05T07:16:45.001Z</time></trkpt><trkpt lat="39.904353249802334" lon="18.244483971082136"><ele>103.0</ele><time>2026-04-05T07:16:46.001Z</time></trkpt><trkpt lat="39.90452512331515" lon="18.244222723392806"><ele>105.0</ele><time>2026-04-05T07:16:47.001Z</time></trkpt><trkpt lat="39.9046810931881" lon="18.24393782344226"><ele>107.0</ele><time>2026-04-05T07:16:48.001Z</time></trkpt><trkpt lat="39.90483082468266" lon="18.243646660610104"><ele>107.0</ele><time>2026-04-05T07:16:49.001Z</time></trkpt><trkpt lat="39.904946226330765" lon="18.24332054636879"><ele>107.0</ele><time>2026-04-05T07:16:50Z</time></trkpt><trkpt lat="39.90508924050254" lon="18.243011545253236"><ele>106.5</ele><time>2026-04-05T07:16:51Z</time></trkpt><trkpt lat="39.90522102375173" lon="18.242697840244876"><ele>106.0</ele><time>2026-04-05T07:16:52Z</time></trkpt><trkpt lat="39.90535553435492" lon="18.24238805917994"><ele>108.0</ele><time>2026-04-05T07:16:53Z</time></trkpt><trkpt lat="39.90551036177764" lon="18.24210209476204"><ele>110.0</ele><time>2026-04-05T07:16:54Z</time></trkpt><trkpt lat="39.905637667515165" lon="18.241794983774255"><ele>110.0</ele><time>2026-04-05T07:16:55Z</time></trkpt><trkpt lat="39.905766974171684" lon="18.241483045832624"><ele>110.0</ele><time>2026-04-05T07:16:56Z</time></trkpt><trkpt lat="39.905896442424975" lon="18.241170718135386"><ele>111.0</ele><time>2026-04-05T07:16:57Z</time></trkpt><trkpt lat="39.9060231580204" lon="18.240865030822317"><ele>112.0</ele><time>2026-04-05T07:16:58Z</time></trkpt><trkpt lat="39.90615097794438" lon="18.240556679561916"><ele>113.0</ele><time>2026-04-05T07:16:59Z</time></trkpt><trkpt lat="39.906278893126284" lon="18.24024809852846"><ele>114.0</ele><time>2026-04-05T07:17:00Z</time></trkpt><trkpt lat="39.90640448325232" lon="18.239946135667257"><ele>117.5</ele><time>2026-04-05T07:17:01Z</time></trkpt><trkpt lat="39.90652365934414" lon="18.23965956930601"><ele>121.0</ele><time>2026-04-05T07:17:02Z</time></trkpt><trkpt lat="39.9066361661026" lon="18.239389039496317"><ele>118.0</ele><time>2026-04-05T07:17:03Z</time></trkpt><trkpt lat="39.90674557685639" lon="18.23912595442688"><ele>115.0</ele><time>2026-04-05T07:17:04Z</time></trkpt><trkpt lat="39.90685944001222" lon="18.238852163090012"><ele>115.0</ele><time>2026-04-05T07:17:05Z</time></trkpt><trkpt lat="39.906976245657674" lon="18.238571296493987"><ele>115.0</ele><time>2026-04-05T07:17:06Z</time></trkpt><trkpt lat="39.90709806352121" lon="18.238277871735878"><ele>118.5</ele><time>2026-04-05T07:17:07Z</time></trkpt><trkpt lat="39.90722234425477" lon="18.237976891094323"><ele>122.0</ele><time>2026-04-05T07:17:08Z</time></trkpt><trkpt lat="39.90734911352017" lon="18.237669883938292"><ele>122.0</ele><time>2026-04-05T07:17:09Z</time></trkpt><trkpt lat="39.90747469276315" lon="18.237365758712198"><ele>122.0</ele><time>2026-04-05T07:17:10Z</time></trkpt><trkpt lat="39.907587455506054" lon="18.2370575488712"><ele>122.5</ele><time>2026-04-05T07:17:11Z</time></trkpt><trkpt lat="39.90770604399715" lon="18.236763993203645"><ele>123.0</ele><time>2026-04-05T07:17:12Z</time></trkpt><trkpt lat="39.90784018247574" lon="18.236478079534685"><ele>126.5</ele><time>2026-04-05T07:17:13Z</time></trkpt><trkpt lat="39.907978469717335" lon="18.23620396560522"><ele>130.0</ele><time>2026-04-05T07:17:14Z</time></trkpt><trkpt lat="39.90813120622056" lon="18.2359331843239"><ele>130.0</ele><time>2026-04-05T07:17:15Z</time></trkpt><trkpt lat="39.9082932540315" lon="18.235671558794667"><ele>130.0</ele><time>2026-04-05T07:17:16Z</time></trkpt><trkpt lat="39.90846778161221" lon="18.235422871348053"><ele>130.5</ele><time>2026-04-05T07:17:17Z</time></trkpt><trkpt lat="39.908653210178926" lon="18.235183005809745"><ele>131.0</ele><time>2026-04-05T07:17:18Z</time></trkpt><trkpt lat="39.908850776055246" lon="18.234950990972465"><ele>131.5</ele><time>2026-04-05T07:17:19Z</time></trkpt><trkpt lat="39.909045424604585" lon="18.23474235337589"><ele>132.0</ele><time>2026-04-05T07:17:20Z</time></trkpt><trkpt lat="39.90924680512807" lon="18.23454572497266"><ele>132.0</ele><time>2026-04-05T07:17:21Z</time></trkpt><trkpt lat="39.90944736577038" lon="18.234363855796214"><ele>132.0</ele><time>2026-04-05T07:17:22Z</time></trkpt><trkpt lat="39.909648897551925" lon="18.234212203383844"><ele>132.0</ele><time>2026-04-05T07:17:23Z</time></trkpt><trkpt lat="39.90984085325516" lon="18.234077596049133"><ele>132.0</ele><time>2026-04-05T07:17:24Z</time></trkpt><trkpt lat="39.91003236070685" lon="18.233956886601963"><ele>132.0</ele><time>2026-04-05T07:17:25Z</time></trkpt><trkpt lat="39.91023036757716" lon="18.23383879441773"><ele>132.0</ele><time>2026-04-05T07:17:26Z</time></trkpt><trkpt lat="39.910431352168345" lon="18.233730702159882"><ele>132.0</ele><time>2026-04-05T07:17:27Z</time></trkpt><trkpt lat="39.91063369493226" lon="18.233629980401002"><ele>132.0</ele><time>2026-04-05T07:17:28Z</time></trkpt><trkpt lat="39.910842090256736" lon="18.23354221749912"><ele>132.5</ele><time>2026-04-05T07:17:29Z</time></trkpt><trkpt lat="39.91105945015401" lon="18.233464474193017"><ele>133.0</ele><time>2026-04-05T07:17:30Z</time></trkpt><trkpt lat="39.911280573641584" lon="18.233398831159224"><ele>133.0</ele><time>2026-04-05T07:17:31Z</time></trkpt><trkpt lat="39.9115076732418" lon="18.233351887283273"><ele>133.0</ele><time>2026-04-05T07:17:32Z</time></trkpt><trkpt lat="39.91173918625655" lon="18.23331626581517"><ele>134.0</ele><time>2026-04-05T07:17:33Z</time></trkpt><trkpt lat="39.91196559095352" lon="18.23328347365982"><ele>135.0</ele><time>2026-04-05T07:17:34Z</time></trkpt><trkpt lat="39.91217286271516" lon="18.233269516872284"><ele>136.0</ele><time>2026-04-05T07:17:35Z</time></trkpt><trkpt lat="39.912378331315736" lon="18.23326634437068"><ele>135.33333333333334</ele><time>2026-04-05T07:17:36Z</time></trkpt><trkpt lat="39.91258047733594" lon="18.23326927427182"><ele>134.66666666666666</ele><time>2026-04-05T07:17:37Z</time></trkpt><trkpt lat="39.91279134620787" lon="18.233283731349765"><ele>134.0</ele><time>2026-04-05T07:17:38Z</time></trkpt><trkpt lat="39.9130035701617" lon="18.233307908438203"><ele>134.0</ele><time>2026-04-05T07:17:39Z</time></trkpt><trkpt lat="39.9132191134291" lon="18.23333666688889"><ele>134.0</ele><time>2026-04-05T07:17:40Z</time></trkpt><trkpt lat="39.91343089648907" lon="18.23337273550626"><ele>134.0</ele><time>2026-04-05T07:17:41Z</time></trkpt><trkpt lat="39.91361928072041" lon="18.23340994991759"><ele>134.0</ele><time>2026-04-05T07:17:42Z</time></trkpt><trkpt lat="39.913786495572005" lon="18.233446856355886"><ele>134.0</ele><time>2026-04-05T07:17:43Z</time></trkpt><trkpt lat="39.91393203771701" lon="18.233484921831028"><ele>134.0</ele><time>2026-04-05T07:17:44Z</time></trkpt><trkpt lat="39.91404959178628" lon="18.23350693783554"><ele>134.0</ele><time>2026-04-05T07:17:45Z</time></trkpt><trkpt lat="39.91414363933105" lon="18.23350711631367"><ele>134.0</ele><time>2026-04-05T07:17:46Z</time></trkpt><trkpt lat="39.91424014758885" lon="18.233482316325222"><ele>134.0</ele><time>2026-04-05T07:17:47Z</time></trkpt><trkpt lat="39.91432517736003" lon="18.23342655187749"><ele>134.0</ele><time>2026-04-05T07:17:48Z</time></trkpt><trkpt lat="39.91439825537877" lon="18.2333376957336"><ele>134.0</ele><time>2026-04-05T07:17:49Z</time></trkpt><trkpt lat="39.91445969237534" lon="18.23322679207143"><ele>134.0</ele><time>2026-04-05T07:17:50Z</time></trkpt><trkpt lat="39.91449722608156" lon="18.233082337305767"><ele>134.0</ele><time>2026-04-05T07:17:51Z</time></trkpt><trkpt lat="39.91452212248077" lon="18.23291805172948"><ele>134.0</ele><time>2026-04-05T07:17:52Z</time></trkpt><trkpt lat="39.91452409605346" lon="18.232718161282758"><ele>134.0</ele><time>2026-04-05T07:17:53Z</time></trkpt><trkpt lat="39.914520465966106" lon="18.232489879638916"><ele>134.66666666666666</ele><time>2026-04-05T07:17:54Z</time></trkpt><trkpt lat="39.914527489532276" lon="18.232241714439603"><ele>135.33333333333334</ele><time>2026-04-05T07:17:55Z</time></trkpt><trkpt lat="39.91453750735951" lon="18.231984194614622"><ele>136.0</ele><time>2026-04-05T07:17:56.001Z</time></trkpt><trkpt lat="39.914561571432884" lon="18.231713636253957"><ele>135.66666666666669</ele><time>2026-04-05T07:17:57.001Z</time></trkpt><trkpt lat="39.91459761688851" lon="18.231443028948988"><ele>135.33333333333334</ele><time>2026-04-05T07:17:58.001Z</time></trkpt><trkpt lat="39.914648087996056" lon="18.23116125075418"><ele>135.0</ele><time>2026-04-05T07:17:59.001Z</time></trkpt><trkpt lat="39.91471072017793" lon="18.230874544067138"><ele>134.0</ele><time>2026-04-05T07:18:00.001Z</time></trkpt><trkpt lat="39.914783503857876" lon="18.230573856060722"><ele>133.0</ele><time>2026-04-05T07:18:01.001Z</time></trkpt><trkpt lat="39.914865446116764" lon="18.23027823150364"><ele>133.0</ele><time>2026-04-05T07:18:02.001Z</time></trkpt><trkpt lat="39.914957853951734" lon="18.22998507239957"><ele>133.0</ele><time>2026-04-05T07:18:03.001Z</time></trkpt><trkpt lat="39.915064343802655" lon="18.229694564321928"><ele>133.0</ele><time>2026-04-05T07:18:04.001Z</time></trkpt><trkpt lat="39.91518632550353" lon="18.22940754617183"><ele>133.0</ele><time>2026-04-05T07:18:05.001Z</time></trkpt><trkpt lat="39.91531939562544" lon="18.229117159194157"><ele>132.5</ele><time>2026-04-05T07:18:06.001Z</time></trkpt><trkpt lat="39.91546722689246" lon="18.22881928695241"><ele>132.0</ele><time>2026-04-05T07:18:07.001Z</time></trkpt><trkpt lat="39.915622505573005" lon="18.22852558826003"><ele>132.0</ele><time>2026-04-05T07:18:08.001Z</time></trkpt><trkpt lat="39.915774659770264" lon="18.228224231861457"><ele>132.0</ele><time>2026-04-05T07:18:09.001Z</time></trkpt><trkpt lat="39.915921411705156" lon="18.227902852897152"><ele>132.0</ele><time>2026-04-05T07:18:10.001Z</time></trkpt><trkpt lat="39.91606750796559" lon="18.22757782570148"><ele>132.0</ele><time>2026-04-05T07:18:11.001Z</time></trkpt><trkpt lat="39.91620343023635" lon="18.22724030102761"><ele>132.0</ele><time>2026-04-05T07:18:12.001Z</time></trkpt><trkpt lat="39.916321455608966" lon="18.226902200061772"><ele>132.0</ele><time>2026-04-05T07:18:13.001Z</time></trkpt><trkpt lat="39.91642424750754" lon="18.226548558768116"><ele>132.5</ele><time>2026-04-05T07:18:14.001Z</time></trkpt><trkpt lat="39.91653361523217" lon="18.226199303449313"><ele>133.0</ele><time>2026-04-05T07:18:15.001Z</time></trkpt><trkpt lat="39.91663930579114" lon="18.22585845915396"><ele>134.0</ele><time>2026-04-05T07:18:16.001Z</time></trkpt><trkpt lat="39.9167397675725" lon="18.22550401888727"><ele>135.0</ele><time>2026-04-05T07:18:17.001Z</time></trkpt><trkpt lat="39.91683067958073" lon="18.22514978834533"><ele>134.0</ele><time>2026-04-05T07:18:18.001Z</time></trkpt><trkpt lat="39.9169015004658" lon="18.224786044723714"><ele>133.0</ele><time>2026-04-05T07:18:19.001Z</time></trkpt><trkpt lat="39.91696151419167" lon="18.22441617578968"><ele>133.0</ele><time>2026-04-05T07:18:20.001Z</time></trkpt><trkpt lat="39.91701561221548" lon="18.224040277537526"><ele>133.0</ele><time>2026-04-05T07:18:21.001Z</time></trkpt><trkpt lat="39.91706744006436" lon="18.22366382416631"><ele>133.0</ele><time>2026-04-05T07:18:22.001Z</time></trkpt><trkpt lat="39.917117239347675" lon="18.223287003942325"><ele>133.0</ele><time>2026-04-05T07:18:23.001Z</time></trkpt><trkpt lat="39.91716378885051" lon="18.222901642745647"><ele>132.5</ele><time>2026-04-05T07:18:24.001Z</time></trkpt><trkpt lat="39.9172124784345" lon="18.222518001970872"><ele>132.0</ele><time>2026-04-05T07:18:25.001Z</time></trkpt><trkpt lat="39.9173076365387" lon="18.22214080080231"><ele>131.0</ele><time>2026-04-05T07:18:26.001Z</time></trkpt><trkpt lat="39.917358373513295" lon="18.221750698926922"><ele>130.0</ele><time>2026-04-05T07:18:27.001Z</time></trkpt><trkpt lat="39.9174107974849" lon="18.221353868372702"><ele>128.5</ele><time>2026-04-05T07:18:28.001Z</time></trkpt><trkpt lat="39.91746313787485" lon="18.220959591270393"><ele>127.0</ele><time>2026-04-05T07:18:29.001Z</time></trkpt><trkpt lat="39.917515020242696" lon="18.220568764413326"><ele>127.0</ele><time>2026-04-05T07:18:30.001Z</time></trkpt><trkpt lat="39.917567471229006" lon="18.22017839834505"><ele>127.0</ele><time>2026-04-05T07:18:31.001Z</time></trkpt><trkpt lat="39.91761997094678" lon="18.219787130589282"><ele>127.0</ele><time>2026-04-05T07:18:32.001Z</time></trkpt><trkpt lat="39.9176731367862" lon="18.2193899443869"><ele>127.0</ele><time>2026-04-05T07:18:33.001Z</time></trkpt><trkpt lat="39.917726052005456" lon="18.21899413856926"><ele>126.5</ele><time>2026-04-05T07:18:34.001Z</time></trkpt><trkpt lat="39.917778672968716" lon="18.218597716003647"><ele>126.0</ele><time>2026-04-05T07:18:35.001Z</time></trkpt><trkpt lat="39.91783135974894" lon="18.21820082073049"><ele>125.5</ele><time>2026-04-05T07:18:36.001Z</time></trkpt><trkpt lat="39.91788408244405" lon="18.21780987073023"><ele>125.0</ele><time>2026-04-05T07:18:37.001Z</time></trkpt><trkpt lat="39.91793606083021" lon="18.21742266526874"><ele>124.0</ele><time>2026-04-05T07:18:38.001Z</time></trkpt><trkpt lat="39.91798383454271" lon="18.217056909304198"><ele>123.0</ele><time>2026-04-05T07:18:39.001Z</time></trkpt><trkpt lat="39.918035285020444" lon="18.21667555707587"><ele>121.5</ele><time>2026-04-05T07:18:40.001Z</time></trkpt><trkpt lat="39.91808181273986" lon="18.216323504079533"><ele>120.0</ele><time>2026-04-05T07:18:41.001Z</time></trkpt><trkpt lat="39.91812676811723" lon="18.215983348258487"><ele>119.0</ele><time>2026-04-05T07:18:42.001Z</time></trkpt><trkpt lat="39.918171761860904" lon="18.215642902108684"><ele>118.0</ele><time>2026-04-05T07:18:43.001Z</time></trkpt><trkpt lat="39.91821926780484" lon="18.215300250270495"><ele>118.0</ele><time>2026-04-05T07:18:44.001Z</time></trkpt><trkpt lat="39.91826880358008" lon="18.214952676505362"><ele>118.0</ele><time>2026-04-05T07:18:45.001Z</time></trkpt><trkpt lat="39.91831972563928" lon="18.214609889575623"><ele>118.5</ele><time>2026-04-05T07:18:46.001Z</time></trkpt><trkpt lat="39.91837121227677" lon="18.214276253796132"><ele>119.0</ele><time>2026-04-05T07:18:47.001Z</time></trkpt><trkpt lat="39.91842004041254" lon="18.213971631472685"><ele>119.0</ele><time>2026-04-05T07:18:48.001Z</time></trkpt><trkpt lat="39.91846587528248" lon="18.213692616553566"><ele>119.0</ele><time>2026-04-05T07:18:49.001Z</time></trkpt><trkpt lat="39.91851152862478" lon="18.213414706653587"><ele>119.0</ele><time>2026-04-05T07:18:50.001Z</time></trkpt><trkpt lat="39.918559371190575" lon="18.213123470084362"><ele>118.0</ele><time>2026-04-05T07:18:51.001Z</time></trkpt><trkpt lat="39.91860941174224" lon="18.212818853501425"><ele>117.0</ele><time>2026-04-05T07:18:52.001Z</time></trkpt><trkpt lat="39.9186609851988" lon="18.21250490553655"><ele>116.5</ele><time>2026-04-05T07:18:53.001Z</time></trkpt><trkpt lat="39.91871276991188" lon="18.212189671561703"><ele>116.0</ele><time>2026-04-05T07:18:54.001Z</time></trkpt><trkpt lat="39.91876649874319" lon="18.21186260298546"><ele>116.0</ele><time>2026-04-05T07:18:55.001Z</time></trkpt><trkpt lat="39.91882294004225" lon="18.211516347661405"><ele>116.0</ele><time>2026-04-05T07:18:56Z</time></trkpt><trkpt lat="39.918881678556154" lon="18.211154518410595"><ele>115.5</ele><time>2026-04-05T07:18:57Z</time></trkpt><trkpt lat="39.91894176694193" lon="18.210784373962692"><ele>115.0</ele><time>2026-04-05T07:18:58Z</time></trkpt><trkpt lat="39.91900329233031" lon="18.21040959482887"><ele>114.5</ele><time>2026-04-05T07:18:59Z</time></trkpt><trkpt lat="39.91906397722216" lon="18.21004876574387"><ele>114.0</ele><time>2026-04-05T07:19:00Z</time></trkpt><trkpt lat="39.919125267351774" lon="18.209684337945124"><ele>114.0</ele><time>2026-04-05T07:19:01Z</time></trkpt><trkpt lat="39.919186741234924" lon="18.209318817573937"><ele>114.0</ele><time>2026-04-05T07:19:02Z</time></trkpt><trkpt lat="39.91924816035227" lon="18.20894737961637"><ele>114.0</ele><time>2026-04-05T07:19:03Z</time></trkpt><trkpt lat="39.91931024769649" lon="18.20857098999478"><ele>114.0</ele><time>2026-04-05T07:19:04Z</time></trkpt><trkpt lat="39.91937312165662" lon="18.208189831730685"><ele>114.0</ele><time>2026-04-05T07:19:05Z</time></trkpt><trkpt lat="39.919436487074876" lon="18.207805694107844"><ele>114.0</ele><time>2026-04-05T07:19:06Z</time></trkpt><trkpt lat="39.919499493253326" lon="18.207418708266356"><ele>113.5</ele><time>2026-04-05T07:19:07Z</time></trkpt><trkpt lat="39.91956156717044" lon="18.207024163670283"><ele>113.0</ele><time>2026-04-05T07:19:08Z</time></trkpt><trkpt lat="39.919618202395384" lon="18.206628958052132"><ele>112.5</ele><time>2026-04-05T07:19:09Z</time></trkpt><trkpt lat="39.91966643700221" lon="18.2062310421489"><ele>112.0</ele><time>2026-04-05T07:19:10Z</time></trkpt><trkpt lat="39.91971111581534" lon="18.205838124587086"><ele>110.5</ele><time>2026-04-05T07:19:11Z</time></trkpt><trkpt lat="39.91975668894644" lon="18.205445280883154"><ele>109.0</ele><time>2026-04-05T07:19:12Z</time></trkpt><trkpt lat="39.9198026457239" lon="18.205049130080987"><ele>107.5</ele><time>2026-04-05T07:19:13Z</time></trkpt><trkpt lat="39.91984910518869" lon="18.204648646093485"><ele>106.0</ele><time>2026-04-05T07:19:14Z</time></trkpt><trkpt lat="39.91989548249062" lon="18.204248870221342"><ele>105.0</ele><time>2026-04-05T07:19:15Z</time></trkpt><trkpt lat="39.91994127573" lon="18.203854128582904"><ele>104.0</ele><time>2026-04-05T07:19:16Z</time></trkpt><trkpt lat="39.91998476334747" lon="18.20345699261023"><ele>103.5</ele><time>2026-04-05T07:19:17Z</time></trkpt><trkpt lat="39.91998278386151" lon="18.203047586917396"><ele>103.0</ele><time>2026-04-05T07:19:18Z</time></trkpt><trkpt lat="39.92002959873171" lon="18.20264366735899"><ele>103.0</ele><time>2026-04-05T07:19:19Z</time></trkpt><trkpt lat="39.92007577440216" lon="18.202238199054385"><ele>103.0</ele><time>2026-04-05T07:19:20Z</time></trkpt><trkpt lat="39.92011949723346" lon="18.201835914257174"><ele>102.5</ele><time>2026-04-05T07:19:21Z</time></trkpt><trkpt lat="39.92016388152144" lon="18.201431954689664"><ele>102.0</ele><time>2026-04-05T07:19:22Z</time></trkpt><trkpt lat="39.9202055808623" lon="18.201029235392824"><ele>101.0</ele><time>2026-04-05T07:19:23Z</time></trkpt><trkpt lat="39.92025340494337" lon="18.20062460437703"><ele>100.0</ele><time>2026-04-05T07:19:24Z</time></trkpt><trkpt lat="39.92030140647364" lon="18.200219733877486"><ele>99.5</ele><time>2026-04-05T07:19:25Z</time></trkpt><trkpt lat="39.92034961560073" lon="18.199814251751572"><ele>99.0</ele><time>2026-04-05T07:19:26Z</time></trkpt><trkpt lat="39.92039555484412" lon="18.1994078312413"><ele>98.0</ele><time>2026-04-05T07:19:27Z</time></trkpt><trkpt lat="39.920444057731764" lon="18.198997092969314"><ele>97.0</ele><time>2026-04-05T07:19:28Z</time></trkpt><trkpt lat="39.92049001746834" lon="18.19858921899345"><ele>97.0</ele><time>2026-04-05T07:19:29Z</time></trkpt><trkpt lat="39.92053980378125" lon="18.198178638782572"><ele>97.0</ele><time>2026-04-05T07:19:30Z</time></trkpt><trkpt lat="39.9205886079936" lon="18.197773824517597"><ele>97.0</ele><time>2026-04-05T07:19:31Z</time></trkpt><trkpt lat="39.92063693421386" lon="18.197365571518606"><ele>97.0</ele><time>2026-04-05T07:19:32Z</time></trkpt><trkpt lat="39.920684563954076" lon="18.19696180151937"><ele>97.0</ele><time>2026-04-05T07:19:33Z</time></trkpt><trkpt lat="39.920729368055625" lon="18.196561648072567"><ele>97.0</ele><time>2026-04-05T07:19:34Z</time></trkpt><trkpt lat="39.92077634468212" lon="18.196166155359677"><ele>97.0</ele><time>2026-04-05T07:19:35Z</time></trkpt><trkpt lat="39.9208246599383" lon="18.19577178994677"><ele>97.0</ele><time>2026-04-05T07:19:36Z</time></trkpt><trkpt lat="39.9208708668591" lon="18.195380595553214"><ele>95.5</ele><time>2026-04-05T07:19:37Z</time></trkpt><trkpt lat="39.92091434161805" lon="18.194991595828593"><ele>94.0</ele><time>2026-04-05T07:19:38Z</time></trkpt><trkpt lat="39.92095835819385" lon="18.194603890973312"><ele>94.0</ele><time>2026-04-05T07:19:39Z</time></trkpt><trkpt lat="39.921001776672185" lon="18.194215343752457"><ele>94.0</ele><time>2026-04-05T07:19:40Z</time></trkpt><trkpt lat="39.92104829480563" lon="18.193826234018406"><ele>95.0</ele><time>2026-04-05T07:19:41Z</time></trkpt><trkpt lat="39.92109270841098" lon="18.19343889414444"><ele>96.0</ele><time>2026-04-05T07:19:42Z</time></trkpt><trkpt lat="39.92113570854727" lon="18.19306270681104"><ele>96.0</ele><time>2026-04-05T07:19:43Z</time></trkpt><trkpt lat="39.92117663479631" lon="18.192687636359825"><ele>96.0</ele><time>2026-04-05T07:19:44Z</time></trkpt><trkpt lat="39.921220953855396" lon="18.192310849396815"><ele>95.0</ele><time>2026-04-05T07:19:45Z</time></trkpt><trkpt lat="39.92126954921728" lon="18.191931332212167"><ele>94.0</ele><time>2026-04-05T07:19:46Z</time></trkpt><trkpt lat="39.92131102656279" lon="18.191554564290236"><ele>94.0</ele><time>2026-04-05T07:19:47Z</time></trkpt><trkpt lat="39.92135661211448" lon="18.19117689809401"><ele>94.0</ele><time>2026-04-05T07:19:48Z</time></trkpt><trkpt lat="39.9214002420466" lon="18.19080823605025"><ele>94.0</ele><time>2026-04-05T07:19:49Z</time></trkpt><trkpt lat="39.92144092483376" lon="18.190438668617194"><ele>94.0</ele><time>2026-04-05T07:19:50Z</time></trkpt><trkpt lat="39.92148204942676" lon="18.190072360674396"><ele>94.0</ele><time>2026-04-05T07:19:51Z</time></trkpt><trkpt lat="39.92152437425179" lon="18.189705191792733"><ele>94.0</ele><time>2026-04-05T07:19:52Z</time></trkpt><trkpt lat="39.921564929174096" lon="18.189336568925363"><ele>94.5</ele><time>2026-04-05T07:19:53Z</time></trkpt><trkpt lat="39.92160507327346" lon="18.188963720194906"><ele>95.0</ele><time>2026-04-05T07:19:54Z</time></trkpt><trkpt lat="39.92164747604725" lon="18.18858187669421"><ele>95.0</ele><time>2026-04-05T07:19:55Z</time></trkpt><trkpt lat="39.92169077157295" lon="18.18819913143165"><ele>95.0</ele><time>2026-04-05T07:19:56Z</time></trkpt><trkpt lat="39.92173353135024" lon="18.18782963460896"><ele>94.0</ele><time>2026-04-05T07:19:57Z</time></trkpt><trkpt lat="39.92177338755903" lon="18.187477667808864"><ele>93.0</ele><time>2026-04-05T07:19:58Z</time></trkpt><trkpt lat="39.921810754622555" lon="18.187136991422136"><ele>92.5</ele><time>2026-04-05T07:19:59Z</time></trkpt><trkpt lat="39.92184512786437" lon="18.186815067637237"><ele>92.0</ele><time>2026-04-05T07:20:00Z</time></trkpt><trkpt lat="39.92187712155582" lon="18.18651446928245"><ele>91.5</ele><time>2026-04-05T07:20:01Z</time></trkpt><trkpt lat="39.92191565788892" lon="18.186214771662566"><ele>91.0</ele><time>2026-04-05T07:20:02Z</time></trkpt><trkpt lat="39.92196108790167" lon="18.185901932744"><ele>90.0</ele><time>2026-04-05T07:20:03Z</time></trkpt><trkpt lat="39.92200911094584" lon="18.18558774582581"><ele>89.0</ele><time>2026-04-05T07:20:04Z</time></trkpt><trkpt lat="39.92206745026298" lon="18.185280795457313"><ele>89.0</ele><time>2026-04-05T07:20:05.001Z</time></trkpt><trkpt lat="39.92213994914493" lon="18.184979808192878"><ele>89.0</ele><time>2026-04-05T07:20:06.001Z</time></trkpt><trkpt lat="39.922225719079336" lon="18.18468667482514"><ele>88.5</ele><time>2026-04-05T07:20:07.001Z</time></trkpt><trkpt lat="39.922320986666236" lon="18.184401456807603"><ele>88.0</ele><time>2026-04-05T07:20:08.001Z</time></trkpt><trkpt lat="39.922432779805604" lon="18.18413165164803"><ele>88.0</ele><time>2026-04-05T07:20:09.001Z</time></trkpt><trkpt lat="39.922562560767254" lon="18.183853794797148"><ele>88.0</ele><time>2026-04-05T07:20:10.001Z</time></trkpt><trkpt lat="39.92270296962534" lon="18.183584833646798"><ele>88.5</ele><time>2026-04-05T07:20:11.001Z</time></trkpt><trkpt lat="39.92285473254163" lon="18.183318666059368"><ele>89.0</ele><time>2026-04-05T07:20:12.001Z</time></trkpt><trkpt lat="39.92301380697594" lon="18.183059565517972"><ele>89.0</ele><time>2026-04-05T07:20:13.001Z</time></trkpt><trkpt lat="39.923180222551466" lon="18.182812736626637"><ele>89.0</ele><time>2026-04-05T07:20:14.001Z</time></trkpt><trkpt lat="39.923360843293395" lon="18.18258097281199"><ele>88.0</ele><time>2026-04-05T07:20:15.001Z</time></trkpt><trkpt lat="39.92355390711735" lon="18.182361696337832"><ele>87.0</ele><time>2026-04-05T07:20:16.001Z</time></trkpt><trkpt lat="39.9237540653736" lon="18.182143181940486"><ele>87.0</ele><time>2026-04-05T07:20:17.001Z</time></trkpt><trkpt lat="39.92397382147" lon="18.181942820205652"><ele>87.0</ele><time>2026-04-05T07:20:18.001Z</time></trkpt><trkpt lat="39.924196197366285" lon="18.181739406215595"><ele>86.5</ele><time>2026-04-05T07:20:19.001Z</time></trkpt><trkpt lat="39.924425762302114" lon="18.18153518247637"><ele>86.0</ele><time>2026-04-05T07:20:20.001Z</time></trkpt><trkpt lat="39.92465677033422" lon="18.181322774059467"><ele>86.0</ele><time>2026-04-05T07:20:21.001Z</time></trkpt><trkpt lat="39.92488821665018" lon="18.18110683989417"><ele>86.0</ele><time>2026-04-05T07:20:22.001Z</time></trkpt><trkpt lat="39.92511939196057" lon="18.18090760042094"><ele>86.0</ele><time>2026-04-05T07:20:23.001Z</time></trkpt><trkpt lat="39.92534545783295" lon="18.180691121402987"><ele>86.0</ele><time>2026-04-05T07:20:24.001Z</time></trkpt><trkpt lat="39.92557213186543" lon="18.1804746718059"><ele>85.5</ele><time>2026-04-05T07:20:25.001Z</time></trkpt><trkpt lat="39.92580803615627" lon="18.180283635062388"><ele>85.0</ele><time>2026-04-05T07:20:26.001Z</time></trkpt><trkpt lat="39.926037372072855" lon="18.180072564402526"><ele>85.0</ele><time>2026-04-05T07:20:27.001Z</time></trkpt><trkpt lat="39.92626718064433" lon="18.179861058672607"><ele>85.0</ele><time>2026-04-05T07:20:28.001Z</time></trkpt><trkpt lat="39.92649591128913" lon="18.17965054506133"><ele>85.0</ele><time>2026-04-05T07:20:29.001Z</time></trkpt><trkpt lat="39.926727710572486" lon="18.179437263472696"><ele>85.0</ele><time>2026-04-05T07:20:30.001Z</time></trkpt><trkpt lat="39.92695780377828" lon="18.179225595585343"><ele>84.5</ele><time>2026-04-05T07:20:31.001Z</time></trkpt><trkpt lat="39.9271891868959" lon="18.179012741025975"><ele>84.0</ele><time>2026-04-05T07:20:32.001Z</time></trkpt><trkpt lat="39.927421308699074" lon="18.1787998497779"><ele>84.5</ele><time>2026-04-05T07:20:33.001Z</time></trkpt><trkpt lat="39.92765469997027" lon="18.17858613033283"><ele>85.0</ele><time>2026-04-05T07:20:34.001Z</time></trkpt><trkpt lat="39.92789061267178" lon="18.178370102042074"><ele>84.5</ele><time>2026-04-05T07:20:35.001Z</time></trkpt><trkpt lat="39.92812780585848" lon="18.178152046810197"><ele>84.0</ele><time>2026-04-05T07:20:36.001Z</time></trkpt><trkpt lat="39.92837056279829" lon="18.17792797080629"><ele>84.0</ele><time>2026-04-05T07:20:37.001Z</time></trkpt><trkpt lat="39.92860841566948" lon="18.177708421353586"><ele>84.0</ele><time>2026-04-05T07:20:38.001Z</time></trkpt><trkpt lat="39.92884803883023" lon="18.17748766384053"><ele>84.0</ele><time>2026-04-05T07:20:39.001Z</time></trkpt><trkpt lat="39.929089557479294" lon="18.177266384412416"><ele>84.0</ele><time>2026-04-05T07:20:40.001Z</time></trkpt><trkpt lat="39.929332693244085" lon="18.17704364603384"><ele>84.0</ele><time>2026-04-05T07:20:41.001Z</time></trkpt><trkpt lat="39.92957734328852" lon="18.176819964530747"><ele>84.0</ele><time>2026-04-05T07:20:42.001Z</time></trkpt><trkpt lat="39.929822118225246" lon="18.1765961689853"><ele>84.5</ele><time>2026-04-05T07:20:43.001Z</time></trkpt><trkpt lat="39.93006597734935" lon="18.17637099874986"><ele>85.0</ele><time>2026-04-05T07:20:44.001Z</time></trkpt><trkpt lat="39.93030765857304" lon="18.17614732012036"><ele>85.0</ele><time>2026-04-05T07:20:45.001Z</time></trkpt><trkpt lat="39.930546409177296" lon="18.175926353684584"><ele>85.0</ele><time>2026-04-05T07:20:46.001Z</time></trkpt><trkpt lat="39.93078372675564" lon="18.17570716875814"><ele>85.5</ele><time>2026-04-05T07:20:47.001Z</time></trkpt><trkpt lat="39.93101904896883" lon="18.17549208045429"><ele>86.0</ele><time>2026-04-05T07:20:48.001Z</time></trkpt><trkpt lat="39.931253012471444" lon="18.17527823395995"><ele>86.0</ele><time>2026-04-05T07:20:49.001Z</time></trkpt><trkpt lat="39.93148882565205" lon="18.175062696893097"><ele>86.0</ele><time>2026-04-05T07:20:50.001Z</time></trkpt><trkpt lat="39.93172262775241" lon="18.174847697557894"><ele>85.5</ele><time>2026-04-05T07:20:51.001Z</time></trkpt><trkpt lat="39.931954836339834" lon="18.17463387500713"><ele>85.0</ele><time>2026-04-05T07:20:52.001Z</time></trkpt><trkpt lat="39.93218840333061" lon="18.174418810479136"><ele>85.0</ele><time>2026-04-05T07:20:53.001Z</time></trkpt><trkpt lat="39.932421480372895" lon="18.17420419720623"><ele>85.0</ele><time>2026-04-05T07:20:54.001Z</time></trkpt><trkpt lat="39.932656693441054" lon="18.173987002871947"><ele>84.5</ele><time>2026-04-05T07:20:55.001Z</time></trkpt><trkpt lat="39.93289372288081" lon="18.173767987479927"><ele>84.0</ele><time>2026-04-05T07:20:56.001Z</time></trkpt><trkpt lat="39.933132136585954" lon="18.173547693080668"><ele>84.0</ele><time>2026-04-05T07:20:57.001Z</time></trkpt><trkpt lat="39.93336134670325" lon="18.17331325946478"><ele>84.0</ele><time>2026-04-05T07:20:58.001Z</time></trkpt><trkpt lat="39.933601095931536" lon="18.173094713771107"><ele>84.0</ele><time>2026-04-05T07:20:59.001Z</time></trkpt><trkpt lat="39.933835096019095" lon="18.17287643082595"><ele>84.0</ele><time>2026-04-05T07:21:00.001Z</time></trkpt><trkpt lat="39.934081917727895" lon="18.172675214344135"><ele>83.5</ele><time>2026-04-05T07:21:01.001Z</time></trkpt><trkpt lat="39.93432359847978" lon="18.172453692360413"><ele>83.0</ele><time>2026-04-05T07:21:02Z</time></trkpt><trkpt lat="39.934554241099555" lon="18.17222407373659"><ele>84.5</ele><time>2026-04-05T07:21:03Z</time></trkpt><trkpt lat="39.93479590738043" lon="18.17199737352694"><ele>86.0</ele><time>2026-04-05T07:21:04Z</time></trkpt><trkpt lat="39.93503753580846" lon="18.171775030708837"><ele>86.0</ele><time>2026-04-05T07:21:05Z</time></trkpt><trkpt lat="39.93528257587517" lon="18.171553613247013"><ele>86.0</ele><time>2026-04-05T07:21:06Z</time></trkpt><trkpt lat="39.93552457355028" lon="18.171328967009472"><ele>86.0</ele><time>2026-04-05T07:21:07Z</time></trkpt><trkpt lat="39.93577198138194" lon="18.171108686152884"><ele>86.0</ele><time>2026-04-05T07:21:08Z</time></trkpt><trkpt lat="39.93601617697106" lon="18.170881427189034"><ele>85.5</ele><time>2026-04-05T07:21:09Z</time></trkpt><trkpt lat="39.93626162900931" lon="18.170661751790707"><ele>85.0</ele><time>2026-04-05T07:21:10Z</time></trkpt><trkpt lat="39.9365039421789" lon="18.17043631217225"><ele>85.0</ele><time>2026-04-05T07:21:11Z</time></trkpt><trkpt lat="39.93675702108291" lon="18.170225007051087"><ele>85.0</ele><time>2026-04-05T07:21:12Z</time></trkpt><trkpt lat="39.93700299628034" lon="18.169986245863313"><ele>84.5</ele><time>2026-04-05T07:21:13Z</time></trkpt><trkpt lat="39.93724821326631" lon="18.169753001364434"><ele>84.0</ele><time>2026-04-05T07:21:14Z</time></trkpt><trkpt lat="39.93749708371752" lon="18.169523751633456"><ele>83.5</ele><time>2026-04-05T07:21:15Z</time></trkpt><trkpt lat="39.937749665511625" lon="18.1692948668066"><ele>83.0</ele><time>2026-04-05T07:21:16Z</time></trkpt><trkpt lat="39.937998116310524" lon="18.169066942395975"><ele>82.5</ele><time>2026-04-05T07:21:17Z</time></trkpt><trkpt lat="39.93824748707029" lon="18.168838855784713"><ele>82.0</ele><time>2026-04-05T07:21:18Z</time></trkpt><trkpt lat="39.93849418947215" lon="18.168603846809056"><ele>81.5</ele><time>2026-04-05T07:21:19Z</time></trkpt><trkpt lat="39.93874300793676" lon="18.16837236878347"><ele>81.0</ele><time>2026-04-05T07:21:20Z</time></trkpt><trkpt lat="39.93899232146845" lon="18.168145150544177"><ele>80.0</ele><time>2026-04-05T07:21:21Z</time></trkpt><trkpt lat="39.93923813654789" lon="18.167915207778172"><ele>79.0</ele><time>2026-04-05T07:21:22Z</time></trkpt><trkpt lat="39.93948260194929" lon="18.167691024745185"><ele>79.0</ele><time>2026-04-05T07:21:23Z</time></trkpt><trkpt lat="39.93972287214863" lon="18.167475236972017"><ele>79.0</ele><time>2026-04-05T07:21:24Z</time></trkpt><trkpt lat="39.939959936840026" lon="18.167253727209275"><ele>79.0</ele><time>2026-04-05T07:21:25Z</time></trkpt><trkpt lat="39.940196537514716" lon="18.16703934202194"><ele>79.0</ele><time>2026-04-05T07:21:26Z</time></trkpt><trkpt lat="39.94043412441695" lon="18.166814774687907"><ele>79.0</ele><time>2026-04-05T07:21:27Z</time></trkpt><trkpt lat="39.940668764981844" lon="18.16658105224339"><ele>79.0</ele><time>2026-04-05T07:21:28Z</time></trkpt><trkpt lat="39.94089924880141" lon="18.166343839748627"><ele>78.0</ele><time>2026-04-05T07:21:29Z</time></trkpt><trkpt lat="39.94112168377143" lon="18.166101590561453"><ele>77.0</ele><time>2026-04-05T07:21:30Z</time></trkpt><trkpt lat="39.941335511537524" lon="18.165852515228657"><ele>76.5</ele><time>2026-04-05T07:21:31Z</time></trkpt><trkpt lat="39.941542576972836" lon="18.1656002286967"><ele>76.0</ele><time>2026-04-05T07:21:32Z</time></trkpt><trkpt lat="39.94173848918578" lon="18.165333341808484"><ele>77.0</ele><time>2026-04-05T07:21:33Z</time></trkpt><trkpt lat="39.941935517740255" lon="18.16506746305792"><ele>78.0</ele><time>2026-04-05T07:21:34Z</time></trkpt><trkpt lat="39.942133116705534" lon="18.164791621189757"><ele>78.0</ele><time>2026-04-05T07:21:35Z</time></trkpt><trkpt lat="39.942319067657664" lon="18.164503441856148"><ele>78.0</ele><time>2026-04-05T07:21:36Z</time></trkpt><trkpt lat="39.94249227289635" lon="18.164198433822943"><ele>76.5</ele><time>2026-04-05T07:21:37Z</time></trkpt><trkpt lat="39.94267312845466" lon="18.16389250626372"><ele>75.0</ele><time>2026-04-05T07:21:38Z</time></trkpt><trkpt lat="39.942843230835805" lon="18.16357676036024"><ele>75.0</ele><time>2026-04-05T07:21:39Z</time></trkpt><trkpt lat="39.94300283323004" lon="18.163247286372542"><ele>75.0</ele><time>2026-04-05T07:21:40Z</time></trkpt><trkpt lat="39.9431670510429" lon="18.16291257893922"><ele>74.5</ele><time>2026-04-05T07:21:41Z</time></trkpt><trkpt lat="39.94331935353374" lon="18.16257067662133"><ele>74.0</ele><time>2026-04-05T07:21:42Z</time></trkpt><trkpt lat="39.94345973012695" lon="18.162210744946638"><ele>74.0</ele><time>2026-04-05T07:21:43Z</time></trkpt><trkpt lat="39.94360245203158" lon="18.161858769833096"><ele>74.0</ele><time>2026-04-05T07:21:44Z</time></trkpt><trkpt lat="39.943736391041504" lon="18.161495450164903"><ele>72.5</ele><time>2026-04-05T07:21:45Z</time></trkpt><trkpt lat="39.943872061264486" lon="18.161128440076734"><ele>71.0</ele><time>2026-04-05T07:21:46Z</time></trkpt><trkpt lat="39.94401016630624" lon="18.160762873176846"><ele>70.5</ele><time>2026-04-05T07:21:47Z</time></trkpt><trkpt lat="39.94415031293597" lon="18.160400990346407"><ele>70.0</ele><time>2026-04-05T07:21:48Z</time></trkpt><trkpt lat="39.944293948954886" lon="18.160048796665997"><ele>69.5</ele><time>2026-04-05T07:21:49Z</time></trkpt><trkpt lat="39.944435173200624" lon="18.159698977772685"><ele>69.0</ele><time>2026-04-05T07:21:50Z</time></trkpt><trkpt lat="39.944571863602036" lon="18.159347207591612"><ele>69.5</ele><time>2026-04-05T07:21:51Z</time></trkpt><trkpt lat="39.94470794529262" lon="18.1589963541493"><ele>70.0</ele><time>2026-04-05T07:21:52Z</time></trkpt><trkpt lat="39.94484598730433" lon="18.15864839041403"><ele>70.0</ele><time>2026-04-05T07:21:53Z</time></trkpt><trkpt lat="39.944984152311505" lon="18.15829391577955"><ele>70.0</ele><time>2026-04-05T07:21:54Z</time></trkpt><trkpt lat="39.94512212965898" lon="18.157937265830707"><ele>68.0</ele><time>2026-04-05T07:21:55Z</time></trkpt><trkpt lat="39.945261405697295" lon="18.15758310127616"><ele>66.0</ele><time>2026-04-05T07:21:56Z</time></trkpt><trkpt lat="39.945398156042536" lon="18.15722069575544"><ele>66.0</ele><time>2026-04-05T07:21:57Z</time></trkpt><trkpt lat="39.945536541693166" lon="18.15686109646132"><ele>66.0</ele><time>2026-04-05T07:21:58Z</time></trkpt><trkpt lat="39.94567425931587" lon="18.156503039463388"><ele>66.0</ele><time>2026-04-05T07:21:59Z</time></trkpt><trkpt lat="39.94581152379209" lon="18.156140086089575"><ele>66.0</ele><time>2026-04-05T07:22:00Z</time></trkpt><trkpt lat="39.94595006639543" lon="18.155779974188107"><ele>66.5</ele><time>2026-04-05T07:22:01Z</time></trkpt><trkpt lat="39.94609140975354" lon="18.155423018868394"><ele>67.0</ele><time>2026-04-05T07:22:02Z</time></trkpt><trkpt lat="39.946232136623486" lon="18.155066088542842"><ele>66.5</ele><time>2026-04-05T07:22:03Z</time></trkpt><trkpt lat="39.946375096854695" lon="18.154708364396136"><ele>66.0</ele><time>2026-04-05T07:22:04Z</time></trkpt><trkpt lat="39.94651347696723" lon="18.154353018248898"><ele>66.0</ele><time>2026-04-05T07:22:05.001Z</time></trkpt><trkpt lat="39.946648355434576" lon="18.153996741985186"><ele>66.0</ele><time>2026-04-05T07:22:06.001Z</time></trkpt><trkpt lat="39.946786731927745" lon="18.153643153535757"><ele>66.0</ele><time>2026-04-05T07:22:07.001Z</time></trkpt><trkpt lat="39.94692448076116" lon="18.15328784113364"><ele>66.0</ele><time>2026-04-05T07:22:08.001Z</time></trkpt><trkpt lat="39.947063103068544" lon="18.15293107033733"><ele>66.0</ele><time>2026-04-05T07:22:09.001Z</time></trkpt><trkpt lat="39.94719690428629" lon="18.152572233554633"><ele>66.0</ele><time>2026-04-05T07:22:10.001Z</time></trkpt><trkpt lat="39.94733448031324" lon="18.152216737296513"><ele>65.0</ele><time>2026-04-05T07:22:11.001Z</time></trkpt><trkpt lat="39.94747457945602" lon="18.151856478885087"><ele>64.0</ele><time>2026-04-05T07:22:12.001Z</time></trkpt><trkpt lat="39.94764489190761" lon="18.15152758041035"><ele>63.0</ele><time>2026-04-05T07:22:13.001Z</time></trkpt><trkpt lat="39.94778113294885" lon="18.151177770440395"><ele>62.0</ele><time>2026-04-05T07:22:14.001Z</time></trkpt><trkpt lat="39.94791761269295" lon="18.150827347572044"><ele>61.0</ele><time>2026-04-05T07:22:15.001Z</time></trkpt><trkpt lat="39.948051902283474" lon="18.15047893257845"><ele>60.0</ele><time>2026-04-05T07:22:16.001Z</time></trkpt><trkpt lat="39.94818514865358" lon="18.1501324327191"><ele>59.5</ele><time>2026-04-05T07:22:17.001Z</time></trkpt><trkpt lat="39.948318232156566" lon="18.149790663125465"><ele>59.0</ele><time>2026-04-05T07:22:18.001Z</time></trkpt><trkpt lat="39.94845350372983" lon="18.149448328532856"><ele>59.0</ele><time>2026-04-05T07:22:19.001Z</time></trkpt><trkpt lat="39.94858430526504" lon="18.14911093990991"><ele>59.0</ele><time>2026-04-05T07:22:20.001Z</time></trkpt><trkpt lat="39.948715998404886" lon="18.148770740921904"><ele>58.5</ele><time>2026-04-05T07:22:21.001Z</time></trkpt><trkpt lat="39.948846113609285" lon="18.148434618167837"><ele>58.0</ele><time>2026-04-05T07:22:22.001Z</time></trkpt><trkpt lat="39.94897491117507" lon="18.14810189922957"><ele>58.0</ele><time>2026-04-05T07:22:23.001Z</time></trkpt><trkpt lat="39.94910345357945" lon="18.147770563969374"><ele>58.0</ele><time>2026-04-05T07:22:24.001Z</time></trkpt><trkpt lat="39.94923219561444" lon="18.14743883130884"><ele>57.5</ele><time>2026-04-05T07:22:25.001Z</time></trkpt><trkpt lat="39.949360748364754" lon="18.14710683945938"><ele>57.0</ele><time>2026-04-05T07:22:26.001Z</time></trkpt><trkpt lat="39.94948875368837" lon="18.146776188394902"><ele>57.0</ele><time>2026-04-05T07:22:27.001Z</time></trkpt><trkpt lat="39.949617215292086" lon="18.146444358714724"><ele>57.0</ele><time>2026-04-05T07:22:28.001Z</time></trkpt><trkpt lat="39.94974387165232" lon="18.14611719214785"><ele>57.0</ele><time>2026-04-05T07:22:29.001Z</time></trkpt><trkpt lat="39.94987219703677" lon="18.14578579815957"><ele>57.0</ele><time>2026-04-05T07:22:30.001Z</time></trkpt><trkpt lat="39.95000093719629" lon="18.145454265488908"><ele>55.5</ele><time>2026-04-05T07:22:31.001Z</time></trkpt><trkpt lat="39.95013019096872" lon="18.145121410159884"><ele>54.0</ele><time>2026-04-05T07:22:32.001Z</time></trkpt><trkpt lat="39.95026137509382" lon="18.144783512422492"><ele>54.0</ele><time>2026-04-05T07:22:33.001Z</time></trkpt><trkpt lat="39.95039233135349" lon="18.14444303444789"><ele>54.0</ele><time>2026-04-05T07:22:34.001Z</time></trkpt><trkpt lat="39.95052375398499" lon="18.144101343932412"><ele>54.0</ele><time>2026-04-05T07:22:35.001Z</time></trkpt><trkpt lat="39.95065870495073" lon="18.14375397593376"><ele>54.0</ele><time>2026-04-05T07:22:36.001Z</time></trkpt><trkpt lat="39.950792979780935" lon="18.14341042351229"><ele>53.5</ele><time>2026-04-05T07:22:37.001Z</time></trkpt><trkpt lat="39.950928047305204" lon="18.14306484292867"><ele>53.0</ele><time>2026-04-05T07:22:38.001Z</time></trkpt><trkpt lat="39.95106431272206" lon="18.142715815833135"><ele>53.0</ele><time>2026-04-05T07:22:39.001Z</time></trkpt><trkpt lat="39.95120032368061" lon="18.14236496575141"><ele>53.0</ele><time>2026-04-05T07:22:40.001Z</time></trkpt><trkpt lat="39.95133758198028" lon="18.14201132331013"><ele>53.0</ele><time>2026-04-05T07:22:41.001Z</time></trkpt><trkpt lat="39.95147373851306" lon="18.141659660297165"><ele>53.0</ele><time>2026-04-05T07:22:42.001Z</time></trkpt><trkpt lat="39.9516082876302" lon="18.141312148896066"><ele>52.0</ele><time>2026-04-05T07:22:43.001Z</time></trkpt><trkpt lat="39.95174240675426" lon="18.140965748074947"><ele>51.0</ele><time>2026-04-05T07:22:44.001Z</time></trkpt><trkpt lat="39.95187671727022" lon="18.140618852930373"><ele>51.0</ele><time>2026-04-05T07:22:45.001Z</time></trkpt><trkpt lat="39.952011064457125" lon="18.14027263450376"><ele>51.0</ele><time>2026-04-05T07:22:46.001Z</time></trkpt><trkpt lat="39.9521449250027" lon="18.13992757324324"><ele>51.0</ele><time>2026-04-05T07:22:47.001Z</time></trkpt><trkpt lat="39.95227817449686" lon="18.139583542236608"><ele>51.0</ele><time>2026-04-05T07:22:48.001Z</time></trkpt><trkpt lat="39.952411153327304" lon="18.139240209362594"><ele>51.0</ele><time>2026-04-05T07:22:49.001Z</time></trkpt><trkpt lat="39.95254406933197" lon="18.1388970387383"><ele>51.0</ele><time>2026-04-05T07:22:50.001Z</time></trkpt><trkpt lat="39.9526790157716" lon="18.13854862578541"><ele>51.0</ele><time>2026-04-05T07:22:51.001Z</time></trkpt><trkpt lat="39.95281248876217" lon="18.13820401752662"><ele>51.0</ele><time>2026-04-05T07:22:52.001Z</time></trkpt><trkpt lat="39.952947442804074" lon="18.13785558562345"><ele>51.0</ele><time>2026-04-05T07:22:53.001Z</time></trkpt><trkpt lat="39.95308058851847" lon="18.137506701395"><ele>51.0</ele><time>2026-04-05T07:22:54.001Z</time></trkpt><trkpt lat="39.953188042582426" lon="18.13714201461184"><ele>51.0</ele><time>2026-04-05T07:22:55.001Z</time></trkpt><trkpt lat="39.953325359492396" lon="18.13679279261658"><ele>51.0</ele><time>2026-04-05T07:22:56.001Z</time></trkpt><trkpt lat="39.953459838832096" lon="18.136444340662113"><ele>50.5</ele><time>2026-04-05T07:22:57.001Z</time></trkpt><trkpt lat="39.953593440347575" lon="18.13609538914628"><ele>50.0</ele><time>2026-04-05T07:22:58.001Z</time></trkpt><trkpt lat="39.95372689459247" lon="18.13574886195496"><ele>50.5</ele><time>2026-04-05T07:22:59.001Z</time></trkpt><trkpt lat="39.95386089720048" lon="18.135400986208847"><ele>51.0</ele><time>2026-04-05T07:23:00.001Z</time></trkpt><trkpt lat="39.95399730814799" lon="18.13505383162266"><ele>51.0</ele><time>2026-04-05T07:23:01.001Z</time></trkpt><trkpt lat="39.954134136567134" lon="18.134709602488208"><ele>51.0</ele><time>2026-04-05T07:23:02.001Z</time></trkpt><trkpt lat="39.9542662324371" lon="18.134362641423177"><ele>52.5</ele><time>2026-04-05T07:23:03.001Z</time></trkpt><trkpt lat="39.95440301631006" lon="18.134016073940114"><ele>54.0</ele><time>2026-04-05T07:23:04.001Z</time></trkpt><trkpt lat="39.95453511379861" lon="18.133666598773697"><ele>54.0</ele><time>2026-04-05T07:23:05.001Z</time></trkpt><trkpt lat="39.95466866419115" lon="18.133323188096043"><ele>54.0</ele><time>2026-04-05T07:23:06.001Z</time></trkpt><trkpt lat="39.95480212676546" lon="18.132980730335465"><ele>54.0</ele><time>2026-04-05T07:23:07.001Z</time></trkpt><trkpt lat="39.95493555129387" lon="18.13263637601719"><ele>54.0</ele><time>2026-04-05T07:23:08Z</time></trkpt><trkpt lat="39.95506534135844" lon="18.132288356991893"><ele>54.5</ele><time>2026-04-05T07:23:09Z</time></trkpt><trkpt lat="39.95519564353049" lon="18.131952232964252"><ele>55.0</ele><time>2026-04-05T07:23:10Z</time></trkpt><trkpt lat="39.95532473786473" lon="18.131596637767267"><ele>54.5</ele><time>2026-04-05T07:23:11Z</time></trkpt><trkpt lat="39.95545701668838" lon="18.131243234973418"><ele>54.0</ele><time>2026-04-05T07:23:12Z</time></trkpt><trkpt lat="39.95558992064412" lon="18.130895753981072"><ele>54.0</ele><time>2026-04-05T07:23:13Z</time></trkpt><trkpt lat="39.95572229015332" lon="18.13054970223883"><ele>54.0</ele><time>2026-04-05T07:23:14Z</time></trkpt><trkpt lat="39.955856832011534" lon="18.13020808818472"><ele>53.5</ele><time>2026-04-05T07:23:15Z</time></trkpt><trkpt lat="39.95599055973468" lon="18.12986420959976"><ele>53.0</ele><time>2026-04-05T07:23:16Z</time></trkpt><trkpt lat="39.95612514445944" lon="18.129517275814834"><ele>53.0</ele><time>2026-04-05T07:23:17Z</time></trkpt><trkpt lat="39.95626263717419" lon="18.129175224369945"><ele>53.0</ele><time>2026-04-05T07:23:18Z</time></trkpt><trkpt lat="39.956399656936995" lon="18.128826661738017"><ele>52.5</ele><time>2026-04-05T07:23:19Z</time></trkpt><trkpt lat="39.95653521125632" lon="18.12848652118551"><ele>52.0</ele><time>2026-04-05T07:23:20Z</time></trkpt><trkpt lat="39.956667226121304" lon="18.128141906222055"><ele>51.5</ele><time>2026-04-05T07:23:21Z</time></trkpt><trkpt lat="39.956799715233906" lon="18.127796230825698"><ele>51.0</ele><time>2026-04-05T07:23:22Z</time></trkpt><trkpt lat="39.95693690496161" lon="18.127448651889054"><ele>50.5</ele><time>2026-04-05T07:23:23Z</time></trkpt><trkpt lat="39.95707285465509" lon="18.127096187372757"><ele>50.0</ele><time>2026-04-05T07:23:24Z</time></trkpt><trkpt lat="39.957208496632745" lon="18.126743747264502"><ele>50.0</ele><time>2026-04-05T07:23:25Z</time></trkpt><trkpt lat="39.957346008608134" lon="18.12638963969111"><ele>50.0</ele><time>2026-04-05T07:23:26Z</time></trkpt><trkpt lat="39.957483108387976" lon="18.126037175463207"><ele>50.0</ele><time>2026-04-05T07:23:27Z</time></trkpt><trkpt lat="39.95762281823254" lon="18.12568503951645"><ele>50.0</ele><time>2026-04-05T07:23:28Z</time></trkpt><trkpt lat="39.95775923704753" lon="18.12532922485217"><ele>50.0</ele><time>2026-04-05T07:23:29Z</time></trkpt><trkpt lat="39.9578980955353" lon="18.124974034725938"><ele>50.0</ele><time>2026-04-05T07:23:30Z</time></trkpt><trkpt lat="39.95803596584334" lon="18.124615624041514"><ele>50.0</ele><time>2026-04-05T07:23:31Z</time></trkpt><trkpt lat="39.95817189974017" lon="18.124261420810864"><ele>50.0</ele><time>2026-04-05T07:23:32Z</time></trkpt><trkpt lat="39.95830590795761" lon="18.123920655183156"><ele>48.5</ele><time>2026-04-05T07:23:33Z</time></trkpt><trkpt lat="39.95843196718268" lon="18.123592508460444"><ele>47.0</ele><time>2026-04-05T07:23:34Z</time></trkpt><trkpt lat="39.95856053743457" lon="18.12326533469381"><ele>47.0</ele><time>2026-04-05T07:23:35Z</time></trkpt><trkpt lat="39.95868809694232" lon="18.122935473768816"><ele>47.0</ele><time>2026-04-05T07:23:36Z</time></trkpt><trkpt lat="39.95881426009989" lon="18.12260605863994"><ele>48.0</ele><time>2026-04-05T07:23:37Z</time></trkpt><trkpt lat="39.95894253501216" lon="18.122277942138016"><ele>49.0</ele><time>2026-04-05T07:23:38Z</time></trkpt><trkpt lat="39.959070258471726" lon="18.12195442878979"><ele>49.0</ele><time>2026-04-05T07:23:39Z</time></trkpt><trkpt lat="39.959196017144244" lon="18.121633120132188"><ele>49.0</ele><time>2026-04-05T07:23:40Z</time></trkpt><trkpt lat="39.95931151766107" lon="18.121324188737017"><ele>48.5</ele><time>2026-04-05T07:23:41Z</time></trkpt><trkpt lat="39.95942817126042" lon="18.121010020190596"><ele>48.0</ele><time>2026-04-05T07:23:42Z</time></trkpt><trkpt lat="39.95955134415267" lon="18.120702237148905"><ele>48.0</ele><time>2026-04-05T07:23:43Z</time></trkpt><trkpt lat="39.959672032937874" lon="18.12039011757765"><ele>48.0</ele><time>2026-04-05T07:23:44Z</time></trkpt><trkpt lat="39.95979037609795" lon="18.12008416013349"><ele>47.5</ele><time>2026-04-05T07:23:45Z</time></trkpt><trkpt lat="39.95990860196428" lon="18.119781194854042"><ele>47.0</ele><time>2026-04-05T07:23:46Z</time></trkpt><trkpt lat="39.96002997644215" lon="18.11948063825895"><ele>47.5</ele><time>2026-04-05T07:23:47Z</time></trkpt><trkpt lat="39.96016207059506" lon="18.119179658964892"><ele>48.0</ele><time>2026-04-05T07:23:48Z</time></trkpt><trkpt lat="39.96029898608032" lon="18.118886391027374"><ele>48.0</ele><time>2026-04-05T07:23:49Z</time></trkpt><trkpt lat="39.96044575313531" lon="18.11860220250552"><ele>48.0</ele><time>2026-04-05T07:23:50Z</time></trkpt><trkpt lat="39.9605888943575" lon="18.118313506810132"><ele>47.5</ele><time>2026-04-05T07:23:51Z</time></trkpt><trkpt lat="39.96074789169243" lon="18.118034191065373"><ele>47.0</ele><time>2026-04-05T07:23:52Z</time></trkpt><trkpt lat="39.960915927286024" lon="18.117758945526543"><ele>47.0</ele><time>2026-04-05T07:23:53Z</time></trkpt><trkpt lat="39.961081800318425" lon="18.117483979470705"><ele>47.0</ele><time>2026-04-05T07:23:54Z</time></trkpt><trkpt lat="39.961260631006084" lon="18.1172379295775"><ele>46.5</ele><time>2026-04-05T07:23:55Z</time></trkpt><trkpt lat="39.96143850526493" lon="18.1169886222997"><ele>46.0</ele><time>2026-04-05T07:23:56Z</time></trkpt><trkpt lat="39.9616198431052" lon="18.116745353207765"><ele>47.5</ele><time>2026-04-05T07:23:57Z</time></trkpt><trkpt lat="39.96178812065004" lon="18.116513049890386"><ele>49.0</ele><time>2026-04-05T07:23:58Z</time></trkpt><trkpt lat="39.96195522851125" lon="18.116302815890258"><ele>49.0</ele><time>2026-04-05T07:23:59Z</time></trkpt><trkpt lat="39.962153346973004" lon="18.116129053463794"><ele>49.0</ele><time>2026-04-05T07:24:00Z</time></trkpt><trkpt lat="39.962334245295494" lon="18.11592791175099"><ele>49.0</ele><time>2026-04-05T07:24:01Z</time></trkpt><trkpt lat="39.96251960928608" lon="18.115735027174097"><ele>49.0</ele><time>2026-04-05T07:24:02Z</time></trkpt><trkpt lat="39.96271105682513" lon="18.11554482573956"><ele>49.0</ele><time>2026-04-05T07:24:03Z</time></trkpt><trkpt lat="39.96290621378092" lon="18.11535970773131"><ele>49.0</ele><time>2026-04-05T07:24:04Z</time></trkpt><trkpt lat="39.96310975884494" lon="18.115182183094724"><ele>49.0</ele><time>2026-04-05T07:24:05Z</time></trkpt><trkpt lat="39.96331216988171" lon="18.115010006731602"><ele>49.0</ele><time>2026-04-05T07:24:06Z</time></trkpt><trkpt lat="39.96351264613416" lon="18.114845994533926"><ele>51.0</ele><time>2026-04-05T07:24:07Z</time></trkpt><trkpt lat="39.9637230563568" lon="18.114686780280465"><ele>53.0</ele><time>2026-04-05T07:24:08Z</time></trkpt><trkpt lat="39.963937685533004" lon="18.114535065183016"><ele>53.0</ele><time>2026-04-05T07:24:09Z</time></trkpt><trkpt lat="39.96414912993095" lon="18.114392947099525"><ele>53.0</ele><time>2026-04-05T07:24:10Z</time></trkpt><trkpt lat="39.96436387286843" lon="18.114261906489716"><ele>52.5</ele><time>2026-04-05T07:24:11Z</time></trkpt><trkpt lat="39.9645767515159" lon="18.11411324407738"><ele>52.0</ele><time>2026-04-05T07:24:12Z</time></trkpt><trkpt lat="39.96480408015996" lon="18.11398757526959"><ele>51.0</ele><time>2026-04-05T07:24:13Z</time></trkpt><trkpt lat="39.96504538530527" lon="18.113873788274546"><ele>50.0</ele><time>2026-04-05T07:24:14Z</time></trkpt><trkpt lat="39.9652757510113" lon="18.113745887872497"><ele>50.0</ele><time>2026-04-05T07:24:15.001Z</time></trkpt><trkpt lat="39.965498174155655" lon="18.113622397296098"><ele>50.0</ele><time>2026-04-05T07:24:16.001Z</time></trkpt><trkpt lat="39.96572161045146" lon="18.113498344214"><ele>49.5</ele><time>2026-04-05T07:24:17.001Z</time></trkpt><trkpt lat="39.96594971009491" lon="18.113371702019784"><ele>49.0</ele><time>2026-04-05T07:24:18.001Z</time></trkpt><trkpt lat="39.966190907584014" lon="18.113237585156636"><ele>49.0</ele><time>2026-04-05T07:24:19.001Z</time></trkpt><trkpt lat="39.966438636949825" lon="18.113099403708407"><ele>49.0</ele><time>2026-04-05T07:24:20.001Z</time></trkpt><trkpt lat="39.96668752416117" lon="18.112960684037688"><ele>50.0</ele><time>2026-04-05T07:24:21.001Z</time></trkpt><trkpt lat="39.966939344660354" lon="18.11282047685796"><ele>51.0</ele><time>2026-04-05T07:24:22.001Z</time></trkpt><trkpt lat="39.967188436272345" lon="18.112681776332355"><ele>51.0</ele><time>2026-04-05T07:24:23.001Z</time></trkpt><trkpt lat="39.96743992642623" lon="18.112541987695664"><ele>51.0</ele><time>2026-04-05T07:24:24.001Z</time></trkpt><trkpt lat="39.967692898439005" lon="18.11240249760268"><ele>50.0</ele><time>2026-04-05T07:24:25.001Z</time></trkpt><trkpt lat="39.967944291657545" lon="18.11226155595439"><ele>49.0</ele><time>2026-04-05T07:24:26.001Z</time></trkpt><trkpt lat="39.968189427111135" lon="18.112108995320355"><ele>49.5</ele><time>2026-04-05T07:24:27.001Z</time></trkpt><trkpt lat="39.96844260685077" lon="18.11197052139571"><ele>50.0</ele><time>2026-04-05T07:24:28.001Z</time></trkpt><trkpt lat="39.968694987404035" lon="18.111826766467374"><ele>50.0</ele><time>2026-04-05T07:24:29.001Z</time></trkpt><trkpt lat="39.968943992635495" lon="18.1116962809028"><ele>50.0</ele><time>2026-04-05T07:24:30.001Z</time></trkpt><trkpt lat="39.96919213442278" lon="18.111555912132456"><ele>50.0</ele><time>2026-04-05T07:24:31.001Z</time></trkpt><trkpt lat="39.969436547941896" lon="18.111424212343746"><ele>50.0</ele><time>2026-04-05T07:24:32.001Z</time></trkpt><trkpt lat="39.96968141447869" lon="18.11128625714109"><ele>50.0</ele><time>2026-04-05T07:24:33.001Z</time></trkpt><trkpt lat="39.96992889158947" lon="18.111150045258576"><ele>50.0</ele><time>2026-04-05T07:24:34.001Z</time></trkpt><trkpt lat="39.97017927818491" lon="18.111014858991755"><ele>50.0</ele><time>2026-04-05T07:24:35.001Z</time></trkpt><trkpt lat="39.97042506376681" lon="18.110869859662966"><ele>50.0</ele><time>2026-04-05T07:24:36.001Z</time></trkpt><trkpt lat="39.970678310910984" lon="18.110733323514577"><ele>49.5</ele><time>2026-04-05T07:24:37.001Z</time></trkpt><trkpt lat="39.970925532765705" lon="18.110595073725843"><ele>49.0</ele><time>2026-04-05T07:24:38.001Z</time></trkpt><trkpt lat="39.97117116980451" lon="18.110457280772327"><ele>49.0</ele><time>2026-04-05T07:24:39.001Z</time></trkpt><trkpt lat="39.97141681572983" lon="18.110317343117632"><ele>49.0</ele><time>2026-04-05T07:24:40.001Z</time></trkpt><trkpt lat="39.97165466307424" lon="18.110178316864364"><ele>49.0</ele><time>2026-04-05T07:24:41.001Z</time></trkpt><trkpt lat="39.971895930026314" lon="18.110051679127874"><ele>49.0</ele><time>2026-04-05T07:24:42.001Z</time></trkpt><trkpt lat="39.972125657669494" lon="18.10991408434265"><ele>49.0</ele><time>2026-04-05T07:24:43.001Z</time></trkpt><trkpt lat="39.9723474137176" lon="18.10980336227231"><ele>49.0</ele><time>2026-04-05T07:24:44.001Z</time></trkpt><trkpt lat="39.972552370657425" lon="18.109692125775066"><ele>49.0</ele><time>2026-04-05T07:24:45.001Z</time></trkpt><trkpt lat="39.972754364544016" lon="18.109570772261094"><ele>49.0</ele><time>2026-04-05T07:24:46.001Z</time></trkpt><trkpt lat="39.97295816185399" lon="18.109459916502175"><ele>49.0</ele><time>2026-04-05T07:24:47.001Z</time></trkpt><trkpt lat="39.973156956412495" lon="18.10934354384336"><ele>49.0</ele><time>2026-04-05T07:24:48.001Z</time></trkpt><trkpt lat="39.97336011785514" lon="18.10923515271514"><ele>49.0</ele><time>2026-04-05T07:24:49.001Z</time></trkpt><trkpt lat="39.97356222093059" lon="18.109131397397334"><ele>49.0</ele><time>2026-04-05T07:24:50.001Z</time></trkpt><trkpt lat="39.973764301791626" lon="18.10901320555131"><ele>49.33333333333333</ele><time>2026-04-05T07:24:51.001Z</time></trkpt><trkpt lat="39.97396979182697" lon="18.108906426524833"><ele>49.66666666666667</ele><time>2026-04-05T07:24:52.001Z</time></trkpt><trkpt lat="39.97417165929611" lon="18.108790744241126"><ele>50.0</ele><time>2026-04-05T07:24:53.001Z</time></trkpt><trkpt lat="39.97437480740552" lon="18.108675392671916"><ele>50.0</ele><time>2026-04-05T07:24:54.001Z</time></trkpt><trkpt lat="39.97458098532111" lon="18.10856261055777"><ele>50.0</ele><time>2026-04-05T07:24:55.001Z</time></trkpt><trkpt lat="39.9747873313186" lon="18.108449442075774"><ele>50.0</ele><time>2026-04-05T07:24:56.001Z</time></trkpt><trkpt lat="39.975001969012965" lon="18.108342799073423"><ele>48.0</ele><time>2026-04-05T07:24:57.001Z</time></trkpt><trkpt lat="39.975215363776115" lon="18.10822971653033"><ele>46.0</ele><time>2026-04-05T07:24:58.001Z</time></trkpt><trkpt lat="39.9754234296037" lon="18.10811363027059"><ele>46.0</ele><time>2026-04-05T07:24:59.001Z</time></trkpt><trkpt lat="39.975626652075064" lon="18.10799091850367"><ele>46.0</ele><time>2026-04-05T07:25:00.001Z</time></trkpt><trkpt lat="39.97582300043578" lon="18.107886426109033"><ele>46.0</ele><time>2026-04-05T07:25:01.001Z</time></trkpt><trkpt lat="39.976020656416445" lon="18.107780991951337"><ele>47.66666666666667</ele><time>2026-04-05T07:25:02.001Z</time></trkpt><trkpt lat="39.976223704497684" lon="18.10767556577994"><ele>49.333333333333336</ele><time>2026-04-05T07:25:03.001Z</time></trkpt><trkpt lat="39.97643101510157" lon="18.107563271272618"><ele>51.0</ele><time>2026-04-05T07:25:04.001Z</time></trkpt><trkpt lat="39.976643398409955" lon="18.107452559003438"><ele>50.5</ele><time>2026-04-05T07:25:05.001Z</time></trkpt><trkpt lat="39.97686244263752" lon="18.107329340839826"><ele>50.0</ele><time>2026-04-05T07:25:06.001Z</time></trkpt><trkpt lat="39.97708300630755" lon="18.107206045094124"><ele>50.0</ele><time>2026-04-05T07:25:07.001Z</time></trkpt><trkpt lat="39.97729915123507" lon="18.10707649471516"><ele>50.0</ele><time>2026-04-05T07:25:08.001Z</time></trkpt><trkpt lat="39.97751351513064" lon="18.106955655876206"><ele>49.5</ele><time>2026-04-05T07:25:09.001Z</time></trkpt><trkpt lat="39.977715797125825" lon="18.106824346612775"><ele>49.0</ele><time>2026-04-05T07:25:10.001Z</time></trkpt><trkpt lat="39.97792001349676" lon="18.106700360119362"><ele>49.0</ele><time>2026-04-05T07:25:11.001Z</time></trkpt><trkpt lat="39.9781264097928" lon="18.106586972707035"><ele>49.0</ele><time>2026-04-05T07:25:12.001Z</time></trkpt><trkpt lat="39.978330871124825" lon="18.106468897722333"><ele>49.0</ele><time>2026-04-05T07:25:13.001Z</time></trkpt><trkpt lat="39.978533751394295" lon="18.10635182979506"><ele>48.666666666666664</ele><time>2026-04-05T07:25:14Z</time></trkpt><trkpt lat="39.97873392738525" lon="18.106237086856897"><ele>48.33333333333333</ele><time>2026-04-05T07:25:15Z</time></trkpt><trkpt lat="39.97894137808223" lon="18.106124949349475"><ele>48.0</ele><time>2026-04-05T07:25:16Z</time></trkpt><trkpt lat="39.979148476364095" lon="18.1060127175886"><ele>48.0</ele><time>2026-04-05T07:25:17Z</time></trkpt><trkpt lat="39.979364932403016" lon="18.10589991006588"><ele>48.0</ele><time>2026-04-05T07:25:18Z</time></trkpt><trkpt lat="39.97958089068315" lon="18.105788853876206"><ele>48.5</ele><time>2026-04-05T07:25:19Z</time></trkpt><trkpt lat="39.97980272230926" lon="18.105662152721923"><ele>49.0</ele><time>2026-04-05T07:25:20Z</time></trkpt><trkpt lat="39.98003160726887" lon="18.105543599118548"><ele>49.0</ele><time>2026-04-05T07:25:21Z</time></trkpt><trkpt lat="39.980262107834314" lon="18.105414887898835"><ele>49.0</ele><time>2026-04-05T07:25:22Z</time></trkpt><trkpt lat="39.980489409740755" lon="18.105288378191656"><ele>49.0</ele><time>2026-04-05T07:25:23Z</time></trkpt><trkpt lat="39.98071555501249" lon="18.105162545744886"><ele>49.0</ele><time>2026-04-05T07:25:24Z</time></trkpt><trkpt lat="39.980944762845645" lon="18.105034816482465"><ele>48.5</ele><time>2026-04-05T07:25:25Z</time></trkpt><trkpt lat="39.981174306607926" lon="18.104923438543903"><ele>48.0</ele><time>2026-04-05T07:25:26Z</time></trkpt><trkpt lat="39.98140043489237" lon="18.104795943150187"><ele>47.5</ele><time>2026-04-05T07:25:27Z</time></trkpt><trkpt lat="39.98162569958092" lon="18.10467307473953"><ele>47.0</ele><time>2026-04-05T07:25:28Z</time></trkpt><trkpt lat="39.98185214626907" lon="18.104552378522765"><ele>48.5</ele><time>2026-04-05T07:25:29Z</time></trkpt><trkpt lat="39.982087998029215" lon="18.10442214282864"><ele>50.0</ele><time>2026-04-05T07:25:30Z</time></trkpt><trkpt lat="39.98232087727653" lon="18.1042874310903"><ele>49.0</ele><time>2026-04-05T07:25:31Z</time></trkpt><trkpt lat="39.982554731773746" lon="18.1041465166642"><ele>48.0</ele><time>2026-04-05T07:25:32Z</time></trkpt><trkpt lat="39.982803863413174" lon="18.10400394476063"><ele>48.0</ele><time>2026-04-05T07:25:33Z</time></trkpt><trkpt lat="39.98306322415303" lon="18.103856164120284"><ele>48.0</ele><time>2026-04-05T07:25:34Z</time></trkpt><trkpt lat="39.9833261100226" lon="18.103698013599494"><ele>48.0</ele><time>2026-04-05T07:25:35Z</time></trkpt><trkpt lat="39.9836047911714" lon="18.103560618126238"><ele>48.0</ele><time>2026-04-05T07:25:36Z</time></trkpt><trkpt lat="39.98388398873531" lon="18.103408813131136"><ele>48.0</ele><time>2026-04-05T07:25:37Z</time></trkpt><trkpt lat="39.98416396012879" lon="18.10324951646814"><ele>48.0</ele><time>2026-04-05T07:25:38Z</time></trkpt><trkpt lat="39.98444872664421" lon="18.10309466509885"><ele>47.5</ele><time>2026-04-05T07:25:39Z</time></trkpt><trkpt lat="39.984729009314655" lon="18.102934480223166"><ele>47.0</ele><time>2026-04-05T07:25:40Z</time></trkpt><trkpt lat="39.98500202227291" lon="18.102773422799643"><ele>47.0</ele><time>2026-04-05T07:25:41Z</time></trkpt><trkpt lat="39.98527203168805" lon="18.102620743635125"><ele>47.0</ele><time>2026-04-05T07:25:42Z</time></trkpt><trkpt lat="39.98552867947281" lon="18.102496657877953"><ele>47.5</ele><time>2026-04-05T07:25:43Z</time></trkpt><trkpt lat="39.98579171990123" lon="18.102383419211016"><ele>48.0</ele><time>2026-04-05T07:25:44Z</time></trkpt><trkpt lat="39.986057207758456" lon="18.1022759484241"><ele>47.0</ele><time>2026-04-05T07:25:45Z</time></trkpt><trkpt lat="39.98632809792267" lon="18.102178262437487"><ele>46.0</ele><time>2026-04-05T07:25:46Z</time></trkpt><trkpt lat="39.986609563112346" lon="18.102102814215442"><ele>46.5</ele><time>2026-04-05T07:25:47Z</time></trkpt><trkpt lat="39.98688799102701" lon="18.102035201737422"><ele>47.0</ele><time>2026-04-05T07:25:48Z</time></trkpt><trkpt lat="39.9871731689534" lon="18.10198204061772"><ele>47.0</ele><time>2026-04-05T07:25:49Z</time></trkpt><trkpt lat="39.98745909343938" lon="18.101938778711464"><ele>47.0</ele><time>2026-04-05T07:25:50Z</time></trkpt><trkpt lat="39.98775028391498" lon="18.101913733378048"><ele>47.5</ele><time>2026-04-05T07:25:51Z</time></trkpt><trkpt lat="39.98804542521598" lon="18.101903963289576"><ele>48.0</ele><time>2026-04-05T07:25:52Z</time></trkpt><trkpt lat="39.988336743559536" lon="18.101894803609085"><ele>47.0</ele><time>2026-04-05T07:25:53Z</time></trkpt><trkpt lat="39.98863331323033" lon="18.10190430896697"><ele>46.0</ele><time>2026-04-05T07:25:54Z</time></trkpt><trkpt lat="39.98891442688098" lon="18.10190816373847"><ele>47.0</ele><time>2026-04-05T07:25:55Z</time></trkpt><trkpt lat="39.98918680601247" lon="18.101902132239477"><ele>48.0</ele><time>2026-04-05T07:25:56Z</time></trkpt><trkpt lat="39.98945448515508" lon="18.101879346613494"><ele>48.0</ele><time>2026-04-05T07:25:57Z</time></trkpt><trkpt lat="39.98972224533193" lon="18.10184867166721"><ele>48.0</ele><time>2026-04-05T07:25:58Z</time></trkpt><trkpt lat="39.98998873999219" lon="18.101807653062846"><ele>48.0</ele><time>2026-04-05T07:25:59Z</time></trkpt><trkpt lat="39.99025087479548" lon="18.101750087224904"><ele>48.0</ele><time>2026-04-05T07:26:00Z</time></trkpt><trkpt lat="39.99050889136992" lon="18.101668860804175"><ele>47.5</ele><time>2026-04-05T07:26:01Z</time></trkpt><trkpt lat="39.990760228144" lon="18.10157788529628"><ele>47.0</ele><time>2026-04-05T07:26:02Z</time></trkpt><trkpt lat="39.99101199302729" lon="18.101484225240643"><ele>48.0</ele><time>2026-04-05T07:26:03Z</time></trkpt><trkpt lat="39.99125320099153" lon="18.101361748356936"><ele>49.0</ele><time>2026-04-05T07:26:04Z</time></trkpt><trkpt lat="39.99148955830788" lon="18.101232462454217"><ele>48.5</ele><time>2026-04-05T07:26:05Z</time></trkpt><trkpt lat="39.99171005452499" lon="18.101082733647843"><ele>48.0</ele><time>2026-04-05T07:26:06Z</time></trkpt><trkpt lat="39.991948432198754" lon="18.100950243766942"><ele>48.0</ele><time>2026-04-05T07:26:07Z</time></trkpt><trkpt lat="39.99217743588343" lon="18.10078940197175"><ele>48.0</ele><time>2026-04-05T07:26:08Z</time></trkpt><trkpt lat="39.99240972487521" lon="18.100615433647697"><ele>48.0</ele><time>2026-04-05T07:26:09Z</time></trkpt><trkpt lat="39.99262863088832" lon="18.100409512839157"><ele>48.0</ele><time>2026-04-05T07:26:10Z</time></trkpt><trkpt lat="39.992843180927615" lon="18.100187616685673"><ele>48.0</ele><time>2026-04-05T07:26:11Z</time></trkpt><trkpt lat="39.99305670987073" lon="18.099964894122188"><ele>48.0</ele><time>2026-04-05T07:26:12Z</time></trkpt><trkpt lat="39.99326286140141" lon="18.09972704486609"><ele>49.5</ele><time>2026-04-05T07:26:13Z</time></trkpt><trkpt lat="39.99346771656018" lon="18.09948130781524"><ele>51.0</ele><time>2026-04-05T07:26:14Z</time></trkpt><trkpt lat="39.99366029769091" lon="18.099230865266495"><ele>51.5</ele><time>2026-04-05T07:26:15Z</time></trkpt><trkpt lat="39.99384432052179" lon="18.0989783866215"><ele>52.0</ele><time>2026-04-05T07:26:16Z</time></trkpt><trkpt lat="39.994017154062654" lon="18.098701896466483"><ele>51.0</ele><time>2026-04-05T07:26:17Z</time></trkpt><trkpt lat="39.99418791125247" lon="18.098421738766024"><ele>50.0</ele><time>2026-04-05T07:26:18Z</time></trkpt><trkpt lat="39.99434449765431" lon="18.098128303439793"><ele>50.0</ele><time>2026-04-05T07:26:19Z</time></trkpt><trkpt lat="39.994486249931676" lon="18.09781952327764"><ele>50.0</ele><time>2026-04-05T07:26:20Z</time></trkpt><trkpt lat="39.99462455906998" lon="18.09750770557762"><ele>50.5</ele><time>2026-04-05T07:26:21Z</time></trkpt><trkpt lat="39.99474867956159" lon="18.097185253512382"><ele>51.0</ele><time>2026-04-05T07:26:22Z</time></trkpt><trkpt lat="39.994867141120075" lon="18.096859506481252"><ele>50.0</ele><time>2026-04-05T07:26:23Z</time></trkpt><trkpt lat="39.99497662876615" lon="18.096523517380874"><ele>49.0</ele><time>2026-04-05T07:26:24Z</time></trkpt><trkpt lat="39.995070489108" lon="18.09618295996623"><ele>48.0</ele><time>2026-04-05T07:26:25Z</time></trkpt><trkpt lat="39.99515551367819" lon="18.09583387651361"><ele>47.0</ele><time>2026-04-05T07:26:26Z</time></trkpt><trkpt lat="39.99523030953019" lon="18.095480202482896"><ele>47.0</ele><time>2026-04-05T07:26:27Z</time></trkpt><trkpt lat="39.995289803770426" lon="18.09512523881646"><ele>47.0</ele><time>2026-04-05T07:26:28Z</time></trkpt><trkpt lat="39.995348647889344" lon="18.094765158770812"><ele>47.0</ele><time>2026-04-05T07:26:29Z</time></trkpt><trkpt lat="39.99540820249171" lon="18.09439948983861"><ele>47.0</ele><time>2026-04-05T07:26:30Z</time></trkpt><trkpt lat="39.99546664176483" lon="18.094036641424623"><ele>47.0</ele><time>2026-04-05T07:26:31Z</time></trkpt><trkpt lat="39.995525902716935" lon="18.093666863188673"><ele>47.0</ele><time>2026-04-05T07:26:32.001Z</time></trkpt><trkpt lat="39.99558436539565" lon="18.09330125942038"><ele>47.5</ele><time>2026-04-05T07:26:33.001Z</time></trkpt><trkpt lat="39.995642571918914" lon="18.09294136584651"><ele>48.0</ele><time>2026-04-05T07:26:34.001Z</time></trkpt><trkpt lat="39.99569904654846" lon="18.092593594601976"><ele>48.0</ele><time>2026-04-05T07:26:35.001Z</time></trkpt><trkpt lat="39.99575449401348" lon="18.092252148750188"><ele>48.0</ele><time>2026-04-05T07:26:36.001Z</time></trkpt><trkpt lat="39.99580929564051" lon="18.091914679839252"><ele>47.5</ele><time>2026-04-05T07:26:37.001Z</time></trkpt><trkpt lat="39.99586262906806" lon="18.091586252114976"><ele>47.0</ele><time>2026-04-05T07:26:38.001Z</time></trkpt><trkpt lat="39.995915774443574" lon="18.09125898239427"><ele>47.0</ele><time>2026-04-05T07:26:39.001Z</time></trkpt><trkpt lat="39.99596887294557" lon="18.090932001869014"><ele>47.0</ele><time>2026-04-05T07:26:40.001Z</time></trkpt><trkpt lat="39.99602140167242" lon="18.090608529214812"><ele>47.0</ele><time>2026-04-05T07:26:41.001Z</time></trkpt><trkpt lat="39.99607282669124" lon="18.090291596296584"><ele>47.0</ele><time>2026-04-05T07:26:42.001Z</time></trkpt><trkpt lat="39.99612418705697" lon="18.089971666363596"><ele>46.5</ele><time>2026-04-05T07:26:43.001Z</time></trkpt><trkpt lat="39.996174745204506" lon="18.089656733497158"><ele>46.0</ele><time>2026-04-05T07:26:44.001Z</time></trkpt><trkpt lat="39.99622593536073" lon="18.0893378636276"><ele>46.0</ele><time>2026-04-05T07:26:45.001Z</time></trkpt><trkpt lat="39.99627617407989" lon="18.089024920611145"><ele>46.0</ele><time>2026-04-05T07:26:46.001Z</time></trkpt><trkpt lat="39.99632401412324" lon="18.08872691928679"><ele>46.0</ele><time>2026-04-05T07:26:47.001Z</time></trkpt><trkpt lat="39.9963711108675" lon="18.0884335478593"><ele>46.0</ele><time>2026-04-05T07:26:48.001Z</time></trkpt><trkpt lat="39.99641872311069" lon="18.088136965401254"><ele>47.0</ele><time>2026-04-05T07:26:49.001Z</time></trkpt><trkpt lat="39.99646649424971" lon="18.087839393153683"><ele>48.0</ele><time>2026-04-05T07:26:50.001Z</time></trkpt><trkpt lat="39.996515141750926" lon="18.087536361911937"><ele>47.5</ele><time>2026-04-05T07:26:51.001Z</time></trkpt><trkpt lat="39.99656377521906" lon="18.087233418043954"><ele>47.0</ele><time>2026-04-05T07:26:52.001Z</time></trkpt><trkpt lat="39.996612377393056" lon="18.086930669205373"><ele>47.0</ele><time>2026-04-05T07:26:53.001Z</time></trkpt><trkpt lat="39.99666026211744" lon="18.08663238926228"><ele>47.0</ele><time>2026-04-05T07:26:54.001Z</time></trkpt><trkpt lat="39.99670864333204" lon="18.086331016897557"><ele>46.0</ele><time>2026-04-05T07:26:55.001Z</time></trkpt><trkpt lat="39.99675604421946" lon="18.086035751191478"><ele>45.0</ele><time>2026-04-05T07:26:56.001Z</time></trkpt><trkpt lat="39.99680064694598" lon="18.085753497328195"><ele>45.0</ele><time>2026-04-05T07:26:57.001Z</time></trkpt><trkpt lat="39.996846646043515" lon="18.085466498110055"><ele>45.0</ele><time>2026-04-05T07:26:58.001Z</time></trkpt><trkpt lat="39.996893704586284" lon="18.08517288908348"><ele>45.0</ele><time>2026-04-05T07:26:59.001Z</time></trkpt><trkpt lat="39.99694099590158" lon="18.0848778275492"><ele>45.0</ele><time>2026-04-05T07:27:00.001Z</time></trkpt><trkpt lat="39.99698828174295" lon="18.084582802478014"><ele>45.0</ele><time>2026-04-05T07:27:01.001Z</time></trkpt><trkpt lat="39.997034323098084" lon="18.084295548241453"><ele>45.0</ele><time>2026-04-05T07:27:02.001Z</time></trkpt><trkpt lat="39.99708080244916" lon="18.084005561337715"><ele>45.5</ele><time>2026-04-05T07:27:03.001Z</time></trkpt><trkpt lat="39.99712474692423" lon="18.083715468283533"><ele>46.0</ele><time>2026-04-05T07:27:04.001Z</time></trkpt><trkpt lat="39.99711763102415" lon="18.083410612955387"><ele>45.66666666666667</ele><time>2026-04-05T07:27:05.001Z</time></trkpt><trkpt lat="39.99715812288218" lon="18.08312328819736"><ele>45.333333333333336</ele><time>2026-04-05T07:27:06.001Z</time></trkpt><trkpt lat="39.997202629593495" lon="18.08284016390596"><ele>45.0</ele><time>2026-04-05T07:27:07.001Z</time></trkpt><trkpt lat="39.99724776173106" lon="18.082554428349614"><ele>45.0</ele><time>2026-04-05T07:27:08.001Z</time></trkpt><trkpt lat="39.997293072021385" lon="18.08227133961199"><ele>45.0</ele><time>2026-04-05T07:27:09.001Z</time></trkpt><trkpt lat="39.99733922362069" lon="18.081986881958727"><ele>45.0</ele><time>2026-04-05T07:27:10.001Z</time></trkpt><trkpt lat="39.99738510685017" lon="18.081703063514052"><ele>45.333333333333336</ele><time>2026-04-05T07:27:11.001Z</time></trkpt><trkpt lat="39.997429544474116" lon="18.08141796295548"><ele>45.66666666666667</ele><time>2026-04-05T07:27:12.001Z</time></trkpt><trkpt lat="39.99747362472853" lon="18.081131890271003"><ele>46.0</ele><time>2026-04-05T07:27:13.001Z</time></trkpt><trkpt lat="39.99752320505122" lon="18.080843355569325"><ele>45.0</ele><time>2026-04-05T07:27:14.001Z</time></trkpt><trkpt lat="39.997568531307316" lon="18.080551838596495"><ele>44.0</ele><time>2026-04-05T07:27:15.001Z</time></trkpt><trkpt lat="39.99761341810569" lon="18.080263703137014"><ele>44.0</ele><time>2026-04-05T07:27:16.001Z</time></trkpt><trkpt lat="39.997660246990705" lon="18.079974934460946"><ele>44.0</ele><time>2026-04-05T07:27:17.001Z</time></trkpt><trkpt lat="39.99770518780592" lon="18.079689210558655"><ele>44.0</ele><time>2026-04-05T07:27:18.001Z</time></trkpt><trkpt lat="39.99774978125441" lon="18.079401536069643"><ele>44.0</ele><time>2026-04-05T07:27:19.001Z</time></trkpt><trkpt lat="39.997797040980466" lon="18.07911116610315"><ele>43.5</ele><time>2026-04-05T07:27:20Z</time></trkpt><trkpt lat="39.99784609080439" lon="18.07881747557027"><ele>43.0</ele><time>2026-04-05T07:27:21Z</time></trkpt><trkpt lat="39.99789424297259" lon="18.07852252560188"><ele>42.5</ele><time>2026-04-05T07:27:22Z</time></trkpt><trkpt lat="39.99794196828972" lon="18.078226641213735"><ele>42.0</ele><time>2026-04-05T07:27:23Z</time></trkpt><trkpt lat="39.997989323389476" lon="18.07792298434219"><ele>42.0</ele><time>2026-04-05T07:27:24Z</time></trkpt><trkpt lat="39.998040366554605" lon="18.077619274178716"><ele>42.0</ele><time>2026-04-05T07:27:25Z</time></trkpt><trkpt lat="39.99808949390048" lon="18.077317032091766"><ele>42.5</ele><time>2026-04-05T07:27:26Z</time></trkpt><trkpt lat="39.998140893209765" lon="18.07701922699964"><ele>43.0</ele><time>2026-04-05T07:27:27Z</time></trkpt><trkpt lat="39.99818980623371" lon="18.07672060915726"><ele>43.0</ele><time>2026-04-05T07:27:28Z</time></trkpt><trkpt lat="39.99823901172495" lon="18.07642105376614"><ele>43.0</ele><time>2026-04-05T07:27:29Z</time></trkpt><trkpt lat="39.99828488076307" lon="18.07611567359451"><ele>43.0</ele><time>2026-04-05T07:27:30Z</time></trkpt><trkpt lat="39.99833320867424" lon="18.075814389731615"><ele>43.0</ele><time>2026-04-05T07:27:31Z</time></trkpt><trkpt lat="39.9983793225696" lon="18.075505728675722"><ele>42.0</ele><time>2026-04-05T07:27:32Z</time></trkpt><trkpt lat="39.99842670924011" lon="18.075197738638465"><ele>41.0</ele><time>2026-04-05T07:27:33Z</time></trkpt><trkpt lat="39.99847571448802" lon="18.07489144521789"><ele>41.0</ele><time>2026-04-05T07:27:34Z</time></trkpt><trkpt lat="39.99852632811527" lon="18.074587195728775"><ele>41.0</ele><time>2026-04-05T07:27:35Z</time></trkpt><trkpt lat="39.99857970006435" lon="18.074280517512967"><ele>40.0</ele><time>2026-04-05T07:27:36Z</time></trkpt><trkpt lat="39.998636456610484" lon="18.073965996667372"><ele>39.0</ele><time>2026-04-05T07:27:37Z</time></trkpt><trkpt lat="39.99868965743989" lon="18.073652850817513"><ele>39.0</ele><time>2026-04-05T07:27:38Z</time></trkpt><trkpt lat="39.99874156199515" lon="18.07333845614552"><ele>39.0</ele><time>2026-04-05T07:27:39Z</time></trkpt><trkpt lat="39.998789958363695" lon="18.073022717357386"><ele>40.0</ele><time>2026-04-05T07:27:40Z</time></trkpt><trkpt lat="39.998837729867134" lon="18.07270942075211"><ele>41.0</ele><time>2026-04-05T07:27:41Z</time></trkpt><trkpt lat="39.99888752797386" lon="18.07239659090005"><ele>41.5</ele><time>2026-04-05T07:27:42Z</time></trkpt><trkpt lat="39.99893728131294" lon="18.07208345504149"><ele>42.0</ele><time>2026-04-05T07:27:43Z</time></trkpt><trkpt lat="39.998990552086404" lon="18.071772043992336"><ele>41.5</ele><time>2026-04-05T07:27:44Z</time></trkpt><trkpt lat="39.999042645208846" lon="18.071470085174294"><ele>41.0</ele><time>2026-04-05T07:27:45Z</time></trkpt><trkpt lat="39.99909461112256" lon="18.071171030693698"><ele>41.0</ele><time>2026-04-05T07:27:46Z</time></trkpt><trkpt lat="39.999141186869664" lon="18.070861499342165"><ele>41.0</ele><time>2026-04-05T07:27:47Z</time></trkpt><trkpt lat="39.99919256456656" lon="18.07055257797963"><ele>40.0</ele><time>2026-04-05T07:27:48Z</time></trkpt><trkpt lat="39.999244950855754" lon="18.070235853507416"><ele>39.0</ele><time>2026-04-05T07:27:49Z</time></trkpt><trkpt lat="39.99929485978686" lon="18.069916423347422"><ele>39.0</ele><time>2026-04-05T07:27:50Z</time></trkpt><trkpt lat="39.999343948749456" lon="18.069607522151504"><ele>39.0</ele><time>2026-04-05T07:27:51Z</time></trkpt><trkpt lat="39.99939398374478" lon="18.06930362110059"><ele>38.5</ele><time>2026-04-05T07:27:52Z</time></trkpt><trkpt lat="39.99945089997308" lon="18.069016743199814"><ele>38.0</ele><time>2026-04-05T07:27:53Z</time></trkpt><trkpt lat="39.99950648767726" lon="18.068729430137733"><ele>38.0</ele><time>2026-04-05T07:27:54Z</time></trkpt><trkpt lat="39.99956346643343" lon="18.068438959722453"><ele>38.0</ele><time>2026-04-05T07:27:55Z</time></trkpt><trkpt lat="39.9996338769705" lon="18.068154229258973"><ele>38.5</ele><time>2026-04-05T07:27:56Z</time></trkpt><trkpt lat="39.9997040735788" lon="18.067862633819505"><ele>39.0</ele><time>2026-04-05T07:27:57Z</time></trkpt><trkpt lat="39.99977733516038" lon="18.067568488799523"><ele>39.5</ele><time>2026-04-05T07:27:58Z</time></trkpt><trkpt lat="39.99985719087623" lon="18.067270431702156"><ele>40.0</ele><time>2026-04-05T07:27:59Z</time></trkpt><trkpt lat="39.999941680456224" lon="18.06697419553526"><ele>40.0</ele><time>2026-04-05T07:28:00Z</time></trkpt><trkpt lat="40.000035267425694" lon="18.066680160299022"><ele>40.0</ele><time>2026-04-05T07:28:01Z</time></trkpt><trkpt lat="40.00013768332297" lon="18.06638568356308"><ele>39.5</ele><time>2026-04-05T07:28:02Z</time></trkpt><trkpt lat="40.00025056664177" lon="18.066082462073947"><ele>39.0</ele><time>2026-04-05T07:28:03Z</time></trkpt><trkpt lat="40.00036367211752" lon="18.065774584449862"><ele>39.0</ele><time>2026-04-05T07:28:04Z</time></trkpt><trkpt lat="40.000474349109545" lon="18.065468348434027"><ele>39.0</ele><time>2026-04-05T07:28:05Z</time></trkpt><trkpt lat="40.0005819174272" lon="18.06520756916036"><ele>39.0</ele><time>2026-04-05T07:28:06Z</time></trkpt><trkpt lat="40.00067667845041" lon="18.06494587645615"><ele>39.0</ele><time>2026-04-05T07:28:07Z</time></trkpt><trkpt lat="40.00077184454027" lon="18.06469092397101"><ele>39.0</ele><time>2026-04-05T07:28:08Z</time></trkpt><trkpt lat="40.00086436752885" lon="18.06442774976076"><ele>39.0</ele><time>2026-04-05T07:28:09Z</time></trkpt><trkpt lat="40.00096041698658" lon="18.064179962301157"><ele>39.0</ele><time>2026-04-05T07:28:10Z</time></trkpt><trkpt lat="40.00104307091304" lon="18.06395358041163"><ele>39.0</ele><time>2026-04-05T07:28:11Z</time></trkpt><trkpt lat="40.00112048413572" lon="18.063726342746033"><ele>38.666666666666664</ele><time>2026-04-05T07:28:12Z</time></trkpt><trkpt lat="40.001196722423494" lon="18.06353212891721"><ele>38.33333333333333</ele><time>2026-04-05T07:28:13Z</time></trkpt><trkpt lat="40.00128058727344" lon="18.063361037729216"><ele>38.0</ele><time>2026-04-05T07:28:14Z</time></trkpt><trkpt lat="40.00136839954309" lon="18.063195482694283"><ele>38.0</ele><time>2026-04-05T07:28:15Z</time></trkpt><trkpt lat="40.00145892680416" lon="18.063052832010047"><ele>38.0</ele><time>2026-04-05T07:28:16Z</time></trkpt><trkpt lat="40.00154735213135" lon="18.06292786213922"><ele>38.0</ele><time>2026-04-05T07:28:17Z</time></trkpt><trkpt lat="40.00163410033191" lon="18.06281820769912"><ele>38.0</ele><time>2026-04-05T07:28:18Z</time></trkpt><trkpt lat="40.0017178638928" lon="18.06272016351475"><ele>38.0</ele><time>2026-04-05T07:28:19Z</time></trkpt><trkpt lat="40.00180309082855" lon="18.062637819522614"><ele>38.0</ele><time>2026-04-05T07:28:20Z</time></trkpt><trkpt lat="40.00189820274068" lon="18.06256712696194"><ele>38.0</ele><time>2026-04-05T07:28:21Z</time></trkpt><trkpt lat="40.00199430636191" lon="18.062526880344322"><ele>38.0</ele><time>2026-04-05T07:28:22Z</time></trkpt><trkpt lat="40.00211335669436" lon="18.06251807613992"><ele>38.0</ele><time>2026-04-05T07:28:23Z</time></trkpt><trkpt lat="40.00222945586996" lon="18.062542617937208"><ele>38.0</ele><time>2026-04-05T07:28:24Z</time></trkpt><trkpt lat="40.00233518946203" lon="18.062596929574372"><ele>38.0</ele><time>2026-04-05T07:28:25Z</time></trkpt><trkpt lat="40.00243236128384" lon="18.062674701538736"><ele>38.0</ele><time>2026-04-05T07:28:26Z</time></trkpt><trkpt lat="40.00251780535233" lon="18.06277414255563"><ele>38.0</ele><time>2026-04-05T07:28:27.001Z</time></trkpt><trkpt lat="40.00257846275964" lon="18.062892758672174"><ele>37.5</ele><time>2026-04-05T07:28:28.001Z</time></trkpt><trkpt lat="40.00263109343112" lon="18.063040023214402"><ele>37.0</ele><time>2026-04-05T07:28:29.001Z</time></trkpt><trkpt lat="40.002660144450324" lon="18.063209277372334"><ele>36.5</ele><time>2026-04-05T07:28:30.001Z</time></trkpt><trkpt lat="40.00266887910422" lon="18.063379827922546"><ele>36.0</ele><time>2026-04-05T07:28:31.001Z</time></trkpt><trkpt lat="40.00265635461042" lon="18.06356667363067"><ele>35.75</ele><time>2026-04-05T07:28:32.001Z</time></trkpt><trkpt lat="40.00261637323243" lon="18.06373998836514"><ele>35.5</ele><time>2026-04-05T07:28:33.001Z</time></trkpt><trkpt lat="40.00256821581826" lon="18.063897069606092"><ele>35.25</ele><time>2026-04-05T07:28:34.001Z</time></trkpt><trkpt lat="40.00250514092475" lon="18.064043109876483"><ele>35.0</ele><time>2026-04-05T07:28:35.001Z</time></trkpt><trkpt lat="40.0024331990085" lon="18.064183961349517"><ele>35.5</ele><time>2026-04-05T07:28:36.001Z</time></trkpt><trkpt lat="40.00236291481986" lon="18.064344298830843"><ele>36.0</ele><time>2026-04-05T07:28:37.001Z</time></trkpt><trkpt lat="40.00229823316581" lon="18.064512842393405"><ele>36.5</ele><time>2026-04-05T07:28:38.001Z</time></trkpt><trkpt lat="40.0022239928771" lon="18.064678780088364"><ele>37.0</ele><time>2026-04-05T07:28:39.001Z</time></trkpt><trkpt lat="40.00215291459802" lon="18.06485830867552"><ele>37.66666666666667</ele><time>2026-04-05T07:28:40.001Z</time></trkpt><trkpt lat="40.002068749109206" lon="18.065036683815126"><ele>38.333333333333336</ele><time>2026-04-05T07:28:41.001Z</time></trkpt><trkpt lat="40.001987262922526" lon="18.065216870254243"><ele>39.0</ele><time>2026-04-05T07:28:42.001Z</time></trkpt><trkpt lat="40.00188935282686" lon="18.065386906346447"><ele>39.0</ele><time>2026-04-05T07:28:43.001Z</time></trkpt><trkpt lat="40.001763911633496" lon="18.06551943805585"><ele>39.0</ele><time>2026-04-05T07:28:44.001Z</time></trkpt><trkpt lat="40.00162775678284" lon="18.06564646623403"><ele>39.0</ele><time>2026-04-05T07:28:45.001Z</time></trkpt><trkpt lat="40.00148859676718" lon="18.065748959174545"><ele>39.666666666666664</ele><time>2026-04-05T07:28:46.001Z</time></trkpt><trkpt lat="40.001319524652125" lon="18.06584940016229"><ele>40.33333333333333</ele><time>2026-04-05T07:28:47.001Z</time></trkpt><trkpt lat="40.001153177642024" lon="18.065917851046986"><ele>41.0</ele><time>2026-04-05T07:28:48.001Z</time></trkpt><trkpt lat="40.00099572172982" lon="18.065947854683237"><ele>41.666666666666664</ele><time>2026-04-05T07:28:49.001Z</time></trkpt><trkpt lat="40.00082940848171" lon="18.065951156414112"><ele>42.333333333333336</ele><time>2026-04-05T07:28:50.001Z</time></trkpt><trkpt lat="40.00065874796139" lon="18.065937919692466"><ele>43.0</ele><time>2026-04-05T07:28:51.001Z</time></trkpt><trkpt lat="40.00048363322878" lon="18.065906728568127"><ele>43.0</ele><time>2026-04-05T07:28:52.001Z</time></trkpt><trkpt lat="40.00032342581436" lon="18.065831353779878"><ele>43.0</ele><time>2026-04-05T07:28:53.001Z</time></trkpt><trkpt lat="40.00018380411439" lon="18.065748249920563"><ele>43.0</ele><time>2026-04-05T07:28:54.001Z</time></trkpt><trkpt lat="40.00004562257182" lon="18.065643882853674"><ele>41.66666666666667</ele><time>2026-04-05T07:28:55.001Z</time></trkpt><trkpt lat="39.99991211338518" lon="18.0655180110229"><ele>40.333333333333336</ele><time>2026-04-05T07:28:56.001Z</time></trkpt><trkpt lat="39.999777666654424" lon="18.065360644793348"><ele>39.0</ele><time>2026-04-05T07:28:57.001Z</time></trkpt><trkpt lat="39.99964698965364" lon="18.065172887686526"><ele>39.0</ele><time>2026-04-05T07:28:58.001Z</time></trkpt><trkpt lat="39.9995155535088" lon="18.06496215653207"><ele>39.0</ele><time>2026-04-05T07:28:59.001Z</time></trkpt><trkpt lat="39.99938320367787" lon="18.06474602601414"><ele>39.0</ele><time>2026-04-05T07:29:00.001Z</time></trkpt><trkpt lat="39.9992485480952" lon="18.06451905100806"><ele>39.0</ele><time>2026-04-05T07:29:01.001Z</time></trkpt><trkpt lat="39.999099667217074" lon="18.0642773060115"><ele>39.0</ele><time>2026-04-05T07:29:02.001Z</time></trkpt><trkpt lat="39.998944389569054" lon="18.064028670074304"><ele>37.0</ele><time>2026-04-05T07:29:03.001Z</time></trkpt><trkpt lat="39.998793319896286" lon="18.06378727651348"><ele>35.0</ele><time>2026-04-05T07:29:04.001Z</time></trkpt><trkpt lat="39.99865252603254" lon="18.06355937569081"><ele>35.0</ele><time>2026-04-05T07:29:05.001Z</time></trkpt><trkpt lat="39.998511929881126" lon="18.063362788619564"><ele>35.0</ele><time>2026-04-05T07:29:06.001Z</time></trkpt><trkpt lat="39.998393212826926" lon="18.063167639656285"><ele>35.0</ele><time>2026-04-05T07:29:07.001Z</time></trkpt><trkpt lat="39.9982856981026" lon="18.062988829549447"><ele>35.75</ele><time>2026-04-05T07:29:08.001Z</time></trkpt><trkpt lat="39.99819538992349" lon="18.06281061218614"><ele>36.5</ele><time>2026-04-05T07:29:09.001Z</time></trkpt><trkpt lat="39.998107430199504" lon="18.062673871521863"><ele>37.25</ele><time>2026-04-05T07:29:10.001Z</time></trkpt><trkpt lat="39.998020579092795" lon="18.062552180803905"><ele>38.0</ele><time>2026-04-05T07:29:11.001Z</time></trkpt><trkpt lat="39.99792452275355" lon="18.062476113962642"><ele>37.75</ele><time>2026-04-05T07:29:12.001Z</time></trkpt><trkpt lat="39.99783855006651" lon="18.06239813537838"><ele>37.5</ele><time>2026-04-05T07:29:13.001Z</time></trkpt><trkpt lat="39.99773165775811" lon="18.062332393005548"><ele>37.25</ele><time>2026-04-05T07:29:14.001Z</time></trkpt><trkpt lat="39.997605734618425" lon="18.0622918338946"><ele>37.0</ele><time>2026-04-05T07:29:15.001Z</time></trkpt><trkpt lat="39.99746536461631" lon="18.062266753821348"><ele>37.0</ele><time>2026-04-05T07:29:16.001Z</time></trkpt><trkpt lat="39.997318505918045" lon="18.062291475756595"><ele>37.0</ele><time>2026-04-05T07:29:17.001Z</time></trkpt><trkpt lat="39.997187900694115" lon="18.062329075688787"><ele>37.0</ele><time>2026-04-05T07:29:18.001Z</time></trkpt><trkpt lat="39.997061131824616" lon="18.06237882132965"><ele>37.0</ele><time>2026-04-05T07:29:19.001Z</time></trkpt><trkpt lat="39.99692044075566" lon="18.06246188914757"><ele>37.333333333333336</ele><time>2026-04-05T07:29:20.001Z</time></trkpt><trkpt lat="39.996775965096475" lon="18.06256373276131"><ele>37.666666666666664</ele><time>2026-04-05T07:29:21.001Z</time></trkpt><trkpt lat="39.996621800605226" lon="18.062683444186106"><ele>38.0</ele><time>2026-04-05T07:29:22.001Z</time></trkpt><trkpt lat="39.99646993012537" lon="18.062805933108223"><ele>38.33333333333333</ele><time>2026-04-05T07:29:23.001Z</time></trkpt><trkpt lat="39.99630869374458" lon="18.062948132466357"><ele>38.666666666666664</ele><time>2026-04-05T07:29:24.001Z</time></trkpt><trkpt lat="39.99614694632837" lon="18.06307182800805"><ele>39.0</ele><time>2026-04-05T07:29:25.001Z</time></trkpt><trkpt lat="39.99598017277319" lon="18.063200288834746"><ele>39.0</ele><time>2026-04-05T07:29:26Z</time></trkpt><trkpt lat="39.99581628513609" lon="18.06333819410718"><ele>39.0</ele><time>2026-04-05T07:29:27Z</time></trkpt><trkpt lat="39.99565590791747" lon="18.063487257953675"><ele>39.0</ele><time>2026-04-05T07:29:28Z</time></trkpt><trkpt lat="39.995498461084765" lon="18.06363759393137"><ele>39.0</ele><time>2026-04-05T07:29:29Z</time></trkpt><trkpt lat="39.99534798274553" lon="18.06378769953983"><ele>39.0</ele><time>2026-04-05T07:29:30Z</time></trkpt><trkpt lat="39.99521514866567" lon="18.063929559217865"><ele>39.0</ele><time>2026-04-05T07:29:31Z</time></trkpt><trkpt lat="39.995093078117904" lon="18.064096279766975"><ele>39.333333333333336</ele><time>2026-04-05T07:29:32Z</time></trkpt><trkpt lat="39.99495015176694" lon="18.06423722431963"><ele>39.66666666666667</ele><time>2026-04-05T07:29:33Z</time></trkpt><trkpt lat="39.994816341902556" lon="18.064391454623298"><ele>40.0</ele><time>2026-04-05T07:29:34Z</time></trkpt><trkpt lat="39.994685294335035" lon="18.06454579159809"><ele>40.0</ele><time>2026-04-05T07:29:35Z</time></trkpt><trkpt lat="39.994548746920664" lon="18.06469872982381"><ele>40.0</ele><time>2026-04-05T07:29:36Z</time></trkpt><trkpt lat="39.994412052004364" lon="18.064840463845762"><ele>40.0</ele><time>2026-04-05T07:29:37Z</time></trkpt><trkpt lat="39.99429810996584" lon="18.064978097863705"><ele>40.0</ele><time>2026-04-05T07:29:38Z</time></trkpt><trkpt lat="39.99417944052972" lon="18.065104559516715"><ele>40.0</ele><time>2026-04-05T07:29:39Z</time></trkpt><trkpt lat="39.99404377126673" lon="18.06523359365309"><ele>40.0</ele><time>2026-04-05T07:29:40Z</time></trkpt><trkpt lat="39.993876644104525" lon="18.06535389003763"><ele>40.0</ele><time>2026-04-05T07:29:41Z</time></trkpt><trkpt lat="39.99369691544875" lon="18.065475005539113"><ele>40.0</ele><time>2026-04-05T07:29:42Z</time></trkpt><trkpt lat="39.99350827263202" lon="18.065603721517203"><ele>40.0</ele><time>2026-04-05T07:29:43Z</time></trkpt><trkpt lat="39.99332208483275" lon="18.06570735619556"><ele>40.333333333333336</ele><time>2026-04-05T07:29:44Z</time></trkpt><trkpt lat="39.99313799984416" lon="18.065813817051936"><ele>40.666666666666664</ele><time>2026-04-05T07:29:45Z</time></trkpt><trkpt lat="39.99294905836353" lon="18.065921935842567"><ele>41.0</ele><time>2026-04-05T07:29:46Z</time></trkpt><trkpt lat="39.992754817189976" lon="18.066011854055095"><ele>41.0</ele><time>2026-04-05T07:29:47Z</time></trkpt><trkpt lat="39.9925551737713" lon="18.066121924529554"><ele>41.0</ele><time>2026-04-05T07:29:48Z</time></trkpt><trkpt lat="39.99235398533898" lon="18.066228661092"><ele>41.0</ele><time>2026-04-05T07:29:49Z</time></trkpt><trkpt lat="39.992151125057376" lon="18.066339587206887"><ele>41.0</ele><time>2026-04-05T07:29:50Z</time></trkpt><trkpt lat="39.991962606041156" lon="18.06644195602736"><ele>41.0</ele><time>2026-04-05T07:29:51Z</time></trkpt><trkpt lat="39.991780265223376" lon="18.066540535876666"><ele>41.0</ele><time>2026-04-05T07:29:52Z</time></trkpt><trkpt lat="39.991590024687056" lon="18.06664438129572"><ele>41.666666666666664</ele><time>2026-04-05T07:29:53Z</time></trkpt><trkpt lat="39.99140636371838" lon="18.06675028655675"><ele>42.333333333333336</ele><time>2026-04-05T07:29:54Z</time></trkpt><trkpt lat="39.99123794071878" lon="18.066845093666892"><ele>43.0</ele><time>2026-04-05T07:29:55Z</time></trkpt><trkpt lat="39.991081328508876" lon="18.066931352436274"><ele>43.0</ele><time>2026-04-05T07:29:56Z</time></trkpt><trkpt lat="39.99093521603282" lon="18.06701503831731"><ele>43.0</ele><time>2026-04-05T07:29:57Z</time></trkpt><trkpt lat="39.990793764530444" lon="18.067121982668574"><ele>43.0</ele><time>2026-04-05T07:29:58Z</time></trkpt><trkpt lat="39.9906588179644" lon="18.06724642072622"><ele>43.0</ele><time>2026-04-05T07:29:59Z</time></trkpt><trkpt lat="39.990509773406835" lon="18.067378026164963"><ele>43.0</ele><time>2026-04-05T07:30:00Z</time></trkpt><trkpt lat="39.990345477228914" lon="18.067500993427593"><ele>43.0</ele><time>2026-04-05T07:30:01Z</time></trkpt><trkpt lat="39.9901702553366" lon="18.06762733318441"><ele>43.333333333333336</ele><time>2026-04-05T07:30:02Z</time></trkpt><trkpt lat="39.99000458276278" lon="18.067784804194584"><ele>43.666666666666664</ele><time>2026-04-05T07:30:03Z</time></trkpt><trkpt lat="39.98982188030829" lon="18.067930738960182"><ele>44.0</ele><time>2026-04-05T07:30:04Z</time></trkpt><trkpt lat="39.98963875038193" lon="18.06808189020079"><ele>44.0</ele><time>2026-04-05T07:30:05Z</time></trkpt><trkpt lat="39.98945580690907" lon="18.06821971573751"><ele>44.0</ele><time>2026-04-05T07:30:06Z</time></trkpt><trkpt lat="39.989288280288136" lon="18.068349742675625"><ele>44.0</ele><time>2026-04-05T07:30:07Z</time></trkpt><trkpt lat="39.98913273976797" lon="18.06848471591233"><ele>44.0</ele><time>2026-04-05T07:30:08Z</time></trkpt><trkpt lat="39.98899301700797" lon="18.068605393688525"><ele>44.0</ele><time>2026-04-05T07:30:09Z</time></trkpt><trkpt lat="39.988849080016266" lon="18.06873223919318"><ele>44.0</ele><time>2026-04-05T07:30:10Z</time></trkpt><trkpt lat="39.98870935112297" lon="18.06885944819576"><ele>44.0</ele><time>2026-04-05T07:30:11Z</time></trkpt><trkpt lat="39.988566854003466" lon="18.068980251307483"><ele>44.0</ele><time>2026-04-05T07:30:12Z</time></trkpt><trkpt lat="39.98842062051043" lon="18.069085906959288"><ele>44.0</ele><time>2026-04-05T07:30:13Z</time></trkpt><trkpt lat="39.98828556013803" lon="18.069180403484957"><ele>44.0</ele><time>2026-04-05T07:30:14Z</time></trkpt><trkpt lat="39.98815491494726" lon="18.069274582175296"><ele>44.0</ele><time>2026-04-05T07:30:15Z</time></trkpt><trkpt lat="39.988033592703204" lon="18.069362288824575"><ele>44.0</ele><time>2026-04-05T07:30:16Z</time></trkpt><trkpt lat="39.987927209851556" lon="18.069442870732274"><ele>44.0</ele><time>2026-04-05T07:30:17Z</time></trkpt><trkpt lat="39.987836003802386" lon="18.06951779968312"><ele>44.0</ele><time>2026-04-05T07:30:18Z</time></trkpt><trkpt lat="39.987762989962114" lon="18.069568244417376"><ele>44.0</ele><time>2026-04-05T07:30:19Z</time></trkpt><trkpt lat="39.987687909951966" lon="18.0696158043227"><ele>44.0</ele><time>2026-04-05T07:30:21Z</time></trkpt><trkpt lat="39.98764238469142" lon="18.069426314254233"><ele>44.0</ele><time>2026-04-05T07:30:26Z</time></trkpt><trkpt lat="39.98762262511494" lon="18.06932317886596"><ele>44.0</ele><time>2026-04-05T07:30:27Z</time></trkpt><trkpt lat="39.98760274947831" lon="18.069224537213334"><ele>44.0</ele><time>2026-04-05T07:30:28Z</time></trkpt><trkpt lat="39.98757872861313" lon="18.069109921710098"><ele>44.0</ele><time>2026-04-05T07:30:29Z</time></trkpt><trkpt lat="39.987534681855266" lon="18.06897564444053"><ele>44.0</ele><time>2026-04-05T07:30:30Z</time></trkpt><trkpt lat="39.987523061546334" lon="18.068803338076357"><ele>44.0</ele><time>2026-04-05T07:30:31Z</time></trkpt><trkpt lat="39.98746647329598" lon="18.06858868570879"><ele>44.0</ele><time>2026-04-05T07:30:32Z</time></trkpt><trkpt lat="39.9874140626106" lon="18.068363403727005"><ele>44.0</ele><time>2026-04-05T07:30:33Z</time></trkpt><trkpt lat="39.98734994762851" lon="18.068100273513537"><ele>44.0</ele><time>2026-04-05T07:30:34Z</time></trkpt><trkpt lat="39.98729496700732" lon="18.06786884957615"><ele>44.0</ele><time>2026-04-05T07:30:35Z</time></trkpt><trkpt lat="39.98724241757984" lon="18.067643985420325"><ele>44.0</ele><time>2026-04-05T07:30:36Z</time></trkpt><trkpt lat="39.987189678611905" lon="18.067423597344682"><ele>44.0</ele><time>2026-04-05T07:30:37Z</time></trkpt><trkpt lat="39.987139439831125" lon="18.067208281855233"><ele>44.0</ele><time>2026-04-05T07:30:38Z</time></trkpt><trkpt lat="39.98709540106417" lon="18.06699550641071"><ele>44.0</ele><time>2026-04-05T07:30:39Z</time></trkpt><trkpt lat="39.98705000710159" lon="18.066792308968054"><ele>44.0</ele><time>2026-04-05T07:30:40Z</time></trkpt><trkpt lat="39.987019771859835" lon="18.06657926175516"><ele>44.0</ele><time>2026-04-05T07:30:41Z</time></trkpt><trkpt lat="39.9869749043845" lon="18.066372203355886"><ele>44.0</ele><time>2026-04-05T07:30:42Z</time></trkpt><trkpt lat="39.98693100202444" lon="18.066169598828875"><ele>44.0</ele><time>2026-04-05T07:30:43.001Z</time></trkpt><trkpt lat="39.98688998832644" lon="18.06596909072385"><ele>43.666666666666664</ele><time>2026-04-05T07:30:44.001Z</time></trkpt><trkpt lat="39.98684608684164" lon="18.06575086081813"><ele>43.333333333333336</ele><time>2026-04-05T07:30:45.001Z</time></trkpt><trkpt lat="39.98680559414439" lon="18.065532647124538"><ele>43.0</ele><time>2026-04-05T07:30:46.001Z</time></trkpt><trkpt lat="39.986777091549634" lon="18.06531406148144"><ele>43.0</ele><time>2026-04-05T07:30:47.001Z</time></trkpt><trkpt lat="39.9867643558089" lon="18.065092139874917"><ele>43.0</ele><time>2026-04-05T07:30:48.001Z</time></trkpt><trkpt lat="39.98677247666021" lon="18.064860780039766"><ele>43.0</ele><time>2026-04-05T07:30:49.001Z</time></trkpt><trkpt lat="39.986792963242785" lon="18.064604331052102"><ele>43.0</ele><time>2026-04-05T07:30:50.001Z</time></trkpt><trkpt lat="39.98681514954303" lon="18.06433288269374"><ele>43.0</ele><time>2026-04-05T07:30:51.001Z</time></trkpt><trkpt lat="39.986839297925265" lon="18.064052443691814"><ele>43.0</ele><time>2026-04-05T07:30:52.001Z</time></trkpt><trkpt lat="39.98686258856221" lon="18.06377963825152"><ele>42.66666666666667</ele><time>2026-04-05T07:30:53.001Z</time></trkpt><trkpt lat="39.98688637406141" lon="18.063500489040212"><ele>42.333333333333336</ele><time>2026-04-05T07:30:54.001Z</time></trkpt><trkpt lat="39.98691112375506" lon="18.063210025655874"><ele>42.0</ele><time>2026-04-05T07:30:55.001Z</time></trkpt><trkpt lat="39.98693580399829" lon="18.062918585362848"><ele>41.5</ele><time>2026-04-05T07:30:56.001Z</time></trkpt><trkpt lat="39.986960949578766" lon="18.062621829452873"><ele>41.0</ele><time>2026-04-05T07:30:57.001Z</time></trkpt><trkpt lat="39.98698654885999" lon="18.06231971902214"><ele>41.0</ele><time>2026-04-05T07:30:58.001Z</time></trkpt><trkpt lat="39.987010090743965" lon="18.06204336291245"><ele>41.0</ele><time>2026-04-05T07:30:59.001Z</time></trkpt><trkpt lat="39.98703253546763" lon="18.061776100138335"><ele>41.0</ele><time>2026-04-05T07:31:00.001Z</time></trkpt><trkpt lat="39.98705521985214" lon="18.061503632636427"><ele>41.0</ele><time>2026-04-05T07:31:01.001Z</time></trkpt><trkpt lat="39.98707840437016" lon="18.061227470254998"><ele>41.0</ele><time>2026-04-05T07:31:02.001Z</time></trkpt><trkpt lat="39.98710204256988" lon="18.06094590362418"><ele>41.0</ele><time>2026-04-05T07:31:03.001Z</time></trkpt><trkpt lat="39.98712535135078" lon="18.06066826103561"><ele>41.0</ele><time>2026-04-05T07:31:04.001Z</time></trkpt><trkpt lat="39.98714834420481" lon="18.060394381004738"><ele>41.0</ele><time>2026-04-05T07:31:05.001Z</time></trkpt><trkpt lat="39.98717021950702" lon="18.060133813810328"><ele>41.0</ele><time>2026-04-05T07:31:06.001Z</time></trkpt><trkpt lat="39.987192617859286" lon="18.059867015143865"><ele>40.666666666666664</ele><time>2026-04-05T07:31:07.001Z</time></trkpt><trkpt lat="39.987214286789474" lon="18.05960890826794"><ele>40.333333333333336</ele><time>2026-04-05T07:31:08.001Z</time></trkpt><trkpt lat="39.98723157004487" lon="18.059381910352112"><ele>40.0</ele><time>2026-04-05T07:31:09.001Z</time></trkpt><trkpt lat="39.98724453977878" lon="18.059175490221477"><ele>40.333333333333336</ele><time>2026-04-05T07:31:10.001Z</time></trkpt><trkpt lat="39.987247729746485" lon="18.05896809328134"><ele>40.666666666666664</ele><time>2026-04-05T07:31:11.001Z</time></trkpt><trkpt lat="39.98722829332576" lon="18.05876834725071"><ele>41.0</ele><time>2026-04-05T07:31:12.001Z</time></trkpt><trkpt lat="39.98718680632523" lon="18.058553210848732"><ele>41.0</ele><time>2026-04-05T07:31:13.001Z</time></trkpt><trkpt lat="39.9871429072618" lon="18.058332600598696"><ele>41.0</ele><time>2026-04-05T07:31:14.001Z</time></trkpt><trkpt lat="39.987103588455206" lon="18.058136544939188"><ele>41.0</ele><time>2026-04-05T07:31:15.001Z</time></trkpt><trkpt lat="39.98706747056166" lon="18.057956449570504"><ele>41.0</ele><time>2026-04-05T07:31:16.001Z</time></trkpt><trkpt lat="39.98703513764756" lon="18.057791207901637"><ele>41.0</ele><time>2026-04-05T07:31:17.001Z</time></trkpt><trkpt lat="39.98701180694854" lon="18.05765555630369"><ele>41.0</ele><time>2026-04-05T07:31:18.001Z</time></trkpt><trkpt lat="39.98699777984771" lon="18.057549612494434"><ele>41.0</ele><time>2026-04-05T07:31:19.001Z</time></trkpt><trkpt lat="39.98698143046828" lon="18.05746356016865"><ele>41.0</ele><time>2026-04-05T07:31:20.001Z</time></trkpt><trkpt lat="39.986985729581754" lon="18.057349568170448"><ele>41.0</ele><time>2026-04-05T07:31:22.001Z</time></trkpt><trkpt lat="39.987025167785994" lon="18.05725192993909"><ele>41.0</ele><time>2026-04-05T07:31:24.001Z</time></trkpt><trkpt lat="39.98710318990568" lon="18.05714271525482"><ele>41.0</ele><time>2026-04-05T07:31:26.001Z</time></trkpt><trkpt lat="39.98720689737775" lon="18.057092937640974"><ele>41.0</ele><time>2026-04-05T07:31:28.001Z</time></trkpt><trkpt lat="39.98728344285601" lon="18.05704253460965"><ele>41.0</ele><time>2026-04-05T07:31:30.001Z</time></trkpt><trkpt lat="39.9873145383202" lon="18.056941363388287"><ele>41.0</ele><time>2026-04-05T07:31:32Z</time></trkpt><trkpt lat="39.98727754290481" lon="18.056873679078237"><ele>41.0</ele><time>2026-04-05T07:31:33Z</time></trkpt><trkpt lat="39.98719137133429" lon="18.05677030498307"><ele>41.0</ele><time>2026-04-05T07:31:35Z</time></trkpt><trkpt lat="39.987091642528604" lon="18.0567493258568"><ele>41.0</ele><time>2026-04-05T07:31:37Z</time></trkpt><trkpt lat="39.987009220021534" lon="18.05682710194978"><ele>41.0</ele><time>2026-04-05T07:31:39Z</time></trkpt><trkpt lat="39.98703871516334" lon="18.05696192332443"><ele>41.0</ele><time>2026-04-05T07:31:40Z</time></trkpt><trkpt lat="39.98697983306376" lon="18.057064486909873"><ele>41.0</ele><time>2026-04-05T07:31:41Z</time></trkpt><trkpt lat="39.98693437093378" lon="18.057171037541707"><ele>41.0</ele><time>2026-04-05T07:31:42Z</time></trkpt><trkpt lat="39.98686813295503" lon="18.05727288534325"><ele>41.0</ele><time>2026-04-05T07:31:43Z</time></trkpt><trkpt lat="39.98679074782582" lon="18.05735633507521"><ele>41.0</ele><time>2026-04-05T07:31:44Z</time></trkpt><trkpt lat="39.98670006882141" lon="18.057430654641877"><ele>41.0</ele><time>2026-04-05T07:31:45Z</time></trkpt><trkpt lat="39.986595896206715" lon="18.05750059363814"><ele>41.0</ele><time>2026-04-05T07:31:46Z</time></trkpt><trkpt lat="39.986487525250226" lon="18.05756884439589"><ele>41.0</ele><time>2026-04-05T07:31:47Z</time></trkpt><trkpt lat="39.9863688058005" lon="18.05763963843092"><ele>41.0</ele><time>2026-04-05T07:31:48Z</time></trkpt><trkpt lat="39.9862489930953" lon="18.057720435299167"><ele>41.0</ele><time>2026-04-05T07:31:49Z</time></trkpt><trkpt lat="39.98612049656677" lon="18.057797008936742"><ele>41.0</ele><time>2026-04-05T07:31:50Z</time></trkpt><trkpt lat="39.985995905925755" lon="18.05787608376361"><ele>41.0</ele><time>2026-04-05T07:31:51Z</time></trkpt><trkpt lat="39.98586729501465" lon="18.057956304539925"><ele>41.0</ele><time>2026-04-05T07:31:52Z</time></trkpt><trkpt lat="39.98574009319513" lon="18.05803928174759"><ele>41.0</ele><time>2026-04-05T07:31:53Z</time></trkpt><trkpt lat="39.98561269216658" lon="18.05811712411235"><ele>41.0</ele><time>2026-04-05T07:31:54Z</time></trkpt><trkpt lat="39.98548244805436" lon="18.05820130077608"><ele>41.0</ele><time>2026-04-05T07:31:55Z</time></trkpt><trkpt lat="39.98534604642759" lon="18.058293043672894"><ele>41.0</ele><time>2026-04-05T07:31:56Z</time></trkpt><trkpt lat="39.98520331519043" lon="18.058388933916493"><ele>40.666666666666664</ele><time>2026-04-05T07:31:57Z</time></trkpt><trkpt lat="39.98504785583116" lon="18.058487054610964"><ele>40.333333333333336</ele><time>2026-04-05T07:31:58Z</time></trkpt><trkpt lat="39.984888103349" lon="18.058593319977778"><ele>40.0</ele><time>2026-04-05T07:31:59Z</time></trkpt><trkpt lat="39.98472689020641" lon="18.058698323536948"><ele>40.0</ele><time>2026-04-05T07:32:00Z</time></trkpt><trkpt lat="39.98456792017332" lon="18.05880947730684"><ele>40.0</ele><time>2026-04-05T07:32:01Z</time></trkpt><trkpt lat="39.98440692574249" lon="18.058911122038044"><ele>40.0</ele><time>2026-04-05T07:32:02Z</time></trkpt><trkpt lat="39.98426282565328" lon="18.05900975998495"><ele>40.0</ele><time>2026-04-05T07:32:03Z</time></trkpt><trkpt lat="39.984131672594195" lon="18.059097680368634"><ele>40.0</ele><time>2026-04-05T07:32:04Z</time></trkpt><trkpt lat="39.984011591081" lon="18.059195522186034"><ele>40.0</ele><time>2026-04-05T07:32:05Z</time></trkpt><trkpt lat="39.983903112803944" lon="18.05931308516035"><ele>40.0</ele><time>2026-04-05T07:32:06Z</time></trkpt><trkpt lat="39.98380971204403" lon="18.05945460755064"><ele>40.333333333333336</ele><time>2026-04-05T07:32:07Z</time></trkpt><trkpt lat="39.98373110015502" lon="18.05962822148272"><ele>40.666666666666664</ele><time>2026-04-05T07:32:08Z</time></trkpt><trkpt lat="39.983662180013056" lon="18.059827416703346"><ele>41.0</ele><time>2026-04-05T07:32:09Z</time></trkpt><trkpt lat="39.98359606058954" lon="18.060038875587725"><ele>41.33333333333333</ele><time>2026-04-05T07:32:10Z</time></trkpt><trkpt lat="39.983529841321584" lon="18.060237130472366"><ele>41.666666666666664</ele><time>2026-04-05T07:32:11Z</time></trkpt><trkpt lat="39.9834669162535" lon="18.060429562721236"><ele>42.0</ele><time>2026-04-05T07:32:12Z</time></trkpt><trkpt lat="39.98340608936116" lon="18.060611127494404"><ele>41.75</ele><time>2026-04-05T07:32:13Z</time></trkpt><trkpt lat="39.983343275110286" lon="18.06078474686691"><ele>41.5</ele><time>2026-04-05T07:32:14Z</time></trkpt><trkpt lat="39.98328306054378" lon="18.060950222237214"><ele>41.25</ele><time>2026-04-05T07:32:15Z</time></trkpt><trkpt lat="39.98320090234407" lon="18.06109482788786"><ele>41.0</ele><time>2026-04-05T07:32:16Z</time></trkpt><trkpt lat="39.98308873294473" lon="18.061210162087526"><ele>41.0</ele><time>2026-04-05T07:32:17Z</time></trkpt><trkpt lat="39.982973427779186" lon="18.061354087136888"><ele>41.0</ele><time>2026-04-05T07:32:18Z</time></trkpt><trkpt lat="39.98283874137807" lon="18.06149907262863"><ele>41.0</ele><time>2026-04-05T07:32:19Z</time></trkpt><trkpt lat="39.98270394465413" lon="18.061634282534037"><ele>41.0</ele><time>2026-04-05T07:32:20Z</time></trkpt><trkpt lat="39.98258411775861" lon="18.061758720821587"><ele>41.0</ele><time>2026-04-05T07:32:21Z</time></trkpt><trkpt lat="39.982478080068475" lon="18.06187081751194"><ele>41.0</ele><time>2026-04-05T07:32:22Z</time></trkpt><trkpt lat="39.982392692249654" lon="18.061963771011783"><ele>41.0</ele><time>2026-04-05T07:32:23Z</time></trkpt><trkpt lat="39.98231719859651" lon="18.062052270957555"><ele>41.0</ele><time>2026-04-05T07:32:24Z</time></trkpt><trkpt lat="39.98223870384991" lon="18.062147307033577"><ele>41.0</ele><time>2026-04-05T07:32:25Z</time></trkpt><trkpt lat="39.9821667235986" lon="18.062234245540957"><ele>41.0</ele><time>2026-04-05T07:32:26Z</time></trkpt><trkpt lat="39.98210652870076" lon="18.062308823896878"><ele>41.0</ele><time>2026-04-05T07:32:27Z</time></trkpt><trkpt lat="39.98204164158688" lon="18.062387455056324"><ele>41.0</ele><time>2026-04-05T07:32:29Z</time></trkpt><trkpt lat="39.98199159991207" lon="18.06244971903585"><ele>41.0</ele><time>2026-04-05T07:32:33Z</time></trkpt><trkpt lat="39.98206927769357" lon="18.062380717291923"><ele>41.0</ele><time>2026-04-05T07:32:45.001Z</time></trkpt><trkpt lat="39.98214906812451" lon="18.062260870867885"><ele>41.0</ele><time>2026-04-05T07:32:46.001Z</time></trkpt><trkpt lat="39.98222512671052" lon="18.062188823444846"><ele>41.0</ele><time>2026-04-05T07:32:47.001Z</time></trkpt><trkpt lat="39.98229774085372" lon="18.06210865438586"><ele>41.0</ele><time>2026-04-05T07:32:48.001Z</time></trkpt><trkpt lat="39.98236343092559" lon="18.062037992590604"><ele>41.0</ele><time>2026-04-05T07:32:49.001Z</time></trkpt><trkpt lat="39.982419259641546" lon="18.061983475064824"><ele>41.0</ele><time>2026-04-05T07:32:50.001Z</time></trkpt><trkpt lat="39.982471170903786" lon="18.061865337693934"><ele>41.0</ele><time>2026-04-05T07:32:52.001Z</time></trkpt><trkpt lat="39.98243703130127" lon="18.06170838527985"><ele>41.0</ele><time>2026-04-05T07:32:54.001Z</time></trkpt><trkpt lat="39.98240233013412" lon="18.06160940838179"><ele>41.0</ele><time>2026-04-05T07:32:55.001Z</time></trkpt><trkpt lat="39.982358033110735" lon="18.06149867846487"><ele>41.0</ele><time>2026-04-05T07:32:56.001Z</time></trkpt><trkpt lat="39.98230171276555" lon="18.061365786478245"><ele>41.5</ele><time>2026-04-05T07:32:57.001Z</time></trkpt><trkpt lat="39.98224673075712" lon="18.061242476918597"><ele>42.0</ele><time>2026-04-05T07:32:58.001Z</time></trkpt><trkpt lat="39.98218863696033" lon="18.061106677693218"><ele>42.5</ele><time>2026-04-05T07:32:59.001Z</time></trkpt><trkpt lat="39.982134040610795" lon="18.06096305395285"><ele>43.0</ele><time>2026-04-05T07:33:00.001Z</time></trkpt><trkpt lat="39.98208287928948" lon="18.06081749434804"><ele>42.8</ele><time>2026-04-05T07:33:01.001Z</time></trkpt><trkpt lat="39.98203691092949" lon="18.060670207222177"><ele>42.599999999999994</ele><time>2026-04-05T07:33:02.001Z</time></trkpt><trkpt lat="39.981987734891824" lon="18.0605458763451"><ele>42.400000000000006</ele><time>2026-04-05T07:33:03.001Z</time></trkpt><trkpt lat="39.98197106113653" lon="18.060407554274864"><ele>42.2</ele><time>2026-04-05T07:33:04.001Z</time></trkpt><trkpt lat="39.98192555503091" lon="18.060291639413443"><ele>42.0</ele><time>2026-04-05T07:33:05.001Z</time></trkpt><trkpt lat="39.9818730468176" lon="18.060170819123908"><ele>42.0</ele><time>2026-04-05T07:33:06.001Z</time></trkpt><trkpt lat="39.981810854369776" lon="18.06005206174292"><ele>42.0</ele><time>2026-04-05T07:33:07.001Z</time></trkpt><trkpt lat="39.981739635090534" lon="18.05993409313345"><ele>42.0</ele><time>2026-04-05T07:33:08.001Z</time></trkpt><trkpt lat="39.981661253518986" lon="18.05980909930037"><ele>42.0</ele><time>2026-04-05T07:33:09.001Z</time></trkpt><trkpt lat="39.98158472173851" lon="18.059690277295807"><ele>42.400000000000006</ele><time>2026-04-05T07:33:10.001Z</time></trkpt><trkpt lat="39.9815014412611" lon="18.059594264108835"><ele>42.800000000000004</ele><time>2026-04-05T07:33:11.001Z</time></trkpt><trkpt lat="39.9814451744596" lon="18.059478658806146"><ele>43.2</ele><time>2026-04-05T07:33:12.001Z</time></trkpt><trkpt lat="39.98137414055215" lon="18.059386029879928"><ele>43.6</ele><time>2026-04-05T07:33:13.001Z</time></trkpt><trkpt lat="39.98131032453101" lon="18.059293850507817"><ele>44.0</ele><time>2026-04-05T07:33:14.001Z</time></trkpt><trkpt lat="39.981250427329265" lon="18.059201076452652"><ele>44.666666666666664</ele><time>2026-04-05T07:33:15.001Z</time></trkpt><trkpt lat="39.98119918995762" lon="18.059115814979204"><ele>45.33333333333333</ele><time>2026-04-05T07:33:16.001Z</time></trkpt><trkpt lat="39.98117345353202" lon="18.059030032476002"><ele>46.0</ele><time>2026-04-05T07:33:17.001Z</time></trkpt><trkpt lat="39.98110509056738" lon="18.058884866949082"><ele>46.666666666666664</ele><time>2026-04-05T07:33:19.001Z</time></trkpt><trkpt lat="39.98109009702204" lon="18.058796023103575"><ele>47.333333333333336</ele><time>2026-04-05T07:33:20.001Z</time></trkpt><trkpt lat="39.981082567288404" lon="18.058695195141066"><ele>48.0</ele><time>2026-04-05T07:33:21.001Z</time></trkpt><trkpt lat="39.9810989031872" lon="18.058587961250463"><ele>48.0</ele><time>2026-04-05T07:33:22.001Z</time></trkpt><trkpt lat="39.98111864508717" lon="18.05847572550887"><ele>48.0</ele><time>2026-04-05T07:33:23.001Z</time></trkpt><trkpt lat="39.98114331355399" lon="18.05836620588921"><ele>48.0</ele><time>2026-04-05T07:33:24.001Z</time></trkpt><trkpt lat="39.98117148815372" lon="18.058246749222665"><ele>48.0</ele><time>2026-04-05T07:33:25.001Z</time></trkpt><trkpt lat="39.9811876656262" lon="18.05811688874351"><ele>48.0</ele><time>2026-04-05T07:33:26.001Z</time></trkpt><trkpt lat="39.98122409531761" lon="18.057984083664987"><ele>49.5</ele><time>2026-04-05T07:33:27.001Z</time></trkpt><trkpt lat="39.98128291673654" lon="18.057867132078016"><ele>51.0</ele><time>2026-04-05T07:33:28.001Z</time></trkpt><trkpt lat="39.981327017868175" lon="18.057720442970346"><ele>52.5</ele><time>2026-04-05T07:33:29.001Z</time></trkpt><trkpt lat="39.981366925690125" lon="18.057561689717115"><ele>54.0</ele><time>2026-04-05T07:33:30.001Z</time></trkpt><trkpt lat="39.98140944708581" lon="18.057397251307414"><ele>56.2</ele><time>2026-04-05T07:33:31.001Z</time></trkpt><trkpt lat="39.98147055302896" lon="18.057261271537378"><ele>58.400000000000006</ele><time>2026-04-05T07:33:32.001Z</time></trkpt><trkpt lat="39.98150470668376" lon="18.057142652862215"><ele>60.6</ele><time>2026-04-05T07:33:33.001Z</time></trkpt><trkpt lat="39.98154169348584" lon="18.057016803936563"><ele>62.8</ele><time>2026-04-05T07:33:34.001Z</time></trkpt><trkpt lat="39.981579283626736" lon="18.056876695403616"><ele>65.0</ele><time>2026-04-05T07:33:35.001Z</time></trkpt><trkpt lat="39.98163759046581" lon="18.056725320116062"><ele>62.25</ele><time>2026-04-05T07:33:36.001Z</time></trkpt><trkpt lat="39.98168792269464" lon="18.056577530838688"><ele>59.5</ele><time>2026-04-05T07:33:37.001Z</time></trkpt><trkpt lat="39.981741514354155" lon="18.056425499097884"><ele>56.75</ele><time>2026-04-05T07:33:38Z</time></trkpt><trkpt lat="39.9817834653105" lon="18.056286782953183"><ele>54.0</ele><time>2026-04-05T07:33:39Z</time></trkpt><trkpt lat="39.98182716370845" lon="18.056154457817946"><ele>54.0</ele><time>2026-04-05T07:33:40Z</time></trkpt><trkpt lat="39.98187242853154" lon="18.056020528510388"><ele>54.0</ele><time>2026-04-05T07:33:41Z</time></trkpt><trkpt lat="39.98191565044479" lon="18.055872217837635"><ele>54.0</ele><time>2026-04-05T07:33:42Z</time></trkpt><trkpt lat="39.98195522261021" lon="18.055705162831245"><ele>54.0</ele><time>2026-04-05T07:33:43Z</time></trkpt><trkpt lat="39.981997989275484" lon="18.05552494116362"><ele>55.5</ele><time>2026-04-05T07:33:44Z</time></trkpt><trkpt lat="39.98203223514174" lon="18.05534164683204"><ele>57.0</ele><time>2026-04-05T07:33:45Z</time></trkpt><trkpt lat="39.98206768396842" lon="18.05515861554333"><ele>58.5</ele><time>2026-04-05T07:33:46Z</time></trkpt><trkpt lat="39.98209963529463" lon="18.054985850208837"><ele>60.0</ele><time>2026-04-05T07:33:47Z</time></trkpt><trkpt lat="39.982137742574935" lon="18.054821729757"><ele>61.4</ele><time>2026-04-05T07:33:48Z</time></trkpt><trkpt lat="39.98216801661446" lon="18.054658331901525"><ele>62.8</ele><time>2026-04-05T07:33:49Z</time></trkpt><trkpt lat="39.98219781264737" lon="18.05452530575102"><ele>64.2</ele><time>2026-04-05T07:33:50Z</time></trkpt><trkpt lat="39.982220568607076" lon="18.05440406445363"><ele>65.6</ele><time>2026-04-05T07:33:51Z</time></trkpt><trkpt lat="39.98224157730975" lon="18.05430061388282"><ele>67.0</ele><time>2026-04-05T07:33:52Z</time></trkpt><trkpt lat="39.98224044563635" lon="18.054192270813935"><ele>67.0</ele><time>2026-04-05T07:33:53Z</time></trkpt><trkpt lat="39.982237080096944" lon="18.05408947008256"><ele>67.0</ele><time>2026-04-05T07:33:54Z</time></trkpt><trkpt lat="39.98215961387683" lon="18.05402004857233"><ele>67.0</ele><time>2026-04-05T07:33:55Z</time></trkpt><trkpt lat="39.98208999120561" lon="18.053990914155055"><ele>67.0</ele><time>2026-04-05T07:33:56Z</time></trkpt><trkpt lat="39.98200919237062" lon="18.054003403885872"><ele>67.0</ele><time>2026-04-05T07:33:57Z</time></trkpt><trkpt lat="39.98194012067263" lon="18.054058740738558"><ele>67.0</ele><time>2026-04-05T07:33:58Z</time></trkpt><trkpt lat="39.98188097477231" lon="18.054149605750393"><ele>67.0</ele><time>2026-04-05T07:33:59Z</time></trkpt><trkpt lat="39.98185658813581" lon="18.054311181903717"><ele>67.0</ele><time>2026-04-05T07:34:00Z</time></trkpt><trkpt lat="39.981821241961214" lon="18.05447607460199"><ele>67.0</ele><time>2026-04-05T07:34:01Z</time></trkpt><trkpt lat="39.981778001893545" lon="18.054654102359486"><ele>67.0</ele><time>2026-04-05T07:34:02Z</time></trkpt><trkpt lat="39.98175099476598" lon="18.054832078220752"><ele>65.25</ele><time>2026-04-05T07:34:03Z</time></trkpt><trkpt lat="39.981717470474614" lon="18.055002289849618"><ele>63.5</ele><time>2026-04-05T07:34:04Z</time></trkpt><trkpt lat="39.98168042444493" lon="18.055158844362012"><ele>61.75</ele><time>2026-04-05T07:34:05Z</time></trkpt><trkpt lat="39.981645875985954" lon="18.055307841135164"><ele>60.0</ele><time>2026-04-05T07:34:06Z</time></trkpt><trkpt lat="39.981604574242326" lon="18.05544774622466"><ele>62.4</ele><time>2026-04-05T07:34:07Z</time></trkpt><trkpt lat="39.98156126789695" lon="18.05557916220808"><ele>64.8</ele><time>2026-04-05T07:34:08Z</time></trkpt><trkpt lat="39.98152184113786" lon="18.055706457866965"><ele>67.2</ele><time>2026-04-05T07:34:09Z</time></trkpt><trkpt lat="39.981485058505555" lon="18.055827556184155"><ele>69.6</ele><time>2026-04-05T07:34:10Z</time></trkpt><trkpt lat="39.98143206242621" lon="18.055951977828965"><ele>72.0</ele><time>2026-04-05T07:34:11Z</time></trkpt><trkpt lat="39.98137275981787" lon="18.056063444878824"><ele>72.0</ele><time>2026-04-05T07:34:12Z</time></trkpt><trkpt lat="39.98129312516234" lon="18.05616615845512"><ele>72.0</ele><time>2026-04-05T07:34:13Z</time></trkpt><trkpt lat="39.98121021776321" lon="18.056278667258745"><ele>72.0</ele><time>2026-04-05T07:34:14Z</time></trkpt><trkpt lat="39.98113434766242" lon="18.056411890590336"><ele>72.0</ele><time>2026-04-05T07:34:15Z</time></trkpt><trkpt lat="39.981043863164956" lon="18.056521850678124"><ele>70.6</ele><time>2026-04-05T07:34:16Z</time></trkpt><trkpt lat="39.98096587704949" lon="18.0566382260748"><ele>69.2</ele><time>2026-04-05T07:34:17Z</time></trkpt><trkpt lat="39.98090466499843" lon="18.05675505318636"><ele>67.8</ele><time>2026-04-05T07:34:18Z</time></trkpt><trkpt lat="39.98085399185771" lon="18.056877246747693"><ele>66.4</ele><time>2026-04-05T07:34:19Z</time></trkpt><trkpt lat="39.9808160427507" lon="18.056987257890768"><ele>65.0</ele><time>2026-04-05T07:34:20Z</time></trkpt><trkpt lat="39.98076787276506" lon="18.057084082295503"><ele>67.83333333333334</ele><time>2026-04-05T07:34:21Z</time></trkpt><trkpt lat="39.980707234388404" lon="18.057150353455857"><ele>70.66666666666667</ele><time>2026-04-05T07:34:22Z</time></trkpt><trkpt lat="39.98066838234254" lon="18.057218875380613"><ele>73.5</ele><time>2026-04-05T07:34:23Z</time></trkpt><trkpt lat="39.98059467953617" lon="18.057270175980058"><ele>76.33333333333333</ele><time>2026-04-05T07:34:25Z</time></trkpt><trkpt lat="39.98053290826136" lon="18.0573228716015"><ele>79.16666666666666</ele><time>2026-04-05T07:34:28Z</time></trkpt><trkpt lat="39.980604320974365" lon="18.057253077340643"><ele>82.0</ele><time>2026-04-05T07:34:48.001Z</time></trkpt><trkpt lat="39.98071180967489" lon="18.057209254098687"><ele>82.0</ele><time>2026-04-05T07:34:49.001Z</time></trkpt><trkpt lat="39.98075582160425" lon="18.057100540086655"><ele>82.0</ele><time>2026-04-05T07:34:50.001Z</time></trkpt><trkpt lat="39.98080974087808" lon="18.057016857361706"><ele>82.0</ele><time>2026-04-05T07:34:51.001Z</time></trkpt><trkpt lat="39.980851123168684" lon="18.056928897391316"><ele>82.0</ele><time>2026-04-05T07:34:52.001Z</time></trkpt><trkpt lat="39.98090865331997" lon="18.056855229851568"><ele>82.0</ele><time>2026-04-05T07:34:53.001Z</time></trkpt><trkpt lat="39.98094910060371" lon="18.056767080825722"><ele>82.0</ele><time>2026-04-05T07:34:54.001Z</time></trkpt><trkpt lat="39.98098997800925" lon="18.05667799436507"><ele>80.0</ele><time>2026-04-05T07:34:55.001Z</time></trkpt><trkpt lat="39.981034028223604" lon="18.056590835168024"><ele>78.0</ele><time>2026-04-05T07:34:56.001Z</time></trkpt><trkpt lat="39.98109377391391" lon="18.056499235625978"><ele>76.0</ele><time>2026-04-05T07:34:57.001Z</time></trkpt><trkpt lat="39.981166126560986" lon="18.056401151650178"><ele>74.0</ele><time>2026-04-05T07:34:58.001Z</time></trkpt><trkpt lat="39.98122816135363" lon="18.056292363357596"><ele>72.0</ele><time>2026-04-05T07:34:59.001Z</time></trkpt><trkpt lat="39.981312681937126" lon="18.05620470906382"><ele>72.0</ele><time>2026-04-05T07:35:00.001Z</time></trkpt><trkpt lat="39.981379945903846" lon="18.05609627059999"><ele>72.0</ele><time>2026-04-05T07:35:01.001Z</time></trkpt><trkpt lat="39.98144167159873" lon="18.055973332170396"><ele>72.0</ele><time>2026-04-05T07:35:02.001Z</time></trkpt><trkpt lat="39.981500896411106" lon="18.055840194732586"><ele>72.0</ele><time>2026-04-05T07:35:03.001Z</time></trkpt><trkpt lat="39.98155309245754" lon="18.055696524441174"><ele>72.75</ele><time>2026-04-05T07:35:04.001Z</time></trkpt><trkpt lat="39.98160434786108" lon="18.055540402809218"><ele>73.5</ele><time>2026-04-05T07:35:05.001Z</time></trkpt><trkpt lat="39.98165326872805" lon="18.05537912634483"><ele>74.25</ele><time>2026-04-05T07:35:06.001Z</time></trkpt><trkpt lat="39.98171798984894" lon="18.055210810835966"><ele>75.0</ele><time>2026-04-05T07:35:07.001Z</time></trkpt><trkpt lat="39.981761736820836" lon="18.055033470235244"><ele>73.0</ele><time>2026-04-05T07:35:08.001Z</time></trkpt><trkpt lat="39.98178019939745" lon="18.054855247090757"><ele>71.0</ele><time>2026-04-05T07:35:09.001Z</time></trkpt><trkpt lat="39.98181245954368" lon="18.054702463888038"><ele>69.0</ele><time>2026-04-05T07:35:10.001Z</time></trkpt><trkpt lat="39.98184972028721" lon="18.054566139837206"><ele>67.0</ele><time>2026-04-05T07:35:11.001Z</time></trkpt><trkpt lat="39.98187330617832" lon="18.054431222490052"><ele>67.0</ele><time>2026-04-05T07:35:12.001Z</time></trkpt><trkpt lat="39.98189341797097" lon="18.054321961249816"><ele>67.0</ele><time>2026-04-05T07:35:13.001Z</time></trkpt><trkpt lat="39.98191296782295" lon="18.05423460474251"><ele>67.0</ele><time>2026-04-05T07:35:14.001Z</time></trkpt><trkpt lat="39.98197427024609" lon="18.054102328345557"><ele>67.0</ele><time>2026-04-05T07:35:16.001Z</time></trkpt><trkpt lat="39.98208513463577" lon="18.054039149727682"><ele>67.0</ele><time>2026-04-05T07:35:18.001Z</time></trkpt><trkpt lat="39.982152036785116" lon="18.05406429812786"><ele>67.0</ele><time>2026-04-05T07:35:19.001Z</time></trkpt><trkpt lat="39.98220913797602" lon="18.05412629332295"><ele>67.0</ele><time>2026-04-05T07:35:20.001Z</time></trkpt><trkpt lat="39.98223070578417" lon="18.054233513422812"><ele>67.0</ele><time>2026-04-05T07:35:21.001Z</time></trkpt><trkpt lat="39.98220390898654" lon="18.054372945309083"><ele>67.0</ele><time>2026-04-05T07:35:22.001Z</time></trkpt><trkpt lat="39.98217444314111" lon="18.05451807227109"><ele>67.0</ele><time>2026-04-05T07:35:23.001Z</time></trkpt><trkpt lat="39.98213984231376" lon="18.054687695992815"><ele>67.0</ele><time>2026-04-05T07:35:24.001Z</time></trkpt><trkpt lat="39.9821097379452" lon="18.05487068719085"><ele>67.0</ele><time>2026-04-05T07:35:25.001Z</time></trkpt><trkpt lat="39.982077653136564" lon="18.055042777315034"><ele>67.0</ele><time>2026-04-05T07:35:26.001Z</time></trkpt><trkpt lat="39.98204210497446" lon="18.05521839234429"><ele>67.0</ele><time>2026-04-05T07:35:27.001Z</time></trkpt><trkpt lat="39.98201494185935" lon="18.055380018439102"><ele>65.25</ele><time>2026-04-05T07:35:28.001Z</time></trkpt><trkpt lat="39.98197623335441" lon="18.055542383998578"><ele>63.5</ele><time>2026-04-05T07:35:29.001Z</time></trkpt><trkpt lat="39.98192465896741" lon="18.05569015215072"><ele>61.75</ele><time>2026-04-05T07:35:30.001Z</time></trkpt><trkpt lat="39.98187896809072" lon="18.055853421968642"><ele>60.0</ele><time>2026-04-05T07:35:31.001Z</time></trkpt><trkpt lat="39.98182810157586" lon="18.056022391495336"><ele>61.25</ele><time>2026-04-05T07:35:32.001Z</time></trkpt><trkpt lat="39.98177413735141" lon="18.056197361534057"><ele>62.5</ele><time>2026-04-05T07:35:33.001Z</time></trkpt><trkpt lat="39.98171959133967" lon="18.05637415798941"><ele>63.75</ele><time>2026-04-05T07:35:34.001Z</time></trkpt><trkpt lat="39.98166252166983" lon="18.05655674636656"><ele>65.0</ele><time>2026-04-05T07:35:35.001Z</time></trkpt><trkpt lat="39.98159148235877" lon="18.056743649441596"><ele>65.0</ele><time>2026-04-05T07:35:36.001Z</time></trkpt><trkpt lat="39.98153644515473" lon="18.056933644924815"><ele>65.0</ele><time>2026-04-05T07:35:37.001Z</time></trkpt><trkpt lat="39.981476800841584" lon="18.05712666242412"><ele>65.0</ele><time>2026-04-05T07:35:38.001Z</time></trkpt><trkpt lat="39.9814248688506" lon="18.05731017301088"><ele>62.25</ele><time>2026-04-05T07:35:39.001Z</time></trkpt><trkpt lat="39.981367965527056" lon="18.05748199592908"><ele>59.5</ele><time>2026-04-05T07:35:40.001Z</time></trkpt><trkpt lat="39.981315036825826" lon="18.057647878065666"><ele>56.75</ele><time>2026-04-05T07:35:41.001Z</time></trkpt><trkpt lat="39.98126320346449" lon="18.057819433178157"><ele>54.0</ele><time>2026-04-05T07:35:42.001Z</time></trkpt><trkpt lat="39.98121345421947" lon="18.05800617877884"><ele>54.0</ele><time>2026-04-05T07:35:43.001Z</time></trkpt><trkpt lat="39.981170107564644" lon="18.058177021748172"><ele>54.0</ele><time>2026-04-05T07:35:44Z</time></trkpt><trkpt lat="39.98113073827027" lon="18.058322305258365"><ele>54.0</ele><time>2026-04-05T07:35:45Z</time></trkpt><trkpt lat="39.98109179896698" lon="18.05844709974972"><ele>54.0</ele><time>2026-04-05T07:35:46Z</time></trkpt><trkpt lat="39.9810617974352" lon="18.058570887848724"><ele>53.0</ele><time>2026-04-05T07:35:47Z</time></trkpt><trkpt lat="39.98103481380005" lon="18.058667226526154"><ele>52.0</ele><time>2026-04-05T07:35:48Z</time></trkpt><trkpt lat="39.98104058607667" lon="18.058772166312956"><ele>51.0</ele><time>2026-04-05T07:35:49Z</time></trkpt><trkpt lat="39.9810482755795" lon="18.05888770447062"><ele>50.0</ele><time>2026-04-05T07:35:50Z</time></trkpt><trkpt lat="39.98110089356363" lon="18.058994499856198"><ele>49.0</ele><time>2026-04-05T07:35:51Z</time></trkpt><trkpt lat="39.98115028363186" lon="18.059109131160838"><ele>48.0</ele><time>2026-04-05T07:35:52Z</time></trkpt><trkpt lat="39.98122186331359" lon="18.05923274120173"><ele>47.0</ele><time>2026-04-05T07:35:53Z</time></trkpt><trkpt lat="39.981315374631805" lon="18.05937130853785"><ele>46.0</ele><time>2026-04-05T07:35:54Z</time></trkpt><trkpt lat="39.98140941536223" lon="18.05950830670599"><ele>45.0</ele><time>2026-04-05T07:35:55Z</time></trkpt><trkpt lat="39.98151144759996" lon="18.059661619326015"><ele>44.0</ele><time>2026-04-05T07:35:56Z</time></trkpt><trkpt lat="39.98160937476968" lon="18.059811277893317"><ele>43.33333333333333</ele><time>2026-04-05T07:35:57Z</time></trkpt><trkpt lat="39.98170404798386" lon="18.059958342807658"><ele>42.666666666666664</ele><time>2026-04-05T07:35:58Z</time></trkpt><trkpt lat="39.981798642618564" lon="18.060104506589887"><ele>42.0</ele><time>2026-04-05T07:35:59Z</time></trkpt><trkpt lat="39.98189718817221" lon="18.06027527815128"><ele>42.0</ele><time>2026-04-05T07:36:00Z</time></trkpt><trkpt lat="39.981964937603976" lon="18.06048725143984"><ele>42.0</ele><time>2026-04-05T07:36:01Z</time></trkpt><trkpt lat="39.98205105025799" lon="18.060702402890573"><ele>42.0</ele><time>2026-04-05T07:36:02Z</time></trkpt><trkpt lat="39.98211338075043" lon="18.06090193654709"><ele>42.25</ele><time>2026-04-05T07:36:03Z</time></trkpt><trkpt lat="39.98218093864167" lon="18.061077538367595"><ele>42.5</ele><time>2026-04-05T07:36:04Z</time></trkpt><trkpt lat="39.98224161234616" lon="18.06123444288597"><ele>42.75</ele><time>2026-04-05T07:36:05Z</time></trkpt><trkpt lat="39.98230354056285" lon="18.06138181102394"><ele>43.0</ele><time>2026-04-05T07:36:06Z</time></trkpt><trkpt lat="39.98234928049499" lon="18.061514835316647"><ele>43.0</ele><time>2026-04-05T07:36:07Z</time></trkpt><trkpt lat="39.98238186876121" lon="18.06160654314316"><ele>43.0</ele><time>2026-04-05T07:36:08Z</time></trkpt><trkpt lat="39.98240561256326" lon="18.06168468810197"><ele>43.0</ele><time>2026-04-05T07:36:09Z</time></trkpt><trkpt lat="39.982440478632526" lon="18.061786024951825"><ele>43.0</ele><time>2026-04-05T07:36:11Z</time></trkpt><trkpt lat="39.982484376095165" lon="18.06185940408103"><ele>43.0</ele><time>2026-04-05T07:36:19Z</time></trkpt><trkpt lat="39.9826400355798" lon="18.06176472397971"><ele>42.5</ele><time>2026-04-05T07:36:21Z</time></trkpt><trkpt lat="39.982710421058584" lon="18.06167851955569"><ele>42.0</ele><time>2026-04-05T07:36:22Z</time></trkpt><trkpt lat="39.982801243605834" lon="18.061573903122298"><ele>41.5</ele><time>2026-04-05T07:36:23Z</time></trkpt><trkpt lat="39.98291364381441" lon="18.061452407761525"><ele>41.0</ele><time>2026-04-05T07:36:24Z</time></trkpt><trkpt lat="39.98303165436932" lon="18.0613201504933"><ele>41.0</ele><time>2026-04-05T07:36:25Z</time></trkpt><trkpt lat="39.98314209611491" lon="18.06118651295159"><ele>41.0</ele><time>2026-04-05T07:36:26Z</time></trkpt><trkpt lat="39.9832596557509" lon="18.06105444929565"><ele>41.0</ele><time>2026-04-05T07:36:27Z</time></trkpt><trkpt lat="39.98335763686272" lon="18.060887684717592"><ele>41.33333333333333</ele><time>2026-04-05T07:36:28Z</time></trkpt><trkpt lat="39.98343973915503" lon="18.060672912686858"><ele>41.666666666666664</ele><time>2026-04-05T07:36:29Z</time></trkpt><trkpt lat="39.98351356457493" lon="18.060454499178984"><ele>42.0</ele><time>2026-04-05T07:36:30Z</time></trkpt><trkpt lat="39.98358749254555" lon="18.060224405334704"><ele>42.0</ele><time>2026-04-05T07:36:31Z</time></trkpt><trkpt lat="39.98365314888598" lon="18.06001483150725"><ele>42.0</ele><time>2026-04-05T07:36:32Z</time></trkpt><trkpt lat="39.983714681898796" lon="18.059818419444625"><ele>42.0</ele><time>2026-04-05T07:36:33Z</time></trkpt><trkpt lat="39.983772839295845" lon="18.059646904496976"><ele>41.75</ele><time>2026-04-05T07:36:34Z</time></trkpt><trkpt lat="39.983838441376996" lon="18.05948791600917"><ele>41.5</ele><time>2026-04-05T07:36:35Z</time></trkpt><trkpt lat="39.98391151591525" lon="18.059355820192767"><ele>41.25</ele><time>2026-04-05T07:36:36Z</time></trkpt><trkpt lat="39.984010448318955" lon="18.059237281544252"><ele>41.0</ele><time>2026-04-05T07:36:37Z</time></trkpt><trkpt lat="39.984138235245915" lon="18.05913691603468"><ele>40.666666666666664</ele><time>2026-04-05T07:36:38Z</time></trkpt><trkpt lat="39.98428874255147" lon="18.059017237183365"><ele>40.333333333333336</ele><time>2026-04-05T07:36:39Z</time></trkpt><trkpt lat="39.98445354202975" lon="18.058914593789495"><ele>40.0</ele><time>2026-04-05T07:36:40Z</time></trkpt><trkpt lat="39.98463855944535" lon="18.05879000704158"><ele>40.0</ele><time>2026-04-05T07:36:41Z</time></trkpt><trkpt lat="39.98481579672194" lon="18.058670811337407"><ele>40.0</ele><time>2026-04-05T07:36:42Z</time></trkpt><trkpt lat="39.985002362760135" lon="18.058538630808965"><ele>40.0</ele><time>2026-04-05T07:36:43Z</time></trkpt><trkpt lat="39.98519186744347" lon="18.058412639158416"><ele>40.0</ele><time>2026-04-05T07:36:44Z</time></trkpt><trkpt lat="39.98538868386621" lon="18.058309578967716"><ele>40.0</ele><time>2026-04-05T07:36:45Z</time></trkpt><trkpt lat="39.985584502484365" lon="18.058186482498712"><ele>40.0</ele><time>2026-04-05T07:36:46Z</time></trkpt><trkpt lat="39.98577720279385" lon="18.05806388558849"><ele>40.333333333333336</ele><time>2026-04-05T07:36:47.001Z</time></trkpt><trkpt lat="39.985951303120025" lon="18.057952895649862"><ele>40.666666666666664</ele><time>2026-04-05T07:36:48.001Z</time></trkpt><trkpt lat="39.986118396918386" lon="18.057846269465394"><ele>41.0</ele><time>2026-04-05T07:36:49.001Z</time></trkpt><trkpt lat="39.9862690917266" lon="18.057751174808185"><ele>41.0</ele><time>2026-04-05T07:36:50.001Z</time></trkpt><trkpt lat="39.986411223150306" lon="18.05766184524267"><ele>41.0</ele><time>2026-04-05T07:36:51.001Z</time></trkpt><trkpt lat="39.98654793554491" lon="18.057575921026235"><ele>41.0</ele><time>2026-04-05T07:36:52.001Z</time></trkpt><trkpt lat="39.98665486637565" lon="18.057507239089357"><ele>41.0</ele><time>2026-04-05T07:36:53.001Z</time></trkpt><trkpt lat="39.98674575348605" lon="18.05745130354202"><ele>41.0</ele><time>2026-04-05T07:36:54.001Z</time></trkpt><trkpt lat="39.98681308363901" lon="18.05740986587915"><ele>41.0</ele><time>2026-04-05T07:36:55.001Z</time></trkpt><trkpt lat="39.98686743141955" lon="18.0573574619868"><ele>41.0</ele><time>2026-04-05T07:36:57.001Z</time></trkpt><trkpt lat="39.986971094662586" lon="18.0575835192672"><ele>41.0</ele><time>2026-04-05T07:37:02.001Z</time></trkpt><trkpt lat="39.986978609748874" lon="18.05774058359924"><ele>41.0</ele><time>2026-04-05T07:37:03.001Z</time></trkpt><trkpt lat="39.987011279133945" lon="18.057913725450437"><ele>41.0</ele><time>2026-04-05T07:37:04.001Z</time></trkpt><trkpt lat="39.987046249123004" lon="18.058096389433803"><ele>41.0</ele><time>2026-04-05T07:37:05.001Z</time></trkpt><trkpt lat="39.987085203893" lon="18.05830239355202"><ele>41.0</ele><time>2026-04-05T07:37:06.001Z</time></trkpt><trkpt lat="39.9871256586531" lon="18.05851281930582"><ele>41.0</ele><time>2026-04-05T07:37:07.001Z</time></trkpt><trkpt lat="39.9871673386603" lon="18.058708908726178"><ele>41.0</ele><time>2026-04-05T07:37:08.001Z</time></trkpt><trkpt lat="39.987204467472736" lon="18.058908391757072"><ele>41.0</ele><time>2026-04-05T07:37:09.001Z</time></trkpt><trkpt lat="39.987228314951224" lon="18.059112385887893"><ele>40.666666666666664</ele><time>2026-04-05T07:37:10.001Z</time></trkpt><trkpt lat="39.98720063596956" lon="18.059345590264854"><ele>40.333333333333336</ele><time>2026-04-05T07:37:11.001Z</time></trkpt><trkpt lat="39.98718087120288" lon="18.059606108015437"><ele>40.0</ele><time>2026-04-05T07:37:12.001Z</time></trkpt><trkpt lat="39.987170236400075" lon="18.059868483028634"><ele>40.333333333333336</ele><time>2026-04-05T07:37:13.001Z</time></trkpt><trkpt lat="39.98714978496874" lon="18.060145680401444"><ele>40.666666666666664</ele><time>2026-04-05T07:37:14.001Z</time></trkpt><trkpt lat="39.98712438017891" lon="18.06042162284766"><ele>41.0</ele><time>2026-04-05T07:37:15.001Z</time></trkpt><trkpt lat="39.98709241344629" lon="18.060707213363063"><ele>41.0</ele><time>2026-04-05T07:37:16.001Z</time></trkpt><trkpt lat="39.98706029538622" lon="18.061009053806767"><ele>41.0</ele><time>2026-04-05T07:37:17.001Z</time></trkpt><trkpt lat="39.98703363383425" lon="18.061306082603572"><ele>41.0</ele><time>2026-04-05T07:37:18.001Z</time></trkpt><trkpt lat="39.987004219681765" lon="18.06160203062582"><ele>41.0</ele><time>2026-04-05T07:37:19.001Z</time></trkpt><trkpt lat="39.98698516810606" lon="18.061891695717673"><ele>41.0</ele><time>2026-04-05T07:37:20.001Z</time></trkpt><trkpt lat="39.98696754248471" lon="18.062171427040152"><ele>41.0</ele><time>2026-04-05T07:37:21.001Z</time></trkpt><trkpt lat="39.98694327997582" lon="18.062463992283543"><ele>41.0</ele><time>2026-04-05T07:37:22.001Z</time></trkpt><trkpt lat="39.986918055786596" lon="18.062762045254818"><ele>41.0</ele><time>2026-04-05T07:37:23.001Z</time></trkpt><trkpt lat="39.98689400307426" lon="18.063059140915453"><ele>41.0</ele><time>2026-04-05T07:37:24.001Z</time></trkpt><trkpt lat="39.98686690140192" lon="18.063364437093288"><ele>41.5</ele><time>2026-04-05T07:37:25.001Z</time></trkpt><trkpt lat="39.98684303546316" lon="18.06366961864625"><ele>42.0</ele><time>2026-04-05T07:37:26.001Z</time></trkpt><trkpt lat="39.986815449624444" lon="18.06395496350892"><ele>42.333333333333336</ele><time>2026-04-05T07:37:27.001Z</time></trkpt><trkpt lat="39.9867931507897" lon="18.06421617511229"><ele>42.66666666666667</ele><time>2026-04-05T07:37:28.001Z</time></trkpt><trkpt lat="39.98677127831082" lon="18.0644566766298"><ele>43.0</ele><time>2026-04-05T07:37:29.001Z</time></trkpt><trkpt lat="39.98674094580194" lon="18.064686042662817"><ele>43.0</ele><time>2026-04-05T07:37:30.001Z</time></trkpt><trkpt lat="39.98673282635635" lon="18.064915808023027"><ele>43.0</ele><time>2026-04-05T07:37:31.001Z</time></trkpt><trkpt lat="39.98672487237601" lon="18.065146568091915"><ele>43.0</ele><time>2026-04-05T07:37:32.001Z</time></trkpt><trkpt lat="39.98673877677668" lon="18.06538167526977"><ele>43.0</ele><time>2026-04-05T07:37:33.001Z</time></trkpt><trkpt lat="39.98677117966631" lon="18.065628258829932"><ele>43.0</ele><time>2026-04-05T07:37:34.001Z</time></trkpt><trkpt lat="39.98681528836718" lon="18.06587837441925"><ele>43.0</ele><time>2026-04-05T07:37:35.001Z</time></trkpt><trkpt lat="39.98687194912684" lon="18.066142798080257"><ele>43.333333333333336</ele><time>2026-04-05T07:37:36.001Z</time></trkpt><trkpt lat="39.98693245823172" lon="18.066423292430184"><ele>43.666666666666664</ele><time>2026-04-05T07:37:37.001Z</time></trkpt><trkpt lat="39.98699228905929" lon="18.066694814426622"><ele>44.0</ele><time>2026-04-05T07:37:38.001Z</time></trkpt><trkpt lat="39.98705369554735" lon="18.066960759508177"><ele>44.0</ele><time>2026-04-05T07:37:39.001Z</time></trkpt><trkpt lat="39.98711070014435" lon="18.06722348071638"><ele>44.0</ele><time>2026-04-05T07:37:40.001Z</time></trkpt><trkpt lat="39.987173026855395" lon="18.067491942415995"><ele>44.0</ele><time>2026-04-05T07:37:41.001Z</time></trkpt><trkpt lat="39.987234070878856" lon="18.067758132763814"><ele>44.0</ele><time>2026-04-05T07:37:42.001Z</time></trkpt><trkpt lat="39.98728950338802" lon="18.068021484607016"><ele>44.0</ele><time>2026-04-05T07:37:43.001Z</time></trkpt><trkpt lat="39.98734853449769" lon="18.068282285194922"><ele>44.0</ele><time>2026-04-05T07:37:44.001Z</time></trkpt><trkpt lat="39.98740300611371" lon="18.068530729912048"><ele>44.0</ele><time>2026-04-05T07:37:45.001Z</time></trkpt><trkpt lat="39.98745854856407" lon="18.068769642276237"><ele>44.0</ele><time>2026-04-05T07:37:46.001Z</time></trkpt><trkpt lat="39.98750597323253" lon="18.068977055030782"><ele>44.0</ele><time>2026-04-05T07:37:47.001Z</time></trkpt><trkpt lat="39.98755258338077" lon="18.069161404452483"><ele>44.0</ele><time>2026-04-05T07:37:48.001Z</time></trkpt><trkpt lat="39.98758584329328" lon="18.069310246736492"><ele>44.0</ele><time>2026-04-05T07:37:49.001Z</time></trkpt><trkpt lat="39.987602691352" lon="18.069430193190165"><ele>44.0</ele><time>2026-04-05T07:37:50Z</time></trkpt><trkpt lat="39.98761881581168" lon="18.069525952676493"><ele>44.0</ele><time>2026-04-05T07:37:51Z</time></trkpt><trkpt lat="39.98764288411761" lon="18.069645391605665"><ele>44.0</ele><time>2026-04-05T07:37:53Z</time></trkpt><trkpt lat="39.987792865740666" lon="18.069651151986342"><ele>44.0</ele><time>2026-04-05T07:37:59Z</time></trkpt><trkpt lat="39.987881054552496" lon="18.0695778003053"><ele>44.0</ele><time>2026-04-05T07:38:00Z</time></trkpt><trkpt lat="39.98796723482071" lon="18.069490047661816"><ele>44.0</ele><time>2026-04-05T07:38:01Z</time></trkpt><trkpt lat="39.98805119997538" lon="18.06939956822782"><ele>44.0</ele><time>2026-04-05T07:38:02Z</time></trkpt><trkpt lat="39.98815623377611" lon="18.069347587617564"><ele>44.0</ele><time>2026-04-05T07:38:03Z</time></trkpt><trkpt lat="39.98825948192334" lon="18.06925443511267"><ele>44.0</ele><time>2026-04-05T07:38:04Z</time></trkpt><trkpt lat="39.9883671672415" lon="18.069156627178025"><ele>44.0</ele><time>2026-04-05T07:38:05Z</time></trkpt><trkpt lat="39.988494464976746" lon="18.069072782319928"><ele>44.0</ele><time>2026-04-05T07:38:06Z</time></trkpt><trkpt lat="39.98863066168419" lon="18.068965331928567"><ele>44.0</ele><time>2026-04-05T07:38:07Z</time></trkpt><trkpt lat="39.98875926160109" lon="18.068830538243628"><ele>44.0</ele><time>2026-04-05T07:38:08Z</time></trkpt><trkpt lat="39.988899557671544" lon="18.068722098346885"><ele>44.0</ele><time>2026-04-05T07:38:09Z</time></trkpt><trkpt lat="39.989038673884075" lon="18.06860806345004"><ele>44.0</ele><time>2026-04-05T07:38:10Z</time></trkpt><trkpt lat="39.989184987116204" lon="18.068495470378714"><ele>44.0</ele><time>2026-04-05T07:38:11Z</time></trkpt><trkpt lat="39.9893373498064" lon="18.068389414310317"><ele>44.0</ele><time>2026-04-05T07:38:12Z</time></trkpt><trkpt lat="39.98947552650554" lon="18.068235516567817"><ele>44.0</ele><time>2026-04-05T07:38:13Z</time></trkpt><trkpt lat="39.989622961914144" lon="18.068115711671936"><ele>44.0</ele><time>2026-04-05T07:38:14Z</time></trkpt><trkpt lat="39.98976803813495" lon="18.06801134494657"><ele>44.0</ele><time>2026-04-05T07:38:15Z</time></trkpt><trkpt lat="39.989903778678624" lon="18.067900768082264"><ele>44.0</ele><time>2026-04-05T07:38:16Z</time></trkpt><trkpt lat="39.99003908240311" lon="18.067787167294515"><ele>44.0</ele><time>2026-04-05T07:38:17Z</time></trkpt><trkpt lat="39.99018225338377" lon="18.067674563306745"><ele>44.0</ele><time>2026-04-05T07:38:18Z</time></trkpt><trkpt lat="39.990326007412676" lon="18.06755744252183"><ele>44.0</ele><time>2026-04-05T07:38:19Z</time></trkpt><trkpt lat="39.99047118856181" lon="18.0674301571815"><ele>44.0</ele><time>2026-04-05T07:38:20Z</time></trkpt><trkpt lat="39.99061493677018" lon="18.067316732015"><ele>44.0</ele><time>2026-04-05T07:38:21Z</time></trkpt><trkpt lat="39.99074961035671" lon="18.06720726799012"><ele>44.0</ele><time>2026-04-05T07:38:22Z</time></trkpt><trkpt lat="39.990889212824904" lon="18.067094677992003"><ele>43.666666666666664</ele><time>2026-04-05T07:38:23Z</time></trkpt><trkpt lat="39.99105099287266" lon="18.06701640490954"><ele>43.333333333333336</ele><time>2026-04-05T07:38:24Z</time></trkpt><trkpt lat="39.991213658208515" lon="18.066916290699147"><ele>43.0</ele><time>2026-04-05T07:38:25Z</time></trkpt><trkpt lat="39.991376856071966" lon="18.06680193379548"><ele>43.0</ele><time>2026-04-05T07:38:26Z</time></trkpt><trkpt lat="39.99155804870454" lon="18.066710274329914"><ele>43.0</ele><time>2026-04-05T07:38:27Z</time></trkpt><trkpt lat="39.99174741273447" lon="18.066600600558477"><ele>43.0</ele><time>2026-04-05T07:38:28Z</time></trkpt><trkpt lat="39.9919409844596" lon="18.06649107157701"><ele>42.333333333333336</ele><time>2026-04-05T07:38:29Z</time></trkpt><trkpt lat="39.99213191594347" lon="18.066386683258035"><ele>41.666666666666664</ele><time>2026-04-05T07:38:30Z</time></trkpt><trkpt lat="39.9923232562226" lon="18.066280838055587"><ele>41.0</ele><time>2026-04-05T07:38:31Z</time></trkpt><trkpt lat="39.99251450197861" lon="18.0661846196283"><ele>41.0</ele><time>2026-04-05T07:38:32Z</time></trkpt><trkpt lat="39.99268560361113" lon="18.066092439710523"><ele>41.0</ele><time>2026-04-05T07:38:33Z</time></trkpt><trkpt lat="39.99285708872102" lon="18.065997527036792"><ele>41.0</ele><time>2026-04-05T07:38:34Z</time></trkpt><trkpt lat="39.99303476407759" lon="18.065907391118817"><ele>41.0</ele><time>2026-04-05T07:38:35Z</time></trkpt><trkpt lat="39.99322438836267" lon="18.065812548044086"><ele>41.0</ele><time>2026-04-05T07:38:36Z</time></trkpt><trkpt lat="39.993419690324146" lon="18.06570379762749"><ele>41.0</ele><time>2026-04-05T07:38:37Z</time></trkpt><trkpt lat="39.99360413806089" lon="18.06558541636104"><ele>41.0</ele><time>2026-04-05T07:38:38Z</time></trkpt><trkpt lat="39.99378044095543" lon="18.06547028216226"><ele>41.0</ele><time>2026-04-05T07:38:39Z</time></trkpt><trkpt lat="39.99394976204293" lon="18.065340910490576"><ele>41.0</ele><time>2026-04-05T07:38:40Z</time></trkpt><trkpt lat="39.994116723101676" lon="18.065214481641366"><ele>40.666666666666664</ele><time>2026-04-05T07:38:41Z</time></trkpt><trkpt lat="39.994283195148185" lon="18.065066490966384"><ele>40.333333333333336</ele><time>2026-04-05T07:38:42Z</time></trkpt><trkpt lat="39.99444807609765" lon="18.064920992364442"><ele>40.0</ele><time>2026-04-05T07:38:43Z</time></trkpt><trkpt lat="39.99459923017785" lon="18.064745612492562"><ele>40.0</ele><time>2026-04-05T07:38:44Z</time></trkpt><trkpt lat="39.9947628523762" lon="18.064559130639676"><ele>40.0</ele><time>2026-04-05T07:38:45Z</time></trkpt><trkpt lat="39.9949215280176" lon="18.06437129600517"><ele>40.0</ele><time>2026-04-05T07:38:46Z</time></trkpt><trkpt lat="39.99509445132736" lon="18.06418106648036"><ele>39.5</ele><time>2026-04-05T07:38:47Z</time></trkpt><trkpt lat="39.995263309126365" lon="18.063988987586775"><ele>39.0</ele><time>2026-04-05T07:38:48Z</time></trkpt><trkpt lat="39.995432252280736" lon="18.063783086657505"><ele>39.0</ele><time>2026-04-05T07:38:49Z</time></trkpt><trkpt lat="39.99561393842254" lon="18.063597911936018"><ele>39.0</ele><time>2026-04-05T07:38:50Z</time></trkpt><trkpt lat="39.99579326187799" lon="18.06342729800364"><ele>39.0</ele><time>2026-04-05T07:38:51Z</time></trkpt><trkpt lat="39.99597872522467" lon="18.063261946272306"><ele>39.0</ele><time>2026-04-05T07:38:52Z</time></trkpt><trkpt lat="39.996161958282116" lon="18.063121685929268"><ele>39.0</ele><time>2026-04-05T07:38:53Z</time></trkpt><trkpt lat="39.996337498308684" lon="18.062985389010013"><ele>39.0</ele><time>2026-04-05T07:38:54Z</time></trkpt><trkpt lat="39.996499794332074" lon="18.062863901326665"><ele>39.0</ele><time>2026-04-05T07:38:55Z</time></trkpt><trkpt lat="39.99664161299336" lon="18.062747622892953"><ele>39.0</ele><time>2026-04-05T07:38:56Z</time></trkpt><trkpt lat="39.99677605783095" lon="18.06264384078847"><ele>38.75</ele><time>2026-04-05T07:38:57.001Z</time></trkpt><trkpt lat="39.9969106451467" lon="18.06254012855326"><ele>38.5</ele><time>2026-04-05T07:38:58.001Z</time></trkpt><trkpt lat="39.99703164961662" lon="18.062445455943262"><ele>38.25</ele><time>2026-04-05T07:38:59.001Z</time></trkpt><trkpt lat="39.99715143968938" lon="18.062367325311975"><ele>38.0</ele><time>2026-04-05T07:39:00.001Z</time></trkpt><trkpt lat="39.99727723594744" lon="18.062316026762847"><ele>37.75</ele><time>2026-04-05T07:39:01.001Z</time></trkpt><trkpt lat="39.99740206749987" lon="18.062309418075202"><ele>37.5</ele><time>2026-04-05T07:39:02.001Z</time></trkpt><trkpt lat="39.997541203819104" lon="18.062306045542584"><ele>37.25</ele><time>2026-04-05T07:39:03.001Z</time></trkpt><trkpt lat="39.99768989879355" lon="18.062359614194573"><ele>37.0</ele><time>2026-04-05T07:39:04.001Z</time></trkpt><trkpt lat="39.99783415210111" lon="18.062439171960897"><ele>37.333333333333336</ele><time>2026-04-05T07:39:05.001Z</time></trkpt><trkpt lat="39.99797184699602" lon="18.062542945674355"><ele>37.666666666666664</ele><time>2026-04-05T07:39:06.001Z</time></trkpt><trkpt lat="39.99808246551615" lon="18.06269108520761"><ele>38.0</ele><time>2026-04-05T07:39:07.001Z</time></trkpt><trkpt lat="39.998190996041906" lon="18.06286147344908"><ele>38.0</ele><time>2026-04-05T07:39:08.001Z</time></trkpt><trkpt lat="39.99830365659958" lon="18.063058777021194"><ele>38.0</ele><time>2026-04-05T07:39:09.001Z</time></trkpt><trkpt lat="39.9984253927476" lon="18.063280739151516"><ele>38.0</ele><time>2026-04-05T07:39:10.001Z</time></trkpt><trkpt lat="39.9985617444133" lon="18.06349396790761"><ele>36.5</ele><time>2026-04-05T07:39:11.001Z</time></trkpt><trkpt lat="39.998713102758984" lon="18.06375726574547"><ele>35.0</ele><time>2026-04-05T07:39:12.001Z</time></trkpt><trkpt lat="39.998864505620986" lon="18.063996680092664"><ele>37.0</ele><time>2026-04-05T07:39:13.001Z</time></trkpt><trkpt lat="39.99901344917871" lon="18.064243065308222"><ele>39.0</ele><time>2026-04-05T07:39:14.001Z</time></trkpt><trkpt lat="39.99916490481223" lon="18.064475912714773"><ele>39.0</ele><time>2026-04-05T07:39:15.001Z</time></trkpt><trkpt lat="39.99929639689378" lon="18.064697105981303"><ele>39.0</ele><time>2026-04-05T07:39:16.001Z</time></trkpt><trkpt lat="39.999427662576856" lon="18.06490814937229"><ele>39.0</ele><time>2026-04-05T07:39:17.001Z</time></trkpt><trkpt lat="39.99955688161649" lon="18.06511644126603"><ele>39.0</ele><time>2026-04-05T07:39:18.001Z</time></trkpt><trkpt lat="39.99966093080975" lon="18.065290154836486"><ele>39.0</ele><time>2026-04-05T07:39:19.001Z</time></trkpt><trkpt lat="39.999778131487055" lon="18.06546261600211"><ele>39.0</ele><time>2026-04-05T07:39:20.001Z</time></trkpt><trkpt lat="39.9999068943651" lon="18.065611809580687"><ele>39.0</ele><time>2026-04-05T07:39:21.001Z</time></trkpt><trkpt lat="40.00005855087045" lon="18.065742660267315"><ele>39.0</ele><time>2026-04-05T07:39:22.001Z</time></trkpt><trkpt lat="40.00021000627978" lon="18.06585076963674"><ele>39.0</ele><time>2026-04-05T07:39:23.001Z</time></trkpt><trkpt lat="40.00036605884388" lon="18.065935167952386"><ele>39.666666666666664</ele><time>2026-04-05T07:39:24.001Z</time></trkpt><trkpt lat="40.00052747174587" lon="18.06599150297492"><ele>40.33333333333333</ele><time>2026-04-05T07:39:25.001Z</time></trkpt><trkpt lat="40.00070009208247" lon="18.066022138188607"><ele>41.0</ele><time>2026-04-05T07:39:26.001Z</time></trkpt><trkpt lat="40.00088092829142" lon="18.066022722295187"><ele>41.0</ele><time>2026-04-05T07:39:27.001Z</time></trkpt><trkpt lat="40.001049767253974" lon="18.0659944332715"><ele>41.0</ele><time>2026-04-05T07:39:28.001Z</time></trkpt><trkpt lat="40.00121812013474" lon="18.0659568128482"><ele>41.0</ele><time>2026-04-05T07:39:29.001Z</time></trkpt><trkpt lat="40.00136930058713" lon="18.065892996708484"><ele>41.0</ele><time>2026-04-05T07:39:30.001Z</time></trkpt><trkpt lat="40.00153496750452" lon="18.065810957715147"><ele>41.0</ele><time>2026-04-05T07:39:31.001Z</time></trkpt><trkpt lat="40.00168120242175" lon="18.065695243895426"><ele>41.0</ele><time>2026-04-05T07:39:32.001Z</time></trkpt><trkpt lat="40.00183571698018" lon="18.065549567050898"><ele>40.33333333333333</ele><time>2026-04-05T07:39:33.001Z</time></trkpt><trkpt lat="40.00198595682229" lon="18.06535055744584"><ele>39.666666666666664</ele><time>2026-04-05T07:39:34.001Z</time></trkpt><trkpt lat="40.00210430052141" lon="18.06514468222003"><ele>39.0</ele><time>2026-04-05T07:39:35.001Z</time></trkpt><trkpt lat="40.00220453263252" lon="18.064917941855"><ele>38.333333333333336</ele><time>2026-04-05T07:39:36.001Z</time></trkpt><trkpt lat="40.00229747434609" lon="18.064661307909937"><ele>37.66666666666667</ele><time>2026-04-05T07:39:37.001Z</time></trkpt><trkpt lat="40.00239193888748" lon="18.064389587795194"><ele>37.0</ele><time>2026-04-05T07:39:38.001Z</time></trkpt><trkpt lat="40.002485759057876" lon="18.06413836614336"><ele>36.333333333333336</ele><time>2026-04-05T07:39:39.001Z</time></trkpt><trkpt lat="40.002574300632084" lon="18.06392771460413"><ele>35.666666666666664</ele><time>2026-04-05T07:39:40.001Z</time></trkpt><trkpt lat="40.00264867296037" lon="18.06374449424555"><ele>35.0</ele><time>2026-04-05T07:39:41.001Z</time></trkpt><trkpt lat="40.002705803380685" lon="18.06356094453544"><ele>35.0</ele><time>2026-04-05T07:39:42.001Z</time></trkpt><trkpt lat="40.00272653297033" lon="18.063360800156808"><ele>35.0</ele><time>2026-04-05T07:39:43.001Z</time></trkpt><trkpt lat="40.00271905597298" lon="18.063150170764477"><ele>35.0</ele><time>2026-04-05T07:39:44.001Z</time></trkpt><trkpt lat="40.00263836934625" lon="18.062901304510575"><ele>35.0</ele><time>2026-04-05T07:39:45.001Z</time></trkpt><trkpt lat="40.00261686077885" lon="18.062682732542314"><ele>35.0</ele><time>2026-04-05T07:39:46.001Z</time></trkpt><trkpt lat="40.00258910834054" lon="18.0624905535327"><ele>35.0</ele><time>2026-04-05T07:39:47.001Z</time></trkpt><trkpt lat="40.00258584195988" lon="18.062285021461133"><ele>35.0</ele><time>2026-04-05T07:39:48.001Z</time></trkpt><trkpt lat="40.00262298525113" lon="18.062085236246965"><ele>35.0</ele><time>2026-04-05T07:39:49.001Z</time></trkpt><trkpt lat="40.00267136231017" lon="18.061906748846248"><ele>35.0</ele><time>2026-04-05T07:39:50.001Z</time></trkpt><trkpt lat="40.002728692754914" lon="18.06170772978216"><ele>35.33333333333333</ele><time>2026-04-05T07:39:51.001Z</time></trkpt><trkpt lat="40.0028271003675" lon="18.061529637957552"><ele>35.666666666666664</ele><time>2026-04-05T07:39:52.001Z</time></trkpt><trkpt lat="40.00295364201317" lon="18.061365713083273"><ele>36.0</ele><time>2026-04-05T07:39:53.001Z</time></trkpt><trkpt lat="40.00309461052874" lon="18.061209616933194"><ele>36.0</ele><time>2026-04-05T07:39:54.001Z</time></trkpt><trkpt lat="40.00324152403987" lon="18.06105155091669"><ele>36.0</ele><time>2026-04-05T07:39:55.001Z</time></trkpt><trkpt lat="40.00339249278975" lon="18.06088153143675"><ele>36.0</ele><time>2026-04-05T07:39:56Z</time></trkpt><trkpt lat="40.00355277936854" lon="18.060699052298006"><ele>35.5</ele><time>2026-04-05T07:39:57Z</time></trkpt><trkpt lat="40.003722015435756" lon="18.060500060084504"><ele>35.0</ele><time>2026-04-05T07:39:58Z</time></trkpt><trkpt lat="40.00390961290462" lon="18.060290485611443"><ele>35.0</ele><time>2026-04-05T07:39:59Z</time></trkpt><trkpt lat="40.00410593448452" lon="18.06007359565316"><ele>35.0</ele><time>2026-04-05T07:40:00Z</time></trkpt><trkpt lat="40.00431535748239" lon="18.05984708998833"><ele>34.5</ele><time>2026-04-05T07:40:01Z</time></trkpt><trkpt lat="40.00452805559389" lon="18.059619242174417"><ele>34.0</ele><time>2026-04-05T07:40:02Z</time></trkpt><trkpt lat="40.004747321820325" lon="18.059383925452995"><ele>34.0</ele><time>2026-04-05T07:40:03Z</time></trkpt><trkpt lat="40.00496995985876" lon="18.05914994012032"><ele>34.0</ele><time>2026-04-05T07:40:04Z</time></trkpt><trkpt lat="40.00518689906434" lon="18.05891708599154"><ele>33.5</ele><time>2026-04-05T07:40:05Z</time></trkpt><trkpt lat="40.005409361867954" lon="18.058677861468865"><ele>33.0</ele><time>2026-04-05T07:40:06Z</time></trkpt><trkpt lat="40.00562979403027" lon="18.058433437544323"><ele>32.5</ele><time>2026-04-05T07:40:07Z</time></trkpt><trkpt lat="40.0058548093965" lon="18.058189601821343"><ele>32.0</ele><time>2026-04-05T07:40:08Z</time></trkpt><trkpt lat="40.0060782802475" lon="18.05794400610947"><ele>32.0</ele><time>2026-04-05T07:40:09Z</time></trkpt><trkpt lat="40.0063079520799" lon="18.057700590084664"><ele>32.0</ele><time>2026-04-05T07:40:10Z</time></trkpt><trkpt lat="40.00653961044483" lon="18.05745062761467"><ele>32.0</ele><time>2026-04-05T07:40:11Z</time></trkpt><trkpt lat="40.00677088334419" lon="18.05720494068891"><ele>32.0</ele><time>2026-04-05T07:40:12Z</time></trkpt><trkpt lat="40.006998754689356" lon="18.056952282221168"><ele>32.0</ele><time>2026-04-05T07:40:13Z</time></trkpt><trkpt lat="40.007231437498795" lon="18.056702837076067"><ele>32.0</ele><time>2026-04-05T07:40:14Z</time></trkpt><trkpt lat="40.00746607525924" lon="18.056446504172794"><ele>31.5</ele><time>2026-04-05T07:40:15Z</time></trkpt><trkpt lat="40.007702413484246" lon="18.056194316946097"><ele>31.0</ele><time>2026-04-05T07:40:16Z</time></trkpt><trkpt lat="40.00793980969343" lon="18.0559353080964"><ele>30.5</ele><time>2026-04-05T07:40:17Z</time></trkpt><trkpt lat="40.00818079639178" lon="18.055678376991505"><ele>30.0</ele><time>2026-04-05T07:40:18Z</time></trkpt><trkpt lat="40.00842059248458" lon="18.055417630739687"><ele>28.5</ele><time>2026-04-05T07:40:19Z</time></trkpt><trkpt lat="40.0086635188132" lon="18.055154705792123"><ele>27.0</ele><time>2026-04-05T07:40:20Z</time></trkpt><trkpt lat="40.008908591126946" lon="18.054890211637975"><ele>27.0</ele><time>2026-04-05T07:40:21Z</time></trkpt><trkpt lat="40.00915324194393" lon="18.054621737514893"><ele>27.0</ele><time>2026-04-05T07:40:22Z</time></trkpt><trkpt lat="40.009392882344045" lon="18.054363779407353"><ele>25.5</ele><time>2026-04-05T07:40:23Z</time></trkpt><trkpt lat="40.009634916598166" lon="18.05410378532812"><ele>24.0</ele><time>2026-04-05T07:40:24Z</time></trkpt><trkpt lat="40.009877238514974" lon="18.053845177412786"><ele>24.0</ele><time>2026-04-05T07:40:25Z</time></trkpt><trkpt lat="40.010121895033556" lon="18.053580076522273"><ele>24.0</ele><time>2026-04-05T07:40:26Z</time></trkpt><trkpt lat="40.01036427566505" lon="18.053316554691328"><ele>24.0</ele><time>2026-04-05T07:40:27Z</time></trkpt><trkpt lat="40.01060583119345" lon="18.053052447143465"><ele>24.0</ele><time>2026-04-05T07:40:28Z</time></trkpt><trkpt lat="40.01084735498705" lon="18.052789360701563"><ele>24.0</ele><time>2026-04-05T07:40:29Z</time></trkpt><trkpt lat="40.011092200016286" lon="18.052525022874068"><ele>24.0</ele><time>2026-04-05T07:40:30Z</time></trkpt><trkpt lat="40.011336705134035" lon="18.052262541898344"><ele>24.0</ele><time>2026-04-05T07:40:31Z</time></trkpt><trkpt lat="40.01158018167065" lon="18.052000100883756"><ele>24.0</ele><time>2026-04-05T07:40:32Z</time></trkpt><trkpt lat="40.01182223153111" lon="18.051737376703834"><ele>24.5</ele><time>2026-04-05T07:40:33Z</time></trkpt><trkpt lat="40.0120692125686" lon="18.051473682251473"><ele>25.0</ele><time>2026-04-05T07:40:34Z</time></trkpt><trkpt lat="40.012316338107986" lon="18.051206887160113"><ele>24.0</ele><time>2026-04-05T07:40:35Z</time></trkpt><trkpt lat="40.012568985924695" lon="18.050944786024587"><ele>23.0</ele><time>2026-04-05T07:40:36Z</time></trkpt><trkpt lat="40.01280608333996" lon="18.050672866120205"><ele>23.0</ele><time>2026-04-05T07:40:37Z</time></trkpt><trkpt lat="40.01304767111071" lon="18.050401416578797"><ele>23.0</ele><time>2026-04-05T07:40:38Z</time></trkpt><trkpt lat="40.013290394074396" lon="18.05013647459823"><ele>23.0</ele><time>2026-04-05T07:40:39Z</time></trkpt><trkpt lat="40.01353692697564" lon="18.04987142762201"><ele>23.0</ele><time>2026-04-05T07:40:40Z</time></trkpt><trkpt lat="40.01378291290483" lon="18.04960769042473"><ele>23.0</ele><time>2026-04-05T07:40:41Z</time></trkpt><trkpt lat="40.01403140713634" lon="18.049341452406484"><ele>23.0</ele><time>2026-04-05T07:40:42Z</time></trkpt><trkpt lat="40.014281775717016" lon="18.049074742523434"><ele>23.0</ele><time>2026-04-05T07:40:43Z</time></trkpt><trkpt lat="40.01453293093331" lon="18.04880945918677"><ele>23.0</ele><time>2026-04-05T07:40:44Z</time></trkpt><trkpt lat="40.0147790761261" lon="18.0485403133158"><ele>21.5</ele><time>2026-04-05T07:40:45Z</time></trkpt><trkpt lat="40.01502591647938" lon="18.048271859718625"><ele>20.0</ele><time>2026-04-05T07:40:46Z</time></trkpt><trkpt lat="40.01527236231163" lon="18.04799929726598"><ele>20.0</ele><time>2026-04-05T07:40:47Z</time></trkpt><trkpt lat="40.015519180352634" lon="18.04772998618918"><ele>20.0</ele><time>2026-04-05T07:40:48Z</time></trkpt><trkpt lat="40.01577128851668" lon="18.047459201968877"><ele>19.0</ele><time>2026-04-05T07:40:49Z</time></trkpt><trkpt lat="40.01601974737248" lon="18.047184019789764"><ele>18.0</ele><time>2026-04-05T07:40:50Z</time></trkpt><trkpt lat="40.01627064588365" lon="18.046910070195416"><ele>18.0</ele><time>2026-04-05T07:40:51Z</time></trkpt><trkpt lat="40.016522087769104" lon="18.046643455623727"><ele>18.0</ele><time>2026-04-05T07:40:52Z</time></trkpt><trkpt lat="40.01677271924463" lon="18.046371531055456"><ele>16.5</ele><time>2026-04-05T07:40:53Z</time></trkpt><trkpt lat="40.017024189336524" lon="18.046099582401848"><ele>15.0</ele><time>2026-04-05T07:40:54Z</time></trkpt><trkpt lat="40.01727536227161" lon="18.045824823819927"><ele>15.0</ele><time>2026-04-05T07:40:55Z</time></trkpt><trkpt lat="40.01752299441933" lon="18.045553042011143"><ele>15.0</ele><time>2026-04-05T07:40:56Z</time></trkpt><trkpt lat="40.01776940200947" lon="18.045283712271125"><ele>15.0</ele><time>2026-04-05T07:40:57Z</time></trkpt><trkpt lat="40.01802023402158" lon="18.0450098233679"><ele>15.0</ele><time>2026-04-05T07:40:58Z</time></trkpt><trkpt lat="40.01826924470803" lon="18.044741460922157"><ele>14.0</ele><time>2026-04-05T07:40:59Z</time></trkpt><trkpt lat="40.01852225809407" lon="18.044473671454085"><ele>13.0</ele><time>2026-04-05T07:41:00Z</time></trkpt><trkpt lat="40.01876974196391" lon="18.044203704122367"><ele>13.0</ele><time>2026-04-05T07:41:01Z</time></trkpt><trkpt lat="40.01901972297191" lon="18.043931777946852"><ele>13.0</ele><time>2026-04-05T07:41:02Z</time></trkpt><trkpt lat="40.01927227643958" lon="18.043658410688785"><ele>13.0</ele><time>2026-04-05T07:41:03Z</time></trkpt><trkpt lat="40.01951853381848" lon="18.043383902434197"><ele>13.0</ele><time>2026-04-05T07:41:04.001Z</time></trkpt><trkpt lat="40.01976799723238" lon="18.043115245316223"><ele>13.0</ele><time>2026-04-05T07:41:05.001Z</time></trkpt><trkpt lat="40.02001696521734" lon="18.042845365153866"><ele>13.0</ele><time>2026-04-05T07:41:06.001Z</time></trkpt><trkpt lat="40.02026839447188" lon="18.04257295468023"><ele>12.5</ele><time>2026-04-05T07:41:07.001Z</time></trkpt><trkpt lat="40.02051894565525" lon="18.04230275173121"><ele>12.0</ele><time>2026-04-05T07:41:08.001Z</time></trkpt><trkpt lat="40.020773665130974" lon="18.04202828467121"><ele>12.0</ele><time>2026-04-05T07:41:09.001Z</time></trkpt><trkpt lat="40.0210247870329" lon="18.041753473939803"><ele>12.0</ele><time>2026-04-05T07:41:10.001Z</time></trkpt><trkpt lat="40.02127545213207" lon="18.041477281470392"><ele>11.5</ele><time>2026-04-05T07:41:11.001Z</time></trkpt><trkpt lat="40.02152472473776" lon="18.04120022515473"><ele>11.0</ele><time>2026-04-05T07:41:12.001Z</time></trkpt><trkpt lat="40.021775995871316" lon="18.040924130522917"><ele>10.5</ele><time>2026-04-05T07:41:13.001Z</time></trkpt><trkpt lat="40.0220288002955" lon="18.04065054108497"><ele>10.0</ele><time>2026-04-05T07:41:14.001Z</time></trkpt><trkpt lat="40.02227955659546" lon="18.040374730381604"><ele>10.0</ele><time>2026-04-05T07:41:15.001Z</time></trkpt><trkpt lat="40.02252839562471" lon="18.0400975802655"><ele>10.0</ele><time>2026-04-05T07:41:16.001Z</time></trkpt><trkpt lat="40.02278154983939" lon="18.03982695094223"><ele>9.5</ele><time>2026-04-05T07:41:17.001Z</time></trkpt><trkpt lat="40.023033850636935" lon="18.039555540646603"><ele>9.0</ele><time>2026-04-05T07:41:18.001Z</time></trkpt><trkpt lat="40.02328594416117" lon="18.03928128279731"><ele>8.5</ele><time>2026-04-05T07:41:19.001Z</time></trkpt><trkpt lat="40.02354119195059" lon="18.03900909106905"><ele>8.0</ele><time>2026-04-05T07:41:20.001Z</time></trkpt><trkpt lat="40.02379048497537" lon="18.038732134681965"><ele>8.0</ele><time>2026-04-05T07:41:21.001Z</time></trkpt><trkpt lat="40.02404440825526" lon="18.038455203136664"><ele>8.0</ele><time>2026-04-05T07:41:22.001Z</time></trkpt><trkpt lat="40.024298081679575" lon="18.038182349661867"><ele>9.0</ele><time>2026-04-05T07:41:23.001Z</time></trkpt><trkpt lat="40.02455294578974" lon="18.03790249321043"><ele>10.0</ele><time>2026-04-05T07:41:24.001Z</time></trkpt><trkpt lat="40.02480709727104" lon="18.03762382892528"><ele>10.5</ele><time>2026-04-05T07:41:25.001Z</time></trkpt><trkpt lat="40.02506054176637" lon="18.03735031264818"><ele>11.0</ele><time>2026-04-05T07:41:26.001Z</time></trkpt><trkpt lat="40.02531611137481" lon="18.03707236122845"><ele>11.0</ele><time>2026-04-05T07:41:27.001Z</time></trkpt><trkpt lat="40.02557219457862" lon="18.036794614440158"><ele>11.0</ele><time>2026-04-05T07:41:28.001Z</time></trkpt><trkpt lat="40.02582342567251" lon="18.036517714176842"><ele>12.0</ele><time>2026-04-05T07:41:29.001Z</time></trkpt><trkpt lat="40.0260712120682" lon="18.036241703389944"><ele>13.0</ele><time>2026-04-05T07:41:30.001Z</time></trkpt><trkpt lat="40.02631306891345" lon="18.035971539662057"><ele>13.0</ele><time>2026-04-05T07:41:31.001Z</time></trkpt><trkpt lat="40.02655595413804" lon="18.035700804258415"><ele>13.0</ele><time>2026-04-05T07:41:32.001Z</time></trkpt><trkpt lat="40.026791532516405" lon="18.035435097058553"><ele>13.0</ele><time>2026-04-05T07:41:33.001Z</time></trkpt><trkpt lat="40.02702153383229" lon="18.035181087236456"><ele>13.0</ele><time>2026-04-05T07:41:34.001Z</time></trkpt><trkpt lat="40.02725595998252" lon="18.03492519742306"><ele>12.0</ele><time>2026-04-05T07:41:35.001Z</time></trkpt><trkpt lat="40.02749467639882" lon="18.034667081649825"><ele>11.0</ele><time>2026-04-05T07:41:36.001Z</time></trkpt><trkpt lat="40.02773537192766" lon="18.034407238529123"><ele>11.0</ele><time>2026-04-05T07:41:37.001Z</time></trkpt><trkpt lat="40.027979592108906" lon="18.034145322536745"><ele>11.0</ele><time>2026-04-05T07:41:38.001Z</time></trkpt><trkpt lat="40.028223871026626" lon="18.0338791228122"><ele>9.5</ele><time>2026-04-05T07:41:39.001Z</time></trkpt><trkpt lat="40.02846881209286" lon="18.033608865512704"><ele>8.0</ele><time>2026-04-05T07:41:40.001Z</time></trkpt><trkpt lat="40.028713204492625" lon="18.03333618485746"><ele>7.0</ele><time>2026-04-05T07:41:41.001Z</time></trkpt><trkpt lat="40.02896932480393" lon="18.03306202048614"><ele>6.0</ele><time>2026-04-05T07:41:42.001Z</time></trkpt><trkpt lat="40.02921980029543" lon="18.032785097397586"><ele>6.0</ele><time>2026-04-05T07:41:43.001Z</time></trkpt><trkpt lat="40.029472138484856" lon="18.032507530379476"><ele>6.0</ele><time>2026-04-05T07:41:44.001Z</time></trkpt><trkpt lat="40.02972155171748" lon="18.032229021862783"><ele>5.5</ele><time>2026-04-05T07:41:45.001Z</time></trkpt><trkpt lat="40.029972930086245" lon="18.031958979032016"><ele>5.0</ele><time>2026-04-05T07:41:46.001Z</time></trkpt><trkpt lat="40.03021359691679" lon="18.03169998100301"><ele>5.0</ele><time>2026-04-05T07:41:47.001Z</time></trkpt><trkpt lat="40.03044246696539" lon="18.03145301792606"><ele>5.0</ele><time>2026-04-05T07:41:48.001Z</time></trkpt><trkpt lat="40.03066904021399" lon="18.031212368965555"><ele>5.0</ele><time>2026-04-05T07:41:49.001Z</time></trkpt><trkpt lat="40.03088893187348" lon="18.03097162257566"><ele>5.0</ele><time>2026-04-05T07:41:50.001Z</time></trkpt><trkpt lat="40.0311050848402" lon="18.030732215730026"><ele>5.0</ele><time>2026-04-05T07:41:51.001Z</time></trkpt><trkpt lat="40.031325692687425" lon="18.030492769237327"><ele>5.0</ele><time>2026-04-05T07:41:52.001Z</time></trkpt><trkpt lat="40.031545645875944" lon="18.030252383992778"><ele>5.0</ele><time>2026-04-05T07:41:53.001Z</time></trkpt><trkpt lat="40.03176692293581" lon="18.030012609130164"><ele>5.0</ele><time>2026-04-05T07:41:54.001Z</time></trkpt><trkpt lat="40.031996322616436" lon="18.029770470840504"><ele>4.5</ele><time>2026-04-05T07:41:55.001Z</time></trkpt><trkpt lat="40.03222255824739" lon="18.02952230136333"><ele>4.0</ele><time>2026-04-05T07:41:56.001Z</time></trkpt><trkpt lat="40.03244962270145" lon="18.029266597347792"><ele>2.5</ele><time>2026-04-05T07:41:57.001Z</time></trkpt><trkpt lat="40.03267956930717" lon="18.029019671425875"><ele>1.0</ele><time>2026-04-05T07:41:58.001Z</time></trkpt><trkpt lat="40.03291734444864" lon="18.0287681530787"><ele>1.0</ele><time>2026-04-05T07:41:59.001Z</time></trkpt><trkpt lat="40.03316188057619" lon="18.028509240927917"><ele>1.0</ele><time>2026-04-05T07:42:00.001Z</time></trkpt><trkpt lat="40.033407432916505" lon="18.028246462157114"><ele>1.5</ele><time>2026-04-05T07:42:01.001Z</time></trkpt><trkpt lat="40.033653865304395" lon="18.027980856042042"><ele>2.0</ele><time>2026-04-05T07:42:02Z</time></trkpt><trkpt lat="40.03389671920728" lon="18.02770905574726"><ele>1.5</ele><time>2026-04-05T07:42:03Z</time></trkpt><trkpt lat="40.034140081582" lon="18.027429301476534"><ele>1.0</ele><time>2026-04-05T07:42:04Z</time></trkpt><trkpt lat="40.034389849368885" lon="18.027155891156944"><ele>1.0</ele><time>2026-04-05T07:42:05Z</time></trkpt><trkpt lat="40.034646872610196" lon="18.026881514633"><ele>1.0</ele><time>2026-04-05T07:42:06Z</time></trkpt><trkpt lat="40.034903689799016" lon="18.02660664967585"><ele>1.5</ele><time>2026-04-05T07:42:07Z</time></trkpt><trkpt lat="40.03516121699099" lon="18.02632640473881"><ele>2.0</ele><time>2026-04-05T07:42:08Z</time></trkpt><trkpt lat="40.03541574476199" lon="18.0260495507844"><ele>2.0</ele><time>2026-04-05T07:42:09Z</time></trkpt><trkpt lat="40.035668175568254" lon="18.025776533483636"><ele>2.0</ele><time>2026-04-05T07:42:10Z</time></trkpt><trkpt lat="40.03591467099484" lon="18.02550810741553"><ele>1.5</ele><time>2026-04-05T07:42:11Z</time></trkpt><trkpt lat="40.036142071626564" lon="18.025256427213222"><ele>1.0</ele><time>2026-04-05T07:42:12Z</time></trkpt><trkpt lat="40.036359689905666" lon="18.02502451030793"><ele>1.0</ele><time>2026-04-05T07:42:13Z</time></trkpt><trkpt lat="40.036571435329336" lon="18.02480282339067"><ele>1.0</ele><time>2026-04-05T07:42:14Z</time></trkpt><trkpt lat="40.0367820086627" lon="18.02458211716689"><ele>1.5</ele><time>2026-04-05T07:42:15Z</time></trkpt><trkpt lat="40.03698352374948" lon="18.024367574734576"><ele>2.0</ele><time>2026-04-05T07:42:16Z</time></trkpt><trkpt lat="40.03718355210575" lon="18.02415791699936"><ele>1.5</ele><time>2026-04-05T07:42:17Z</time></trkpt><trkpt lat="40.037378710277956" lon="18.023953543481305"><ele>1.0</ele><time>2026-04-05T07:42:18Z</time></trkpt><trkpt lat="40.037554780517176" lon="18.023759537293472"><ele>1.0</ele><time>2026-04-05T07:42:19Z</time></trkpt><trkpt lat="40.03772319033821" lon="18.02357561945196"><ele>1.0</ele><time>2026-04-05T07:42:20Z</time></trkpt><trkpt lat="40.03789145371672" lon="18.023394284559892"><ele>1.0</ele><time>2026-04-05T07:42:21Z</time></trkpt><trkpt lat="40.03805699810887" lon="18.02321632358485"><ele>1.0</ele><time>2026-04-05T07:42:22Z</time></trkpt><trkpt lat="40.03821690357907" lon="18.023037529203428"><ele>1.0</ele><time>2026-04-05T07:42:23Z</time></trkpt><trkpt lat="40.038379167648735" lon="18.022863043759735"><ele>1.0</ele><time>2026-04-05T07:42:24Z</time></trkpt><trkpt lat="40.038540746085964" lon="18.02269155498058"><ele>1.0</ele><time>2026-04-05T07:42:25Z</time></trkpt><trkpt lat="40.03869427235609" lon="18.02254041060389"><ele>1.0</ele><time>2026-04-05T07:42:26Z</time></trkpt><trkpt lat="40.038843891327716" lon="18.02239347910689"><ele>1.0</ele><time>2026-04-05T07:42:27Z</time></trkpt><trkpt lat="40.038985703629514" lon="18.022248560829922"><ele>1.0</ele><time>2026-04-05T07:42:28Z</time></trkpt><trkpt lat="40.03913253377325" lon="18.022096131383478"><ele>1.0</ele><time>2026-04-05T07:42:29Z</time></trkpt><trkpt lat="40.0392832600773" lon="18.021950359349347"><ele>1.0</ele><time>2026-04-05T07:42:30Z</time></trkpt><trkpt lat="40.03944403504239" lon="18.021816554980976"><ele>1.0</ele><time>2026-04-05T07:42:31Z</time></trkpt><trkpt lat="40.03961457296619" lon="18.021682422806986"><ele>1.0</ele><time>2026-04-05T07:42:32Z</time></trkpt><trkpt lat="40.03979223183746" lon="18.021555604471"><ele>1.0</ele><time>2026-04-05T07:42:33Z</time></trkpt><trkpt lat="40.03997377954934" lon="18.02144218907239"><ele>1.0</ele><time>2026-04-05T07:42:34Z</time></trkpt><trkpt lat="40.040162874313445" lon="18.021333191527262"><ele>1.0</ele><time>2026-04-05T07:42:35Z</time></trkpt><trkpt lat="40.04035046634989" lon="18.02123917551468"><ele>1.0</ele><time>2026-04-05T07:42:36Z</time></trkpt><trkpt lat="40.040538517915" lon="18.021150128902416"><ele>1.0</ele><time>2026-04-05T07:42:37Z</time></trkpt><trkpt lat="40.04072495315251" lon="18.02108352331538"><ele>1.0</ele><time>2026-04-05T07:42:38Z</time></trkpt><trkpt lat="40.04091808402212" lon="18.02102968839496"><ele>1.0</ele><time>2026-04-05T07:42:39Z</time></trkpt><trkpt lat="40.04111264389582" lon="18.020987475775446"><ele>1.6666666666666665</ele><time>2026-04-05T07:42:40Z</time></trkpt><trkpt lat="40.04130775931634" lon="18.020949890446293"><ele>2.3333333333333335</ele><time>2026-04-05T07:42:41Z</time></trkpt><trkpt lat="40.04151038000559" lon="18.020933029271923"><ele>3.0</ele><time>2026-04-05T07:42:42Z</time></trkpt><trkpt lat="40.041710138661486" lon="18.020912768458274"><ele>3.666666666666667</ele><time>2026-04-05T07:42:43Z</time></trkpt><trkpt lat="40.04191119750113" lon="18.020896554908852"><ele>4.333333333333334</ele><time>2026-04-05T07:42:44Z</time></trkpt><trkpt lat="40.042109442727664" lon="18.020889526769526"><ele>5.0</ele><time>2026-04-05T07:42:45Z</time></trkpt><trkpt lat="40.042289064911486" lon="18.020876354330607"><ele>5.0</ele><time>2026-04-05T07:42:46Z</time></trkpt><trkpt lat="40.042469340026486" lon="18.020869454260232"><ele>5.0</ele><time>2026-04-05T07:42:47Z</time></trkpt><trkpt lat="40.042635972592144" lon="18.020865451485122"><ele>5.0</ele><time>2026-04-05T07:42:48Z</time></trkpt><trkpt lat="40.04277230304741" lon="18.020772467215206"><ele>5.333333333333334</ele><time>2026-04-05T07:42:49Z</time></trkpt><trkpt lat="40.04291601352898" lon="18.020687258683182"><ele>5.666666666666667</ele><time>2026-04-05T07:42:50Z</time></trkpt><trkpt lat="40.04306851936759" lon="18.020596835223866"><ele>6.0</ele><time>2026-04-05T07:42:51Z</time></trkpt><trkpt lat="40.04330011877237" lon="18.020720792458402"><ele>7.0</ele><time>2026-04-05T07:42:52Z</time></trkpt><trkpt lat="40.04345611051287" lon="18.020632644487662"><ele>8.0</ele><time>2026-04-05T07:42:53Z</time></trkpt><trkpt lat="40.0435937007789" lon="18.02053365074615"><ele>9.0</ele><time>2026-04-05T07:42:54Z</time></trkpt><trkpt lat="40.04372996741354" lon="18.02042293157199"><ele>9.0</ele><time>2026-04-05T07:42:55Z</time></trkpt><trkpt lat="40.04385552161461" lon="18.02030168939262"><ele>9.0</ele><time>2026-04-05T07:42:56Z</time></trkpt><trkpt lat="40.043965986023736" lon="18.0201689003398"><ele>9.0</ele><time>2026-04-05T07:42:57Z</time></trkpt><trkpt lat="40.044070872914844" lon="18.020018914022188"><ele>9.0</ele><time>2026-04-05T07:42:58Z</time></trkpt><trkpt lat="40.04416499246195" lon="18.01984538564748"><ele>9.0</ele><time>2026-04-05T07:42:59Z</time></trkpt><trkpt lat="40.044251851116975" lon="18.01966380368874"><ele>9.0</ele><time>2026-04-05T07:43:00Z</time></trkpt><trkpt lat="40.04433120250807" lon="18.019473933505857"><ele>9.0</ele><time>2026-04-05T07:43:01Z</time></trkpt><trkpt lat="40.04439826512252" lon="18.01927190634554"><ele>9.0</ele><time>2026-04-05T07:43:02Z</time></trkpt><trkpt lat="40.04444753979552" lon="18.01906651155779"><ele>9.0</ele><time>2026-04-05T07:43:03Z</time></trkpt><trkpt lat="40.04447067498539" lon="18.018855594704657"><ele>8.0</ele><time>2026-04-05T07:43:04Z</time></trkpt><trkpt lat="40.04449564626512" lon="18.01864195235749"><ele>7.0</ele><time>2026-04-05T07:43:05Z</time></trkpt><trkpt lat="40.04449784952383" lon="18.01842241845571"><ele>6.0</ele><time>2026-04-05T07:43:06Z</time></trkpt><trkpt lat="40.04448145733925" lon="18.018189311260496"><ele>5.666666666666667</ele><time>2026-04-05T07:43:07Z</time></trkpt><trkpt lat="40.044453158384734" lon="18.017953658085688"><ele>5.333333333333334</ele><time>2026-04-05T07:43:08Z</time></trkpt><trkpt lat="40.044422616301304" lon="18.017732348859603"><ele>5.0</ele><time>2026-04-05T07:43:09Z</time></trkpt><trkpt lat="40.04439723648416" lon="18.017521164654802"><ele>4.75</ele><time>2026-04-05T07:43:10.001Z</time></trkpt><trkpt lat="40.044375177315466" lon="18.01732692029196"><ele>4.5</ele><time>2026-04-05T07:43:11.001Z</time></trkpt><trkpt lat="40.044349473065786" lon="18.017155889312125"><ele>4.25</ele><time>2026-04-05T07:43:12.001Z</time></trkpt><trkpt lat="40.044336087757344" lon="18.017008217790952"><ele>4.0</ele><time>2026-04-05T07:43:13.001Z</time></trkpt><trkpt lat="40.04433005827291" lon="18.016876108600247"><ele>4.0</ele><time>2026-04-05T07:43:14.001Z</time></trkpt><trkpt lat="40.04433664130086" lon="18.016748164606117"><ele>4.0</ele><time>2026-04-05T07:43:15.001Z</time></trkpt><trkpt lat="40.044349064913625" lon="18.01661360448699"><ele>4.0</ele><time>2026-04-05T07:43:16.001Z</time></trkpt><trkpt lat="40.04436239702395" lon="18.01647029302659"><ele>4.0</ele><time>2026-04-05T07:43:17.001Z</time></trkpt><trkpt lat="40.044394479800076" lon="18.016327642656982"><ele>4.0</ele><time>2026-04-05T07:43:18.001Z</time></trkpt><trkpt lat="40.04445735338386" lon="18.01619350455058"><ele>4.0</ele><time>2026-04-05T07:43:19.001Z</time></trkpt><trkpt lat="40.044551172843114" lon="18.016072138898796"><ele>4.0</ele><time>2026-04-05T07:43:20.001Z</time></trkpt><trkpt lat="40.04465792008894" lon="18.015951028012413"><ele>4.0</ele><time>2026-04-05T07:43:21.001Z</time></trkpt><trkpt lat="40.044780658729216" lon="18.015837905070725"><ele>4.0</ele><time>2026-04-05T07:43:22.001Z</time></trkpt><trkpt lat="40.044891570954114" lon="18.01572415538152"><ele>3.75</ele><time>2026-04-05T07:43:23.001Z</time></trkpt><trkpt lat="40.04500083770708" lon="18.015606118817058"><ele>3.5</ele><time>2026-04-05T07:43:24.001Z</time></trkpt><trkpt lat="40.04511237179625" lon="18.015481294893075"><ele>3.25</ele><time>2026-04-05T07:43:25.001Z</time></trkpt><trkpt lat="40.04522924222975" lon="18.015351157789365"><ele>3.0</ele><time>2026-04-05T07:43:26.001Z</time></trkpt><trkpt lat="40.04535674292117" lon="18.015218183362148"><ele>3.0</ele><time>2026-04-05T07:43:27.001Z</time></trkpt><trkpt lat="40.04547425104602" lon="18.01508964612395"><ele>3.0</ele><time>2026-04-05T07:43:28.001Z</time></trkpt><trkpt lat="40.04559311568407" lon="18.014957920350778"><ele>3.0</ele><time>2026-04-05T07:43:29.001Z</time></trkpt><trkpt lat="40.04571190286266" lon="18.01482683964123"><ele>3.0</ele><time>2026-04-05T07:43:30.001Z</time></trkpt><trkpt lat="40.045825844680984" lon="18.014700354411435"><ele>3.0</ele><time>2026-04-05T07:43:31.001Z</time></trkpt><trkpt lat="40.045939914634225" lon="18.014581532028927"><ele>3.0</ele><time>2026-04-05T07:43:32.001Z</time></trkpt><trkpt lat="40.046047248722246" lon="18.014460810786325"><ele>3.0</ele><time>2026-04-05T07:43:33.001Z</time></trkpt><trkpt lat="40.04615178104831" lon="18.01434686476355"><ele>3.0</ele><time>2026-04-05T07:43:34.001Z</time></trkpt><trkpt lat="40.04625121493743" lon="18.014236121883904"><ele>3.0</ele><time>2026-04-05T07:43:35.001Z</time></trkpt><trkpt lat="40.04634349181555" lon="18.014139334396347"><ele>3.0</ele><time>2026-04-05T07:43:36.001Z</time></trkpt><trkpt lat="40.04642968277062" lon="18.014045593596787"><ele>3.0</ele><time>2026-04-05T07:43:37.001Z</time></trkpt><trkpt lat="40.04650913246016" lon="18.013959875592363"><ele>3.0</ele><time>2026-04-05T07:43:38.001Z</time></trkpt><trkpt lat="40.04657977116767" lon="18.013887387282573"><ele>3.0</ele><time>2026-04-05T07:43:39.001Z</time></trkpt><trkpt lat="40.04664265976501" lon="18.01381856324289"><ele>3.0</ele><time>2026-04-05T07:43:40.001Z</time></trkpt><trkpt lat="40.04669930582543" lon="18.01375287649868"><ele>3.0</ele><time>2026-04-05T07:43:41.001Z</time></trkpt><trkpt lat="40.04677196570135" lon="18.01366500087906"><ele>3.0</ele><time>2026-04-05T07:43:43.001Z</time></trkpt><trkpt lat="40.04686376974364" lon="18.013577153693593"><ele>3.0</ele><time>2026-04-05T07:44:15Z</time></trkpt><trkpt lat="40.04694687379022" lon="18.013475384875957"><ele>3.0</ele><time>2026-04-05T07:44:17Z</time></trkpt><trkpt lat="40.04699935808932" lon="18.013416999604722"><ele>3.0</ele><time>2026-04-05T07:44:18Z</time></trkpt><trkpt lat="40.04706554708892" lon="18.013345093969704"><ele>3.0</ele><time>2026-04-05T07:44:19Z</time></trkpt><trkpt lat="40.047140061767536" lon="18.013268554016218"><ele>3.0</ele><time>2026-04-05T07:44:20Z</time></trkpt><trkpt lat="40.04721181230203" lon="18.01319060542768"><ele>3.0</ele><time>2026-04-05T07:44:21Z</time></trkpt><trkpt lat="40.04729005537384" lon="18.013103446487772"><ele>3.0</ele><time>2026-04-05T07:44:22Z</time></trkpt><trkpt lat="40.04737004225564" lon="18.013011736080646"><ele>3.0</ele><time>2026-04-05T07:44:23Z</time></trkpt><trkpt lat="40.04745208629691" lon="18.01291437086945"><ele>3.0</ele><time>2026-04-05T07:44:24Z</time></trkpt><trkpt lat="40.047552902833516" lon="18.01282461610973"><ele>3.0</ele><time>2026-04-05T07:44:25Z</time></trkpt><trkpt lat="40.04765080081289" lon="18.012713782630446"><ele>3.0</ele><time>2026-04-05T07:44:26Z</time></trkpt><trkpt lat="40.04775056178005" lon="18.0126036162803"><ele>3.0</ele><time>2026-04-05T07:44:27Z</time></trkpt><trkpt lat="40.04784828642092" lon="18.01249260782402"><ele>3.0</ele><time>2026-04-05T07:44:28Z</time></trkpt><trkpt lat="40.047947094913404" lon="18.01238107097978"><ele>3.0</ele><time>2026-04-05T07:44:29Z</time></trkpt><trkpt lat="40.04806011377895" lon="18.012281650948374"><ele>3.0</ele><time>2026-04-05T07:44:30Z</time></trkpt><trkpt lat="40.0481622669042" lon="18.01216751502081"><ele>3.0</ele><time>2026-04-05T07:44:31Z</time></trkpt><trkpt lat="40.048264723315036" lon="18.012052332027814"><ele>3.0</ele><time>2026-04-05T07:44:32Z</time></trkpt><trkpt lat="40.04836667688155" lon="18.01193546755172"><ele>3.0</ele><time>2026-04-05T07:44:33Z</time></trkpt><trkpt lat="40.04847079484709" lon="18.01183109422088"><ele>3.75</ele><time>2026-04-05T07:44:34Z</time></trkpt><trkpt lat="40.04855153110845" lon="18.011738411866748"><ele>4.5</ele><time>2026-04-05T07:44:35Z</time></trkpt><trkpt lat="40.048642070014694" lon="18.011639635538952"><ele>5.25</ele><time>2026-04-05T07:44:36Z</time></trkpt><trkpt lat="40.04872881887376" lon="18.011553982866097"><ele>6.0</ele><time>2026-04-05T07:44:37Z</time></trkpt><trkpt lat="40.04881280682029" lon="18.011442660408903"><ele>6.0</ele><time>2026-04-05T07:44:38Z</time></trkpt><trkpt lat="40.04890738545043" lon="18.0113281099484"><ele>6.0</ele><time>2026-04-05T07:44:39Z</time></trkpt><trkpt lat="40.0490014004826" lon="18.011204959298457"><ele>6.0</ele><time>2026-04-05T07:44:40Z</time></trkpt><trkpt lat="40.049098362713075" lon="18.011083516675647"><ele>6.0</ele><time>2026-04-05T07:44:41Z</time></trkpt><trkpt lat="40.04918760736098" lon="18.01095923722075"><ele>6.0</ele><time>2026-04-05T07:44:42Z</time></trkpt><trkpt lat="40.049266842976685" lon="18.010818173787197"><ele>6.0</ele><time>2026-04-05T07:44:43Z</time></trkpt><trkpt lat="40.04934081738236" lon="18.010665133296133"><ele>6.0</ele><time>2026-04-05T07:44:44Z</time></trkpt><trkpt lat="40.04940548794477" lon="18.010492718870967"><ele>6.0</ele><time>2026-04-05T07:44:45Z</time></trkpt><trkpt lat="40.04947020205778" lon="18.010314213806534"><ele>6.0</ele><time>2026-04-05T07:44:46Z</time></trkpt><trkpt lat="40.0495205624208" lon="18.010144586739656"><ele>6.0</ele><time>2026-04-05T07:44:47Z</time></trkpt><trkpt lat="40.04955544262049" lon="18.009963260450295"><ele>6.0</ele><time>2026-04-05T07:44:48Z</time></trkpt><trkpt lat="40.0496026325804" lon="18.009778973432997"><ele>6.0</ele><time>2026-04-05T07:44:49Z</time></trkpt><trkpt lat="40.0496501864186" lon="18.00958840462967"><ele>6.0</ele><time>2026-04-05T07:44:50Z</time></trkpt><trkpt lat="40.04969988717337" lon="18.009402332816986"><ele>6.0</ele><time>2026-04-05T07:44:51Z</time></trkpt><trkpt lat="40.04974402001249" lon="18.00922617865769"><ele>6.0</ele><time>2026-04-05T07:44:52Z</time></trkpt><trkpt lat="40.04980133372923" lon="18.009068540922673"><ele>6.0</ele><time>2026-04-05T07:44:53Z</time></trkpt><trkpt lat="40.049845129337896" lon="18.00889854129019"><ele>6.0</ele><time>2026-04-05T07:44:54Z</time></trkpt><trkpt lat="40.04988719044304" lon="18.0087352743256"><ele>6.0</ele><time>2026-04-05T07:44:55Z</time></trkpt><trkpt lat="40.04992870226964" lon="18.008574139513154"><ele>6.0</ele><time>2026-04-05T07:44:56Z</time></trkpt><trkpt lat="40.04997075566528" lon="18.00841090252595"><ele>6.0</ele><time>2026-04-05T07:44:57Z</time></trkpt><trkpt lat="40.050013069589596" lon="18.008246654259967"><ele>6.6</ele><time>2026-04-05T07:44:58Z</time></trkpt><trkpt lat="40.05005504270789" lon="18.008083728885815"><ele>7.199999999999999</ele><time>2026-04-05T07:44:59Z</time></trkpt><trkpt lat="40.05009360773125" lon="18.00793403249988"><ele>7.800000000000001</ele><time>2026-04-05T07:45:00Z</time></trkpt><trkpt lat="40.05012700190163" lon="18.007804407754183"><ele>8.4</ele><time>2026-04-05T07:45:01Z</time></trkpt><trkpt lat="40.05015878798305" lon="18.00769122967191"><ele>9.0</ele><time>2026-04-05T07:45:02Z</time></trkpt><trkpt lat="40.0501884163235" lon="18.007562129005432"><ele>8.4</ele><time>2026-04-05T07:45:03Z</time></trkpt><trkpt lat="40.05022094220586" lon="18.00742563704899"><ele>7.800000000000001</ele><time>2026-04-05T07:45:04.001Z</time></trkpt><trkpt lat="40.05025782578926" lon="18.00728783146965"><ele>7.199999999999999</ele><time>2026-04-05T07:45:05.001Z</time></trkpt><trkpt lat="40.05028911451827" lon="18.007144439815907"><ele>6.6</ele><time>2026-04-05T07:45:06.001Z</time></trkpt><trkpt lat="40.0503203479702" lon="18.00701008821055"><ele>6.0</ele><time>2026-04-05T07:45:07.001Z</time></trkpt><trkpt lat="40.05035019470671" lon="18.00689168498118"><ele>6.0</ele><time>2026-04-05T07:45:08.001Z</time></trkpt><trkpt lat="40.0503907014068" lon="18.00678531762943"><ele>6.0</ele><time>2026-04-05T07:45:09.001Z</time></trkpt><trkpt lat="40.050413785659046" lon="18.00670170286477"><ele>6.0</ele><time>2026-04-05T07:45:10.001Z</time></trkpt><trkpt lat="40.050432714364895" lon="18.006606749252892"><ele>6.0</ele><time>2026-04-05T07:45:11.001Z</time></trkpt><trkpt lat="40.05045943512241" lon="18.006498129267918"><ele>6.0</ele><time>2026-04-05T07:45:12.001Z</time></trkpt><trkpt lat="40.050484723688754" lon="18.006368651063493"><ele>6.0</ele><time>2026-04-05T07:45:13.001Z</time></trkpt><trkpt lat="40.050517530510724" lon="18.006238651678377"><ele>5.75</ele><time>2026-04-05T07:45:14.001Z</time></trkpt><trkpt lat="40.05056654585897" lon="18.00610216770202"><ele>5.5</ele><time>2026-04-05T07:45:15.001Z</time></trkpt><trkpt lat="40.05060232709504" lon="18.00593037093387"><ele>5.25</ele><time>2026-04-05T07:45:16.001Z</time></trkpt><trkpt lat="40.05064016039707" lon="18.005756282648395"><ele>5.0</ele><time>2026-04-05T07:45:17.001Z</time></trkpt><trkpt lat="40.050698240446216" lon="18.005594106406754"><ele>4.75</ele><time>2026-04-05T07:45:18.001Z</time></trkpt><trkpt lat="40.05073892418703" lon="18.005409351975754"><ele>4.5</ele><time>2026-04-05T07:45:19.001Z</time></trkpt><trkpt lat="40.05078423716006" lon="18.00522550040073"><ele>4.25</ele><time>2026-04-05T07:45:20.001Z</time></trkpt><trkpt lat="40.05083243531999" lon="18.005045672994367"><ele>4.0</ele><time>2026-04-05T07:45:21.001Z</time></trkpt><trkpt lat="40.05087859213477" lon="18.004862929808912"><ele>4.75</ele><time>2026-04-05T07:45:22.001Z</time></trkpt><trkpt lat="40.05094079396456" lon="18.00469913773971"><ele>5.5</ele><time>2026-04-05T07:45:23.001Z</time></trkpt><trkpt lat="40.05098361967615" lon="18.004515224104257"><ele>6.25</ele><time>2026-04-05T07:45:24.001Z</time></trkpt><trkpt lat="40.05102862377095" lon="18.004328569872396"><ele>7.0</ele><time>2026-04-05T07:45:25.001Z</time></trkpt><trkpt lat="40.05107085201346" lon="18.004139561693105"><ele>7.25</ele><time>2026-04-05T07:45:26.001Z</time></trkpt><trkpt lat="40.05111707606103" lon="18.003954482797944"><ele>7.5</ele><time>2026-04-05T07:45:27.001Z</time></trkpt><trkpt lat="40.05116236090671" lon="18.003769679343943"><ele>7.75</ele><time>2026-04-05T07:45:28.001Z</time></trkpt><trkpt lat="40.051209692150074" lon="18.003582029412662"><ele>8.0</ele><time>2026-04-05T07:45:29.001Z</time></trkpt><trkpt lat="40.05125827236191" lon="18.003387466892573"><ele>8.333333333333332</ele><time>2026-04-05T07:45:30.001Z</time></trkpt><trkpt lat="40.051308848245625" lon="18.003188439361704"><ele>8.666666666666666</ele><time>2026-04-05T07:45:31.001Z</time></trkpt><trkpt lat="40.05136265763676" lon="18.002983887261642"><ele>9.0</ele><time>2026-04-05T07:45:32.001Z</time></trkpt><trkpt lat="40.05142088737963" lon="18.002780893651163"><ele>9.0</ele><time>2026-04-05T07:45:33.001Z</time></trkpt><trkpt lat="40.05147023971882" lon="18.00256764052743"><ele>9.0</ele><time>2026-04-05T07:45:34.001Z</time></trkpt><trkpt lat="40.05152332448704" lon="18.002360784607575"><ele>9.0</ele><time>2026-04-05T07:45:35.001Z</time></trkpt><trkpt lat="40.051579742209555" lon="18.002156041831405"><ele>10.0</ele><time>2026-04-05T07:45:36.001Z</time></trkpt><trkpt lat="40.051631479545875" lon="18.001960344283635"><ele>11.0</ele><time>2026-04-05T07:45:37.001Z</time></trkpt><trkpt lat="40.05168472195731" lon="18.001774766062386"><ele>12.0</ele><time>2026-04-05T07:45:38.001Z</time></trkpt><trkpt lat="40.05173541107266" lon="18.001592249343975"><ele>12.0</ele><time>2026-04-05T07:45:39.001Z</time></trkpt><trkpt lat="40.05178407474339" lon="18.00139147874622"><ele>12.0</ele><time>2026-04-05T07:45:40.001Z</time></trkpt><trkpt lat="40.051830964853536" lon="18.001187539239968"><ele>12.0</ele><time>2026-04-05T07:45:41.001Z</time></trkpt><trkpt lat="40.051886611366776" lon="18.00098986306643"><ele>12.0</ele><time>2026-04-05T07:45:42.001Z</time></trkpt><trkpt lat="40.05193538216892" lon="18.000794936336085"><ele>12.0</ele><time>2026-04-05T07:45:43.001Z</time></trkpt><trkpt lat="40.051994322526085" lon="18.000595549147704"><ele>12.0</ele><time>2026-04-05T07:45:44.001Z</time></trkpt><trkpt lat="40.052045382152635" lon="18.000397635130195"><ele>12.0</ele><time>2026-04-05T07:45:45.001Z</time></trkpt><trkpt lat="40.05209683983261" lon="18.000198177701314"><ele>12.0</ele><time>2026-04-05T07:45:46.001Z</time></trkpt><trkpt lat="40.05214960123511" lon="17.999993666864217"><ele>12.0</ele><time>2026-04-05T07:45:47.001Z</time></trkpt><trkpt lat="40.05220174953858" lon="17.99979526058041"><ele>12.0</ele><time>2026-04-05T07:45:48.001Z</time></trkpt><trkpt lat="40.0522516245956" lon="17.99960574203341"><ele>12.0</ele><time>2026-04-05T07:45:49.001Z</time></trkpt><trkpt lat="40.05230519256889" lon="17.999402380130434"><ele>12.0</ele><time>2026-04-05T07:45:50.001Z</time></trkpt><trkpt lat="40.0523580078473" lon="17.999203939569778"><ele>12.0</ele><time>2026-04-05T07:45:51.001Z</time></trkpt><trkpt lat="40.05241710896948" lon="17.999015840410415"><ele>12.0</ele><time>2026-04-05T07:45:52.001Z</time></trkpt><trkpt lat="40.052481398447796" lon="17.998838251772113"><ele>12.0</ele><time>2026-04-05T07:45:53.001Z</time></trkpt><trkpt lat="40.05255304200701" lon="17.99866669617953"><ele>12.25</ele><time>2026-04-05T07:45:54.001Z</time></trkpt><trkpt lat="40.052633814041904" lon="17.998508442458714"><ele>12.5</ele><time>2026-04-05T07:45:55.001Z</time></trkpt><trkpt lat="40.052723055294" lon="17.998360187811883"><ele>12.75</ele><time>2026-04-05T07:45:56.001Z</time></trkpt><trkpt lat="40.052807390360094" lon="17.998199868102578"><ele>13.0</ele><time>2026-04-05T07:45:57.001Z</time></trkpt><trkpt lat="40.05291030952314" lon="17.99806113165672"><ele>13.0</ele><time>2026-04-05T07:45:58.001Z</time></trkpt><trkpt lat="40.05303536210559" lon="17.99794856989539"><ele>13.0</ele><time>2026-04-05T07:45:59.001Z</time></trkpt><trkpt lat="40.05315773299719" lon="17.997825586750178"><ele>13.0</ele><time>2026-04-05T07:46:00.001Z</time></trkpt><trkpt lat="40.05328576560987" lon="17.99771742143718"><ele>13.75</ele><time>2026-04-05T07:46:01.001Z</time></trkpt><trkpt lat="40.05341370796193" lon="17.997615563342766"><ele>14.5</ele><time>2026-04-05T07:46:02.001Z</time></trkpt><trkpt lat="40.05353534453929" lon="17.997520313882298"><ele>15.25</ele><time>2026-04-05T07:46:03.001Z</time></trkpt><trkpt lat="40.053644009906826" lon="17.997435221762007"><ele>16.0</ele><time>2026-04-05T07:46:04.001Z</time></trkpt><trkpt lat="40.05375934531033" lon="17.997344849988384"><ele>16.0</ele><time>2026-04-05T07:46:05.001Z</time></trkpt><trkpt lat="40.05388116597241" lon="17.997249368955995"><ele>16.0</ele><time>2026-04-05T07:46:06.001Z</time></trkpt><trkpt lat="40.05400145847075" lon="17.997155085641715"><ele>16.0</ele><time>2026-04-05T07:46:07.001Z</time></trkpt><trkpt lat="40.05411250703393" lon="17.99706804756052"><ele>16.0</ele><time>2026-04-05T07:46:08.001Z</time></trkpt><trkpt lat="40.05421495370064" lon="17.996987751542886"><ele>16.2</ele><time>2026-04-05T07:46:09.001Z</time></trkpt><trkpt lat="40.05431159754854" lon="17.99691218997149"><ele>16.400000000000002</ele><time>2026-04-05T07:46:10.001Z</time></trkpt><trkpt lat="40.05440480145713" lon="17.996839421969547"><ele>16.6</ele><time>2026-04-05T07:46:11.001Z</time></trkpt><trkpt lat="40.05449627512465" lon="17.99676767050749"><ele>16.8</ele><time>2026-04-05T07:46:12.001Z</time></trkpt><trkpt lat="40.0545741130172" lon="17.996706480183356"><ele>17.0</ele><time>2026-04-05T07:46:13.001Z</time></trkpt><trkpt lat="40.054644795065606" lon="17.996650915264155"><ele>16.25</ele><time>2026-04-05T07:46:14Z</time></trkpt><trkpt lat="40.05472202101825" lon="17.996566458409674"><ele>15.5</ele><time>2026-04-05T07:46:15Z</time></trkpt><trkpt lat="40.05483850444111" lon="17.99649811428007"><ele>14.75</ele><time>2026-04-05T07:46:16Z</time></trkpt><trkpt lat="40.05495663122871" lon="17.996405372826434"><ele>14.0</ele><time>2026-04-05T07:46:17Z</time></trkpt><trkpt lat="40.055079763348466" lon="17.996285127300823"><ele>13.799999999999999</ele><time>2026-04-05T07:46:18Z</time></trkpt><trkpt lat="40.05519023606977" lon="17.996197697644106"><ele>13.599999999999998</ele><time>2026-04-05T07:46:19Z</time></trkpt><trkpt lat="40.05529022925581" lon="17.99611946554674"><ele>13.4</ele><time>2026-04-05T07:46:20Z</time></trkpt><trkpt lat="40.05538636241519" lon="17.996064238509764"><ele>13.2</ele><time>2026-04-05T07:46:21Z</time></trkpt><trkpt lat="40.05547917154275" lon="17.99603787514301"><ele>13.0</ele><time>2026-04-05T07:46:22Z</time></trkpt><trkpt lat="40.055571722753136" lon="17.996061309659716"><ele>12.999999999999998</ele><time>2026-04-05T07:46:23Z</time></trkpt><trkpt lat="40.05565806202958" lon="17.996064705327488"><ele>13.0</ele><time>2026-04-05T07:46:24Z</time></trkpt><trkpt lat="40.055735581178354" lon="17.99611796059839"><ele>13.0</ele><time>2026-04-05T07:46:25Z</time></trkpt><trkpt lat="40.055792201274706" lon="17.9962012730071"><ele>13.0</ele><time>2026-04-05T07:46:26Z</time></trkpt><trkpt lat="40.055861137593965" lon="17.99624765226761"><ele>12.999999999999998</ele><time>2026-04-05T07:46:27Z</time></trkpt><trkpt lat="40.05592598784643" lon="17.996262534535333"><ele>13.0</ele><time>2026-04-05T07:46:28Z</time></trkpt><trkpt lat="40.05602865663637" lon="17.99616533037698"><ele>13.2</ele><time>2026-04-05T07:46:30Z</time></trkpt><trkpt lat="40.05604611800894" lon="17.996049053897163"><ele>13.4</ele><time>2026-04-05T07:46:31Z</time></trkpt><trkpt lat="40.05602879345176" lon="17.99592990024469"><ele>13.599999999999998</ele><time>2026-04-05T07:46:32Z</time></trkpt><trkpt lat="40.05598769434745" lon="17.995811034068723"><ele>13.799999999999999</ele><time>2026-04-05T07:46:33Z</time></trkpt><trkpt lat="40.05593164283891" lon="17.99569096187797"><ele>14.0</ele><time>2026-04-05T07:46:34Z</time></trkpt><trkpt lat="40.05589450577508" lon="17.99557214500296"><ele>14.0</ele><time>2026-04-05T07:46:35Z</time></trkpt><trkpt lat="40.05588618369002" lon="17.995436842882448"><ele>14.0</ele><time>2026-04-05T07:46:36Z</time></trkpt><trkpt lat="40.055897063610345" lon="17.995285600506456"><ele>14.0</ele><time>2026-04-05T07:46:37Z</time></trkpt><trkpt lat="40.05591816157807" lon="17.995136332679408"><ele>14.0</ele><time>2026-04-05T07:46:38Z</time></trkpt><trkpt lat="40.05591212546275" lon="17.99498301392655"><ele>14.0</ele><time>2026-04-05T07:46:39Z</time></trkpt><trkpt lat="40.05592567110631" lon="17.994845525965506"><ele>13.999999999999998</ele><time>2026-04-05T07:46:40Z</time></trkpt><trkpt lat="40.05592641368494" lon="17.99470177132015"><ele>13.999999999999998</ele><time>2026-04-05T07:46:41Z</time></trkpt><trkpt lat="40.055919482448346" lon="17.994559344233206"><ele>14.0</ele><time>2026-04-05T07:46:42Z</time></trkpt><trkpt lat="40.05592333801481" lon="17.994417391197675"><ele>14.0</ele><time>2026-04-05T07:46:43Z</time></trkpt><trkpt lat="40.05592437040254" lon="17.99427249743517"><ele>14.2</ele><time>2026-04-05T07:46:44Z</time></trkpt><trkpt lat="40.05593327382088" lon="17.994132104137282"><ele>14.399999999999999</ele><time>2026-04-05T07:46:45Z</time></trkpt><trkpt lat="40.05592938153188" lon="17.994001404994002"><ele>14.6</ele><time>2026-04-05T07:46:46Z</time></trkpt><trkpt lat="40.05592993583525" lon="17.99386861543518"><ele>14.8</ele><time>2026-04-05T07:46:47Z</time></trkpt><trkpt lat="40.05594098987843" lon="17.993729768511507"><ele>15.0</ele><time>2026-04-05T07:46:48Z</time></trkpt><trkpt lat="40.055946401200885" lon="17.993592076704527"><ele>15.0</ele><time>2026-04-05T07:46:49Z</time></trkpt><trkpt lat="40.05595017353631" lon="17.99346229323286"><ele>15.0</ele><time>2026-04-05T07:46:50Z</time></trkpt><trkpt lat="40.055941126499725" lon="17.99334106343038"><ele>15.0</ele><time>2026-04-05T07:46:51Z</time></trkpt><trkpt lat="40.05595542479051" lon="17.993243867754217"><ele>15.0</ele><time>2026-04-05T07:46:52Z</time></trkpt><trkpt lat="40.055957607131894" lon="17.993147823623854"><ele>15.0</ele><time>2026-04-05T07:46:54Z</time></trkpt><trkpt lat="40.05595960863121" lon="17.993059738128597"><ele>15.0</ele><time>2026-04-05T07:46:58Z</time></trkpt><trkpt lat="40.05596250067715" lon="17.992913236250377"><ele>15.333333333333334</ele><time>2026-04-05T07:47:39.001Z</time></trkpt><trkpt lat="40.05596456776291" lon="17.992808301382873"><ele>15.666666666666668</ele><time>2026-04-05T07:47:40.001Z</time></trkpt><trkpt lat="40.05596640935367" lon="17.992714814966714"><ele>16.0</ele><time>2026-04-05T07:47:41.001Z</time></trkpt><trkpt lat="40.055943526518845" lon="17.992627276935263"><ele>16.333333333333336</ele><time>2026-04-05T07:47:42.001Z</time></trkpt><trkpt lat="40.05594544613633" lon="17.9925400276199"><ele>16.666666666666668</ele><time>2026-04-05T07:47:43.001Z</time></trkpt><trkpt lat="40.05594806218397" lon="17.992421124577763"><ele>17.0</ele><time>2026-04-05T07:47:45.001Z</time></trkpt><trkpt lat="40.05593379917261" lon="17.99233276356096"><ele>18.0</ele><time>2026-04-05T07:47:48.001Z</time></trkpt></trkseg><trkseg><trkpt lat="40.058951014301485" lon="17.993606308106294"><ele>22.0</ele><time>2026-04-05T08:01:51.998Z</time></trkpt><trkpt lat="40.05903994726471" lon="17.993552890449283"><ele>22.0</ele><time>2026-04-05T08:01:54.998Z</time></trkpt><trkpt lat="40.05914801749208" lon="17.99354369197233"><ele>22.0</ele><time>2026-04-05T08:01:55.999Z</time></trkpt><trkpt lat="40.059247849517746" lon="17.993661447805074"><ele>22.0</ele><time>2026-04-05T08:01:56.999Z</time></trkpt><trkpt lat="40.059366924034926" lon="17.99369459977537"><ele>21.666666666666664</ele><time>2026-04-05T08:01:57.999Z</time></trkpt><trkpt lat="40.05958337655114" lon="17.993760681774777"><ele>21.333333333333332</ele><time>2026-04-05T08:01:58.999Z</time></trkpt><trkpt lat="40.0597404912872" lon="17.993820262217955"><ele>21.0</ele><time>2026-04-05T08:01:59.999Z</time></trkpt><trkpt lat="40.059872942893534" lon="17.993874193346652"><ele>21.75</ele><time>2026-04-05T08:02:00.999Z</time></trkpt><trkpt lat="40.05999528509224" lon="17.993925436011406"><ele>22.5</ele><time>2026-04-05T08:02:01.999Z</time></trkpt><trkpt lat="40.060124158914995" lon="17.994063176254397"><ele>23.25</ele><time>2026-04-05T08:02:02.999Z</time></trkpt><trkpt lat="40.06022976493377" lon="17.994196476651645"><ele>24.0</ele><time>2026-04-05T08:02:03.999Z</time></trkpt><trkpt lat="40.06034028212893" lon="17.994295933349786"><ele>24.0</ele><time>2026-04-05T08:02:04.999Z</time></trkpt><trkpt lat="40.060438682778084" lon="17.994366366207434"><ele>24.0</ele><time>2026-04-05T08:02:07Z</time></trkpt><trkpt lat="40.060549839617" lon="17.994307036633145"><ele>24.0</ele><time>2026-04-05T08:02:09Z</time></trkpt><trkpt lat="40.06061296891506" lon="17.994229037246512"><ele>24.0</ele><time>2026-04-05T08:02:11Z</time></trkpt><trkpt lat="40.06067828712975" lon="17.994227875494087"><ele>24.0</ele><time>2026-04-05T08:02:12Z</time></trkpt><trkpt lat="40.060777526819244" lon="17.994332588722905"><ele>22.833333333333332</ele><time>2026-04-05T08:02:14Z</time></trkpt><trkpt lat="40.06082604298471" lon="17.994414356331983"><ele>21.666666666666668</ele><time>2026-04-05T08:02:15Z</time></trkpt><trkpt lat="40.06087220189496" lon="17.994488004750437"><ele>20.5</ele><time>2026-04-05T08:02:16Z</time></trkpt><trkpt lat="40.0609101671391" lon="17.99458313997286"><ele>19.333333333333336</ele><time>2026-04-05T08:02:17Z</time></trkpt><trkpt lat="40.06095322372209" lon="17.99467414873168"><ele>18.166666666666668</ele><time>2026-04-05T08:02:18Z</time></trkpt><trkpt lat="40.06099589896856" lon="17.99475952004434"><ele>17.0</ele><time>2026-04-05T08:02:19Z</time></trkpt><trkpt lat="40.06104143284371" lon="17.994860824489802"><ele>17.0</ele><time>2026-04-05T08:02:20Z</time></trkpt><trkpt lat="40.06109106779114" lon="17.994963466427418"><ele>17.0</ele><time>2026-04-05T08:02:21Z</time></trkpt><trkpt lat="40.06114360941748" lon="17.995055721788674"><ele>17.0</ele><time>2026-04-05T08:02:22Z</time></trkpt><trkpt lat="40.06118514351639" lon="17.99514951321225"><ele>17.0</ele><time>2026-04-05T08:02:23Z</time></trkpt><trkpt lat="40.06123526742057" lon="17.99525130390953"><ele>17.0</ele><time>2026-04-05T08:02:24Z</time></trkpt><trkpt lat="40.06129636113586" lon="17.99535663347647"><ele>17.2</ele><time>2026-04-05T08:02:25Z</time></trkpt><trkpt lat="40.061355419415676" lon="17.995454550911422"><ele>17.4</ele><time>2026-04-05T08:02:26Z</time></trkpt><trkpt lat="40.06141561055546" lon="17.995551978495126"><ele>17.6</ele><time>2026-04-05T08:02:27Z</time></trkpt><trkpt lat="40.0614775747437" lon="17.995653950486552"><ele>17.8</ele><time>2026-04-05T08:02:28Z</time></trkpt><trkpt lat="40.06156559104303" lon="17.99573313431889"><ele>18.0</ele><time>2026-04-05T08:02:29Z</time></trkpt><trkpt lat="40.06164226384297" lon="17.99580913893647"><ele>17.4</ele><time>2026-04-05T08:02:30Z</time></trkpt><trkpt lat="40.06172073068235" lon="17.995904159004393"><ele>16.8</ele><time>2026-04-05T08:02:31.001Z</time></trkpt><trkpt lat="40.06178984788088" lon="17.99598623578004"><ele>16.2</ele><time>2026-04-05T08:02:32.001Z</time></trkpt><trkpt lat="40.06185632456835" lon="17.9960637502466"><ele>15.6</ele><time>2026-04-05T08:02:33.001Z</time></trkpt><trkpt lat="40.06192127982119" lon="17.99614487965037"><ele>15.0</ele><time>2026-04-05T08:02:34.001Z</time></trkpt><trkpt lat="40.06198596624074" lon="17.996229831186273"><ele>15.0</ele><time>2026-04-05T08:02:35.001Z</time></trkpt><trkpt lat="40.06205801293221" lon="17.996321094699905"><ele>15.0</ele><time>2026-04-05T08:02:36.001Z</time></trkpt><trkpt lat="40.06213385280821" lon="17.99640966000988"><ele>15.0</ele><time>2026-04-05T08:02:37.001Z</time></trkpt><trkpt lat="40.06220721723537" lon="17.9965043285816"><ele>15.0</ele><time>2026-04-05T08:02:38.001Z</time></trkpt><trkpt lat="40.06228577113858" lon="17.996600620090454"><ele>15.0</ele><time>2026-04-05T08:02:39.001Z</time></trkpt><trkpt lat="40.06236695464037" lon="17.99670219366283"><ele>14.5</ele><time>2026-04-05T08:02:40.001Z</time></trkpt><trkpt lat="40.062447123854135" lon="17.996802185132676"><ele>14.0</ele><time>2026-04-05T08:02:41.001Z</time></trkpt><trkpt lat="40.062531281490614" lon="17.996909709760633"><ele>13.5</ele><time>2026-04-05T08:02:42.001Z</time></trkpt><trkpt lat="40.06262083700695" lon="17.997019918782176"><ele>13.0</ele><time>2026-04-05T08:02:43.001Z</time></trkpt><trkpt lat="40.062712271128945" lon="17.997134831562196"><ele>11.75</ele><time>2026-04-05T08:02:44.001Z</time></trkpt><trkpt lat="40.06280437062151" lon="17.99726355534942"><ele>10.5</ele><time>2026-04-05T08:02:45.001Z</time></trkpt><trkpt lat="40.062893751754046" lon="17.997384396513418"><ele>9.25</ele><time>2026-04-05T08:02:46.001Z</time></trkpt><trkpt lat="40.062991930168835" lon="17.997507498277148"><ele>8.0</ele><time>2026-04-05T08:02:47.001Z</time></trkpt><trkpt lat="40.06308732563882" lon="17.997632614075084"><ele>7.75</ele><time>2026-04-05T08:02:48.001Z</time></trkpt><trkpt lat="40.063181062335545" lon="17.9977585789317"><ele>7.5</ele><time>2026-04-05T08:02:49.001Z</time></trkpt><trkpt lat="40.063275009358435" lon="17.99788349059905"><ele>7.25</ele><time>2026-04-05T08:02:50.001Z</time></trkpt><trkpt lat="40.063381408984284" lon="17.998010730152405"><ele>7.0</ele><time>2026-04-05T08:02:51.001Z</time></trkpt><trkpt lat="40.06348342465911" lon="17.998141110622893"><ele>7.0</ele><time>2026-04-05T08:02:52.001Z</time></trkpt><trkpt lat="40.06356806744856" lon="17.9982508408095"><ele>7.0</ele><time>2026-04-05T08:02:53.001Z</time></trkpt><trkpt lat="40.06365077223696" lon="17.99836131224881"><ele>7.0</ele><time>2026-04-05T08:02:54.001Z</time></trkpt><trkpt lat="40.06373705996637" lon="17.998474233949633"><ele>7.0</ele><time>2026-04-05T08:02:55.001Z</time></trkpt><trkpt lat="40.06382432287799" lon="17.99858475228544"><ele>7.0</ele><time>2026-04-05T08:02:56.001Z</time></trkpt><trkpt lat="40.06391125768357" lon="17.998691250074778"><ele>6.999999999999999</ele><time>2026-04-05T08:02:57.001Z</time></trkpt><trkpt lat="40.06399729522" lon="17.998796325666312"><ele>6.999999999999999</ele><time>2026-04-05T08:02:58.001Z</time></trkpt><trkpt lat="40.0640710107352" lon="17.998890097262226"><ele>7.0</ele><time>2026-04-05T08:02:59.001Z</time></trkpt><trkpt lat="40.06413320217325" lon="17.99897417315872"><ele>7.0</ele><time>2026-04-05T08:03:00.001Z</time></trkpt><trkpt lat="40.064190778317844" lon="17.99904497471629"><ele>6.500000000000001</ele><time>2026-04-05T08:03:01.001Z</time></trkpt><trkpt lat="40.064251393880376" lon="17.999124386538227"><ele>6.0</ele><time>2026-04-05T08:03:02.001Z</time></trkpt><trkpt lat="40.06430315815436" lon="17.999189970770097"><ele>5.5</ele><time>2026-04-05T08:03:03.001Z</time></trkpt><trkpt lat="40.06435259333019" lon="17.999257539536444"><ele>5.0</ele><time>2026-04-05T08:03:04.001Z</time></trkpt><trkpt lat="40.06441106513243" lon="17.9993311910431"><ele>4.5</ele><time>2026-04-05T08:03:05.001Z</time></trkpt><trkpt lat="40.06448117127293" lon="17.999407490934992"><ele>4.0</ele><time>2026-04-05T08:03:06.001Z</time></trkpt><trkpt lat="40.064570645543974" lon="17.999506427140513"><ele>4.0</ele><time>2026-04-05T08:03:07.001Z</time></trkpt><trkpt lat="40.06464950447093" lon="17.999644425570686"><ele>4.0</ele><time>2026-04-05T08:03:08.001Z</time></trkpt><trkpt lat="40.06475824110235" lon="17.999759002283177"><ele>4.0</ele><time>2026-04-05T08:03:09.001Z</time></trkpt><trkpt lat="40.064908064177295" lon="17.999980067352837"><ele>3.5</ele><time>2026-04-05T08:03:10.001Z</time></trkpt><trkpt lat="40.06510645589993" lon="18.00021530281032"><ele>3.0</ele><time>2026-04-05T08:03:11.001Z</time></trkpt><trkpt lat="40.06524492638649" lon="18.00038370606922"><ele>3.0</ele><time>2026-04-05T08:03:12.001Z</time></trkpt><trkpt lat="40.06537710670196" lon="18.000557410862196"><ele>3.0</ele><time>2026-04-05T08:03:13.001Z</time></trkpt><trkpt lat="40.06550043688144" lon="18.000708744707143"><ele>3.0</ele><time>2026-04-05T08:03:14.001Z</time></trkpt><trkpt lat="40.0656169027464" lon="18.00085701021522"><ele>3.0</ele><time>2026-04-05T08:03:15.001Z</time></trkpt><trkpt lat="40.06572597630533" lon="18.001001989110073"><ele>3.0</ele><time>2026-04-05T08:03:16.001Z</time></trkpt><trkpt lat="40.06582713459304" lon="18.00113407294353"><ele>3.0</ele><time>2026-04-05T08:03:17.001Z</time></trkpt><trkpt lat="40.06592454021741" lon="18.001260875075292"><ele>3.0</ele><time>2026-04-05T08:03:18.001Z</time></trkpt><trkpt lat="40.06601677060116" lon="18.00137585474366"><ele>3.0</ele><time>2026-04-05T08:03:19.001Z</time></trkpt><trkpt lat="40.06610659713134" lon="18.00149627740298"><ele>3.0</ele><time>2026-04-05T08:03:20.001Z</time></trkpt><trkpt lat="40.06620259008844" lon="18.001629611075572"><ele>3.0</ele><time>2026-04-05T08:03:21.001Z</time></trkpt><trkpt lat="40.06630034302564" lon="18.00175061149714"><ele>3.0</ele><time>2026-04-05T08:03:22.001Z</time></trkpt><trkpt lat="40.06638836927969" lon="18.001864903804275"><ele>3.0</ele><time>2026-04-05T08:03:23.002Z</time></trkpt><trkpt lat="40.06647308095293" lon="18.001972182909768"><ele>3.0</ele><time>2026-04-05T08:03:24.002Z</time></trkpt><trkpt lat="40.06656316990446" lon="18.00208918102076"><ele>3.0</ele><time>2026-04-05T08:03:25.002Z</time></trkpt><trkpt lat="40.06664689818046" lon="18.002198492030054"><ele>3.0</ele><time>2026-04-05T08:03:26.002Z</time></trkpt><trkpt lat="40.06672285406925" lon="18.002293348516243"><ele>2.8</ele><time>2026-04-05T08:03:27.002Z</time></trkpt><trkpt lat="40.06679421432225" lon="18.002383421734436"><ele>2.5999999999999996</ele><time>2026-04-05T08:03:28.002Z</time></trkpt><trkpt lat="40.06686789663601" lon="18.002478685016662"><ele>2.4000000000000004</ele><time>2026-04-05T08:03:29.002Z</time></trkpt><trkpt lat="40.06694801047989" lon="18.00257916821594"><ele>2.2</ele><time>2026-04-05T08:03:30.002Z</time></trkpt><trkpt lat="40.06703478762139" lon="18.00269492949804"><ele>2.0</ele><time>2026-04-05T08:03:31.002Z</time></trkpt><trkpt lat="40.06711509227427" lon="18.00279678486144"><ele>2.2</ele><time>2026-04-05T08:03:32.002Z</time></trkpt><trkpt lat="40.06719272173217" lon="18.002898476607445"><ele>2.4000000000000004</ele><time>2026-04-05T08:03:33.002Z</time></trkpt><trkpt lat="40.06725614299632" lon="18.002983256399112"><ele>2.5999999999999996</ele><time>2026-04-05T08:03:34.002Z</time></trkpt><trkpt lat="40.067330782097535" lon="18.003064764043433"><ele>2.8</ele><time>2026-04-05T08:03:35.002Z</time></trkpt><trkpt lat="40.06740431757643" lon="18.003157662930995"><ele>3.0</ele><time>2026-04-05T08:03:36.002Z</time></trkpt><trkpt lat="40.06747856139039" lon="18.00325378674834"><ele>2.8333333333333335</ele><time>2026-04-05T08:03:37.002Z</time></trkpt><trkpt lat="40.06754828238009" lon="18.003349569100163"><ele>2.6666666666666665</ele><time>2026-04-05T08:03:38.002Z</time></trkpt><trkpt lat="40.06760570763294" lon="18.00343517894311"><ele>2.5</ele><time>2026-04-05T08:03:39.002Z</time></trkpt><trkpt lat="40.06765174659286" lon="18.00351893999518"><ele>2.333333333333333</ele><time>2026-04-05T08:03:40.002Z</time></trkpt><trkpt lat="40.06767909599179" lon="18.003607634389255"><ele>2.1666666666666665</ele><time>2026-04-05T08:03:41.002Z</time></trkpt><trkpt lat="40.06769896665086" lon="18.003721619671428"><ele>2.0</ele><time>2026-04-05T08:03:42.002Z</time></trkpt><trkpt lat="40.06771001575608" lon="18.00384523527418"><ele>1.9999999999999998</ele><time>2026-04-05T08:03:43.002Z</time></trkpt><trkpt lat="40.067722528582394" lon="18.003967506860654"><ele>2.0</ele><time>2026-04-05T08:03:44.002Z</time></trkpt><trkpt lat="40.06775627735026" lon="18.00406080357388"><ele>2.0</ele><time>2026-04-05T08:03:45Z</time></trkpt><trkpt lat="40.06781131268321" lon="18.004142458269108"><ele>2.0</ele><time>2026-04-05T08:03:46Z</time></trkpt><trkpt lat="40.06787938514255" lon="18.00420477414943"><ele>1.9999999999999998</ele><time>2026-04-05T08:03:47Z</time></trkpt><trkpt lat="40.067956829867086" lon="18.004234370386442"><ele>2.0</ele><time>2026-04-05T08:03:48Z</time></trkpt><trkpt lat="40.06804860551483" lon="18.004237227653636"><ele>2.0</ele><time>2026-04-05T08:03:49Z</time></trkpt><trkpt lat="40.06813879095618" lon="18.00421118707462"><ele>2.0</ele><time>2026-04-05T08:03:50Z</time></trkpt><trkpt lat="40.06822113136086" lon="18.00414374612152"><ele>2.0</ele><time>2026-04-05T08:03:51Z</time></trkpt><trkpt lat="40.06829313092202" lon="18.0040526409919"><ele>2.0</ele><time>2026-04-05T08:03:52Z</time></trkpt><trkpt lat="40.06835265232915" lon="18.00395580039457"><ele>2.0</ele><time>2026-04-05T08:03:53Z</time></trkpt><trkpt lat="40.068370664282135" lon="18.00386065542723"><ele>2.0</ele><time>2026-04-05T08:03:54Z</time></trkpt><trkpt lat="40.068484609369534" lon="18.003859325996817"><ele>2.0</ele><time>2026-04-05T08:03:55Z</time></trkpt><trkpt lat="40.06856164281659" lon="18.003823402384977"><ele>2.0</ele><time>2026-04-05T08:03:56Z</time></trkpt><trkpt lat="40.06867290981675" lon="18.003949571323055"><ele>2.0</ele><time>2026-04-05T08:03:57Z</time></trkpt><trkpt lat="40.068787264553045" lon="18.00398684748618"><ele>2.0</ele><time>2026-04-05T08:03:58Z</time></trkpt><trkpt lat="40.0689072018437" lon="18.004053422203764"><ele>2.0</ele><time>2026-04-05T08:03:59Z</time></trkpt><trkpt lat="40.06903035504616" lon="18.004118174103667"><ele>2.0</ele><time>2026-04-05T08:04:00Z</time></trkpt><trkpt lat="40.06916270838779" lon="18.0041857498551"><ele>2.0</ele><time>2026-04-05T08:04:01Z</time></trkpt><trkpt lat="40.06930403760775" lon="18.004250554969843"><ele>2.0</ele><time>2026-04-05T08:04:02Z</time></trkpt><trkpt lat="40.06945578793118" lon="18.00432401813828"><ele>2.0</ele><time>2026-04-05T08:04:03Z</time></trkpt><trkpt lat="40.06960777160058" lon="18.004397242100186"><ele>2.0</ele><time>2026-04-05T08:04:04Z</time></trkpt><trkpt lat="40.06976773612849" lon="18.004466898174215"><ele>2.0</ele><time>2026-04-05T08:04:05Z</time></trkpt><trkpt lat="40.069923866228294" lon="18.004534236418635"><ele>2.0</ele><time>2026-04-05T08:04:06Z</time></trkpt><trkpt lat="40.07008351383557" lon="18.004616666521454"><ele>2.0</ele><time>2026-04-05T08:04:07Z</time></trkpt><trkpt lat="40.070246333941725" lon="18.00469688351467"><ele>1.6666666666666665</ele><time>2026-04-05T08:04:08Z</time></trkpt><trkpt lat="40.07040937445012" lon="18.004776651830998"><ele>1.3333333333333333</ele><time>2026-04-05T08:04:09Z</time></trkpt><trkpt lat="40.07056211256538" lon="18.00485379212143"><ele>1.0</ele><time>2026-04-05T08:04:10Z</time></trkpt><trkpt lat="40.070721359752234" lon="18.004923670281485"><ele>1.3333333333333333</ele><time>2026-04-05T08:04:11Z</time></trkpt><trkpt lat="40.070891134688104" lon="18.00500918463977"><ele>1.6666666666666665</ele><time>2026-04-05T08:04:12Z</time></trkpt><trkpt lat="40.07105483970246" lon="18.005080128997445"><ele>2.0</ele><time>2026-04-05T08:04:13Z</time></trkpt><trkpt lat="40.07121398545448" lon="18.00516451411667"><ele>2.0</ele><time>2026-04-05T08:04:14Z</time></trkpt><trkpt lat="40.071380994659926" lon="18.00524690984594"><ele>2.0</ele><time>2026-04-05T08:04:15Z</time></trkpt><trkpt lat="40.071546829784126" lon="18.00533705539488"><ele>2.0</ele><time>2026-04-05T08:04:16Z</time></trkpt><trkpt lat="40.07172242527687" lon="18.00541748213558"><ele>1.0</ele><time>2026-04-05T08:04:17Z</time></trkpt><trkpt lat="40.07189456614797" lon="18.00549969450642"><ele>0.0</ele><time>2026-04-05T08:04:18Z</time></trkpt><trkpt lat="40.07207148870838" lon="18.005586463553335"><ele>-1.0</ele><time>2026-04-05T08:04:19Z</time></trkpt><trkpt lat="40.07224366732257" lon="18.00568441599619"><ele>-1.0</ele><time>2026-04-05T08:04:20Z</time></trkpt><trkpt lat="40.072432335866516" lon="18.005775754844336"><ele>-1.0</ele><time>2026-04-05T08:04:21Z</time></trkpt><trkpt lat="40.07262566549854" lon="18.00587501343117"><ele>-1.0</ele><time>2026-04-05T08:04:22Z</time></trkpt><trkpt lat="40.07282498135807" lon="18.00596698823916"><ele>-0.6666666666666666</ele><time>2026-04-05T08:04:23Z</time></trkpt><trkpt lat="40.07301526837679" lon="18.006050330495192"><ele>-0.3333333333333333</ele><time>2026-04-05T08:04:24Z</time></trkpt><trkpt lat="40.07320985842449" lon="18.00613488063604"><ele>0.0</ele><time>2026-04-05T08:04:25Z</time></trkpt><trkpt lat="40.073403593688234" lon="18.00620675188371"><ele>0.3333333333333333</ele><time>2026-04-05T08:04:26Z</time></trkpt><trkpt lat="40.07359030229104" lon="18.006277312848972"><ele>0.6666666666666666</ele><time>2026-04-05T08:04:27Z</time></trkpt><trkpt lat="40.07378285469939" lon="18.006339479235344"><ele>1.0</ele><time>2026-04-05T08:04:28Z</time></trkpt><trkpt lat="40.07397689410959" lon="18.00640055598142"><ele>0.3333333333333333</ele><time>2026-04-05T08:04:29Z</time></trkpt><trkpt lat="40.074161323033884" lon="18.006453551271782"><ele>-0.3333333333333333</ele><time>2026-04-05T08:04:30Z</time></trkpt><trkpt lat="40.0743400636799" lon="18.006505691481905"><ele>-1.0</ele><time>2026-04-05T08:04:31Z</time></trkpt><trkpt lat="40.07452414482359" lon="18.0065596851724"><ele>-1.0</ele><time>2026-04-05T08:04:32Z</time></trkpt><trkpt lat="40.07470162785771" lon="18.006614649845552"><ele>-1.0</ele><time>2026-04-05T08:04:33Z</time></trkpt><trkpt lat="40.074870392333075" lon="18.006664526212397"><ele>-1.0</ele><time>2026-04-05T08:04:34Z</time></trkpt><trkpt lat="40.075042540765494" lon="18.006720506177913"><ele>0.0</ele><time>2026-04-05T08:04:35Z</time></trkpt><trkpt lat="40.07520802268509" lon="18.006771083302347"><ele>1.0</ele><time>2026-04-05T08:04:36.001Z</time></trkpt><trkpt lat="40.075372741217606" lon="18.00682132546609"><ele>2.0</ele><time>2026-04-05T08:04:37.001Z</time></trkpt><trkpt lat="40.07553369714815" lon="18.006866639993202"><ele>2.0</ele><time>2026-04-05T08:04:38.001Z</time></trkpt><trkpt lat="40.07571014415947" lon="18.00692348489566"><ele>2.0</ele><time>2026-04-05T08:04:39.001Z</time></trkpt><trkpt lat="40.07589157973915" lon="18.0069725482034"><ele>2.0</ele><time>2026-04-05T08:04:40.001Z</time></trkpt><trkpt lat="40.07607121108045" lon="18.007016327173382"><ele>1.3333333333333333</ele><time>2026-04-05T08:04:41.001Z</time></trkpt><trkpt lat="40.07625463805091" lon="18.007073752881833"><ele>0.6666666666666666</ele><time>2026-04-05T08:04:42.001Z</time></trkpt><trkpt lat="40.076442968897055" lon="18.007138299466313"><ele>0.0</ele><time>2026-04-05T08:04:43.001Z</time></trkpt><trkpt lat="40.076633065037164" lon="18.00720022290058"><ele>0.0</ele><time>2026-04-05T08:04:44.001Z</time></trkpt><trkpt lat="40.07682594903143" lon="18.00725760296476"><ele>0.0</ele><time>2026-04-05T08:04:45.001Z</time></trkpt><trkpt lat="40.077024877704595" lon="18.007315565916755"><ele>0.0</ele><time>2026-04-05T08:04:46.001Z</time></trkpt><trkpt lat="40.07722486819497" lon="18.00738173973002"><ele>0.0</ele><time>2026-04-05T08:04:47.001Z</time></trkpt><trkpt lat="40.07742230393282" lon="18.007434669796663"><ele>0.0</ele><time>2026-04-05T08:04:48.001Z</time></trkpt><trkpt lat="40.07761583894161" lon="18.00749189948872"><ele>0.0</ele><time>2026-04-05T08:04:49.001Z</time></trkpt><trkpt lat="40.07781073883887" lon="18.007552282784104"><ele>0.0</ele><time>2026-04-05T08:04:50.001Z</time></trkpt><trkpt lat="40.07800748552189" lon="18.007612939829052"><ele>0.0</ele><time>2026-04-05T08:04:51.001Z</time></trkpt><trkpt lat="40.07819913007779" lon="18.007689808139993"><ele>0.0</ele><time>2026-04-05T08:04:52.001Z</time></trkpt><trkpt lat="40.07838480917697" lon="18.007806065925838"><ele>0.0</ele><time>2026-04-05T08:04:53.001Z</time></trkpt><trkpt lat="40.078562489007304" lon="18.007942546937624"><ele>0.0</ele><time>2026-04-05T08:04:54.001Z</time></trkpt><trkpt lat="40.07873708758735" lon="18.00808467746525"><ele>0.0</ele><time>2026-04-05T08:04:55.001Z</time></trkpt><trkpt lat="40.07893263177025" lon="18.008226324408998"><ele>0.3333333333333333</ele><time>2026-04-05T08:04:56.001Z</time></trkpt><trkpt lat="40.079098689128756" lon="18.00838364348587"><ele>0.6666666666666666</ele><time>2026-04-05T08:04:57.001Z</time></trkpt><trkpt lat="40.0792421156577" lon="18.008504727236843"><ele>1.0</ele><time>2026-04-05T08:04:58.001Z</time></trkpt><trkpt lat="40.07938385860021" lon="18.00863140066216"><ele>1.0</ele><time>2026-04-05T08:04:59.001Z</time></trkpt><trkpt lat="40.07951327040338" lon="18.00874688271902"><ele>1.0</ele><time>2026-04-05T08:05:00.001Z</time></trkpt><trkpt lat="40.07964442319629" lon="18.00884414167253"><ele>1.0</ele><time>2026-04-05T08:05:01.001Z</time></trkpt><trkpt lat="40.079776642702306" lon="18.00894565732297"><ele>1.0</ele><time>2026-04-05T08:05:02.001Z</time></trkpt><trkpt lat="40.07990916423405" lon="18.009043040404222"><ele>1.0</ele><time>2026-04-05T08:05:03.001Z</time></trkpt><trkpt lat="40.08004337042427" lon="18.00914236977347"><ele>1.0</ele><time>2026-04-05T08:05:04.001Z</time></trkpt><trkpt lat="40.08018995730332" lon="18.009236429081998"><ele>2.0</ele><time>2026-04-05T08:05:05.001Z</time></trkpt><trkpt lat="40.08032723646114" lon="18.00932968954722"><ele>3.0</ele><time>2026-04-05T08:05:06.001Z</time></trkpt><trkpt lat="40.08047264425458" lon="18.00944222694665"><ele>4.0</ele><time>2026-04-05T08:05:07.001Z</time></trkpt><trkpt lat="40.080620281176714" lon="18.009539197578462"><ele>4.0</ele><time>2026-04-05T08:05:08.001Z</time></trkpt><trkpt lat="40.08076558898925" lon="18.00963436414268"><ele>4.0</ele><time>2026-04-05T08:05:09.001Z</time></trkpt><trkpt lat="40.08092148233541" lon="18.009726091921248"><ele>4.0</ele><time>2026-04-05T08:05:10.001Z</time></trkpt><trkpt lat="40.081069294207715" lon="18.00984477094426"><ele>4.25</ele><time>2026-04-05T08:05:11.001Z</time></trkpt><trkpt lat="40.08120861998955" lon="18.009924671793865"><ele>4.5</ele><time>2026-04-05T08:05:12.001Z</time></trkpt><trkpt lat="40.08134098708599" lon="18.009997723462064"><ele>4.75</ele><time>2026-04-05T08:05:13.001Z</time></trkpt><trkpt lat="40.08146796406263" lon="18.010105535952757"><ele>5.0</ele><time>2026-04-05T08:05:14.001Z</time></trkpt><trkpt lat="40.081589176235035" lon="18.010189245190993"><ele>5.25</ele><time>2026-04-05T08:05:15.001Z</time></trkpt><trkpt lat="40.08170545680042" lon="18.010263732891065"><ele>5.5</ele><time>2026-04-05T08:05:16.001Z</time></trkpt><trkpt lat="40.08182024040985" lon="18.01035363107456"><ele>5.75</ele><time>2026-04-05T08:05:17.001Z</time></trkpt><trkpt lat="40.08192502592181" lon="18.01041881412865"><ele>6.0</ele><time>2026-04-05T08:05:18.001Z</time></trkpt><trkpt lat="40.08203269386426" lon="18.010487010610788"><ele>6.0</ele><time>2026-04-05T08:05:19.001Z</time></trkpt><trkpt lat="40.082146136277565" lon="18.010562917801753"><ele>6.0</ele><time>2026-04-05T08:05:20.001Z</time></trkpt><trkpt lat="40.082258176294154" lon="18.010645588227398"><ele>6.0</ele><time>2026-04-05T08:05:21.001Z</time></trkpt><trkpt lat="40.08236735776245" lon="18.01072329210159"><ele>6.0</ele><time>2026-04-05T08:05:22.001Z</time></trkpt><trkpt lat="40.08247896182822" lon="18.010796024174606"><ele>5.6</ele><time>2026-04-05T08:05:23.001Z</time></trkpt><trkpt lat="40.08254907852169" lon="18.010861271199843"><ele>5.199999999999999</ele><time>2026-04-05T08:05:24.001Z</time></trkpt><trkpt lat="40.08261816210178" lon="18.010919139609"><ele>4.800000000000001</ele><time>2026-04-05T08:05:25.001Z</time></trkpt><trkpt lat="40.08269393036838" lon="18.010983834440125"><ele>4.4</ele><time>2026-04-05T08:05:26.001Z</time></trkpt><trkpt lat="40.082789483117836" lon="18.011053238062633"><ele>4.0</ele><time>2026-04-05T08:05:27.001Z</time></trkpt><trkpt lat="40.08288146354933" lon="18.011136032430194"><ele>4.0</ele><time>2026-04-05T08:05:28.001Z</time></trkpt><trkpt lat="40.08298730664098" lon="18.011221433614015"><ele>4.0</ele><time>2026-04-05T08:05:29.001Z</time></trkpt><trkpt lat="40.083120287602405" lon="18.011361915459737"><ele>4.0</ele><time>2026-04-05T08:05:30.001Z</time></trkpt><trkpt lat="40.08323545019149" lon="18.011466293570138"><ele>4.0</ele><time>2026-04-05T08:05:31.001Z</time></trkpt><trkpt lat="40.08334612233242" lon="18.011593086427602"><ele>4.0</ele><time>2026-04-05T08:05:32.002Z</time></trkpt><trkpt lat="40.083450145616155" lon="18.011695040058783"><ele>4.0</ele><time>2026-04-05T08:05:33.002Z</time></trkpt><trkpt lat="40.083557828353484" lon="18.011803042462283"><ele>4.0</ele><time>2026-04-05T08:05:34.002Z</time></trkpt><trkpt lat="40.08368219344021" lon="18.011911573518773"><ele>4.0</ele><time>2026-04-05T08:05:35.002Z</time></trkpt><trkpt lat="40.083844635900945" lon="18.012054484190116"><ele>4.0</ele><time>2026-04-05T08:05:36.002Z</time></trkpt><trkpt lat="40.08397833611916" lon="18.012155576370102"><ele>4.0</ele><time>2026-04-05T08:05:37.002Z</time></trkpt><trkpt lat="40.08409589101659" lon="18.012237963443038"><ele>4.0</ele><time>2026-04-05T08:05:38.002Z</time></trkpt><trkpt lat="40.08418914723956" lon="18.012333125740167"><ele>4.0</ele><time>2026-04-05T08:05:39.002Z</time></trkpt><trkpt lat="40.08430279727538" lon="18.012433119873656"><ele>3.8000000000000003</ele><time>2026-04-05T08:05:40.002Z</time></trkpt><trkpt lat="40.08441105602755" lon="18.012527806965803"><ele>3.6000000000000005</ele><time>2026-04-05T08:05:41.002Z</time></trkpt><trkpt lat="40.08450564264881" lon="18.012615233270964"><ele>3.4</ele><time>2026-04-05T08:05:42.002Z</time></trkpt><trkpt lat="40.084576304174725" lon="18.012691464402746"><ele>3.2</ele><time>2026-04-05T08:05:43.002Z</time></trkpt><trkpt lat="40.08464023712991" lon="18.01274416234677"><ele>3.0</ele><time>2026-04-05T08:05:44.002Z</time></trkpt><trkpt lat="40.084695659852684" lon="18.012796886073865"><ele>3.0</ele><time>2026-04-05T08:05:45.002Z</time></trkpt><trkpt lat="40.08475586192455" lon="18.012851807993282"><ele>3.0</ele><time>2026-04-05T08:05:46.002Z</time></trkpt><trkpt lat="40.08482112240064" lon="18.01290397186323"><ele>3.0</ele><time>2026-04-05T08:05:47.002Z</time></trkpt><trkpt lat="40.084881439693554" lon="18.012961111189703"><ele>3.0</ele><time>2026-04-05T08:05:48.002Z</time></trkpt><trkpt lat="40.084989446457904" lon="18.013058300199805"><ele>3.0</ele><time>2026-04-05T08:05:50.002Z</time></trkpt><trkpt lat="40.08504659700918" lon="18.013109715524187"><ele>3.0</ele><time>2026-04-05T08:05:50.999Z</time></trkpt><trkpt lat="40.085131942835666" lon="18.01318156219155"><ele>2.8</ele><time>2026-04-05T08:06:24Z</time></trkpt><trkpt lat="40.08520888895123" lon="18.013243710722026"><ele>2.5999999999999996</ele><time>2026-04-05T08:06:25Z</time></trkpt><trkpt lat="40.085250289173246" lon="18.01335079217306"><ele>2.4000000000000004</ele><time>2026-04-05T08:06:26Z</time></trkpt><trkpt lat="40.08533751125706" lon="18.013435596680473"><ele>2.2</ele><time>2026-04-05T08:06:27Z</time></trkpt><trkpt lat="40.08543605039584" lon="18.013529457458905"><ele>2.0</ele><time>2026-04-05T08:06:28Z</time></trkpt><trkpt lat="40.08553720352126" lon="18.013631089690726"><ele>2.0</ele><time>2026-04-05T08:06:29Z</time></trkpt><trkpt lat="40.085677316823485" lon="18.013766068625344"><ele>2.0</ele><time>2026-04-05T08:06:30Z</time></trkpt><trkpt lat="40.08584127465484" lon="18.013890002396554"><ele>2.0</ele><time>2026-04-05T08:06:31Z</time></trkpt><trkpt lat="40.08604146806464" lon="18.014017017193996"><ele>2.333333333333333</ele><time>2026-04-05T08:06:32Z</time></trkpt><trkpt lat="40.086182798141394" lon="18.014169468644948"><ele>2.6666666666666665</ele><time>2026-04-05T08:06:33Z</time></trkpt><trkpt lat="40.08631998268737" lon="18.014296456039645"><ele>3.0</ele><time>2026-04-05T08:06:34Z</time></trkpt><trkpt lat="40.086460595122155" lon="18.01441763723218"><ele>3.0</ele><time>2026-04-05T08:06:35Z</time></trkpt><trkpt lat="40.086608140814434" lon="18.0145264908909"><ele>3.0</ele><time>2026-04-05T08:06:36Z</time></trkpt><trkpt lat="40.08674702131045" lon="18.014622295261397"><ele>3.0</ele><time>2026-04-05T08:06:37Z</time></trkpt><trkpt lat="40.086898549912654" lon="18.01470704839785"><ele>3.0</ele><time>2026-04-05T08:06:38Z</time></trkpt><trkpt lat="40.08705881989203" lon="18.014783989881646"><ele>3.0</ele><time>2026-04-05T08:06:39Z</time></trkpt><trkpt lat="40.08723226809808" lon="18.014860040479366"><ele>3.0</ele><time>2026-04-05T08:06:40Z</time></trkpt><trkpt lat="40.08742246322078" lon="18.014935094887214"><ele>2.3333333333333335</ele><time>2026-04-05T08:06:41Z</time></trkpt><trkpt lat="40.087634384496276" lon="18.015013045635474"><ele>1.6666666666666665</ele><time>2026-04-05T08:06:42Z</time></trkpt><trkpt lat="40.08784487733164" lon="18.015084337411217"><ele>1.0</ele><time>2026-04-05T08:06:43Z</time></trkpt><trkpt lat="40.08805374643291" lon="18.015159767486363"><ele>1.0</ele><time>2026-04-05T08:06:44Z</time></trkpt><trkpt lat="40.08826169152819" lon="18.01523798627891"><ele>1.0</ele><time>2026-04-05T08:06:45Z</time></trkpt><trkpt lat="40.08846169317296" lon="18.01531244489141"><ele>1.0</ele><time>2026-04-05T08:06:46.001Z</time></trkpt><trkpt lat="40.08866032707121" lon="18.015389808604816"><ele>1.0</ele><time>2026-04-05T08:06:47.001Z</time></trkpt><trkpt lat="40.088864913977936" lon="18.015468966561965"><ele>1.0</ele><time>2026-04-05T08:06:48.001Z</time></trkpt><trkpt lat="40.08905844135187" lon="18.015544232422187"><ele>1.0</ele><time>2026-04-05T08:06:49.001Z</time></trkpt><trkpt lat="40.08924009881842" lon="18.015611562698577"><ele>1.3333333333333333</ele><time>2026-04-05T08:06:50.001Z</time></trkpt><trkpt lat="40.08940517585725" lon="18.01570164843648"><ele>1.6666666666666665</ele><time>2026-04-05T08:06:51.001Z</time></trkpt><trkpt lat="40.089571039474656" lon="18.015776808581982"><ele>2.0</ele><time>2026-04-05T08:06:52.001Z</time></trkpt><trkpt lat="40.08973077350287" lon="18.015865963543845"><ele>2.0</ele><time>2026-04-05T08:06:53.001Z</time></trkpt><trkpt lat="40.089880152951174" lon="18.015971258252826"><ele>2.0</ele><time>2026-04-05T08:06:54.001Z</time></trkpt><trkpt lat="40.09002770020636" lon="18.016056061734837"><ele>2.0</ele><time>2026-04-05T08:06:55.001Z</time></trkpt><trkpt lat="40.090163028665465" lon="18.016169525425322"><ele>2.0</ele><time>2026-04-05T08:06:56.001Z</time></trkpt><trkpt lat="40.090308796970284" lon="18.016292755450895"><ele>2.0</ele><time>2026-04-05T08:06:57.001Z</time></trkpt><trkpt lat="40.09043857817169" lon="18.016458365716527"><ele>2.0</ele><time>2026-04-05T08:06:58.001Z</time></trkpt><trkpt lat="40.09056287747191" lon="18.016607196691453"><ele>1.75</ele><time>2026-04-05T08:06:59.001Z</time></trkpt><trkpt lat="40.09066212975799" lon="18.01673340785265"><ele>1.5</ele><time>2026-04-05T08:07:00.001Z</time></trkpt><trkpt lat="40.09075550987753" lon="18.016836044030583"><ele>1.25</ele><time>2026-04-05T08:07:01.001Z</time></trkpt><trkpt lat="40.090823836945574" lon="18.01693848680976"><ele>1.0</ele><time>2026-04-05T08:07:02.001Z</time></trkpt><trkpt lat="40.09087009977475" lon="18.017038985123573"><ele>0.9999999999999999</ele><time>2026-04-05T08:07:03.001Z</time></trkpt><trkpt lat="40.09089381730789" lon="18.017150815771206"><ele>1.0</ele><time>2026-04-05T08:07:04.001Z</time></trkpt><trkpt lat="40.090898259395594" lon="18.01727848567586"><ele>1.0</ele><time>2026-04-05T08:07:05.001Z</time></trkpt><trkpt lat="40.09089570651905" lon="18.01739533078297"><ele>1.0</ele><time>2026-04-05T08:07:06.001Z</time></trkpt><trkpt lat="40.09091710393344" lon="18.01749598598912"><ele>0.9999999999999999</ele><time>2026-04-05T08:07:07.001Z</time></trkpt><trkpt lat="40.090979864077994" lon="18.017570009417803"><ele>1.0</ele><time>2026-04-05T08:07:08.001Z</time></trkpt><trkpt lat="40.0910890513167" lon="18.017641135647153"><ele>1.25</ele><time>2026-04-05T08:07:09.001Z</time></trkpt><trkpt lat="40.09119312569346" lon="18.017717659975027"><ele>1.5</ele><time>2026-04-05T08:07:10.001Z</time></trkpt><trkpt lat="40.09126727209704" lon="18.01784867190453"><ele>1.75</ele><time>2026-04-05T08:07:11.001Z</time></trkpt><trkpt lat="40.091332779724844" lon="18.01803400050356"><ele>2.0</ele><time>2026-04-05T08:07:12.001Z</time></trkpt><trkpt lat="40.09139248107787" lon="18.01825913044073"><ele>2.333333333333333</ele><time>2026-04-05T08:07:13.001Z</time></trkpt><trkpt lat="40.09145301830074" lon="18.018506603393423"><ele>2.6666666666666665</ele><time>2026-04-05T08:07:14.001Z</time></trkpt><trkpt lat="40.091511799117896" lon="18.018771488640308"><ele>3.0</ele><time>2026-04-05T08:07:15.001Z</time></trkpt><trkpt lat="40.091560796373706" lon="18.019038052427465"><ele>3.333333333333333</ele><time>2026-04-05T08:07:16.001Z</time></trkpt><trkpt lat="40.09161906020346" lon="18.01930191191891"><ele>3.6666666666666665</ele><time>2026-04-05T08:07:17.001Z</time></trkpt><trkpt lat="40.09168423775981" lon="18.0195508266522"><ele>4.0</ele><time>2026-04-05T08:07:18.001Z</time></trkpt><trkpt lat="40.09175262402561" lon="18.019770394903986"><ele>4.0</ele><time>2026-04-05T08:07:19.001Z</time></trkpt><trkpt lat="40.09183977143298" lon="18.019980303595492"><ele>4.0</ele><time>2026-04-05T08:07:20.001Z</time></trkpt><trkpt lat="40.09194144971374" lon="18.020192476737734"><ele>4.0</ele><time>2026-04-05T08:07:21.001Z</time></trkpt><trkpt lat="40.09206241464183" lon="18.020394908954597"><ele>4.333333333333333</ele><time>2026-04-05T08:07:22.001Z</time></trkpt><trkpt lat="40.09219044321794" lon="18.020583653722362"><ele>4.666666666666667</ele><time>2026-04-05T08:07:23.001Z</time></trkpt><trkpt lat="40.09233886232556" lon="18.02076959279729"><ele>5.0</ele><time>2026-04-05T08:07:24.001Z</time></trkpt><trkpt lat="40.092501778664854" lon="18.020925488646203"><ele>5.333333333333334</ele><time>2026-04-05T08:07:25.001Z</time></trkpt><trkpt lat="40.09268456881726" lon="18.021063597962268"><ele>5.666666666666667</ele><time>2026-04-05T08:07:26.001Z</time></trkpt><trkpt lat="40.092862801923346" lon="18.021188731551447"><ele>6.0</ele><time>2026-04-05T08:07:27.001Z</time></trkpt><trkpt lat="40.09304190490972" lon="18.021298878423774"><ele>6.0</ele><time>2026-04-05T08:07:28.001Z</time></trkpt><trkpt lat="40.09323627448256" lon="18.021359756653613"><ele>6.0</ele><time>2026-04-05T08:07:29.001Z</time></trkpt><trkpt lat="40.0934250085907" lon="18.021399770463443"><ele>6.0</ele><time>2026-04-05T08:07:30.001Z</time></trkpt><trkpt lat="40.09363191349947" lon="18.021445973640006"><ele>6.0</ele><time>2026-04-05T08:07:31.001Z</time></trkpt><trkpt lat="40.09383405837393" lon="18.02147203328997"><ele>6.0</ele><time>2026-04-05T08:07:32.001Z</time></trkpt><trkpt lat="40.094055787607786" lon="18.021469530713652"><ele>6.0</ele><time>2026-04-05T08:07:33.001Z</time></trkpt><trkpt lat="40.09428096920377" lon="18.02144907317519"><ele>7.0</ele><time>2026-04-05T08:07:34.001Z</time></trkpt><trkpt lat="40.09450824822084" lon="18.02139616041298"><ele>8.0</ele><time>2026-04-05T08:07:35.002Z</time></trkpt><trkpt lat="40.09474321438635" lon="18.021359406757472"><ele>9.0</ele><time>2026-04-05T08:07:36.002Z</time></trkpt><trkpt lat="40.09496472975538" lon="18.021318460202227"><ele>10.0</ele><time>2026-04-05T08:07:37.002Z</time></trkpt><trkpt lat="40.09520290267553" lon="18.021286161358248"><ele>10.0</ele><time>2026-04-05T08:07:38.002Z</time></trkpt><trkpt lat="40.095444966347245" lon="18.021238026087907"><ele>10.0</ele><time>2026-04-05T08:07:39.002Z</time></trkpt><trkpt lat="40.09566504682132" lon="18.021209702458336"><ele>9.666666666666668</ele><time>2026-04-05T08:07:40.002Z</time></trkpt><trkpt lat="40.09589089589786" lon="18.021188604560162"><ele>9.333333333333334</ele><time>2026-04-05T08:07:41.002Z</time></trkpt><trkpt lat="40.0960801578457" lon="18.021160790179348"><ele>9.0</ele><time>2026-04-05T08:07:42.002Z</time></trkpt><trkpt lat="40.09626590919813" lon="18.021144348899735"><ele>9.0</ele><time>2026-04-05T08:07:43.002Z</time></trkpt><trkpt lat="40.09643032872119" lon="18.021115783592307"><ele>9.0</ele><time>2026-04-05T08:07:44.002Z</time></trkpt><trkpt lat="40.096582858922616" lon="18.02109220921425"><ele>9.0</ele><time>2026-04-05T08:07:45.002Z</time></trkpt><trkpt lat="40.09672013426836" lon="18.021074537854393"><ele>9.2</ele><time>2026-04-05T08:07:46.002Z</time></trkpt><trkpt lat="40.09685370465932" lon="18.021076247926583"><ele>9.4</ele><time>2026-04-05T08:07:47.002Z</time></trkpt><trkpt lat="40.09696822244463" lon="18.021050279163415"><ele>9.6</ele><time>2026-04-05T08:07:48.002Z</time></trkpt><trkpt lat="40.09705652978499" lon="18.02103982063425"><ele>9.8</ele><time>2026-04-05T08:07:49.002Z</time></trkpt><trkpt lat="40.09715466279724" lon="18.021059465941338"><ele>10.0</ele><time>2026-04-05T08:07:51.002Z</time></trkpt><trkpt lat="40.09713859070869" lon="18.021317601484938"><ele>10.0</ele><time>2026-04-05T08:07:54.002Z</time></trkpt><trkpt lat="40.097096811031776" lon="18.021464748617564"><ele>10.0</ele><time>2026-04-05T08:07:55.002Z</time></trkpt><trkpt lat="40.097039454241255" lon="18.021646891146037"><ele>10.0</ele><time>2026-04-05T08:07:56.002Z</time></trkpt><trkpt lat="40.096971120925474" lon="18.02183487244564"><ele>10.0</ele><time>2026-04-05T08:07:56.999Z</time></trkpt><trkpt lat="40.0969130118901" lon="18.022017644153603"><ele>11.0</ele><time>2026-04-05T08:07:57.999Z</time></trkpt><trkpt lat="40.096845926361404" lon="18.02222186674259"><ele>12.0</ele><time>2026-04-05T08:07:58.999Z</time></trkpt><trkpt lat="40.09676560237433" lon="18.022439389922376"><ele>13.0</ele><time>2026-04-05T08:07:59.999Z</time></trkpt><trkpt lat="40.096681689957734" lon="18.02265330269609"><ele>13.666666666666666</ele><time>2026-04-05T08:08:00.999Z</time></trkpt><trkpt lat="40.09658239393386" lon="18.022862576506476"><ele>14.333333333333332</ele><time>2026-04-05T08:08:01.999Z</time></trkpt><trkpt lat="40.09646264937702" lon="18.02309130109173"><ele>15.0</ele><time>2026-04-05T08:08:02.999Z</time></trkpt><trkpt lat="40.096312564144526" lon="18.023309465084967"><ele>15.5</ele><time>2026-04-05T08:08:03.999Z</time></trkpt><trkpt lat="40.096162032475476" lon="18.023539669210628"><ele>16.0</ele><time>2026-04-05T08:08:05Z</time></trkpt><trkpt lat="40.096016696446235" lon="18.023761043022343"><ele>16.0</ele><time>2026-04-05T08:08:06Z</time></trkpt><trkpt lat="40.095892509945685" lon="18.02398030619919"><ele>16.0</ele><time>2026-04-05T08:08:07Z</time></trkpt><trkpt lat="40.09575875673454" lon="18.02417713234687"><ele>16.0</ele><time>2026-04-05T08:08:08Z</time></trkpt><trkpt lat="40.09563048082774" lon="18.024370161099487"><ele>16.666666666666664</ele><time>2026-04-05T08:08:09Z</time></trkpt><trkpt lat="40.095521262828456" lon="18.02454819191256"><ele>17.333333333333332</ele><time>2026-04-05T08:08:10Z</time></trkpt><trkpt lat="40.095420865771445" lon="18.024725544534764"><ele>18.0</ele><time>2026-04-05T08:08:11Z</time></trkpt><trkpt lat="40.09531850208234" lon="18.02489830719362"><ele>19.333333333333332</ele><time>2026-04-05T08:08:12Z</time></trkpt><trkpt lat="40.09523207481152" lon="18.025099797918262"><ele>20.666666666666664</ele><time>2026-04-05T08:08:13Z</time></trkpt><trkpt lat="40.095132631910076" lon="18.02532433298537"><ele>22.0</ele><time>2026-04-05T08:08:14Z</time></trkpt><trkpt lat="40.09504394480279" lon="18.025580265172497"><ele>22.0</ele><time>2026-04-05T08:08:15Z</time></trkpt><trkpt lat="40.09496794593832" lon="18.025851595619514"><ele>22.0</ele><time>2026-04-05T08:08:16Z</time></trkpt><trkpt lat="40.09489666086619" lon="18.026093239135584"><ele>22.0</ele><time>2026-04-05T08:08:17Z</time></trkpt><trkpt lat="40.09481007475752" lon="18.026319567965047"><ele>22.0</ele><time>2026-04-05T08:08:18Z</time></trkpt><trkpt lat="40.09470918631569" lon="18.02655737337139"><ele>22.0</ele><time>2026-04-05T08:08:19Z</time></trkpt><trkpt lat="40.09456605367522" lon="18.02677693998976"><ele>22.0</ele><time>2026-04-05T08:08:20Z</time></trkpt><trkpt lat="40.09441422610331" lon="18.026986076872035"><ele>22.5</ele><time>2026-04-05T08:08:21Z</time></trkpt><trkpt lat="40.094233209295325" lon="18.027193561452123"><ele>23.0</ele><time>2026-04-05T08:08:22Z</time></trkpt><trkpt lat="40.09404167778864" lon="18.02741077126932"><ele>22.5</ele><time>2026-04-05T08:08:23Z</time></trkpt><trkpt lat="40.09385088181357" lon="18.027611221238065"><ele>22.0</ele><time>2026-04-05T08:08:24Z</time></trkpt><trkpt lat="40.093660520048275" lon="18.027817648161395"><ele>22.0</ele><time>2026-04-05T08:08:25Z</time></trkpt><trkpt lat="40.09347790468564" lon="18.028016111973162"><ele>22.0</ele><time>2026-04-05T08:08:26Z</time></trkpt><trkpt lat="40.09330321402769" lon="18.0282063231911"><ele>21.333333333333332</ele><time>2026-04-05T08:08:27Z</time></trkpt><trkpt lat="40.0931331689885" lon="18.028387256109998"><ele>20.666666666666668</ele><time>2026-04-05T08:08:28Z</time></trkpt><trkpt lat="40.09296166860212" lon="18.0285710114416"><ele>20.0</ele><time>2026-04-05T08:08:29Z</time></trkpt><trkpt lat="40.092803443422866" lon="18.028754025381737"><ele>20.0</ele><time>2026-04-05T08:08:30Z</time></trkpt><trkpt lat="40.092657323894606" lon="18.028942695363156"><ele>20.0</ele><time>2026-04-05T08:08:31Z</time></trkpt><trkpt lat="40.09250537574827" lon="18.029147583782688"><ele>20.0</ele><time>2026-04-05T08:08:32Z</time></trkpt><trkpt lat="40.09237263589207" lon="18.029356249138456"><ele>19.666666666666668</ele><time>2026-04-05T08:08:33Z</time></trkpt><trkpt lat="40.09226550424111" lon="18.029576720201916"><ele>19.333333333333332</ele><time>2026-04-05T08:08:34Z</time></trkpt><trkpt lat="40.09218125150663" lon="18.029804626400928"><ele>19.0</ele><time>2026-04-05T08:08:35Z</time></trkpt><trkpt lat="40.092108834006154" lon="18.03003695529149"><ele>20.0</ele><time>2026-04-05T08:08:36Z</time></trkpt><trkpt lat="40.09204247290972" lon="18.030270756669424"><ele>21.0</ele><time>2026-04-05T08:08:37Z</time></trkpt><trkpt lat="40.091986846691384" lon="18.030507419380843"><ele>22.0</ele><time>2026-04-05T08:08:38Z</time></trkpt><trkpt lat="40.09192689016488" lon="18.03073781533689"><ele>22.666666666666664</ele><time>2026-04-05T08:08:39Z</time></trkpt><trkpt lat="40.091853251275836" lon="18.03099203687879"><ele>23.333333333333332</ele><time>2026-04-05T08:08:40Z</time></trkpt><trkpt lat="40.091794208200014" lon="18.031252458889377"><ele>24.0</ele><time>2026-04-05T08:08:41Z</time></trkpt><trkpt lat="40.091720989313465" lon="18.031482568298447"><ele>24.333333333333336</ele><time>2026-04-05T08:08:42Z</time></trkpt><trkpt lat="40.09165837755906" lon="18.031691189171276"><ele>24.666666666666668</ele><time>2026-04-05T08:08:43.001Z</time></trkpt><trkpt lat="40.09160130402241" lon="18.031883185863943"><ele>25.0</ele><time>2026-04-05T08:08:44.001Z</time></trkpt><trkpt lat="40.09152441154545" lon="18.032058404426238"><ele>25.0</ele><time>2026-04-05T08:08:45.001Z</time></trkpt><trkpt lat="40.091458602715136" lon="18.032209959930398"><ele>25.0</ele><time>2026-04-05T08:08:46.001Z</time></trkpt><trkpt lat="40.09138637797205" lon="18.03231183776094"><ele>25.0</ele><time>2026-04-05T08:08:47.001Z</time></trkpt><trkpt lat="40.09130348889126" lon="18.032415745138795"><ele>25.0</ele><time>2026-04-05T08:08:48.001Z</time></trkpt><trkpt lat="40.091230505854284" lon="18.0324966456009"><ele>25.2</ele><time>2026-04-05T08:08:49.001Z</time></trkpt><trkpt lat="40.091130304551235" lon="18.03251818268631"><ele>25.4</ele><time>2026-04-05T08:08:50.001Z</time></trkpt><trkpt lat="40.09105619025254" lon="18.032565967070187"><ele>25.6</ele><time>2026-04-05T08:08:51.001Z</time></trkpt><trkpt lat="40.09102532098541" lon="18.03264896282632"><ele>25.8</ele><time>2026-04-05T08:08:52.001Z</time></trkpt><trkpt lat="40.090932939871614" lon="18.032718973989915"><ele>26.0</ele><time>2026-04-05T08:08:54.001Z</time></trkpt><trkpt lat="40.090905505257986" lon="18.032879114099803"><ele>26.0</ele><time>2026-04-05T08:08:57.001Z</time></trkpt><trkpt lat="40.090898714106466" lon="18.033022252560784"><ele>26.0</ele><time>2026-04-05T08:08:58.001Z</time></trkpt><trkpt lat="40.09084104796483" lon="18.033129235285713"><ele>26.0</ele><time>2026-04-05T08:08:59.001Z</time></trkpt><trkpt lat="40.090778963381005" lon="18.033289794204677"><ele>26.0</ele><time>2026-04-05T08:09:00.001Z</time></trkpt><trkpt lat="40.090714102961236" lon="18.033449089483263"><ele>27.0</ele><time>2026-04-05T08:09:01.001Z</time></trkpt><trkpt lat="40.09062844968096" lon="18.03358703108685"><ele>28.0</ele><time>2026-04-05T08:09:02.001Z</time></trkpt><trkpt lat="40.09053166434314" lon="18.033758392648743"><ele>29.0</ele><time>2026-04-05T08:09:03.001Z</time></trkpt><trkpt lat="40.090425645275694" lon="18.033937977673112"><ele>29.0</ele><time>2026-04-05T08:09:04.001Z</time></trkpt><trkpt lat="40.09033146161074" lon="18.034121748558295"><ele>29.0</ele><time>2026-04-05T08:09:05.001Z</time></trkpt><trkpt lat="40.090232091229836" lon="18.03428324510962"><ele>29.0</ele><time>2026-04-05T08:09:06.001Z</time></trkpt><trkpt lat="40.09014578908358" lon="18.03443301814537"><ele>29.0</ele><time>2026-04-05T08:09:07.001Z</time></trkpt><trkpt lat="40.09007203174223" lon="18.034570492542816"><ele>29.0</ele><time>2026-04-05T08:09:08.001Z</time></trkpt><trkpt lat="40.08998993749055" lon="18.034713057507993"><ele>29.0</ele><time>2026-04-05T08:09:09.001Z</time></trkpt><trkpt lat="40.08989726980113" lon="18.034897026450885"><ele>29.0</ele><time>2026-04-05T08:09:10.001Z</time></trkpt><trkpt lat="40.08978953770393" lon="18.03512717782775"><ele>30.0</ele><time>2026-04-05T08:09:11.001Z</time></trkpt><trkpt lat="40.08969632400095" lon="18.03538255880872"><ele>31.0</ele><time>2026-04-05T08:09:12.001Z</time></trkpt><trkpt lat="40.08960486385859" lon="18.035637322511267"><ele>32.0</ele><time>2026-04-05T08:09:13.001Z</time></trkpt><trkpt lat="40.089514979406104" lon="18.035922512946204"><ele>33.5</ele><time>2026-04-05T08:09:14.001Z</time></trkpt><trkpt lat="40.08943950696978" lon="18.03620363535781"><ele>35.0</ele><time>2026-04-05T08:09:15.001Z</time></trkpt><trkpt lat="40.08935170861313" lon="18.036473284962508"><ele>36.0</ele><time>2026-04-05T08:09:16.001Z</time></trkpt><trkpt lat="40.08927927871" lon="18.03672911754807"><ele>37.0</ele><time>2026-04-05T08:09:17.001Z</time></trkpt><trkpt lat="40.089209035141074" lon="18.036974010334706"><ele>38.0</ele><time>2026-04-05T08:09:18.001Z</time></trkpt><trkpt lat="40.089131124690255" lon="18.037213564554158"><ele>39.0</ele><time>2026-04-05T08:09:19.001Z</time></trkpt><trkpt lat="40.089091371529186" lon="18.037480088633167"><ele>40.0</ele><time>2026-04-05T08:09:20.001Z</time></trkpt><trkpt lat="40.08905818208484" lon="18.03773447276601"><ele>41.0</ele><time>2026-04-05T08:09:21.001Z</time></trkpt><trkpt lat="40.0890230149793" lon="18.037979399812823"><ele>41.0</ele><time>2026-04-05T08:09:22.001Z</time></trkpt><trkpt lat="40.088996780856846" lon="18.03820943826293"><ele>41.0</ele><time>2026-04-05T08:09:23.001Z</time></trkpt><trkpt lat="40.08898570476481" lon="18.03843948741051"><ele>41.0</ele><time>2026-04-05T08:09:24.001Z</time></trkpt><trkpt lat="40.088992249886594" lon="18.038667436677297"><ele>43.0</ele><time>2026-04-05T08:09:25.001Z</time></trkpt><trkpt lat="40.08901889912719" lon="18.038880288363796"><ele>45.0</ele><time>2026-04-05T08:09:26.001Z</time></trkpt><trkpt lat="40.0890784822657" lon="18.03909996170323"><ele>47.0</ele><time>2026-04-05T08:09:27.001Z</time></trkpt><trkpt lat="40.08915611294976" lon="18.039330718843097"><ele>49.0</ele><time>2026-04-05T08:09:28.002Z</time></trkpt><trkpt lat="40.0892428328521" lon="18.039572281191283"><ele>51.0</ele><time>2026-04-05T08:09:29.002Z</time></trkpt><trkpt lat="40.08934067117729" lon="18.039820215612824"><ele>53.0</ele><time>2026-04-05T08:09:30.002Z</time></trkpt><trkpt lat="40.08944265561903" lon="18.040074233796123"><ele>53.333333333333336</ele><time>2026-04-05T08:09:31.002Z</time></trkpt><trkpt lat="40.08953904042495" lon="18.040323027244277"><ele>53.66666666666667</ele><time>2026-04-05T08:09:32.002Z</time></trkpt><trkpt lat="40.089633977233376" lon="18.040589813268088"><ele>54.0</ele><time>2026-04-05T08:09:33.002Z</time></trkpt><trkpt lat="40.08973801439255" lon="18.04084679663035"><ele>54.0</ele><time>2026-04-05T08:09:34.002Z</time></trkpt><trkpt lat="40.089838924202056" lon="18.041107527136713"><ele>54.0</ele><time>2026-04-05T08:09:35.002Z</time></trkpt><trkpt lat="40.08993740891661" lon="18.041371794588244"><ele>54.0</ele><time>2026-04-05T08:09:36.002Z</time></trkpt><trkpt lat="40.09002927927592" lon="18.041626672670333"><ele>53.66666666666667</ele><time>2026-04-05T08:09:37.002Z</time></trkpt><trkpt lat="40.090116182019976" lon="18.0418761928985"><ele>53.333333333333336</ele><time>2026-04-05T08:09:38.002Z</time></trkpt><trkpt lat="40.09020446690196" lon="18.042120992097818"><ele>53.0</ele><time>2026-04-05T08:09:39.002Z</time></trkpt><trkpt lat="40.090291928037956" lon="18.04235829897007"><ele>53.0</ele><time>2026-04-05T08:09:40.002Z</time></trkpt><trkpt lat="40.09036811602831" lon="18.04260427267198"><ele>53.0</ele><time>2026-04-05T08:09:41.002Z</time></trkpt><trkpt lat="40.09046299683875" lon="18.042852425834962"><ele>53.0</ele><time>2026-04-05T08:09:42.002Z</time></trkpt><trkpt lat="40.09054938668598" lon="18.04309434452347"><ele>52.0</ele><time>2026-04-05T08:09:43.002Z</time></trkpt><trkpt lat="40.090639686529144" lon="18.04334449551449"><ele>51.0</ele><time>2026-04-05T08:09:44.002Z</time></trkpt><trkpt lat="40.090733775560345" lon="18.043597678419147"><ele>50.0</ele><time>2026-04-05T08:09:45.002Z</time></trkpt><trkpt lat="40.09082341491786" lon="18.04385581824885"><ele>50.0</ele><time>2026-04-05T08:09:46.002Z</time></trkpt><trkpt lat="40.090921669290104" lon="18.044115924251734"><ele>50.0</ele><time>2026-04-05T08:09:47.002Z</time></trkpt><trkpt lat="40.091018156471435" lon="18.04437773818867"><ele>50.0</ele><time>2026-04-05T08:09:48.002Z</time></trkpt><trkpt lat="40.091112630851775" lon="18.044634238207244"><ele>50.0</ele><time>2026-04-05T08:09:49.002Z</time></trkpt><trkpt lat="40.09120755899526" lon="18.04486811122775"><ele>50.0</ele><time>2026-04-05T08:09:50.002Z</time></trkpt><trkpt lat="40.09128919767937" lon="18.045045122195233"><ele>50.0</ele><time>2026-04-05T08:09:51.002Z</time></trkpt><trkpt lat="40.0913546486856" lon="18.045187615908915"><ele>49.8</ele><time>2026-04-05T08:09:52.002Z</time></trkpt><trkpt lat="40.091406543704586" lon="18.04532293120106"><ele>49.6</ele><time>2026-04-05T08:09:53.002Z</time></trkpt><trkpt lat="40.09143579634057" lon="18.0454106453624"><ele>49.400000000000006</ele><time>2026-04-05T08:09:54.002Z</time></trkpt><trkpt lat="40.091469528373025" lon="18.04548546811729"><ele>49.2</ele><time>2026-04-05T08:09:57.002Z</time></trkpt><trkpt lat="40.09153855532533" lon="18.045644466570973"><ele>49.0</ele><time>2026-04-05T08:10:27Z</time></trkpt><trkpt lat="40.09157760347536" lon="18.045738757162304"><ele>49.5</ele><time>2026-04-05T08:10:28Z</time></trkpt><trkpt lat="40.09162393644672" lon="18.045858649578953"><ele>50.0</ele><time>2026-04-05T08:10:29Z</time></trkpt><trkpt lat="40.09167978523797" lon="18.045995601146906"><ele>50.5</ele><time>2026-04-05T08:10:30Z</time></trkpt><trkpt lat="40.091754464895295" lon="18.046153003595503"><ele>51.0</ele><time>2026-04-05T08:10:31Z</time></trkpt><trkpt lat="40.09182871657737" lon="18.046332267279364"><ele>51.0</ele><time>2026-04-05T08:10:32Z</time></trkpt><trkpt lat="40.09191731550016" lon="18.046530932981174"><ele>51.0</ele><time>2026-04-05T08:10:33Z</time></trkpt><trkpt lat="40.09201801625115" lon="18.04675890608682"><ele>51.0</ele><time>2026-04-05T08:10:34Z</time></trkpt><trkpt lat="40.09212361842294" lon="18.04701729145779"><ele>51.0</ele><time>2026-04-05T08:10:35Z</time></trkpt><trkpt lat="40.092225843076406" lon="18.047264629457512"><ele>51.0</ele><time>2026-04-05T08:10:36Z</time></trkpt><trkpt lat="40.09233212448803" lon="18.047517216877157"><ele>51.0</ele><time>2026-04-05T08:10:37Z</time></trkpt><trkpt lat="40.09244435373603" lon="18.04777406342879"><ele>52.66666666666667</ele><time>2026-04-05T08:10:38Z</time></trkpt><trkpt lat="40.092551423132456" lon="18.048028429302853"><ele>54.333333333333336</ele><time>2026-04-05T08:10:39Z</time></trkpt><trkpt lat="40.09266254291296" lon="18.0482852256575"><ele>56.0</ele><time>2026-04-05T08:10:40Z</time></trkpt><trkpt lat="40.09277755276814" lon="18.04854336982727"><ele>56.66666666666667</ele><time>2026-04-05T08:10:41Z</time></trkpt><trkpt lat="40.09288991352659" lon="18.04878650794906"><ele>57.33333333333333</ele><time>2026-04-05T08:10:42Z</time></trkpt><trkpt lat="40.09299004653208" lon="18.04902555891285"><ele>58.0</ele><time>2026-04-05T08:10:43Z</time></trkpt><trkpt lat="40.09309629542059" lon="18.049268918320813"><ele>58.666666666666664</ele><time>2026-04-05T08:10:44Z</time></trkpt><trkpt lat="40.09319457340896" lon="18.04948335018379"><ele>59.33333333333333</ele><time>2026-04-05T08:10:45Z</time></trkpt><trkpt lat="40.093296183618875" lon="18.049729287760563"><ele>60.0</ele><time>2026-04-05T08:10:46Z</time></trkpt><trkpt lat="40.0933943810675" lon="18.049984671444985"><ele>60.66666666666667</ele><time>2026-04-05T08:10:47Z</time></trkpt><trkpt lat="40.09348700153931" lon="18.050230654223373"><ele>61.333333333333336</ele><time>2026-04-05T08:10:48.001Z</time></trkpt><trkpt lat="40.0935739060003" lon="18.05045790898394"><ele>62.0</ele><time>2026-04-05T08:10:49.001Z</time></trkpt><trkpt lat="40.09364996499384" lon="18.050693114477877"><ele>62.66666666666667</ele><time>2026-04-05T08:10:50.001Z</time></trkpt><trkpt lat="40.093715340817305" lon="18.05094114655701"><ele>63.33333333333333</ele><time>2026-04-05T08:10:51.001Z</time></trkpt><trkpt lat="40.0937890632349" lon="18.051184405270295"><ele>64.0</ele><time>2026-04-05T08:10:52.001Z</time></trkpt><trkpt lat="40.09385907367246" lon="18.0514213273958"><ele>64.33333333333333</ele><time>2026-04-05T08:10:53.001Z</time></trkpt><trkpt lat="40.09392439331424" lon="18.051640661538066"><ele>64.66666666666667</ele><time>2026-04-05T08:10:54.001Z</time></trkpt><trkpt lat="40.093989841567186" lon="18.05186145058765"><ele>65.0</ele><time>2026-04-05T08:10:55.001Z</time></trkpt><trkpt lat="40.09405657329834" lon="18.05208848295148"><ele>65.33333333333334</ele><time>2026-04-05T08:10:56.001Z</time></trkpt><trkpt lat="40.09411802223916" lon="18.052296025793105"><ele>65.66666666666667</ele><time>2026-04-05T08:10:57.001Z</time></trkpt><trkpt lat="40.09418291532687" lon="18.05251232134547"><ele>66.0</ele><time>2026-04-05T08:10:58.001Z</time></trkpt><trkpt lat="40.094243215371485" lon="18.052713307946885"><ele>65.25</ele><time>2026-04-05T08:10:59.001Z</time></trkpt><trkpt lat="40.094293787135605" lon="18.052869349261698"><ele>64.5</ele><time>2026-04-05T08:11:00.001Z</time></trkpt><trkpt lat="40.094320127674465" lon="18.05306655782864"><ele>63.75</ele><time>2026-04-05T08:11:01.001Z</time></trkpt><trkpt lat="40.09438319111709" lon="18.053233448728026"><ele>63.0</ele><time>2026-04-05T08:11:02.001Z</time></trkpt><trkpt lat="40.09443324039418" lon="18.053352936270684"><ele>63.0</ele><time>2026-04-05T08:11:03.001Z</time></trkpt><trkpt lat="40.09448511378952" lon="18.05340834109026"><ele>63.0</ele><time>2026-04-05T08:11:04.001Z</time></trkpt><trkpt lat="40.09453335156588" lon="18.05347589438875"><ele>63.0</ele><time>2026-04-05T08:11:05.001Z</time></trkpt><trkpt lat="40.09458119951694" lon="18.053584625463987"><ele>63.0</ele><time>2026-04-05T08:11:06.001Z</time></trkpt><trkpt lat="40.094683544605566" lon="18.053681625676255"><ele>63.0</ele><time>2026-04-05T08:11:07.001Z</time></trkpt><trkpt lat="40.09478847462796" lon="18.053803390879796"><ele>63.0</ele><time>2026-04-05T08:11:08.001Z</time></trkpt><trkpt lat="40.09491958987894" lon="18.053912469659796"><ele>63.0</ele><time>2026-04-05T08:11:09.001Z</time></trkpt><trkpt lat="40.095028763324905" lon="18.05403708619522"><ele>63.0</ele><time>2026-04-05T08:11:10.001Z</time></trkpt><trkpt lat="40.095186953296114" lon="18.054229264028418"><ele>62.33333333333333</ele><time>2026-04-05T08:11:11.001Z</time></trkpt><trkpt lat="40.09534339124368" lon="18.054359836863526"><ele>61.666666666666664</ele><time>2026-04-05T08:11:12.001Z</time></trkpt><trkpt lat="40.09551002506284" lon="18.05451153514182"><ele>61.0</ele><time>2026-04-05T08:11:13.001Z</time></trkpt><trkpt lat="40.09564406999581" lon="18.054661486916626"><ele>62.33333333333333</ele><time>2026-04-05T08:11:14.001Z</time></trkpt><trkpt lat="40.09575720046623" lon="18.05482057027019"><ele>63.66666666666667</ele><time>2026-04-05T08:11:15.001Z</time></trkpt><trkpt lat="40.09585090756111" lon="18.055008742843846"><ele>65.0</ele><time>2026-04-05T08:11:16.001Z</time></trkpt><trkpt lat="40.09594728314292" lon="18.055207153283625"><ele>65.0</ele><time>2026-04-05T08:11:17.001Z</time></trkpt><trkpt lat="40.096034981409" lon="18.055413568645395"><ele>65.0</ele><time>2026-04-05T08:11:18.001Z</time></trkpt><trkpt lat="40.09613285431805" lon="18.055644078295792"><ele>65.0</ele><time>2026-04-05T08:11:19.001Z</time></trkpt><trkpt lat="40.09622045338504" lon="18.055850232326193"><ele>65.0</ele><time>2026-04-05T08:11:20.001Z</time></trkpt><trkpt lat="40.09630724342961" lon="18.056054482192533"><ele>65.0</ele><time>2026-04-05T08:11:21.001Z</time></trkpt><trkpt lat="40.09639645630454" lon="18.05626022892552"><ele>65.0</ele><time>2026-04-05T08:11:22.001Z</time></trkpt><trkpt lat="40.09648964709107" lon="18.05647248441536"><ele>64.66666666666667</ele><time>2026-04-05T08:11:23.001Z</time></trkpt><trkpt lat="40.096588166944706" lon="18.05668976442396"><ele>64.33333333333333</ele><time>2026-04-05T08:11:24.001Z</time></trkpt><trkpt lat="40.096686344360634" lon="18.056890135423703"><ele>64.0</ele><time>2026-04-05T08:11:25.001Z</time></trkpt><trkpt lat="40.096773477538285" lon="18.057066737116525"><ele>64.0</ele><time>2026-04-05T08:11:26.001Z</time></trkpt><trkpt lat="40.096854647481756" lon="18.057218143740883"><ele>64.0</ele><time>2026-04-05T08:11:27.001Z</time></trkpt><trkpt lat="40.09694152831279" lon="18.05734888391479"><ele>64.0</ele><time>2026-04-05T08:11:28.001Z</time></trkpt><trkpt lat="40.09699833734841" lon="18.057486343141935"><ele>64.0</ele><time>2026-04-05T08:11:29.001Z</time></trkpt><trkpt lat="40.097042119214045" lon="18.057598807171352"><ele>64.4</ele><time>2026-04-05T08:11:30.001Z</time></trkpt><trkpt lat="40.097084408646666" lon="18.057681344966305"><ele>64.80000000000001</ele><time>2026-04-05T08:11:31.002Z</time></trkpt><trkpt lat="40.09713897924842" lon="18.057786454234222"><ele>65.19999999999999</ele><time>2026-04-05T08:11:33.002Z</time></trkpt><trkpt lat="40.097168739809064" lon="18.057879207750048"><ele>65.6</ele><time>2026-04-05T08:11:36.002Z</time></trkpt><trkpt lat="40.097222670883355" lon="18.0580109343615"><ele>66.0</ele><time>2026-04-05T08:11:38.002Z</time></trkpt><trkpt lat="40.09726889429555" lon="18.05812487516262"><ele>66.0</ele><time>2026-04-05T08:11:39.002Z</time></trkpt><trkpt lat="40.097342345315184" lon="18.058246429174204"><ele>66.0</ele><time>2026-04-05T08:11:40.002Z</time></trkpt><trkpt lat="40.09744916524212" lon="18.058341063764278"><ele>66.0</ele><time>2026-04-05T08:11:41.002Z</time></trkpt><trkpt lat="40.097511864686226" lon="18.05854191528488"><ele>66.0</ele><time>2026-04-05T08:11:42.002Z</time></trkpt><trkpt lat="40.0975863203597" lon="18.058702180567487"><ele>66.66666666666667</ele><time>2026-04-05T08:11:43.002Z</time></trkpt><trkpt lat="40.09766754152405" lon="18.058886326898925"><ele>67.33333333333334</ele><time>2026-04-05T08:11:44.002Z</time></trkpt><trkpt lat="40.09775308946486" lon="18.059074716415015"><ele>68.0</ele><time>2026-04-05T08:11:45.002Z</time></trkpt><trkpt lat="40.09783503239289" lon="18.059238522354605"><ele>68.6</ele><time>2026-04-05T08:11:46.002Z</time></trkpt><trkpt lat="40.09790006446757" lon="18.059387098003793"><ele>69.19999999999999</ele><time>2026-04-05T08:11:47.002Z</time></trkpt><trkpt lat="40.097957123300766" lon="18.059510484968563"><ele>69.8</ele><time>2026-04-05T08:11:48.002Z</time></trkpt><trkpt lat="40.098006075621186" lon="18.059590384270074"><ele>70.39999999999999</ele><time>2026-04-05T08:11:49.002Z</time></trkpt><trkpt lat="40.09803543065898" lon="18.059678794396504"><ele>71.0</ele><time>2026-04-05T08:11:52.002Z</time></trkpt><trkpt lat="40.0980879234922" lon="18.059796970355666"><ele>71.0</ele><time>2026-04-05T08:11:54.002Z</time></trkpt><trkpt lat="40.09814164189046" lon="18.059892562533474"><ele>71.0</ele><time>2026-04-05T08:11:55.002Z</time></trkpt><trkpt lat="40.09820593747764" lon="18.060010330650012"><ele>71.0</ele><time>2026-04-05T08:11:56.002Z</time></trkpt><trkpt lat="40.0982635518703" lon="18.060134712742023"><ele>71.0</ele><time>2026-04-05T08:11:57.002Z</time></trkpt><trkpt lat="40.098320743747955" lon="18.060263725841367"><ele>71.0</ele><time>2026-04-05T08:11:58.002Z</time></trkpt><trkpt lat="40.098381800048" lon="18.06036717883047"><ele>71.33333333333334</ele><time>2026-04-05T08:11:59.002Z</time></trkpt><trkpt lat="40.098410154052836" lon="18.06045771969476"><ele>71.66666666666667</ele><time>2026-04-05T08:12:00.002Z</time></trkpt><trkpt lat="40.098434871529186" lon="18.060569337122296"><ele>72.0</ele><time>2026-04-05T08:12:02.002Z</time></trkpt><trkpt lat="40.098413599250755" lon="18.060667559982544"><ele>72.33333333333333</ele><time>2026-04-05T08:12:04.002Z</time></trkpt><trkpt lat="40.09831651048788" lon="18.060708922590184"><ele>72.66666666666666</ele><time>2026-04-05T08:12:05.002Z</time></trkpt><trkpt lat="40.098237683527536" lon="18.06075629728519"><ele>73.0</ele><time>2026-04-05T08:12:06.002Z</time></trkpt><trkpt lat="40.09814312750557" lon="18.06081363549549"><ele>73.2</ele><time>2026-04-05T08:12:07.002Z</time></trkpt><trkpt lat="40.09803347619564" lon="18.06087912453616"><ele>73.4</ele><time>2026-04-05T08:12:08.002Z</time></trkpt><trkpt lat="40.097944084750274" lon="18.060925710585202"><ele>73.60000000000001</ele><time>2026-04-05T08:12:09Z</time></trkpt><trkpt lat="40.09785926874537" lon="18.06097925009375"><ele>73.8</ele><time>2026-04-05T08:12:10Z</time></trkpt><trkpt lat="40.09778116007936" lon="18.061035499905348"><ele>74.0</ele><time>2026-04-05T08:12:11Z</time></trkpt><trkpt lat="40.097700831995645" lon="18.061075858404294"><ele>74.0</ele><time>2026-04-05T08:12:12Z</time></trkpt><trkpt lat="40.09761656041238" lon="18.06110773726149"><ele>74.0</ele><time>2026-04-05T08:12:13Z</time></trkpt><trkpt lat="40.097552331475285" lon="18.06118190245125"><ele>74.0</ele><time>2026-04-05T08:12:14Z</time></trkpt><trkpt lat="40.09748577422844" lon="18.06122968149322"><ele>74.0</ele><time>2026-04-05T08:12:15Z</time></trkpt><trkpt lat="40.09741871349439" lon="18.06127586041389"><ele>74.0</ele><time>2026-04-05T08:12:16Z</time></trkpt><trkpt lat="40.0973459949138" lon="18.06130361022411"><ele>74.0</ele><time>2026-04-05T08:12:17Z</time></trkpt><trkpt lat="40.097241285295866" lon="18.06135336316808"><ele>73.75</ele><time>2026-04-05T08:12:19Z</time></trkpt><trkpt lat="40.09717351674355" lon="18.061408876710274"><ele>73.5</ele><time>2026-04-05T08:12:21Z</time></trkpt><trkpt lat="40.09711109877997" lon="18.061463311805348"><ele>73.25</ele><time>2026-04-05T08:12:23Z</time></trkpt><trkpt lat="40.097263176586296" lon="18.061683782520472"><ele>73.0</ele><time>2026-04-05T08:12:24Z</time></trkpt><trkpt lat="40.097305697909306" lon="18.06180887570475"><ele>73.0</ele><time>2026-04-05T08:12:25Z</time></trkpt><trkpt lat="40.09732834753367" lon="18.061927675090644"><ele>73.0</ele><time>2026-04-05T08:12:27Z</time></trkpt><trkpt lat="40.09737304010798" lon="18.062003297376766"><ele>73.0</ele><time>2026-04-05T08:12:29Z</time></trkpt><trkpt lat="40.0974588526309" lon="18.062033182938922"><ele>73.0</ele><time>2026-04-05T08:12:30Z</time></trkpt><trkpt lat="40.09753573813645" lon="18.061951776883905"><ele>73.0</ele><time>2026-04-05T08:12:31Z</time></trkpt><trkpt lat="40.097650487040305" lon="18.061961218950422"><ele>74.0</ele><time>2026-04-05T08:12:32Z</time></trkpt><trkpt lat="40.0977776089051" lon="18.061977427314936"><ele>75.0</ele><time>2026-04-05T08:12:33Z</time></trkpt><trkpt lat="40.09789946708247" lon="18.061989386525124"><ele>76.0</ele><time>2026-04-05T08:12:34Z</time></trkpt><trkpt lat="40.09799827305691" lon="18.061987560128554"><ele>77.0</ele><time>2026-04-05T08:12:35Z</time></trkpt><trkpt lat="40.09814360807394" lon="18.06199916657239"><ele>77.5</ele><time>2026-04-05T08:12:36Z</time></trkpt><trkpt lat="40.09827203516348" lon="18.06201827296495"><ele>78.0</ele><time>2026-04-05T08:12:37Z</time></trkpt><trkpt lat="40.09840492899444" lon="18.062026401899733"><ele>78.5</ele><time>2026-04-05T08:12:38Z</time></trkpt><trkpt lat="40.09853381861392" lon="18.06203144791035"><ele>79.0</ele><time>2026-04-05T08:12:39Z</time></trkpt><trkpt lat="40.098643238619225" lon="18.06206085578105"><ele>79.0</ele><time>2026-04-05T08:12:40Z</time></trkpt><trkpt lat="40.09872744425859" lon="18.062055052218533"><ele>79.0</ele><time>2026-04-05T08:12:41Z</time></trkpt><trkpt lat="40.09884429073557" lon="18.062176845386123"><ele>79.0</ele><time>2026-04-05T08:12:43.001Z</time></trkpt><trkpt lat="40.098915184303706" lon="18.06225635367774"><ele>79.0</ele><time>2026-04-05T08:12:44.001Z</time></trkpt><trkpt lat="40.09897065420163" lon="18.062358264899053"><ele>79.0</ele><time>2026-04-05T08:12:45.001Z</time></trkpt><trkpt lat="40.09899501311941" lon="18.062486623653708"><ele>80.66666666666666</ele><time>2026-04-05T08:12:46.001Z</time></trkpt><trkpt lat="40.09905628468629" lon="18.06270981505727"><ele>82.33333333333333</ele><time>2026-04-05T08:12:47.001Z</time></trkpt><trkpt lat="40.09910714391808" lon="18.06289537744371"><ele>84.0</ele><time>2026-04-05T08:12:48.001Z</time></trkpt><trkpt lat="40.09916840817168" lon="18.06310782896731"><ele>84.0</ele><time>2026-04-05T08:12:49.001Z</time></trkpt><trkpt lat="40.09922309417678" lon="18.063230690198914"><ele>84.0</ele><time>2026-04-05T08:12:50.001Z</time></trkpt><trkpt lat="40.09922188577943" lon="18.063369290201248"><ele>84.0</ele><time>2026-04-05T08:12:51.001Z</time></trkpt><trkpt lat="40.099217484365326" lon="18.063469988073606"><ele>84.0</ele><time>2026-04-05T08:12:52.001Z</time></trkpt><trkpt lat="40.09922384623411" lon="18.06357130809099"><ele>84.0</ele><time>2026-04-05T08:12:53.001Z</time></trkpt><trkpt lat="40.099238734183835" lon="18.063698388648106"><ele>85.25</ele><time>2026-04-05T08:12:54.001Z</time></trkpt><trkpt lat="40.09928388482637" lon="18.06383215450207"><ele>86.5</ele><time>2026-04-05T08:12:55.001Z</time></trkpt><trkpt lat="40.099266967975154" lon="18.06396670135108"><ele>87.75</ele><time>2026-04-05T08:12:56.001Z</time></trkpt><trkpt lat="40.09917909972086" lon="18.064101121181697"><ele>89.0</ele><time>2026-04-05T08:12:57.001Z</time></trkpt><trkpt lat="40.09910976729261" lon="18.064201927706943"><ele>90.25</ele><time>2026-04-05T08:12:58.001Z</time></trkpt><trkpt lat="40.0989925312939" lon="18.064389399735404"><ele>91.5</ele><time>2026-04-05T08:12:59.001Z</time></trkpt><trkpt lat="40.098917304297984" lon="18.064510180735287"><ele>92.75</ele><time>2026-04-05T08:13:00.001Z</time></trkpt><trkpt lat="40.09884789333791" lon="18.064621708962708"><ele>94.0</ele><time>2026-04-05T08:13:01.001Z</time></trkpt><trkpt lat="40.09875825527279" lon="18.064765817453516"><ele>94.66666666666666</ele><time>2026-04-05T08:13:02.001Z</time></trkpt><trkpt lat="40.098641305651434" lon="18.064975953379175"><ele>95.33333333333333</ele><time>2026-04-05T08:13:03.001Z</time></trkpt><trkpt lat="40.09846213570432" lon="18.065147082077587"><ele>96.0</ele><time>2026-04-05T08:13:04.001Z</time></trkpt><trkpt lat="40.09834474521786" lon="18.065299718961093"><ele>96.0</ele><time>2026-04-05T08:13:05.001Z</time></trkpt><trkpt lat="40.09825606344105" lon="18.065430242065794"><ele>96.0</ele><time>2026-04-05T08:13:06.001Z</time></trkpt><trkpt lat="40.098245970593034" lon="18.06554810176083"><ele>96.0</ele><time>2026-04-05T08:13:07.001Z</time></trkpt><trkpt lat="40.09816378959226" lon="18.065708194132373"><ele>96.0</ele><time>2026-04-05T08:13:09.001Z</time></trkpt><trkpt lat="40.09810094672683" lon="18.065798980045276"><ele>96.5</ele><time>2026-04-05T08:13:10.001Z</time></trkpt><trkpt lat="40.0980411637245" lon="18.065894461674592"><ele>97.0</ele><time>2026-04-05T08:13:11.001Z</time></trkpt><trkpt lat="40.09797198643899" lon="18.066011078102594"><ele>97.5</ele><time>2026-04-05T08:13:12.001Z</time></trkpt><trkpt lat="40.097907400572055" lon="18.066143269410592"><ele>98.0</ele><time>2026-04-05T08:13:13.001Z</time></trkpt><trkpt lat="40.09780141418838" lon="18.066276426717668"><ele>98.0</ele><time>2026-04-05T08:13:14.001Z</time></trkpt><trkpt lat="40.09770638271666" lon="18.066425712604612"><ele>98.0</ele><time>2026-04-05T08:13:15.001Z</time></trkpt><trkpt lat="40.097605893883845" lon="18.066581369870693"><ele>98.0</ele><time>2026-04-05T08:13:16.001Z</time></trkpt><trkpt lat="40.097485940766525" lon="18.066767091968078"><ele>98.33333333333333</ele><time>2026-04-05T08:13:17.001Z</time></trkpt><trkpt lat="40.097386774378585" lon="18.066936305519857"><ele>98.66666666666666</ele><time>2026-04-05T08:13:18.001Z</time></trkpt><trkpt lat="40.09728759289898" lon="18.067080230326997"><ele>99.0</ele><time>2026-04-05T08:13:19.001Z</time></trkpt><trkpt lat="40.09716709823158" lon="18.06722129685488"><ele>99.0</ele><time>2026-04-05T08:13:20.001Z</time></trkpt><trkpt lat="40.097074039552105" lon="18.067337621734875"><ele>99.0</ele><time>2026-04-05T08:13:21.001Z</time></trkpt><trkpt lat="40.09700327275877" lon="18.06743176154599"><ele>99.0</ele><time>2026-04-05T08:13:22.001Z</time></trkpt><trkpt lat="40.096964648070774" lon="18.06756277386315"><ele>99.0</ele><time>2026-04-05T08:13:23.001Z</time></trkpt><trkpt lat="40.096921087638854" lon="18.06764956221528"><ele>99.0</ele><time>2026-04-05T08:13:24.001Z</time></trkpt><trkpt lat="40.096878707974035" lon="18.06772448197247"><ele>98.6</ele><time>2026-04-05T08:13:25.001Z</time></trkpt><trkpt lat="40.09686212362888" lon="18.067807152553524"><ele>98.2</ele><time>2026-04-05T08:13:26.001Z</time></trkpt><trkpt lat="40.09680502947373" lon="18.06795967306056"><ele>97.8</ele><time>2026-04-05T08:13:28.002Z</time></trkpt><trkpt lat="40.09677741081776" lon="18.068049335560122"><ele>97.39999999999999</ele><time>2026-04-05T08:13:29.002Z</time></trkpt><trkpt lat="40.096846008392006" lon="18.06814402694774"><ele>97.0</ele><time>2026-04-05T08:13:30.002Z</time></trkpt><trkpt lat="40.09687095472537" lon="18.06827174460298"><ele>97.0</ele><time>2026-04-05T08:13:31.002Z</time></trkpt><trkpt lat="40.0968919993172" lon="18.06842907778412"><ele>97.0</ele><time>2026-04-05T08:13:32.002Z</time></trkpt><trkpt lat="40.09694291552906" lon="18.068591462322548"><ele>97.0</ele><time>2026-04-05T08:13:33.002Z</time></trkpt><trkpt lat="40.097013228279756" lon="18.068752259076476"><ele>97.0</ele><time>2026-04-05T08:13:34.002Z</time></trkpt><trkpt lat="40.09705526316356" lon="18.068912363851975"><ele>97.0</ele><time>2026-04-05T08:13:35.002Z</time></trkpt><trkpt lat="40.097101305934245" lon="18.0690842694894"><ele>97.0</ele><time>2026-04-05T08:13:36.002Z</time></trkpt><trkpt lat="40.09713633183111" lon="18.069246436009806"><ele>97.0</ele><time>2026-04-05T08:13:37.002Z</time></trkpt><trkpt lat="40.097194978117045" lon="18.069392690333938"><ele>97.0</ele><time>2026-04-05T08:13:38.002Z</time></trkpt><trkpt lat="40.09722904170014" lon="18.069556539464614"><ele>97.0</ele><time>2026-04-05T08:13:39.002Z</time></trkpt><trkpt lat="40.097252171313734" lon="18.069703776357358"><ele>97.0</ele><time>2026-04-05T08:13:40.002Z</time></trkpt><trkpt lat="40.09729626034078" lon="18.06984383125978"><ele>97.0</ele><time>2026-04-05T08:13:41.002Z</time></trkpt><trkpt lat="40.09734417967424" lon="18.069983391348142"><ele>97.0</ele><time>2026-04-05T08:13:42.002Z</time></trkpt><trkpt lat="40.09739670190642" lon="18.07011873298099"><ele>96.5</ele><time>2026-04-05T08:13:43.002Z</time></trkpt><trkpt lat="40.09745596111158" lon="18.07026600046665"><ele>96.0</ele><time>2026-04-05T08:13:44.002Z</time></trkpt><trkpt lat="40.09746337505153" lon="18.070397359075262"><ele>95.5</ele><time>2026-04-05T08:13:45.002Z</time></trkpt><trkpt lat="40.097516880120274" lon="18.070547972576566"><ele>95.0</ele><time>2026-04-05T08:13:46.002Z</time></trkpt><trkpt lat="40.0975875591279" lon="18.070699588321443"><ele>95.0</ele><time>2026-04-05T08:13:47.002Z</time></trkpt><trkpt lat="40.097658209997896" lon="18.07085936689451"><ele>95.0</ele><time>2026-04-05T08:13:48.002Z</time></trkpt><trkpt lat="40.097720837767945" lon="18.071010867941713"><ele>95.0</ele><time>2026-04-05T08:13:49.002Z</time></trkpt><trkpt lat="40.09778179923934" lon="18.07116793836012"><ele>95.0</ele><time>2026-04-05T08:13:50.002Z</time></trkpt><trkpt lat="40.097852904773056" lon="18.0713338285725"><ele>95.0</ele><time>2026-04-05T08:13:51.002Z</time></trkpt><trkpt lat="40.09791928860878" lon="18.071481647343678"><ele>95.0</ele><time>2026-04-05T08:13:52.002Z</time></trkpt><trkpt lat="40.09797807136166" lon="18.07161832943907"><ele>95.0</ele><time>2026-04-05T08:13:53.002Z</time></trkpt><trkpt lat="40.09802608315475" lon="18.071749889220452"><ele>95.0</ele><time>2026-04-05T08:13:54.002Z</time></trkpt><trkpt lat="40.09807472967944" lon="18.07187967477098"><ele>95.25</ele><time>2026-04-05T08:13:55.002Z</time></trkpt><trkpt lat="40.09813190882333" lon="18.07201180918934"><ele>95.5</ele><time>2026-04-05T08:13:56.002Z</time></trkpt><trkpt lat="40.09818217162613" lon="18.072154793127122"><ele>95.75</ele><time>2026-04-05T08:13:57.002Z</time></trkpt><trkpt lat="40.098231720982746" lon="18.072309037495565"><ele>96.0</ele><time>2026-04-05T08:13:58.002Z</time></trkpt><trkpt lat="40.09829055839868" lon="18.07245800504623"><ele>96.25</ele><time>2026-04-05T08:13:59.002Z</time></trkpt><trkpt lat="40.09835881253271" lon="18.072618316293735"><ele>96.5</ele><time>2026-04-05T08:14:00.002Z</time></trkpt><trkpt lat="40.09841143742246" lon="18.072768947466436"><ele>96.75</ele><time>2026-04-05T08:14:01.002Z</time></trkpt><trkpt lat="40.09848367540349" lon="18.07292620626511"><ele>97.0</ele><time>2026-04-05T08:14:02.002Z</time></trkpt><trkpt lat="40.09856552339936" lon="18.073094993777193"><ele>97.0</ele><time>2026-04-05T08:14:03.002Z</time></trkpt><trkpt lat="40.09865161106197" lon="18.073265289233255"><ele>97.0</ele><time>2026-04-05T08:14:04.002Z</time></trkpt><trkpt lat="40.09875275267011" lon="18.073443572085086"><ele>97.0</ele><time>2026-04-05T08:14:05.002Z</time></trkpt><trkpt lat="40.09885080616644" lon="18.073619354585954"><ele>97.0</ele><time>2026-04-05T08:14:06.002Z</time></trkpt><trkpt lat="40.09895164814591" lon="18.073804307050004"><ele>97.0</ele><time>2026-04-05T08:14:07.002Z</time></trkpt><trkpt lat="40.09905607120132" lon="18.07399668579222"><ele>97.0</ele><time>2026-04-05T08:14:08.002Z</time></trkpt><trkpt lat="40.09916139021677" lon="18.074190179196158"><ele>98.0</ele><time>2026-04-05T08:14:09.002Z</time></trkpt><trkpt lat="40.09928091648896" lon="18.074383158941508"><ele>99.0</ele><time>2026-04-05T08:14:10.002Z</time></trkpt><trkpt lat="40.09938986577154" lon="18.074579160719768"><ele>100.0</ele><time>2026-04-05T08:14:11.002Z</time></trkpt><trkpt lat="40.09949426682568" lon="18.0747750814053"><ele>100.33333333333334</ele><time>2026-04-05T08:14:12.003Z</time></trkpt><trkpt lat="40.0996043572129" lon="18.07496008572314"><ele>100.66666666666666</ele><time>2026-04-05T08:14:13.003Z</time></trkpt><trkpt lat="40.09970905523178" lon="18.075154505899658"><ele>101.0</ele><time>2026-04-05T08:14:14.003Z</time></trkpt><trkpt lat="40.09984206024958" lon="18.075351445938296"><ele>101.0</ele><time>2026-04-05T08:14:15Z</time></trkpt><trkpt lat="40.099973371859086" lon="18.075559130253275"><ele>101.0</ele><time>2026-04-05T08:14:16Z</time></trkpt><trkpt lat="40.10009412811882" lon="18.07579690103866"><ele>101.0</ele><time>2026-04-05T08:14:17Z</time></trkpt><trkpt lat="40.100233405324644" lon="18.07604223299139"><ele>102.0</ele><time>2026-04-05T08:14:18Z</time></trkpt><trkpt lat="40.10037924157725" lon="18.076299118296323"><ele>103.0</ele><time>2026-04-05T08:14:19Z</time></trkpt><trkpt lat="40.10051197902958" lon="18.076532581551827"><ele>103.0</ele><time>2026-04-05T08:14:20Z</time></trkpt><trkpt lat="40.10064588048044" lon="18.07677859172457"><ele>103.0</ele><time>2026-04-05T08:14:21Z</time></trkpt><trkpt lat="40.100791072415745" lon="18.077009141473074"><ele>105.0</ele><time>2026-04-05T08:14:22Z</time></trkpt><trkpt lat="40.10118077114331" lon="18.07766003005759"><ele>105.0</ele><time>2026-04-05T08:14:25Z</time></trkpt><trkpt lat="40.101293177537876" lon="18.07787077186009"><ele>105.0</ele><time>2026-04-05T08:14:26Z</time></trkpt><trkpt lat="40.10138675085515" lon="18.078085617795654"><ele>105.0</ele><time>2026-04-05T08:14:27Z</time></trkpt><trkpt lat="40.10150087122867" lon="18.07828877188905"><ele>105.33333333333334</ele><time>2026-04-05T08:14:28Z</time></trkpt><trkpt lat="40.1016180773661" lon="18.078497968376812"><ele>105.66666666666667</ele><time>2026-04-05T08:14:29Z</time></trkpt><trkpt lat="40.101739834347725" lon="18.078692577356193"><ele>106.0</ele><time>2026-04-05T08:14:30Z</time></trkpt><trkpt lat="40.10185944513053" lon="18.07890218040083"><ele>105.66666666666667</ele><time>2026-04-05T08:14:31Z</time></trkpt><trkpt lat="40.101968588736284" lon="18.079108934782862"><ele>105.33333333333334</ele><time>2026-04-05T08:14:32Z</time></trkpt><trkpt lat="40.1020979697527" lon="18.079323757258077"><ele>105.0</ele><time>2026-04-05T08:14:33Z</time></trkpt><trkpt lat="40.10221441259963" lon="18.07953233506809"><ele>105.0</ele><time>2026-04-05T08:14:34Z</time></trkpt><trkpt lat="40.10232644067583" lon="18.079755614514077"><ele>105.0</ele><time>2026-04-05T08:14:35Z</time></trkpt><trkpt lat="40.102441258998496" lon="18.07997424373638"><ele>105.0</ele><time>2026-04-05T08:14:36Z</time></trkpt><trkpt lat="40.10256574019516" lon="18.08019817007626"><ele>105.33333333333334</ele><time>2026-04-05T08:14:37Z</time></trkpt><trkpt lat="40.10268627072428" lon="18.080422257089033"><ele>105.66666666666667</ele><time>2026-04-05T08:14:38Z</time></trkpt><trkpt lat="40.102823681896886" lon="18.080667930382162"><ele>106.0</ele><time>2026-04-05T08:14:39Z</time></trkpt><trkpt lat="40.10295375828663" lon="18.080891625584062"><ele>106.5</ele><time>2026-04-05T08:14:40Z</time></trkpt><trkpt lat="40.10309515686399" lon="18.081134026715866"><ele>107.0</ele><time>2026-04-05T08:14:41Z</time></trkpt><trkpt lat="40.10322153242141" lon="18.08136931391737"><ele>107.5</ele><time>2026-04-05T08:14:42Z</time></trkpt><trkpt lat="40.10335781216145" lon="18.081604989869085"><ele>108.0</ele><time>2026-04-05T08:14:43Z</time></trkpt><trkpt lat="40.103498603097975" lon="18.08184101724462"><ele>108.0</ele><time>2026-04-05T08:14:44Z</time></trkpt><trkpt lat="40.10362081504824" lon="18.08207155027415"><ele>108.0</ele><time>2026-04-05T08:14:45Z</time></trkpt><trkpt lat="40.1037482695399" lon="18.08230798513178"><ele>108.0</ele><time>2026-04-05T08:14:46Z</time></trkpt><trkpt lat="40.10387494627546" lon="18.08253953794323"><ele>108.0</ele><time>2026-04-05T08:14:47Z</time></trkpt><trkpt lat="40.10399659771417" lon="18.08276966443905"><ele>108.0</ele><time>2026-04-05T08:14:48Z</time></trkpt><trkpt lat="40.104116234549956" lon="18.082983647145408"><ele>108.0</ele><time>2026-04-05T08:14:49Z</time></trkpt><trkpt lat="40.1042421283332" lon="18.083204576665587"><ele>108.0</ele><time>2026-04-05T08:14:50Z</time></trkpt><trkpt lat="40.10436739467782" lon="18.083425673325216"><ele>108.0</ele><time>2026-04-05T08:14:51Z</time></trkpt><trkpt lat="40.104476275817916" lon="18.08362524194059"><ele>108.0</ele><time>2026-04-05T08:14:52Z</time></trkpt><trkpt lat="40.1045879634294" lon="18.08383246505294"><ele>108.0</ele><time>2026-04-05T08:14:53.001Z</time></trkpt><trkpt lat="40.10471112736643" lon="18.08403535417392"><ele>108.0</ele><time>2026-04-05T08:14:54.001Z</time></trkpt><trkpt lat="40.1048180534498" lon="18.08423871359064"><ele>108.0</ele><time>2026-04-05T08:14:55.001Z</time></trkpt><trkpt lat="40.104928704397544" lon="18.084461714825594"><ele>108.66666666666666</ele><time>2026-04-05T08:14:56.001Z</time></trkpt><trkpt lat="40.105045806950514" lon="18.08467273232897"><ele>109.33333333333333</ele><time>2026-04-05T08:14:57.001Z</time></trkpt><trkpt lat="40.10516734820394" lon="18.084892583835746"><ele>110.0</ele><time>2026-04-05T08:14:58.001Z</time></trkpt><trkpt lat="40.10528068594624" lon="18.085097648053953"><ele>111.0</ele><time>2026-04-05T08:14:59.001Z</time></trkpt><trkpt lat="40.10539695317416" lon="18.085308012741624"><ele>112.0</ele><time>2026-04-05T08:15:00.001Z</time></trkpt><trkpt lat="40.105507311846104" lon="18.085507686896065"><ele>113.0</ele><time>2026-04-05T08:15:01.001Z</time></trkpt><trkpt lat="40.10562616875944" lon="18.08572334835648"><ele>112.66666666666666</ele><time>2026-04-05T08:15:02.001Z</time></trkpt><trkpt lat="40.10575070698541" lon="18.085914016794966"><ele>112.33333333333334</ele><time>2026-04-05T08:15:03.001Z</time></trkpt><trkpt lat="40.10585626903762" lon="18.08614101283447"><ele>112.0</ele><time>2026-04-05T08:15:04.001Z</time></trkpt><trkpt lat="40.105977788886065" lon="18.086366600056692"><ele>112.0</ele><time>2026-04-05T08:15:05.001Z</time></trkpt><trkpt lat="40.10609910151439" lon="18.08658419258565"><ele>112.0</ele><time>2026-04-05T08:15:06.001Z</time></trkpt><trkpt lat="40.10618701093822" lon="18.086831294724615"><ele>112.0</ele><time>2026-04-05T08:15:07.001Z</time></trkpt><trkpt lat="40.10628483381267" lon="18.087059051425282"><ele>113.33333333333334</ele><time>2026-04-05T08:15:08.001Z</time></trkpt><trkpt lat="40.1063875510424" lon="18.087298203730953"><ele>114.66666666666666</ele><time>2026-04-05T08:15:09.001Z</time></trkpt><trkpt lat="40.10648103258427" lon="18.08751733772396"><ele>116.0</ele><time>2026-04-05T08:15:10.001Z</time></trkpt><trkpt lat="40.10657866841529" lon="18.08774768704325"><ele>116.33333333333333</ele><time>2026-04-05T08:15:11.001Z</time></trkpt><trkpt lat="40.106669026271504" lon="18.087960865163268"><ele>116.66666666666666</ele><time>2026-04-05T08:15:12.001Z</time></trkpt><trkpt lat="40.10676903300845" lon="18.088158114311135"><ele>117.0</ele><time>2026-04-05T08:15:13.001Z</time></trkpt><trkpt lat="40.10685151629323" lon="18.088368975944938"><ele>117.33333333333334</ele><time>2026-04-05T08:15:14.001Z</time></trkpt><trkpt lat="40.1069389889612" lon="18.088563059774003"><ele>117.66666666666667</ele><time>2026-04-05T08:15:15.001Z</time></trkpt><trkpt lat="40.107022064176476" lon="18.088769276445184"><ele>118.0</ele><time>2026-04-05T08:15:16.001Z</time></trkpt><trkpt lat="40.10710056743457" lon="18.088985235142907"><ele>117.33333333333334</ele><time>2026-04-05T08:15:17.001Z</time></trkpt><trkpt lat="40.107189158465125" lon="18.089197509575424"><ele>116.66666666666666</ele><time>2026-04-05T08:15:18.001Z</time></trkpt><trkpt lat="40.10729445905799" lon="18.089405022270995"><ele>116.0</ele><time>2026-04-05T08:15:19.001Z</time></trkpt><trkpt lat="40.10737739414392" lon="18.089614667182026"><ele>116.0</ele><time>2026-04-05T08:15:20.001Z</time></trkpt><trkpt lat="40.10746637991413" lon="18.08983571987803"><ele>116.0</ele><time>2026-04-05T08:15:21.001Z</time></trkpt><trkpt lat="40.10756962662166" lon="18.09007632547728"><ele>116.0</ele><time>2026-04-05T08:15:22.001Z</time></trkpt><trkpt lat="40.1076628501043" lon="18.090297804961015"><ele>116.66666666666666</ele><time>2026-04-05T08:15:23.001Z</time></trkpt><trkpt lat="40.10778063010071" lon="18.090537256459392"><ele>117.33333333333334</ele><time>2026-04-05T08:15:24.001Z</time></trkpt><trkpt lat="40.107884579816876" lon="18.090760719455677"><ele>118.0</ele><time>2026-04-05T08:15:25.001Z</time></trkpt><trkpt lat="40.108001195236554" lon="18.0909888975175"><ele>116.33333333333334</ele><time>2026-04-05T08:15:26.001Z</time></trkpt><trkpt lat="40.10811092795336" lon="18.091228880704875"><ele>114.66666666666666</ele><time>2026-04-05T08:15:27.001Z</time></trkpt><trkpt lat="40.10821672395155" lon="18.091464801365394"><ele>113.0</ele><time>2026-04-05T08:15:28.001Z</time></trkpt><trkpt lat="40.108339519946306" lon="18.091720599654053"><ele>112.0</ele><time>2026-04-05T08:15:29.001Z</time></trkpt><trkpt lat="40.10845867760843" lon="18.091965475117547"><ele>111.0</ele><time>2026-04-05T08:15:30.001Z</time></trkpt><trkpt lat="40.10857346129091" lon="18.09221014431215"><ele>110.0</ele><time>2026-04-05T08:15:31.001Z</time></trkpt><trkpt lat="40.10868579887028" lon="18.092470425318908"><ele>110.0</ele><time>2026-04-05T08:15:32.001Z</time></trkpt><trkpt lat="40.10880908215448" lon="18.09272583790106"><ele>110.0</ele><time>2026-04-05T08:15:33.001Z</time></trkpt><trkpt lat="40.10892845413421" lon="18.092967862091317"><ele>110.0</ele><time>2026-04-05T08:15:34.001Z</time></trkpt><trkpt lat="40.10905837253325" lon="18.09320621323793"><ele>110.0</ele><time>2026-04-05T08:15:35.001Z</time></trkpt><trkpt lat="40.10917730212004" lon="18.093440533359857"><ele>110.0</ele><time>2026-04-05T08:15:36.001Z</time></trkpt><trkpt lat="40.10928928171282" lon="18.093663169174082"><ele>109.0</ele><time>2026-04-05T08:15:37.001Z</time></trkpt><trkpt lat="40.10941193279315" lon="18.093901953863657"><ele>108.0</ele><time>2026-04-05T08:15:38.001Z</time></trkpt><trkpt lat="40.10950469701642" lon="18.094130735671634"><ele>107.0</ele><time>2026-04-05T08:15:39.002Z</time></trkpt><trkpt lat="40.10961631440457" lon="18.094358808087737"><ele>106.33333333333333</ele><time>2026-04-05T08:15:40.002Z</time></trkpt><trkpt lat="40.10973811698674" lon="18.094575848098078"><ele>105.66666666666666</ele><time>2026-04-05T08:15:41.002Z</time></trkpt><trkpt lat="40.109855508004934" lon="18.094829289618005"><ele>105.0</ele><time>2026-04-05T08:15:42.002Z</time></trkpt><trkpt lat="40.10998222827128" lon="18.09507734705121"><ele>104.0</ele><time>2026-04-05T08:15:43.002Z</time></trkpt><trkpt lat="40.11009920303209" lon="18.095358564452184"><ele>103.0</ele><time>2026-04-05T08:15:44.002Z</time></trkpt><trkpt lat="40.11022361337082" lon="18.09561477759269"><ele>103.0</ele><time>2026-04-05T08:15:45.002Z</time></trkpt><trkpt lat="40.11034421028761" lon="18.095863197204952"><ele>103.0</ele><time>2026-04-05T08:15:46.002Z</time></trkpt><trkpt lat="40.11045395510459" lon="18.096088390773467"><ele>103.0</ele><time>2026-04-05T08:15:47.002Z</time></trkpt><trkpt lat="40.110573514716016" lon="18.096312409535912"><ele>103.0</ele><time>2026-04-05T08:15:48.002Z</time></trkpt><trkpt lat="40.11067794368885" lon="18.096544435964027"><ele>103.0</ele><time>2026-04-05T08:15:49.002Z</time></trkpt><trkpt lat="40.11079957224681" lon="18.09678678030981"><ele>103.0</ele><time>2026-04-05T08:15:50.002Z</time></trkpt><trkpt lat="40.11091548805518" lon="18.09702965062953"><ele>102.33333333333334</ele><time>2026-04-05T08:15:51.002Z</time></trkpt><trkpt lat="40.111039068195545" lon="18.097268271816365"><ele>101.66666666666666</ele><time>2026-04-05T08:15:52.002Z</time></trkpt><trkpt lat="40.11115832496158" lon="18.09751230491004"><ele>101.0</ele><time>2026-04-05T08:15:53.002Z</time></trkpt><trkpt lat="40.11127215695417" lon="18.097777261260003"><ele>101.0</ele><time>2026-04-05T08:15:54.002Z</time></trkpt><trkpt lat="40.111406923916824" lon="18.09802894903956"><ele>101.0</ele><time>2026-04-05T08:15:55.002Z</time></trkpt><trkpt lat="40.11152672991692" lon="18.098272290539644"><ele>100.33333333333333</ele><time>2026-04-05T08:15:56.002Z</time></trkpt><trkpt lat="40.111646809819405" lon="18.09851367584571"><ele>99.66666666666666</ele><time>2026-04-05T08:15:57.002Z</time></trkpt><trkpt lat="40.11175599601894" lon="18.09877516193139"><ele>99.0</ele><time>2026-04-05T08:15:58.002Z</time></trkpt><trkpt lat="40.11187442613081" lon="18.09901887515386"><ele>99.5</ele><time>2026-04-05T08:15:59.002Z</time></trkpt><trkpt lat="40.112008416044226" lon="18.099258325400957"><ele>100.0</ele><time>2026-04-05T08:16:00.002Z</time></trkpt><trkpt lat="40.112124574353274" lon="18.0995176919355"><ele>100.0</ele><time>2026-04-05T08:16:01.002Z</time></trkpt><trkpt lat="40.11225280847271" lon="18.09978181132196"><ele>100.0</ele><time>2026-04-05T08:16:02.002Z</time></trkpt><trkpt lat="40.11237937995287" lon="18.100066613365563"><ele>99.5</ele><time>2026-04-05T08:16:03.002Z</time></trkpt><trkpt lat="40.1125251158698" lon="18.10036631116546"><ele>99.0</ele><time>2026-04-05T08:16:04.002Z</time></trkpt><trkpt lat="40.11267298860331" lon="18.100670403167513"><ele>99.0</ele><time>2026-04-05T08:16:05.002Z</time></trkpt><trkpt lat="40.11283310840452" lon="18.100968885818947"><ele>99.0</ele><time>2026-04-05T08:16:06.002Z</time></trkpt><trkpt lat="40.1129784361093" lon="18.10130539747188"><ele>99.0</ele><time>2026-04-05T08:16:07.002Z</time></trkpt><trkpt lat="40.113139110405704" lon="18.10159489709944"><ele>99.0</ele><time>2026-04-05T08:16:08.002Z</time></trkpt><trkpt lat="40.11328278005461" lon="18.10188995516276"><ele>99.0</ele><time>2026-04-05T08:16:09.002Z</time></trkpt><trkpt lat="40.11341377891037" lon="18.102199568233605"><ele>99.0</ele><time>2026-04-05T08:16:10.002Z</time></trkpt><trkpt lat="40.11354964135718" lon="18.102481815034373"><ele>99.5</ele><time>2026-04-05T08:16:11.002Z</time></trkpt><trkpt lat="40.113680286026245" lon="18.102750710483537"><ele>100.0</ele><time>2026-04-05T08:16:12.002Z</time></trkpt><trkpt lat="40.11381242926617" lon="18.103008251160414"><ele>100.0</ele><time>2026-04-05T08:16:13.002Z</time></trkpt><trkpt lat="40.113934104137776" lon="18.10327389985098"><ele>100.0</ele><time>2026-04-05T08:16:14.002Z</time></trkpt><trkpt lat="40.114082621075944" lon="18.10356835497996"><ele>99.0</ele><time>2026-04-05T08:16:15.002Z</time></trkpt><trkpt lat="40.114235056688045" lon="18.103872173051787"><ele>98.0</ele><time>2026-04-05T08:16:16.002Z</time></trkpt><trkpt lat="40.114381066055174" lon="18.104169992992738"><ele>98.0</ele><time>2026-04-05T08:16:17.002Z</time></trkpt><trkpt lat="40.11452247880298" lon="18.10447043299278"><ele>98.0</ele><time>2026-04-05T08:16:18.002Z</time></trkpt><trkpt lat="40.114674159565226" lon="18.10479932478121"><ele>97.5</ele><time>2026-04-05T08:16:19.002Z</time></trkpt><trkpt lat="40.11482999755716" lon="18.10511898842202"><ele>97.0</ele><time>2026-04-05T08:16:20.002Z</time></trkpt><trkpt lat="40.11498915032037" lon="18.105425696731633"><ele>97.0</ele><time>2026-04-05T08:16:21Z</time></trkpt><trkpt lat="40.11512033954105" lon="18.105723264923355"><ele>97.0</ele><time>2026-04-05T08:16:22Z</time></trkpt><trkpt lat="40.11525489812004" lon="18.106007393407246"><ele>98.0</ele><time>2026-04-05T08:16:23Z</time></trkpt><trkpt lat="40.11539344289948" lon="18.10628175572999"><ele>99.0</ele><time>2026-04-05T08:16:24Z</time></trkpt><trkpt lat="40.11552653466434" lon="18.10654095996616"><ele>99.0</ele><time>2026-04-05T08:16:25Z</time></trkpt><trkpt lat="40.115649774956374" lon="18.10677245658082"><ele>99.0</ele><time>2026-04-05T08:16:26Z</time></trkpt><trkpt lat="40.115766078863636" lon="18.106999100965155"><ele>99.0</ele><time>2026-04-05T08:16:27Z</time></trkpt><trkpt lat="40.115857498993066" lon="18.107211754655047"><ele>99.0</ele><time>2026-04-05T08:16:28Z</time></trkpt><trkpt lat="40.11595105049057" lon="18.107409044717684"><ele>99.0</ele><time>2026-04-05T08:16:29Z</time></trkpt><trkpt lat="40.11602714075857" lon="18.10758067653235"><ele>99.0</ele><time>2026-04-05T08:16:30Z</time></trkpt><trkpt lat="40.1161020324382" lon="18.107735622467853"><ele>99.0</ele><time>2026-04-05T08:16:31Z</time></trkpt><trkpt lat="40.11616942709783" lon="18.107871424139844"><ele>99.0</ele><time>2026-04-05T08:16:32Z</time></trkpt><trkpt lat="40.11622376589238" lon="18.107988220918376"><ele>99.0</ele><time>2026-04-05T08:16:33Z</time></trkpt><trkpt lat="40.11627971717951" lon="18.108092108306305"><ele>99.0</ele><time>2026-04-05T08:16:34Z</time></trkpt><trkpt lat="40.116333236993064" lon="18.108162762090036"><ele>99.0</ele><time>2026-04-05T08:16:35Z</time></trkpt><trkpt lat="40.11638636904047" lon="18.108220602063255"><ele>99.0</ele><time>2026-04-05T08:16:36Z</time></trkpt><trkpt lat="40.116477168199765" lon="18.108233836440384"><ele>99.0</ele><time>2026-04-05T08:16:37Z</time></trkpt><trkpt lat="40.116586701745625" lon="18.10820521848175"><ele>99.0</ele><time>2026-04-05T08:16:38Z</time></trkpt><trkpt lat="40.116704842277365" lon="18.108147194915798"><ele>99.0</ele><time>2026-04-05T08:16:39Z</time></trkpt><trkpt lat="40.11686936301865" lon="18.10811896506114"><ele>98.33333333333334</ele><time>2026-04-05T08:16:40Z</time></trkpt><trkpt lat="40.11701493129936" lon="18.10799136107309"><ele>97.66666666666667</ele><time>2026-04-05T08:16:41Z</time></trkpt><trkpt lat="40.11716029290558" lon="18.107857035779922"><ele>97.0</ele><time>2026-04-05T08:16:42Z</time></trkpt><trkpt lat="40.11730562439406" lon="18.107751120177543"><ele>97.0</ele><time>2026-04-05T08:16:43Z</time></trkpt><trkpt lat="40.11741864204568" lon="18.10763679562003"><ele>97.0</ele><time>2026-04-05T08:16:44Z</time></trkpt><trkpt lat="40.117497952337864" lon="18.107570684147873"><ele>97.0</ele><time>2026-04-05T08:16:45Z</time></trkpt><trkpt lat="40.11760319377881" lon="18.107591976193174"><ele>97.0</ele><time>2026-04-05T08:16:46Z</time></trkpt><trkpt lat="40.1176768901102" lon="18.107543229993226"><ele>97.0</ele><time>2026-04-05T08:16:47Z</time></trkpt><trkpt lat="40.1177615555833" lon="18.107533124848217"><ele>97.0</ele><time>2026-04-05T08:16:48Z</time></trkpt><trkpt lat="40.11785195517816" lon="18.107550214393964"><ele>97.0</ele><time>2026-04-05T08:16:49Z</time></trkpt><trkpt lat="40.117944723835215" lon="18.10758587184248"><ele>97.0</ele><time>2026-04-05T08:16:50Z</time></trkpt><trkpt lat="40.11793083389608" lon="18.107687160329608"><ele>97.0</ele><time>2026-04-05T08:16:51Z</time></trkpt><trkpt lat="40.117953294734434" lon="18.107803337508194"><ele>97.0</ele><time>2026-04-05T08:16:52Z</time></trkpt><trkpt lat="40.117996166113244" lon="18.107937805175496"><ele>97.0</ele><time>2026-04-05T08:16:53Z</time></trkpt><trkpt lat="40.11800141107631" lon="18.10814272413178"><ele>97.0</ele><time>2026-04-05T08:16:54Z</time></trkpt><trkpt lat="40.11807333949707" lon="18.108292538791574"><ele>97.0</ele><time>2026-04-05T08:16:55Z</time></trkpt><trkpt lat="40.11817362152545" lon="18.108462273111794"><ele>97.0</ele><time>2026-04-05T08:16:56Z</time></trkpt><trkpt lat="40.118243784390295" lon="18.108565271737437"><ele>97.0</ele><time>2026-04-05T08:16:57Z</time></trkpt><trkpt lat="40.11818979835323" lon="18.108684695511684"><ele>97.0</ele><time>2026-04-05T08:16:59.001Z</time></trkpt><trkpt lat="40.118200194181206" lon="18.108830738660952"><ele>97.0</ele><time>2026-04-05T08:17:01.001Z</time></trkpt><trkpt lat="40.11813148245857" lon="18.10879297275212"><ele>97.0</ele><time>2026-04-05T08:17:03.001Z</time></trkpt><trkpt lat="40.118104688049684" lon="18.108884520720565"><ele>97.0</ele><time>2026-04-05T08:17:05.001Z</time></trkpt><trkpt lat="40.11797213846696" lon="18.10901378176294"><ele>97.0</ele><time>2026-04-05T08:17:06.001Z</time></trkpt><trkpt lat="40.117853341277446" lon="18.10903999254274"><ele>97.0</ele><time>2026-04-05T08:17:07.001Z</time></trkpt><trkpt lat="40.11777169061007" lon="18.109076054083573"><ele>97.0</ele><time>2026-04-05T08:17:08.001Z</time></trkpt><trkpt lat="40.11764652832824" lon="18.10912319311564"><ele>97.00000000000001</ele><time>2026-04-05T08:17:10.001Z</time></trkpt><trkpt lat="40.11759184728119" lon="18.109166891298916"><ele>97.0</ele><time>2026-04-05T08:17:11.001Z</time></trkpt><trkpt lat="40.11753585433767" lon="18.109206951739328"><ele>97.0</ele><time>2026-04-05T08:17:12.001Z</time></trkpt><trkpt lat="40.117438922862654" lon="18.109259795952738"><ele>97.0</ele><time>2026-04-05T08:17:14.001Z</time></trkpt><trkpt lat="40.11739124334592" lon="18.109329134710624"><ele>97.00000000000001</ele><time>2026-04-05T08:17:17.001Z</time></trkpt><trkpt lat="40.117321340937124" lon="18.109351118880294"><ele>97.0</ele><time>2026-04-05T08:17:26.001Z</time></trkpt><trkpt lat="40.11720699905656" lon="18.109389255921197"><ele>97.75</ele><time>2026-04-05T08:17:31.001Z</time></trkpt><trkpt lat="40.11712116088545" lon="18.10943584444056"><ele>98.5</ele><time>2026-04-05T08:17:33.001Z</time></trkpt><trkpt lat="40.11704811513386" lon="18.109493509196323"><ele>99.25</ele><time>2026-04-05T08:17:35.001Z</time></trkpt><trkpt lat="40.11698354983829" lon="18.109552180739104"><ele>100.0</ele><time>2026-04-05T08:17:37.001Z</time></trkpt><trkpt lat="40.117077410347115" lon="18.109774038428913"><ele>100.0</ele><time>2026-04-05T08:17:38.001Z</time></trkpt><trkpt lat="40.11711722002317" lon="18.109905746357313"><ele>100.0</ele><time>2026-04-05T08:17:39.001Z</time></trkpt><trkpt lat="40.117151505722596" lon="18.110017337701333"><ele>100.0</ele><time>2026-04-05T08:17:40.001Z</time></trkpt><trkpt lat="40.117189867897096" lon="18.11011932173964"><ele>100.0</ele><time>2026-04-05T08:17:41.001Z</time></trkpt><trkpt lat="40.1172435708681" lon="18.11024203355387"><ele>100.0</ele><time>2026-04-05T08:17:42.001Z</time></trkpt><trkpt lat="40.11730391070448" lon="18.110357032855532"><ele>99.66666666666667</ele><time>2026-04-05T08:17:43.001Z</time></trkpt><trkpt lat="40.11737722939901" lon="18.11053288904681"><ele>99.33333333333334</ele><time>2026-04-05T08:17:44.002Z</time></trkpt><trkpt lat="40.11751369896755" lon="18.110749509015744"><ele>99.0</ele><time>2026-04-05T08:17:45.002Z</time></trkpt><trkpt lat="40.117627840542326" lon="18.110985344847727"><ele>97.0</ele><time>2026-04-05T08:17:46.002Z</time></trkpt><trkpt lat="40.11776300001763" lon="18.11125908845465"><ele>95.0</ele><time>2026-04-05T08:17:47.002Z</time></trkpt><trkpt lat="40.117921291301016" lon="18.11151344278266"><ele>93.0</ele><time>2026-04-05T08:17:48.002Z</time></trkpt><trkpt lat="40.118015204563825" lon="18.11174213971831"><ele>91.0</ele><time>2026-04-05T08:17:49.002Z</time></trkpt><trkpt lat="40.11812533169656" lon="18.111945374657783"><ele>89.0</ele><time>2026-04-05T08:17:50.002Z</time></trkpt><trkpt lat="40.11821996726451" lon="18.11215596185081"><ele>89.66666666666667</ele><time>2026-04-05T08:17:51.002Z</time></trkpt><trkpt lat="40.118300821615755" lon="18.112347215686647"><ele>90.33333333333333</ele><time>2026-04-05T08:17:52.002Z</time></trkpt><trkpt lat="40.11839781678506" lon="18.112584881024116"><ele>91.0</ele><time>2026-04-05T08:17:53.002Z</time></trkpt><trkpt lat="40.11849877022537" lon="18.11278232036745"><ele>89.66666666666666</ele><time>2026-04-05T08:17:54.002Z</time></trkpt><trkpt lat="40.118613644966125" lon="18.112953278351494"><ele>88.33333333333333</ele><time>2026-04-05T08:17:55.002Z</time></trkpt><trkpt lat="40.11871790897363" lon="18.113118636007137"><ele>87.0</ele><time>2026-04-05T08:17:56.002Z</time></trkpt><trkpt lat="40.11882344101009" lon="18.113293677933534"><ele>86.66666666666667</ele><time>2026-04-05T08:17:57.002Z</time></trkpt><trkpt lat="40.11893732682714" lon="18.11343550417764"><ele>86.33333333333334</ele><time>2026-04-05T08:17:58.002Z</time></trkpt><trkpt lat="40.119051676090805" lon="18.11359439801808"><ele>86.0</ele><time>2026-04-05T08:17:59.002Z</time></trkpt><trkpt lat="40.119149056686226" lon="18.1137453734871"><ele>85.66666666666667</ele><time>2026-04-05T08:18:00.002Z</time></trkpt><trkpt lat="40.11925875981636" lon="18.113897494712795"><ele>85.33333333333333</ele><time>2026-04-05T08:18:01.002Z</time></trkpt><trkpt lat="40.11936053888342" lon="18.114039032903648"><ele>85.0</ele><time>2026-04-05T08:18:02.002Z</time></trkpt><trkpt lat="40.1194714345597" lon="18.1142064313063"><ele>84.66666666666666</ele><time>2026-04-05T08:18:03.002Z</time></trkpt><trkpt lat="40.11957911070831" lon="18.11439296086245"><ele>84.33333333333333</ele><time>2026-04-05T08:18:04.002Z</time></trkpt><trkpt lat="40.119706335123915" lon="18.114604384174896"><ele>84.0</ele><time>2026-04-05T08:18:05.002Z</time></trkpt><trkpt lat="40.11985582025945" lon="18.114818976427262"><ele>84.5</ele><time>2026-04-05T08:18:06.002Z</time></trkpt><trkpt lat="40.1200177033382" lon="18.115053986350024"><ele>85.0</ele><time>2026-04-05T08:18:07.002Z</time></trkpt><trkpt lat="40.12018568106477" lon="18.115300320138967"><ele>85.0</ele><time>2026-04-05T08:18:08.002Z</time></trkpt><trkpt lat="40.12036858616882" lon="18.11558205219107"><ele>85.0</ele><time>2026-04-05T08:18:09.002Z</time></trkpt><trkpt lat="40.12054937058877" lon="18.115845494562087"><ele>84.0</ele><time>2026-04-05T08:18:10.002Z</time></trkpt><trkpt lat="40.12072921296268" lon="18.1160934501277"><ele>83.0</ele><time>2026-04-05T08:18:11.002Z</time></trkpt><trkpt lat="40.12089324473606" lon="18.116338074109464"><ele>82.0</ele><time>2026-04-05T08:18:12.002Z</time></trkpt><trkpt lat="40.12105409651283" lon="18.11657465623089"><ele>81.0</ele><time>2026-04-05T08:18:13.002Z</time></trkpt><trkpt lat="40.121203056404816" lon="18.116809005562672"><ele>81.0</ele><time>2026-04-05T08:18:14.002Z</time></trkpt><trkpt lat="40.12136258609986" lon="18.117046343818718"><ele>81.0</ele><time>2026-04-05T08:18:15.002Z</time></trkpt><trkpt lat="40.121528329962246" lon="18.117292093417234"><ele>80.5</ele><time>2026-04-05T08:18:16.002Z</time></trkpt><trkpt lat="40.12168507295392" lon="18.117514838554996"><ele>80.0</ele><time>2026-04-05T08:18:17.002Z</time></trkpt><trkpt lat="40.1218297571597" lon="18.11773288485601"><ele>80.0</ele><time>2026-04-05T08:18:18.002Z</time></trkpt><trkpt lat="40.121958030054806" lon="18.117940052125093"><ele>80.0</ele><time>2026-04-05T08:18:19.002Z</time></trkpt><trkpt lat="40.12209414484375" lon="18.118159288927295"><ele>80.0</ele><time>2026-04-05T08:18:20.002Z</time></trkpt><trkpt lat="40.122232763531976" lon="18.118365184089466"><ele>80.0</ele><time>2026-04-05T08:18:21.002Z</time></trkpt><trkpt lat="40.122363225494674" lon="18.118544791460863"><ele>80.0</ele><time>2026-04-05T08:18:22.002Z</time></trkpt><trkpt lat="40.12247851587674" lon="18.118728660453314"><ele>80.0</ele><time>2026-04-05T08:18:23.002Z</time></trkpt><trkpt lat="40.12259001500337" lon="18.11889441856836"><ele>80.33333333333334</ele><time>2026-04-05T08:18:24.002Z</time></trkpt><trkpt lat="40.12270610095938" lon="18.119074732480065"><ele>80.66666666666667</ele><time>2026-04-05T08:18:25.002Z</time></trkpt><trkpt lat="40.12282542539728" lon="18.119254840221117"><ele>81.0</ele><time>2026-04-05T08:18:26.002Z</time></trkpt><trkpt lat="40.12293824540957" lon="18.11942405227566"><ele>81.0</ele><time>2026-04-05T08:18:27Z</time></trkpt><trkpt lat="40.123048823093264" lon="18.11958258404131"><ele>81.0</ele><time>2026-04-05T08:18:28Z</time></trkpt><trkpt lat="40.12315001071067" lon="18.11974062164737"><ele>81.0</ele><time>2026-04-05T08:18:29Z</time></trkpt><trkpt lat="40.12322551388055" lon="18.11991174130994"><ele>80.25</ele><time>2026-04-05T08:18:30Z</time></trkpt><trkpt lat="40.1233084239118" lon="18.120036331252507"><ele>79.5</ele><time>2026-04-05T08:18:31Z</time></trkpt><trkpt lat="40.12335610684488" lon="18.120201178315682"><ele>78.75</ele><time>2026-04-05T08:18:32Z</time></trkpt><trkpt lat="40.123431148792676" lon="18.120323989945586"><ele>78.0</ele><time>2026-04-05T08:18:33Z</time></trkpt><trkpt lat="40.123487300482886" lon="18.120412229896953"><ele>78.0</ele><time>2026-04-05T08:18:34Z</time></trkpt><trkpt lat="40.12352290577781" lon="18.120489908969393"><ele>78.0</ele><time>2026-04-05T08:18:35Z</time></trkpt><trkpt lat="40.123557699207566" lon="18.120559467789686"><ele>78.0</ele><time>2026-04-05T08:18:37Z</time></trkpt><trkpt lat="40.12370459378266" lon="18.120381294487842"><ele>78.0</ele><time>2026-04-05T08:18:41Z</time></trkpt><trkpt lat="40.123739996679916" lon="18.120305552029034"><ele>78.0</ele><time>2026-04-05T08:18:42Z</time></trkpt><trkpt lat="40.12383116875147" lon="18.120295426553685"><ele>78.0</ele><time>2026-04-05T08:18:44Z</time></trkpt><trkpt lat="40.12390622629498" lon="18.120232667286825"><ele>78.0</ele><time>2026-04-05T08:18:48Z</time></trkpt><trkpt lat="40.123858993940786" lon="18.11998662419679"><ele>78.0</ele><time>2026-04-05T08:18:53Z</time></trkpt><trkpt lat="40.123781239404316" lon="18.12000774044972"><ele>78.0</ele><time>2026-04-05T08:18:57Z</time></trkpt><trkpt lat="40.12384972201633" lon="18.119925193105917"><ele>78.0</ele><time>2026-04-05T08:19:12.001Z</time></trkpt><trkpt lat="40.123765312558675" lon="18.11998737487129"><ele>78.0</ele><time>2026-04-05T08:19:19.001Z</time></trkpt><trkpt lat="40.123702055667636" lon="18.11995636595329"><ele>78.0</ele><time>2026-04-05T08:23:22.001Z</time></trkpt><trkpt lat="40.1236492303049" lon="18.11988567773576"><ele>78.0</ele><time>2026-04-05T08:23:26.001Z</time></trkpt><trkpt lat="40.12357340473525" lon="18.119910550544972"><ele>78.0</ele><time>2026-04-05T08:23:29.001Z</time></trkpt><trkpt lat="40.12351424630714" lon="18.120022071666178"><ele>78.0</ele><time>2026-04-05T08:23:32.001Z</time></trkpt><trkpt lat="40.123438520276615" lon="18.120019897137787"><ele>78.0</ele><time>2026-04-05T08:23:37.001Z</time></trkpt><trkpt lat="40.12336603528433" lon="18.12009972369086"><ele>78.0</ele><time>2026-04-05T08:23:43.001Z</time></trkpt><trkpt lat="40.123433428035526" lon="18.120321597644317"><ele>78.0</ele><time>2026-04-05T08:23:45.001Z</time></trkpt><trkpt lat="40.12346060991175" lon="18.12040417473174"><ele>78.0</ele><time>2026-04-05T08:23:46.001Z</time></trkpt><trkpt lat="40.12349356969972" lon="18.12048835681032"><ele>78.0</ele><time>2026-04-05T08:23:47.001Z</time></trkpt><trkpt lat="40.1235333107096" lon="18.120577263242414"><ele>78.0</ele><time>2026-04-05T08:23:48.001Z</time></trkpt><trkpt lat="40.1235647808136" lon="18.12066797148578"><ele>78.0</ele><time>2026-04-05T08:23:49.001Z</time></trkpt><trkpt lat="40.12359965024213" lon="18.120758259989127"><ele>78.0</ele><time>2026-04-05T08:23:50.002Z</time></trkpt><trkpt lat="40.12365084167715" lon="18.120855376348015"><ele>78.0</ele><time>2026-04-05T08:23:51.002Z</time></trkpt><trkpt lat="40.12367645819065" lon="18.120955432690685"><ele>78.0</ele><time>2026-04-05T08:23:52.002Z</time></trkpt><trkpt lat="40.123726264036414" lon="18.121033664484482"><ele>78.0</ele><time>2026-04-05T08:23:53.002Z</time></trkpt><trkpt lat="40.123776697247386" lon="18.121131811207146"><ele>78.28571428571429</ele><time>2026-04-05T08:23:54.002Z</time></trkpt><trkpt lat="40.123824997187874" lon="18.12122242846587"><ele>78.57142857142857</ele><time>2026-04-05T08:23:55.002Z</time></trkpt><trkpt lat="40.12386440726781" lon="18.12131645733026"><ele>78.85714285714286</ele><time>2026-04-05T08:23:56.002Z</time></trkpt><trkpt lat="40.12390859152546" lon="18.12139209595612"><ele>79.14285714285714</ele><time>2026-04-05T08:23:57.002Z</time></trkpt><trkpt lat="40.12395470198735" lon="18.12146155722673"><ele>79.42857142857143</ele><time>2026-04-05T08:23:58.002Z</time></trkpt><trkpt lat="40.1239934861073" lon="18.12153240258666"><ele>79.71428571428571</ele><time>2026-04-05T08:23:59.002Z</time></trkpt><trkpt lat="40.12401930515641" lon="18.121618495922732"><ele>80.0</ele><time>2026-04-05T08:24:00.002Z</time></trkpt><trkpt lat="40.12406271242532" lon="18.121683043316885"><ele>80.0</ele><time>2026-04-05T08:24:01.002Z</time></trkpt><trkpt lat="40.12413037946929" lon="18.121816637707415"><ele>80.0</ele><time>2026-04-05T08:24:03.002Z</time></trkpt><trkpt lat="40.12419171807283" lon="18.121902320159954"><ele>80.0</ele><time>2026-04-05T08:24:04.002Z</time></trkpt><trkpt lat="40.123983842294386" lon="18.122212478570976"><ele>80.0</ele><time>2026-04-05T08:24:05.002Z</time></trkpt><trkpt lat="40.12398180751762" lon="18.122378610859567"><ele>80.0</ele><time>2026-04-05T08:24:06.002Z</time></trkpt><trkpt lat="40.12397429169569" lon="18.122539181647817"><ele>80.0</ele><time>2026-04-05T08:24:07.002Z</time></trkpt><trkpt lat="40.12395662493345" lon="18.122699105085317"><ele>80.0</ele><time>2026-04-05T08:24:08.002Z</time></trkpt><trkpt lat="40.123938307442124" lon="18.122866756151247"><ele>79.66666666666667</ele><time>2026-04-05T08:24:09.002Z</time></trkpt><trkpt lat="40.12392627514542" lon="18.123040088958213"><ele>79.33333333333333</ele><time>2026-04-05T08:24:10.002Z</time></trkpt><trkpt lat="40.12389289281247" lon="18.123238472130055"><ele>79.0</ele><time>2026-04-05T08:24:11.002Z</time></trkpt><trkpt lat="40.123860880227525" lon="18.123451238035702"><ele>79.0</ele><time>2026-04-05T08:24:12.002Z</time></trkpt><trkpt lat="40.12383678707522" lon="18.123672455502756"><ele>79.0</ele><time>2026-04-05T08:24:13.002Z</time></trkpt><trkpt lat="40.12381810318689" lon="18.12387618442076"><ele>79.0</ele><time>2026-04-05T08:24:14.002Z</time></trkpt><trkpt lat="40.12377856986901" lon="18.124093868169204"><ele>78.33333333333333</ele><time>2026-04-05T08:24:15.002Z</time></trkpt><trkpt lat="40.12375171795319" lon="18.124307050927566"><ele>77.66666666666667</ele><time>2026-04-05T08:24:16.002Z</time></trkpt><trkpt lat="40.12372004411954" lon="18.124522892188725"><ele>77.0</ele><time>2026-04-05T08:24:17.002Z</time></trkpt><trkpt lat="40.123693073170045" lon="18.12474696393806"><ele>76.66666666666667</ele><time>2026-04-05T08:24:18.002Z</time></trkpt><trkpt lat="40.12366641773857" lon="18.12499501735784"><ele>76.33333333333333</ele><time>2026-04-05T08:24:19.002Z</time></trkpt><trkpt lat="40.123640319604085" lon="18.125207258948276"><ele>76.0</ele><time>2026-04-05T08:24:20.002Z</time></trkpt><trkpt lat="40.12360605582218" lon="18.12540057751445"><ele>76.0</ele><time>2026-04-05T08:24:21.002Z</time></trkpt><trkpt lat="40.12358772386982" lon="18.12557092418177"><ele>76.0</ele><time>2026-04-05T08:24:22.002Z</time></trkpt><trkpt lat="40.123559962021865" lon="18.12572843665507"><ele>76.0</ele><time>2026-04-05T08:24:23.002Z</time></trkpt><trkpt lat="40.12355215788934" lon="18.125917721583484"><ele>76.0</ele><time>2026-04-05T08:24:24.002Z</time></trkpt><trkpt lat="40.12352357803857" lon="18.126132355530498"><ele>76.33333333333333</ele><time>2026-04-05T08:24:25.002Z</time></trkpt><trkpt lat="40.12348819436218" lon="18.126360322584397"><ele>76.66666666666667</ele><time>2026-04-05T08:24:26.002Z</time></trkpt><trkpt lat="40.123466897355335" lon="18.12661245616968"><ele>77.0</ele><time>2026-04-05T08:24:27.002Z</time></trkpt><trkpt lat="40.12343968533244" lon="18.126867674354425"><ele>77.0</ele><time>2026-04-05T08:24:28.002Z</time></trkpt><trkpt lat="40.123411706221255" lon="18.12713447420975"><ele>77.0</ele><time>2026-04-05T08:24:29.002Z</time></trkpt><trkpt lat="40.1233946020995" lon="18.127411113997212"><ele>77.0</ele><time>2026-04-05T08:24:30.002Z</time></trkpt><trkpt lat="40.12338298466191" lon="18.127688058267587"><ele>77.0</ele><time>2026-04-05T08:24:31.002Z</time></trkpt><trkpt lat="40.12338438036501" lon="18.127973761185075"><ele>77.0</ele><time>2026-04-05T08:24:32.002Z</time></trkpt><trkpt lat="40.123382915979064" lon="18.128261192530402"><ele>77.0</ele><time>2026-04-05T08:24:33.002Z</time></trkpt><trkpt lat="40.12339974870049" lon="18.12856644695165"><ele>77.0</ele><time>2026-04-05T08:24:34.002Z</time></trkpt><trkpt lat="40.12341910001549" lon="18.128892697613903"><ele>77.0</ele><time>2026-04-05T08:24:35.002Z</time></trkpt><trkpt lat="40.123415936707595" lon="18.129195433594358"><ele>77.5</ele><time>2026-04-05T08:24:36.002Z</time></trkpt><trkpt lat="40.12341881892115" lon="18.129540600531257"><ele>78.0</ele><time>2026-04-05T08:24:37.002Z</time></trkpt><trkpt lat="40.12342719144437" lon="18.129881757329876"><ele>77.5</ele><time>2026-04-05T08:24:38.002Z</time></trkpt><trkpt lat="40.12342410826717" lon="18.130217877306105"><ele>77.0</ele><time>2026-04-05T08:24:39.003Z</time></trkpt><trkpt lat="40.12342994372735" lon="18.13053617513534"><ele>76.0</ele><time>2026-04-05T08:24:40.003Z</time></trkpt><trkpt lat="40.12342293125465" lon="18.130847411720243"><ele>75.0</ele><time>2026-04-05T08:24:41.003Z</time></trkpt><trkpt lat="40.12342063810144" lon="18.13117249635958"><ele>75.0</ele><time>2026-04-05T08:24:42.003Z</time></trkpt><trkpt lat="40.123425781352644" lon="18.1314875780557"><ele>75.0</ele><time>2026-04-05T08:24:43.003Z</time></trkpt><trkpt lat="40.12342967775394" lon="18.131788926587404"><ele>74.0</ele><time>2026-04-05T08:24:44.003Z</time></trkpt><trkpt lat="40.12341874188861" lon="18.13210263867494"><ele>73.0</ele><time>2026-04-05T08:24:45.001Z</time></trkpt><trkpt lat="40.12342189742152" lon="18.132410254798096"><ele>73.0</ele><time>2026-04-05T08:24:46.001Z</time></trkpt><trkpt lat="40.123418395467084" lon="18.132723844805188"><ele>73.0</ele><time>2026-04-05T08:24:47.001Z</time></trkpt><trkpt lat="40.12340993221746" lon="18.133029099890887"><ele>74.0</ele><time>2026-04-05T08:24:48.001Z</time></trkpt><trkpt lat="40.12341548089193" lon="18.133309581588872"><ele>75.0</ele><time>2026-04-05T08:24:49.001Z</time></trkpt><trkpt lat="40.12339573162018" lon="18.133584511633323"><ele>76.0</ele><time>2026-04-05T08:24:50.001Z</time></trkpt><trkpt lat="40.123404089494684" lon="18.13383881814345"><ele>76.33333333333333</ele><time>2026-04-05T08:24:51.001Z</time></trkpt><trkpt lat="40.123413730292086" lon="18.13406078199495"><ele>76.66666666666667</ele><time>2026-04-05T08:24:52.001Z</time></trkpt><trkpt lat="40.1234411947727" lon="18.13429262575922"><ele>77.0</ele><time>2026-04-05T08:24:53.001Z</time></trkpt><trkpt lat="40.12346696074537" lon="18.134541779617816"><ele>77.0</ele><time>2026-04-05T08:24:54.001Z</time></trkpt><trkpt lat="40.12355192236197" lon="18.13474744163716"><ele>77.0</ele><time>2026-04-05T08:24:55.001Z</time></trkpt><trkpt lat="40.12362722488836" lon="18.134950321004712"><ele>77.0</ele><time>2026-04-05T08:24:56.001Z</time></trkpt><trkpt lat="40.12370663007717" lon="18.135139598041764"><ele>76.66666666666667</ele><time>2026-04-05T08:24:57.001Z</time></trkpt><trkpt lat="40.12379777791233" lon="18.135326076579652"><ele>76.33333333333333</ele><time>2026-04-05T08:24:58.001Z</time></trkpt><trkpt lat="40.12390576952854" lon="18.135512695487893"><ele>76.0</ele><time>2026-04-05T08:24:59.001Z</time></trkpt><trkpt lat="40.12398804882131" lon="18.135638892750364"><ele>75.75</ele><time>2026-04-05T08:25:00.001Z</time></trkpt><trkpt lat="40.12406037081262" lon="18.13574073659636"><ele>75.5</ele><time>2026-04-05T08:25:01.001Z</time></trkpt><trkpt lat="40.12410888924369" lon="18.135803252488927"><ele>75.25</ele><time>2026-04-05T08:25:02.001Z</time></trkpt><trkpt lat="40.12420667963445" lon="18.135911204505035"><ele>75.0</ele><time>2026-04-05T08:25:04.001Z</time></trkpt><trkpt lat="40.12409986727548" lon="18.135756924484877"><ele>75.0</ele><time>2026-04-05T08:25:07.001Z</time></trkpt><trkpt lat="40.124151546477044" lon="18.13580538530622"><ele>75.0</ele><time>2026-04-05T08:25:25.001Z</time></trkpt><trkpt lat="40.124211934919096" lon="18.135879983215208"><ele>75.0</ele><time>2026-04-05T08:25:27.001Z</time></trkpt><trkpt lat="40.12430267732602" lon="18.13598565256699"><ele>75.0</ele><time>2026-04-05T08:25:29.001Z</time></trkpt><trkpt lat="40.1243674653298" lon="18.136029667652895"><ele>75.0</ele><time>2026-04-05T08:25:30.001Z</time></trkpt><trkpt lat="40.12442409106611" lon="18.136067942701406"><ele>75.0</ele><time>2026-04-05T08:25:31.001Z</time></trkpt><trkpt lat="40.12451080460963" lon="18.1360887673872"><ele>75.0</ele><time>2026-04-05T08:25:32.001Z</time></trkpt><trkpt lat="40.12456876122352" lon="18.136156585534977"><ele>75.0</ele><time>2026-04-05T08:25:33.001Z</time></trkpt><trkpt lat="40.12464166628215" lon="18.13621849216731"><ele>75.0</ele><time>2026-04-05T08:25:34.001Z</time></trkpt><trkpt lat="40.12472379408087" lon="18.136287219257092"><ele>75.0</ele><time>2026-04-05T08:25:35.001Z</time></trkpt><trkpt lat="40.12482791660624" lon="18.1363334757656"><ele>75.0</ele><time>2026-04-05T08:25:36.001Z</time></trkpt><trkpt lat="40.1248929454547" lon="18.136364257270106"><ele>75.0</ele><time>2026-04-05T08:25:37.001Z</time></trkpt><trkpt lat="40.124971653378" lon="18.13640009649167"><ele>75.33333333333333</ele><time>2026-04-05T08:25:38.001Z</time></trkpt><trkpt lat="40.12505223231458" lon="18.136440735201997"><ele>75.66666666666667</ele><time>2026-04-05T08:25:39.001Z</time></trkpt><trkpt lat="40.125119309813286" lon="18.136475329166018"><ele>76.0</ele><time>2026-04-05T08:25:40.001Z</time></trkpt><trkpt lat="40.12518505652247" lon="18.136499958583947"><ele>76.33333333333334</ele><time>2026-04-05T08:25:41.001Z</time></trkpt><trkpt lat="40.12527599902748" lon="18.136540585058608"><ele>76.66666666666667</ele><time>2026-04-05T08:25:43.001Z</time></trkpt><trkpt lat="40.125384778058525" lon="18.136606400862107"><ele>77.0</ele><time>2026-04-05T08:25:45.001Z</time></trkpt><trkpt lat="40.12546127409486" lon="18.136642195230287"><ele>76.25</ele><time>2026-04-05T08:25:46.001Z</time></trkpt><trkpt lat="40.125562514943" lon="18.136681602541422"><ele>75.5</ele><time>2026-04-05T08:25:47.001Z</time></trkpt><trkpt lat="40.12567974435135" lon="18.136741162359566"><ele>74.75</ele><time>2026-04-05T08:25:48.001Z</time></trkpt><trkpt lat="40.1258182733792" lon="18.136791910706915"><ele>74.0</ele><time>2026-04-05T08:25:49.001Z</time></trkpt><trkpt lat="40.12596199997708" lon="18.136872042145136"><ele>74.0</ele><time>2026-04-05T08:25:50.001Z</time></trkpt><trkpt lat="40.12612071771936" lon="18.13694974255129"><ele>74.0</ele><time>2026-04-05T08:25:51.001Z</time></trkpt><trkpt lat="40.12628944755863" lon="18.137025571745205"><ele>74.0</ele><time>2026-04-05T08:25:52.001Z</time></trkpt><trkpt lat="40.126476681534484" lon="18.13710772087177"><ele>73.33333333333334</ele><time>2026-04-05T08:25:53.001Z</time></trkpt><trkpt lat="40.12666190939723" lon="18.137189129294544"><ele>72.66666666666667</ele><time>2026-04-05T08:25:54.001Z</time></trkpt><trkpt lat="40.126850368833146" lon="18.137287293723652"><ele>72.0</ele><time>2026-04-05T08:25:55.001Z</time></trkpt><trkpt lat="40.12704869628352" lon="18.13738345199009"><ele>72.0</ele><time>2026-04-05T08:25:56.001Z</time></trkpt><trkpt lat="40.127244783109475" lon="18.137479370279728"><ele>72.0</ele><time>2026-04-05T08:25:57.001Z</time></trkpt><trkpt lat="40.127444631876585" lon="18.137578588219533"><ele>72.0</ele><time>2026-04-05T08:25:58.001Z</time></trkpt><trkpt lat="40.12762791246553" lon="18.137679339948342"><ele>72.0</ele><time>2026-04-05T08:25:59.001Z</time></trkpt><trkpt lat="40.12780271460905" lon="18.137761605891537"><ele>72.0</ele><time>2026-04-05T08:26:00.001Z</time></trkpt><trkpt lat="40.127967287401745" lon="18.137840014703283"><ele>72.0</ele><time>2026-04-05T08:26:01.001Z</time></trkpt><trkpt lat="40.12812694535019" lon="18.137924369040384"><ele>72.66666666666667</ele><time>2026-04-05T08:26:02.001Z</time></trkpt><trkpt lat="40.128277530271234" lon="18.138013617369634"><ele>73.33333333333334</ele><time>2026-04-05T08:26:03.001Z</time></trkpt><trkpt lat="40.128414470060406" lon="18.138101488056545"><ele>74.0</ele><time>2026-04-05T08:26:04.001Z</time></trkpt><trkpt lat="40.128562294573804" lon="18.138162860941954"><ele>74.5</ele><time>2026-04-05T08:26:05.001Z</time></trkpt><trkpt lat="40.128694162660466" lon="18.13823950278743"><ele>75.0</ele><time>2026-04-05T08:26:06.001Z</time></trkpt><trkpt lat="40.128800951477274" lon="18.138365892124447"><ele>75.5</ele><time>2026-04-05T08:26:07.002Z</time></trkpt><trkpt lat="40.128902706328844" lon="18.138494289985708"><ele>76.0</ele><time>2026-04-05T08:26:08.002Z</time></trkpt><trkpt lat="40.12901293534134" lon="18.13864701394052"><ele>76.0</ele><time>2026-04-05T08:26:09.002Z</time></trkpt><trkpt lat="40.12908580208099" lon="18.1387746321932"><ele>76.0</ele><time>2026-04-05T08:26:10.002Z</time></trkpt><trkpt lat="40.12914641982561" lon="18.138896672257907"><ele>76.0</ele><time>2026-04-05T08:26:11.002Z</time></trkpt><trkpt lat="40.12919764658844" lon="18.139016184451155"><ele>76.0</ele><time>2026-04-05T08:26:12.002Z</time></trkpt><trkpt lat="40.12923751602199" lon="18.139146188954815"><ele>76.0</ele><time>2026-04-05T08:26:14.002Z</time></trkpt><trkpt lat="40.129346551515084" lon="18.139130103032468"><ele>76.0</ele><time>2026-04-05T08:26:18.002Z</time></trkpt><trkpt lat="40.12944084598859" lon="18.13893051094587"><ele>76.0</ele><time>2026-04-05T08:27:00.001Z</time></trkpt><trkpt lat="40.129444016560754" lon="18.138837383560492"><ele>76.0</ele><time>2026-04-05T08:27:01.001Z</time></trkpt><trkpt lat="40.12944485919272" lon="18.138727697273094"><ele>76.0</ele><time>2026-04-05T08:27:02.001Z</time></trkpt><trkpt lat="40.129450090529325" lon="18.138591249966783"><ele>76.0</ele><time>2026-04-05T08:27:03.001Z</time></trkpt><trkpt lat="40.12947014910536" lon="18.138436432463816"><ele>76.0</ele><time>2026-04-05T08:27:04.001Z</time></trkpt><trkpt lat="40.129482107954665" lon="18.138267735375294"><ele>76.0</ele><time>2026-04-05T08:27:05.001Z</time></trkpt><trkpt lat="40.1294811678539" lon="18.13807940167086"><ele>76.0</ele><time>2026-04-05T08:27:06.001Z</time></trkpt><trkpt lat="40.129498116546365" lon="18.137883554189276"><ele>76.0</ele><time>2026-04-05T08:27:07.001Z</time></trkpt><trkpt lat="40.12951138053016" lon="18.13767825372464"><ele>75.33333333333333</ele><time>2026-04-05T08:27:08.001Z</time></trkpt><trkpt lat="40.12952679785819" lon="18.13746680608619"><ele>74.66666666666667</ele><time>2026-04-05T08:27:09.001Z</time></trkpt><trkpt lat="40.129554499537775" lon="18.137265457270544"><ele>74.0</ele><time>2026-04-05T08:27:10.001Z</time></trkpt><trkpt lat="40.12956618328956" lon="18.13707626418795"><ele>73.5</ele><time>2026-04-05T08:27:11.001Z</time></trkpt><trkpt lat="40.12956167532577" lon="18.136894907498938"><ele>73.0</ele><time>2026-04-05T08:27:12.001Z</time></trkpt><trkpt lat="40.129575785022254" lon="18.13671682649799"><ele>72.5</ele><time>2026-04-05T08:27:13.001Z</time></trkpt><trkpt lat="40.12958253168452" lon="18.13654648138902"><ele>72.0</ele><time>2026-04-05T08:27:14.001Z</time></trkpt><trkpt lat="40.12958972582848" lon="18.13639790213671"><ele>71.6</ele><time>2026-04-05T08:27:15.001Z</time></trkpt><trkpt lat="40.12960087664505" lon="18.136261618042983"><ele>71.2</ele><time>2026-04-05T08:27:16.001Z</time></trkpt><trkpt lat="40.12960306159389" lon="18.136152735964817"><ele>70.8</ele><time>2026-04-05T08:27:17.001Z</time></trkpt><trkpt lat="40.12961274660808" lon="18.136018100861953"><ele>70.4</ele><time>2026-04-05T08:27:19.001Z</time></trkpt><trkpt lat="40.129634835568105" lon="18.13587618994598"><ele>70.0</ele><time>2026-04-05T08:27:21.001Z</time></trkpt><trkpt lat="40.129629774097126" lon="18.135743005738597"><ele>70.0</ele><time>2026-04-05T08:27:22.001Z</time></trkpt><trkpt lat="40.129642625606095" lon="18.13559323852984"><ele>70.0</ele><time>2026-04-05T08:27:23.001Z</time></trkpt><trkpt lat="40.129649759472535" lon="18.135424060601828"><ele>70.0</ele><time>2026-04-05T08:27:24.001Z</time></trkpt><trkpt lat="40.12965431466312" lon="18.135262915537744"><ele>70.0</ele><time>2026-04-05T08:27:25.001Z</time></trkpt><trkpt lat="40.12965533207505" lon="18.13513099027751"><ele>70.0</ele><time>2026-04-05T08:27:26.001Z</time></trkpt><trkpt lat="40.129667243234316" lon="18.135032531468024"><ele>70.0</ele><time>2026-04-05T08:27:27.001Z</time></trkpt><trkpt lat="40.12967013691977" lon="18.134921260706054"><ele>70.0</ele><time>2026-04-05T08:27:29.001Z</time></trkpt><trkpt lat="40.12973161680362" lon="18.134849347143657"><ele>70.0</ele><time>2026-04-05T08:27:31.001Z</time></trkpt><trkpt lat="40.129862100203084" lon="18.134916498610107"><ele>70.0</ele><time>2026-04-05T08:27:33.001Z</time></trkpt><trkpt lat="40.13004491909839" lon="18.13493210555532"><ele>70.16666666666666</ele><time>2026-04-05T08:27:34.001Z</time></trkpt><trkpt lat="40.13013501142591" lon="18.134953730117324"><ele>70.33333333333333</ele><time>2026-04-05T08:27:35.001Z</time></trkpt><trkpt lat="40.13021545362665" lon="18.13497027098126"><ele>70.5</ele><time>2026-04-05T08:27:36.001Z</time></trkpt><trkpt lat="40.130289417927735" lon="18.13497631283908"><ele>70.66666666666667</ele><time>2026-04-05T08:27:37.001Z</time></trkpt><trkpt lat="40.13037575296085" lon="18.134983596610724"><ele>70.83333333333334</ele><time>2026-04-05T08:27:38.001Z</time></trkpt><trkpt lat="40.13046585326937" lon="18.134991198040996"><ele>71.0</ele><time>2026-04-05T08:27:39.001Z</time></trkpt><trkpt lat="40.13055946028215" lon="18.135014248818315"><ele>71.0</ele><time>2026-04-05T08:27:40.001Z</time></trkpt><trkpt lat="40.13066242431552" lon="18.134980579234874"><ele>71.0</ele><time>2026-04-05T08:27:41.001Z</time></trkpt><trkpt lat="40.13076865619694" lon="18.134993710999186"><ele>71.0</ele><time>2026-04-05T08:27:42.001Z</time></trkpt><trkpt lat="40.13088024943556" lon="18.135001498820717"><ele>71.0</ele><time>2026-04-05T08:27:43.001Z</time></trkpt><trkpt lat="40.1309995019916" lon="18.135007994624463"><ele>71.0</ele><time>2026-04-05T08:27:44.001Z</time></trkpt><trkpt lat="40.13111979015433" lon="18.13501389141181"><ele>71.2</ele><time>2026-04-05T08:27:45.001Z</time></trkpt><trkpt lat="40.131215330893646" lon="18.135018575027"><ele>71.39999999999999</ele><time>2026-04-05T08:27:46.001Z</time></trkpt><trkpt lat="40.13131323998919" lon="18.135022805020444"><ele>71.6</ele><time>2026-04-05T08:27:47.001Z</time></trkpt><trkpt lat="40.131444280020794" lon="18.13501883654408"><ele>71.8</ele><time>2026-04-05T08:27:49.001Z</time></trkpt><trkpt lat="40.13152419093776" lon="18.135074190140564"><ele>72.0</ele><time>2026-04-05T08:27:50.001Z</time></trkpt><trkpt lat="40.13161801115642" lon="18.13505755649961"><ele>71.66666666666667</ele><time>2026-04-05T08:27:51.001Z</time></trkpt><trkpt lat="40.131699370656925" lon="18.135001200023936"><ele>71.33333333333334</ele><time>2026-04-05T08:27:52.001Z</time></trkpt><trkpt lat="40.131824528328686" lon="18.13488696763109"><ele>71.0</ele><time>2026-04-05T08:27:53.001Z</time></trkpt><trkpt lat="40.132012307378226" lon="18.134760270192352"><ele>71.0</ele><time>2026-04-05T08:27:54.001Z</time></trkpt><trkpt lat="40.132212210717896" lon="18.13460500618465"><ele>71.0</ele><time>2026-04-05T08:27:55.001Z</time></trkpt><trkpt lat="40.1323923882765" lon="18.134450325926736"><ele>71.0</ele><time>2026-04-05T08:27:56.001Z</time></trkpt><trkpt lat="40.13254194263763" lon="18.13434470978806"><ele>70.66666666666667</ele><time>2026-04-05T08:27:57.001Z</time></trkpt><trkpt lat="40.13267929813532" lon="18.134247708551307"><ele>70.33333333333333</ele><time>2026-04-05T08:27:58.001Z</time></trkpt><trkpt lat="40.13280966468567" lon="18.13413497594378"><ele>70.0</ele><time>2026-04-05T08:27:59.001Z</time></trkpt><trkpt lat="40.13295732037968" lon="18.134037763304228"><ele>69.75</ele><time>2026-04-05T08:28:00.001Z</time></trkpt><trkpt lat="40.13308577161873" lon="18.133955999800317"><ele>69.5</ele><time>2026-04-05T08:28:01.001Z</time></trkpt><trkpt lat="40.13319774090501" lon="18.133891145912443"><ele>69.25</ele><time>2026-04-05T08:28:02.001Z</time></trkpt><trkpt lat="40.13329888853425" lon="18.13382641690234"><ele>69.0</ele><time>2026-04-05T08:28:03.001Z</time></trkpt><trkpt lat="40.13339929943633" lon="18.133730769118262"><ele>69.0</ele><time>2026-04-05T08:28:05.001Z</time></trkpt><trkpt lat="40.13345362773778" lon="18.133673848259516"><ele>69.0</ele><time>2026-04-05T08:28:06.001Z</time></trkpt><trkpt lat="40.133539265221664" lon="18.13367201138683"><ele>69.0</ele><time>2026-04-05T08:28:08.001Z</time></trkpt><trkpt lat="40.133657979468936" lon="18.133642221727513"><ele>69.0</ele><time>2026-04-05T08:28:11.001Z</time></trkpt><trkpt lat="40.133799946701984" lon="18.133907228900725"><ele>69.0</ele><time>2026-04-05T08:28:12.002Z</time></trkpt><trkpt lat="40.1339081947793" lon="18.13401318796261"><ele>69.0</ele><time>2026-04-05T08:28:13.002Z</time></trkpt><trkpt lat="40.134025791246096" lon="18.134127917555546"><ele>69.0</ele><time>2026-04-05T08:28:14.002Z</time></trkpt><trkpt lat="40.13410312482151" lon="18.134224879507872"><ele>69.0</ele><time>2026-04-05T08:28:15.002Z</time></trkpt><trkpt lat="40.13421596789823" lon="18.13433315665756"><ele>68.25</ele><time>2026-04-05T08:28:16.002Z</time></trkpt><trkpt lat="40.134322283615866" lon="18.134442413316993"><ele>67.5</ele><time>2026-04-05T08:28:17.002Z</time></trkpt><trkpt lat="40.134424247017925" lon="18.1345424631464"><ele>66.75</ele><time>2026-04-05T08:28:18.002Z</time></trkpt><trkpt lat="40.13452057619413" lon="18.13464171751504"><ele>66.0</ele><time>2026-04-05T08:28:19.002Z</time></trkpt><trkpt lat="40.134635998651774" lon="18.134744913144864"><ele>66.0</ele><time>2026-04-05T08:28:20.002Z</time></trkpt><trkpt lat="40.13474164350726" lon="18.13483666397275"><ele>66.0</ele><time>2026-04-05T08:28:21.002Z</time></trkpt><trkpt lat="40.134853110411136" lon="18.134951223015094"><ele>66.0</ele><time>2026-04-05T08:28:22.002Z</time></trkpt><trkpt lat="40.13498871854335" lon="18.1350845156001"><ele>66.0</ele><time>2026-04-05T08:28:23.002Z</time></trkpt><trkpt lat="40.13508648531619" lon="18.13519833032326"><ele>65.75</ele><time>2026-04-05T08:28:24.002Z</time></trkpt><trkpt lat="40.13521654083278" lon="18.13530192566778"><ele>65.5</ele><time>2026-04-05T08:28:25.002Z</time></trkpt><trkpt lat="40.135322018520256" lon="18.135422321909278"><ele>65.25</ele><time>2026-04-05T08:28:26.002Z</time></trkpt><trkpt lat="40.135401102440454" lon="18.135518840567727"><ele>65.0</ele><time>2026-04-05T08:28:27.002Z</time></trkpt><trkpt lat="40.135466527990495" lon="18.135612035985837"><ele>65.5</ele><time>2026-04-05T08:28:28.002Z</time></trkpt><trkpt lat="40.135707481623875" lon="18.136061090650816"><ele>66.0</ele><time>2026-04-05T08:28:29.002Z</time></trkpt><trkpt lat="40.135821186037305" lon="18.136271011845416"><ele>66.0</ele><time>2026-04-05T08:28:30.002Z</time></trkpt><trkpt lat="40.13588978518264" lon="18.13645227060005"><ele>66.0</ele><time>2026-04-05T08:28:31.002Z</time></trkpt><trkpt lat="40.135898791278755" lon="18.136549665486484"><ele>66.0</ele><time>2026-04-05T08:28:32.002Z</time></trkpt><trkpt lat="40.135962359755304" lon="18.1367039240512"><ele>66.0</ele><time>2026-04-05T08:28:33.002Z</time></trkpt><trkpt lat="40.13603054778826" lon="18.136857215686597"><ele>66.33333333333333</ele><time>2026-04-05T08:28:34.002Z</time></trkpt><trkpt lat="40.1361409566743" lon="18.13705079086886"><ele>66.66666666666666</ele><time>2026-04-05T08:28:35.002Z</time></trkpt><trkpt lat="40.1361897046846" lon="18.13718633752562"><ele>67.0</ele><time>2026-04-05T08:28:36.002Z</time></trkpt><trkpt lat="40.1362813084019" lon="18.137349789692447"><ele>67.0</ele><time>2026-04-05T08:28:37.002Z</time></trkpt><trkpt lat="40.136368815486755" lon="18.137542908980926"><ele>67.0</ele><time>2026-04-05T08:28:38.002Z</time></trkpt><trkpt lat="40.13645655921468" lon="18.13769204796827"><ele>67.0</ele><time>2026-04-05T08:28:39.002Z</time></trkpt><trkpt lat="40.136546811058686" lon="18.13780978769377"><ele>67.0</ele><time>2026-04-05T08:28:40.002Z</time></trkpt><trkpt lat="40.13665842698645" lon="18.138054191148438"><ele>67.0</ele><time>2026-04-05T08:28:41.002Z</time></trkpt><trkpt lat="40.13673498807857" lon="18.13821278517449"><ele>67.0</ele><time>2026-04-05T08:28:42.002Z</time></trkpt><trkpt lat="40.13682901395104" lon="18.138387516565253"><ele>67.0</ele><time>2026-04-05T08:28:43.002Z</time></trkpt><trkpt lat="40.13691883888546" lon="18.13856014144685"><ele>66.66666666666666</ele><time>2026-04-05T08:28:44.002Z</time></trkpt><trkpt lat="40.13701558005241" lon="18.138724424987583"><ele>66.33333333333333</ele><time>2026-04-05T08:28:45.002Z</time></trkpt><trkpt lat="40.137103542900114" lon="18.138899313413482"><ele>66.0</ele><time>2026-04-05T08:28:46.002Z</time></trkpt><trkpt lat="40.13718436055609" lon="18.139063529090393"><ele>66.0</ele><time>2026-04-05T08:28:47.002Z</time></trkpt><trkpt lat="40.137264952456846" lon="18.139235050726885"><ele>66.0</ele><time>2026-04-05T08:28:48.002Z</time></trkpt><trkpt lat="40.13731962805429" lon="18.139403662164987"><ele>66.0</ele><time>2026-04-05T08:28:49.002Z</time></trkpt><trkpt lat="40.13740347323389" lon="18.13957505151346"><ele>66.0</ele><time>2026-04-05T08:28:50.002Z</time></trkpt><trkpt lat="40.13748869244268" lon="18.139741441870072"><ele>66.2</ele><time>2026-04-05T08:28:51.002Z</time></trkpt><trkpt lat="40.13755381082225" lon="18.13989834525751"><ele>66.39999999999999</ele><time>2026-04-05T08:28:52.002Z</time></trkpt><trkpt lat="40.137611655176165" lon="18.14002526807282"><ele>66.6</ele><time>2026-04-05T08:28:53.002Z</time></trkpt><trkpt lat="40.1376637447676" lon="18.140122118102568"><ele>66.8</ele><time>2026-04-05T08:28:54.002Z</time></trkpt><trkpt lat="40.13773185584448" lon="18.14021854694791"><ele>67.0</ele><time>2026-04-05T08:28:56.002Z</time></trkpt><trkpt lat="40.13778719646785" lon="18.14031927663575"><ele>67.0</ele><time>2026-04-05T08:28:57.001Z</time></trkpt><trkpt lat="40.137766975891786" lon="18.14042002786914"><ele>67.0</ele><time>2026-04-05T08:28:58.001Z</time></trkpt><trkpt lat="40.13790829817098" lon="18.140554597421676"><ele>67.0</ele><time>2026-04-05T08:28:59.001Z</time></trkpt><trkpt lat="40.13796729336707" lon="18.14067530002495"><ele>67.0</ele><time>2026-04-05T08:29:00.001Z</time></trkpt><trkpt lat="40.1380332165925" lon="18.140810177241914"><ele>67.0</ele><time>2026-04-05T08:29:01.001Z</time></trkpt><trkpt lat="40.138114682413615" lon="18.14103227281992"><ele>67.0</ele><time>2026-04-05T08:29:03.001Z</time></trkpt><trkpt lat="40.13815172973707" lon="18.14112873217271"><ele>67.0</ele><time>2026-04-05T08:29:04.001Z</time></trkpt><trkpt lat="40.13830458802158" lon="18.14145043441323"><ele>66.66666666666666</ele><time>2026-04-05T08:29:05.001Z</time></trkpt><trkpt lat="40.138393992457196" lon="18.141644617330176"><ele>66.33333333333333</ele><time>2026-04-05T08:29:06.001Z</time></trkpt><trkpt lat="40.13852867401441" lon="18.141936178806336"><ele>66.0</ele><time>2026-04-05T08:29:07Z</time></trkpt><trkpt lat="40.138635211474856" lon="18.142131027684812"><ele>66.5</ele><time>2026-04-05T08:29:08Z</time></trkpt><trkpt lat="40.138772463928504" lon="18.142393378859193"><ele>67.0</ele><time>2026-04-05T08:29:09Z</time></trkpt><trkpt lat="40.13889758399014" lon="18.142623449722205"><ele>67.0</ele><time>2026-04-05T08:29:10Z</time></trkpt><trkpt lat="40.13904620528402" lon="18.142908386452532"><ele>67.0</ele><time>2026-04-05T08:29:11Z</time></trkpt><trkpt lat="40.139157509003915" lon="18.143147089209908"><ele>66.5</ele><time>2026-04-05T08:29:12Z</time></trkpt><trkpt lat="40.13932143194335" lon="18.143403345511878"><ele>66.0</ele><time>2026-04-05T08:29:13Z</time></trkpt><trkpt lat="40.139443929790644" lon="18.143679396432763"><ele>66.0</ele><time>2026-04-05T08:29:14Z</time></trkpt><trkpt lat="40.139564150825294" lon="18.143922453886525"><ele>66.0</ele><time>2026-04-05T08:29:15Z</time></trkpt><trkpt lat="40.13969406307486" lon="18.144170813592112"><ele>66.0</ele><time>2026-04-05T08:29:16Z</time></trkpt><trkpt lat="40.13978345612955" lon="18.14443511093161"><ele>66.0</ele><time>2026-04-05T08:29:17Z</time></trkpt><trkpt lat="40.139919904586115" lon="18.1446844667333"><ele>66.5</ele><time>2026-04-05T08:29:18Z</time></trkpt><trkpt lat="40.140026216455176" lon="18.144937180272088"><ele>67.0</ele><time>2026-04-05T08:29:19Z</time></trkpt><trkpt lat="40.14017308813341" lon="18.14517799857138"><ele>67.0</ele><time>2026-04-05T08:29:20Z</time></trkpt><trkpt lat="40.14032444007959" lon="18.145460251324657"><ele>67.0</ele><time>2026-04-05T08:29:21Z</time></trkpt><trkpt lat="40.14042461404732" lon="18.14571767479177"><ele>67.0</ele><time>2026-04-05T08:29:22Z</time></trkpt><trkpt lat="40.140546762552205" lon="18.146030462590378"><ele>67.0</ele><time>2026-04-05T08:29:23Z</time></trkpt><trkpt lat="40.14074770099688" lon="18.146412281963297"><ele>66.5</ele><time>2026-04-05T08:29:24.001Z</time></trkpt><trkpt lat="40.14090510716983" lon="18.146719744555522"><ele>66.0</ele><time>2026-04-05T08:29:25.001Z</time></trkpt><trkpt lat="40.14104775655065" lon="18.14699098034288"><ele>66.0</ele><time>2026-04-05T08:29:26.001Z</time></trkpt><trkpt lat="40.14118800068221" lon="18.147267850955938"><ele>66.0</ele><time>2026-04-05T08:29:27.001Z</time></trkpt><trkpt lat="40.14130788483004" lon="18.147524293490488"><ele>66.0</ele><time>2026-04-05T08:29:28.001Z</time></trkpt><trkpt lat="40.14142690466494" lon="18.14778724467159"><ele>66.0</ele><time>2026-04-05T08:29:29.001Z</time></trkpt><trkpt lat="40.14155022358409" lon="18.148045586043793"><ele>66.5</ele><time>2026-04-05T08:29:30.001Z</time></trkpt><trkpt lat="40.141683587981944" lon="18.14829733751718"><ele>67.0</ele><time>2026-04-05T08:29:31.001Z</time></trkpt><trkpt lat="40.14181168095533" lon="18.148558986288368"><ele>67.0</ele><time>2026-04-05T08:29:32.001Z</time></trkpt><trkpt lat="40.14194322679877" lon="18.148819120320876"><ele>67.0</ele><time>2026-04-05T08:29:33.001Z</time></trkpt><trkpt lat="40.142073368373275" lon="18.149073201680014"><ele>66.0</ele><time>2026-04-05T08:29:34.001Z</time></trkpt><trkpt lat="40.14217234183855" lon="18.14932864664454"><ele>65.0</ele><time>2026-04-05T08:29:35.001Z</time></trkpt><trkpt lat="40.142306547867875" lon="18.149590356477976"><ele>65.0</ele><time>2026-04-05T08:29:36.001Z</time></trkpt><trkpt lat="40.14244211100376" lon="18.149863418858445"><ele>65.0</ele><time>2026-04-05T08:29:37.001Z</time></trkpt><trkpt lat="40.142577994340954" lon="18.150128998246963"><ele>65.0</ele><time>2026-04-05T08:29:38.001Z</time></trkpt><trkpt lat="40.142713729159006" lon="18.150402389963304"><ele>65.0</ele><time>2026-04-05T08:29:39.001Z</time></trkpt><trkpt lat="40.14286087424849" lon="18.150677418129252"><ele>64.5</ele><time>2026-04-05T08:29:40.001Z</time></trkpt><trkpt lat="40.14299185128426" lon="18.150947667565468"><ele>64.0</ele><time>2026-04-05T08:29:41.001Z</time></trkpt><trkpt lat="40.14311659667022" lon="18.15120672762977"><ele>64.33333333333333</ele><time>2026-04-05T08:29:42.001Z</time></trkpt><trkpt lat="40.1432315372479" lon="18.151460337791274"><ele>64.66666666666667</ele><time>2026-04-05T08:29:43.001Z</time></trkpt><trkpt lat="40.143345286623905" lon="18.15170286815837"><ele>65.0</ele><time>2026-04-05T08:29:44.001Z</time></trkpt><trkpt lat="40.143473009555635" lon="18.15194578541916"><ele>65.0</ele><time>2026-04-05T08:29:45.001Z</time></trkpt><trkpt lat="40.143571977671954" lon="18.152171189410026"><ele>65.0</ele><time>2026-04-05T08:29:46.001Z</time></trkpt><trkpt lat="40.14367451480136" lon="18.152399822552027"><ele>65.0</ele><time>2026-04-05T08:29:47.001Z</time></trkpt><trkpt lat="40.14377804677997" lon="18.152627454402502"><ele>65.0</ele><time>2026-04-05T08:29:48.001Z</time></trkpt><trkpt lat="40.14387858110253" lon="18.152844952822203"><ele>65.0</ele><time>2026-04-05T08:29:49.001Z</time></trkpt><trkpt lat="40.1439809653457" lon="18.153063203046802"><ele>65.0</ele><time>2026-04-05T08:29:50.001Z</time></trkpt><trkpt lat="40.144108944477324" lon="18.153308921498564"><ele>64.66666666666667</ele><time>2026-04-05T08:29:51.001Z</time></trkpt><trkpt lat="40.14422704054487" lon="18.153543395107942"><ele>64.33333333333333</ele><time>2026-04-05T08:29:52.001Z</time></trkpt><trkpt lat="40.144343602206774" lon="18.153775010608427"><ele>64.0</ele><time>2026-04-05T08:29:53.001Z</time></trkpt><trkpt lat="40.144486592942904" lon="18.154032677860176"><ele>65.0</ele><time>2026-04-05T08:29:54.001Z</time></trkpt><trkpt lat="40.1446131785897" lon="18.154280125280085"><ele>66.0</ele><time>2026-04-05T08:29:55.001Z</time></trkpt><trkpt lat="40.14474957826226" lon="18.15454028274059"><ele>66.0</ele><time>2026-04-05T08:29:56.001Z</time></trkpt><trkpt lat="40.14486641782586" lon="18.154792165508276"><ele>66.0</ele><time>2026-04-05T08:29:57.001Z</time></trkpt><trkpt lat="40.14498726218397" lon="18.1550439276612"><ele>66.0</ele><time>2026-04-05T08:29:58.001Z</time></trkpt><trkpt lat="40.14509433485187" lon="18.155283207284523"><ele>66.0</ele><time>2026-04-05T08:29:59.001Z</time></trkpt><trkpt lat="40.145222115623135" lon="18.1555303061925"><ele>66.0</ele><time>2026-04-05T08:30:00.001Z</time></trkpt><trkpt lat="40.14533273233927" lon="18.155780951329984"><ele>66.0</ele><time>2026-04-05T08:30:01.001Z</time></trkpt><trkpt lat="40.145450368066584" lon="18.156021552522525"><ele>66.0</ele><time>2026-04-05T08:30:02.001Z</time></trkpt><trkpt lat="40.14557029858346" lon="18.15625571857651"><ele>66.0</ele><time>2026-04-05T08:30:03.001Z</time></trkpt><trkpt lat="40.14568552139066" lon="18.156493825628285"><ele>66.33333333333333</ele><time>2026-04-05T08:30:04.001Z</time></trkpt><trkpt lat="40.145794859640894" lon="18.156711304039902"><ele>66.66666666666666</ele><time>2026-04-05T08:30:05.001Z</time></trkpt><trkpt lat="40.145907695217396" lon="18.15692444509824"><ele>67.0</ele><time>2026-04-05T08:30:06.001Z</time></trkpt><trkpt lat="40.145994893761824" lon="18.157106468747433"><ele>67.0</ele><time>2026-04-05T08:30:07.001Z</time></trkpt><trkpt lat="40.14608681813386" lon="18.157288336114036"><ele>67.0</ele><time>2026-04-05T08:30:08.001Z</time></trkpt><trkpt lat="40.146163001450425" lon="18.157445967981914"><ele>67.0</ele><time>2026-04-05T08:30:09.001Z</time></trkpt><trkpt lat="40.14624458313185" lon="18.15759822633781"><ele>66.75</ele><time>2026-04-05T08:30:10.001Z</time></trkpt><trkpt lat="40.14631890209319" lon="18.157734822104892"><ele>66.5</ele><time>2026-04-05T08:30:11.001Z</time></trkpt><trkpt lat="40.146391519069425" lon="18.15785714764461"><ele>66.25</ele><time>2026-04-05T08:30:12.001Z</time></trkpt><trkpt lat="40.1464419790585" lon="18.15796566308836"><ele>66.0</ele><time>2026-04-05T08:30:13.001Z</time></trkpt><trkpt lat="40.14650167909364" lon="18.158094982189812"><ele>66.0</ele><time>2026-04-05T08:30:14.001Z</time></trkpt><trkpt lat="40.14647369996058" lon="18.158169838965186"><ele>66.0</ele><time>2026-04-05T08:30:15.001Z</time></trkpt><trkpt lat="40.14646634241991" lon="18.158289202973602"><ele>66.0</ele><time>2026-04-05T08:30:17.001Z</time></trkpt><trkpt lat="40.14646886838859" lon="18.15843692189101"><ele>66.0</ele><time>2026-04-05T08:30:21.001Z</time></trkpt><trkpt lat="40.14653499816794" lon="18.158523589792473"><ele>66.0</ele><time>2026-04-05T08:30:23.001Z</time></trkpt><trkpt lat="40.14661035508007" lon="18.158554103024535"><ele>66.0</ele><time>2026-04-05T08:30:24.001Z</time></trkpt><trkpt lat="40.14668630210739" lon="18.15848310917799"><ele>66.0</ele><time>2026-04-05T08:30:26.001Z</time></trkpt><trkpt lat="40.14676106635678" lon="18.15837178249092"><ele>66.0</ele><time>2026-04-05T08:30:27.001Z</time></trkpt><trkpt lat="40.14684098833548" lon="18.15831548707617"><ele>66.0</ele><time>2026-04-05T08:30:28.001Z</time></trkpt><trkpt lat="40.14687088815568" lon="18.158148416929205"><ele>66.0</ele><time>2026-04-05T08:30:29.001Z</time></trkpt><trkpt lat="40.14700766798883" lon="18.158025982277067"><ele>66.0</ele><time>2026-04-05T08:30:30.001Z</time></trkpt><trkpt lat="40.14713100167027" lon="18.157927986535604"><ele>66.0</ele><time>2026-04-05T08:30:31.001Z</time></trkpt><trkpt lat="40.14724889470074" lon="18.157810885471502"><ele>66.0</ele><time>2026-04-05T08:30:32.001Z</time></trkpt><trkpt lat="40.14740977269543" lon="18.157681825326794"><ele>66.0</ele><time>2026-04-05T08:30:33.001Z</time></trkpt><trkpt lat="40.14759180377479" lon="18.157568320089414"><ele>66.0</ele><time>2026-04-05T08:30:34.001Z</time></trkpt><trkpt lat="40.147729179800685" lon="18.15738599577009"><ele>66.0</ele><time>2026-04-05T08:30:35.001Z</time></trkpt><trkpt lat="40.147926678109165" lon="18.157290922594274"><ele>65.66666666666667</ele><time>2026-04-05T08:30:36.001Z</time></trkpt><trkpt lat="40.14810735066846" lon="18.157171605969282"><ele>65.33333333333334</ele><time>2026-04-05T08:30:37.001Z</time></trkpt><trkpt lat="40.14829499745089" lon="18.157048152488315"><ele>65.0</ele><time>2026-04-05T08:30:38.002Z</time></trkpt><trkpt lat="40.14851180662714" lon="18.156966044780905"><ele>65.0</ele><time>2026-04-05T08:30:39.002Z</time></trkpt><trkpt lat="40.14871963754375" lon="18.156813967970322"><ele>65.0</ele><time>2026-04-05T08:30:40.002Z</time></trkpt><trkpt lat="40.14890278688211" lon="18.15667853877425"><ele>65.0</ele><time>2026-04-05T08:30:41.002Z</time></trkpt><trkpt lat="40.14911223131658" lon="18.156534149836524"><ele>65.0</ele><time>2026-04-05T08:30:42.002Z</time></trkpt><trkpt lat="40.14931915075727" lon="18.156397086462224"><ele>65.0</ele><time>2026-04-05T08:30:43.002Z</time></trkpt><trkpt lat="40.149539971886654" lon="18.156246205866083"><ele>65.0</ele><time>2026-04-05T08:30:44.002Z</time></trkpt><trkpt lat="40.14975302623207" lon="18.156102506191086"><ele>65.0</ele><time>2026-04-05T08:30:45.002Z</time></trkpt><trkpt lat="40.14996968419334" lon="18.15594203398997"><ele>65.5</ele><time>2026-04-05T08:30:46.002Z</time></trkpt><trkpt lat="40.15017727569795" lon="18.155790783937334"><ele>66.0</ele><time>2026-04-05T08:30:47.002Z</time></trkpt><trkpt lat="40.15038033749274" lon="18.155645015735498"><ele>66.5</ele><time>2026-04-05T08:30:48.002Z</time></trkpt><trkpt lat="40.15058841362056" lon="18.15546924713788"><ele>67.0</ele><time>2026-04-05T08:30:49.002Z</time></trkpt><trkpt lat="40.15080866018608" lon="18.15529143264187"><ele>67.0</ele><time>2026-04-05T08:30:50.002Z</time></trkpt><trkpt lat="40.151029185428975" lon="18.15514210487769"><ele>67.0</ele><time>2026-04-05T08:30:51.002Z</time></trkpt><trkpt lat="40.15124799805597" lon="18.154971290132742"><ele>67.0</ele><time>2026-04-05T08:30:52.002Z</time></trkpt><trkpt lat="40.151455689532945" lon="18.154797343141123"><ele>67.0</ele><time>2026-04-05T08:30:53.002Z</time></trkpt><trkpt lat="40.15167912816754" lon="18.15462721034177"><ele>66.5</ele><time>2026-04-05T08:30:54.002Z</time></trkpt><trkpt lat="40.15190318132517" lon="18.154487011415075"><ele>66.0</ele><time>2026-04-05T08:30:55.002Z</time></trkpt><trkpt lat="40.152129143113584" lon="18.154339556429907"><ele>66.0</ele><time>2026-04-05T08:30:56.002Z</time></trkpt><trkpt lat="40.15235674372987" lon="18.154202596259722"><ele>66.0</ele><time>2026-04-05T08:30:57.002Z</time></trkpt><trkpt lat="40.15256837518435" lon="18.154075777543586"><ele>66.0</ele><time>2026-04-05T08:30:58.002Z</time></trkpt><trkpt lat="40.15275384004742" lon="18.153950108657146"><ele>66.0</ele><time>2026-04-05T08:30:59.002Z</time></trkpt><trkpt lat="40.15293000961152" lon="18.153857875447695"><ele>66.0</ele><time>2026-04-05T08:31:00.002Z</time></trkpt><trkpt lat="40.1530522212792" lon="18.153802461949248"><ele>66.0</ele><time>2026-04-05T08:31:01.002Z</time></trkpt><trkpt lat="40.15320484922442" lon="18.15371984964353"><ele>66.0</ele><time>2026-04-05T08:31:02.002Z</time></trkpt><trkpt lat="40.15336690766295" lon="18.15364176034158"><ele>66.0</ele><time>2026-04-05T08:31:03Z</time></trkpt><trkpt lat="40.15353236872348" lon="18.15356449131627"><ele>65.66666666666667</ele><time>2026-04-05T08:31:04Z</time></trkpt><trkpt lat="40.153707553824546" lon="18.153491121351358"><ele>65.33333333333334</ele><time>2026-04-05T08:31:05Z</time></trkpt><trkpt lat="40.15392131909629" lon="18.153431298051153"><ele>65.0</ele><time>2026-04-05T08:31:06Z</time></trkpt><trkpt lat="40.15413029149263" lon="18.153339932371622"><ele>65.33333333333334</ele><time>2026-04-05T08:31:07Z</time></trkpt><trkpt lat="40.154309781312826" lon="18.153225565659692"><ele>65.66666666666667</ele><time>2026-04-05T08:31:08Z</time></trkpt><trkpt lat="40.15451856282418" lon="18.15311058492096"><ele>66.0</ele><time>2026-04-05T08:31:09Z</time></trkpt><trkpt lat="40.15472032892848" lon="18.15301263068664"><ele>67.0</ele><time>2026-04-05T08:31:10Z</time></trkpt><trkpt lat="40.15497443504119" lon="18.152932890934352"><ele>68.0</ele><time>2026-04-05T08:31:11Z</time></trkpt><trkpt lat="40.15521139041446" lon="18.152812302354416"><ele>68.0</ele><time>2026-04-05T08:31:12Z</time></trkpt><trkpt lat="40.15543008370087" lon="18.1526837819126"><ele>68.0</ele><time>2026-04-05T08:31:13Z</time></trkpt><trkpt lat="40.155646315099276" lon="18.15258041081342"><ele>68.0</ele><time>2026-04-05T08:31:14Z</time></trkpt><trkpt lat="40.15589762102344" lon="18.15246860941281"><ele>68.0</ele><time>2026-04-05T08:31:15Z</time></trkpt><trkpt lat="40.156165224563864" lon="18.152357161267947"><ele>68.0</ele><time>2026-04-05T08:31:16Z</time></trkpt><trkpt lat="40.15638551114859" lon="18.152277397003072"><ele>68.0</ele><time>2026-04-05T08:31:17Z</time></trkpt><trkpt lat="40.1566421622629" lon="18.152119960639318"><ele>68.0</ele><time>2026-04-05T08:31:18Z</time></trkpt><trkpt lat="40.15688976830748" lon="18.15198722683252"><ele>68.0</ele><time>2026-04-05T08:31:19Z</time></trkpt><trkpt lat="40.1571055699515" lon="18.15190772947688"><ele>68.0</ele><time>2026-04-05T08:31:20Z</time></trkpt><trkpt lat="40.15734907554855" lon="18.151792719562962"><ele>68.0</ele><time>2026-04-05T08:31:21Z</time></trkpt><trkpt lat="40.15759759082354" lon="18.151660262535863"><ele>68.0</ele><time>2026-04-05T08:31:22Z</time></trkpt><trkpt lat="40.157829967631095" lon="18.151543324194282"><ele>68.0</ele><time>2026-04-05T08:31:23Z</time></trkpt><trkpt lat="40.15807229579683" lon="18.15145050547247"><ele>68.5</ele><time>2026-04-05T08:31:24Z</time></trkpt><trkpt lat="40.1583092927447" lon="18.151317744485375"><ele>69.0</ele><time>2026-04-05T08:31:25Z</time></trkpt><trkpt lat="40.15853861690513" lon="18.151231467336064"><ele>69.0</ele><time>2026-04-05T08:31:26Z</time></trkpt><trkpt lat="40.15874872077381" lon="18.15111601362039"><ele>69.0</ele><time>2026-04-05T08:31:27Z</time></trkpt><trkpt lat="40.158971368309544" lon="18.151010443278814"><ele>69.5</ele><time>2026-04-05T08:31:28Z</time></trkpt><trkpt lat="40.15922454573483" lon="18.15091568719539"><ele>70.0</ele><time>2026-04-05T08:31:29Z</time></trkpt><trkpt lat="40.15946660722983" lon="18.150820515881477"><ele>70.0</ele><time>2026-04-05T08:31:30Z</time></trkpt><trkpt lat="40.1597199337333" lon="18.15072323120784"><ele>70.0</ele><time>2026-04-05T08:31:31Z</time></trkpt><trkpt lat="40.16000148342796" lon="18.150721777859793"><ele>69.5</ele><time>2026-04-05T08:31:32Z</time></trkpt><trkpt lat="40.16025922016807" lon="18.15064658209128"><ele>69.0</ele><time>2026-04-05T08:31:33Z</time></trkpt><trkpt lat="40.16050212664467" lon="18.150576036844466"><ele>69.5</ele><time>2026-04-05T08:31:34Z</time></trkpt><trkpt lat="40.16075123075788" lon="18.150503039729994"><ele>70.0</ele><time>2026-04-05T08:31:35Z</time></trkpt><trkpt lat="40.16098776557451" lon="18.1504329752207"><ele>70.0</ele><time>2026-04-05T08:31:36Z</time></trkpt><trkpt lat="40.1611425671167" lon="18.15038712108098"><ele>70.0</ele><time>2026-04-05T08:31:37.001Z</time></trkpt><trkpt lat="40.1613402096675" lon="18.150328576847787"><ele>70.0</ele><time>2026-04-05T08:31:38.001Z</time></trkpt><trkpt lat="40.161549483582" lon="18.150266587441834"><ele>70.0</ele><time>2026-04-05T08:31:39.001Z</time></trkpt><trkpt lat="40.161720507456565" lon="18.15021592793855"><ele>70.0</ele><time>2026-04-05T08:31:40.001Z</time></trkpt><trkpt lat="40.161904595442955" lon="18.15016139882833"><ele>70.0</ele><time>2026-04-05T08:31:41.001Z</time></trkpt><trkpt lat="40.16210077020122" lon="18.150103171720346"><ele>70.0</ele><time>2026-04-05T08:31:42.001Z</time></trkpt><trkpt lat="40.162308163558514" lon="18.150042469692835"><ele>70.0</ele><time>2026-04-05T08:31:43.001Z</time></trkpt><trkpt lat="40.16252162653981" lon="18.1499799911297"><ele>70.0</ele><time>2026-04-05T08:31:44.001Z</time></trkpt><trkpt lat="40.16272919096878" lon="18.149919239032954"><ele>70.0</ele><time>2026-04-05T08:31:45.001Z</time></trkpt><trkpt lat="40.16294517487611" lon="18.149856022622014"><ele>70.0</ele><time>2026-04-05T08:31:46.001Z</time></trkpt><trkpt lat="40.163173662555764" lon="18.149789027958366"><ele>70.0</ele><time>2026-04-05T08:31:47.001Z</time></trkpt><trkpt lat="40.16339373275824" lon="18.149724358965244"><ele>70.0</ele><time>2026-04-05T08:31:48.001Z</time></trkpt><trkpt lat="40.16359734325825" lon="18.149664526714687"><ele>70.0</ele><time>2026-04-05T08:31:49.001Z</time></trkpt><trkpt lat="40.16381197075339" lon="18.14960145765775"><ele>70.0</ele><time>2026-04-05T08:31:50.001Z</time></trkpt><trkpt lat="40.164023737196885" lon="18.14953781261941"><ele>70.0</ele><time>2026-04-05T08:31:51.001Z</time></trkpt><trkpt lat="40.16424186646157" lon="18.149472595830467"><ele>70.0</ele><time>2026-04-05T08:31:52.001Z</time></trkpt><trkpt lat="40.16446422470697" lon="18.149406412117095"><ele>70.0</ele><time>2026-04-05T08:31:53.001Z</time></trkpt><trkpt lat="40.164683511478565" lon="18.149340675699406"><ele>70.0</ele><time>2026-04-05T08:31:54.001Z</time></trkpt><trkpt lat="40.16491213277383" lon="18.149272284220487"><ele>69.5</ele><time>2026-04-05T08:31:55.001Z</time></trkpt><trkpt lat="40.165172548956356" lon="18.14919443767272"><ele>69.0</ele><time>2026-04-05T08:31:56.001Z</time></trkpt><trkpt lat="40.16540006913652" lon="18.149126424723825"><ele>69.0</ele><time>2026-04-05T08:31:57.001Z</time></trkpt><trkpt lat="40.165621308598965" lon="18.14906084555534"><ele>69.0</ele><time>2026-04-05T08:31:58.001Z</time></trkpt><trkpt lat="40.165817328044945" lon="18.14900273936714"><ele>69.0</ele><time>2026-04-05T08:31:59.001Z</time></trkpt><trkpt lat="40.1660101070575" lon="18.14893431674184"><ele>68.66666666666667</ele><time>2026-04-05T08:32:00.001Z</time></trkpt><trkpt lat="40.16621028555213" lon="18.14889119781483"><ele>68.33333333333334</ele><time>2026-04-05T08:32:01.001Z</time></trkpt><trkpt lat="40.166390959973384" lon="18.148832383913"><ele>68.0</ele><time>2026-04-05T08:32:02.001Z</time></trkpt><trkpt lat="40.166515740405494" lon="18.148851328685495"><ele>67.83333333333334</ele><time>2026-04-05T08:32:03.001Z</time></trkpt><trkpt lat="40.16661484054695" lon="18.148829335268324"><ele>67.66666666666667</ele><time>2026-04-05T08:32:04.001Z</time></trkpt><trkpt lat="40.16667489993387" lon="18.148740333910762"><ele>67.5</ele><time>2026-04-05T08:32:05.001Z</time></trkpt><trkpt lat="40.16676922474418" lon="18.148734048382362"><ele>67.33333333333333</ele><time>2026-04-05T08:32:06.001Z</time></trkpt><trkpt lat="40.166856800949525" lon="18.148728935077603"><ele>67.16666666666666</ele><time>2026-04-05T08:32:07.001Z</time></trkpt><trkpt lat="40.16691970345198" lon="18.148688221500485"><ele>67.0</ele><time>2026-04-05T08:32:08.001Z</time></trkpt><trkpt lat="40.16699196463334" lon="18.14888114463325"><ele>67.0</ele><time>2026-04-05T08:32:09.001Z</time></trkpt><trkpt lat="40.1670549661145" lon="18.14894454920774"><ele>67.0</ele><time>2026-04-05T08:32:10.001Z</time></trkpt><trkpt lat="40.16710185257959" lon="18.1490036973"><ele>67.0</ele><time>2026-04-05T08:32:11.001Z</time></trkpt><trkpt lat="40.167201340915085" lon="18.149136145154895"><ele>67.0</ele><time>2026-04-05T08:32:13.001Z</time></trkpt><trkpt lat="40.167221378355855" lon="18.14931942151656"><ele>67.0</ele><time>2026-04-05T08:32:14.001Z</time></trkpt><trkpt lat="40.16725479336916" lon="18.149506407773888"><ele>67.0</ele><time>2026-04-05T08:32:15.001Z</time></trkpt><trkpt lat="40.16730018505695" lon="18.14970408165116"><ele>67.0</ele><time>2026-04-05T08:32:16.001Z</time></trkpt><trkpt lat="40.167352268012124" lon="18.149918141661455"><ele>67.0</ele><time>2026-04-05T08:32:17.001Z</time></trkpt><trkpt lat="40.16741705610559" lon="18.15016129616363"><ele>68.33333333333333</ele><time>2026-04-05T08:32:18.001Z</time></trkpt><trkpt lat="40.167485576689884" lon="18.1503936526238"><ele>69.66666666666667</ele><time>2026-04-05T08:32:19.001Z</time></trkpt><trkpt lat="40.16754822333269" lon="18.15063001422199"><ele>71.0</ele><time>2026-04-05T08:32:20.001Z</time></trkpt><trkpt lat="40.167612553567444" lon="18.15086927460532"><ele>71.33333333333334</ele><time>2026-04-05T08:32:21.001Z</time></trkpt><trkpt lat="40.16767667915724" lon="18.151098998397963"><ele>71.66666666666667</ele><time>2026-04-05T08:32:22.001Z</time></trkpt><trkpt lat="40.16773942838582" lon="18.15135375628269"><ele>72.0</ele><time>2026-04-05T08:32:23.001Z</time></trkpt><trkpt lat="40.16781174541735" lon="18.151609327917342"><ele>73.0</ele><time>2026-04-05T08:32:24.001Z</time></trkpt><trkpt lat="40.16788093965328" lon="18.151900351432513"><ele>74.0</ele><time>2026-04-05T08:32:25.001Z</time></trkpt><trkpt lat="40.16795000304067" lon="18.15216744160154"><ele>75.0</ele><time>2026-04-05T08:32:26.001Z</time></trkpt><trkpt lat="40.16798752132474" lon="18.1524246425886"><ele>75.33333333333333</ele><time>2026-04-05T08:32:27.001Z</time></trkpt><trkpt lat="40.16808116854633" lon="18.15266201001564"><ele>75.66666666666666</ele><time>2026-04-05T08:32:28.001Z</time></trkpt><trkpt lat="40.16810272698151" lon="18.15288918077002"><ele>76.0</ele><time>2026-04-05T08:32:29.001Z</time></trkpt><trkpt lat="40.16819820648275" lon="18.153105511994397"><ele>76.66666666666666</ele><time>2026-04-05T08:32:30.001Z</time></trkpt><trkpt lat="40.16823459676015" lon="18.153314581655582"><ele>77.33333333333333</ele><time>2026-04-05T08:32:31.001Z</time></trkpt><trkpt lat="40.168316810221086" lon="18.153504989193536"><ele>78.0</ele><time>2026-04-05T08:32:32.001Z</time></trkpt><trkpt lat="40.16836182266148" lon="18.15367800077069"><ele>78.0</ele><time>2026-04-05T08:32:33.001Z</time></trkpt><trkpt lat="40.16834671362365" lon="18.153842894351097"><ele>78.0</ele><time>2026-04-05T08:32:34.001Z</time></trkpt><trkpt lat="40.168355105869544" lon="18.15401379898917"><ele>78.0</ele><time>2026-04-05T08:32:35.001Z</time></trkpt><trkpt lat="40.168386755644704" lon="18.154157183379887"><ele>78.0</ele><time>2026-04-05T08:32:36.001Z</time></trkpt><trkpt lat="40.16837263970098" lon="18.154289406633183"><ele>78.16666666666667</ele><time>2026-04-05T08:32:37.001Z</time></trkpt><trkpt lat="40.16835411568472" lon="18.154379451423807"><ele>78.33333333333333</ele><time>2026-04-05T08:32:38.001Z</time></trkpt><trkpt lat="40.1683276075368" lon="18.154491952685657"><ele>78.5</ele><time>2026-04-05T08:32:39.001Z</time></trkpt><trkpt lat="40.16829110579684" lon="18.1545812795235"><ele>78.66666666666666</ele><time>2026-04-05T08:32:40.001Z</time></trkpt><trkpt lat="40.168311921787975" lon="18.15472037427415"><ele>78.83333333333333</ele><time>2026-04-05T08:32:41.001Z</time></trkpt><trkpt lat="40.16837011821498" lon="18.154811262145053"><ele>79.0</ele><time>2026-04-05T08:32:42.001Z</time></trkpt><trkpt lat="40.16844644415678" lon="18.154921863791905"><ele>79.25</ele><time>2026-04-05T08:32:43.001Z</time></trkpt><trkpt lat="40.16854033970626" lon="18.155033537646087"><ele>79.5</ele><time>2026-04-05T08:32:44.001Z</time></trkpt><trkpt lat="40.16868918454426" lon="18.15509676882291"><ele>79.75</ele><time>2026-04-05T08:32:45.001Z</time></trkpt><trkpt lat="40.16874081107444" lon="18.155220857126388"><ele>80.0</ele><time>2026-04-05T08:32:46.001Z</time></trkpt><trkpt lat="40.168747258229985" lon="18.155308476876982"><ele>80.0</ele><time>2026-04-05T08:32:47.001Z</time></trkpt><trkpt lat="40.16880534194657" lon="18.155443123214155"><ele>80.0</ele><time>2026-04-05T08:32:48.001Z</time></trkpt><trkpt lat="40.168845696854824" lon="18.155595255494518"><ele>80.0</ele><time>2026-04-05T08:32:49.002Z</time></trkpt><trkpt lat="40.16887101449962" lon="18.155746504240735"><ele>80.0</ele><time>2026-04-05T08:32:50.002Z</time></trkpt><trkpt lat="40.16892048636328" lon="18.15590224341163"><ele>80.25</ele><time>2026-04-05T08:32:51.002Z</time></trkpt><trkpt lat="40.1689498404114" lon="18.156059255015762"><ele>80.5</ele><time>2026-04-05T08:32:52.002Z</time></trkpt><trkpt lat="40.16896176221907" lon="18.1562431840444"><ele>80.75</ele><time>2026-04-05T08:32:53.002Z</time></trkpt><trkpt lat="40.169005886973494" lon="18.15641921376867"><ele>81.0</ele><time>2026-04-05T08:32:54.002Z</time></trkpt><trkpt lat="40.16906418119564" lon="18.156593180614045"><ele>81.6</ele><time>2026-04-05T08:32:55.002Z</time></trkpt><trkpt lat="40.16912116871863" lon="18.15674587850817"><ele>82.19999999999999</ele><time>2026-04-05T08:32:56.002Z</time></trkpt><trkpt lat="40.169150677052414" lon="18.156872146874143"><ele>82.80000000000001</ele><time>2026-04-05T08:32:57.002Z</time></trkpt><trkpt lat="40.169196190603216" lon="18.156992045109273"><ele>83.4</ele><time>2026-04-05T08:32:58.002Z</time></trkpt><trkpt lat="40.16922531547462" lon="18.157097827939623"><ele>84.0</ele><time>2026-04-05T08:32:59.002Z</time></trkpt><trkpt lat="40.16924722220468" lon="18.157197263477002"><ele>84.0</ele><time>2026-04-05T08:33:00.002Z</time></trkpt><trkpt lat="40.169296328647484" lon="18.157316140790222"><ele>84.0</ele><time>2026-04-05T08:33:01.002Z</time></trkpt><trkpt lat="40.169320231441176" lon="18.15742493676167"><ele>84.0</ele><time>2026-04-05T08:33:02.002Z</time></trkpt><trkpt lat="40.16934144115235" lon="18.15752395459269"><ele>84.0</ele><time>2026-04-05T08:33:03.002Z</time></trkpt><trkpt lat="40.16939813605826" lon="18.15773652055612"><ele>84.0</ele><time>2026-04-05T08:33:05.002Z</time></trkpt><trkpt lat="40.16938910843325" lon="18.1578418693253"><ele>84.0</ele><time>2026-04-05T08:33:06.002Z</time></trkpt><trkpt lat="40.16942192541716" lon="18.15796663883497"><ele>84.0</ele><time>2026-04-05T08:33:07.002Z</time></trkpt><trkpt lat="40.169462532613075" lon="18.15810535833953"><ele>84.0</ele><time>2026-04-05T08:33:08.002Z</time></trkpt><trkpt lat="40.169483520337586" lon="18.158243707939505"><ele>84.0</ele><time>2026-04-05T08:33:09Z</time></trkpt><trkpt lat="40.16952527783483" lon="18.158400157189696"><ele>84.0</ele><time>2026-04-05T08:33:10Z</time></trkpt><trkpt lat="40.16958933635349" lon="18.158623123156755"><ele>84.0</ele><time>2026-04-05T08:33:11Z</time></trkpt><trkpt lat="40.16964296937258" lon="18.15884703766237"><ele>84.0</ele><time>2026-04-05T08:33:12Z</time></trkpt><trkpt lat="40.169682488916834" lon="18.159000719309077"><ele>84.0</ele><time>2026-04-05T08:33:13Z</time></trkpt><trkpt lat="40.16972698774188" lon="18.159175409085826"><ele>84.0</ele><time>2026-04-05T08:33:14Z</time></trkpt><trkpt lat="40.16975920942756" lon="18.15930244741405"><ele>84.16666666666667</ele><time>2026-04-05T08:33:15Z</time></trkpt><trkpt lat="40.16980821578189" lon="18.159434284204277"><ele>84.33333333333333</ele><time>2026-04-05T08:33:16Z</time></trkpt><trkpt lat="40.16987618322092" lon="18.159561884552826"><ele>84.5</ele><time>2026-04-05T08:33:17Z</time></trkpt><trkpt lat="40.16990895649162" lon="18.159650701580432"><ele>84.66666666666666</ele><time>2026-04-05T08:33:18Z</time></trkpt><trkpt lat="40.16992888021849" lon="18.159729255422754"><ele>84.83333333333333</ele><time>2026-04-05T08:33:19Z</time></trkpt><trkpt lat="40.169951431779054" lon="18.159818294176233"><ele>85.0</ele><time>2026-04-05T08:33:20Z</time></trkpt><trkpt lat="40.16998186598804" lon="18.159938413209584"><ele>85.0</ele><time>2026-04-05T08:33:24Z</time></trkpt><trkpt lat="40.170010450622605" lon="18.160044274994057"><ele>85.0</ele><time>2026-04-05T08:33:26Z</time></trkpt><trkpt lat="40.17003931603215" lon="18.160152140089775"><ele>85.0</ele><time>2026-04-05T08:33:30Z</time></trkpt><trkpt lat="40.17007182485061" lon="18.16027830755316"><ele>85.0</ele><time>2026-04-05T08:33:32Z</time></trkpt><trkpt lat="40.170091508570664" lon="18.160357415698417"><ele>85.0</ele><time>2026-04-05T08:33:34Z</time></trkpt><trkpt lat="40.170512556500846" lon="18.160168858695783"><ele>85.0</ele><time>2026-04-05T08:33:49Z</time></trkpt><trkpt lat="40.17062165162302" lon="18.16012149176487"><ele>85.0</ele><time>2026-04-05T08:33:51Z</time></trkpt><trkpt lat="40.17086208719822" lon="18.15999127310263"><ele>85.0</ele><time>2026-04-05T08:33:52Z</time></trkpt><trkpt lat="40.17092704818885" lon="18.159960895191762"><ele>85.0</ele><time>2026-04-05T08:33:53Z</time></trkpt><trkpt lat="40.17102489125825" lon="18.15991502490794"><ele>85.0</ele><time>2026-04-05T08:33:54Z</time></trkpt><trkpt lat="40.17127991024285" lon="18.159836825126337"><ele>85.0</ele><time>2026-04-05T08:33:58Z</time></trkpt><trkpt lat="40.171353712045644" lon="18.159750649444778"><ele>85.0</ele><time>2026-04-05T08:33:59.001Z</time></trkpt><trkpt lat="40.17144048710656" lon="18.15969863474646"><ele>85.0</ele><time>2026-04-05T08:34:00.001Z</time></trkpt><trkpt lat="40.171520144541375" lon="18.159684303904477"><ele>85.0</ele><time>2026-04-05T08:34:01.001Z</time></trkpt><trkpt lat="40.17159914610789" lon="18.15964769621308"><ele>85.0</ele><time>2026-04-05T08:34:02.001Z</time></trkpt><trkpt lat="40.171671433624915" lon="18.15961419973236"><ele>85.0</ele><time>2026-04-05T08:34:03.001Z</time></trkpt><trkpt lat="40.171743215984755" lon="18.159580937251377"><ele>85.0</ele><time>2026-04-05T08:34:04.001Z</time></trkpt><trkpt lat="40.171802840247956" lon="18.15955330862186"><ele>85.0</ele><time>2026-04-05T08:34:05.001Z</time></trkpt><trkpt lat="40.17192600452477" lon="18.159515194686882"><ele>85.0</ele><time>2026-04-05T08:34:07.001Z</time></trkpt><trkpt lat="40.17206494176891" lon="18.159449907722916"><ele>85.0</ele><time>2026-04-05T08:34:09.001Z</time></trkpt><trkpt lat="40.172128994192605" lon="18.159418432365975"><ele>85.0</ele><time>2026-04-05T08:34:15.001Z</time></trkpt><trkpt lat="40.172194666484366" lon="18.159381042009596"><ele>85.0</ele><time>2026-04-05T08:34:21.001Z</time></trkpt><trkpt lat="40.1722975185745" lon="18.159351916314183"><ele>85.0</ele><time>2026-04-05T08:34:22.001Z</time></trkpt><trkpt lat="40.17235668542498" lon="18.159306988675212"><ele>84.8</ele><time>2026-04-05T08:34:23.001Z</time></trkpt><trkpt lat="40.172435452927644" lon="18.159295247899156"><ele>84.6</ele><time>2026-04-05T08:34:24.001Z</time></trkpt><trkpt lat="40.17254408755506" lon="18.15925498932873"><ele>84.4</ele><time>2026-04-05T08:34:25.001Z</time></trkpt><trkpt lat="40.172625904777746" lon="18.159225190894347"><ele>84.2</ele><time>2026-04-05T08:34:26.001Z</time></trkpt><trkpt lat="40.17271447823701" lon="18.159184830566957"><ele>84.0</ele><time>2026-04-05T08:34:27.001Z</time></trkpt><trkpt lat="40.172781019628445" lon="18.15912702630624"><ele>84.0</ele><time>2026-04-05T08:34:28.001Z</time></trkpt><trkpt lat="40.172867177946614" lon="18.15909583894031"><ele>84.0</ele><time>2026-04-05T08:34:29.001Z</time></trkpt><trkpt lat="40.17312660147961" lon="18.15905101062258"><ele>84.0</ele><time>2026-04-05T08:34:30.001Z</time></trkpt><trkpt lat="40.173189686195954" lon="18.159016285200178"><ele>84.0</ele><time>2026-04-05T08:34:31.001Z</time></trkpt><trkpt lat="40.173282678594845" lon="18.15896510205237"><ele>84.0</ele><time>2026-04-05T08:34:32.001Z</time></trkpt><trkpt lat="40.17337003337313" lon="18.158944682024845"><ele>84.0</ele><time>2026-04-05T08:34:33.001Z</time></trkpt><trkpt lat="40.173451121888974" lon="18.158911638822044"><ele>84.0</ele><time>2026-04-05T08:34:34.001Z</time></trkpt><trkpt lat="40.17354119693455" lon="18.158874933735003"><ele>84.0</ele><time>2026-04-05T08:34:35.001Z</time></trkpt><trkpt lat="40.17361104689962" lon="18.158827784578158"><ele>84.0</ele><time>2026-04-05T08:34:36.001Z</time></trkpt><trkpt lat="40.173688836920014" lon="18.158842780544866"><ele>84.0</ele><time>2026-04-05T08:34:37.001Z</time></trkpt><trkpt lat="40.17376581277752" lon="18.158821500622686"><ele>84.0</ele><time>2026-04-05T08:34:38.001Z</time></trkpt><trkpt lat="40.17383744208232" lon="18.158772128858466"><ele>84.0</ele><time>2026-04-05T08:34:39.001Z</time></trkpt><trkpt lat="40.173927268126256" lon="18.158732809238785"><ele>84.0</ele><time>2026-04-05T08:34:40.001Z</time></trkpt><trkpt lat="40.17401797819797" lon="18.15871468776917"><ele>84.0</ele><time>2026-04-05T08:34:43.001Z</time></trkpt><trkpt lat="40.17405744244621" lon="18.158645654258898"><ele>84.0</ele><time>2026-04-05T08:34:45.001Z</time></trkpt><trkpt lat="40.17412609810981" lon="18.15860826582668"><ele>84.0</ele><time>2026-04-05T08:34:47.001Z</time></trkpt><trkpt lat="40.17420464179889" lon="18.158587534569737"><ele>84.6</ele><time>2026-04-05T08:34:49.001Z</time></trkpt><trkpt lat="40.174265645598375" lon="18.158560448561815"><ele>85.2</ele><time>2026-04-05T08:34:50.001Z</time></trkpt><trkpt lat="40.17436853807133" lon="18.15851476381212"><ele>85.8</ele><time>2026-04-05T08:34:52.001Z</time></trkpt><trkpt lat="40.17445871284316" lon="18.15847472583353"><ele>86.39999999999999</ele><time>2026-04-05T08:34:54.001Z</time></trkpt><trkpt lat="40.17455974643879" lon="18.158427761047697"><ele>87.0</ele><time>2026-04-05T08:34:56.001Z</time></trkpt><trkpt lat="40.174645070886015" lon="18.158380173424025"><ele>87.0</ele><time>2026-04-05T08:35:00.001Z</time></trkpt><trkpt lat="40.1746518595185" lon="18.15885111884071"><ele>87.0</ele><time>2026-04-05T08:35:08.001Z</time></trkpt><trkpt lat="40.17463834655297" lon="18.158994913463857"><ele>87.25</ele><time>2026-04-05T08:35:09.001Z</time></trkpt><trkpt lat="40.174625045956944" lon="18.159133515281994"><ele>87.5</ele><time>2026-04-05T08:35:10.001Z</time></trkpt><trkpt lat="40.174609596391164" lon="18.159291894608305"><ele>87.75</ele><time>2026-04-05T08:35:11.001Z</time></trkpt><trkpt lat="40.174588175545956" lon="18.159534086829044"><ele>88.0</ele><time>2026-04-05T08:35:12.001Z</time></trkpt><trkpt lat="40.17463798723074" lon="18.159713654212243"><ele>88.0</ele><time>2026-04-05T08:35:13.001Z</time></trkpt><trkpt lat="40.17462843164247" lon="18.159819691286472"><ele>88.0</ele><time>2026-04-05T08:35:14.001Z</time></trkpt><trkpt lat="40.17455366687831" lon="18.15996571430188"><ele>88.0</ele><time>2026-04-05T08:35:16Z</time></trkpt><trkpt lat="40.174495996584646" lon="18.16015532281263"><ele>88.0</ele><time>2026-04-05T08:35:17Z</time></trkpt><trkpt lat="40.17449551918668" lon="18.160246132888567"><ele>88.0</ele><time>2026-04-05T08:35:18Z</time></trkpt><trkpt lat="40.17451070814862" lon="18.16036875679421"><ele>88.0</ele><time>2026-04-05T08:35:19Z</time></trkpt><trkpt lat="40.17451063306224" lon="18.160498665630943"><ele>88.0</ele><time>2026-04-05T08:35:20Z</time></trkpt><trkpt lat="40.174511291982235" lon="18.160640926913505"><ele>88.0</ele><time>2026-04-05T08:35:21Z</time></trkpt><trkpt lat="40.17451523193781" lon="18.16081158402184"><ele>88.0</ele><time>2026-04-05T08:35:22Z</time></trkpt><trkpt lat="40.174503041412436" lon="18.161007351749294"><ele>88.0</ele><time>2026-04-05T08:35:23Z</time></trkpt><trkpt lat="40.174537689249334" lon="18.16121174221606"><ele>88.0</ele><time>2026-04-05T08:35:24Z</time></trkpt><trkpt lat="40.17455839897668" lon="18.161380112094285"><ele>88.0</ele><time>2026-04-05T08:35:25Z</time></trkpt><trkpt lat="40.174543166936445" lon="18.161554545971423"><ele>88.0</ele><time>2026-04-05T08:35:26Z</time></trkpt><trkpt lat="40.174543737186845" lon="18.161718977891024"><ele>87.25</ele><time>2026-04-05T08:35:27Z</time></trkpt><trkpt lat="40.174544685374954" lon="18.161889234933014"><ele>86.5</ele><time>2026-04-05T08:35:28Z</time></trkpt><trkpt lat="40.174534323312386" lon="18.162061478112467"><ele>85.75</ele><time>2026-04-05T08:35:29Z</time></trkpt><trkpt lat="40.17453369072538" lon="18.16221062491128"><ele>85.0</ele><time>2026-04-05T08:35:30Z</time></trkpt><trkpt lat="40.1745245571099" lon="18.162336828188714"><ele>84.2</ele><time>2026-04-05T08:35:31Z</time></trkpt><trkpt lat="40.17453897873881" lon="18.16245644790909"><ele>83.4</ele><time>2026-04-05T08:35:32Z</time></trkpt><trkpt lat="40.174540817925596" lon="18.162541589785633"><ele>82.6</ele><time>2026-04-05T08:35:33Z</time></trkpt><trkpt lat="40.174543558422535" lon="18.162668456443722"><ele>81.8</ele><time>2026-04-05T08:35:34Z</time></trkpt><trkpt lat="40.17454672554903" lon="18.16281507271341"><ele>81.0</ele><time>2026-04-05T08:35:35Z</time></trkpt><trkpt lat="40.17454926036002" lon="18.16295870232493"><ele>81.0</ele><time>2026-04-05T08:35:36Z</time></trkpt><trkpt lat="40.174538729487395" lon="18.16310522368589"><ele>81.0</ele><time>2026-04-05T08:35:37Z</time></trkpt><trkpt lat="40.17454483398109" lon="18.163274619830332"><ele>81.0</ele><time>2026-04-05T08:35:38Z</time></trkpt><trkpt lat="40.174573450266166" lon="18.16342092358248"><ele>81.0</ele><time>2026-04-05T08:35:39Z</time></trkpt><trkpt lat="40.17458036786642" lon="18.163577290761836"><ele>80.75</ele><time>2026-04-05T08:35:40Z</time></trkpt><trkpt lat="40.1745785923307" lon="18.163726576001054"><ele>80.5</ele><time>2026-04-05T08:35:41Z</time></trkpt><trkpt lat="40.17458621648516" lon="18.163887027279205"><ele>80.25</ele><time>2026-04-05T08:35:42Z</time></trkpt><trkpt lat="40.17456973042143" lon="18.164042234261917"><ele>80.0</ele><time>2026-04-05T08:35:43Z</time></trkpt><trkpt lat="40.1745713377106" lon="18.164192509442547"><ele>80.0</ele><time>2026-04-05T08:35:44Z</time></trkpt><trkpt lat="40.1745699937243" lon="18.16434358044341"><ele>80.0</ele><time>2026-04-05T08:35:45Z</time></trkpt><trkpt lat="40.17457599331477" lon="18.164463731400982"><ele>80.0</ele><time>2026-04-05T08:35:46Z</time></trkpt><trkpt lat="40.174591168690554" lon="18.16457420326917"><ele>80.0</ele><time>2026-04-05T08:35:47Z</time></trkpt><trkpt lat="40.174604955656" lon="18.164678541586067"><ele>80.0</ele><time>2026-04-05T08:35:48Z</time></trkpt><trkpt lat="40.174589185112275" lon="18.164764400914006"><ele>80.0</ele><time>2026-04-05T08:35:49Z</time></trkpt><trkpt lat="40.174588540273156" lon="18.164677907645622"><ele>80.0</ele><time>2026-04-05T08:36:05.001Z</time></trkpt><trkpt lat="40.17458951289151" lon="18.164808366073164"><ele>80.0</ele><time>2026-04-05T08:36:29.001Z</time></trkpt><trkpt lat="40.174590132075636" lon="18.164891417943885"><ele>80.0</ele><time>2026-04-05T08:36:30.001Z</time></trkpt><trkpt lat="40.17460163336433" lon="18.165001482560424"><ele>80.0</ele><time>2026-04-05T08:36:31.001Z</time></trkpt><trkpt lat="40.174599875165455" lon="18.16513034504133"><ele>80.0</ele><time>2026-04-05T08:36:32.001Z</time></trkpt><trkpt lat="40.17458857645459" lon="18.165254604037507"><ele>80.0</ele><time>2026-04-05T08:36:33.001Z</time></trkpt><trkpt lat="40.17458988459268" lon="18.165398840799778"><ele>79.75</ele><time>2026-04-05T08:36:34.001Z</time></trkpt><trkpt lat="40.174581244260835" lon="18.165541465169454"><ele>79.5</ele><time>2026-04-05T08:36:35.001Z</time></trkpt><trkpt lat="40.17457036231368" lon="18.165693474134798"><ele>79.25</ele><time>2026-04-05T08:36:36.001Z</time></trkpt><trkpt lat="40.17458701720575" lon="18.16584616051504"><ele>79.0</ele><time>2026-04-05T08:36:37.001Z</time></trkpt><trkpt lat="40.17459877777003" lon="18.16599596339897"><ele>78.8</ele><time>2026-04-05T08:36:38.001Z</time></trkpt><trkpt lat="40.17460321307547" lon="18.166145254637353"><ele>78.60000000000001</ele><time>2026-04-05T08:36:39.001Z</time></trkpt><trkpt lat="40.1745972692334" lon="18.16629398196569"><ele>78.4</ele><time>2026-04-05T08:36:40.001Z</time></trkpt><trkpt lat="40.174600572105966" lon="18.16642580459038"><ele>78.2</ele><time>2026-04-05T08:36:41.001Z</time></trkpt><trkpt lat="40.17459208138731" lon="18.166554488593736"><ele>78.0</ele><time>2026-04-05T08:36:42.001Z</time></trkpt><trkpt lat="40.17458894341" lon="18.166692261380867"><ele>78.33333333333333</ele><time>2026-04-05T08:36:43.001Z</time></trkpt><trkpt lat="40.17457062205633" lon="18.16681769661026"><ele>78.66666666666667</ele><time>2026-04-05T08:36:44.001Z</time></trkpt><trkpt lat="40.174576987885985" lon="18.166935181143035"><ele>79.0</ele><time>2026-04-05T08:36:45.001Z</time></trkpt><trkpt lat="40.174579327338265" lon="18.1670694863734"><ele>79.33333333333334</ele><time>2026-04-05T08:36:46.001Z</time></trkpt><trkpt lat="40.17458895906803" lon="18.16718421959903"><ele>79.66666666666667</ele><time>2026-04-05T08:36:47.001Z</time></trkpt><trkpt lat="40.17460230476064" lon="18.167274084495702"><ele>80.0</ele><time>2026-04-05T08:36:48.001Z</time></trkpt><trkpt lat="40.17463466350433" lon="18.16742703811508"><ele>80.16666666666667</ele><time>2026-04-05T08:36:50.001Z</time></trkpt><trkpt lat="40.17464815092374" lon="18.16754127156014"><ele>80.33333333333334</ele><time>2026-04-05T08:36:52.001Z</time></trkpt><trkpt lat="40.17469208458489" lon="18.167609644483125"><ele>80.5</ele><time>2026-04-05T08:36:53.001Z</time></trkpt><trkpt lat="40.17472338100121" lon="18.16775003325253"><ele>80.66666666666667</ele><time>2026-04-05T08:36:55.001Z</time></trkpt><trkpt lat="40.174754839281775" lon="18.16785412616796"><ele>80.83333333333333</ele><time>2026-04-05T08:36:57.001Z</time></trkpt><trkpt lat="40.1747805833159" lon="18.167938644165886"><ele>81.0</ele><time>2026-04-05T08:36:59.001Z</time></trkpt><trkpt lat="40.174837674305635" lon="18.167990675826744"><ele>81.0</ele><time>2026-04-05T08:37:02.001Z</time></trkpt><trkpt lat="40.1747298172467" lon="18.168108008610012"><ele>81.0</ele><time>2026-04-05T08:37:05.001Z</time></trkpt><trkpt lat="40.17464696646243" lon="18.168156568117894"><ele>81.0</ele><time>2026-04-05T08:37:06.001Z</time></trkpt><trkpt lat="40.17455659391039" lon="18.168209954499222"><ele>81.0</ele><time>2026-04-05T08:37:07.001Z</time></trkpt><trkpt lat="40.17449192804566" lon="18.168243053092954"><ele>81.0</ele><time>2026-04-05T08:37:08.001Z</time></trkpt><trkpt lat="40.17440841268349" lon="18.168296387260963"><ele>80.8</ele><time>2026-04-05T08:37:10.001Z</time></trkpt><trkpt lat="40.17442652488039" lon="18.168434802289607"><ele>80.6</ele><time>2026-04-05T08:37:11.001Z</time></trkpt><trkpt lat="40.17443398224277" lon="18.168592810878433"><ele>80.4</ele><time>2026-04-05T08:37:13.002Z</time></trkpt><trkpt lat="40.174485514148" lon="18.168723480267758"><ele>80.2</ele><time>2026-04-05T08:37:15.002Z</time></trkpt><trkpt lat="40.174524923635666" lon="18.168799620520552"><ele>80.0</ele><time>2026-04-05T08:37:16.002Z</time></trkpt><trkpt lat="40.17456905868096" lon="18.168868726517896"><ele>80.0</ele><time>2026-04-05T08:37:17.002Z</time></trkpt><trkpt lat="40.17462618699993" lon="18.168963870749458"><ele>80.0</ele><time>2026-04-05T08:37:19.002Z</time></trkpt><trkpt lat="40.17470991879426" lon="18.169063698066168"><ele>80.0</ele><time>2026-04-05T08:37:21Z</time></trkpt><trkpt lat="40.17478561529143" lon="18.1691619749521"><ele>80.0</ele><time>2026-04-05T08:37:23Z</time></trkpt><trkpt lat="40.17492602898675" lon="18.169063773223545"><ele>79.83333333333334</ele><time>2026-04-05T08:37:24Z</time></trkpt><trkpt lat="40.17498927384205" lon="18.16901277539027"><ele>79.66666666666667</ele><time>2026-04-05T08:37:25Z</time></trkpt><trkpt lat="40.17504386568436" lon="18.168968559451105"><ele>79.5</ele><time>2026-04-05T08:37:26Z</time></trkpt><trkpt lat="40.17514554434597" lon="18.16890999753269"><ele>79.33333333333333</ele><time>2026-04-05T08:37:28Z</time></trkpt><trkpt lat="40.1752530754081" lon="18.16884984524756"><ele>79.16666666666666</ele><time>2026-04-05T08:37:30Z</time></trkpt><trkpt lat="40.17531054097888" lon="18.168812865749693"><ele>79.0</ele><time>2026-04-05T08:37:31Z</time></trkpt><trkpt lat="40.17537307599659" lon="18.168775569436466"><ele>79.0</ele><time>2026-04-05T08:37:32Z</time></trkpt><trkpt lat="40.17548772405139" lon="18.168723980050927"><ele>79.0</ele><time>2026-04-05T08:37:34Z</time></trkpt><trkpt lat="40.175603748487916" lon="18.168732680163586"><ele>79.0</ele><time>2026-04-05T08:37:36Z</time></trkpt><trkpt lat="40.17568718599275" lon="18.168720267591127"><ele>79.0</ele><time>2026-04-05T08:37:37Z</time></trkpt><trkpt lat="40.17576889710704" lon="18.168711230010324"><ele>79.0</ele><time>2026-04-05T08:37:38Z</time></trkpt><trkpt lat="40.175852384852014" lon="18.16870532259881"><ele>79.2</ele><time>2026-04-05T08:37:39Z</time></trkpt><trkpt lat="40.175935429700246" lon="18.16870180522651"><ele>79.4</ele><time>2026-04-05T08:37:40Z</time></trkpt><trkpt lat="40.17604134650695" lon="18.168702273447884"><ele>79.6</ele><time>2026-04-05T08:37:41Z</time></trkpt><trkpt lat="40.176144158042355" lon="18.16869273889438"><ele>79.8</ele><time>2026-04-05T08:37:42Z</time></trkpt><trkpt lat="40.17623507477561" lon="18.16868842953519"><ele>80.0</ele><time>2026-04-05T08:37:43Z</time></trkpt><trkpt lat="40.17633101129762" lon="18.16867654736707"><ele>80.0</ele><time>2026-04-05T08:37:44Z</time></trkpt><trkpt lat="40.176434765883975" lon="18.168667610411173"><ele>80.0</ele><time>2026-04-05T08:37:45Z</time></trkpt><trkpt lat="40.17652935368243" lon="18.16868608900431"><ele>80.0</ele><time>2026-04-05T08:37:46Z</time></trkpt><trkpt lat="40.17661966004981" lon="18.168682066267564"><ele>80.0</ele><time>2026-04-05T08:37:47Z</time></trkpt><trkpt lat="40.17668743703032" lon="18.168700485486056"><ele>80.0</ele><time>2026-04-05T08:37:48Z</time></trkpt><trkpt lat="40.17675175295075" lon="18.168659177799753"><ele>80.0</ele><time>2026-04-05T08:37:49Z</time></trkpt><trkpt lat="40.176818149466854" lon="18.168641280616836"><ele>80.25</ele><time>2026-04-05T08:37:50Z</time></trkpt><trkpt lat="40.17692682678167" lon="18.168640930970433"><ele>80.5</ele><time>2026-04-05T08:37:52Z</time></trkpt><trkpt lat="40.17702542783495" lon="18.16886597032578"><ele>80.75</ele><time>2026-04-05T08:37:55Z</time></trkpt><trkpt lat="40.17706947139827" lon="18.168935542000224"><ele>81.0</ele><time>2026-04-05T08:37:56Z</time></trkpt><trkpt lat="40.17710599029912" lon="18.16903124707157"><ele>81.0</ele><time>2026-04-05T08:37:57Z</time></trkpt><trkpt lat="40.177173260047816" lon="18.169162161616875"><ele>81.0</ele><time>2026-04-05T08:37:59Z</time></trkpt><trkpt lat="40.17724286806377" lon="18.169276298356056"><ele>81.0</ele><time>2026-04-05T08:38:01Z</time></trkpt><trkpt lat="40.17727930881169" lon="18.169396702756664"><ele>81.0</ele><time>2026-04-05T08:38:03Z</time></trkpt><trkpt lat="40.177344387978216" lon="18.169489431745532"><ele>81.0</ele><time>2026-04-05T08:38:05Z</time></trkpt><trkpt lat="40.177386474706466" lon="18.16956550128596"><ele>81.0</ele><time>2026-04-05T08:38:07Z</time></trkpt><trkpt lat="40.17742784012463" lon="18.169637010625266"><ele>81.0</ele><time>2026-04-05T08:38:10.001Z</time></trkpt><trkpt lat="40.17744554287577" lon="18.16972565542026"><ele>81.0</ele><time>2026-04-05T08:38:19.001Z</time></trkpt><trkpt lat="40.177497619880256" lon="18.169813330885017"><ele>81.0</ele><time>2026-04-05T08:38:21.001Z</time></trkpt><trkpt lat="40.17757250250478" lon="18.16993932156724"><ele>81.0</ele><time>2026-04-05T08:38:23.001Z</time></trkpt><trkpt lat="40.177608787131355" lon="18.17002222358194"><ele>81.0</ele><time>2026-04-05T08:38:24.001Z</time></trkpt><trkpt lat="40.177660703342546" lon="18.170109852172807"><ele>80.66666666666667</ele><time>2026-04-05T08:38:25.001Z</time></trkpt><trkpt lat="40.177702254677904" lon="18.170188741712224"><ele>80.33333333333333</ele><time>2026-04-05T08:38:26.001Z</time></trkpt><trkpt lat="40.17775923931718" lon="18.170309271467428"><ele>80.0</ele><time>2026-04-05T08:38:28.001Z</time></trkpt><trkpt lat="40.17779936777884" lon="18.170381913507715"><ele>79.66666666666666</ele><time>2026-04-05T08:38:30.001Z</time></trkpt><trkpt lat="40.17783486180695" lon="18.170477564828463"><ele>79.33333333333333</ele><time>2026-04-05T08:38:42.001Z</time></trkpt><trkpt lat="40.17787878896512" lon="18.17056518204095"><ele>79.0</ele><time>2026-04-05T08:38:44.001Z</time></trkpt><trkpt lat="40.17791623705521" lon="18.170661860002912"><ele>78.8</ele><time>2026-04-05T08:38:46.001Z</time></trkpt><trkpt lat="40.1779469983271" lon="18.170734428075804"><ele>78.60000000000001</ele><time>2026-04-05T08:38:47.001Z</time></trkpt><trkpt lat="40.17801612264333" lon="18.17083988705406"><ele>78.4</ele><time>2026-04-05T08:38:49.001Z</time></trkpt><trkpt lat="40.178083531232254" lon="18.170958918942205"><ele>78.2</ele><time>2026-04-05T08:38:51.001Z</time></trkpt><trkpt lat="40.17813739076298" lon="18.171069067802385"><ele>78.0</ele><time>2026-04-05T08:38:53.001Z</time></trkpt><trkpt lat="40.17816354147959" lon="18.17116123893541"><ele>77.66666666666667</ele><time>2026-04-05T08:38:55.001Z</time></trkpt><trkpt lat="40.178195740639715" lon="18.171237674088555"><ele>77.33333333333333</ele><time>2026-04-05T08:38:57.001Z</time></trkpt><trkpt lat="40.17825308729595" lon="18.17134024727943"><ele>77.0</ele><time>2026-04-05T08:38:59.001Z</time></trkpt><trkpt lat="40.17833587016227" lon="18.171455053505053"><ele>76.66666666666666</ele><time>2026-04-05T08:39:01.001Z</time></trkpt><trkpt lat="40.17839210621718" lon="18.1715283881754"><ele>76.33333333333333</ele><time>2026-04-05T08:39:02.001Z</time></trkpt><trkpt lat="40.17844000996011" lon="18.171618773059315"><ele>76.0</ele><time>2026-04-05T08:39:03.001Z</time></trkpt><trkpt lat="40.17848397553902" lon="18.17172342368894"><ele>75.5</ele><time>2026-04-05T08:39:04.001Z</time></trkpt><trkpt lat="40.17852397118808" lon="18.17185223878426"><ele>75.0</ele><time>2026-04-05T08:39:05.001Z</time></trkpt><trkpt lat="40.17857109773202" lon="18.171948161858673"><ele>74.5</ele><time>2026-04-05T08:39:06.001Z</time></trkpt><trkpt lat="40.178594643230525" lon="18.1720561584383"><ele>74.0</ele><time>2026-04-05T08:39:07.001Z</time></trkpt><trkpt lat="40.17862134623792" lon="18.172136266381536"><ele>73.5</ele><time>2026-04-05T08:39:08.001Z</time></trkpt><trkpt lat="40.17864278269362" lon="18.172226167673802"><ele>73.0</ele><time>2026-04-05T08:39:09.001Z</time></trkpt><trkpt lat="40.17867312116527" lon="18.172317241651832"><ele>72.57142857142857</ele><time>2026-04-05T08:39:10.001Z</time></trkpt><trkpt lat="40.17870448121856" lon="18.17242034195056"><ele>72.14285714285714</ele><time>2026-04-05T08:39:11.001Z</time></trkpt><trkpt lat="40.17873459757751" lon="18.172511430129937"><ele>71.71428571428572</ele><time>2026-04-05T08:39:12.001Z</time></trkpt><trkpt lat="40.17876056983398" lon="18.172592387455666"><ele>71.28571428571428</ele><time>2026-04-05T08:39:13.001Z</time></trkpt><trkpt lat="40.17876168438481" lon="18.172697717140622"><ele>70.85714285714286</ele><time>2026-04-05T08:39:15.001Z</time></trkpt><trkpt lat="40.17878931869176" lon="18.172779791807116"><ele>70.42857142857143</ele><time>2026-04-05T08:39:17.001Z</time></trkpt><trkpt lat="40.178811502742064" lon="18.17285880655931"><ele>70.0</ele><time>2026-04-05T08:39:18.001Z</time></trkpt><trkpt lat="40.17884000299612" lon="18.17294975105009"><ele>70.0</ele><time>2026-04-05T08:39:19.001Z</time></trkpt><trkpt lat="40.178872917059515" lon="18.173049785374015"><ele>70.0</ele><time>2026-04-05T08:39:20.001Z</time></trkpt><trkpt lat="40.178905048947065" lon="18.173153503738362"><ele>70.0</ele><time>2026-04-05T08:39:21.001Z</time></trkpt><trkpt lat="40.17893131045816" lon="18.17325587648746"><ele>70.0</ele><time>2026-04-05T08:39:22.001Z</time></trkpt><trkpt lat="40.17895934712017" lon="18.173333093727845"><ele>70.0</ele><time>2026-04-05T08:39:23.001Z</time></trkpt><trkpt lat="40.17899578251512" lon="18.17342805980972"><ele>70.0</ele><time>2026-04-05T08:39:25.001Z</time></trkpt><trkpt lat="40.17901930386267" lon="18.17350651992061"><ele>69.33333333333333</ele><time>2026-04-05T08:39:27Z</time></trkpt><trkpt lat="40.179052769760965" lon="18.173658369401373"><ele>68.66666666666666</ele><time>2026-04-05T08:39:29Z</time></trkpt><trkpt lat="40.17907780724773" lon="18.173749748128994"><ele>68.0</ele><time>2026-04-05T08:39:30Z</time></trkpt><trkpt lat="40.179108939204845" lon="18.173833707179675"><ele>67.33333333333333</ele><time>2026-04-05T08:39:31Z</time></trkpt><trkpt lat="40.17913500921832" lon="18.1739097955401"><ele>66.66666666666667</ele><time>2026-04-05T08:39:32Z</time></trkpt><trkpt lat="40.179183036753415" lon="18.174047337138635"><ele>66.0</ele><time>2026-04-05T08:39:34Z</time></trkpt><trkpt lat="40.17920802020118" lon="18.174146851246658"><ele>66.0</ele><time>2026-04-05T08:39:36Z</time></trkpt><trkpt lat="40.179237231658895" lon="18.174247886594852"><ele>66.0</ele><time>2026-04-05T08:39:39Z</time></trkpt><trkpt lat="40.179262084568656" lon="18.17434016318263"><ele>66.0</ele><time>2026-04-05T08:39:41Z</time></trkpt><trkpt lat="40.17931916530417" lon="18.174473784056808"><ele>66.0</ele><time>2026-04-05T08:39:43Z</time></trkpt><trkpt lat="40.17938135640912" lon="18.17463946377303"><ele>66.0</ele><time>2026-04-05T08:39:45Z</time></trkpt><trkpt lat="40.17941964231028" lon="18.1747162589561"><ele>66.0</ele><time>2026-04-05T08:39:46Z</time></trkpt><trkpt lat="40.17944863687332" lon="18.174794189482693"><ele>66.0</ele><time>2026-04-05T08:39:47Z</time></trkpt><trkpt lat="40.17948844957525" lon="18.174887406390937"><ele>66.0</ele><time>2026-04-05T08:39:48Z</time></trkpt><trkpt lat="40.179529507248226" lon="18.17499049775417"><ele>66.0</ele><time>2026-04-05T08:39:49Z</time></trkpt><trkpt lat="40.17955153818488" lon="18.175104963366252"><ele>66.0</ele><time>2026-04-05T08:39:50Z</time></trkpt><trkpt lat="40.17959005364921" lon="18.175229887016627"><ele>66.0</ele><time>2026-04-05T08:39:51Z</time></trkpt><trkpt lat="40.17961762943757" lon="18.175357212688198"><ele>66.0</ele><time>2026-04-05T08:39:52Z</time></trkpt><trkpt lat="40.17964764767848" lon="18.175506222852498"><ele>66.0</ele><time>2026-04-05T08:39:53Z</time></trkpt><trkpt lat="40.17968296506823" lon="18.17565092522482"><ele>66.0</ele><time>2026-04-05T08:39:54Z</time></trkpt><trkpt lat="40.1797052007789" lon="18.175790482358604"><ele>66.0</ele><time>2026-04-05T08:39:55Z</time></trkpt><trkpt lat="40.179740718431106" lon="18.175942746763923"><ele>65.8</ele><time>2026-04-05T08:39:56Z</time></trkpt><trkpt lat="40.17977798114261" lon="18.17608094048995"><ele>65.6</ele><time>2026-04-05T08:39:57Z</time></trkpt><trkpt lat="40.17980992887087" lon="18.17621463409608"><ele>65.4</ele><time>2026-04-05T08:39:58Z</time></trkpt><trkpt lat="40.179827755806286" lon="18.17631344614527"><ele>65.2</ele><time>2026-04-05T08:39:59Z</time></trkpt><trkpt lat="40.17984834247849" lon="18.17640371087222"><ele>65.0</ele><time>2026-04-05T08:40:00Z</time></trkpt><trkpt lat="40.17987338647717" lon="18.176506536191575"><ele>65.33333333333334</ele><time>2026-04-05T08:40:01Z</time></trkpt><trkpt lat="40.17989297742917" lon="18.176602551538718"><ele>65.66666666666667</ele><time>2026-04-05T08:40:02Z</time></trkpt><trkpt lat="40.17992481184493" lon="18.176704470463918"><ele>66.0</ele><time>2026-04-05T08:40:03Z</time></trkpt><trkpt lat="40.17995564003696" lon="18.176796712017744"><ele>66.33333333333333</ele><time>2026-04-05T08:40:04Z</time></trkpt><trkpt lat="40.17998601797505" lon="18.176883311455487"><ele>66.66666666666666</ele><time>2026-04-05T08:40:05Z</time></trkpt><trkpt lat="40.18001053001317" lon="18.176962037429536"><ele>67.0</ele><time>2026-04-05T08:40:06Z</time></trkpt><trkpt lat="40.18005578145328" lon="18.17709535312056"><ele>67.0</ele><time>2026-04-05T08:40:08Z</time></trkpt><trkpt lat="40.18009939843796" lon="18.177232906292396"><ele>67.0</ele><time>2026-04-05T08:40:10Z</time></trkpt><trkpt lat="40.180145019739875" lon="18.17734911847864"><ele>67.0</ele><time>2026-04-05T08:40:12Z</time></trkpt><trkpt lat="40.180168852924666" lon="18.17747064247933"><ele>67.0</ele><time>2026-04-05T08:40:14Z</time></trkpt><trkpt lat="40.18020525085388" lon="18.177539432084583"><ele>67.0</ele><time>2026-04-05T08:40:15Z</time></trkpt><trkpt lat="40.180223400151746" lon="18.177619981675026"><ele>67.0</ele><time>2026-04-05T08:40:16Z</time></trkpt><trkpt lat="40.18024963576993" lon="18.177702340791864"><ele>67.16666666666666</ele><time>2026-04-05T08:40:17.001Z</time></trkpt><trkpt lat="40.180276447442594" lon="18.17778500602398"><ele>67.33333333333333</ele><time>2026-04-05T08:40:18.001Z</time></trkpt><trkpt lat="40.180303026327984" lon="18.177862327827192"><ele>67.5</ele><time>2026-04-05T08:40:19.001Z</time></trkpt><trkpt lat="40.180335088948965" lon="18.177987502683692"><ele>67.66666666666667</ele><time>2026-04-05T08:40:21.001Z</time></trkpt><trkpt lat="40.180361298613136" lon="18.1780747293881"><ele>67.83333333333334</ele><time>2026-04-05T08:40:23.001Z</time></trkpt><trkpt lat="40.18038834702503" lon="18.17815927402247"><ele>68.0</ele><time>2026-04-05T08:40:25.001Z</time></trkpt><trkpt lat="40.18041908736012" lon="18.17826721141663"><ele>68.0</ele><time>2026-04-05T08:40:27.001Z</time></trkpt><trkpt lat="40.18043637207431" lon="18.1783473491802"><ele>68.0</ele><time>2026-04-05T08:40:28.001Z</time></trkpt><trkpt lat="40.18045271632045" lon="18.178445637978168"><ele>68.0</ele><time>2026-04-05T08:40:29.001Z</time></trkpt><trkpt lat="40.180468441304164" lon="18.17855378291684"><ele>68.0</ele><time>2026-04-05T08:40:30.001Z</time></trkpt><trkpt lat="40.1804842936124" lon="18.178673062678932"><ele>68.0</ele><time>2026-04-05T08:40:31.001Z</time></trkpt><trkpt lat="40.180500921270536" lon="18.17880251700788"><ele>68.0</ele><time>2026-04-05T08:40:32.001Z</time></trkpt><trkpt lat="40.18051510820135" lon="18.178912972072844"><ele>68.2</ele><time>2026-04-05T08:40:33.001Z</time></trkpt><trkpt lat="40.180530993048265" lon="18.179028802957475"><ele>68.4</ele><time>2026-04-05T08:40:34.001Z</time></trkpt><trkpt lat="40.1805460490451" lon="18.179141537333766"><ele>68.60000000000001</ele><time>2026-04-05T08:40:35.001Z</time></trkpt><trkpt lat="40.18055793942015" lon="18.1792305684268"><ele>68.8</ele><time>2026-04-05T08:40:36.001Z</time></trkpt><trkpt lat="40.18057927499779" lon="18.179390322244622"><ele>69.0</ele><time>2026-04-05T08:40:38.001Z</time></trkpt><trkpt lat="40.18059791867505" lon="18.179529921100404"><ele>69.0</ele><time>2026-04-05T08:40:40.001Z</time></trkpt><trkpt lat="40.18061481878656" lon="18.179656469565515"><ele>69.0</ele><time>2026-04-05T08:40:42.001Z</time></trkpt><trkpt lat="40.1806407246093" lon="18.179733460566318"><ele>69.0</ele><time>2026-04-05T08:40:43.001Z</time></trkpt><trkpt lat="40.18065229644002" lon="18.179824240576536"><ele>69.0</ele><time>2026-04-05T08:40:44.001Z</time></trkpt><trkpt lat="40.18065890620502" lon="18.179927619366506"><ele>69.0</ele><time>2026-04-05T08:40:45.001Z</time></trkpt><trkpt lat="40.180674670955256" lon="18.180030276016403"><ele>69.0</ele><time>2026-04-05T08:40:46.001Z</time></trkpt><trkpt lat="40.18068508033593" lon="18.18013777398229"><ele>69.0</ele><time>2026-04-05T08:40:47.001Z</time></trkpt><trkpt lat="40.18069854032501" lon="18.180237567606174"><ele>69.0</ele><time>2026-04-05T08:40:48.001Z</time></trkpt><trkpt lat="40.18071430757114" lon="18.18033939224788"><ele>69.0</ele><time>2026-04-05T08:40:49.001Z</time></trkpt><trkpt lat="40.180725532229175" lon="18.180449816791796"><ele>69.0</ele><time>2026-04-05T08:40:50.001Z</time></trkpt><trkpt lat="40.18073862133598" lon="18.180552479243715"><ele>69.0</ele><time>2026-04-05T08:40:51.001Z</time></trkpt><trkpt lat="40.18075856447838" lon="18.180648451342368"><ele>69.0</ele><time>2026-04-05T08:40:52.001Z</time></trkpt><trkpt lat="40.18076635736954" lon="18.180757457469788"><ele>69.16666666666667</ele><time>2026-04-05T08:40:53.001Z</time></trkpt><trkpt lat="40.180781754069756" lon="18.180867231879294"><ele>69.33333333333333</ele><time>2026-04-05T08:40:54.001Z</time></trkpt><trkpt lat="40.180810740140736" lon="18.180971795308977"><ele>69.5</ele><time>2026-04-05T08:40:55.001Z</time></trkpt><trkpt lat="40.18081924902854" lon="18.181078537674047"><ele>69.66666666666666</ele><time>2026-04-05T08:40:56.001Z</time></trkpt><trkpt lat="40.18083175391764" lon="18.18119137252694"><ele>69.83333333333333</ele><time>2026-04-05T08:40:57.001Z</time></trkpt><trkpt lat="40.18084557215261" lon="18.18130130141945"><ele>70.0</ele><time>2026-04-05T08:40:58.001Z</time></trkpt><trkpt lat="40.18086128638022" lon="18.181414405756215"><ele>69.83333333333333</ele><time>2026-04-05T08:40:59.001Z</time></trkpt><trkpt lat="40.18086540064613" lon="18.181516333542177"><ele>69.66666666666666</ele><time>2026-04-05T08:41:00.001Z</time></trkpt><trkpt lat="40.18086870127432" lon="18.181613220233828"><ele>69.5</ele><time>2026-04-05T08:41:01.001Z</time></trkpt><trkpt lat="40.18086640539924" lon="18.1817213272255"><ele>69.33333333333333</ele><time>2026-04-05T08:41:02.001Z</time></trkpt><trkpt lat="40.18085389525923" lon="18.181829033933802"><ele>69.16666666666667</ele><time>2026-04-05T08:41:03.001Z</time></trkpt><trkpt lat="40.18084522289925" lon="18.18193511999288"><ele>69.0</ele><time>2026-04-05T08:41:04.001Z</time></trkpt><trkpt lat="40.18084438299956" lon="18.182041489565343"><ele>69.0</ele><time>2026-04-05T08:41:05.001Z</time></trkpt><trkpt lat="40.18083967517354" lon="18.182151312357192"><ele>69.0</ele><time>2026-04-05T08:41:06.001Z</time></trkpt><trkpt lat="40.18084660229502" lon="18.18226126134624"><ele>69.0</ele><time>2026-04-05T08:41:07.001Z</time></trkpt><trkpt lat="40.1808480422964" lon="18.182374781876273"><ele>69.0</ele><time>2026-04-05T08:41:08.001Z</time></trkpt><trkpt lat="40.180828410390426" lon="18.18249280549682"><ele>69.0</ele><time>2026-04-05T08:41:09.001Z</time></trkpt><trkpt lat="40.18083968365887" lon="18.18260293490761"><ele>69.0</ele><time>2026-04-05T08:41:10.001Z</time></trkpt><trkpt lat="40.18082485192706" lon="18.182704974083876"><ele>69.16666666666667</ele><time>2026-04-05T08:41:11.001Z</time></trkpt><trkpt lat="40.18082180263965" lon="18.182813133866865"><ele>69.33333333333333</ele><time>2026-04-05T08:41:12.001Z</time></trkpt><trkpt lat="40.180832460627144" lon="18.18291689692684"><ele>69.5</ele><time>2026-04-05T08:41:13.001Z</time></trkpt><trkpt lat="40.18083396836823" lon="18.183020569966224"><ele>69.66666666666666</ele><time>2026-04-05T08:41:14.001Z</time></trkpt><trkpt lat="40.1808416007198" lon="18.18312962638178"><ele>69.83333333333333</ele><time>2026-04-05T08:41:15.001Z</time></trkpt><trkpt lat="40.180833411598314" lon="18.18322392731222"><ele>70.0</ele><time>2026-04-05T08:41:16.001Z</time></trkpt><trkpt lat="40.18084250665261" lon="18.183336551528075"><ele>70.16666666666666</ele><time>2026-04-05T08:41:17.001Z</time></trkpt><trkpt lat="40.18084836990407" lon="18.183450292439158"><ele>70.33333333333333</ele><time>2026-04-05T08:41:18.001Z</time></trkpt><trkpt lat="40.180857969888336" lon="18.183566415657612"><ele>70.5</ele><time>2026-04-05T08:41:19.001Z</time></trkpt><trkpt lat="40.18086805814614" lon="18.183682431168798"><ele>70.66666666666667</ele><time>2026-04-05T08:41:20.001Z</time></trkpt><trkpt lat="40.180875412512485" lon="18.183783484677296"><ele>70.83333333333334</ele><time>2026-04-05T08:41:21.001Z</time></trkpt><trkpt lat="40.18088592353833" lon="18.183887139144932"><ele>71.0</ele><time>2026-04-05T08:41:22.001Z</time></trkpt><trkpt lat="40.1809010020178" lon="18.18399317527004"><ele>71.0</ele><time>2026-04-05T08:41:23.001Z</time></trkpt><trkpt lat="40.18092313887722" lon="18.18410201002558"><ele>71.0</ele><time>2026-04-05T08:41:24.001Z</time></trkpt><trkpt lat="40.18093584800353" lon="18.18420651355662"><ele>71.0</ele><time>2026-04-05T08:41:25.001Z</time></trkpt><trkpt lat="40.1809672138497" lon="18.18434931714696"><ele>71.0</ele><time>2026-04-05T08:41:27.001Z</time></trkpt><trkpt lat="40.180926520516024" lon="18.18444443086156"><ele>71.0</ele><time>2026-04-05T08:41:29.001Z</time></trkpt><trkpt lat="40.180848118238714" lon="18.18444439238564"><ele>71.0</ele><time>2026-04-05T08:41:30.001Z</time></trkpt><trkpt lat="40.18078539492825" lon="18.184477354676623"><ele>71.0</ele><time>2026-04-05T08:41:32.001Z</time></trkpt><trkpt lat="40.18069907599913" lon="18.184522717626628"><ele>71.0</ele><time>2026-04-05T08:41:34Z</time></trkpt><trkpt lat="40.1805860892098" lon="18.18458605693016"><ele>71.0</ele><time>2026-04-05T08:41:36Z</time></trkpt><trkpt lat="40.18052869757173" lon="18.184641457304537"><ele>71.0</ele><time>2026-04-05T08:41:37Z</time></trkpt><trkpt lat="40.180469417410436" lon="18.18467431961292"><ele>71.0</ele><time>2026-04-05T08:41:38Z</time></trkpt><trkpt lat="40.18040563978063" lon="18.184704842883"><ele>71.0</ele><time>2026-04-05T08:41:39Z</time></trkpt><trkpt lat="40.18033939832082" lon="18.184731185815"><ele>71.0</ele><time>2026-04-05T08:41:40Z</time></trkpt><trkpt lat="40.18027235272428" lon="18.184760087766904"><ele>71.0</ele><time>2026-04-05T08:41:41Z</time></trkpt><trkpt lat="40.18019586035539" lon="18.18480158709903"><ele>71.0</ele><time>2026-04-05T08:41:42Z</time></trkpt><trkpt lat="40.18012971779404" lon="18.18482809106024"><ele>71.0</ele><time>2026-04-05T08:41:43Z</time></trkpt><trkpt lat="40.18006747545723" lon="18.184857844618886"><ele>71.0</ele><time>2026-04-05T08:41:44Z</time></trkpt><trkpt lat="40.179959465971976" lon="18.184910622131394"><ele>71.0</ele><time>2026-04-05T08:41:46Z</time></trkpt><trkpt lat="40.17989662187249" lon="18.184950349070718"><ele>70.8</ele><time>2026-04-05T08:41:48Z</time></trkpt><trkpt lat="40.1798545824156" lon="18.185014485874067"><ele>70.6</ele><time>2026-04-05T08:41:50Z</time></trkpt><trkpt lat="40.17988039735772" lon="18.185173536969284"><ele>70.4</ele><time>2026-04-05T08:41:53Z</time></trkpt><trkpt lat="40.179894890302684" lon="18.18526814411308"><ele>70.2</ele><time>2026-04-05T08:41:54Z</time></trkpt><trkpt lat="40.1799244485507" lon="18.18539637999403"><ele>70.0</ele><time>2026-04-05T08:41:55Z</time></trkpt><trkpt lat="40.179971114539825" lon="18.185549728728024"><ele>70.0</ele><time>2026-04-05T08:41:56Z</time></trkpt><trkpt lat="40.180018074162" lon="18.18572425463506"><ele>70.0</ele><time>2026-04-05T08:41:57Z</time></trkpt><trkpt lat="40.18004864084022" lon="18.1859150598818"><ele>70.0</ele><time>2026-04-05T08:41:58Z</time></trkpt><trkpt lat="40.18011281740487" lon="18.186120855920482"><ele>70.0</ele><time>2026-04-05T08:41:59Z</time></trkpt><trkpt lat="40.1801983266091" lon="18.1863588676663"><ele>70.0</ele><time>2026-04-05T08:42:00Z</time></trkpt><trkpt lat="40.18024760004863" lon="18.186569024756004"><ele>70.0</ele><time>2026-04-05T08:42:01Z</time></trkpt><trkpt lat="40.18033120434761" lon="18.186793301714847"><ele>70.33333333333333</ele><time>2026-04-05T08:42:02Z</time></trkpt><trkpt lat="40.18045175793801" lon="18.187035523196034"><ele>70.66666666666667</ele><time>2026-04-05T08:42:03Z</time></trkpt><trkpt lat="40.18056154628192" lon="18.18728362756253"><ele>71.0</ele><time>2026-04-05T08:42:04Z</time></trkpt><trkpt lat="40.18064155620564" lon="18.18750107080203"><ele>71.33333333333334</ele><time>2026-04-05T08:42:05Z</time></trkpt><trkpt lat="40.180715330855584" lon="18.18770430788047"><ele>71.66666666666667</ele><time>2026-04-05T08:42:06Z</time></trkpt><trkpt lat="40.180778560166296" lon="18.18791125499069"><ele>72.0</ele><time>2026-04-05T08:42:07Z</time></trkpt><trkpt lat="40.180844143794594" lon="18.188117325067548"><ele>72.33333333333333</ele><time>2026-04-05T08:42:08Z</time></trkpt><trkpt lat="40.180914991793294" lon="18.188323273503727"><ele>72.66666666666666</ele><time>2026-04-05T08:42:09Z</time></trkpt><trkpt lat="40.18098378646475" lon="18.188529591556648"><ele>73.0</ele><time>2026-04-05T08:42:10Z</time></trkpt><trkpt lat="40.18104630680409" lon="18.18873571350324"><ele>73.0</ele><time>2026-04-05T08:42:11Z</time></trkpt><trkpt lat="40.18110983133976" lon="18.188930852507593"><ele>73.0</ele><time>2026-04-05T08:42:12Z</time></trkpt><trkpt lat="40.181175959814965" lon="18.189127744779256"><ele>73.0</ele><time>2026-04-05T08:42:13Z</time></trkpt><trkpt lat="40.181242809455505" lon="18.18931869739367"><ele>72.75</ele><time>2026-04-05T08:42:14Z</time></trkpt><trkpt lat="40.181289036907195" lon="18.189504039656157"><ele>72.5</ele><time>2026-04-05T08:42:15Z</time></trkpt><trkpt lat="40.18134575248644" lon="18.189686061019042"><ele>72.25</ele><time>2026-04-05T08:42:16Z</time></trkpt><trkpt lat="40.18140564200324" lon="18.189864119459514"><ele>72.0</ele><time>2026-04-05T08:42:17Z</time></trkpt><trkpt lat="40.18145392884734" lon="18.190024153449354"><ele>71.8</ele><time>2026-04-05T08:42:18Z</time></trkpt><trkpt lat="40.18150429767349" lon="18.19017141323713"><ele>71.6</ele><time>2026-04-05T08:42:19Z</time></trkpt><trkpt lat="40.18154207736237" lon="18.190298660648683"><ele>71.39999999999999</ele><time>2026-04-05T08:42:20Z</time></trkpt><trkpt lat="40.18157435228009" lon="18.19041994050078"><ele>71.2</ele><time>2026-04-05T08:42:21Z</time></trkpt><trkpt lat="40.18157844061304" lon="18.190534593972718"><ele>71.0</ele><time>2026-04-05T08:42:22Z</time></trkpt><trkpt lat="40.18156757548772" lon="18.190651143704407"><ele>71.0</ele><time>2026-04-05T08:42:23Z</time></trkpt><trkpt lat="40.18154593096316" lon="18.190780113233828"><ele>71.0</ele><time>2026-04-05T08:42:24Z</time></trkpt><trkpt lat="40.18150776499414" lon="18.190885924544396"><ele>71.0</ele><time>2026-04-05T08:42:25Z</time></trkpt><trkpt lat="40.18147470908746" lon="18.190972474819457"><ele>71.0</ele><time>2026-04-05T08:42:26Z</time></trkpt><trkpt lat="40.18147276670543" lon="18.19105842628561"><ele>71.0</ele><time>2026-04-05T08:42:27Z</time></trkpt><trkpt lat="40.181557733155955" lon="18.191195308479585"><ele>71.0</ele><time>2026-04-05T08:42:29.001Z</time></trkpt><trkpt lat="40.18170642354986" lon="18.191222802674645"><ele>71.0</ele><time>2026-04-05T08:42:31.001Z</time></trkpt><trkpt lat="40.18176324342129" lon="18.19117593610179"><ele>71.0</ele><time>2026-04-05T08:42:32.001Z</time></trkpt><trkpt lat="40.18182733524265" lon="18.19116181817047"><ele>71.0</ele><time>2026-04-05T08:42:33.001Z</time></trkpt><trkpt lat="40.18194653765407" lon="18.191147712822136"><ele>71.0</ele><time>2026-04-05T08:42:35.001Z</time></trkpt><trkpt lat="40.18202326420004" lon="18.191226561400416"><ele>71.0</ele><time>2026-04-05T08:42:36.001Z</time></trkpt><trkpt lat="40.18210823605049" lon="18.191337015752918"><ele>71.0</ele><time>2026-04-05T08:42:37.001Z</time></trkpt><trkpt lat="40.18222949129008" lon="18.19146161783663"><ele>71.0</ele><time>2026-04-05T08:42:38.001Z</time></trkpt><trkpt lat="40.182371000049606" lon="18.19161147746162"><ele>72.0</ele><time>2026-04-05T08:42:39.001Z</time></trkpt><trkpt lat="40.18254676010761" lon="18.19178564644687"><ele>73.0</ele><time>2026-04-05T08:42:40.001Z</time></trkpt><trkpt lat="40.18272704164403" lon="18.191930041879743"><ele>74.0</ele><time>2026-04-05T08:42:41.001Z</time></trkpt><trkpt lat="40.18288625596772" lon="18.192074699780974"><ele>74.0</ele><time>2026-04-05T08:42:42.001Z</time></trkpt><trkpt lat="40.18302578376272" lon="18.192237616320675"><ele>74.0</ele><time>2026-04-05T08:42:43.001Z</time></trkpt><trkpt lat="40.18315239695769" lon="18.192436028635104"><ele>74.0</ele><time>2026-04-05T08:42:44.001Z</time></trkpt><trkpt lat="40.183281275429316" lon="18.192634613708908"><ele>74.0</ele><time>2026-04-05T08:42:45.001Z</time></trkpt><trkpt lat="40.18340005221059" lon="18.192845218509476"><ele>74.0</ele><time>2026-04-05T08:42:46.001Z</time></trkpt><trkpt lat="40.18349773421817" lon="18.19307226129352"><ele>74.0</ele><time>2026-04-05T08:42:47.001Z</time></trkpt><trkpt lat="40.18359004914297" lon="18.193299737548685"><ele>74.0</ele><time>2026-04-05T08:42:48.001Z</time></trkpt><trkpt lat="40.18366410740693" lon="18.193546819909333"><ele>74.0</ele><time>2026-04-05T08:42:49.001Z</time></trkpt><trkpt lat="40.183711013221014" lon="18.193788629832653"><ele>74.0</ele><time>2026-04-05T08:42:50.001Z</time></trkpt><trkpt lat="40.18374145807792" lon="18.194047525926344"><ele>74.0</ele><time>2026-04-05T08:42:51.001Z</time></trkpt><trkpt lat="40.18375354795908" lon="18.194319342317403"><ele>74.0</ele><time>2026-04-05T08:42:52.001Z</time></trkpt><trkpt lat="40.18375130231446" lon="18.194606771224773"><ele>74.0</ele><time>2026-04-05T08:42:53.001Z</time></trkpt><trkpt lat="40.18374554008636" lon="18.194897512189627"><ele>74.66666666666667</ele><time>2026-04-05T08:42:54.001Z</time></trkpt><trkpt lat="40.18373700544489" lon="18.19518409219946"><ele>75.33333333333333</ele><time>2026-04-05T08:42:55.001Z</time></trkpt><trkpt lat="40.18373339583668" lon="18.195468308216352"><ele>76.0</ele><time>2026-04-05T08:42:56.001Z</time></trkpt><trkpt lat="40.183734323212214" lon="18.1957463137469"><ele>76.33333333333333</ele><time>2026-04-05T08:42:57.001Z</time></trkpt><trkpt lat="40.1837402862786" lon="18.196013308070135"><ele>76.66666666666667</ele><time>2026-04-05T08:42:58.001Z</time></trkpt><trkpt lat="40.18374643406933" lon="18.196258340863615"><ele>77.0</ele><time>2026-04-05T08:42:59.001Z</time></trkpt><trkpt lat="40.18373257199032" lon="18.196481858359967"><ele>77.66666666666667</ele><time>2026-04-05T08:43:00.001Z</time></trkpt><trkpt lat="40.1837386500904" lon="18.196705218594712"><ele>78.33333333333333</ele><time>2026-04-05T08:43:01.001Z</time></trkpt><trkpt lat="40.183750544608706" lon="18.196927720240467"><ele>79.0</ele><time>2026-04-05T08:43:02.001Z</time></trkpt><trkpt lat="40.183761996623815" lon="18.197145770525264"><ele>79.33333333333333</ele><time>2026-04-05T08:43:03.001Z</time></trkpt><trkpt lat="40.183807119927835" lon="18.19737436475218"><ele>79.66666666666667</ele><time>2026-04-05T08:43:04.001Z</time></trkpt><trkpt lat="40.183841894261654" lon="18.19758186422839"><ele>80.0</ele><time>2026-04-05T08:43:05.001Z</time></trkpt><trkpt lat="40.183903540416324" lon="18.197786178572006"><ele>80.0</ele><time>2026-04-05T08:43:06.001Z</time></trkpt><trkpt lat="40.183980592922246" lon="18.19796923918143"><ele>80.0</ele><time>2026-04-05T08:43:07.001Z</time></trkpt><trkpt lat="40.18403621062714" lon="18.198151519347412"><ele>80.0</ele><time>2026-04-05T08:43:08.001Z</time></trkpt><trkpt lat="40.18407444932812" lon="18.19831170157838"><ele>80.0</ele><time>2026-04-05T08:43:09.001Z</time></trkpt><trkpt lat="40.18412853925783" lon="18.19845730387403"><ele>79.8</ele><time>2026-04-05T08:43:10.001Z</time></trkpt><trkpt lat="40.184185852189444" lon="18.198585633668227"><ele>79.6</ele><time>2026-04-05T08:43:11.001Z</time></trkpt><trkpt lat="40.184220544595796" lon="18.198665767029546"><ele>79.4</ele><time>2026-04-05T08:43:12.001Z</time></trkpt><trkpt lat="40.184254808497506" lon="18.198774194892223"><ele>79.2</ele><time>2026-04-05T08:43:13.001Z</time></trkpt><trkpt lat="40.18429277782846" lon="18.19889434848067"><ele>79.0</ele><time>2026-04-05T08:43:15.001Z</time></trkpt><trkpt lat="40.18422688672488" lon="18.198717131966276"><ele>79.0</ele><time>2026-04-05T08:43:17.001Z</time></trkpt><trkpt lat="40.184279472786116" lon="18.19883481960603"><ele>79.0</ele><time>2026-04-05T08:43:20.001Z</time></trkpt><trkpt lat="40.184302833310404" lon="18.19892616938162"><ele>79.0</ele><time>2026-04-05T08:43:22.001Z</time></trkpt><trkpt lat="40.18434139683518" lon="18.199044966167452"><ele>79.0</ele><time>2026-04-05T08:43:24.001Z</time></trkpt><trkpt lat="40.1843734239868" lon="18.19914100980189"><ele>79.0</ele><time>2026-04-05T08:43:25.001Z</time></trkpt><trkpt lat="40.1844303644344" lon="18.199280645236783"><ele>79.75</ele><time>2026-04-05T08:43:27.001Z</time></trkpt><trkpt lat="40.18445578973703" lon="18.199394882877407"><ele>80.5</ele><time>2026-04-05T08:43:30.001Z</time></trkpt><trkpt lat="40.18449638707333" lon="18.199498823299315"><ele>81.25</ele><time>2026-04-05T08:43:32.001Z</time></trkpt><trkpt lat="40.18463354779517" lon="18.199329839524083"><ele>82.0</ele><time>2026-04-05T08:43:33.001Z</time></trkpt><trkpt lat="40.18479393719674" lon="18.19923985853043"><ele>82.0</ele><time>2026-04-05T08:43:34.001Z</time></trkpt><trkpt lat="40.18493007565582" lon="18.19912026629615"><ele>82.0</ele><time>2026-04-05T08:43:35.001Z</time></trkpt><trkpt lat="40.18503992817355" lon="18.199025845269045"><ele>82.0</ele><time>2026-04-05T08:43:36.001Z</time></trkpt><trkpt lat="40.18514518397245" lon="18.198960340300726"><ele>82.0</ele><time>2026-04-05T08:43:37.001Z</time></trkpt><trkpt lat="40.18526862198849" lon="18.19891235868171"><ele>81.75</ele><time>2026-04-05T08:43:38.001Z</time></trkpt><trkpt lat="40.1854128773156" lon="18.198833512519965"><ele>81.5</ele><time>2026-04-05T08:43:39Z</time></trkpt><trkpt lat="40.18555271537156" lon="18.198759348387124"><ele>81.25</ele><time>2026-04-05T08:43:40Z</time></trkpt><trkpt lat="40.18567240038478" lon="18.19869296387626"><ele>81.0</ele><time>2026-04-05T08:43:41Z</time></trkpt><trkpt lat="40.185776784841444" lon="18.198626830917213"><ele>81.0</ele><time>2026-04-05T08:43:42Z</time></trkpt><trkpt lat="40.18587119858484" lon="18.19854652257292"><ele>81.0</ele><time>2026-04-05T08:43:43Z</time></trkpt><trkpt lat="40.18599547229895" lon="18.198526658414913"><ele>81.0</ele><time>2026-04-05T08:43:44Z</time></trkpt><trkpt lat="40.18609505572435" lon="18.198460696103723"><ele>81.0</ele><time>2026-04-05T08:43:45Z</time></trkpt><trkpt lat="40.186198062366394" lon="18.19839069808779"><ele>81.0</ele><time>2026-04-05T08:43:46Z</time></trkpt><trkpt lat="40.18628254464388" lon="18.198333229313803"><ele>81.0</ele><time>2026-04-05T08:43:47Z</time></trkpt><trkpt lat="40.18637966686125" lon="18.198275838715205"><ele>81.0</ele><time>2026-04-05T08:43:48Z</time></trkpt><trkpt lat="40.18647756573529" lon="18.19821433036134"><ele>81.0</ele><time>2026-04-05T08:43:49Z</time></trkpt><trkpt lat="40.18657965806964" lon="18.19815443128552"><ele>81.0</ele><time>2026-04-05T08:43:50Z</time></trkpt><trkpt lat="40.18666425985484" lon="18.198120613900315"><ele>80.6</ele><time>2026-04-05T08:43:51Z</time></trkpt><trkpt lat="40.18674478430102" lon="18.19807321139313"><ele>80.19999999999999</ele><time>2026-04-05T08:43:52Z</time></trkpt><trkpt lat="40.18682632040854" lon="18.198018661418327"><ele>79.80000000000001</ele><time>2026-04-05T08:43:53Z</time></trkpt><trkpt lat="40.18691149331635" lon="18.197984241676725"><ele>79.4</ele><time>2026-04-05T08:43:54Z</time></trkpt><trkpt lat="40.18699210905562" lon="18.197936528177422"><ele>79.0</ele><time>2026-04-05T08:43:55Z</time></trkpt><trkpt lat="40.187098079116616" lon="18.19788567421372"><ele>79.0</ele><time>2026-04-05T08:43:56Z</time></trkpt><trkpt lat="40.187195985059034" lon="18.197831123544333"><ele>79.0</ele><time>2026-04-05T08:43:57Z</time></trkpt><trkpt lat="40.18730652669918" lon="18.197769788004987"><ele>79.0</ele><time>2026-04-05T08:43:58Z</time></trkpt><trkpt lat="40.187452643975675" lon="18.197689495034115"><ele>79.0</ele><time>2026-04-05T08:43:59Z</time></trkpt><trkpt lat="40.187578193371806" lon="18.197621155604025"><ele>79.0</ele><time>2026-04-05T08:44:00Z</time></trkpt><trkpt lat="40.187688645632754" lon="18.197566311677964"><ele>79.0</ele><time>2026-04-05T08:44:01Z</time></trkpt><trkpt lat="40.18778998560485" lon="18.19752876095376"><ele>79.0</ele><time>2026-04-05T08:44:02Z</time></trkpt><trkpt lat="40.18788136019301" lon="18.197525972161376"><ele>79.0</ele><time>2026-04-05T08:44:03Z</time></trkpt><trkpt lat="40.187969094972" lon="18.197532398641112"><ele>79.0</ele><time>2026-04-05T08:44:04Z</time></trkpt><trkpt lat="40.188052238599546" lon="18.197545964926206"><ele>79.0</ele><time>2026-04-05T08:44:05Z</time></trkpt><trkpt lat="40.188138184643684" lon="18.19757754620399"><ele>79.0</ele><time>2026-04-05T08:44:06Z</time></trkpt><trkpt lat="40.18820857895662" lon="18.19762763287789"><ele>79.0</ele><time>2026-04-05T08:44:07Z</time></trkpt><trkpt lat="40.188325343741155" lon="18.19774003848515"><ele>79.0</ele><time>2026-04-05T08:44:09Z</time></trkpt><trkpt lat="40.18836857628522" lon="18.197800026206128"><ele>79.0</ele><time>2026-04-05T08:44:10Z</time></trkpt><trkpt lat="40.18841283032305" lon="18.197867632399387"><ele>79.0</ele><time>2026-04-05T08:44:11Z</time></trkpt><trkpt lat="40.18853883832381" lon="18.198198187177276"><ele>79.66666666666666</ele><time>2026-04-05T08:44:13Z</time></trkpt><trkpt lat="40.188607208390536" lon="18.198400353352074"><ele>80.33333333333333</ele><time>2026-04-05T08:44:14Z</time></trkpt><trkpt lat="40.188672512276334" lon="18.1985943598367"><ele>81.0</ele><time>2026-04-05T08:44:15Z</time></trkpt><trkpt lat="40.18875102716925" lon="18.198777524422823"><ele>81.0</ele><time>2026-04-05T08:44:16Z</time></trkpt><trkpt lat="40.18880764135379" lon="18.198996797672976"><ele>81.0</ele><time>2026-04-05T08:44:17Z</time></trkpt><trkpt lat="40.18887706049966" lon="18.199226231813242"><ele>81.0</ele><time>2026-04-05T08:44:18Z</time></trkpt><trkpt lat="40.18894600007984" lon="18.19938422309791"><ele>81.25</ele><time>2026-04-05T08:44:19Z</time></trkpt><trkpt lat="40.18900586674693" lon="18.199548113372227"><ele>81.5</ele><time>2026-04-05T08:44:20Z</time></trkpt><trkpt lat="40.18905416046048" lon="18.199703249107596"><ele>81.75</ele><time>2026-04-05T08:44:21Z</time></trkpt><trkpt lat="40.189111483301275" lon="18.199857164970624"><ele>82.0</ele><time>2026-04-05T08:44:22Z</time></trkpt><trkpt lat="40.18914345580226" lon="18.199978895079248"><ele>82.19999999999999</ele><time>2026-04-05T08:44:23Z</time></trkpt><trkpt lat="40.18918034976226" lon="18.200100181409994"><ele>82.4</ele><time>2026-04-05T08:44:24Z</time></trkpt><trkpt lat="40.18922171524151" lon="18.200186506414195"><ele>82.6</ele><time>2026-04-05T08:44:25Z</time></trkpt><trkpt lat="40.18926785758847" lon="18.200320421906564"><ele>82.80000000000001</ele><time>2026-04-05T08:44:26Z</time></trkpt><trkpt lat="40.18932639638304" lon="18.200480213974394"><ele>83.0</ele><time>2026-04-05T08:44:27Z</time></trkpt><trkpt lat="40.18938087331687" lon="18.20062893775809"><ele>83.2</ele><time>2026-04-05T08:44:28Z</time></trkpt><trkpt lat="40.18942631994766" lon="18.200758381463725"><ele>83.4</ele><time>2026-04-05T08:44:29Z</time></trkpt><trkpt lat="40.18946744523985" lon="18.200870610090945"><ele>83.60000000000001</ele><time>2026-04-05T08:44:30Z</time></trkpt><trkpt lat="40.18947774685631" lon="18.200961424340168"><ele>83.80000000000001</ele><time>2026-04-05T08:44:31Z</time></trkpt><trkpt lat="40.189520296493946" lon="18.20107308378938"><ele>84.0</ele><time>2026-04-05T08:44:33Z</time></trkpt><trkpt lat="40.18972692186435" lon="18.200906447576706"><ele>84.0</ele><time>2026-04-05T08:44:36.001Z</time></trkpt><trkpt lat="40.189817463012055" lon="18.200810148657204"><ele>84.0</ele><time>2026-04-05T08:44:37.001Z</time></trkpt><trkpt lat="40.189922710815935" lon="18.200688697325567"><ele>84.0</ele><time>2026-04-05T08:44:38.001Z</time></trkpt><trkpt lat="40.190034078663004" lon="18.20058932324848"><ele>84.0</ele><time>2026-04-05T08:44:39.001Z</time></trkpt><trkpt lat="40.19011112648365" lon="18.200502369961896"><ele>84.0</ele><time>2026-04-05T08:44:40.001Z</time></trkpt><trkpt lat="40.190175050617576" lon="18.20043022754745"><ele>84.0</ele><time>2026-04-05T08:44:41.001Z</time></trkpt><trkpt lat="40.190247109751894" lon="18.20034766471094"><ele>84.0</ele><time>2026-04-05T08:44:43.001Z</time></trkpt><trkpt lat="40.19030727985842" lon="18.200320115661658"><ele>84.0</ele><time>2026-04-05T08:44:45.001Z</time></trkpt><trkpt lat="40.19038593375375" lon="18.20047870764956"><ele>84.0</ele><time>2026-04-05T08:44:46.001Z</time></trkpt><trkpt lat="40.19046639127779" lon="18.200576121125522"><ele>84.0</ele><time>2026-04-05T08:44:47.001Z</time></trkpt><trkpt lat="40.19050520726809" lon="18.20065029382946"><ele>84.0</ele><time>2026-04-05T08:44:48.001Z</time></trkpt><trkpt lat="40.19056266385267" lon="18.200724092459687"><ele>83.0</ele><time>2026-04-05T08:44:50.001Z</time></trkpt><trkpt lat="40.190605145582396" lon="18.200813326386918"><ele>83.0</ele><time>2026-04-05T08:44:55.001Z</time></trkpt><trkpt lat="40.19077083899226" lon="18.200663060633595"><ele>83.0</ele><time>2026-04-05T08:45:49Z</time></trkpt></trkseg></trk></gpx>